<?xml version="1.0" encoding="UTF-8"?>
<gpx version="1.1" creator="https://www.youtrack.es" xsi:schemaLocation="http://www.topografix.com/GPX/1/1 http://www.topografix.com/GPX/1/1/gpx.xsd http://www.garmin.com/xmlschemas/GpxExtensions/v3 http://www.garmin.com/xmlschemas/GpxExtensionsv3.xsd http://www.garmin.com/xmlschemas/TrackPointExtension/v1 http://www.garmin.com/xmlschemas/TrackPointExtensionv1.xsd" xmlns:gpxtpx="http://www.garmin.com/xmlschemas/TrackPointExtension/v1" xmlns:gpxx="http://www.garmin.com/xmlschemas/GpxExtensions/v3" xmlns:xsi="http://www.w3.org/2001/XMLSchema-instance">
  <metadata>
    <link href="https://www.youtrack.es">
      <text>YouTrack.es</text>
    </link>
    <time>2026-05-08T20:51:08Z</time>
  </metadata>
  <trk>
    <src>https://www.youtrack.es</src>
    <link href="https://www.youtrack.es/ruta/7447-pirineo-frances-2">
      <text>YouTrack.es</text>
    </link>
    <trkseg>
      <trkpt lat="43.1205600" lon="-0.8670820">
        <ele>217.7</ele>
        <time>2019-07-13T10:51:39Z</time>
      </trkpt>
      <trkpt lat="43.1205590" lon="-0.8670800">
        <ele>217.7</ele>
        <time>2019-07-13T10:51:40Z</time>
      </trkpt>
      <trkpt lat="43.1205590" lon="-0.8670800">
        <ele>217.7</ele>
        <time>2019-07-13T10:51:40Z</time>
      </trkpt>
      <trkpt lat="43.1205590" lon="-0.8670800">
        <ele>217.7</ele>
        <time>2019-07-13T10:51:40Z</time>
      </trkpt>
      <trkpt lat="43.1205390" lon="-0.8671290">
        <ele>217.6</ele>
        <time>2019-07-13T10:52:11Z</time>
      </trkpt>
      <trkpt lat="43.1204380" lon="-0.8671220">
        <ele>217.3</ele>
        <time>2019-07-13T10:52:26Z</time>
      </trkpt>
      <trkpt lat="43.1203310" lon="-0.8670700">
        <ele>217.1</ele>
        <time>2019-07-13T10:52:31Z</time>
      </trkpt>
      <trkpt lat="43.1202690" lon="-0.8669560">
        <ele>216.8</ele>
        <time>2019-07-13T10:52:36Z</time>
      </trkpt>
      <trkpt lat="43.1201860" lon="-0.8668860">
        <ele>217.5</ele>
        <time>2019-07-13T10:52:40Z</time>
      </trkpt>
      <trkpt lat="43.1201360" lon="-0.8667650">
        <ele>218.2</ele>
        <time>2019-07-13T10:52:44Z</time>
      </trkpt>
      <trkpt lat="43.1200660" lon="-0.8666610">
        <ele>218.9</ele>
        <time>2019-07-13T10:52:50Z</time>
      </trkpt>
      <trkpt lat="43.1199670" lon="-0.8666000">
        <ele>219.8</ele>
        <time>2019-07-13T10:52:57Z</time>
      </trkpt>
      <trkpt lat="43.1199050" lon="-0.8664970">
        <ele>220.7</ele>
        <time>2019-07-13T10:53:02Z</time>
      </trkpt>
      <trkpt lat="43.1198380" lon="-0.8663750">
        <ele>221.7</ele>
        <time>2019-07-13T10:53:07Z</time>
      </trkpt>
      <trkpt lat="43.1197880" lon="-0.8662430">
        <ele>222.7</ele>
        <time>2019-07-13T10:53:13Z</time>
      </trkpt>
      <trkpt lat="43.1197180" lon="-0.8661530">
        <ele>223.7</ele>
        <time>2019-07-13T10:53:17Z</time>
      </trkpt>
      <trkpt lat="43.1195870" lon="-0.8661390">
        <ele>224.4</ele>
        <time>2019-07-13T10:53:21Z</time>
      </trkpt>
      <trkpt lat="43.1195630" lon="-0.8660140">
        <ele>225.0</ele>
        <time>2019-07-13T10:53:28Z</time>
      </trkpt>
      <trkpt lat="43.1195160" lon="-0.8659000">
        <ele>225.7</ele>
        <time>2019-07-13T10:53:32Z</time>
      </trkpt>
      <trkpt lat="43.1194620" lon="-0.8657850">
        <ele>226.5</ele>
        <time>2019-07-13T10:53:38Z</time>
      </trkpt>
      <trkpt lat="43.1193890" lon="-0.8656750">
        <ele>227.2</ele>
        <time>2019-07-13T10:53:42Z</time>
      </trkpt>
      <trkpt lat="43.1193020" lon="-0.8655540">
        <ele>227.6</ele>
        <time>2019-07-13T10:53:46Z</time>
      </trkpt>
      <trkpt lat="43.1192170" lon="-0.8654570">
        <ele>227.8</ele>
        <time>2019-07-13T10:53:49Z</time>
      </trkpt>
      <trkpt lat="43.1191310" lon="-0.8653930">
        <ele>227.9</ele>
        <time>2019-07-13T10:53:52Z</time>
      </trkpt>
      <trkpt lat="43.1190470" lon="-0.8653220">
        <ele>227.9</ele>
        <time>2019-07-13T10:53:55Z</time>
      </trkpt>
      <trkpt lat="43.1189580" lon="-0.8652580">
        <ele>227.9</ele>
        <time>2019-07-13T10:53:58Z</time>
      </trkpt>
      <trkpt lat="43.1188770" lon="-0.8651980">
        <ele>228.0</ele>
        <time>2019-07-13T10:54:01Z</time>
      </trkpt>
      <trkpt lat="43.1187630" lon="-0.8651080">
        <ele>228.0</ele>
        <time>2019-07-13T10:54:06Z</time>
      </trkpt>
      <trkpt lat="43.1186730" lon="-0.8650520">
        <ele>228.0</ele>
        <time>2019-07-13T10:54:10Z</time>
      </trkpt>
      <trkpt lat="43.1185780" lon="-0.8649820">
        <ele>228.0</ele>
        <time>2019-07-13T10:54:14Z</time>
      </trkpt>
      <trkpt lat="43.1184800" lon="-0.8649200">
        <ele>227.8</ele>
        <time>2019-07-13T10:54:18Z</time>
      </trkpt>
      <trkpt lat="43.1183950" lon="-0.8648410">
        <ele>227.5</ele>
        <time>2019-07-13T10:54:23Z</time>
      </trkpt>
      <trkpt lat="43.1183080" lon="-0.8647790">
        <ele>227.3</ele>
        <time>2019-07-13T10:54:27Z</time>
      </trkpt>
      <trkpt lat="43.1181810" lon="-0.8646810">
        <ele>227.3</ele>
        <time>2019-07-13T10:54:33Z</time>
      </trkpt>
      <trkpt lat="43.1180850" lon="-0.8646160">
        <ele>227.5</ele>
        <time>2019-07-13T10:54:37Z</time>
      </trkpt>
      <trkpt lat="43.1179840" lon="-0.8645330">
        <ele>227.7</ele>
        <time>2019-07-13T10:54:41Z</time>
      </trkpt>
      <trkpt lat="43.1178960" lon="-0.8644690">
        <ele>227.9</ele>
        <time>2019-07-13T10:54:44Z</time>
      </trkpt>
      <trkpt lat="43.1177840" lon="-0.8643840">
        <ele>228.5</ele>
        <time>2019-07-13T10:54:47Z</time>
      </trkpt>
      <trkpt lat="43.1177020" lon="-0.8643180">
        <ele>228.6</ele>
        <time>2019-07-13T10:54:49Z</time>
      </trkpt>
      <trkpt lat="43.1176040" lon="-0.8642510">
        <ele>228.4</ele>
        <time>2019-07-13T10:54:51Z</time>
      </trkpt>
      <trkpt lat="43.1174040" lon="-0.8641030">
        <ele>227.1</ele>
        <time>2019-07-13T10:54:55Z</time>
      </trkpt>
      <trkpt lat="43.1172480" lon="-0.8640020">
        <ele>225.3</ele>
        <time>2019-07-13T10:54:58Z</time>
      </trkpt>
      <trkpt lat="43.1171500" lon="-0.8639410">
        <ele>224.3</ele>
        <time>2019-07-13T10:55:00Z</time>
      </trkpt>
      <trkpt lat="43.1170600" lon="-0.8638880">
        <ele>224.2</ele>
        <time>2019-07-13T10:55:02Z</time>
      </trkpt>
      <trkpt lat="43.1169790" lon="-0.8638320">
        <ele>224.1</ele>
        <time>2019-07-13T10:55:04Z</time>
      </trkpt>
      <trkpt lat="43.1168640" lon="-0.8637710">
        <ele>224.0</ele>
        <time>2019-07-13T10:55:07Z</time>
      </trkpt>
      <trkpt lat="43.1167830" lon="-0.8637150">
        <ele>224.0</ele>
        <time>2019-07-13T10:55:09Z</time>
      </trkpt>
      <trkpt lat="43.1167080" lon="-0.8636370">
        <ele>223.9</ele>
        <time>2019-07-13T10:55:12Z</time>
      </trkpt>
      <trkpt lat="43.1166450" lon="-0.8634890">
        <ele>223.8</ele>
        <time>2019-07-13T10:55:17Z</time>
      </trkpt>
      <trkpt lat="43.1165900" lon="-0.8633730">
        <ele>223.8</ele>
        <time>2019-07-13T10:55:21Z</time>
      </trkpt>
      <trkpt lat="43.1165280" lon="-0.8632780">
        <ele>224.0</ele>
        <time>2019-07-13T10:55:25Z</time>
      </trkpt>
      <trkpt lat="43.1164330" lon="-0.8632480">
        <ele>224.3</ele>
        <time>2019-07-13T10:55:29Z</time>
      </trkpt>
      <trkpt lat="43.1163450" lon="-0.8632010">
        <ele>224.7</ele>
        <time>2019-07-13T10:55:34Z</time>
      </trkpt>
      <trkpt lat="43.1162580" lon="-0.8631480">
        <ele>225.1</ele>
        <time>2019-07-13T10:55:40Z</time>
      </trkpt>
      <trkpt lat="43.1161590" lon="-0.8631700">
        <ele>225.4</ele>
        <time>2019-07-13T10:55:45Z</time>
      </trkpt>
      <trkpt lat="43.1162640" lon="-0.8631450">
        <ele>225.1</ele>
        <time>2019-07-13T10:55:59Z</time>
      </trkpt>
      <trkpt lat="43.1164380" lon="-0.8631650">
        <ele>224.5</ele>
        <time>2019-07-13T10:56:06Z</time>
      </trkpt>
      <trkpt lat="43.1164300" lon="-0.8632900">
        <ele>224.2</ele>
        <time>2019-07-13T10:56:16Z</time>
      </trkpt>
      <trkpt lat="43.1164300" lon="-0.8632900">
        <ele>224.2</ele>
        <time>2019-07-13T10:56:16Z</time>
      </trkpt>
      <trkpt lat="43.1164300" lon="-0.8632900">
        <ele>224.2</ele>
        <time>2019-07-13T10:56:16Z</time>
      </trkpt>
      <trkpt lat="43.1164130" lon="-0.8633030">
        <ele>224.1</ele>
        <time>2019-07-13T10:56:24Z</time>
      </trkpt>
      <trkpt lat="43.1163320" lon="-0.8633700">
        <ele>223.8</ele>
        <time>2019-07-13T10:56:35Z</time>
      </trkpt>
      <trkpt lat="43.1163320" lon="-0.8633710">
        <ele>223.8</ele>
        <time>2019-07-13T10:56:36Z</time>
      </trkpt>
      <trkpt lat="43.1162990" lon="-0.8634070">
        <ele>223.7</ele>
        <time>2019-07-13T10:56:42Z</time>
      </trkpt>
      <trkpt lat="43.1162190" lon="-0.8634930">
        <ele>223.3</ele>
        <time>2019-07-13T10:58:10Z</time>
      </trkpt>
      <trkpt lat="43.1162930" lon="-0.8636140">
        <ele>223.8</ele>
        <time>2019-07-13T10:58:15Z</time>
      </trkpt>
      <trkpt lat="43.1163360" lon="-0.8637780">
        <ele>223.8</ele>
        <time>2019-07-13T10:58:18Z</time>
      </trkpt>
      <trkpt lat="43.1163930" lon="-0.8638840">
        <ele>223.9</ele>
        <time>2019-07-13T10:58:20Z</time>
      </trkpt>
      <trkpt lat="43.1164890" lon="-0.8639560">
        <ele>223.9</ele>
        <time>2019-07-13T10:58:22Z</time>
      </trkpt>
      <trkpt lat="43.1166210" lon="-0.8639740">
        <ele>224.0</ele>
        <time>2019-07-13T10:58:24Z</time>
      </trkpt>
      <trkpt lat="43.1167560" lon="-0.8640700">
        <ele>224.1</ele>
        <time>2019-07-13T10:58:27Z</time>
      </trkpt>
      <trkpt lat="43.1169150" lon="-0.8641320">
        <ele>224.2</ele>
        <time>2019-07-13T10:58:30Z</time>
      </trkpt>
      <trkpt lat="43.1169560" lon="-0.8642630">
        <ele>220.2</ele>
        <time>2019-07-13T10:58:33Z</time>
      </trkpt>
      <trkpt lat="43.1168980" lon="-0.8644290">
        <ele>218.5</ele>
        <time>2019-07-13T10:58:36Z</time>
      </trkpt>
      <trkpt lat="43.1168610" lon="-0.8646100">
        <ele>217.6</ele>
        <time>2019-07-13T10:58:39Z</time>
      </trkpt>
      <trkpt lat="43.1168240" lon="-0.8647250">
        <ele>217.0</ele>
        <time>2019-07-13T10:58:41Z</time>
      </trkpt>
      <trkpt lat="43.1167900" lon="-0.8648560">
        <ele>216.4</ele>
        <time>2019-07-13T10:58:44Z</time>
      </trkpt>
      <trkpt lat="43.1167570" lon="-0.8650060">
        <ele>216.1</ele>
        <time>2019-07-13T10:58:48Z</time>
      </trkpt>
      <trkpt lat="43.1167230" lon="-0.8651530">
        <ele>216.2</ele>
        <time>2019-07-13T10:58:52Z</time>
      </trkpt>
      <trkpt lat="43.1166820" lon="-0.8652890">
        <ele>216.4</ele>
        <time>2019-07-13T10:58:56Z</time>
      </trkpt>
      <trkpt lat="43.1166520" lon="-0.8654090">
        <ele>216.4</ele>
        <time>2019-07-13T10:58:59Z</time>
      </trkpt>
      <trkpt lat="43.1166160" lon="-0.8655430">
        <ele>216.4</ele>
        <time>2019-07-13T10:59:02Z</time>
      </trkpt>
      <trkpt lat="43.1165700" lon="-0.8656870">
        <ele>216.4</ele>
        <time>2019-07-13T10:59:05Z</time>
      </trkpt>
      <trkpt lat="43.1165250" lon="-0.8658660">
        <ele>216.4</ele>
        <time>2019-07-13T10:59:08Z</time>
      </trkpt>
      <trkpt lat="43.1164790" lon="-0.8660040">
        <ele>216.5</ele>
        <time>2019-07-13T10:59:10Z</time>
      </trkpt>
      <trkpt lat="43.1164240" lon="-0.8661490">
        <ele>216.5</ele>
        <time>2019-07-13T10:59:12Z</time>
      </trkpt>
      <trkpt lat="43.1163720" lon="-0.8662970">
        <ele>216.6</ele>
        <time>2019-07-13T10:59:14Z</time>
      </trkpt>
      <trkpt lat="43.1163200" lon="-0.8664470">
        <ele>216.7</ele>
        <time>2019-07-13T10:59:16Z</time>
      </trkpt>
      <trkpt lat="43.1162670" lon="-0.8665970">
        <ele>216.9</ele>
        <time>2019-07-13T10:59:18Z</time>
      </trkpt>
      <trkpt lat="43.1162170" lon="-0.8667440">
        <ele>217.1</ele>
        <time>2019-07-13T10:59:20Z</time>
      </trkpt>
      <trkpt lat="43.1161830" lon="-0.8668950">
        <ele>217.2</ele>
        <time>2019-07-13T10:59:22Z</time>
      </trkpt>
      <trkpt lat="43.1161720" lon="-0.8670440">
        <ele>217.2</ele>
        <time>2019-07-13T10:59:24Z</time>
      </trkpt>
      <trkpt lat="43.1161630" lon="-0.8671850">
        <ele>217.3</ele>
        <time>2019-07-13T10:59:26Z</time>
      </trkpt>
      <trkpt lat="43.1161670" lon="-0.8673120">
        <ele>217.4</ele>
        <time>2019-07-13T10:59:28Z</time>
      </trkpt>
      <trkpt lat="43.1161960" lon="-0.8674830">
        <ele>217.4</ele>
        <time>2019-07-13T10:59:31Z</time>
      </trkpt>
      <trkpt lat="43.1162590" lon="-0.8676370">
        <ele>217.5</ele>
        <time>2019-07-13T10:59:34Z</time>
      </trkpt>
      <trkpt lat="43.1163250" lon="-0.8677890">
        <ele>217.6</ele>
        <time>2019-07-13T10:59:37Z</time>
      </trkpt>
      <trkpt lat="43.1163880" lon="-0.8679340">
        <ele>217.7</ele>
        <time>2019-07-13T10:59:40Z</time>
      </trkpt>
      <trkpt lat="43.1164480" lon="-0.8680760">
        <ele>217.7</ele>
        <time>2019-07-13T10:59:43Z</time>
      </trkpt>
      <trkpt lat="43.1165020" lon="-0.8682250">
        <ele>217.7</ele>
        <time>2019-07-13T10:59:46Z</time>
      </trkpt>
      <trkpt lat="43.1165450" lon="-0.8683680">
        <ele>217.8</ele>
        <time>2019-07-13T10:59:49Z</time>
      </trkpt>
      <trkpt lat="43.1165950" lon="-0.8685110">
        <ele>217.8</ele>
        <time>2019-07-13T10:59:52Z</time>
      </trkpt>
      <trkpt lat="43.1166370" lon="-0.8686560">
        <ele>217.8</ele>
        <time>2019-07-13T10:59:55Z</time>
      </trkpt>
      <trkpt lat="43.1166880" lon="-0.8687910">
        <ele>217.9</ele>
        <time>2019-07-13T10:59:58Z</time>
      </trkpt>
      <trkpt lat="43.1167360" lon="-0.8689260">
        <ele>217.9</ele>
        <time>2019-07-13T11:00:01Z</time>
      </trkpt>
      <trkpt lat="43.1167900" lon="-0.8690500">
        <ele>218.0</ele>
        <time>2019-07-13T11:00:04Z</time>
      </trkpt>
      <trkpt lat="43.1168410" lon="-0.8691690">
        <ele>218.1</ele>
        <time>2019-07-13T11:00:07Z</time>
      </trkpt>
      <trkpt lat="43.1168890" lon="-0.8692960">
        <ele>218.2</ele>
        <time>2019-07-13T11:00:10Z</time>
      </trkpt>
      <trkpt lat="43.1169330" lon="-0.8694210">
        <ele>218.4</ele>
        <time>2019-07-13T11:00:13Z</time>
      </trkpt>
      <trkpt lat="43.1169800" lon="-0.8695320">
        <ele>218.6</ele>
        <time>2019-07-13T11:00:16Z</time>
      </trkpt>
      <trkpt lat="43.1170190" lon="-0.8696480">
        <ele>218.7</ele>
        <time>2019-07-13T11:00:19Z</time>
      </trkpt>
      <trkpt lat="43.1170550" lon="-0.8697640">
        <ele>218.9</ele>
        <time>2019-07-13T11:00:22Z</time>
      </trkpt>
      <trkpt lat="43.1170920" lon="-0.8698830">
        <ele>219.1</ele>
        <time>2019-07-13T11:00:25Z</time>
      </trkpt>
      <trkpt lat="43.1171410" lon="-0.8699950">
        <ele>219.2</ele>
        <time>2019-07-13T11:00:28Z</time>
      </trkpt>
      <trkpt lat="43.1171800" lon="-0.8701160">
        <ele>219.4</ele>
        <time>2019-07-13T11:00:31Z</time>
      </trkpt>
      <trkpt lat="43.1172240" lon="-0.8702310">
        <ele>219.5</ele>
        <time>2019-07-13T11:00:34Z</time>
      </trkpt>
      <trkpt lat="43.1172670" lon="-0.8703440">
        <ele>219.6</ele>
        <time>2019-07-13T11:00:37Z</time>
      </trkpt>
      <trkpt lat="43.1173200" lon="-0.8704850">
        <ele>219.8</ele>
        <time>2019-07-13T11:00:41Z</time>
      </trkpt>
      <trkpt lat="43.1173670" lon="-0.8706240">
        <ele>219.9</ele>
        <time>2019-07-13T11:00:45Z</time>
      </trkpt>
      <trkpt lat="43.1174240" lon="-0.8707640">
        <ele>220.0</ele>
        <time>2019-07-13T11:00:49Z</time>
      </trkpt>
      <trkpt lat="43.1174670" lon="-0.8708730">
        <ele>220.1</ele>
        <time>2019-07-13T11:00:52Z</time>
      </trkpt>
      <trkpt lat="43.1175290" lon="-0.8710140">
        <ele>220.3</ele>
        <time>2019-07-13T11:00:56Z</time>
      </trkpt>
      <trkpt lat="43.1175990" lon="-0.8711470">
        <ele>220.4</ele>
        <time>2019-07-13T11:01:00Z</time>
      </trkpt>
      <trkpt lat="43.1176510" lon="-0.8712760">
        <ele>220.4</ele>
        <time>2019-07-13T11:01:04Z</time>
      </trkpt>
      <trkpt lat="43.1177070" lon="-0.8714080">
        <ele>220.6</ele>
        <time>2019-07-13T11:01:09Z</time>
      </trkpt>
      <trkpt lat="43.1177530" lon="-0.8715470">
        <ele>220.7</ele>
        <time>2019-07-13T11:01:14Z</time>
      </trkpt>
      <trkpt lat="43.1178060" lon="-0.8716490">
        <ele>220.9</ele>
        <time>2019-07-13T11:01:18Z</time>
      </trkpt>
      <trkpt lat="43.1178540" lon="-0.8717770">
        <ele>221.1</ele>
        <time>2019-07-13T11:01:23Z</time>
      </trkpt>
      <trkpt lat="43.1179000" lon="-0.8718980">
        <ele>221.4</ele>
        <time>2019-07-13T11:01:28Z</time>
      </trkpt>
      <trkpt lat="43.1179460" lon="-0.8720170">
        <ele>221.7</ele>
        <time>2019-07-13T11:01:34Z</time>
      </trkpt>
      <trkpt lat="43.1180030" lon="-0.8721320">
        <ele>222.1</ele>
        <time>2019-07-13T11:01:40Z</time>
      </trkpt>
      <trkpt lat="43.1180440" lon="-0.8722620">
        <ele>222.6</ele>
        <time>2019-07-13T11:01:46Z</time>
      </trkpt>
      <trkpt lat="43.1180600" lon="-0.8723960">
        <ele>223.1</ele>
        <time>2019-07-13T11:01:52Z</time>
      </trkpt>
      <trkpt lat="43.1180960" lon="-0.8725280">
        <ele>223.7</ele>
        <time>2019-07-13T11:01:58Z</time>
      </trkpt>
      <trkpt lat="43.1181110" lon="-0.8726690">
        <ele>224.4</ele>
        <time>2019-07-13T11:02:05Z</time>
      </trkpt>
      <trkpt lat="43.1181310" lon="-0.8728000">
        <ele>225.3</ele>
        <time>2019-07-13T11:02:11Z</time>
      </trkpt>
      <trkpt lat="43.1181490" lon="-0.8729220">
        <ele>226.1</ele>
        <time>2019-07-13T11:02:16Z</time>
      </trkpt>
      <trkpt lat="43.1181680" lon="-0.8730600">
        <ele>226.3</ele>
        <time>2019-07-13T11:02:21Z</time>
      </trkpt>
      <trkpt lat="43.1181890" lon="-0.8731960">
        <ele>226.4</ele>
        <time>2019-07-13T11:02:26Z</time>
      </trkpt>
      <trkpt lat="43.1182100" lon="-0.8733330">
        <ele>226.6</ele>
        <time>2019-07-13T11:02:31Z</time>
      </trkpt>
      <trkpt lat="43.1182390" lon="-0.8734780">
        <ele>226.7</ele>
        <time>2019-07-13T11:02:36Z</time>
      </trkpt>
      <trkpt lat="43.1182600" lon="-0.8736260">
        <ele>226.9</ele>
        <time>2019-07-13T11:02:41Z</time>
      </trkpt>
      <trkpt lat="43.1182930" lon="-0.8737700">
        <ele>227.1</ele>
        <time>2019-07-13T11:02:46Z</time>
      </trkpt>
      <trkpt lat="43.1183120" lon="-0.8739100">
        <ele>227.2</ele>
        <time>2019-07-13T11:02:51Z</time>
      </trkpt>
      <trkpt lat="43.1183290" lon="-0.8740540">
        <ele>227.3</ele>
        <time>2019-07-13T11:02:56Z</time>
      </trkpt>
      <trkpt lat="43.1183530" lon="-0.8742030">
        <ele>227.5</ele>
        <time>2019-07-13T11:03:01Z</time>
      </trkpt>
      <trkpt lat="43.1183760" lon="-0.8743310">
        <ele>227.6</ele>
        <time>2019-07-13T11:03:05Z</time>
      </trkpt>
      <trkpt lat="43.1183970" lon="-0.8744830">
        <ele>227.8</ele>
        <time>2019-07-13T11:03:10Z</time>
      </trkpt>
      <trkpt lat="43.1184150" lon="-0.8746120">
        <ele>228.0</ele>
        <time>2019-07-13T11:03:14Z</time>
      </trkpt>
      <trkpt lat="43.1184370" lon="-0.8747430">
        <ele>228.1</ele>
        <time>2019-07-13T11:03:18Z</time>
      </trkpt>
      <trkpt lat="43.1184540" lon="-0.8748740">
        <ele>228.2</ele>
        <time>2019-07-13T11:03:22Z</time>
      </trkpt>
      <trkpt lat="43.1184720" lon="-0.8750080">
        <ele>228.4</ele>
        <time>2019-07-13T11:03:26Z</time>
      </trkpt>
      <trkpt lat="43.1184910" lon="-0.8751390">
        <ele>228.5</ele>
        <time>2019-07-13T11:03:30Z</time>
      </trkpt>
      <trkpt lat="43.1184970" lon="-0.8752760">
        <ele>228.6</ele>
        <time>2019-07-13T11:03:34Z</time>
      </trkpt>
      <trkpt lat="43.1184950" lon="-0.8754230">
        <ele>228.8</ele>
        <time>2019-07-13T11:03:38Z</time>
      </trkpt>
      <trkpt lat="43.1184790" lon="-0.8755680">
        <ele>228.7</ele>
        <time>2019-07-13T11:03:42Z</time>
      </trkpt>
      <trkpt lat="43.1184480" lon="-0.8756860">
        <ele>228.3</ele>
        <time>2019-07-13T11:03:45Z</time>
      </trkpt>
      <trkpt lat="43.1183840" lon="-0.8758130">
        <ele>227.8</ele>
        <time>2019-07-13T11:03:48Z</time>
      </trkpt>
      <trkpt lat="43.1182980" lon="-0.8759260">
        <ele>227.7</ele>
        <time>2019-07-13T11:03:51Z</time>
      </trkpt>
      <trkpt lat="43.1182140" lon="-0.8760040">
        <ele>227.7</ele>
        <time>2019-07-13T11:03:54Z</time>
      </trkpt>
      <trkpt lat="43.1181140" lon="-0.8761090">
        <ele>227.6</ele>
        <time>2019-07-13T11:03:57Z</time>
      </trkpt>
      <trkpt lat="43.1180420" lon="-0.8761860">
        <ele>227.5</ele>
        <time>2019-07-13T11:03:59Z</time>
      </trkpt>
      <trkpt lat="43.1179600" lon="-0.8762630">
        <ele>227.3</ele>
        <time>2019-07-13T11:04:01Z</time>
      </trkpt>
      <trkpt lat="43.1178710" lon="-0.8763430">
        <ele>227.1</ele>
        <time>2019-07-13T11:04:03Z</time>
      </trkpt>
      <trkpt lat="43.1177800" lon="-0.8764300">
        <ele>226.9</ele>
        <time>2019-07-13T11:04:05Z</time>
      </trkpt>
      <trkpt lat="43.1176910" lon="-0.8765310">
        <ele>226.6</ele>
        <time>2019-07-13T11:04:07Z</time>
      </trkpt>
      <trkpt lat="43.1175980" lon="-0.8766350">
        <ele>226.3</ele>
        <time>2019-07-13T11:04:09Z</time>
      </trkpt>
      <trkpt lat="43.1174950" lon="-0.8767440">
        <ele>226.0</ele>
        <time>2019-07-13T11:04:11Z</time>
      </trkpt>
      <trkpt lat="43.1173980" lon="-0.8768500">
        <ele>225.6</ele>
        <time>2019-07-13T11:04:13Z</time>
      </trkpt>
      <trkpt lat="43.1172930" lon="-0.8769990">
        <ele>225.2</ele>
        <time>2019-07-13T11:04:15Z</time>
      </trkpt>
      <trkpt lat="43.1171800" lon="-0.8771370">
        <ele>224.6</ele>
        <time>2019-07-13T11:04:17Z</time>
      </trkpt>
      <trkpt lat="43.1170630" lon="-0.8772740">
        <ele>224.1</ele>
        <time>2019-07-13T11:04:19Z</time>
      </trkpt>
      <trkpt lat="43.1169450" lon="-0.8774080">
        <ele>223.5</ele>
        <time>2019-07-13T11:04:21Z</time>
      </trkpt>
      <trkpt lat="43.1168340" lon="-0.8775400">
        <ele>223.0</ele>
        <time>2019-07-13T11:04:23Z</time>
      </trkpt>
      <trkpt lat="43.1167220" lon="-0.8776720">
        <ele>222.4</ele>
        <time>2019-07-13T11:04:25Z</time>
      </trkpt>
      <trkpt lat="43.1166030" lon="-0.8778010">
        <ele>221.9</ele>
        <time>2019-07-13T11:04:27Z</time>
      </trkpt>
      <trkpt lat="43.1164920" lon="-0.8778930">
        <ele>221.4</ele>
        <time>2019-07-13T11:04:29Z</time>
      </trkpt>
      <trkpt lat="43.1163810" lon="-0.8779750">
        <ele>221.0</ele>
        <time>2019-07-13T11:04:31Z</time>
      </trkpt>
      <trkpt lat="43.1162720" lon="-0.8780570">
        <ele>220.6</ele>
        <time>2019-07-13T11:04:33Z</time>
      </trkpt>
      <trkpt lat="43.1161740" lon="-0.8781320">
        <ele>220.3</ele>
        <time>2019-07-13T11:04:35Z</time>
      </trkpt>
      <trkpt lat="43.1160850" lon="-0.8782050">
        <ele>220.0</ele>
        <time>2019-07-13T11:04:37Z</time>
      </trkpt>
      <trkpt lat="43.1160020" lon="-0.8782710">
        <ele>219.8</ele>
        <time>2019-07-13T11:04:39Z</time>
      </trkpt>
      <trkpt lat="43.1159210" lon="-0.8783340">
        <ele>219.6</ele>
        <time>2019-07-13T11:04:41Z</time>
      </trkpt>
      <trkpt lat="43.1158110" lon="-0.8784190">
        <ele>219.3</ele>
        <time>2019-07-13T11:04:44Z</time>
      </trkpt>
      <trkpt lat="43.1157050" lon="-0.8784990">
        <ele>219.0</ele>
        <time>2019-07-13T11:04:47Z</time>
      </trkpt>
      <trkpt lat="43.1155990" lon="-0.8785770">
        <ele>218.8</ele>
        <time>2019-07-13T11:04:50Z</time>
      </trkpt>
      <trkpt lat="43.1154960" lon="-0.8786540">
        <ele>218.7</ele>
        <time>2019-07-13T11:04:53Z</time>
      </trkpt>
      <trkpt lat="43.1153910" lon="-0.8787320">
        <ele>218.6</ele>
        <time>2019-07-13T11:04:56Z</time>
      </trkpt>
      <trkpt lat="43.1152860" lon="-0.8788080">
        <ele>218.5</ele>
        <time>2019-07-13T11:04:59Z</time>
      </trkpt>
      <trkpt lat="43.1151800" lon="-0.8788690">
        <ele>218.5</ele>
        <time>2019-07-13T11:05:02Z</time>
      </trkpt>
      <trkpt lat="43.1150710" lon="-0.8789280">
        <ele>218.5</ele>
        <time>2019-07-13T11:05:05Z</time>
      </trkpt>
      <trkpt lat="43.1149680" lon="-0.8789640">
        <ele>218.6</ele>
        <time>2019-07-13T11:05:08Z</time>
      </trkpt>
      <trkpt lat="43.1148620" lon="-0.8790000">
        <ele>218.7</ele>
        <time>2019-07-13T11:05:11Z</time>
      </trkpt>
      <trkpt lat="43.1147550" lon="-0.8790380">
        <ele>218.8</ele>
        <time>2019-07-13T11:05:14Z</time>
      </trkpt>
      <trkpt lat="43.1146520" lon="-0.8790870">
        <ele>218.9</ele>
        <time>2019-07-13T11:05:17Z</time>
      </trkpt>
      <trkpt lat="43.1145470" lon="-0.8791370">
        <ele>219.1</ele>
        <time>2019-07-13T11:05:20Z</time>
      </trkpt>
      <trkpt lat="43.1144380" lon="-0.8791800">
        <ele>219.3</ele>
        <time>2019-07-13T11:05:23Z</time>
      </trkpt>
      <trkpt lat="43.1143340" lon="-0.8792220">
        <ele>219.5</ele>
        <time>2019-07-13T11:05:26Z</time>
      </trkpt>
      <trkpt lat="43.1142310" lon="-0.8792750">
        <ele>219.7</ele>
        <time>2019-07-13T11:05:29Z</time>
      </trkpt>
      <trkpt lat="43.1141360" lon="-0.8793260">
        <ele>219.9</ele>
        <time>2019-07-13T11:05:32Z</time>
      </trkpt>
      <trkpt lat="43.1140390" lon="-0.8793790">
        <ele>220.1</ele>
        <time>2019-07-13T11:05:35Z</time>
      </trkpt>
      <trkpt lat="43.1139410" lon="-0.8794340">
        <ele>220.4</ele>
        <time>2019-07-13T11:05:38Z</time>
      </trkpt>
      <trkpt lat="43.1138570" lon="-0.8794910">
        <ele>220.6</ele>
        <time>2019-07-13T11:05:41Z</time>
      </trkpt>
      <trkpt lat="43.1137440" lon="-0.8795630">
        <ele>220.8</ele>
        <time>2019-07-13T11:05:45Z</time>
      </trkpt>
      <trkpt lat="43.1136330" lon="-0.8796220">
        <ele>221.1</ele>
        <time>2019-07-13T11:05:49Z</time>
      </trkpt>
      <trkpt lat="43.1135430" lon="-0.8796800">
        <ele>221.3</ele>
        <time>2019-07-13T11:05:52Z</time>
      </trkpt>
      <trkpt lat="43.1134560" lon="-0.8797370">
        <ele>221.4</ele>
        <time>2019-07-13T11:05:55Z</time>
      </trkpt>
      <trkpt lat="43.1133520" lon="-0.8797980">
        <ele>221.7</ele>
        <time>2019-07-13T11:05:59Z</time>
      </trkpt>
      <trkpt lat="43.1132450" lon="-0.8798510">
        <ele>221.9</ele>
        <time>2019-07-13T11:06:03Z</time>
      </trkpt>
      <trkpt lat="43.1131480" lon="-0.8799120">
        <ele>222.1</ele>
        <time>2019-07-13T11:06:07Z</time>
      </trkpt>
      <trkpt lat="43.1130510" lon="-0.8799800">
        <ele>222.4</ele>
        <time>2019-07-13T11:06:11Z</time>
      </trkpt>
      <trkpt lat="43.1129410" lon="-0.8800420">
        <ele>222.6</ele>
        <time>2019-07-13T11:06:15Z</time>
      </trkpt>
      <trkpt lat="43.1128590" lon="-0.8801020">
        <ele>222.7</ele>
        <time>2019-07-13T11:06:18Z</time>
      </trkpt>
      <trkpt lat="43.1127510" lon="-0.8801690">
        <ele>222.8</ele>
        <time>2019-07-13T11:06:22Z</time>
      </trkpt>
      <trkpt lat="43.1126640" lon="-0.8802150">
        <ele>223.0</ele>
        <time>2019-07-13T11:06:25Z</time>
      </trkpt>
      <trkpt lat="43.1125770" lon="-0.8802670">
        <ele>223.1</ele>
        <time>2019-07-13T11:06:28Z</time>
      </trkpt>
      <trkpt lat="43.1124910" lon="-0.8803280">
        <ele>223.3</ele>
        <time>2019-07-13T11:06:31Z</time>
      </trkpt>
      <trkpt lat="43.1124040" lon="-0.8803820">
        <ele>223.4</ele>
        <time>2019-07-13T11:06:34Z</time>
      </trkpt>
      <trkpt lat="43.1123120" lon="-0.8804470">
        <ele>223.5</ele>
        <time>2019-07-13T11:06:37Z</time>
      </trkpt>
      <trkpt lat="43.1122160" lon="-0.8805030">
        <ele>223.5</ele>
        <time>2019-07-13T11:06:40Z</time>
      </trkpt>
      <trkpt lat="43.1121250" lon="-0.8805490">
        <ele>223.6</ele>
        <time>2019-07-13T11:06:43Z</time>
      </trkpt>
      <trkpt lat="43.1120130" lon="-0.8806220">
        <ele>223.6</ele>
        <time>2019-07-13T11:06:47Z</time>
      </trkpt>
      <trkpt lat="43.1119190" lon="-0.8806790">
        <ele>223.6</ele>
        <time>2019-07-13T11:06:50Z</time>
      </trkpt>
      <trkpt lat="43.1118280" lon="-0.8807330">
        <ele>223.6</ele>
        <time>2019-07-13T11:06:53Z</time>
      </trkpt>
      <trkpt lat="43.1117250" lon="-0.8807790">
        <ele>223.6</ele>
        <time>2019-07-13T11:06:56Z</time>
      </trkpt>
      <trkpt lat="43.1116260" lon="-0.8808280">
        <ele>223.6</ele>
        <time>2019-07-13T11:06:59Z</time>
      </trkpt>
      <trkpt lat="43.1115210" lon="-0.8808840">
        <ele>223.6</ele>
        <time>2019-07-13T11:07:02Z</time>
      </trkpt>
      <trkpt lat="43.1114180" lon="-0.8809390">
        <ele>223.6</ele>
        <time>2019-07-13T11:07:05Z</time>
      </trkpt>
      <trkpt lat="43.1113130" lon="-0.8810010">
        <ele>223.6</ele>
        <time>2019-07-13T11:07:08Z</time>
      </trkpt>
      <trkpt lat="43.1112170" lon="-0.8810640">
        <ele>223.5</ele>
        <time>2019-07-13T11:07:11Z</time>
      </trkpt>
      <trkpt lat="43.1111150" lon="-0.8811250">
        <ele>223.5</ele>
        <time>2019-07-13T11:07:14Z</time>
      </trkpt>
      <trkpt lat="43.1110100" lon="-0.8811940">
        <ele>223.3</ele>
        <time>2019-07-13T11:07:17Z</time>
      </trkpt>
      <trkpt lat="43.1109070" lon="-0.8812470">
        <ele>223.2</ele>
        <time>2019-07-13T11:07:20Z</time>
      </trkpt>
      <trkpt lat="43.1108060" lon="-0.8812990">
        <ele>223.0</ele>
        <time>2019-07-13T11:07:23Z</time>
      </trkpt>
      <trkpt lat="43.1107090" lon="-0.8813630">
        <ele>222.9</ele>
        <time>2019-07-13T11:07:26Z</time>
      </trkpt>
      <trkpt lat="43.1106080" lon="-0.8814280">
        <ele>222.7</ele>
        <time>2019-07-13T11:07:29Z</time>
      </trkpt>
      <trkpt lat="43.1105130" lon="-0.8814780">
        <ele>222.6</ele>
        <time>2019-07-13T11:07:32Z</time>
      </trkpt>
      <trkpt lat="43.1104180" lon="-0.8815430">
        <ele>222.4</ele>
        <time>2019-07-13T11:07:35Z</time>
      </trkpt>
      <trkpt lat="43.1103280" lon="-0.8816300">
        <ele>222.2</ele>
        <time>2019-07-13T11:07:38Z</time>
      </trkpt>
      <trkpt lat="43.1102320" lon="-0.8817410">
        <ele>221.9</ele>
        <time>2019-07-13T11:07:41Z</time>
      </trkpt>
      <trkpt lat="43.1101540" lon="-0.8818470">
        <ele>221.7</ele>
        <time>2019-07-13T11:07:44Z</time>
      </trkpt>
      <trkpt lat="43.1100900" lon="-0.8819550">
        <ele>221.7</ele>
        <time>2019-07-13T11:07:47Z</time>
      </trkpt>
      <trkpt lat="43.1100280" lon="-0.8820650">
        <ele>221.5</ele>
        <time>2019-07-13T11:07:50Z</time>
      </trkpt>
      <trkpt lat="43.1099660" lon="-0.8821920">
        <ele>221.4</ele>
        <time>2019-07-13T11:07:53Z</time>
      </trkpt>
      <trkpt lat="43.1099220" lon="-0.8823160">
        <ele>221.3</ele>
        <time>2019-07-13T11:07:56Z</time>
      </trkpt>
      <trkpt lat="43.1099300" lon="-0.8824420">
        <ele>221.3</ele>
        <time>2019-07-13T11:07:59Z</time>
      </trkpt>
      <trkpt lat="43.1099510" lon="-0.8825950">
        <ele>221.5</ele>
        <time>2019-07-13T11:08:03Z</time>
      </trkpt>
      <trkpt lat="43.1099990" lon="-0.8827380">
        <ele>221.6</ele>
        <time>2019-07-13T11:08:07Z</time>
      </trkpt>
      <trkpt lat="43.1100580" lon="-0.8828370">
        <ele>221.7</ele>
        <time>2019-07-13T11:08:10Z</time>
      </trkpt>
      <trkpt lat="43.1101160" lon="-0.8829530">
        <ele>221.8</ele>
        <time>2019-07-13T11:08:13Z</time>
      </trkpt>
      <trkpt lat="43.1101680" lon="-0.8830820">
        <ele>222.1</ele>
        <time>2019-07-13T11:08:16Z</time>
      </trkpt>
      <trkpt lat="43.1102120" lon="-0.8832320">
        <ele>222.5</ele>
        <time>2019-07-13T11:08:19Z</time>
      </trkpt>
      <trkpt lat="43.1102490" lon="-0.8833920">
        <ele>223.0</ele>
        <time>2019-07-13T11:08:22Z</time>
      </trkpt>
      <trkpt lat="43.1102710" lon="-0.8835150">
        <ele>223.6</ele>
        <time>2019-07-13T11:08:24Z</time>
      </trkpt>
      <trkpt lat="43.1102990" lon="-0.8836940">
        <ele>224.7</ele>
        <time>2019-07-13T11:08:27Z</time>
      </trkpt>
      <trkpt lat="43.1102990" lon="-0.8838670">
        <ele>226.1</ele>
        <time>2019-07-13T11:08:30Z</time>
      </trkpt>
      <trkpt lat="43.1102740" lon="-0.8839930">
        <ele>227.0</ele>
        <time>2019-07-13T11:08:33Z</time>
      </trkpt>
      <trkpt lat="43.1102090" lon="-0.8841250">
        <ele>227.9</ele>
        <time>2019-07-13T11:08:37Z</time>
      </trkpt>
      <trkpt lat="43.1101340" lon="-0.8842200">
        <ele>228.6</ele>
        <time>2019-07-13T11:08:41Z</time>
      </trkpt>
      <trkpt lat="43.1100590" lon="-0.8842930">
        <ele>228.7</ele>
        <time>2019-07-13T11:08:45Z</time>
      </trkpt>
      <trkpt lat="43.1099620" lon="-0.8843580">
        <ele>228.7</ele>
        <time>2019-07-13T11:08:49Z</time>
      </trkpt>
      <trkpt lat="43.1098630" lon="-0.8843890">
        <ele>228.8</ele>
        <time>2019-07-13T11:08:52Z</time>
      </trkpt>
      <trkpt lat="43.1097610" lon="-0.8844110">
        <ele>228.7</ele>
        <time>2019-07-13T11:08:55Z</time>
      </trkpt>
      <trkpt lat="43.1096540" lon="-0.8844320">
        <ele>228.7</ele>
        <time>2019-07-13T11:08:58Z</time>
      </trkpt>
      <trkpt lat="43.1095410" lon="-0.8844550">
        <ele>228.6</ele>
        <time>2019-07-13T11:09:01Z</time>
      </trkpt>
      <trkpt lat="43.1094280" lon="-0.8844820">
        <ele>228.4</ele>
        <time>2019-07-13T11:09:04Z</time>
      </trkpt>
      <trkpt lat="43.1092980" lon="-0.8845170">
        <ele>228.3</ele>
        <time>2019-07-13T11:09:07Z</time>
      </trkpt>
      <trkpt lat="43.1092080" lon="-0.8845500">
        <ele>228.3</ele>
        <time>2019-07-13T11:09:09Z</time>
      </trkpt>
      <trkpt lat="43.1091120" lon="-0.8845890">
        <ele>228.2</ele>
        <time>2019-07-13T11:09:11Z</time>
      </trkpt>
      <trkpt lat="43.1090230" lon="-0.8846490">
        <ele>228.1</ele>
        <time>2019-07-13T11:09:13Z</time>
      </trkpt>
      <trkpt lat="43.1089370" lon="-0.8847230">
        <ele>228.0</ele>
        <time>2019-07-13T11:09:15Z</time>
      </trkpt>
      <trkpt lat="43.1088260" lon="-0.8848090">
        <ele>228.0</ele>
        <time>2019-07-13T11:09:18Z</time>
      </trkpt>
      <trkpt lat="43.1087370" lon="-0.8848950">
        <ele>227.9</ele>
        <time>2019-07-13T11:09:21Z</time>
      </trkpt>
      <trkpt lat="43.1086600" lon="-0.8849720">
        <ele>227.9</ele>
        <time>2019-07-13T11:09:24Z</time>
      </trkpt>
      <trkpt lat="43.1085720" lon="-0.8850570">
        <ele>227.8</ele>
        <time>2019-07-13T11:09:28Z</time>
      </trkpt>
      <trkpt lat="43.1084770" lon="-0.8851410">
        <ele>227.8</ele>
        <time>2019-07-13T11:09:32Z</time>
      </trkpt>
      <trkpt lat="43.1083860" lon="-0.8852290">
        <ele>227.8</ele>
        <time>2019-07-13T11:09:36Z</time>
      </trkpt>
      <trkpt lat="43.1083080" lon="-0.8853130">
        <ele>227.8</ele>
        <time>2019-07-13T11:09:40Z</time>
      </trkpt>
      <trkpt lat="43.1082190" lon="-0.8854170">
        <ele>227.9</ele>
        <time>2019-07-13T11:09:44Z</time>
      </trkpt>
      <trkpt lat="43.1081500" lon="-0.8855000">
        <ele>227.9</ele>
        <time>2019-07-13T11:09:47Z</time>
      </trkpt>
      <trkpt lat="43.1080460" lon="-0.8856250">
        <ele>228.1</ele>
        <time>2019-07-13T11:09:52Z</time>
      </trkpt>
      <trkpt lat="43.1079490" lon="-0.8857320">
        <ele>228.2</ele>
        <time>2019-07-13T11:09:54Z</time>
      </trkpt>
      <trkpt lat="43.1078820" lon="-0.8858150">
        <ele>228.2</ele>
        <time>2019-07-13T11:09:56Z</time>
      </trkpt>
      <trkpt lat="43.1077850" lon="-0.8859150">
        <ele>228.3</ele>
        <time>2019-07-13T11:09:59Z</time>
      </trkpt>
      <trkpt lat="43.1077080" lon="-0.8859950">
        <ele>228.3</ele>
        <time>2019-07-13T11:10:02Z</time>
      </trkpt>
      <trkpt lat="43.1076110" lon="-0.8860870">
        <ele>228.3</ele>
        <time>2019-07-13T11:10:05Z</time>
      </trkpt>
      <trkpt lat="43.1075180" lon="-0.8861890">
        <ele>228.4</ele>
        <time>2019-07-13T11:10:08Z</time>
      </trkpt>
      <trkpt lat="43.1074250" lon="-0.8862820">
        <ele>228.4</ele>
        <time>2019-07-13T11:10:11Z</time>
      </trkpt>
      <trkpt lat="43.1073260" lon="-0.8863910">
        <ele>228.3</ele>
        <time>2019-07-13T11:10:14Z</time>
      </trkpt>
      <trkpt lat="43.1072350" lon="-0.8864830">
        <ele>228.2</ele>
        <time>2019-07-13T11:10:17Z</time>
      </trkpt>
      <trkpt lat="43.1071530" lon="-0.8865660">
        <ele>228.1</ele>
        <time>2019-07-13T11:10:20Z</time>
      </trkpt>
      <trkpt lat="43.1070750" lon="-0.8866460">
        <ele>227.9</ele>
        <time>2019-07-13T11:10:23Z</time>
      </trkpt>
      <trkpt lat="43.1069940" lon="-0.8867240">
        <ele>227.8</ele>
        <time>2019-07-13T11:10:27Z</time>
      </trkpt>
      <trkpt lat="43.1069020" lon="-0.8868090">
        <ele>227.7</ele>
        <time>2019-07-13T11:10:31Z</time>
      </trkpt>
      <trkpt lat="43.1068260" lon="-0.8868930">
        <ele>227.6</ele>
        <time>2019-07-13T11:10:34Z</time>
      </trkpt>
      <trkpt lat="43.1067490" lon="-0.8869680">
        <ele>227.6</ele>
        <time>2019-07-13T11:10:37Z</time>
      </trkpt>
      <trkpt lat="43.1066700" lon="-0.8870450">
        <ele>227.5</ele>
        <time>2019-07-13T11:10:40Z</time>
      </trkpt>
      <trkpt lat="43.1065910" lon="-0.8871240">
        <ele>227.5</ele>
        <time>2019-07-13T11:10:43Z</time>
      </trkpt>
      <trkpt lat="43.1065060" lon="-0.8872160">
        <ele>227.5</ele>
        <time>2019-07-13T11:10:46Z</time>
      </trkpt>
      <trkpt lat="43.1064240" lon="-0.8872980">
        <ele>227.5</ele>
        <time>2019-07-13T11:10:49Z</time>
      </trkpt>
      <trkpt lat="43.1063480" lon="-0.8873760">
        <ele>227.6</ele>
        <time>2019-07-13T11:10:52Z</time>
      </trkpt>
      <trkpt lat="43.1062700" lon="-0.8874540">
        <ele>227.7</ele>
        <time>2019-07-13T11:10:56Z</time>
      </trkpt>
      <trkpt lat="43.1061910" lon="-0.8875300">
        <ele>227.9</ele>
        <time>2019-07-13T11:10:59Z</time>
      </trkpt>
      <trkpt lat="43.1061030" lon="-0.8876070">
        <ele>228.0</ele>
        <time>2019-07-13T11:11:02Z</time>
      </trkpt>
      <trkpt lat="43.1060140" lon="-0.8876950">
        <ele>228.1</ele>
        <time>2019-07-13T11:11:05Z</time>
      </trkpt>
      <trkpt lat="43.1059380" lon="-0.8877740">
        <ele>228.2</ele>
        <time>2019-07-13T11:11:08Z</time>
      </trkpt>
      <trkpt lat="43.1058490" lon="-0.8878520">
        <ele>228.2</ele>
        <time>2019-07-13T11:11:11Z</time>
      </trkpt>
      <trkpt lat="43.1057490" lon="-0.8879370">
        <ele>228.4</ele>
        <time>2019-07-13T11:11:14Z</time>
      </trkpt>
      <trkpt lat="43.1056470" lon="-0.8880260">
        <ele>228.5</ele>
        <time>2019-07-13T11:11:17Z</time>
      </trkpt>
      <trkpt lat="43.1055510" lon="-0.8881110">
        <ele>228.6</ele>
        <time>2019-07-13T11:11:20Z</time>
      </trkpt>
      <trkpt lat="43.1054470" lon="-0.8882000">
        <ele>228.7</ele>
        <time>2019-07-13T11:11:23Z</time>
      </trkpt>
      <trkpt lat="43.1053720" lon="-0.8882800">
        <ele>228.8</ele>
        <time>2019-07-13T11:11:25Z</time>
      </trkpt>
      <trkpt lat="43.1052710" lon="-0.8883810">
        <ele>228.9</ele>
        <time>2019-07-13T11:11:28Z</time>
      </trkpt>
      <trkpt lat="43.1051780" lon="-0.8884860">
        <ele>228.9</ele>
        <time>2019-07-13T11:11:31Z</time>
      </trkpt>
      <trkpt lat="43.1050990" lon="-0.8886050">
        <ele>229.0</ele>
        <time>2019-07-13T11:11:34Z</time>
      </trkpt>
      <trkpt lat="43.1050290" lon="-0.8887260">
        <ele>229.0</ele>
        <time>2019-07-13T11:11:37Z</time>
      </trkpt>
      <trkpt lat="43.1049680" lon="-0.8888530">
        <ele>229.1</ele>
        <time>2019-07-13T11:11:40Z</time>
      </trkpt>
      <trkpt lat="43.1049150" lon="-0.8889830">
        <ele>229.1</ele>
        <time>2019-07-13T11:11:43Z</time>
      </trkpt>
      <trkpt lat="43.1048650" lon="-0.8891130">
        <ele>229.2</ele>
        <time>2019-07-13T11:11:46Z</time>
      </trkpt>
      <trkpt lat="43.1048330" lon="-0.8892530">
        <ele>229.3</ele>
        <time>2019-07-13T11:11:49Z</time>
      </trkpt>
      <trkpt lat="43.1047950" lon="-0.8893800">
        <ele>229.4</ele>
        <time>2019-07-13T11:11:52Z</time>
      </trkpt>
      <trkpt lat="43.1047590" lon="-0.8894990">
        <ele>229.5</ele>
        <time>2019-07-13T11:11:55Z</time>
      </trkpt>
      <trkpt lat="43.1047170" lon="-0.8896480">
        <ele>229.6</ele>
        <time>2019-07-13T11:11:59Z</time>
      </trkpt>
      <trkpt lat="43.1046800" lon="-0.8898000">
        <ele>229.8</ele>
        <time>2019-07-13T11:12:03Z</time>
      </trkpt>
      <trkpt lat="43.1046380" lon="-0.8899450">
        <ele>229.9</ele>
        <time>2019-07-13T11:12:07Z</time>
      </trkpt>
      <trkpt lat="43.1045970" lon="-0.8900850">
        <ele>230.1</ele>
        <time>2019-07-13T11:12:11Z</time>
      </trkpt>
      <trkpt lat="43.1045600" lon="-0.8902200">
        <ele>230.3</ele>
        <time>2019-07-13T11:12:15Z</time>
      </trkpt>
      <trkpt lat="43.1045340" lon="-0.8903420">
        <ele>230.6</ele>
        <time>2019-07-13T11:12:19Z</time>
      </trkpt>
      <trkpt lat="43.1044990" lon="-0.8904720">
        <ele>230.8</ele>
        <time>2019-07-13T11:12:23Z</time>
      </trkpt>
      <trkpt lat="43.1044560" lon="-0.8905950">
        <ele>231.0</ele>
        <time>2019-07-13T11:12:27Z</time>
      </trkpt>
      <trkpt lat="43.1044100" lon="-0.8907230">
        <ele>231.1</ele>
        <time>2019-07-13T11:12:31Z</time>
      </trkpt>
      <trkpt lat="43.1043570" lon="-0.8908430">
        <ele>231.2</ele>
        <time>2019-07-13T11:12:35Z</time>
      </trkpt>
      <trkpt lat="43.1042960" lon="-0.8909540">
        <ele>231.3</ele>
        <time>2019-07-13T11:12:39Z</time>
      </trkpt>
      <trkpt lat="43.1042420" lon="-0.8910700">
        <ele>231.4</ele>
        <time>2019-07-13T11:12:43Z</time>
      </trkpt>
      <trkpt lat="43.1041920" lon="-0.8911930">
        <ele>231.7</ele>
        <time>2019-07-13T11:12:47Z</time>
      </trkpt>
      <trkpt lat="43.1041570" lon="-0.8913250">
        <ele>232.1</ele>
        <time>2019-07-13T11:12:51Z</time>
      </trkpt>
      <trkpt lat="43.1041440" lon="-0.8914550">
        <ele>232.5</ele>
        <time>2019-07-13T11:12:55Z</time>
      </trkpt>
      <trkpt lat="43.1041280" lon="-0.8915810">
        <ele>232.9</ele>
        <time>2019-07-13T11:12:59Z</time>
      </trkpt>
      <trkpt lat="43.1040990" lon="-0.8917110">
        <ele>233.3</ele>
        <time>2019-07-13T11:13:03Z</time>
      </trkpt>
      <trkpt lat="43.1040730" lon="-0.8918480">
        <ele>233.7</ele>
        <time>2019-07-13T11:13:07Z</time>
      </trkpt>
      <trkpt lat="43.1040490" lon="-0.8919670">
        <ele>234.0</ele>
        <time>2019-07-13T11:13:11Z</time>
      </trkpt>
      <trkpt lat="43.1040020" lon="-0.8920910">
        <ele>234.4</ele>
        <time>2019-07-13T11:13:16Z</time>
      </trkpt>
      <trkpt lat="43.1039340" lon="-0.8921880">
        <ele>234.7</ele>
        <time>2019-07-13T11:13:20Z</time>
      </trkpt>
      <trkpt lat="43.1038610" lon="-0.8922980">
        <ele>235.0</ele>
        <time>2019-07-13T11:13:25Z</time>
      </trkpt>
      <trkpt lat="43.1037920" lon="-0.8923980">
        <ele>235.3</ele>
        <time>2019-07-13T11:13:30Z</time>
      </trkpt>
      <trkpt lat="43.1037380" lon="-0.8925000">
        <ele>235.6</ele>
        <time>2019-07-13T11:13:35Z</time>
      </trkpt>
      <trkpt lat="43.1036770" lon="-0.8925960">
        <ele>235.8</ele>
        <time>2019-07-13T11:13:41Z</time>
      </trkpt>
      <trkpt lat="43.1036350" lon="-0.8927240">
        <ele>236.1</ele>
        <time>2019-07-13T11:13:47Z</time>
      </trkpt>
      <trkpt lat="43.1036130" lon="-0.8928570">
        <ele>236.4</ele>
        <time>2019-07-13T11:13:52Z</time>
      </trkpt>
      <trkpt lat="43.1035810" lon="-0.8929930">
        <ele>236.8</ele>
        <time>2019-07-13T11:13:57Z</time>
      </trkpt>
      <trkpt lat="43.1036010" lon="-0.8931300">
        <ele>237.4</ele>
        <time>2019-07-13T11:14:03Z</time>
      </trkpt>
      <trkpt lat="43.1036120" lon="-0.8932750">
        <ele>238.1</ele>
        <time>2019-07-13T11:14:09Z</time>
      </trkpt>
      <trkpt lat="43.1036030" lon="-0.8934140">
        <ele>238.9</ele>
        <time>2019-07-13T11:14:15Z</time>
      </trkpt>
      <trkpt lat="43.1036020" lon="-0.8935510">
        <ele>239.7</ele>
        <time>2019-07-13T11:14:22Z</time>
      </trkpt>
      <trkpt lat="43.1035410" lon="-0.8936570">
        <ele>240.0</ele>
        <time>2019-07-13T11:14:29Z</time>
      </trkpt>
      <trkpt lat="43.1034910" lon="-0.8937850">
        <ele>240.2</ele>
        <time>2019-07-13T11:14:36Z</time>
      </trkpt>
      <trkpt lat="43.1034400" lon="-0.8938980">
        <ele>240.3</ele>
        <time>2019-07-13T11:14:42Z</time>
      </trkpt>
      <trkpt lat="43.1033870" lon="-0.8940150">
        <ele>240.5</ele>
        <time>2019-07-13T11:14:48Z</time>
      </trkpt>
      <trkpt lat="43.1033330" lon="-0.8941350">
        <ele>240.7</ele>
        <time>2019-07-13T11:14:54Z</time>
      </trkpt>
      <trkpt lat="43.1032820" lon="-0.8942650">
        <ele>240.9</ele>
        <time>2019-07-13T11:15:00Z</time>
      </trkpt>
      <trkpt lat="43.1032330" lon="-0.8943720">
        <ele>241.1</ele>
        <time>2019-07-13T11:15:05Z</time>
      </trkpt>
      <trkpt lat="43.1031820" lon="-0.8944960">
        <ele>241.4</ele>
        <time>2019-07-13T11:15:11Z</time>
      </trkpt>
      <trkpt lat="43.1031290" lon="-0.8946210">
        <ele>241.6</ele>
        <time>2019-07-13T11:15:17Z</time>
      </trkpt>
      <trkpt lat="43.1030780" lon="-0.8947300">
        <ele>241.8</ele>
        <time>2019-07-13T11:15:22Z</time>
      </trkpt>
      <trkpt lat="43.1030270" lon="-0.8948570">
        <ele>241.9</ele>
        <time>2019-07-13T11:15:27Z</time>
      </trkpt>
      <trkpt lat="43.1029640" lon="-0.8949770">
        <ele>242.1</ele>
        <time>2019-07-13T11:15:32Z</time>
      </trkpt>
      <trkpt lat="43.1029090" lon="-0.8950870">
        <ele>242.3</ele>
        <time>2019-07-13T11:15:36Z</time>
      </trkpt>
      <trkpt lat="43.1028510" lon="-0.8952230">
        <ele>242.5</ele>
        <time>2019-07-13T11:15:40Z</time>
      </trkpt>
      <trkpt lat="43.1028020" lon="-0.8953370">
        <ele>242.6</ele>
        <time>2019-07-13T11:15:43Z</time>
      </trkpt>
      <trkpt lat="43.1027380" lon="-0.8954620">
        <ele>242.8</ele>
        <time>2019-07-13T11:15:46Z</time>
      </trkpt>
      <trkpt lat="43.1026770" lon="-0.8955950">
        <ele>242.9</ele>
        <time>2019-07-13T11:15:49Z</time>
      </trkpt>
      <trkpt lat="43.1026100" lon="-0.8957320">
        <ele>243.0</ele>
        <time>2019-07-13T11:15:52Z</time>
      </trkpt>
      <trkpt lat="43.1025420" lon="-0.8958810">
        <ele>243.1</ele>
        <time>2019-07-13T11:15:55Z</time>
      </trkpt>
      <trkpt lat="43.1024900" lon="-0.8959870">
        <ele>243.1</ele>
        <time>2019-07-13T11:15:57Z</time>
      </trkpt>
      <trkpt lat="43.1024360" lon="-0.8960960">
        <ele>243.1</ele>
        <time>2019-07-13T11:15:59Z</time>
      </trkpt>
      <trkpt lat="43.1023790" lon="-0.8962100">
        <ele>243.1</ele>
        <time>2019-07-13T11:16:01Z</time>
      </trkpt>
      <trkpt lat="43.1023190" lon="-0.8963260">
        <ele>243.1</ele>
        <time>2019-07-13T11:16:03Z</time>
      </trkpt>
      <trkpt lat="43.1022590" lon="-0.8964490">
        <ele>243.1</ele>
        <time>2019-07-13T11:16:05Z</time>
      </trkpt>
      <trkpt lat="43.1021950" lon="-0.8965720">
        <ele>243.0</ele>
        <time>2019-07-13T11:16:07Z</time>
      </trkpt>
      <trkpt lat="43.1021290" lon="-0.8966940">
        <ele>243.0</ele>
        <time>2019-07-13T11:16:09Z</time>
      </trkpt>
      <trkpt lat="43.1020600" lon="-0.8968150">
        <ele>243.0</ele>
        <time>2019-07-13T11:16:11Z</time>
      </trkpt>
      <trkpt lat="43.1019930" lon="-0.8969360">
        <ele>243.1</ele>
        <time>2019-07-13T11:16:13Z</time>
      </trkpt>
      <trkpt lat="43.1019270" lon="-0.8970530">
        <ele>243.0</ele>
        <time>2019-07-13T11:16:15Z</time>
      </trkpt>
      <trkpt lat="43.1018620" lon="-0.8971660">
        <ele>243.0</ele>
        <time>2019-07-13T11:16:17Z</time>
      </trkpt>
      <trkpt lat="43.1017960" lon="-0.8972780">
        <ele>243.0</ele>
        <time>2019-07-13T11:16:19Z</time>
      </trkpt>
      <trkpt lat="43.1017320" lon="-0.8973880">
        <ele>243.0</ele>
        <time>2019-07-13T11:16:21Z</time>
      </trkpt>
      <trkpt lat="43.1016680" lon="-0.8974940">
        <ele>243.0</ele>
        <time>2019-07-13T11:16:23Z</time>
      </trkpt>
      <trkpt lat="43.1016110" lon="-0.8976000">
        <ele>243.1</ele>
        <time>2019-07-13T11:16:25Z</time>
      </trkpt>
      <trkpt lat="43.1015300" lon="-0.8977400">
        <ele>243.1</ele>
        <time>2019-07-13T11:16:28Z</time>
      </trkpt>
      <trkpt lat="43.1014500" lon="-0.8978690">
        <ele>243.2</ele>
        <time>2019-07-13T11:16:31Z</time>
      </trkpt>
      <trkpt lat="43.1013790" lon="-0.8980070">
        <ele>243.3</ele>
        <time>2019-07-13T11:16:34Z</time>
      </trkpt>
      <trkpt lat="43.1013030" lon="-0.8981440">
        <ele>243.5</ele>
        <time>2019-07-13T11:16:37Z</time>
      </trkpt>
      <trkpt lat="43.1012270" lon="-0.8982820">
        <ele>243.6</ele>
        <time>2019-07-13T11:16:40Z</time>
      </trkpt>
      <trkpt lat="43.1011530" lon="-0.8984130">
        <ele>243.7</ele>
        <time>2019-07-13T11:16:43Z</time>
      </trkpt>
      <trkpt lat="43.1010870" lon="-0.8985360">
        <ele>243.7</ele>
        <time>2019-07-13T11:16:46Z</time>
      </trkpt>
      <trkpt lat="43.1010150" lon="-0.8986620">
        <ele>243.8</ele>
        <time>2019-07-13T11:16:49Z</time>
      </trkpt>
      <trkpt lat="43.1009450" lon="-0.8987820">
        <ele>243.8</ele>
        <time>2019-07-13T11:16:52Z</time>
      </trkpt>
      <trkpt lat="43.1008730" lon="-0.8989040">
        <ele>243.8</ele>
        <time>2019-07-13T11:16:55Z</time>
      </trkpt>
      <trkpt lat="43.1008040" lon="-0.8990260">
        <ele>243.8</ele>
        <time>2019-07-13T11:16:58Z</time>
      </trkpt>
      <trkpt lat="43.1007310" lon="-0.8991560">
        <ele>243.7</ele>
        <time>2019-07-13T11:17:01Z</time>
      </trkpt>
      <trkpt lat="43.1006570" lon="-0.8992850">
        <ele>243.6</ele>
        <time>2019-07-13T11:17:04Z</time>
      </trkpt>
      <trkpt lat="43.1005800" lon="-0.8994100">
        <ele>243.6</ele>
        <time>2019-07-13T11:17:07Z</time>
      </trkpt>
      <trkpt lat="43.1005000" lon="-0.8995290">
        <ele>243.6</ele>
        <time>2019-07-13T11:17:10Z</time>
      </trkpt>
      <trkpt lat="43.1004110" lon="-0.8996400">
        <ele>243.5</ele>
        <time>2019-07-13T11:17:13Z</time>
      </trkpt>
      <trkpt lat="43.1003220" lon="-0.8997420">
        <ele>243.5</ele>
        <time>2019-07-13T11:17:16Z</time>
      </trkpt>
      <trkpt lat="43.1002230" lon="-0.8998370">
        <ele>243.5</ele>
        <time>2019-07-13T11:17:19Z</time>
      </trkpt>
      <trkpt lat="43.1001150" lon="-0.8999220">
        <ele>243.5</ele>
        <time>2019-07-13T11:17:22Z</time>
      </trkpt>
      <trkpt lat="43.1000160" lon="-0.9000060">
        <ele>243.6</ele>
        <time>2019-07-13T11:17:25Z</time>
      </trkpt>
      <trkpt lat="43.0999080" lon="-0.9000900">
        <ele>243.7</ele>
        <time>2019-07-13T11:17:28Z</time>
      </trkpt>
      <trkpt lat="43.0998100" lon="-0.9001650">
        <ele>243.7</ele>
        <time>2019-07-13T11:17:31Z</time>
      </trkpt>
      <trkpt lat="43.0997060" lon="-0.9002370">
        <ele>243.3</ele>
        <time>2019-07-13T11:17:34Z</time>
      </trkpt>
      <trkpt lat="43.0996060" lon="-0.9003080">
        <ele>242.9</ele>
        <time>2019-07-13T11:17:37Z</time>
      </trkpt>
      <trkpt lat="43.0995020" lon="-0.9003870">
        <ele>242.4</ele>
        <time>2019-07-13T11:17:40Z</time>
      </trkpt>
      <trkpt lat="43.0993820" lon="-0.9004640">
        <ele>241.8</ele>
        <time>2019-07-13T11:17:43Z</time>
      </trkpt>
      <trkpt lat="43.0993010" lon="-0.9005230">
        <ele>241.4</ele>
        <time>2019-07-13T11:17:45Z</time>
      </trkpt>
      <trkpt lat="43.0992190" lon="-0.9005850">
        <ele>241.1</ele>
        <time>2019-07-13T11:17:47Z</time>
      </trkpt>
      <trkpt lat="43.0991280" lon="-0.9006510">
        <ele>240.7</ele>
        <time>2019-07-13T11:17:49Z</time>
      </trkpt>
      <trkpt lat="43.0990360" lon="-0.9007210">
        <ele>240.3</ele>
        <time>2019-07-13T11:17:51Z</time>
      </trkpt>
      <trkpt lat="43.0989410" lon="-0.9007960">
        <ele>240.0</ele>
        <time>2019-07-13T11:17:53Z</time>
      </trkpt>
      <trkpt lat="43.0988480" lon="-0.9008680">
        <ele>239.6</ele>
        <time>2019-07-13T11:17:55Z</time>
      </trkpt>
      <trkpt lat="43.0987520" lon="-0.9009450">
        <ele>239.2</ele>
        <time>2019-07-13T11:17:57Z</time>
      </trkpt>
      <trkpt lat="43.0986540" lon="-0.9010340">
        <ele>238.8</ele>
        <time>2019-07-13T11:17:59Z</time>
      </trkpt>
      <trkpt lat="43.0985590" lon="-0.9011270">
        <ele>238.5</ele>
        <time>2019-07-13T11:18:01Z</time>
      </trkpt>
      <trkpt lat="43.0984620" lon="-0.9012240">
        <ele>238.0</ele>
        <time>2019-07-13T11:18:03Z</time>
      </trkpt>
      <trkpt lat="43.0983620" lon="-0.9013270">
        <ele>237.4</ele>
        <time>2019-07-13T11:18:05Z</time>
      </trkpt>
      <trkpt lat="43.0982580" lon="-0.9014300">
        <ele>236.8</ele>
        <time>2019-07-13T11:18:07Z</time>
      </trkpt>
      <trkpt lat="43.0981500" lon="-0.9015420">
        <ele>236.0</ele>
        <time>2019-07-13T11:18:09Z</time>
      </trkpt>
      <trkpt lat="43.0980400" lon="-0.9016610">
        <ele>235.7</ele>
        <time>2019-07-13T11:18:11Z</time>
      </trkpt>
      <trkpt lat="43.0979390" lon="-0.9017940">
        <ele>235.6</ele>
        <time>2019-07-13T11:18:13Z</time>
      </trkpt>
      <trkpt lat="43.0978570" lon="-0.9019380">
        <ele>235.5</ele>
        <time>2019-07-13T11:18:15Z</time>
      </trkpt>
      <trkpt lat="43.0977880" lon="-0.9020850">
        <ele>235.6</ele>
        <time>2019-07-13T11:18:17Z</time>
      </trkpt>
      <trkpt lat="43.0977430" lon="-0.9022320">
        <ele>235.7</ele>
        <time>2019-07-13T11:18:19Z</time>
      </trkpt>
      <trkpt lat="43.0977070" lon="-0.9023720">
        <ele>235.8</ele>
        <time>2019-07-13T11:18:21Z</time>
      </trkpt>
      <trkpt lat="43.0976770" lon="-0.9024990">
        <ele>236.0</ele>
        <time>2019-07-13T11:18:23Z</time>
      </trkpt>
      <trkpt lat="43.0976430" lon="-0.9026670">
        <ele>236.4</ele>
        <time>2019-07-13T11:18:26Z</time>
      </trkpt>
      <trkpt lat="43.0976010" lon="-0.9028320">
        <ele>236.9</ele>
        <time>2019-07-13T11:18:29Z</time>
      </trkpt>
      <trkpt lat="43.0975590" lon="-0.9029860">
        <ele>237.4</ele>
        <time>2019-07-13T11:18:32Z</time>
      </trkpt>
      <trkpt lat="43.0975000" lon="-0.9031420">
        <ele>238.0</ele>
        <time>2019-07-13T11:18:35Z</time>
      </trkpt>
      <trkpt lat="43.0974370" lon="-0.9032820">
        <ele>238.5</ele>
        <time>2019-07-13T11:18:38Z</time>
      </trkpt>
      <trkpt lat="43.0973780" lon="-0.9034160">
        <ele>239.0</ele>
        <time>2019-07-13T11:18:41Z</time>
      </trkpt>
      <trkpt lat="43.0973120" lon="-0.9035400">
        <ele>239.4</ele>
        <time>2019-07-13T11:18:44Z</time>
      </trkpt>
      <trkpt lat="43.0972470" lon="-0.9036650">
        <ele>239.7</ele>
        <time>2019-07-13T11:18:47Z</time>
      </trkpt>
      <trkpt lat="43.0971810" lon="-0.9037870">
        <ele>239.9</ele>
        <time>2019-07-13T11:18:50Z</time>
      </trkpt>
      <trkpt lat="43.0971220" lon="-0.9039120">
        <ele>240.1</ele>
        <time>2019-07-13T11:18:53Z</time>
      </trkpt>
      <trkpt lat="43.0970720" lon="-0.9040430">
        <ele>240.3</ele>
        <time>2019-07-13T11:18:56Z</time>
      </trkpt>
      <trkpt lat="43.0970380" lon="-0.9041590">
        <ele>240.5</ele>
        <time>2019-07-13T11:18:59Z</time>
      </trkpt>
      <trkpt lat="43.0970080" lon="-0.9043070">
        <ele>240.7</ele>
        <time>2019-07-13T11:19:03Z</time>
      </trkpt>
      <trkpt lat="43.0969980" lon="-0.9044510">
        <ele>240.9</ele>
        <time>2019-07-13T11:19:07Z</time>
      </trkpt>
      <trkpt lat="43.0969980" lon="-0.9045990">
        <ele>241.1</ele>
        <time>2019-07-13T11:19:12Z</time>
      </trkpt>
      <trkpt lat="43.0969850" lon="-0.9047450">
        <ele>241.5</ele>
        <time>2019-07-13T11:19:16Z</time>
      </trkpt>
      <trkpt lat="43.0969380" lon="-0.9048990">
        <ele>241.9</ele>
        <time>2019-07-13T11:19:20Z</time>
      </trkpt>
      <trkpt lat="43.0968900" lon="-0.9050440">
        <ele>242.3</ele>
        <time>2019-07-13T11:19:24Z</time>
      </trkpt>
      <trkpt lat="43.0968470" lon="-0.9051810">
        <ele>242.7</ele>
        <time>2019-07-13T11:19:28Z</time>
      </trkpt>
      <trkpt lat="43.0967890" lon="-0.9053120">
        <ele>243.2</ele>
        <time>2019-07-13T11:19:32Z</time>
      </trkpt>
      <trkpt lat="43.0967220" lon="-0.9054360">
        <ele>243.6</ele>
        <time>2019-07-13T11:19:36Z</time>
      </trkpt>
      <trkpt lat="43.0966460" lon="-0.9055630">
        <ele>244.0</ele>
        <time>2019-07-13T11:19:40Z</time>
      </trkpt>
      <trkpt lat="43.0965870" lon="-0.9056610">
        <ele>244.4</ele>
        <time>2019-07-13T11:19:43Z</time>
      </trkpt>
      <trkpt lat="43.0965320" lon="-0.9057600">
        <ele>244.7</ele>
        <time>2019-07-13T11:19:46Z</time>
      </trkpt>
      <trkpt lat="43.0964600" lon="-0.9058880">
        <ele>245.1</ele>
        <time>2019-07-13T11:19:50Z</time>
      </trkpt>
      <trkpt lat="43.0964040" lon="-0.9059860">
        <ele>245.4</ele>
        <time>2019-07-13T11:19:53Z</time>
      </trkpt>
      <trkpt lat="43.0963300" lon="-0.9061160">
        <ele>245.8</ele>
        <time>2019-07-13T11:19:57Z</time>
      </trkpt>
      <trkpt lat="43.0962570" lon="-0.9062450">
        <ele>246.3</ele>
        <time>2019-07-13T11:20:01Z</time>
      </trkpt>
      <trkpt lat="43.0961840" lon="-0.9063610">
        <ele>246.7</ele>
        <time>2019-07-13T11:20:05Z</time>
      </trkpt>
      <trkpt lat="43.0961160" lon="-0.9064690">
        <ele>247.1</ele>
        <time>2019-07-13T11:20:09Z</time>
      </trkpt>
      <trkpt lat="43.0960430" lon="-0.9065650">
        <ele>247.5</ele>
        <time>2019-07-13T11:20:13Z</time>
      </trkpt>
      <trkpt lat="43.0959760" lon="-0.9066580">
        <ele>248.0</ele>
        <time>2019-07-13T11:20:17Z</time>
      </trkpt>
      <trkpt lat="43.0959050" lon="-0.9067630">
        <ele>248.5</ele>
        <time>2019-07-13T11:20:21Z</time>
      </trkpt>
      <trkpt lat="43.0958270" lon="-0.9068650">
        <ele>249.0</ele>
        <time>2019-07-13T11:20:25Z</time>
      </trkpt>
      <trkpt lat="43.0957440" lon="-0.9069630">
        <ele>249.3</ele>
        <time>2019-07-13T11:20:29Z</time>
      </trkpt>
      <trkpt lat="43.0956650" lon="-0.9070610">
        <ele>249.5</ele>
        <time>2019-07-13T11:20:33Z</time>
      </trkpt>
      <trkpt lat="43.0955770" lon="-0.9071700">
        <ele>249.6</ele>
        <time>2019-07-13T11:20:37Z</time>
      </trkpt>
      <trkpt lat="43.0954910" lon="-0.9072860">
        <ele>249.6</ele>
        <time>2019-07-13T11:20:41Z</time>
      </trkpt>
      <trkpt lat="43.0954240" lon="-0.9073710">
        <ele>249.5</ele>
        <time>2019-07-13T11:20:44Z</time>
      </trkpt>
      <trkpt lat="43.0953540" lon="-0.9074550">
        <ele>249.4</ele>
        <time>2019-07-13T11:20:47Z</time>
      </trkpt>
      <trkpt lat="43.0952900" lon="-0.9075440">
        <ele>249.2</ele>
        <time>2019-07-13T11:20:50Z</time>
      </trkpt>
      <trkpt lat="43.0952220" lon="-0.9076250">
        <ele>249.0</ele>
        <time>2019-07-13T11:20:53Z</time>
      </trkpt>
      <trkpt lat="43.0951530" lon="-0.9077060">
        <ele>248.7</ele>
        <time>2019-07-13T11:20:56Z</time>
      </trkpt>
      <trkpt lat="43.0950760" lon="-0.9078020">
        <ele>248.5</ele>
        <time>2019-07-13T11:20:59Z</time>
      </trkpt>
      <trkpt lat="43.0950050" lon="-0.9078920">
        <ele>248.3</ele>
        <time>2019-07-13T11:21:02Z</time>
      </trkpt>
      <trkpt lat="43.0949240" lon="-0.9079910">
        <ele>248.3</ele>
        <time>2019-07-13T11:21:05Z</time>
      </trkpt>
      <trkpt lat="43.0948340" lon="-0.9080960">
        <ele>248.2</ele>
        <time>2019-07-13T11:21:08Z</time>
      </trkpt>
      <trkpt lat="43.0947550" lon="-0.9081870">
        <ele>248.2</ele>
        <time>2019-07-13T11:21:11Z</time>
      </trkpt>
      <trkpt lat="43.0946790" lon="-0.9082920">
        <ele>248.3</ele>
        <time>2019-07-13T11:21:14Z</time>
      </trkpt>
      <trkpt lat="43.0946140" lon="-0.9084010">
        <ele>248.5</ele>
        <time>2019-07-13T11:21:17Z</time>
      </trkpt>
      <trkpt lat="43.0945570" lon="-0.9085170">
        <ele>248.6</ele>
        <time>2019-07-13T11:21:20Z</time>
      </trkpt>
      <trkpt lat="43.0945030" lon="-0.9086370">
        <ele>248.7</ele>
        <time>2019-07-13T11:21:23Z</time>
      </trkpt>
      <trkpt lat="43.0944420" lon="-0.9087610">
        <ele>248.8</ele>
        <time>2019-07-13T11:21:26Z</time>
      </trkpt>
      <trkpt lat="43.0943840" lon="-0.9088720">
        <ele>248.9</ele>
        <time>2019-07-13T11:21:29Z</time>
      </trkpt>
      <trkpt lat="43.0943230" lon="-0.9089840">
        <ele>249.0</ele>
        <time>2019-07-13T11:21:32Z</time>
      </trkpt>
      <trkpt lat="43.0942510" lon="-0.9090850">
        <ele>249.1</ele>
        <time>2019-07-13T11:21:35Z</time>
      </trkpt>
      <trkpt lat="43.0941680" lon="-0.9091760">
        <ele>249.1</ele>
        <time>2019-07-13T11:21:38Z</time>
      </trkpt>
      <trkpt lat="43.0940810" lon="-0.9092660">
        <ele>249.1</ele>
        <time>2019-07-13T11:21:41Z</time>
      </trkpt>
      <trkpt lat="43.0939790" lon="-0.9093660">
        <ele>249.1</ele>
        <time>2019-07-13T11:21:44Z</time>
      </trkpt>
      <trkpt lat="43.0938750" lon="-0.9094700">
        <ele>248.9</ele>
        <time>2019-07-13T11:21:47Z</time>
      </trkpt>
      <trkpt lat="43.0937800" lon="-0.9095770">
        <ele>248.5</ele>
        <time>2019-07-13T11:21:50Z</time>
      </trkpt>
      <trkpt lat="43.0936750" lon="-0.9096800">
        <ele>248.6</ele>
        <time>2019-07-13T11:21:53Z</time>
      </trkpt>
      <trkpt lat="43.0936060" lon="-0.9097640">
        <ele>248.8</ele>
        <time>2019-07-13T11:21:55Z</time>
      </trkpt>
      <trkpt lat="43.0935370" lon="-0.9098470">
        <ele>248.8</ele>
        <time>2019-07-13T11:21:57Z</time>
      </trkpt>
      <trkpt lat="43.0934440" lon="-0.9099650">
        <ele>248.9</ele>
        <time>2019-07-13T11:22:00Z</time>
      </trkpt>
      <trkpt lat="43.0933440" lon="-0.9100760">
        <ele>249.0</ele>
        <time>2019-07-13T11:22:03Z</time>
      </trkpt>
      <trkpt lat="43.0932390" lon="-0.9101580">
        <ele>249.1</ele>
        <time>2019-07-13T11:22:06Z</time>
      </trkpt>
      <trkpt lat="43.0931260" lon="-0.9102310">
        <ele>249.3</ele>
        <time>2019-07-13T11:22:09Z</time>
      </trkpt>
      <trkpt lat="43.0930250" lon="-0.9103190">
        <ele>249.4</ele>
        <time>2019-07-13T11:22:12Z</time>
      </trkpt>
      <trkpt lat="43.0929340" lon="-0.9104250">
        <ele>249.6</ele>
        <time>2019-07-13T11:22:15Z</time>
      </trkpt>
      <trkpt lat="43.0928500" lon="-0.9105370">
        <ele>249.7</ele>
        <time>2019-07-13T11:22:18Z</time>
      </trkpt>
      <trkpt lat="43.0927730" lon="-0.9106550">
        <ele>249.9</ele>
        <time>2019-07-13T11:22:21Z</time>
      </trkpt>
      <trkpt lat="43.0927030" lon="-0.9107880">
        <ele>250.0</ele>
        <time>2019-07-13T11:22:24Z</time>
      </trkpt>
      <trkpt lat="43.0926330" lon="-0.9109210">
        <ele>250.2</ele>
        <time>2019-07-13T11:22:27Z</time>
      </trkpt>
      <trkpt lat="43.0925610" lon="-0.9110510">
        <ele>250.4</ele>
        <time>2019-07-13T11:22:30Z</time>
      </trkpt>
      <trkpt lat="43.0924890" lon="-0.9111860">
        <ele>250.5</ele>
        <time>2019-07-13T11:22:33Z</time>
      </trkpt>
      <trkpt lat="43.0924150" lon="-0.9113300">
        <ele>250.7</ele>
        <time>2019-07-13T11:22:36Z</time>
      </trkpt>
      <trkpt lat="43.0923400" lon="-0.9114780">
        <ele>250.8</ele>
        <time>2019-07-13T11:22:39Z</time>
      </trkpt>
      <trkpt lat="43.0922880" lon="-0.9115800">
        <ele>250.9</ele>
        <time>2019-07-13T11:22:41Z</time>
      </trkpt>
      <trkpt lat="43.0922090" lon="-0.9117240">
        <ele>251.0</ele>
        <time>2019-07-13T11:22:44Z</time>
      </trkpt>
      <trkpt lat="43.0921180" lon="-0.9118570">
        <ele>251.2</ele>
        <time>2019-07-13T11:22:47Z</time>
      </trkpt>
      <trkpt lat="43.0920170" lon="-0.9119780">
        <ele>251.3</ele>
        <time>2019-07-13T11:22:50Z</time>
      </trkpt>
      <trkpt lat="43.0919200" lon="-0.9120590">
        <ele>251.4</ele>
        <time>2019-07-13T11:22:53Z</time>
      </trkpt>
      <trkpt lat="43.0917970" lon="-0.9121090">
        <ele>251.5</ele>
        <time>2019-07-13T11:22:56Z</time>
      </trkpt>
      <trkpt lat="43.0917040" lon="-0.9121360">
        <ele>251.5</ele>
        <time>2019-07-13T11:22:58Z</time>
      </trkpt>
      <trkpt lat="43.0916130" lon="-0.9121610">
        <ele>251.6</ele>
        <time>2019-07-13T11:23:00Z</time>
      </trkpt>
      <trkpt lat="43.0915240" lon="-0.9121920">
        <ele>251.6</ele>
        <time>2019-07-13T11:23:02Z</time>
      </trkpt>
      <trkpt lat="43.0913930" lon="-0.9122250">
        <ele>251.6</ele>
        <time>2019-07-13T11:23:05Z</time>
      </trkpt>
      <trkpt lat="43.0912770" lon="-0.9122560">
        <ele>251.6</ele>
        <time>2019-07-13T11:23:08Z</time>
      </trkpt>
      <trkpt lat="43.0911950" lon="-0.9123140">
        <ele>252.0</ele>
        <time>2019-07-13T11:23:11Z</time>
      </trkpt>
      <trkpt lat="43.0911090" lon="-0.9124130">
        <ele>253.1</ele>
        <time>2019-07-13T11:23:15Z</time>
      </trkpt>
      <trkpt lat="43.0910380" lon="-0.9124990">
        <ele>253.8</ele>
        <time>2019-07-13T11:23:20Z</time>
      </trkpt>
      <trkpt lat="43.0910170" lon="-0.9125170">
        <ele>253.9</ele>
        <time>2019-07-13T11:23:26Z</time>
      </trkpt>
      <trkpt lat="43.0910020" lon="-0.9126670">
        <ele>253.9</ele>
        <time>2019-07-13T11:23:49Z</time>
      </trkpt>
      <trkpt lat="43.0909950" lon="-0.9128130">
        <ele>253.8</ele>
        <time>2019-07-13T11:23:53Z</time>
      </trkpt>
      <trkpt lat="43.0909960" lon="-0.9129390">
        <ele>253.7</ele>
        <time>2019-07-13T11:23:56Z</time>
      </trkpt>
      <trkpt lat="43.0909890" lon="-0.9130860">
        <ele>253.5</ele>
        <time>2019-07-13T11:24:00Z</time>
      </trkpt>
      <trkpt lat="43.0909730" lon="-0.9132350">
        <ele>253.5</ele>
        <time>2019-07-13T11:24:05Z</time>
      </trkpt>
      <trkpt lat="43.0909520" lon="-0.9133670">
        <ele>253.4</ele>
        <time>2019-07-13T11:24:10Z</time>
      </trkpt>
      <trkpt lat="43.0909220" lon="-0.9135110">
        <ele>253.5</ele>
        <time>2019-07-13T11:24:15Z</time>
      </trkpt>
      <trkpt lat="43.0908860" lon="-0.9136440">
        <ele>253.6</ele>
        <time>2019-07-13T11:24:19Z</time>
      </trkpt>
      <trkpt lat="43.0908310" lon="-0.9137520">
        <ele>253.8</ele>
        <time>2019-07-13T11:24:24Z</time>
      </trkpt>
      <trkpt lat="43.0907560" lon="-0.9138510">
        <ele>253.9</ele>
        <time>2019-07-13T11:24:28Z</time>
      </trkpt>
      <trkpt lat="43.0906780" lon="-0.9139520">
        <ele>254.0</ele>
        <time>2019-07-13T11:24:33Z</time>
      </trkpt>
      <trkpt lat="43.0905830" lon="-0.9140470">
        <ele>254.1</ele>
        <time>2019-07-13T11:24:37Z</time>
      </trkpt>
      <trkpt lat="43.0905010" lon="-0.9141300">
        <ele>254.1</ele>
        <time>2019-07-13T11:24:40Z</time>
      </trkpt>
      <trkpt lat="43.0904100" lon="-0.9142470">
        <ele>254.2</ele>
        <time>2019-07-13T11:24:43Z</time>
      </trkpt>
      <trkpt lat="43.0903380" lon="-0.9143260">
        <ele>254.3</ele>
        <time>2019-07-13T11:24:45Z</time>
      </trkpt>
      <trkpt lat="43.0902660" lon="-0.9144040">
        <ele>254.3</ele>
        <time>2019-07-13T11:24:47Z</time>
      </trkpt>
      <trkpt lat="43.0901660" lon="-0.9145160">
        <ele>254.0</ele>
        <time>2019-07-13T11:24:50Z</time>
      </trkpt>
      <trkpt lat="43.0900740" lon="-0.9146140">
        <ele>253.9</ele>
        <time>2019-07-13T11:24:53Z</time>
      </trkpt>
      <trkpt lat="43.0899830" lon="-0.9147140">
        <ele>253.8</ele>
        <time>2019-07-13T11:24:56Z</time>
      </trkpt>
      <trkpt lat="43.0898940" lon="-0.9148030">
        <ele>253.8</ele>
        <time>2019-07-13T11:24:59Z</time>
      </trkpt>
      <trkpt lat="43.0898110" lon="-0.9148920">
        <ele>253.7</ele>
        <time>2019-07-13T11:25:02Z</time>
      </trkpt>
      <trkpt lat="43.0897290" lon="-0.9149720">
        <ele>253.7</ele>
        <time>2019-07-13T11:25:05Z</time>
      </trkpt>
      <trkpt lat="43.0896480" lon="-0.9150610">
        <ele>253.8</ele>
        <time>2019-07-13T11:25:08Z</time>
      </trkpt>
      <trkpt lat="43.0895720" lon="-0.9151500">
        <ele>253.8</ele>
        <time>2019-07-13T11:25:11Z</time>
      </trkpt>
      <trkpt lat="43.0894980" lon="-0.9152240">
        <ele>253.8</ele>
        <time>2019-07-13T11:25:14Z</time>
      </trkpt>
      <trkpt lat="43.0894000" lon="-0.9153190">
        <ele>253.8</ele>
        <time>2019-07-13T11:25:18Z</time>
      </trkpt>
      <trkpt lat="43.0893220" lon="-0.9154140">
        <ele>253.9</ele>
        <time>2019-07-13T11:25:21Z</time>
      </trkpt>
      <trkpt lat="43.0892490" lon="-0.9155370">
        <ele>254.0</ele>
        <time>2019-07-13T11:25:25Z</time>
      </trkpt>
      <trkpt lat="43.0891950" lon="-0.9156420">
        <ele>254.1</ele>
        <time>2019-07-13T11:25:28Z</time>
      </trkpt>
      <trkpt lat="43.0891390" lon="-0.9157450">
        <ele>254.1</ele>
        <time>2019-07-13T11:25:31Z</time>
      </trkpt>
      <trkpt lat="43.0890910" lon="-0.9158520">
        <ele>254.2</ele>
        <time>2019-07-13T11:25:34Z</time>
      </trkpt>
      <trkpt lat="43.0890410" lon="-0.9159600">
        <ele>254.4</ele>
        <time>2019-07-13T11:25:37Z</time>
      </trkpt>
      <trkpt lat="43.0889940" lon="-0.9160660">
        <ele>254.6</ele>
        <time>2019-07-13T11:25:40Z</time>
      </trkpt>
      <trkpt lat="43.0889340" lon="-0.9161900">
        <ele>254.9</ele>
        <time>2019-07-13T11:25:44Z</time>
      </trkpt>
      <trkpt lat="43.0888910" lon="-0.9163120">
        <ele>255.2</ele>
        <time>2019-07-13T11:25:49Z</time>
      </trkpt>
      <trkpt lat="43.0888400" lon="-0.9164360">
        <ele>255.6</ele>
        <time>2019-07-13T11:25:55Z</time>
      </trkpt>
      <trkpt lat="43.0887940" lon="-0.9165610">
        <ele>256.0</ele>
        <time>2019-07-13T11:26:01Z</time>
      </trkpt>
      <trkpt lat="43.0887380" lon="-0.9166840">
        <ele>256.6</ele>
        <time>2019-07-13T11:26:08Z</time>
      </trkpt>
      <trkpt lat="43.0886880" lon="-0.9167930">
        <ele>257.3</ele>
        <time>2019-07-13T11:26:14Z</time>
      </trkpt>
      <trkpt lat="43.0886300" lon="-0.9168950">
        <ele>257.8</ele>
        <time>2019-07-13T11:26:20Z</time>
      </trkpt>
      <trkpt lat="43.0885510" lon="-0.9169950">
        <ele>258.3</ele>
        <time>2019-07-13T11:26:25Z</time>
      </trkpt>
      <trkpt lat="43.0884870" lon="-0.9170820">
        <ele>258.9</ele>
        <time>2019-07-13T11:26:30Z</time>
      </trkpt>
      <trkpt lat="43.0884100" lon="-0.9171830">
        <ele>259.6</ele>
        <time>2019-07-13T11:26:36Z</time>
      </trkpt>
      <trkpt lat="43.0883400" lon="-0.9172690">
        <ele>260.2</ele>
        <time>2019-07-13T11:26:41Z</time>
      </trkpt>
      <trkpt lat="43.0882730" lon="-0.9173700">
        <ele>260.8</ele>
        <time>2019-07-13T11:26:47Z</time>
      </trkpt>
      <trkpt lat="43.0882070" lon="-0.9174760">
        <ele>261.4</ele>
        <time>2019-07-13T11:26:53Z</time>
      </trkpt>
      <trkpt lat="43.0881380" lon="-0.9175610">
        <ele>262.1</ele>
        <time>2019-07-13T11:26:59Z</time>
      </trkpt>
      <trkpt lat="43.0880710" lon="-0.9176530">
        <ele>262.8</ele>
        <time>2019-07-13T11:27:06Z</time>
      </trkpt>
      <trkpt lat="43.0880200" lon="-0.9177680">
        <ele>263.5</ele>
        <time>2019-07-13T11:27:14Z</time>
      </trkpt>
      <trkpt lat="43.0879610" lon="-0.9178760">
        <ele>264.1</ele>
        <time>2019-07-13T11:27:21Z</time>
      </trkpt>
      <trkpt lat="43.0879030" lon="-0.9179720">
        <ele>264.9</ele>
        <time>2019-07-13T11:27:27Z</time>
      </trkpt>
      <trkpt lat="43.0878450" lon="-0.9180730">
        <ele>265.7</ele>
        <time>2019-07-13T11:27:33Z</time>
      </trkpt>
      <trkpt lat="43.0877840" lon="-0.9181810">
        <ele>266.6</ele>
        <time>2019-07-13T11:27:40Z</time>
      </trkpt>
      <trkpt lat="43.0877100" lon="-0.9182630">
        <ele>267.5</ele>
        <time>2019-07-13T11:27:45Z</time>
      </trkpt>
      <trkpt lat="43.0876390" lon="-0.9183680">
        <ele>268.5</ele>
        <time>2019-07-13T11:27:51Z</time>
      </trkpt>
      <trkpt lat="43.0875770" lon="-0.9184610">
        <ele>269.5</ele>
        <time>2019-07-13T11:27:58Z</time>
      </trkpt>
      <trkpt lat="43.0875040" lon="-0.9185500">
        <ele>270.4</ele>
        <time>2019-07-13T11:28:04Z</time>
      </trkpt>
      <trkpt lat="43.0874230" lon="-0.9186420">
        <ele>271.3</ele>
        <time>2019-07-13T11:28:10Z</time>
      </trkpt>
      <trkpt lat="43.0873240" lon="-0.9187380">
        <ele>272.1</ele>
        <time>2019-07-13T11:28:16Z</time>
      </trkpt>
      <trkpt lat="43.0872440" lon="-0.9188380">
        <ele>272.8</ele>
        <time>2019-07-13T11:28:23Z</time>
      </trkpt>
      <trkpt lat="43.0871770" lon="-0.9189340">
        <ele>273.4</ele>
        <time>2019-07-13T11:28:29Z</time>
      </trkpt>
      <trkpt lat="43.0870940" lon="-0.9190170">
        <ele>273.8</ele>
        <time>2019-07-13T11:28:35Z</time>
      </trkpt>
      <trkpt lat="43.0870150" lon="-0.9190990">
        <ele>274.3</ele>
        <time>2019-07-13T11:28:41Z</time>
      </trkpt>
      <trkpt lat="43.0869370" lon="-0.9191850">
        <ele>274.7</ele>
        <time>2019-07-13T11:28:47Z</time>
      </trkpt>
      <trkpt lat="43.0868600" lon="-0.9192580">
        <ele>275.1</ele>
        <time>2019-07-13T11:28:52Z</time>
      </trkpt>
      <trkpt lat="43.0867840" lon="-0.9193590">
        <ele>275.4</ele>
        <time>2019-07-13T11:28:59Z</time>
      </trkpt>
      <trkpt lat="43.0867150" lon="-0.9194490">
        <ele>275.7</ele>
        <time>2019-07-13T11:29:05Z</time>
      </trkpt>
      <trkpt lat="43.0866540" lon="-0.9195480">
        <ele>276.1</ele>
        <time>2019-07-13T11:29:11Z</time>
      </trkpt>
      <trkpt lat="43.0865760" lon="-0.9196400">
        <ele>276.5</ele>
        <time>2019-07-13T11:29:17Z</time>
      </trkpt>
      <trkpt lat="43.0865060" lon="-0.9197190">
        <ele>276.8</ele>
        <time>2019-07-13T11:29:22Z</time>
      </trkpt>
      <trkpt lat="43.0864530" lon="-0.9198210">
        <ele>277.3</ele>
        <time>2019-07-13T11:29:28Z</time>
      </trkpt>
      <trkpt lat="43.0863880" lon="-0.9199100">
        <ele>277.6</ele>
        <time>2019-07-13T11:29:34Z</time>
      </trkpt>
      <trkpt lat="43.0863810" lon="-0.9199170">
        <ele>277.6</ele>
        <time>2019-07-13T11:29:39Z</time>
      </trkpt>
      <trkpt lat="43.0864020" lon="-0.9199400">
        <ele>277.6</ele>
        <time>2019-07-13T11:33:04Z</time>
      </trkpt>
      <trkpt lat="43.0864500" lon="-0.9198050">
        <ele>277.1</ele>
        <time>2019-07-13T11:33:12Z</time>
      </trkpt>
      <trkpt lat="43.0865240" lon="-0.9197050">
        <ele>276.7</ele>
        <time>2019-07-13T11:33:16Z</time>
      </trkpt>
      <trkpt lat="43.0865960" lon="-0.9196000">
        <ele>276.4</ele>
        <time>2019-07-13T11:33:19Z</time>
      </trkpt>
      <trkpt lat="43.0866830" lon="-0.9194780">
        <ele>275.9</ele>
        <time>2019-07-13T11:33:22Z</time>
      </trkpt>
      <trkpt lat="43.0867500" lon="-0.9193940">
        <ele>275.6</ele>
        <time>2019-07-13T11:33:24Z</time>
      </trkpt>
      <trkpt lat="43.0868280" lon="-0.9193100">
        <ele>275.2</ele>
        <time>2019-07-13T11:33:26Z</time>
      </trkpt>
      <trkpt lat="43.0869100" lon="-0.9192220">
        <ele>274.9</ele>
        <time>2019-07-13T11:33:28Z</time>
      </trkpt>
      <trkpt lat="43.0869960" lon="-0.9191270">
        <ele>274.4</ele>
        <time>2019-07-13T11:33:30Z</time>
      </trkpt>
      <trkpt lat="43.0870860" lon="-0.9190330">
        <ele>273.9</ele>
        <time>2019-07-13T11:33:32Z</time>
      </trkpt>
      <trkpt lat="43.0871760" lon="-0.9189370">
        <ele>273.4</ele>
        <time>2019-07-13T11:33:34Z</time>
      </trkpt>
      <trkpt lat="43.0872680" lon="-0.9188300">
        <ele>272.6</ele>
        <time>2019-07-13T11:33:36Z</time>
      </trkpt>
      <trkpt lat="43.0873670" lon="-0.9187120">
        <ele>271.8</ele>
        <time>2019-07-13T11:33:38Z</time>
      </trkpt>
      <trkpt lat="43.0874790" lon="-0.9185770">
        <ele>270.6</ele>
        <time>2019-07-13T11:33:40Z</time>
      </trkpt>
      <trkpt lat="43.0875970" lon="-0.9184140">
        <ele>269.0</ele>
        <time>2019-07-13T11:33:42Z</time>
      </trkpt>
      <trkpt lat="43.0877240" lon="-0.9182380">
        <ele>267.2</ele>
        <time>2019-07-13T11:33:44Z</time>
      </trkpt>
      <trkpt lat="43.0877870" lon="-0.9181420">
        <ele>266.4</ele>
        <time>2019-07-13T11:33:45Z</time>
      </trkpt>
      <trkpt lat="43.0878490" lon="-0.9180410">
        <ele>265.6</ele>
        <time>2019-07-13T11:33:46Z</time>
      </trkpt>
      <trkpt lat="43.0879090" lon="-0.9179330">
        <ele>264.6</ele>
        <time>2019-07-13T11:33:47Z</time>
      </trkpt>
      <trkpt lat="43.0879710" lon="-0.9178220">
        <ele>263.9</ele>
        <time>2019-07-13T11:33:48Z</time>
      </trkpt>
      <trkpt lat="43.0880360" lon="-0.9177130">
        <ele>263.2</ele>
        <time>2019-07-13T11:33:49Z</time>
      </trkpt>
      <trkpt lat="43.0881060" lon="-0.9176060">
        <ele>262.4</ele>
        <time>2019-07-13T11:33:50Z</time>
      </trkpt>
      <trkpt lat="43.0881740" lon="-0.9175060">
        <ele>261.6</ele>
        <time>2019-07-13T11:33:51Z</time>
      </trkpt>
      <trkpt lat="43.0882400" lon="-0.9174150">
        <ele>261.0</ele>
        <time>2019-07-13T11:33:52Z</time>
      </trkpt>
      <trkpt lat="43.0883670" lon="-0.9172460">
        <ele>260.0</ele>
        <time>2019-07-13T11:33:54Z</time>
      </trkpt>
      <trkpt lat="43.0884800" lon="-0.9170810">
        <ele>258.9</ele>
        <time>2019-07-13T11:33:56Z</time>
      </trkpt>
      <trkpt lat="43.0885750" lon="-0.9169250">
        <ele>258.1</ele>
        <time>2019-07-13T11:33:58Z</time>
      </trkpt>
      <trkpt lat="43.0886580" lon="-0.9167780">
        <ele>257.3</ele>
        <time>2019-07-13T11:34:00Z</time>
      </trkpt>
      <trkpt lat="43.0887240" lon="-0.9166670">
        <ele>256.6</ele>
        <time>2019-07-13T11:34:02Z</time>
      </trkpt>
      <trkpt lat="43.0887820" lon="-0.9165560">
        <ele>256.1</ele>
        <time>2019-07-13T11:34:04Z</time>
      </trkpt>
      <trkpt lat="43.0888400" lon="-0.9164200">
        <ele>255.6</ele>
        <time>2019-07-13T11:34:06Z</time>
      </trkpt>
      <trkpt lat="43.0889050" lon="-0.9162660">
        <ele>255.1</ele>
        <time>2019-07-13T11:34:08Z</time>
      </trkpt>
      <trkpt lat="43.0889740" lon="-0.9160960">
        <ele>254.7</ele>
        <time>2019-07-13T11:34:10Z</time>
      </trkpt>
      <trkpt lat="43.0890470" lon="-0.9159250">
        <ele>254.4</ele>
        <time>2019-07-13T11:34:12Z</time>
      </trkpt>
      <trkpt lat="43.0891220" lon="-0.9157550">
        <ele>254.1</ele>
        <time>2019-07-13T11:34:14Z</time>
      </trkpt>
      <trkpt lat="43.0892050" lon="-0.9156010">
        <ele>254.0</ele>
        <time>2019-07-13T11:34:16Z</time>
      </trkpt>
      <trkpt lat="43.0892950" lon="-0.9154590">
        <ele>253.9</ele>
        <time>2019-07-13T11:34:18Z</time>
      </trkpt>
      <trkpt lat="43.0893880" lon="-0.9153290">
        <ele>253.8</ele>
        <time>2019-07-13T11:34:20Z</time>
      </trkpt>
      <trkpt lat="43.0894910" lon="-0.9152210">
        <ele>253.8</ele>
        <time>2019-07-13T11:34:22Z</time>
      </trkpt>
      <trkpt lat="43.0895940" lon="-0.9151140">
        <ele>253.8</ele>
        <time>2019-07-13T11:34:24Z</time>
      </trkpt>
      <trkpt lat="43.0896920" lon="-0.9150060">
        <ele>253.8</ele>
        <time>2019-07-13T11:34:26Z</time>
      </trkpt>
      <trkpt lat="43.0897900" lon="-0.9149030">
        <ele>253.7</ele>
        <time>2019-07-13T11:34:28Z</time>
      </trkpt>
      <trkpt lat="43.0898900" lon="-0.9148030">
        <ele>253.8</ele>
        <time>2019-07-13T11:34:30Z</time>
      </trkpt>
      <trkpt lat="43.0899870" lon="-0.9146970">
        <ele>253.8</ele>
        <time>2019-07-13T11:34:32Z</time>
      </trkpt>
      <trkpt lat="43.0900840" lon="-0.9145980">
        <ele>253.9</ele>
        <time>2019-07-13T11:34:34Z</time>
      </trkpt>
      <trkpt lat="43.0901840" lon="-0.9145080">
        <ele>254.0</ele>
        <time>2019-07-13T11:34:36Z</time>
      </trkpt>
      <trkpt lat="43.0902760" lon="-0.9144100">
        <ele>254.3</ele>
        <time>2019-07-13T11:34:38Z</time>
      </trkpt>
      <trkpt lat="43.0903570" lon="-0.9143010">
        <ele>254.2</ele>
        <time>2019-07-13T11:34:40Z</time>
      </trkpt>
      <trkpt lat="43.0904340" lon="-0.9142080">
        <ele>254.2</ele>
        <time>2019-07-13T11:34:42Z</time>
      </trkpt>
      <trkpt lat="43.0905360" lon="-0.9140950">
        <ele>254.1</ele>
        <time>2019-07-13T11:34:45Z</time>
      </trkpt>
      <trkpt lat="43.0906290" lon="-0.9140010">
        <ele>254.1</ele>
        <time>2019-07-13T11:34:48Z</time>
      </trkpt>
      <trkpt lat="43.0907100" lon="-0.9139110">
        <ele>254.0</ele>
        <time>2019-07-13T11:34:51Z</time>
      </trkpt>
      <trkpt lat="43.0907840" lon="-0.9138090">
        <ele>253.9</ele>
        <time>2019-07-13T11:34:54Z</time>
      </trkpt>
      <trkpt lat="43.0908620" lon="-0.9136800">
        <ele>253.7</ele>
        <time>2019-07-13T11:34:57Z</time>
      </trkpt>
      <trkpt lat="43.0909100" lon="-0.9135600">
        <ele>253.5</ele>
        <time>2019-07-13T11:34:59Z</time>
      </trkpt>
      <trkpt lat="43.0909540" lon="-0.9134200">
        <ele>253.4</ele>
        <time>2019-07-13T11:35:01Z</time>
      </trkpt>
      <trkpt lat="43.0909890" lon="-0.9132600">
        <ele>253.4</ele>
        <time>2019-07-13T11:35:03Z</time>
      </trkpt>
      <trkpt lat="43.0910050" lon="-0.9130830">
        <ele>253.5</ele>
        <time>2019-07-13T11:35:05Z</time>
      </trkpt>
      <trkpt lat="43.0910040" lon="-0.9129040">
        <ele>253.7</ele>
        <time>2019-07-13T11:35:07Z</time>
      </trkpt>
      <trkpt lat="43.0910130" lon="-0.9127340">
        <ele>253.8</ele>
        <time>2019-07-13T11:35:09Z</time>
      </trkpt>
      <trkpt lat="43.0910470" lon="-0.9125760">
        <ele>254.0</ele>
        <time>2019-07-13T11:35:11Z</time>
      </trkpt>
      <trkpt lat="43.0911210" lon="-0.9124570">
        <ele>253.1</ele>
        <time>2019-07-13T11:35:13Z</time>
      </trkpt>
      <trkpt lat="43.0912100" lon="-0.9123730">
        <ele>252.2</ele>
        <time>2019-07-13T11:35:15Z</time>
      </trkpt>
      <trkpt lat="43.0913040" lon="-0.9123040">
        <ele>251.6</ele>
        <time>2019-07-13T11:35:17Z</time>
      </trkpt>
      <trkpt lat="43.0914120" lon="-0.9122610">
        <ele>251.6</ele>
        <time>2019-07-13T11:35:19Z</time>
      </trkpt>
      <trkpt lat="43.0915170" lon="-0.9122320">
        <ele>251.6</ele>
        <time>2019-07-13T11:35:21Z</time>
      </trkpt>
      <trkpt lat="43.0916180" lon="-0.9122010">
        <ele>251.6</ele>
        <time>2019-07-13T11:35:23Z</time>
      </trkpt>
      <trkpt lat="43.0917130" lon="-0.9121620">
        <ele>251.5</ele>
        <time>2019-07-13T11:35:25Z</time>
      </trkpt>
      <trkpt lat="43.0918050" lon="-0.9121320">
        <ele>251.5</ele>
        <time>2019-07-13T11:35:27Z</time>
      </trkpt>
      <trkpt lat="43.0919210" lon="-0.9120690">
        <ele>251.4</ele>
        <time>2019-07-13T11:35:30Z</time>
      </trkpt>
      <trkpt lat="43.0920230" lon="-0.9119750">
        <ele>251.3</ele>
        <time>2019-07-13T11:35:33Z</time>
      </trkpt>
      <trkpt lat="43.0921140" lon="-0.9118740">
        <ele>251.2</ele>
        <time>2019-07-13T11:35:36Z</time>
      </trkpt>
      <trkpt lat="43.0921880" lon="-0.9117520">
        <ele>251.1</ele>
        <time>2019-07-13T11:35:39Z</time>
      </trkpt>
      <trkpt lat="43.0922540" lon="-0.9116270">
        <ele>251.0</ele>
        <time>2019-07-13T11:35:42Z</time>
      </trkpt>
      <trkpt lat="43.0923130" lon="-0.9115000">
        <ele>250.9</ele>
        <time>2019-07-13T11:35:45Z</time>
      </trkpt>
      <trkpt lat="43.0923820" lon="-0.9113760">
        <ele>250.7</ele>
        <time>2019-07-13T11:35:48Z</time>
      </trkpt>
      <trkpt lat="43.0924510" lon="-0.9112570">
        <ele>250.6</ele>
        <time>2019-07-13T11:35:51Z</time>
      </trkpt>
      <trkpt lat="43.0925220" lon="-0.9111440">
        <ele>250.5</ele>
        <time>2019-07-13T11:35:54Z</time>
      </trkpt>
      <trkpt lat="43.0925880" lon="-0.9110230">
        <ele>250.3</ele>
        <time>2019-07-13T11:35:57Z</time>
      </trkpt>
      <trkpt lat="43.0926530" lon="-0.9109030">
        <ele>250.1</ele>
        <time>2019-07-13T11:36:00Z</time>
      </trkpt>
      <trkpt lat="43.0927150" lon="-0.9107820">
        <ele>250.0</ele>
        <time>2019-07-13T11:36:03Z</time>
      </trkpt>
      <trkpt lat="43.0927760" lon="-0.9106700">
        <ele>249.9</ele>
        <time>2019-07-13T11:36:06Z</time>
      </trkpt>
      <trkpt lat="43.0928440" lon="-0.9105550">
        <ele>249.7</ele>
        <time>2019-07-13T11:36:09Z</time>
      </trkpt>
      <trkpt lat="43.0929150" lon="-0.9104500">
        <ele>249.6</ele>
        <time>2019-07-13T11:36:12Z</time>
      </trkpt>
      <trkpt lat="43.0930000" lon="-0.9103570">
        <ele>249.5</ele>
        <time>2019-07-13T11:36:15Z</time>
      </trkpt>
      <trkpt lat="43.0930970" lon="-0.9102820">
        <ele>249.3</ele>
        <time>2019-07-13T11:36:18Z</time>
      </trkpt>
      <trkpt lat="43.0931910" lon="-0.9102120">
        <ele>249.2</ele>
        <time>2019-07-13T11:36:21Z</time>
      </trkpt>
      <trkpt lat="43.0932870" lon="-0.9101400">
        <ele>249.1</ele>
        <time>2019-07-13T11:36:24Z</time>
      </trkpt>
      <trkpt lat="43.0933770" lon="-0.9100360">
        <ele>249.0</ele>
        <time>2019-07-13T11:36:27Z</time>
      </trkpt>
      <trkpt lat="43.0934640" lon="-0.9099460">
        <ele>248.9</ele>
        <time>2019-07-13T11:36:30Z</time>
      </trkpt>
      <trkpt lat="43.0935420" lon="-0.9098450">
        <ele>248.8</ele>
        <time>2019-07-13T11:36:33Z</time>
      </trkpt>
      <trkpt lat="43.0936200" lon="-0.9097500">
        <ele>248.7</ele>
        <time>2019-07-13T11:36:36Z</time>
      </trkpt>
      <trkpt lat="43.0936980" lon="-0.9096720">
        <ele>248.6</ele>
        <time>2019-07-13T11:36:39Z</time>
      </trkpt>
      <trkpt lat="43.0937860" lon="-0.9096360">
        <ele>249.3</ele>
        <time>2019-07-13T11:36:42Z</time>
      </trkpt>
      <trkpt lat="43.0938680" lon="-0.9097110">
        <ele>250.6</ele>
        <time>2019-07-13T11:36:46Z</time>
      </trkpt>
      <trkpt lat="43.0939180" lon="-0.9098130">
        <ele>251.8</ele>
        <time>2019-07-13T11:36:51Z</time>
      </trkpt>
      <trkpt lat="43.0939860" lon="-0.9099110">
        <ele>253.1</ele>
        <time>2019-07-13T11:36:57Z</time>
      </trkpt>
      <trkpt lat="43.0940600" lon="-0.9099980">
        <ele>254.3</ele>
        <time>2019-07-13T11:37:03Z</time>
      </trkpt>
      <trkpt lat="43.0941400" lon="-0.9100840">
        <ele>255.3</ele>
        <time>2019-07-13T11:37:10Z</time>
      </trkpt>
      <trkpt lat="43.0942180" lon="-0.9101450">
        <ele>256.9</ele>
        <time>2019-07-13T11:37:16Z</time>
      </trkpt>
      <trkpt lat="43.0942870" lon="-0.9102470">
        <ele>257.6</ele>
        <time>2019-07-13T11:37:23Z</time>
      </trkpt>
      <trkpt lat="43.0942300" lon="-0.9103690">
        <ele>258.2</ele>
        <time>2019-07-13T11:37:30Z</time>
      </trkpt>
      <trkpt lat="43.0941640" lon="-0.9104590">
        <ele>258.6</ele>
        <time>2019-07-13T11:37:36Z</time>
      </trkpt>
      <trkpt lat="43.0940970" lon="-0.9105730">
        <ele>258.9</ele>
        <time>2019-07-13T11:37:41Z</time>
      </trkpt>
      <trkpt lat="43.0940490" lon="-0.9106820">
        <ele>259.2</ele>
        <time>2019-07-13T11:37:45Z</time>
      </trkpt>
      <trkpt lat="43.0939980" lon="-0.9108160">
        <ele>259.5</ele>
        <time>2019-07-13T11:37:50Z</time>
      </trkpt>
      <trkpt lat="43.0939630" lon="-0.9109540">
        <ele>259.9</ele>
        <time>2019-07-13T11:37:55Z</time>
      </trkpt>
      <trkpt lat="43.0939570" lon="-0.9110820">
        <ele>260.1</ele>
        <time>2019-07-13T11:38:00Z</time>
      </trkpt>
      <trkpt lat="43.0939560" lon="-0.9112180">
        <ele>260.2</ele>
        <time>2019-07-13T11:38:05Z</time>
      </trkpt>
      <trkpt lat="43.0939830" lon="-0.9113360">
        <ele>260.3</ele>
        <time>2019-07-13T11:38:10Z</time>
      </trkpt>
      <trkpt lat="43.0940410" lon="-0.9114520">
        <ele>260.4</ele>
        <time>2019-07-13T11:38:16Z</time>
      </trkpt>
      <trkpt lat="43.0941360" lon="-0.9114420">
        <ele>261.8</ele>
        <time>2019-07-13T11:38:22Z</time>
      </trkpt>
      <trkpt lat="43.0942130" lon="-0.9113630">
        <ele>263.1</ele>
        <time>2019-07-13T11:38:28Z</time>
      </trkpt>
      <trkpt lat="43.0942920" lon="-0.9113000">
        <ele>264.1</ele>
        <time>2019-07-13T11:38:34Z</time>
      </trkpt>
      <trkpt lat="43.0943730" lon="-0.9112330">
        <ele>265.0</ele>
        <time>2019-07-13T11:38:40Z</time>
      </trkpt>
      <trkpt lat="43.0944690" lon="-0.9111870">
        <ele>265.8</ele>
        <time>2019-07-13T11:38:47Z</time>
      </trkpt>
      <trkpt lat="43.0945640" lon="-0.9111330">
        <ele>266.6</ele>
        <time>2019-07-13T11:38:54Z</time>
      </trkpt>
      <trkpt lat="43.0946610" lon="-0.9111000">
        <ele>267.3</ele>
        <time>2019-07-13T11:39:00Z</time>
      </trkpt>
      <trkpt lat="43.0947590" lon="-0.9110600">
        <ele>268.0</ele>
        <time>2019-07-13T11:39:06Z</time>
      </trkpt>
      <trkpt lat="43.0948480" lon="-0.9109940">
        <ele>268.7</ele>
        <time>2019-07-13T11:39:13Z</time>
      </trkpt>
      <trkpt lat="43.0949270" lon="-0.9109060">
        <ele>269.4</ele>
        <time>2019-07-13T11:39:20Z</time>
      </trkpt>
      <trkpt lat="43.0950020" lon="-0.9108060">
        <ele>270.3</ele>
        <time>2019-07-13T11:39:26Z</time>
      </trkpt>
      <trkpt lat="43.0950820" lon="-0.9107300">
        <ele>271.2</ele>
        <time>2019-07-13T11:39:32Z</time>
      </trkpt>
      <trkpt lat="43.0951770" lon="-0.9106940">
        <ele>272.3</ele>
        <time>2019-07-13T11:39:39Z</time>
      </trkpt>
      <trkpt lat="43.0952690" lon="-0.9107440">
        <ele>274.1</ele>
        <time>2019-07-13T11:39:47Z</time>
      </trkpt>
      <trkpt lat="43.0953430" lon="-0.9108290">
        <ele>275.5</ele>
        <time>2019-07-13T11:39:55Z</time>
      </trkpt>
      <trkpt lat="43.0953850" lon="-0.9109480">
        <ele>276.7</ele>
        <time>2019-07-13T11:40:02Z</time>
      </trkpt>
      <trkpt lat="43.0953400" lon="-0.9110570">
        <ele>277.7</ele>
        <time>2019-07-13T11:40:09Z</time>
      </trkpt>
      <trkpt lat="43.0953060" lon="-0.9111840">
        <ele>278.5</ele>
        <time>2019-07-13T11:40:16Z</time>
      </trkpt>
      <trkpt lat="43.0952760" lon="-0.9113200">
        <ele>279.2</ele>
        <time>2019-07-13T11:40:24Z</time>
      </trkpt>
      <trkpt lat="43.0952620" lon="-0.9114670">
        <ele>279.9</ele>
        <time>2019-07-13T11:40:32Z</time>
      </trkpt>
      <trkpt lat="43.0952460" lon="-0.9115940">
        <ele>280.6</ele>
        <time>2019-07-13T11:40:39Z</time>
      </trkpt>
      <trkpt lat="43.0952340" lon="-0.9117190">
        <ele>281.4</ele>
        <time>2019-07-13T11:40:46Z</time>
      </trkpt>
      <trkpt lat="43.0952390" lon="-0.9118600">
        <ele>282.4</ele>
        <time>2019-07-13T11:40:53Z</time>
      </trkpt>
      <trkpt lat="43.0953350" lon="-0.9118910">
        <ele>283.6</ele>
        <time>2019-07-13T11:41:00Z</time>
      </trkpt>
      <trkpt lat="43.0954240" lon="-0.9118270">
        <ele>284.7</ele>
        <time>2019-07-13T11:41:07Z</time>
      </trkpt>
      <trkpt lat="43.0955160" lon="-0.9117640">
        <ele>285.9</ele>
        <time>2019-07-13T11:41:14Z</time>
      </trkpt>
      <trkpt lat="43.0956030" lon="-0.9116970">
        <ele>286.9</ele>
        <time>2019-07-13T11:41:21Z</time>
      </trkpt>
      <trkpt lat="43.0956790" lon="-0.9117670">
        <ele>288.0</ele>
        <time>2019-07-13T11:41:29Z</time>
      </trkpt>
      <trkpt lat="43.0957020" lon="-0.9118950">
        <ele>289.0</ele>
        <time>2019-07-13T11:41:36Z</time>
      </trkpt>
      <trkpt lat="43.0957450" lon="-0.9120180">
        <ele>289.7</ele>
        <time>2019-07-13T11:41:43Z</time>
      </trkpt>
      <trkpt lat="43.0957920" lon="-0.9121470">
        <ele>290.3</ele>
        <time>2019-07-13T11:41:50Z</time>
      </trkpt>
      <trkpt lat="43.0958370" lon="-0.9122580">
        <ele>290.5</ele>
        <time>2019-07-13T11:41:56Z</time>
      </trkpt>
      <trkpt lat="43.0959020" lon="-0.9123500">
        <ele>290.7</ele>
        <time>2019-07-13T11:42:03Z</time>
      </trkpt>
      <trkpt lat="43.0960060" lon="-0.9123550">
        <ele>290.9</ele>
        <time>2019-07-13T11:42:09Z</time>
      </trkpt>
      <trkpt lat="43.0960840" lon="-0.9122760">
        <ele>291.2</ele>
        <time>2019-07-13T11:42:15Z</time>
      </trkpt>
      <trkpt lat="43.0961410" lon="-0.9121790">
        <ele>291.6</ele>
        <time>2019-07-13T11:42:21Z</time>
      </trkpt>
      <trkpt lat="43.0962000" lon="-0.9120720">
        <ele>292.0</ele>
        <time>2019-07-13T11:42:27Z</time>
      </trkpt>
      <trkpt lat="43.0962790" lon="-0.9119800">
        <ele>292.4</ele>
        <time>2019-07-13T11:42:33Z</time>
      </trkpt>
      <trkpt lat="43.0963670" lon="-0.9119420">
        <ele>292.8</ele>
        <time>2019-07-13T11:42:39Z</time>
      </trkpt>
      <trkpt lat="43.0964580" lon="-0.9119270">
        <ele>293.1</ele>
        <time>2019-07-13T11:42:45Z</time>
      </trkpt>
      <trkpt lat="43.0965340" lon="-0.9119990">
        <ele>293.3</ele>
        <time>2019-07-13T11:42:54Z</time>
      </trkpt>
      <trkpt lat="43.0965810" lon="-0.9121170">
        <ele>293.4</ele>
        <time>2019-07-13T11:43:02Z</time>
      </trkpt>
      <trkpt lat="43.0966320" lon="-0.9122390">
        <ele>293.5</ele>
        <time>2019-07-13T11:43:10Z</time>
      </trkpt>
      <trkpt lat="43.0967180" lon="-0.9123190">
        <ele>293.7</ele>
        <time>2019-07-13T11:43:17Z</time>
      </trkpt>
      <trkpt lat="43.0967720" lon="-0.9124370">
        <ele>293.9</ele>
        <time>2019-07-13T11:43:25Z</time>
      </trkpt>
      <trkpt lat="43.0968660" lon="-0.9124750">
        <ele>294.0</ele>
        <time>2019-07-13T11:43:32Z</time>
      </trkpt>
      <trkpt lat="43.0969610" lon="-0.9124840">
        <ele>294.2</ele>
        <time>2019-07-13T11:43:38Z</time>
      </trkpt>
      <trkpt lat="43.0970570" lon="-0.9124950">
        <ele>294.5</ele>
        <time>2019-07-13T11:43:45Z</time>
      </trkpt>
      <trkpt lat="43.0971550" lon="-0.9125190">
        <ele>295.1</ele>
        <time>2019-07-13T11:43:52Z</time>
      </trkpt>
      <trkpt lat="43.0972340" lon="-0.9125890">
        <ele>296.0</ele>
        <time>2019-07-13T11:43:59Z</time>
      </trkpt>
      <trkpt lat="43.0973140" lon="-0.9126670">
        <ele>297.1</ele>
        <time>2019-07-13T11:44:06Z</time>
      </trkpt>
      <trkpt lat="43.0973840" lon="-0.9127700">
        <ele>298.3</ele>
        <time>2019-07-13T11:44:14Z</time>
      </trkpt>
      <trkpt lat="43.0974520" lon="-0.9128570">
        <ele>299.2</ele>
        <time>2019-07-13T11:44:21Z</time>
      </trkpt>
      <trkpt lat="43.0975220" lon="-0.9129520">
        <ele>300.1</ele>
        <time>2019-07-13T11:44:28Z</time>
      </trkpt>
      <trkpt lat="43.0975840" lon="-0.9130580">
        <ele>300.9</ele>
        <time>2019-07-13T11:44:35Z</time>
      </trkpt>
      <trkpt lat="43.0976480" lon="-0.9131680">
        <ele>301.5</ele>
        <time>2019-07-13T11:44:42Z</time>
      </trkpt>
      <trkpt lat="43.0977040" lon="-0.9132930">
        <ele>302.1</ele>
        <time>2019-07-13T11:44:49Z</time>
      </trkpt>
      <trkpt lat="43.0977510" lon="-0.9134000">
        <ele>302.5</ele>
        <time>2019-07-13T11:44:55Z</time>
      </trkpt>
      <trkpt lat="43.0978040" lon="-0.9135130">
        <ele>303.2</ele>
        <time>2019-07-13T11:45:02Z</time>
      </trkpt>
      <trkpt lat="43.0978590" lon="-0.9136120">
        <ele>303.9</ele>
        <time>2019-07-13T11:45:08Z</time>
      </trkpt>
      <trkpt lat="43.0979400" lon="-0.9136920">
        <ele>304.7</ele>
        <time>2019-07-13T11:45:14Z</time>
      </trkpt>
      <trkpt lat="43.0980200" lon="-0.9137730">
        <ele>305.7</ele>
        <time>2019-07-13T11:45:21Z</time>
      </trkpt>
      <trkpt lat="43.0980960" lon="-0.9138770">
        <ele>306.4</ele>
        <time>2019-07-13T11:45:28Z</time>
      </trkpt>
      <trkpt lat="43.0981640" lon="-0.9139690">
        <ele>306.7</ele>
        <time>2019-07-13T11:45:34Z</time>
      </trkpt>
      <trkpt lat="43.0982300" lon="-0.9140640">
        <ele>307.0</ele>
        <time>2019-07-13T11:45:40Z</time>
      </trkpt>
      <trkpt lat="43.0982960" lon="-0.9141520">
        <ele>307.5</ele>
        <time>2019-07-13T11:45:46Z</time>
      </trkpt>
      <trkpt lat="43.0983580" lon="-0.9142500">
        <ele>307.9</ele>
        <time>2019-07-13T11:45:52Z</time>
      </trkpt>
      <trkpt lat="43.0984190" lon="-0.9143610">
        <ele>308.3</ele>
        <time>2019-07-13T11:45:59Z</time>
      </trkpt>
      <trkpt lat="43.0984950" lon="-0.9144580">
        <ele>308.8</ele>
        <time>2019-07-13T11:46:06Z</time>
      </trkpt>
      <trkpt lat="43.0985650" lon="-0.9145480">
        <ele>309.2</ele>
        <time>2019-07-13T11:46:12Z</time>
      </trkpt>
      <trkpt lat="43.0986330" lon="-0.9146410">
        <ele>309.5</ele>
        <time>2019-07-13T11:46:19Z</time>
      </trkpt>
      <trkpt lat="43.0987060" lon="-0.9147270">
        <ele>309.6</ele>
        <time>2019-07-13T11:46:25Z</time>
      </trkpt>
      <trkpt lat="43.0987870" lon="-0.9148110">
        <ele>309.6</ele>
        <time>2019-07-13T11:46:31Z</time>
      </trkpt>
      <trkpt lat="43.0988520" lon="-0.9149020">
        <ele>309.3</ele>
        <time>2019-07-13T11:46:35Z</time>
      </trkpt>
      <trkpt lat="43.0989090" lon="-0.9150070">
        <ele>308.8</ele>
        <time>2019-07-13T11:46:38Z</time>
      </trkpt>
      <trkpt lat="43.0989730" lon="-0.9151490">
        <ele>308.0</ele>
        <time>2019-07-13T11:46:42Z</time>
      </trkpt>
      <trkpt lat="43.0990150" lon="-0.9153130">
        <ele>307.1</ele>
        <time>2019-07-13T11:46:45Z</time>
      </trkpt>
      <trkpt lat="43.0990590" lon="-0.9154820">
        <ele>306.0</ele>
        <time>2019-07-13T11:46:48Z</time>
      </trkpt>
      <trkpt lat="43.0991270" lon="-0.9156430">
        <ele>304.9</ele>
        <time>2019-07-13T11:46:51Z</time>
      </trkpt>
      <trkpt lat="43.0991770" lon="-0.9157660">
        <ele>304.1</ele>
        <time>2019-07-13T11:46:53Z</time>
      </trkpt>
      <trkpt lat="43.0992530" lon="-0.9159000">
        <ele>303.1</ele>
        <time>2019-07-13T11:46:55Z</time>
      </trkpt>
      <trkpt lat="43.0993320" lon="-0.9160540">
        <ele>303.9</ele>
        <time>2019-07-13T11:46:57Z</time>
      </trkpt>
      <trkpt lat="43.0994000" lon="-0.9162130">
        <ele>305.6</ele>
        <time>2019-07-13T11:46:59Z</time>
      </trkpt>
      <trkpt lat="43.0994550" lon="-0.9163400">
        <ele>306.9</ele>
        <time>2019-07-13T11:47:01Z</time>
      </trkpt>
      <trkpt lat="43.0995020" lon="-0.9164630">
        <ele>308.1</ele>
        <time>2019-07-13T11:47:04Z</time>
      </trkpt>
      <trkpt lat="43.0995280" lon="-0.9165970">
        <ele>309.2</ele>
        <time>2019-07-13T11:47:10Z</time>
      </trkpt>
      <trkpt lat="43.0995500" lon="-0.9167270">
        <ele>310.0</ele>
        <time>2019-07-13T11:47:17Z</time>
      </trkpt>
      <trkpt lat="43.0995500" lon="-0.9168570">
        <ele>310.5</ele>
        <time>2019-07-13T11:47:24Z</time>
      </trkpt>
      <trkpt lat="43.0995430" lon="-0.9169870">
        <ele>310.9</ele>
        <time>2019-07-13T11:47:31Z</time>
      </trkpt>
      <trkpt lat="43.0995170" lon="-0.9171180">
        <ele>311.2</ele>
        <time>2019-07-13T11:47:37Z</time>
      </trkpt>
      <trkpt lat="43.0994850" lon="-0.9172360">
        <ele>311.5</ele>
        <time>2019-07-13T11:47:44Z</time>
      </trkpt>
      <trkpt lat="43.0994530" lon="-0.9173590">
        <ele>311.6</ele>
        <time>2019-07-13T11:47:51Z</time>
      </trkpt>
      <trkpt lat="43.0994210" lon="-0.9174890">
        <ele>311.8</ele>
        <time>2019-07-13T11:47:58Z</time>
      </trkpt>
      <trkpt lat="43.0993930" lon="-0.9176140">
        <ele>311.8</ele>
        <time>2019-07-13T11:48:04Z</time>
      </trkpt>
      <trkpt lat="43.0993990" lon="-0.9177450">
        <ele>311.9</ele>
        <time>2019-07-13T11:48:11Z</time>
      </trkpt>
      <trkpt lat="43.0993970" lon="-0.9178860">
        <ele>311.9</ele>
        <time>2019-07-13T11:48:18Z</time>
      </trkpt>
      <trkpt lat="43.0994220" lon="-0.9180200">
        <ele>312.2</ele>
        <time>2019-07-13T11:48:25Z</time>
      </trkpt>
      <trkpt lat="43.0994660" lon="-0.9181420">
        <ele>312.7</ele>
        <time>2019-07-13T11:48:31Z</time>
      </trkpt>
      <trkpt lat="43.0995170" lon="-0.9182550">
        <ele>313.2</ele>
        <time>2019-07-13T11:48:37Z</time>
      </trkpt>
      <trkpt lat="43.0995660" lon="-0.9183710">
        <ele>313.6</ele>
        <time>2019-07-13T11:48:43Z</time>
      </trkpt>
      <trkpt lat="43.0996210" lon="-0.9184790">
        <ele>314.0</ele>
        <time>2019-07-13T11:48:49Z</time>
      </trkpt>
      <trkpt lat="43.0996670" lon="-0.9185940">
        <ele>314.3</ele>
        <time>2019-07-13T11:48:55Z</time>
      </trkpt>
      <trkpt lat="43.0997030" lon="-0.9187120">
        <ele>314.8</ele>
        <time>2019-07-13T11:49:01Z</time>
      </trkpt>
      <trkpt lat="43.0997410" lon="-0.9188260">
        <ele>315.5</ele>
        <time>2019-07-13T11:49:07Z</time>
      </trkpt>
      <trkpt lat="43.0997930" lon="-0.9189310">
        <ele>316.1</ele>
        <time>2019-07-13T11:49:13Z</time>
      </trkpt>
      <trkpt lat="43.0998470" lon="-0.9190390">
        <ele>316.7</ele>
        <time>2019-07-13T11:49:20Z</time>
      </trkpt>
      <trkpt lat="43.0999090" lon="-0.9191450">
        <ele>317.2</ele>
        <time>2019-07-13T11:49:26Z</time>
      </trkpt>
      <trkpt lat="43.0999870" lon="-0.9192220">
        <ele>317.5</ele>
        <time>2019-07-13T11:49:31Z</time>
      </trkpt>
      <trkpt lat="43.1000570" lon="-0.9193190">
        <ele>317.7</ele>
        <time>2019-07-13T11:49:37Z</time>
      </trkpt>
      <trkpt lat="43.1001240" lon="-0.9194250">
        <ele>317.6</ele>
        <time>2019-07-13T11:49:43Z</time>
      </trkpt>
      <trkpt lat="43.1001780" lon="-0.9195370">
        <ele>317.6</ele>
        <time>2019-07-13T11:49:49Z</time>
      </trkpt>
      <trkpt lat="43.1002260" lon="-0.9196780">
        <ele>317.4</ele>
        <time>2019-07-13T11:49:54Z</time>
      </trkpt>
      <trkpt lat="43.1002860" lon="-0.9198140">
        <ele>317.2</ele>
        <time>2019-07-13T11:49:58Z</time>
      </trkpt>
      <trkpt lat="43.1003180" lon="-0.9199530">
        <ele>317.0</ele>
        <time>2019-07-13T11:50:01Z</time>
      </trkpt>
      <trkpt lat="43.1003500" lon="-0.9200800">
        <ele>316.9</ele>
        <time>2019-07-13T11:50:04Z</time>
      </trkpt>
      <trkpt lat="43.1003890" lon="-0.9202240">
        <ele>317.0</ele>
        <time>2019-07-13T11:50:08Z</time>
      </trkpt>
      <trkpt lat="43.1004150" lon="-0.9203550">
        <ele>317.2</ele>
        <time>2019-07-13T11:50:12Z</time>
      </trkpt>
      <trkpt lat="43.1004380" lon="-0.9204770">
        <ele>317.5</ele>
        <time>2019-07-13T11:50:16Z</time>
      </trkpt>
      <trkpt lat="43.1004500" lon="-0.9206260">
        <ele>318.4</ele>
        <time>2019-07-13T11:50:21Z</time>
      </trkpt>
      <trkpt lat="43.1004570" lon="-0.9207550">
        <ele>319.2</ele>
        <time>2019-07-13T11:50:26Z</time>
      </trkpt>
      <trkpt lat="43.1004820" lon="-0.9208820">
        <ele>320.3</ele>
        <time>2019-07-13T11:50:32Z</time>
      </trkpt>
      <trkpt lat="43.1005040" lon="-0.9210080">
        <ele>321.5</ele>
        <time>2019-07-13T11:50:39Z</time>
      </trkpt>
      <trkpt lat="43.1005330" lon="-0.9211430">
        <ele>322.9</ele>
        <time>2019-07-13T11:50:46Z</time>
      </trkpt>
      <trkpt lat="43.1005400" lon="-0.9212710">
        <ele>324.3</ele>
        <time>2019-07-13T11:50:52Z</time>
      </trkpt>
      <trkpt lat="43.1005720" lon="-0.9214020">
        <ele>325.7</ele>
        <time>2019-07-13T11:50:59Z</time>
      </trkpt>
      <trkpt lat="43.1006240" lon="-0.9215260">
        <ele>327.0</ele>
        <time>2019-07-13T11:51:06Z</time>
      </trkpt>
      <trkpt lat="43.1007030" lon="-0.9216050">
        <ele>328.1</ele>
        <time>2019-07-13T11:51:13Z</time>
      </trkpt>
      <trkpt lat="43.1008010" lon="-0.9216460">
        <ele>329.6</ele>
        <time>2019-07-13T11:51:19Z</time>
      </trkpt>
      <trkpt lat="43.1009020" lon="-0.9216520">
        <ele>330.9</ele>
        <time>2019-07-13T11:51:27Z</time>
      </trkpt>
      <trkpt lat="43.1010070" lon="-0.9216560">
        <ele>332.1</ele>
        <time>2019-07-13T11:51:34Z</time>
      </trkpt>
      <trkpt lat="43.1010980" lon="-0.9216500">
        <ele>333.2</ele>
        <time>2019-07-13T11:51:41Z</time>
      </trkpt>
      <trkpt lat="43.1011990" lon="-0.9216040">
        <ele>334.2</ele>
        <time>2019-07-13T11:51:48Z</time>
      </trkpt>
      <trkpt lat="43.1012970" lon="-0.9215810">
        <ele>335.2</ele>
        <time>2019-07-13T11:51:55Z</time>
      </trkpt>
      <trkpt lat="43.1013860" lon="-0.9215160">
        <ele>336.3</ele>
        <time>2019-07-13T11:52:02Z</time>
      </trkpt>
      <trkpt lat="43.1014800" lon="-0.9215320">
        <ele>337.4</ele>
        <time>2019-07-13T11:52:09Z</time>
      </trkpt>
      <trkpt lat="43.1015120" lon="-0.9216530">
        <ele>338.9</ele>
        <time>2019-07-13T11:52:18Z</time>
      </trkpt>
      <trkpt lat="43.1014290" lon="-0.9217440">
        <ele>340.5</ele>
        <time>2019-07-13T11:52:25Z</time>
      </trkpt>
      <trkpt lat="43.1013550" lon="-0.9218260">
        <ele>341.6</ele>
        <time>2019-07-13T11:52:32Z</time>
      </trkpt>
      <trkpt lat="43.1012780" lon="-0.9219120">
        <ele>342.6</ele>
        <time>2019-07-13T11:52:39Z</time>
      </trkpt>
      <trkpt lat="43.1011960" lon="-0.9219850">
        <ele>343.7</ele>
        <time>2019-07-13T11:52:48Z</time>
      </trkpt>
      <trkpt lat="43.1011210" lon="-0.9220700">
        <ele>344.7</ele>
        <time>2019-07-13T11:52:55Z</time>
      </trkpt>
      <trkpt lat="43.1010610" lon="-0.9221720">
        <ele>345.7</ele>
        <time>2019-07-13T11:53:02Z</time>
      </trkpt>
      <trkpt lat="43.1009970" lon="-0.9222810">
        <ele>346.8</ele>
        <time>2019-07-13T11:53:09Z</time>
      </trkpt>
      <trkpt lat="43.1009390" lon="-0.9223980">
        <ele>348.0</ele>
        <time>2019-07-13T11:53:17Z</time>
      </trkpt>
      <trkpt lat="43.1009010" lon="-0.9225150">
        <ele>349.3</ele>
        <time>2019-07-13T11:53:24Z</time>
      </trkpt>
      <trkpt lat="43.1008520" lon="-0.9226340">
        <ele>350.4</ele>
        <time>2019-07-13T11:53:32Z</time>
      </trkpt>
      <trkpt lat="43.1008070" lon="-0.9227460">
        <ele>351.5</ele>
        <time>2019-07-13T11:53:39Z</time>
      </trkpt>
      <trkpt lat="43.1007600" lon="-0.9228680">
        <ele>352.8</ele>
        <time>2019-07-13T11:53:46Z</time>
      </trkpt>
      <trkpt lat="43.1007050" lon="-0.9229730">
        <ele>353.9</ele>
        <time>2019-07-13T11:53:51Z</time>
      </trkpt>
      <trkpt lat="43.1006670" lon="-0.9230890">
        <ele>355.1</ele>
        <time>2019-07-13T11:53:57Z</time>
      </trkpt>
      <trkpt lat="43.1006460" lon="-0.9232250">
        <ele>356.4</ele>
        <time>2019-07-13T11:54:06Z</time>
      </trkpt>
      <trkpt lat="43.1006260" lon="-0.9233460">
        <ele>357.7</ele>
        <time>2019-07-13T11:54:13Z</time>
      </trkpt>
      <trkpt lat="43.1006010" lon="-0.9234660">
        <ele>359.0</ele>
        <time>2019-07-13T11:54:19Z</time>
      </trkpt>
      <trkpt lat="43.1005880" lon="-0.9235940">
        <ele>360.2</ele>
        <time>2019-07-13T11:54:26Z</time>
      </trkpt>
      <trkpt lat="43.1005760" lon="-0.9237170">
        <ele>361.5</ele>
        <time>2019-07-13T11:54:33Z</time>
      </trkpt>
      <trkpt lat="43.1005510" lon="-0.9238430">
        <ele>362.6</ele>
        <time>2019-07-13T11:54:40Z</time>
      </trkpt>
      <trkpt lat="43.1005340" lon="-0.9239720">
        <ele>363.8</ele>
        <time>2019-07-13T11:54:47Z</time>
      </trkpt>
      <trkpt lat="43.1005130" lon="-0.9240730">
        <ele>364.7</ele>
        <time>2019-07-13T11:54:56Z</time>
      </trkpt>
      <trkpt lat="43.1005180" lon="-0.9242820">
        <ele>366.6</ele>
        <time>2019-07-13T12:02:38Z</time>
      </trkpt>
      <trkpt lat="43.1005020" lon="-0.9243620">
        <ele>367.6</ele>
        <time>2019-07-13T12:02:49Z</time>
      </trkpt>
      <trkpt lat="43.1004850" lon="-0.9244430">
        <ele>368.4</ele>
        <time>2019-07-13T12:03:01Z</time>
      </trkpt>
      <trkpt lat="43.1004690" lon="-0.9245230">
        <ele>369.3</ele>
        <time>2019-07-13T12:03:10Z</time>
      </trkpt>
      <trkpt lat="43.1004520" lon="-0.9246040">
        <ele>370.3</ele>
        <time>2019-07-13T12:03:27Z</time>
      </trkpt>
      <trkpt lat="43.1004360" lon="-0.9246840">
        <ele>371.2</ele>
        <time>2019-07-13T12:03:43Z</time>
      </trkpt>
      <trkpt lat="43.1004190" lon="-0.9247650">
        <ele>372.0</ele>
        <time>2019-07-13T12:03:43Z</time>
      </trkpt>
      <trkpt lat="43.1004190" lon="-0.9247650">
        <ele>372.0</ele>
        <time>2019-07-13T12:03:43Z</time>
      </trkpt>
      <trkpt lat="43.1004070" lon="-0.9248230">
        <ele>372.6</ele>
        <time>2019-07-13T12:03:51Z</time>
      </trkpt>
      <trkpt lat="43.1003630" lon="-0.9249340">
        <ele>373.9</ele>
        <time>2019-07-13T12:04:14Z</time>
      </trkpt>
      <trkpt lat="43.1003150" lon="-0.9250430">
        <ele>375.1</ele>
        <time>2019-07-13T12:04:27Z</time>
      </trkpt>
      <trkpt lat="43.1003000" lon="-0.9250520">
        <ele>375.3</ele>
        <time>2019-07-13T12:04:29Z</time>
      </trkpt>
      <trkpt lat="43.1002170" lon="-0.9251280">
        <ele>376.6</ele>
        <time>2019-07-13T12:04:41Z</time>
      </trkpt>
      <trkpt lat="43.1001920" lon="-0.9251370">
        <ele>376.9</ele>
        <time>2019-07-13T12:04:46Z</time>
      </trkpt>
      <trkpt lat="43.1000890" lon="-0.9251400">
        <ele>377.8</ele>
        <time>2019-07-13T12:05:30Z</time>
      </trkpt>
      <trkpt lat="43.0999970" lon="-0.9251040">
        <ele>378.4</ele>
        <time>2019-07-13T12:05:36Z</time>
      </trkpt>
      <trkpt lat="43.0999150" lon="-0.9250360">
        <ele>379.0</ele>
        <time>2019-07-13T12:05:42Z</time>
      </trkpt>
      <trkpt lat="43.0998300" lon="-0.9249840">
        <ele>379.7</ele>
        <time>2019-07-13T12:05:48Z</time>
      </trkpt>
      <trkpt lat="43.0997380" lon="-0.9249580">
        <ele>380.4</ele>
        <time>2019-07-13T12:05:54Z</time>
      </trkpt>
      <trkpt lat="43.0996440" lon="-0.9249400">
        <ele>381.1</ele>
        <time>2019-07-13T12:06:00Z</time>
      </trkpt>
      <trkpt lat="43.0995530" lon="-0.9249180">
        <ele>381.9</ele>
        <time>2019-07-13T12:06:06Z</time>
      </trkpt>
      <trkpt lat="43.0994620" lon="-0.9249020">
        <ele>382.5</ele>
        <time>2019-07-13T12:06:12Z</time>
      </trkpt>
      <trkpt lat="43.0993670" lon="-0.9248750">
        <ele>383.2</ele>
        <time>2019-07-13T12:06:19Z</time>
      </trkpt>
      <trkpt lat="43.0992750" lon="-0.9248430">
        <ele>384.1</ele>
        <time>2019-07-13T12:06:27Z</time>
      </trkpt>
      <trkpt lat="43.0991830" lon="-0.9248170">
        <ele>385.9</ele>
        <time>2019-07-13T12:06:36Z</time>
      </trkpt>
      <trkpt lat="43.0990900" lon="-0.9248030">
        <ele>387.7</ele>
        <time>2019-07-13T12:06:45Z</time>
      </trkpt>
      <trkpt lat="43.0989950" lon="-0.9248120">
        <ele>389.6</ele>
        <time>2019-07-13T12:06:54Z</time>
      </trkpt>
      <trkpt lat="43.0988960" lon="-0.9248150">
        <ele>391.5</ele>
        <time>2019-07-13T12:07:03Z</time>
      </trkpt>
      <trkpt lat="43.0988080" lon="-0.9248440">
        <ele>393.1</ele>
        <time>2019-07-13T12:07:11Z</time>
      </trkpt>
      <trkpt lat="43.0987160" lon="-0.9248890">
        <ele>394.7</ele>
        <time>2019-07-13T12:07:18Z</time>
      </trkpt>
      <trkpt lat="43.0986290" lon="-0.9249590">
        <ele>396.2</ele>
        <time>2019-07-13T12:07:26Z</time>
      </trkpt>
      <trkpt lat="43.0985390" lon="-0.9250140">
        <ele>397.5</ele>
        <time>2019-07-13T12:07:34Z</time>
      </trkpt>
      <trkpt lat="43.0984580" lon="-0.9250870">
        <ele>398.5</ele>
        <time>2019-07-13T12:07:42Z</time>
      </trkpt>
      <trkpt lat="43.0983790" lon="-0.9251480">
        <ele>399.4</ele>
        <time>2019-07-13T12:07:49Z</time>
      </trkpt>
      <trkpt lat="43.0983010" lon="-0.9252130">
        <ele>400.2</ele>
        <time>2019-07-13T12:07:57Z</time>
      </trkpt>
      <trkpt lat="43.0982230" lon="-0.9252950">
        <ele>401.5</ele>
        <time>2019-07-13T12:08:05Z</time>
      </trkpt>
      <trkpt lat="43.0981360" lon="-0.9253610">
        <ele>402.7</ele>
        <time>2019-07-13T12:08:13Z</time>
      </trkpt>
      <trkpt lat="43.0980600" lon="-0.9254540">
        <ele>404.0</ele>
        <time>2019-07-13T12:08:21Z</time>
      </trkpt>
      <trkpt lat="43.0979960" lon="-0.9255650">
        <ele>405.2</ele>
        <time>2019-07-13T12:08:29Z</time>
      </trkpt>
      <trkpt lat="43.0979270" lon="-0.9256710">
        <ele>406.5</ele>
        <time>2019-07-13T12:08:36Z</time>
      </trkpt>
      <trkpt lat="43.0978750" lon="-0.9257910">
        <ele>407.7</ele>
        <time>2019-07-13T12:08:44Z</time>
      </trkpt>
      <trkpt lat="43.0978340" lon="-0.9259160">
        <ele>409.0</ele>
        <time>2019-07-13T12:08:52Z</time>
      </trkpt>
      <trkpt lat="43.0978090" lon="-0.9260440">
        <ele>410.3</ele>
        <time>2019-07-13T12:09:00Z</time>
      </trkpt>
      <trkpt lat="43.0978070" lon="-0.9261760">
        <ele>411.7</ele>
        <time>2019-07-13T12:09:08Z</time>
      </trkpt>
      <trkpt lat="43.0978140" lon="-0.9263060">
        <ele>413.1</ele>
        <time>2019-07-13T12:09:16Z</time>
      </trkpt>
      <trkpt lat="43.0978030" lon="-0.9264290">
        <ele>414.3</ele>
        <time>2019-07-13T12:09:23Z</time>
      </trkpt>
      <trkpt lat="43.0977960" lon="-0.9265640">
        <ele>415.7</ele>
        <time>2019-07-13T12:09:31Z</time>
      </trkpt>
      <trkpt lat="43.0978010" lon="-0.9266950">
        <ele>416.9</ele>
        <time>2019-07-13T12:09:39Z</time>
      </trkpt>
      <trkpt lat="43.0978010" lon="-0.9268190">
        <ele>418.1</ele>
        <time>2019-07-13T12:09:47Z</time>
      </trkpt>
      <trkpt lat="43.0978230" lon="-0.9269490">
        <ele>419.4</ele>
        <time>2019-07-13T12:09:55Z</time>
      </trkpt>
      <trkpt lat="43.0978300" lon="-0.9270870">
        <ele>420.8</ele>
        <time>2019-07-13T12:10:03Z</time>
      </trkpt>
      <trkpt lat="43.0978350" lon="-0.9272220">
        <ele>422.2</ele>
        <time>2019-07-13T12:10:11Z</time>
      </trkpt>
      <trkpt lat="43.0978320" lon="-0.9273620">
        <ele>423.7</ele>
        <time>2019-07-13T12:10:19Z</time>
      </trkpt>
      <trkpt lat="43.0978310" lon="-0.9274990">
        <ele>425.1</ele>
        <time>2019-07-13T12:10:27Z</time>
      </trkpt>
      <trkpt lat="43.0978410" lon="-0.9276240">
        <ele>426.4</ele>
        <time>2019-07-13T12:10:34Z</time>
      </trkpt>
      <trkpt lat="43.0978630" lon="-0.9277580">
        <ele>427.8</ele>
        <time>2019-07-13T12:10:42Z</time>
      </trkpt>
      <trkpt lat="43.0979050" lon="-0.9278830">
        <ele>429.1</ele>
        <time>2019-07-13T12:10:50Z</time>
      </trkpt>
      <trkpt lat="43.0979300" lon="-0.9280090">
        <ele>430.2</ele>
        <time>2019-07-13T12:10:57Z</time>
      </trkpt>
      <trkpt lat="43.0979580" lon="-0.9281410">
        <ele>431.4</ele>
        <time>2019-07-13T12:11:05Z</time>
      </trkpt>
      <trkpt lat="43.0979850" lon="-0.9282730">
        <ele>432.6</ele>
        <time>2019-07-13T12:11:13Z</time>
      </trkpt>
      <trkpt lat="43.0979950" lon="-0.9283980">
        <ele>433.8</ele>
        <time>2019-07-13T12:11:20Z</time>
      </trkpt>
      <trkpt lat="43.0980060" lon="-0.9285370">
        <ele>435.0</ele>
        <time>2019-07-13T12:11:28Z</time>
      </trkpt>
      <trkpt lat="43.0980170" lon="-0.9286700">
        <ele>436.3</ele>
        <time>2019-07-13T12:11:35Z</time>
      </trkpt>
      <trkpt lat="43.0980360" lon="-0.9287960">
        <ele>437.2</ele>
        <time>2019-07-13T12:11:42Z</time>
      </trkpt>
      <trkpt lat="43.0980560" lon="-0.9289370">
        <ele>438.1</ele>
        <time>2019-07-13T12:11:50Z</time>
      </trkpt>
      <trkpt lat="43.0980750" lon="-0.9290630">
        <ele>439.2</ele>
        <time>2019-07-13T12:11:58Z</time>
      </trkpt>
      <trkpt lat="43.0981180" lon="-0.9291750">
        <ele>440.3</ele>
        <time>2019-07-13T12:12:05Z</time>
      </trkpt>
      <trkpt lat="43.0981550" lon="-0.9293020">
        <ele>441.5</ele>
        <time>2019-07-13T12:12:13Z</time>
      </trkpt>
      <trkpt lat="43.0982100" lon="-0.9294140">
        <ele>442.7</ele>
        <time>2019-07-13T12:12:20Z</time>
      </trkpt>
      <trkpt lat="43.0982780" lon="-0.9295050">
        <ele>444.0</ele>
        <time>2019-07-13T12:12:27Z</time>
      </trkpt>
      <trkpt lat="43.0983520" lon="-0.9295830">
        <ele>445.4</ele>
        <time>2019-07-13T12:12:33Z</time>
      </trkpt>
      <trkpt lat="43.0984320" lon="-0.9296550">
        <ele>447.0</ele>
        <time>2019-07-13T12:12:40Z</time>
      </trkpt>
      <trkpt lat="43.0985130" lon="-0.9297370">
        <ele>448.6</ele>
        <time>2019-07-13T12:12:47Z</time>
      </trkpt>
      <trkpt lat="43.0985890" lon="-0.9298200">
        <ele>450.2</ele>
        <time>2019-07-13T12:12:53Z</time>
      </trkpt>
      <trkpt lat="43.0986700" lon="-0.9299050">
        <ele>451.8</ele>
        <time>2019-07-13T12:13:00Z</time>
      </trkpt>
      <trkpt lat="43.0987440" lon="-0.9299950">
        <ele>453.0</ele>
        <time>2019-07-13T12:13:07Z</time>
      </trkpt>
      <trkpt lat="43.0988080" lon="-0.9300850">
        <ele>453.9</ele>
        <time>2019-07-13T12:13:15Z</time>
      </trkpt>
      <trkpt lat="43.0988080" lon="-0.9300800">
        <ele>453.9</ele>
        <time>2019-07-13T12:13:17Z</time>
      </trkpt>
      <trkpt lat="43.0988380" lon="-0.9300700">
        <ele>454.2</ele>
        <time>2019-07-13T12:15:16Z</time>
      </trkpt>
      <trkpt lat="43.0988640" lon="-0.9301240">
        <ele>454.6</ele>
        <time>2019-07-13T12:15:48Z</time>
      </trkpt>
      <trkpt lat="43.0988940" lon="-0.9301510">
        <ele>455.1</ele>
        <time>2019-07-13T12:15:57Z</time>
      </trkpt>
      <trkpt lat="43.0989630" lon="-0.9302560">
        <ele>456.4</ele>
        <time>2019-07-13T12:16:15Z</time>
      </trkpt>
      <trkpt lat="43.0990300" lon="-0.9303490">
        <ele>457.6</ele>
        <time>2019-07-13T12:16:22Z</time>
      </trkpt>
      <trkpt lat="43.0991120" lon="-0.9304260">
        <ele>459.0</ele>
        <time>2019-07-13T12:16:31Z</time>
      </trkpt>
      <trkpt lat="43.0992010" lon="-0.9304840">
        <ele>460.4</ele>
        <time>2019-07-13T12:16:39Z</time>
      </trkpt>
      <trkpt lat="43.0992920" lon="-0.9305450">
        <ele>461.9</ele>
        <time>2019-07-13T12:16:46Z</time>
      </trkpt>
      <trkpt lat="43.0993780" lon="-0.9305980">
        <ele>463.2</ele>
        <time>2019-07-13T12:16:53Z</time>
      </trkpt>
      <trkpt lat="43.0994600" lon="-0.9306760">
        <ele>465.4</ele>
        <time>2019-07-13T12:17:00Z</time>
      </trkpt>
      <trkpt lat="43.0995270" lon="-0.9307640">
        <ele>466.8</ele>
        <time>2019-07-13T12:17:07Z</time>
      </trkpt>
      <trkpt lat="43.0996080" lon="-0.9308440">
        <ele>468.5</ele>
        <time>2019-07-13T12:17:15Z</time>
      </trkpt>
      <trkpt lat="43.0996720" lon="-0.9309430">
        <ele>469.7</ele>
        <time>2019-07-13T12:17:23Z</time>
      </trkpt>
      <trkpt lat="43.0997290" lon="-0.9310420">
        <ele>471.5</ele>
        <time>2019-07-13T12:17:29Z</time>
      </trkpt>
      <trkpt lat="43.0998140" lon="-0.9311130">
        <ele>473.1</ele>
        <time>2019-07-13T12:17:36Z</time>
      </trkpt>
      <trkpt lat="43.0998920" lon="-0.9311880">
        <ele>474.8</ele>
        <time>2019-07-13T12:17:44Z</time>
      </trkpt>
      <trkpt lat="43.0999640" lon="-0.9312720">
        <ele>476.7</ele>
        <time>2019-07-13T12:17:52Z</time>
      </trkpt>
      <trkpt lat="43.1000320" lon="-0.9313550">
        <ele>478.7</ele>
        <time>2019-07-13T12:18:00Z</time>
      </trkpt>
      <trkpt lat="43.1001200" lon="-0.9314240">
        <ele>480.7</ele>
        <time>2019-07-13T12:18:07Z</time>
      </trkpt>
      <trkpt lat="43.1002090" lon="-0.9314830">
        <ele>482.7</ele>
        <time>2019-07-13T12:18:15Z</time>
      </trkpt>
      <trkpt lat="43.1002920" lon="-0.9315130">
        <ele>484.3</ele>
        <time>2019-07-13T12:18:27Z</time>
      </trkpt>
      <trkpt lat="43.1003850" lon="-0.9315620">
        <ele>485.9</ele>
        <time>2019-07-13T12:23:00Z</time>
      </trkpt>
      <trkpt lat="43.1004810" lon="-0.9315830">
        <ele>487.7</ele>
        <time>2019-07-13T12:23:10Z</time>
      </trkpt>
      <trkpt lat="43.1005720" lon="-0.9316040">
        <ele>489.4</ele>
        <time>2019-07-13T12:23:20Z</time>
      </trkpt>
      <trkpt lat="43.1006600" lon="-0.9316420">
        <ele>491.0</ele>
        <time>2019-07-13T12:23:32Z</time>
      </trkpt>
      <trkpt lat="43.1007540" lon="-0.9316720">
        <ele>492.4</ele>
        <time>2019-07-13T12:23:43Z</time>
      </trkpt>
      <trkpt lat="43.1008430" lon="-0.9317170">
        <ele>494.4</ele>
        <time>2019-07-13T12:23:56Z</time>
      </trkpt>
      <trkpt lat="43.1008900" lon="-0.9317540">
        <ele>495.4</ele>
        <time>2019-07-13T12:24:08Z</time>
      </trkpt>
      <trkpt lat="43.1009630" lon="-0.9318260">
        <ele>497.2</ele>
        <time>2019-07-13T12:24:27Z</time>
      </trkpt>
      <trkpt lat="43.1010310" lon="-0.9319190">
        <ele>498.8</ele>
        <time>2019-07-13T12:24:40Z</time>
      </trkpt>
      <trkpt lat="43.1010740" lon="-0.9320290">
        <ele>500.7</ele>
        <time>2019-07-13T12:24:53Z</time>
      </trkpt>
      <trkpt lat="43.1010920" lon="-0.9320910">
        <ele>501.6</ele>
        <time>2019-07-13T12:25:01Z</time>
      </trkpt>
      <trkpt lat="43.1011180" lon="-0.9322130">
        <ele>503.3</ele>
        <time>2019-07-13T12:25:13Z</time>
      </trkpt>
      <trkpt lat="43.1011700" lon="-0.9323200">
        <ele>504.8</ele>
        <time>2019-07-13T12:25:26Z</time>
      </trkpt>
      <trkpt lat="43.1012390" lon="-0.9324060">
        <ele>506.4</ele>
        <time>2019-07-13T12:25:37Z</time>
      </trkpt>
      <trkpt lat="43.1013180" lon="-0.9324530">
        <ele>507.7</ele>
        <time>2019-07-13T12:25:50Z</time>
      </trkpt>
      <trkpt lat="43.1014130" lon="-0.9324590">
        <ele>509.3</ele>
        <time>2019-07-13T12:26:46Z</time>
      </trkpt>
      <trkpt lat="43.1015090" lon="-0.9324570">
        <ele>510.4</ele>
        <time>2019-07-13T12:26:51Z</time>
      </trkpt>
      <trkpt lat="43.1016090" lon="-0.9324640">
        <ele>511.2</ele>
        <time>2019-07-13T12:26:56Z</time>
      </trkpt>
      <trkpt lat="43.1017110" lon="-0.9324870">
        <ele>512.0</ele>
        <time>2019-07-13T12:27:01Z</time>
      </trkpt>
      <trkpt lat="43.1018150" lon="-0.9324810">
        <ele>512.6</ele>
        <time>2019-07-13T12:27:06Z</time>
      </trkpt>
      <trkpt lat="43.1019150" lon="-0.9325050">
        <ele>513.2</ele>
        <time>2019-07-13T12:27:10Z</time>
      </trkpt>
      <trkpt lat="43.1019990" lon="-0.9325600">
        <ele>513.8</ele>
        <time>2019-07-13T12:27:13Z</time>
      </trkpt>
      <trkpt lat="43.1020830" lon="-0.9326720">
        <ele>514.5</ele>
        <time>2019-07-13T12:27:17Z</time>
      </trkpt>
      <trkpt lat="43.1021180" lon="-0.9328220">
        <ele>514.5</ele>
        <time>2019-07-13T12:27:21Z</time>
      </trkpt>
      <trkpt lat="43.1021070" lon="-0.9329920">
        <ele>514.5</ele>
        <time>2019-07-13T12:27:24Z</time>
      </trkpt>
      <trkpt lat="43.1020920" lon="-0.9331260">
        <ele>514.5</ele>
        <time>2019-07-13T12:27:26Z</time>
      </trkpt>
      <trkpt lat="43.1020580" lon="-0.9332770">
        <ele>514.6</ele>
        <time>2019-07-13T12:27:28Z</time>
      </trkpt>
      <trkpt lat="43.1020100" lon="-0.9334180">
        <ele>514.8</ele>
        <time>2019-07-13T12:27:30Z</time>
      </trkpt>
      <trkpt lat="43.1019730" lon="-0.9335400">
        <ele>515.0</ele>
        <time>2019-07-13T12:27:32Z</time>
      </trkpt>
      <trkpt lat="43.1019290" lon="-0.9336830">
        <ele>515.3</ele>
        <time>2019-07-13T12:27:35Z</time>
      </trkpt>
      <trkpt lat="43.1018660" lon="-0.9338160">
        <ele>515.5</ele>
        <time>2019-07-13T12:27:39Z</time>
      </trkpt>
      <trkpt lat="43.1018050" lon="-0.9339240">
        <ele>515.6</ele>
        <time>2019-07-13T12:27:43Z</time>
      </trkpt>
      <trkpt lat="43.1017480" lon="-0.9340290">
        <ele>515.7</ele>
        <time>2019-07-13T12:27:47Z</time>
      </trkpt>
      <trkpt lat="43.1017010" lon="-0.9341360">
        <ele>515.7</ele>
        <time>2019-07-13T12:27:51Z</time>
      </trkpt>
      <trkpt lat="43.1016490" lon="-0.9342590">
        <ele>515.7</ele>
        <time>2019-07-13T12:27:56Z</time>
      </trkpt>
      <trkpt lat="43.1015870" lon="-0.9343850">
        <ele>515.7</ele>
        <time>2019-07-13T12:28:02Z</time>
      </trkpt>
      <trkpt lat="43.1015200" lon="-0.9344830">
        <ele>515.7</ele>
        <time>2019-07-13T12:28:07Z</time>
      </trkpt>
      <trkpt lat="43.1014480" lon="-0.9345710">
        <ele>515.8</ele>
        <time>2019-07-13T12:28:14Z</time>
      </trkpt>
      <trkpt lat="43.1013700" lon="-0.9346440">
        <ele>515.9</ele>
        <time>2019-07-13T12:28:21Z</time>
      </trkpt>
      <trkpt lat="43.1012810" lon="-0.9346670">
        <ele>516.0</ele>
        <time>2019-07-13T12:28:28Z</time>
      </trkpt>
      <trkpt lat="43.1011840" lon="-0.9346890">
        <ele>516.3</ele>
        <time>2019-07-13T12:28:35Z</time>
      </trkpt>
      <trkpt lat="43.1010830" lon="-0.9347110">
        <ele>516.5</ele>
        <time>2019-07-13T12:28:43Z</time>
      </trkpt>
      <trkpt lat="43.1009840" lon="-0.9347400">
        <ele>516.8</ele>
        <time>2019-07-13T12:28:51Z</time>
      </trkpt>
      <trkpt lat="43.1008910" lon="-0.9347970">
        <ele>517.0</ele>
        <time>2019-07-13T12:28:58Z</time>
      </trkpt>
      <trkpt lat="43.1008180" lon="-0.9348860">
        <ele>517.2</ele>
        <time>2019-07-13T12:29:05Z</time>
      </trkpt>
      <trkpt lat="43.1007640" lon="-0.9350000">
        <ele>517.4</ele>
        <time>2019-07-13T12:29:12Z</time>
      </trkpt>
      <trkpt lat="43.1007010" lon="-0.9351020">
        <ele>517.5</ele>
        <time>2019-07-13T12:29:19Z</time>
      </trkpt>
      <trkpt lat="43.1006550" lon="-0.9352120">
        <ele>517.7</ele>
        <time>2019-07-13T12:29:26Z</time>
      </trkpt>
      <trkpt lat="43.1006140" lon="-0.9353250">
        <ele>517.9</ele>
        <time>2019-07-13T12:29:33Z</time>
      </trkpt>
      <trkpt lat="43.1005610" lon="-0.9354430">
        <ele>518.1</ele>
        <time>2019-07-13T12:29:41Z</time>
      </trkpt>
      <trkpt lat="43.1005110" lon="-0.9355640">
        <ele>518.3</ele>
        <time>2019-07-13T12:29:50Z</time>
      </trkpt>
      <trkpt lat="43.1004540" lon="-0.9356740">
        <ele>521.1</ele>
        <time>2019-07-13T12:29:57Z</time>
      </trkpt>
      <trkpt lat="43.1004130" lon="-0.9357880">
        <ele>523.6</ele>
        <time>2019-07-13T12:30:04Z</time>
      </trkpt>
      <trkpt lat="43.1003750" lon="-0.9359150">
        <ele>525.6</ele>
        <time>2019-07-13T12:30:12Z</time>
      </trkpt>
      <trkpt lat="43.1003450" lon="-0.9360410">
        <ele>527.8</ele>
        <time>2019-07-13T12:30:19Z</time>
      </trkpt>
      <trkpt lat="43.1003140" lon="-0.9361620">
        <ele>529.2</ele>
        <time>2019-07-13T12:30:26Z</time>
      </trkpt>
      <trkpt lat="43.1002720" lon="-0.9362810">
        <ele>531.4</ele>
        <time>2019-07-13T12:30:34Z</time>
      </trkpt>
      <trkpt lat="43.1002180" lon="-0.9363920">
        <ele>533.2</ele>
        <time>2019-07-13T12:30:42Z</time>
      </trkpt>
      <trkpt lat="43.1001830" lon="-0.9365130">
        <ele>535.4</ele>
        <time>2019-07-13T12:30:49Z</time>
      </trkpt>
      <trkpt lat="43.1001370" lon="-0.9366210">
        <ele>537.1</ele>
        <time>2019-07-13T12:30:56Z</time>
      </trkpt>
      <trkpt lat="43.1000930" lon="-0.9367290">
        <ele>538.1</ele>
        <time>2019-07-13T12:31:03Z</time>
      </trkpt>
      <trkpt lat="43.1000450" lon="-0.9368510">
        <ele>538.3</ele>
        <time>2019-07-13T12:31:11Z</time>
      </trkpt>
      <trkpt lat="43.0999920" lon="-0.9369550">
        <ele>538.6</ele>
        <time>2019-07-13T12:31:18Z</time>
      </trkpt>
      <trkpt lat="43.0999110" lon="-0.9370340">
        <ele>538.8</ele>
        <time>2019-07-13T12:31:26Z</time>
      </trkpt>
      <trkpt lat="43.0998350" lon="-0.9371100">
        <ele>539.0</ele>
        <time>2019-07-13T12:31:34Z</time>
      </trkpt>
      <trkpt lat="43.0997630" lon="-0.9372000">
        <ele>539.2</ele>
        <time>2019-07-13T12:31:42Z</time>
      </trkpt>
      <trkpt lat="43.0996810" lon="-0.9372700">
        <ele>539.4</ele>
        <time>2019-07-13T12:31:50Z</time>
      </trkpt>
      <trkpt lat="43.0996230" lon="-0.9373690">
        <ele>539.6</ele>
        <time>2019-07-13T12:31:56Z</time>
      </trkpt>
      <trkpt lat="43.0995640" lon="-0.9374640">
        <ele>539.7</ele>
        <time>2019-07-13T12:32:02Z</time>
      </trkpt>
      <trkpt lat="43.0994980" lon="-0.9375670">
        <ele>540.0</ele>
        <time>2019-07-13T12:32:09Z</time>
      </trkpt>
      <trkpt lat="43.0994480" lon="-0.9376860">
        <ele>540.1</ele>
        <time>2019-07-13T12:32:16Z</time>
      </trkpt>
      <trkpt lat="43.0994100" lon="-0.9378050">
        <ele>540.3</ele>
        <time>2019-07-13T12:32:23Z</time>
      </trkpt>
      <trkpt lat="43.0993560" lon="-0.9379120">
        <ele>540.5</ele>
        <time>2019-07-13T12:32:30Z</time>
      </trkpt>
      <trkpt lat="43.0992980" lon="-0.9380140">
        <ele>540.8</ele>
        <time>2019-07-13T12:32:38Z</time>
      </trkpt>
      <trkpt lat="43.0992560" lon="-0.9381370">
        <ele>541.1</ele>
        <time>2019-07-13T12:32:45Z</time>
      </trkpt>
      <trkpt lat="43.0991920" lon="-0.9382460">
        <ele>541.4</ele>
        <time>2019-07-13T12:32:52Z</time>
      </trkpt>
      <trkpt lat="43.0991510" lon="-0.9383720">
        <ele>541.7</ele>
        <time>2019-07-13T12:32:58Z</time>
      </trkpt>
      <trkpt lat="43.0991120" lon="-0.9384950">
        <ele>542.2</ele>
        <time>2019-07-13T12:33:05Z</time>
      </trkpt>
      <trkpt lat="43.0990920" lon="-0.9386180">
        <ele>542.8</ele>
        <time>2019-07-13T12:33:12Z</time>
      </trkpt>
      <trkpt lat="43.0991010" lon="-0.9387540">
        <ele>543.5</ele>
        <time>2019-07-13T12:33:20Z</time>
      </trkpt>
      <trkpt lat="43.0990990" lon="-0.9388810">
        <ele>544.1</ele>
        <time>2019-07-13T12:33:27Z</time>
      </trkpt>
      <trkpt lat="43.0991040" lon="-0.9390140">
        <ele>545.0</ele>
        <time>2019-07-13T12:33:34Z</time>
      </trkpt>
      <trkpt lat="43.0991220" lon="-0.9391180">
        <ele>546.2</ele>
        <time>2019-07-13T12:33:43Z</time>
      </trkpt>
      <trkpt lat="43.0991560" lon="-0.9390760">
        <ele>547.0</ele>
        <time>2019-07-13T12:48:19Z</time>
      </trkpt>
      <trkpt lat="43.0991860" lon="-0.9392050">
        <ele>548.3</ele>
        <time>2019-07-13T12:48:50Z</time>
      </trkpt>
      <trkpt lat="43.0992280" lon="-0.9393250">
        <ele>549.7</ele>
        <time>2019-07-13T12:48:57Z</time>
      </trkpt>
      <trkpt lat="43.0992510" lon="-0.9394510">
        <ele>551.2</ele>
        <time>2019-07-13T12:49:04Z</time>
      </trkpt>
      <trkpt lat="43.0992970" lon="-0.9395610">
        <ele>552.6</ele>
        <time>2019-07-13T12:49:11Z</time>
      </trkpt>
      <trkpt lat="43.0993450" lon="-0.9396770">
        <ele>554.0</ele>
        <time>2019-07-13T12:49:19Z</time>
      </trkpt>
      <trkpt lat="43.0993980" lon="-0.9397890">
        <ele>555.4</ele>
        <time>2019-07-13T12:49:27Z</time>
      </trkpt>
      <trkpt lat="43.0994330" lon="-0.9399130">
        <ele>556.7</ele>
        <time>2019-07-13T12:49:35Z</time>
      </trkpt>
      <trkpt lat="43.0994680" lon="-0.9400320">
        <ele>557.9</ele>
        <time>2019-07-13T12:49:42Z</time>
      </trkpt>
      <trkpt lat="43.0994850" lon="-0.9401750">
        <ele>559.4</ele>
        <time>2019-07-13T12:49:49Z</time>
      </trkpt>
      <trkpt lat="43.0995020" lon="-0.9402980">
        <ele>560.7</ele>
        <time>2019-07-13T12:49:55Z</time>
      </trkpt>
      <trkpt lat="43.0995190" lon="-0.9404220">
        <ele>562.1</ele>
        <time>2019-07-13T12:50:03Z</time>
      </trkpt>
      <trkpt lat="43.0995310" lon="-0.9405580">
        <ele>563.5</ele>
        <time>2019-07-13T12:50:11Z</time>
      </trkpt>
      <trkpt lat="43.0995430" lon="-0.9406890">
        <ele>564.9</ele>
        <time>2019-07-13T12:50:20Z</time>
      </trkpt>
      <trkpt lat="43.0995390" lon="-0.9408240">
        <ele>566.2</ele>
        <time>2019-07-13T12:50:28Z</time>
      </trkpt>
      <trkpt lat="43.0995460" lon="-0.9409490">
        <ele>567.4</ele>
        <time>2019-07-13T12:50:35Z</time>
      </trkpt>
      <trkpt lat="43.0995360" lon="-0.9410760">
        <ele>568.6</ele>
        <time>2019-07-13T12:50:42Z</time>
      </trkpt>
      <trkpt lat="43.0995440" lon="-0.9412140">
        <ele>570.2</ele>
        <time>2019-07-13T12:50:50Z</time>
      </trkpt>
      <trkpt lat="43.0995430" lon="-0.9413500">
        <ele>571.7</ele>
        <time>2019-07-13T12:50:58Z</time>
      </trkpt>
      <trkpt lat="43.0995520" lon="-0.9414900">
        <ele>573.1</ele>
        <time>2019-07-13T12:51:06Z</time>
      </trkpt>
      <trkpt lat="43.0995660" lon="-0.9416190">
        <ele>574.3</ele>
        <time>2019-07-13T12:51:13Z</time>
      </trkpt>
      <trkpt lat="43.0995640" lon="-0.9417460">
        <ele>575.3</ele>
        <time>2019-07-13T12:51:20Z</time>
      </trkpt>
      <trkpt lat="43.0995650" lon="-0.9418820">
        <ele>576.7</ele>
        <time>2019-07-13T12:51:28Z</time>
      </trkpt>
      <trkpt lat="43.0995460" lon="-0.9420060">
        <ele>577.8</ele>
        <time>2019-07-13T12:51:35Z</time>
      </trkpt>
      <trkpt lat="43.0995240" lon="-0.9421340">
        <ele>578.9</ele>
        <time>2019-07-13T12:51:43Z</time>
      </trkpt>
      <trkpt lat="43.0994970" lon="-0.9422690">
        <ele>580.2</ele>
        <time>2019-07-13T12:51:50Z</time>
      </trkpt>
      <trkpt lat="43.0994820" lon="-0.9423950">
        <ele>581.3</ele>
        <time>2019-07-13T12:51:57Z</time>
      </trkpt>
      <trkpt lat="43.0994880" lon="-0.9425320">
        <ele>582.4</ele>
        <time>2019-07-13T12:52:04Z</time>
      </trkpt>
      <trkpt lat="43.0994650" lon="-0.9426800">
        <ele>583.8</ele>
        <time>2019-07-13T12:52:12Z</time>
      </trkpt>
      <trkpt lat="43.0994520" lon="-0.9428090">
        <ele>584.9</ele>
        <time>2019-07-13T12:52:18Z</time>
      </trkpt>
      <trkpt lat="43.0994230" lon="-0.9429460">
        <ele>585.9</ele>
        <time>2019-07-13T12:52:26Z</time>
      </trkpt>
      <trkpt lat="43.0993800" lon="-0.9430700">
        <ele>586.6</ele>
        <time>2019-07-13T12:52:34Z</time>
      </trkpt>
      <trkpt lat="43.0993640" lon="-0.9432080">
        <ele>587.4</ele>
        <time>2019-07-13T12:52:40Z</time>
      </trkpt>
      <trkpt lat="43.0993250" lon="-0.9433350">
        <ele>588.4</ele>
        <time>2019-07-13T12:52:48Z</time>
      </trkpt>
      <trkpt lat="43.0992900" lon="-0.9434540">
        <ele>589.4</ele>
        <time>2019-07-13T12:52:55Z</time>
      </trkpt>
      <trkpt lat="43.0992710" lon="-0.9435910">
        <ele>590.4</ele>
        <time>2019-07-13T12:53:03Z</time>
      </trkpt>
      <trkpt lat="43.0992350" lon="-0.9437240">
        <ele>591.0</ele>
        <time>2019-07-13T12:53:11Z</time>
      </trkpt>
      <trkpt lat="43.0992110" lon="-0.9438600">
        <ele>591.6</ele>
        <time>2019-07-13T12:53:19Z</time>
      </trkpt>
      <trkpt lat="43.0991840" lon="-0.9439830">
        <ele>592.2</ele>
        <time>2019-07-13T12:53:27Z</time>
      </trkpt>
      <trkpt lat="43.0991570" lon="-0.9441130">
        <ele>593.1</ele>
        <time>2019-07-13T12:53:35Z</time>
      </trkpt>
      <trkpt lat="43.0991090" lon="-0.9442270">
        <ele>593.9</ele>
        <time>2019-07-13T12:53:43Z</time>
      </trkpt>
      <trkpt lat="43.0990780" lon="-0.9443540">
        <ele>594.7</ele>
        <time>2019-07-13T12:53:50Z</time>
      </trkpt>
      <trkpt lat="43.0990360" lon="-0.9444660">
        <ele>595.3</ele>
        <time>2019-07-13T12:53:57Z</time>
      </trkpt>
      <trkpt lat="43.0989940" lon="-0.9445810">
        <ele>595.7</ele>
        <time>2019-07-13T12:54:04Z</time>
      </trkpt>
      <trkpt lat="43.0989630" lon="-0.9447090">
        <ele>596.1</ele>
        <time>2019-07-13T12:54:12Z</time>
      </trkpt>
      <trkpt lat="43.0989230" lon="-0.9448330">
        <ele>596.6</ele>
        <time>2019-07-13T12:54:20Z</time>
      </trkpt>
      <trkpt lat="43.0988930" lon="-0.9449670">
        <ele>597.3</ele>
        <time>2019-07-13T12:54:29Z</time>
      </trkpt>
      <trkpt lat="43.0988530" lon="-0.9450860">
        <ele>598.0</ele>
        <time>2019-07-13T12:54:37Z</time>
      </trkpt>
      <trkpt lat="43.0988030" lon="-0.9451940">
        <ele>598.8</ele>
        <time>2019-07-13T12:54:44Z</time>
      </trkpt>
      <trkpt lat="43.0987660" lon="-0.9453180">
        <ele>599.7</ele>
        <time>2019-07-13T12:54:51Z</time>
      </trkpt>
      <trkpt lat="43.0986980" lon="-0.9454240">
        <ele>600.7</ele>
        <time>2019-07-13T12:54:59Z</time>
      </trkpt>
      <trkpt lat="43.0986320" lon="-0.9455320">
        <ele>601.7</ele>
        <time>2019-07-13T12:55:06Z</time>
      </trkpt>
      <trkpt lat="43.0985740" lon="-0.9456350">
        <ele>602.4</ele>
        <time>2019-07-13T12:55:13Z</time>
      </trkpt>
      <trkpt lat="43.0985020" lon="-0.9457170">
        <ele>603.2</ele>
        <time>2019-07-13T12:55:20Z</time>
      </trkpt>
      <trkpt lat="43.0984270" lon="-0.9457920">
        <ele>604.1</ele>
        <time>2019-07-13T12:55:26Z</time>
      </trkpt>
      <trkpt lat="43.0983400" lon="-0.9458700">
        <ele>605.3</ele>
        <time>2019-07-13T12:55:33Z</time>
      </trkpt>
      <trkpt lat="43.0982500" lon="-0.9459340">
        <ele>606.5</ele>
        <time>2019-07-13T12:55:40Z</time>
      </trkpt>
      <trkpt lat="43.0981680" lon="-0.9459920">
        <ele>607.5</ele>
        <time>2019-07-13T12:55:46Z</time>
      </trkpt>
      <trkpt lat="43.0980910" lon="-0.9460660">
        <ele>608.3</ele>
        <time>2019-07-13T12:55:53Z</time>
      </trkpt>
      <trkpt lat="43.0980120" lon="-0.9461280">
        <ele>609.2</ele>
        <time>2019-07-13T12:56:00Z</time>
      </trkpt>
      <trkpt lat="43.0979350" lon="-0.9462190">
        <ele>610.3</ele>
        <time>2019-07-13T12:56:07Z</time>
      </trkpt>
      <trkpt lat="43.0978930" lon="-0.9462710">
        <ele>610.8</ele>
        <time>2019-07-13T12:56:14Z</time>
      </trkpt>
      <trkpt lat="43.0978620" lon="-0.9463150">
        <ele>611.2</ele>
        <time>2019-07-13T12:59:21Z</time>
      </trkpt>
      <trkpt lat="43.0978160" lon="-0.9464360">
        <ele>612.1</ele>
        <time>2019-07-13T13:00:37Z</time>
      </trkpt>
      <trkpt lat="43.0977640" lon="-0.9465570">
        <ele>613.0</ele>
        <time>2019-07-13T13:00:44Z</time>
      </trkpt>
      <trkpt lat="43.0977080" lon="-0.9466700">
        <ele>613.8</ele>
        <time>2019-07-13T13:00:51Z</time>
      </trkpt>
      <trkpt lat="43.0976520" lon="-0.9467880">
        <ele>615.3</ele>
        <time>2019-07-13T13:00:58Z</time>
      </trkpt>
      <trkpt lat="43.0976080" lon="-0.9469130">
        <ele>616.6</ele>
        <time>2019-07-13T13:01:06Z</time>
      </trkpt>
      <trkpt lat="43.0975550" lon="-0.9470260">
        <ele>617.7</ele>
        <time>2019-07-13T13:01:14Z</time>
      </trkpt>
      <trkpt lat="43.0975100" lon="-0.9471380">
        <ele>618.6</ele>
        <time>2019-07-13T13:01:22Z</time>
      </trkpt>
      <trkpt lat="43.0974620" lon="-0.9472430">
        <ele>619.7</ele>
        <time>2019-07-13T13:01:29Z</time>
      </trkpt>
      <trkpt lat="43.0974280" lon="-0.9473680">
        <ele>621.0</ele>
        <time>2019-07-13T13:01:37Z</time>
      </trkpt>
      <trkpt lat="43.0973750" lon="-0.9474770">
        <ele>622.1</ele>
        <time>2019-07-13T13:01:45Z</time>
      </trkpt>
      <trkpt lat="43.0973260" lon="-0.9475820">
        <ele>623.3</ele>
        <time>2019-07-13T13:01:52Z</time>
      </trkpt>
      <trkpt lat="43.0972850" lon="-0.9477000">
        <ele>624.2</ele>
        <time>2019-07-13T13:01:59Z</time>
      </trkpt>
      <trkpt lat="43.0972220" lon="-0.9478040">
        <ele>625.5</ele>
        <time>2019-07-13T13:02:07Z</time>
      </trkpt>
      <trkpt lat="43.0971820" lon="-0.9479230">
        <ele>626.9</ele>
        <time>2019-07-13T13:02:15Z</time>
      </trkpt>
      <trkpt lat="43.0971380" lon="-0.9480460">
        <ele>628.1</ele>
        <time>2019-07-13T13:02:23Z</time>
      </trkpt>
      <trkpt lat="43.0970770" lon="-0.9481360">
        <ele>629.1</ele>
        <time>2019-07-13T13:02:31Z</time>
      </trkpt>
      <trkpt lat="43.0970230" lon="-0.9482540">
        <ele>630.1</ele>
        <time>2019-07-13T13:02:39Z</time>
      </trkpt>
      <trkpt lat="43.0969750" lon="-0.9483720">
        <ele>631.4</ele>
        <time>2019-07-13T13:02:47Z</time>
      </trkpt>
      <trkpt lat="43.0969230" lon="-0.9484880">
        <ele>632.7</ele>
        <time>2019-07-13T13:02:55Z</time>
      </trkpt>
      <trkpt lat="43.0968920" lon="-0.9486110">
        <ele>633.7</ele>
        <time>2019-07-13T13:03:03Z</time>
      </trkpt>
      <trkpt lat="43.0968490" lon="-0.9487250">
        <ele>634.9</ele>
        <time>2019-07-13T13:03:10Z</time>
      </trkpt>
      <trkpt lat="43.0968170" lon="-0.9488420">
        <ele>636.0</ele>
        <time>2019-07-13T13:03:17Z</time>
      </trkpt>
      <trkpt lat="43.0967880" lon="-0.9489600">
        <ele>637.3</ele>
        <time>2019-07-13T13:03:24Z</time>
      </trkpt>
      <trkpt lat="43.0967430" lon="-0.9490720">
        <ele>638.4</ele>
        <time>2019-07-13T13:03:30Z</time>
      </trkpt>
      <trkpt lat="43.0967110" lon="-0.9491960">
        <ele>639.4</ele>
        <time>2019-07-13T13:03:37Z</time>
      </trkpt>
      <trkpt lat="43.0966790" lon="-0.9493230">
        <ele>640.5</ele>
        <time>2019-07-13T13:03:44Z</time>
      </trkpt>
      <trkpt lat="43.0966280" lon="-0.9494390">
        <ele>641.7</ele>
        <time>2019-07-13T13:03:51Z</time>
      </trkpt>
      <trkpt lat="43.0965710" lon="-0.9495390">
        <ele>642.6</ele>
        <time>2019-07-13T13:03:58Z</time>
      </trkpt>
      <trkpt lat="43.0965150" lon="-0.9496560">
        <ele>643.5</ele>
        <time>2019-07-13T13:04:06Z</time>
      </trkpt>
      <trkpt lat="43.0964750" lon="-0.9497810">
        <ele>644.2</ele>
        <time>2019-07-13T13:04:13Z</time>
      </trkpt>
      <trkpt lat="43.0965060" lon="-0.9499050">
        <ele>644.7</ele>
        <time>2019-07-13T13:04:20Z</time>
      </trkpt>
      <trkpt lat="43.0965940" lon="-0.9499330">
        <ele>645.1</ele>
        <time>2019-07-13T13:04:26Z</time>
      </trkpt>
      <trkpt lat="43.0966540" lon="-0.9498260">
        <ele>645.6</ele>
        <time>2019-07-13T13:04:33Z</time>
      </trkpt>
      <trkpt lat="43.0966990" lon="-0.9497170">
        <ele>646.2</ele>
        <time>2019-07-13T13:04:40Z</time>
      </trkpt>
      <trkpt lat="43.0967580" lon="-0.9496090">
        <ele>646.8</ele>
        <time>2019-07-13T13:04:47Z</time>
      </trkpt>
      <trkpt lat="43.0968290" lon="-0.9495130">
        <ele>647.6</ele>
        <time>2019-07-13T13:04:54Z</time>
      </trkpt>
      <trkpt lat="43.0968940" lon="-0.9494230">
        <ele>648.3</ele>
        <time>2019-07-13T13:05:01Z</time>
      </trkpt>
      <trkpt lat="43.0969660" lon="-0.9493270">
        <ele>649.1</ele>
        <time>2019-07-13T13:05:08Z</time>
      </trkpt>
      <trkpt lat="43.0970440" lon="-0.9492430">
        <ele>650.1</ele>
        <time>2019-07-13T13:05:15Z</time>
      </trkpt>
      <trkpt lat="43.0971310" lon="-0.9491680">
        <ele>650.8</ele>
        <time>2019-07-13T13:05:22Z</time>
      </trkpt>
      <trkpt lat="43.0972240" lon="-0.9491040">
        <ele>651.9</ele>
        <time>2019-07-13T13:05:30Z</time>
      </trkpt>
      <trkpt lat="43.0973040" lon="-0.9490360">
        <ele>652.6</ele>
        <time>2019-07-13T13:05:37Z</time>
      </trkpt>
      <trkpt lat="43.0973720" lon="-0.9489400">
        <ele>653.2</ele>
        <time>2019-07-13T13:05:43Z</time>
      </trkpt>
      <trkpt lat="43.0974260" lon="-0.9488290">
        <ele>654.2</ele>
        <time>2019-07-13T13:05:50Z</time>
      </trkpt>
      <trkpt lat="43.0974870" lon="-0.9487320">
        <ele>655.0</ele>
        <time>2019-07-13T13:05:57Z</time>
      </trkpt>
      <trkpt lat="43.0975470" lon="-0.9487200">
        <ele>655.5</ele>
        <time>2019-07-13T13:06:06Z</time>
      </trkpt>
      <trkpt lat="43.0975990" lon="-0.9488320">
        <ele>656.6</ele>
        <time>2019-07-13T13:06:58Z</time>
      </trkpt>
      <trkpt lat="43.0975450" lon="-0.9489400">
        <ele>657.6</ele>
        <time>2019-07-13T13:07:06Z</time>
      </trkpt>
      <trkpt lat="43.0974920" lon="-0.9490590">
        <ele>658.4</ele>
        <time>2019-07-13T13:07:14Z</time>
      </trkpt>
      <trkpt lat="43.0974690" lon="-0.9491840">
        <ele>659.4</ele>
        <time>2019-07-13T13:07:21Z</time>
      </trkpt>
      <trkpt lat="43.0974450" lon="-0.9493130">
        <ele>660.2</ele>
        <time>2019-07-13T13:07:29Z</time>
      </trkpt>
      <trkpt lat="43.0974520" lon="-0.9494460">
        <ele>661.0</ele>
        <time>2019-07-13T13:07:38Z</time>
      </trkpt>
      <trkpt lat="43.0974420" lon="-0.9495740">
        <ele>662.0</ele>
        <time>2019-07-13T13:07:46Z</time>
      </trkpt>
      <trkpt lat="43.0974390" lon="-0.9497090">
        <ele>663.3</ele>
        <time>2019-07-13T13:07:54Z</time>
      </trkpt>
      <trkpt lat="43.0974180" lon="-0.9498430">
        <ele>664.4</ele>
        <time>2019-07-13T13:08:02Z</time>
      </trkpt>
      <trkpt lat="43.0974160" lon="-0.9499730">
        <ele>665.3</ele>
        <time>2019-07-13T13:08:09Z</time>
      </trkpt>
      <trkpt lat="43.0974410" lon="-0.9501070">
        <ele>666.4</ele>
        <time>2019-07-13T13:08:16Z</time>
      </trkpt>
      <trkpt lat="43.0974760" lon="-0.9502330">
        <ele>667.2</ele>
        <time>2019-07-13T13:08:23Z</time>
      </trkpt>
      <trkpt lat="43.0975210" lon="-0.9503580">
        <ele>668.5</ele>
        <time>2019-07-13T13:08:30Z</time>
      </trkpt>
      <trkpt lat="43.0975360" lon="-0.9504900">
        <ele>669.4</ele>
        <time>2019-07-13T13:08:37Z</time>
      </trkpt>
      <trkpt lat="43.0975420" lon="-0.9506240">
        <ele>670.1</ele>
        <time>2019-07-13T13:08:45Z</time>
      </trkpt>
      <trkpt lat="43.0975370" lon="-0.9507590">
        <ele>671.1</ele>
        <time>2019-07-13T13:08:53Z</time>
      </trkpt>
      <trkpt lat="43.0975260" lon="-0.9508820">
        <ele>671.8</ele>
        <time>2019-07-13T13:09:00Z</time>
      </trkpt>
      <trkpt lat="43.0974950" lon="-0.9510080">
        <ele>672.6</ele>
        <time>2019-07-13T13:09:07Z</time>
      </trkpt>
      <trkpt lat="43.0974620" lon="-0.9511230">
        <ele>673.3</ele>
        <time>2019-07-13T13:09:15Z</time>
      </trkpt>
      <trkpt lat="43.0974030" lon="-0.9512410">
        <ele>674.1</ele>
        <time>2019-07-13T13:09:22Z</time>
      </trkpt>
      <trkpt lat="43.0973540" lon="-0.9513570">
        <ele>675.0</ele>
        <time>2019-07-13T13:09:29Z</time>
      </trkpt>
      <trkpt lat="43.0973220" lon="-0.9514870">
        <ele>675.9</ele>
        <time>2019-07-13T13:09:37Z</time>
      </trkpt>
      <trkpt lat="43.0973000" lon="-0.9516140">
        <ele>676.8</ele>
        <time>2019-07-13T13:09:44Z</time>
      </trkpt>
      <trkpt lat="43.0972860" lon="-0.9517450">
        <ele>677.8</ele>
        <time>2019-07-13T13:09:51Z</time>
      </trkpt>
      <trkpt lat="43.0972810" lon="-0.9518700">
        <ele>678.8</ele>
        <time>2019-07-13T13:09:58Z</time>
      </trkpt>
      <trkpt lat="43.0972570" lon="-0.9520030">
        <ele>679.8</ele>
        <time>2019-07-13T13:10:06Z</time>
      </trkpt>
      <trkpt lat="43.0972120" lon="-0.9521220">
        <ele>680.9</ele>
        <time>2019-07-13T13:10:14Z</time>
      </trkpt>
      <trkpt lat="43.0971640" lon="-0.9522310">
        <ele>681.8</ele>
        <time>2019-07-13T13:10:20Z</time>
      </trkpt>
      <trkpt lat="43.0971320" lon="-0.9523580">
        <ele>682.7</ele>
        <time>2019-07-13T13:10:26Z</time>
      </trkpt>
      <trkpt lat="43.0970960" lon="-0.9524760">
        <ele>683.5</ele>
        <time>2019-07-13T13:10:32Z</time>
      </trkpt>
      <trkpt lat="43.0970540" lon="-0.9525900">
        <ele>684.1</ele>
        <time>2019-07-13T13:10:39Z</time>
      </trkpt>
      <trkpt lat="43.0970440" lon="-0.9526110">
        <ele>684.2</ele>
        <time>2019-07-13T13:10:44Z</time>
      </trkpt>
      <trkpt lat="43.0969980" lon="-0.9527200">
        <ele>684.9</ele>
        <time>2019-07-13T13:13:17Z</time>
      </trkpt>
      <trkpt lat="43.0969520" lon="-0.9528500">
        <ele>685.5</ele>
        <time>2019-07-13T13:13:24Z</time>
      </trkpt>
      <trkpt lat="43.0969160" lon="-0.9529840">
        <ele>686.0</ele>
        <time>2019-07-13T13:13:30Z</time>
      </trkpt>
      <trkpt lat="43.0968660" lon="-0.9530900">
        <ele>686.4</ele>
        <time>2019-07-13T13:13:35Z</time>
      </trkpt>
      <trkpt lat="43.0968080" lon="-0.9532150">
        <ele>686.7</ele>
        <time>2019-07-13T13:13:41Z</time>
      </trkpt>
      <trkpt lat="43.0967470" lon="-0.9533180">
        <ele>686.9</ele>
        <time>2019-07-13T13:13:46Z</time>
      </trkpt>
      <trkpt lat="43.0966600" lon="-0.9534060">
        <ele>687.1</ele>
        <time>2019-07-13T13:13:52Z</time>
      </trkpt>
      <trkpt lat="43.0965820" lon="-0.9534960">
        <ele>687.2</ele>
        <time>2019-07-13T13:13:57Z</time>
      </trkpt>
      <trkpt lat="43.0965080" lon="-0.9535950">
        <ele>687.4</ele>
        <time>2019-07-13T13:14:02Z</time>
      </trkpt>
      <trkpt lat="43.0964430" lon="-0.9536960">
        <ele>687.7</ele>
        <time>2019-07-13T13:14:07Z</time>
      </trkpt>
      <trkpt lat="43.0964030" lon="-0.9538160">
        <ele>688.1</ele>
        <time>2019-07-13T13:14:12Z</time>
      </trkpt>
      <trkpt lat="43.0963640" lon="-0.9539270">
        <ele>688.6</ele>
        <time>2019-07-13T13:14:17Z</time>
      </trkpt>
      <trkpt lat="43.0963320" lon="-0.9540640">
        <ele>689.1</ele>
        <time>2019-07-13T13:14:23Z</time>
      </trkpt>
      <trkpt lat="43.0963080" lon="-0.9542040">
        <ele>689.8</ele>
        <time>2019-07-13T13:14:29Z</time>
      </trkpt>
      <trkpt lat="43.0962630" lon="-0.9543250">
        <ele>690.3</ele>
        <time>2019-07-13T13:14:35Z</time>
      </trkpt>
      <trkpt lat="43.0962060" lon="-0.9544250">
        <ele>690.8</ele>
        <time>2019-07-13T13:14:40Z</time>
      </trkpt>
      <trkpt lat="43.0961400" lon="-0.9545140">
        <ele>691.2</ele>
        <time>2019-07-13T13:14:45Z</time>
      </trkpt>
      <trkpt lat="43.0960620" lon="-0.9546030">
        <ele>691.7</ele>
        <time>2019-07-13T13:14:50Z</time>
      </trkpt>
      <trkpt lat="43.0959810" lon="-0.9546780">
        <ele>692.2</ele>
        <time>2019-07-13T13:14:57Z</time>
      </trkpt>
      <trkpt lat="43.0958950" lon="-0.9547520">
        <ele>692.8</ele>
        <time>2019-07-13T13:15:04Z</time>
      </trkpt>
      <trkpt lat="43.0958170" lon="-0.9548340">
        <ele>693.5</ele>
        <time>2019-07-13T13:15:10Z</time>
      </trkpt>
      <trkpt lat="43.0957330" lon="-0.9549200">
        <ele>694.4</ele>
        <time>2019-07-13T13:15:17Z</time>
      </trkpt>
      <trkpt lat="43.0956500" lon="-0.9549710">
        <ele>695.2</ele>
        <time>2019-07-13T13:15:23Z</time>
      </trkpt>
      <trkpt lat="43.0955520" lon="-0.9550040">
        <ele>696.3</ele>
        <time>2019-07-13T13:15:30Z</time>
      </trkpt>
      <trkpt lat="43.0954580" lon="-0.9550400">
        <ele>697.4</ele>
        <time>2019-07-13T13:15:37Z</time>
      </trkpt>
      <trkpt lat="43.0953630" lon="-0.9550590">
        <ele>698.4</ele>
        <time>2019-07-13T13:15:44Z</time>
      </trkpt>
      <trkpt lat="43.0952740" lon="-0.9551080">
        <ele>699.3</ele>
        <time>2019-07-13T13:15:52Z</time>
      </trkpt>
      <trkpt lat="43.0951820" lon="-0.9551230">
        <ele>700.1</ele>
        <time>2019-07-13T13:16:00Z</time>
      </trkpt>
      <trkpt lat="43.0950840" lon="-0.9551460">
        <ele>701.0</ele>
        <time>2019-07-13T13:16:08Z</time>
      </trkpt>
      <trkpt lat="43.0950010" lon="-0.9551960">
        <ele>701.7</ele>
        <time>2019-07-13T13:16:15Z</time>
      </trkpt>
      <trkpt lat="43.0949180" lon="-0.9552590">
        <ele>702.6</ele>
        <time>2019-07-13T13:16:22Z</time>
      </trkpt>
      <trkpt lat="43.0948420" lon="-0.9553370">
        <ele>703.4</ele>
        <time>2019-07-13T13:16:29Z</time>
      </trkpt>
      <trkpt lat="43.0947660" lon="-0.9554070">
        <ele>704.3</ele>
        <time>2019-07-13T13:16:36Z</time>
      </trkpt>
      <trkpt lat="43.0947110" lon="-0.9555210">
        <ele>705.3</ele>
        <time>2019-07-13T13:16:43Z</time>
      </trkpt>
      <trkpt lat="43.0946600" lon="-0.9556270">
        <ele>706.3</ele>
        <time>2019-07-13T13:16:50Z</time>
      </trkpt>
      <trkpt lat="43.0946270" lon="-0.9557440">
        <ele>707.3</ele>
        <time>2019-07-13T13:16:58Z</time>
      </trkpt>
      <trkpt lat="43.0945910" lon="-0.9558720">
        <ele>708.5</ele>
        <time>2019-07-13T13:17:07Z</time>
      </trkpt>
      <trkpt lat="43.0945400" lon="-0.9559770">
        <ele>709.5</ele>
        <time>2019-07-13T13:17:12Z</time>
      </trkpt>
      <trkpt lat="43.0944840" lon="-0.9561020">
        <ele>710.7</ele>
        <time>2019-07-13T13:17:21Z</time>
      </trkpt>
      <trkpt lat="43.0944200" lon="-0.9561920">
        <ele>711.7</ele>
        <time>2019-07-13T13:17:28Z</time>
      </trkpt>
      <trkpt lat="43.0943600" lon="-0.9563000">
        <ele>712.8</ele>
        <time>2019-07-13T13:17:36Z</time>
      </trkpt>
      <trkpt lat="43.0942980" lon="-0.9563910">
        <ele>713.9</ele>
        <time>2019-07-13T13:17:42Z</time>
      </trkpt>
      <trkpt lat="43.0942310" lon="-0.9564980">
        <ele>715.1</ele>
        <time>2019-07-13T13:17:50Z</time>
      </trkpt>
      <trkpt lat="43.0941730" lon="-0.9566120">
        <ele>716.4</ele>
        <time>2019-07-13T13:17:58Z</time>
      </trkpt>
      <trkpt lat="43.0941090" lon="-0.9567150">
        <ele>717.6</ele>
        <time>2019-07-13T13:18:05Z</time>
      </trkpt>
      <trkpt lat="43.0940300" lon="-0.9567960">
        <ele>718.8</ele>
        <time>2019-07-13T13:18:12Z</time>
      </trkpt>
      <trkpt lat="43.0939520" lon="-0.9568740">
        <ele>719.9</ele>
        <time>2019-07-13T13:18:19Z</time>
      </trkpt>
      <trkpt lat="43.0938690" lon="-0.9569410">
        <ele>721.0</ele>
        <time>2019-07-13T13:18:26Z</time>
      </trkpt>
      <trkpt lat="43.0937860" lon="-0.9570110">
        <ele>722.1</ele>
        <time>2019-07-13T13:18:33Z</time>
      </trkpt>
      <trkpt lat="43.0937080" lon="-0.9570970">
        <ele>723.3</ele>
        <time>2019-07-13T13:18:40Z</time>
      </trkpt>
      <trkpt lat="43.0936430" lon="-0.9572070">
        <ele>724.5</ele>
        <time>2019-07-13T13:18:47Z</time>
      </trkpt>
      <trkpt lat="43.0935870" lon="-0.9573060">
        <ele>725.5</ele>
        <time>2019-07-13T13:18:54Z</time>
      </trkpt>
      <trkpt lat="43.0935350" lon="-0.9574110">
        <ele>726.5</ele>
        <time>2019-07-13T13:19:01Z</time>
      </trkpt>
      <trkpt lat="43.0934880" lon="-0.9575260">
        <ele>727.4</ele>
        <time>2019-07-13T13:19:08Z</time>
      </trkpt>
      <trkpt lat="43.0934500" lon="-0.9576430">
        <ele>728.4</ele>
        <time>2019-07-13T13:19:14Z</time>
      </trkpt>
      <trkpt lat="43.0934170" lon="-0.9577640">
        <ele>729.4</ele>
        <time>2019-07-13T13:19:20Z</time>
      </trkpt>
      <trkpt lat="43.0933670" lon="-0.9578850">
        <ele>730.5</ele>
        <time>2019-07-13T13:19:27Z</time>
      </trkpt>
      <trkpt lat="43.0932990" lon="-0.9579860">
        <ele>731.7</ele>
        <time>2019-07-13T13:19:34Z</time>
      </trkpt>
      <trkpt lat="43.0932400" lon="-0.9580880">
        <ele>732.8</ele>
        <time>2019-07-13T13:19:41Z</time>
      </trkpt>
      <trkpt lat="43.0931790" lon="-0.9581860">
        <ele>734.0</ele>
        <time>2019-07-13T13:19:48Z</time>
      </trkpt>
      <trkpt lat="43.0931160" lon="-0.9582800">
        <ele>735.1</ele>
        <time>2019-07-13T13:19:55Z</time>
      </trkpt>
      <trkpt lat="43.0930590" lon="-0.9583870">
        <ele>736.2</ele>
        <time>2019-07-13T13:20:02Z</time>
      </trkpt>
      <trkpt lat="43.0930120" lon="-0.9584990">
        <ele>737.3</ele>
        <time>2019-07-13T13:20:09Z</time>
      </trkpt>
      <trkpt lat="43.0929450" lon="-0.9585870">
        <ele>738.2</ele>
        <time>2019-07-13T13:20:16Z</time>
      </trkpt>
      <trkpt lat="43.0928670" lon="-0.9586720">
        <ele>739.3</ele>
        <time>2019-07-13T13:20:23Z</time>
      </trkpt>
      <trkpt lat="43.0928090" lon="-0.9587730">
        <ele>740.3</ele>
        <time>2019-07-13T13:20:30Z</time>
      </trkpt>
      <trkpt lat="43.0927540" lon="-0.9588910">
        <ele>741.3</ele>
        <time>2019-07-13T13:20:37Z</time>
      </trkpt>
      <trkpt lat="43.0926990" lon="-0.9589950">
        <ele>742.4</ele>
        <time>2019-07-13T13:20:44Z</time>
      </trkpt>
      <trkpt lat="43.0926600" lon="-0.9591220">
        <ele>743.5</ele>
        <time>2019-07-13T13:20:51Z</time>
      </trkpt>
      <trkpt lat="43.0926150" lon="-0.9592410">
        <ele>744.6</ele>
        <time>2019-07-13T13:20:58Z</time>
      </trkpt>
      <trkpt lat="43.0925860" lon="-0.9593740">
        <ele>745.6</ele>
        <time>2019-07-13T13:21:05Z</time>
      </trkpt>
      <trkpt lat="43.0925350" lon="-0.9594840">
        <ele>746.5</ele>
        <time>2019-07-13T13:21:12Z</time>
      </trkpt>
      <trkpt lat="43.0925300" lon="-0.9594920">
        <ele>746.6</ele>
        <time>2019-07-13T13:21:16Z</time>
      </trkpt>
      <trkpt lat="43.0924940" lon="-0.9596180">
        <ele>747.6</ele>
        <time>2019-07-13T13:29:03Z</time>
      </trkpt>
      <trkpt lat="43.0924510" lon="-0.9597460">
        <ele>748.6</ele>
        <time>2019-07-13T13:29:11Z</time>
      </trkpt>
      <trkpt lat="43.0924170" lon="-0.9598630">
        <ele>749.5</ele>
        <time>2019-07-13T13:29:18Z</time>
      </trkpt>
      <trkpt lat="43.0923930" lon="-0.9599840">
        <ele>750.4</ele>
        <time>2019-07-13T13:29:26Z</time>
      </trkpt>
      <trkpt lat="43.0923850" lon="-0.9601140">
        <ele>751.4</ele>
        <time>2019-07-13T13:29:34Z</time>
      </trkpt>
      <trkpt lat="43.0923550" lon="-0.9602370">
        <ele>752.4</ele>
        <time>2019-07-13T13:29:41Z</time>
      </trkpt>
      <trkpt lat="43.0923220" lon="-0.9603590">
        <ele>753.4</ele>
        <time>2019-07-13T13:29:48Z</time>
      </trkpt>
      <trkpt lat="43.0923010" lon="-0.9604790">
        <ele>754.4</ele>
        <time>2019-07-13T13:29:56Z</time>
      </trkpt>
      <trkpt lat="43.0922900" lon="-0.9606130">
        <ele>755.5</ele>
        <time>2019-07-13T13:30:04Z</time>
      </trkpt>
      <trkpt lat="43.0922800" lon="-0.9607450">
        <ele>756.7</ele>
        <time>2019-07-13T13:30:12Z</time>
      </trkpt>
      <trkpt lat="43.0922700" lon="-0.9608790">
        <ele>757.8</ele>
        <time>2019-07-13T13:30:19Z</time>
      </trkpt>
      <trkpt lat="43.0922620" lon="-0.9610150">
        <ele>758.9</ele>
        <time>2019-07-13T13:30:27Z</time>
      </trkpt>
      <trkpt lat="43.0922310" lon="-0.9611450">
        <ele>760.0</ele>
        <time>2019-07-13T13:30:35Z</time>
      </trkpt>
      <trkpt lat="43.0921710" lon="-0.9612590">
        <ele>761.1</ele>
        <time>2019-07-13T13:30:43Z</time>
      </trkpt>
      <trkpt lat="43.0921150" lon="-0.9613750">
        <ele>762.2</ele>
        <time>2019-07-13T13:30:52Z</time>
      </trkpt>
      <trkpt lat="43.0920520" lon="-0.9614810">
        <ele>763.3</ele>
        <time>2019-07-13T13:31:00Z</time>
      </trkpt>
      <trkpt lat="43.0919740" lon="-0.9615580">
        <ele>764.3</ele>
        <time>2019-07-13T13:31:08Z</time>
      </trkpt>
      <trkpt lat="43.0918780" lon="-0.9616190">
        <ele>765.5</ele>
        <time>2019-07-13T13:31:15Z</time>
      </trkpt>
      <trkpt lat="43.0917930" lon="-0.9616840">
        <ele>766.5</ele>
        <time>2019-07-13T13:31:24Z</time>
      </trkpt>
      <trkpt lat="43.0917090" lon="-0.9617410">
        <ele>767.6</ele>
        <time>2019-07-13T13:31:31Z</time>
      </trkpt>
      <trkpt lat="43.0916270" lon="-0.9618140">
        <ele>768.6</ele>
        <time>2019-07-13T13:31:38Z</time>
      </trkpt>
      <trkpt lat="43.0915760" lon="-0.9619240">
        <ele>769.6</ele>
        <time>2019-07-13T13:31:45Z</time>
      </trkpt>
      <trkpt lat="43.0915360" lon="-0.9620550">
        <ele>770.6</ele>
        <time>2019-07-13T13:31:53Z</time>
      </trkpt>
      <trkpt lat="43.0915140" lon="-0.9621910">
        <ele>771.7</ele>
        <time>2019-07-13T13:32:01Z</time>
      </trkpt>
      <trkpt lat="43.0915070" lon="-0.9623240">
        <ele>772.7</ele>
        <time>2019-07-13T13:32:09Z</time>
      </trkpt>
      <trkpt lat="43.0914990" lon="-0.9624500">
        <ele>773.7</ele>
        <time>2019-07-13T13:32:16Z</time>
      </trkpt>
      <trkpt lat="43.0915170" lon="-0.9625730">
        <ele>774.7</ele>
        <time>2019-07-13T13:32:23Z</time>
      </trkpt>
      <trkpt lat="43.0915140" lon="-0.9627030">
        <ele>775.7</ele>
        <time>2019-07-13T13:32:30Z</time>
      </trkpt>
      <trkpt lat="43.0915280" lon="-0.9628260">
        <ele>776.6</ele>
        <time>2019-07-13T13:32:37Z</time>
      </trkpt>
      <trkpt lat="43.0915490" lon="-0.9629600">
        <ele>777.7</ele>
        <time>2019-07-13T13:32:45Z</time>
      </trkpt>
      <trkpt lat="43.0915610" lon="-0.9629910">
        <ele>778.0</ele>
        <time>2019-07-13T13:32:51Z</time>
      </trkpt>
      <trkpt lat="43.0915630" lon="-0.9631190">
        <ele>779.0</ele>
        <time>2019-07-13T13:33:59Z</time>
      </trkpt>
      <trkpt lat="43.0915360" lon="-0.9632550">
        <ele>780.3</ele>
        <time>2019-07-13T13:34:06Z</time>
      </trkpt>
      <trkpt lat="43.0914870" lon="-0.9633600">
        <ele>781.5</ele>
        <time>2019-07-13T13:34:13Z</time>
      </trkpt>
      <trkpt lat="43.0914400" lon="-0.9634700">
        <ele>782.8</ele>
        <time>2019-07-13T13:34:20Z</time>
      </trkpt>
      <trkpt lat="43.0914050" lon="-0.9635950">
        <ele>784.3</ele>
        <time>2019-07-13T13:34:27Z</time>
      </trkpt>
      <trkpt lat="43.0913980" lon="-0.9637260">
        <ele>785.9</ele>
        <time>2019-07-13T13:34:34Z</time>
      </trkpt>
      <trkpt lat="43.0914010" lon="-0.9638550">
        <ele>787.5</ele>
        <time>2019-07-13T13:34:41Z</time>
      </trkpt>
      <trkpt lat="43.0914180" lon="-0.9639770">
        <ele>789.0</ele>
        <time>2019-07-13T13:34:48Z</time>
      </trkpt>
      <trkpt lat="43.0914420" lon="-0.9641120">
        <ele>790.7</ele>
        <time>2019-07-13T13:34:56Z</time>
      </trkpt>
      <trkpt lat="43.0914700" lon="-0.9642310">
        <ele>792.2</ele>
        <time>2019-07-13T13:35:03Z</time>
      </trkpt>
      <trkpt lat="43.0914980" lon="-0.9643540">
        <ele>793.7</ele>
        <time>2019-07-13T13:35:10Z</time>
      </trkpt>
      <trkpt lat="43.0915360" lon="-0.9644740">
        <ele>795.2</ele>
        <time>2019-07-13T13:35:17Z</time>
      </trkpt>
      <trkpt lat="43.0915640" lon="-0.9645970">
        <ele>796.6</ele>
        <time>2019-07-13T13:35:24Z</time>
      </trkpt>
      <trkpt lat="43.0915870" lon="-0.9647290">
        <ele>798.2</ele>
        <time>2019-07-13T13:35:31Z</time>
      </trkpt>
      <trkpt lat="43.0916240" lon="-0.9648490">
        <ele>799.7</ele>
        <time>2019-07-13T13:35:38Z</time>
      </trkpt>
      <trkpt lat="43.0916470" lon="-0.9649690">
        <ele>801.1</ele>
        <time>2019-07-13T13:35:45Z</time>
      </trkpt>
      <trkpt lat="43.0916660" lon="-0.9650980">
        <ele>802.4</ele>
        <time>2019-07-13T13:35:52Z</time>
      </trkpt>
      <trkpt lat="43.0916880" lon="-0.9652290">
        <ele>803.7</ele>
        <time>2019-07-13T13:36:00Z</time>
      </trkpt>
      <trkpt lat="43.0916970" lon="-0.9653670">
        <ele>804.9</ele>
        <time>2019-07-13T13:36:08Z</time>
      </trkpt>
      <trkpt lat="43.0917120" lon="-0.9654890">
        <ele>805.8</ele>
        <time>2019-07-13T13:36:15Z</time>
      </trkpt>
      <trkpt lat="43.0917340" lon="-0.9656180">
        <ele>806.7</ele>
        <time>2019-07-13T13:36:22Z</time>
      </trkpt>
      <trkpt lat="43.0917600" lon="-0.9657400">
        <ele>807.4</ele>
        <time>2019-07-13T13:36:29Z</time>
      </trkpt>
      <trkpt lat="43.0917940" lon="-0.9658560">
        <ele>808.1</ele>
        <time>2019-07-13T13:36:36Z</time>
      </trkpt>
      <trkpt lat="43.0918310" lon="-0.9659750">
        <ele>808.7</ele>
        <time>2019-07-13T13:36:43Z</time>
      </trkpt>
      <trkpt lat="43.0918710" lon="-0.9660900">
        <ele>809.3</ele>
        <time>2019-07-13T13:36:50Z</time>
      </trkpt>
      <trkpt lat="43.0919000" lon="-0.9662140">
        <ele>809.9</ele>
        <time>2019-07-13T13:36:57Z</time>
      </trkpt>
      <trkpt lat="43.0919240" lon="-0.9663400">
        <ele>810.5</ele>
        <time>2019-07-13T13:37:04Z</time>
      </trkpt>
      <trkpt lat="43.0919570" lon="-0.9664600">
        <ele>811.1</ele>
        <time>2019-07-13T13:37:11Z</time>
      </trkpt>
      <trkpt lat="43.0919800" lon="-0.9665850">
        <ele>811.8</ele>
        <time>2019-07-13T13:37:18Z</time>
      </trkpt>
      <trkpt lat="43.0920040" lon="-0.9667070">
        <ele>812.6</ele>
        <time>2019-07-13T13:37:25Z</time>
      </trkpt>
      <trkpt lat="43.0920180" lon="-0.9668390">
        <ele>813.6</ele>
        <time>2019-07-13T13:37:32Z</time>
      </trkpt>
      <trkpt lat="43.0920220" lon="-0.9669650">
        <ele>814.8</ele>
        <time>2019-07-13T13:37:39Z</time>
      </trkpt>
      <trkpt lat="43.0920270" lon="-0.9670950">
        <ele>816.1</ele>
        <time>2019-07-13T13:37:46Z</time>
      </trkpt>
      <trkpt lat="43.0920110" lon="-0.9672230">
        <ele>817.6</ele>
        <time>2019-07-13T13:37:53Z</time>
      </trkpt>
      <trkpt lat="43.0919990" lon="-0.9673620">
        <ele>819.3</ele>
        <time>2019-07-13T13:38:00Z</time>
      </trkpt>
      <trkpt lat="43.0919840" lon="-0.9675020">
        <ele>821.0</ele>
        <time>2019-07-13T13:38:07Z</time>
      </trkpt>
      <trkpt lat="43.0919730" lon="-0.9676400">
        <ele>822.7</ele>
        <time>2019-07-13T13:38:14Z</time>
      </trkpt>
      <trkpt lat="43.0919720" lon="-0.9677710">
        <ele>824.2</ele>
        <time>2019-07-13T13:38:21Z</time>
      </trkpt>
      <trkpt lat="43.0919880" lon="-0.9679030">
        <ele>825.8</ele>
        <time>2019-07-13T13:38:28Z</time>
      </trkpt>
      <trkpt lat="43.0919970" lon="-0.9680400">
        <ele>827.3</ele>
        <time>2019-07-13T13:38:35Z</time>
      </trkpt>
      <trkpt lat="43.0920210" lon="-0.9681620">
        <ele>828.2</ele>
        <time>2019-07-13T13:38:41Z</time>
      </trkpt>
      <trkpt lat="43.0920340" lon="-0.9682880">
        <ele>829.3</ele>
        <time>2019-07-13T13:38:47Z</time>
      </trkpt>
      <trkpt lat="43.0920630" lon="-0.9684260">
        <ele>830.4</ele>
        <time>2019-07-13T13:38:54Z</time>
      </trkpt>
      <trkpt lat="43.0920990" lon="-0.9685430">
        <ele>831.5</ele>
        <time>2019-07-13T13:39:00Z</time>
      </trkpt>
      <trkpt lat="43.0921290" lon="-0.9686610">
        <ele>832.2</ele>
        <time>2019-07-13T13:39:06Z</time>
      </trkpt>
      <trkpt lat="43.0921650" lon="-0.9687850">
        <ele>833.3</ele>
        <time>2019-07-13T13:39:12Z</time>
      </trkpt>
      <trkpt lat="43.0922010" lon="-0.9689110">
        <ele>833.9</ele>
        <time>2019-07-13T13:39:19Z</time>
      </trkpt>
      <trkpt lat="43.0922300" lon="-0.9690470">
        <ele>834.8</ele>
        <time>2019-07-13T13:39:26Z</time>
      </trkpt>
      <trkpt lat="43.0922510" lon="-0.9691670">
        <ele>835.6</ele>
        <time>2019-07-13T13:39:32Z</time>
      </trkpt>
      <trkpt lat="43.0922830" lon="-0.9692920">
        <ele>836.3</ele>
        <time>2019-07-13T13:39:38Z</time>
      </trkpt>
      <trkpt lat="43.0923140" lon="-0.9694200">
        <ele>836.8</ele>
        <time>2019-07-13T13:39:44Z</time>
      </trkpt>
      <trkpt lat="43.0923380" lon="-0.9695530">
        <ele>837.4</ele>
        <time>2019-07-13T13:39:50Z</time>
      </trkpt>
      <trkpt lat="43.0923730" lon="-0.9696720">
        <ele>838.0</ele>
        <time>2019-07-13T13:39:56Z</time>
      </trkpt>
      <trkpt lat="43.0923880" lon="-0.9697700">
        <ele>838.4</ele>
        <time>2019-07-13T13:40:05Z</time>
      </trkpt>
      <trkpt lat="43.0923990" lon="-0.9697420">
        <ele>838.5</ele>
        <time>2019-07-13T13:44:54Z</time>
      </trkpt>
      <trkpt lat="43.0923900" lon="-0.9698810">
        <ele>838.7</ele>
        <time>2019-07-13T13:45:18Z</time>
      </trkpt>
      <trkpt lat="43.0924220" lon="-0.9700010">
        <ele>838.3</ele>
        <time>2019-07-13T13:45:23Z</time>
      </trkpt>
      <trkpt lat="43.0924580" lon="-0.9701610">
        <ele>837.9</ele>
        <time>2019-07-13T13:45:27Z</time>
      </trkpt>
      <trkpt lat="43.0924960" lon="-0.9703110">
        <ele>837.5</ele>
        <time>2019-07-13T13:45:30Z</time>
      </trkpt>
      <trkpt lat="43.0925290" lon="-0.9704330">
        <ele>836.8</ele>
        <time>2019-07-13T13:45:32Z</time>
      </trkpt>
      <trkpt lat="43.0925660" lon="-0.9705600">
        <ele>836.1</ele>
        <time>2019-07-13T13:45:34Z</time>
      </trkpt>
      <trkpt lat="43.0925920" lon="-0.9706920">
        <ele>835.3</ele>
        <time>2019-07-13T13:45:36Z</time>
      </trkpt>
      <trkpt lat="43.0926100" lon="-0.9708230">
        <ele>834.6</ele>
        <time>2019-07-13T13:45:38Z</time>
      </trkpt>
      <trkpt lat="43.0926230" lon="-0.9709480">
        <ele>833.8</ele>
        <time>2019-07-13T13:45:40Z</time>
      </trkpt>
      <trkpt lat="43.0926350" lon="-0.9711200">
        <ele>832.6</ele>
        <time>2019-07-13T13:45:43Z</time>
      </trkpt>
      <trkpt lat="43.0926550" lon="-0.9712870">
        <ele>831.2</ele>
        <time>2019-07-13T13:45:46Z</time>
      </trkpt>
      <trkpt lat="43.0926740" lon="-0.9714360">
        <ele>830.0</ele>
        <time>2019-07-13T13:45:49Z</time>
      </trkpt>
      <trkpt lat="43.0926920" lon="-0.9715620">
        <ele>828.7</ele>
        <time>2019-07-13T13:45:53Z</time>
      </trkpt>
      <trkpt lat="43.0926910" lon="-0.9715650">
        <ele>828.7</ele>
        <time>2019-07-13T13:45:57Z</time>
      </trkpt>
      <trkpt lat="43.0926900" lon="-0.9717090">
        <ele>827.4</ele>
        <time>2019-07-13T13:46:02Z</time>
      </trkpt>
      <trkpt lat="43.0926920" lon="-0.9718630">
        <ele>826.2</ele>
        <time>2019-07-13T13:46:05Z</time>
      </trkpt>
      <trkpt lat="43.0926930" lon="-0.9720210">
        <ele>825.1</ele>
        <time>2019-07-13T13:46:08Z</time>
      </trkpt>
      <trkpt lat="43.0927120" lon="-0.9721780">
        <ele>823.9</ele>
        <time>2019-07-13T13:46:11Z</time>
      </trkpt>
      <trkpt lat="43.0927370" lon="-0.9723410">
        <ele>822.9</ele>
        <time>2019-07-13T13:46:14Z</time>
      </trkpt>
      <trkpt lat="43.0927690" lon="-0.9724620">
        <ele>822.2</ele>
        <time>2019-07-13T13:46:16Z</time>
      </trkpt>
      <trkpt lat="43.0927790" lon="-0.9725910">
        <ele>821.5</ele>
        <time>2019-07-13T13:46:18Z</time>
      </trkpt>
      <trkpt lat="43.0927830" lon="-0.9727180">
        <ele>820.8</ele>
        <time>2019-07-13T13:46:20Z</time>
      </trkpt>
      <trkpt lat="43.0927900" lon="-0.9728430">
        <ele>820.1</ele>
        <time>2019-07-13T13:46:22Z</time>
      </trkpt>
      <trkpt lat="43.0928100" lon="-0.9729680">
        <ele>819.4</ele>
        <time>2019-07-13T13:46:24Z</time>
      </trkpt>
      <trkpt lat="43.0928310" lon="-0.9730880">
        <ele>818.7</ele>
        <time>2019-07-13T13:46:26Z</time>
      </trkpt>
      <trkpt lat="43.0928330" lon="-0.9732170">
        <ele>817.9</ele>
        <time>2019-07-13T13:46:28Z</time>
      </trkpt>
      <trkpt lat="43.0928330" lon="-0.9733560">
        <ele>817.1</ele>
        <time>2019-07-13T13:46:30Z</time>
      </trkpt>
      <trkpt lat="43.0928310" lon="-0.9734990">
        <ele>816.3</ele>
        <time>2019-07-13T13:46:32Z</time>
      </trkpt>
      <trkpt lat="43.0928410" lon="-0.9736310">
        <ele>815.6</ele>
        <time>2019-07-13T13:46:34Z</time>
      </trkpt>
      <trkpt lat="43.0928570" lon="-0.9737570">
        <ele>814.9</ele>
        <time>2019-07-13T13:46:36Z</time>
      </trkpt>
      <trkpt lat="43.0928790" lon="-0.9738960">
        <ele>813.9</ele>
        <time>2019-07-13T13:46:38Z</time>
      </trkpt>
      <trkpt lat="43.0929010" lon="-0.9740290">
        <ele>813.0</ele>
        <time>2019-07-13T13:46:40Z</time>
      </trkpt>
      <trkpt lat="43.0929100" lon="-0.9741670">
        <ele>812.2</ele>
        <time>2019-07-13T13:46:42Z</time>
      </trkpt>
      <trkpt lat="43.0929120" lon="-0.9743030">
        <ele>811.3</ele>
        <time>2019-07-13T13:46:44Z</time>
      </trkpt>
      <trkpt lat="43.0929160" lon="-0.9744410">
        <ele>810.5</ele>
        <time>2019-07-13T13:46:46Z</time>
      </trkpt>
      <trkpt lat="43.0929270" lon="-0.9745660">
        <ele>809.7</ele>
        <time>2019-07-13T13:46:48Z</time>
      </trkpt>
      <trkpt lat="43.0929340" lon="-0.9746950">
        <ele>809.0</ele>
        <time>2019-07-13T13:46:50Z</time>
      </trkpt>
      <trkpt lat="43.0929440" lon="-0.9748210">
        <ele>808.4</ele>
        <time>2019-07-13T13:46:52Z</time>
      </trkpt>
      <trkpt lat="43.0929480" lon="-0.9749470">
        <ele>807.5</ele>
        <time>2019-07-13T13:46:54Z</time>
      </trkpt>
      <trkpt lat="43.0929480" lon="-0.9750840">
        <ele>806.3</ele>
        <time>2019-07-13T13:46:56Z</time>
      </trkpt>
      <trkpt lat="43.0929600" lon="-0.9752100">
        <ele>805.3</ele>
        <time>2019-07-13T13:46:58Z</time>
      </trkpt>
      <trkpt lat="43.0929720" lon="-0.9753700">
        <ele>804.0</ele>
        <time>2019-07-13T13:47:01Z</time>
      </trkpt>
      <trkpt lat="43.0929840" lon="-0.9755150">
        <ele>803.1</ele>
        <time>2019-07-13T13:47:04Z</time>
      </trkpt>
      <trkpt lat="43.0930160" lon="-0.9756590">
        <ele>802.4</ele>
        <time>2019-07-13T13:47:07Z</time>
      </trkpt>
      <trkpt lat="43.0930620" lon="-0.9757780">
        <ele>801.8</ele>
        <time>2019-07-13T13:47:10Z</time>
      </trkpt>
      <trkpt lat="43.0931380" lon="-0.9759130">
        <ele>800.9</ele>
        <time>2019-07-13T13:47:13Z</time>
      </trkpt>
      <trkpt lat="43.0932120" lon="-0.9760320">
        <ele>799.9</ele>
        <time>2019-07-13T13:47:16Z</time>
      </trkpt>
      <trkpt lat="43.0932980" lon="-0.9761340">
        <ele>798.9</ele>
        <time>2019-07-13T13:47:19Z</time>
      </trkpt>
      <trkpt lat="43.0933900" lon="-0.9762140">
        <ele>797.8</ele>
        <time>2019-07-13T13:47:22Z</time>
      </trkpt>
      <trkpt lat="43.0934850" lon="-0.9762940">
        <ele>796.8</ele>
        <time>2019-07-13T13:47:26Z</time>
      </trkpt>
      <trkpt lat="43.0935590" lon="-0.9763690">
        <ele>796.1</ele>
        <time>2019-07-13T13:47:30Z</time>
      </trkpt>
      <trkpt lat="43.0936370" lon="-0.9764520">
        <ele>795.4</ele>
        <time>2019-07-13T13:47:34Z</time>
      </trkpt>
      <trkpt lat="43.0936760" lon="-0.9765000">
        <ele>795.0</ele>
        <time>2019-07-13T13:47:41Z</time>
      </trkpt>
      <trkpt lat="43.0937480" lon="-0.9765120">
        <ele>794.5</ele>
        <time>2019-07-13T13:51:47Z</time>
      </trkpt>
      <trkpt lat="43.0937860" lon="-0.9766260">
        <ele>794.1</ele>
        <time>2019-07-13T13:52:16Z</time>
      </trkpt>
      <trkpt lat="43.0938550" lon="-0.9767280">
        <ele>793.5</ele>
        <time>2019-07-13T13:52:20Z</time>
      </trkpt>
      <trkpt lat="43.0939370" lon="-0.9767860">
        <ele>792.9</ele>
        <time>2019-07-13T13:52:24Z</time>
      </trkpt>
      <trkpt lat="43.0940380" lon="-0.9768140">
        <ele>792.1</ele>
        <time>2019-07-13T13:52:28Z</time>
      </trkpt>
      <trkpt lat="43.0941420" lon="-0.9768030">
        <ele>791.0</ele>
        <time>2019-07-13T13:52:31Z</time>
      </trkpt>
      <trkpt lat="43.0942370" lon="-0.9767650">
        <ele>789.8</ele>
        <time>2019-07-13T13:52:34Z</time>
      </trkpt>
      <trkpt lat="43.0943540" lon="-0.9767890">
        <ele>788.6</ele>
        <time>2019-07-13T13:52:37Z</time>
      </trkpt>
      <trkpt lat="43.0944270" lon="-0.9768930">
        <ele>789.0</ele>
        <time>2019-07-13T13:52:40Z</time>
      </trkpt>
      <trkpt lat="43.0944890" lon="-0.9770300">
        <ele>789.5</ele>
        <time>2019-07-13T13:52:44Z</time>
      </trkpt>
      <trkpt lat="43.0945440" lon="-0.9771520">
        <ele>789.9</ele>
        <time>2019-07-13T13:52:48Z</time>
      </trkpt>
      <trkpt lat="43.0946040" lon="-0.9772620">
        <ele>790.4</ele>
        <time>2019-07-13T13:52:52Z</time>
      </trkpt>
      <trkpt lat="43.0946570" lon="-0.9773970">
        <ele>790.8</ele>
        <time>2019-07-13T13:52:57Z</time>
      </trkpt>
      <trkpt lat="43.0947070" lon="-0.9775090">
        <ele>791.3</ele>
        <time>2019-07-13T13:53:01Z</time>
      </trkpt>
      <trkpt lat="43.0947540" lon="-0.9776260">
        <ele>791.7</ele>
        <time>2019-07-13T13:53:05Z</time>
      </trkpt>
      <trkpt lat="43.0947900" lon="-0.9777450">
        <ele>792.1</ele>
        <time>2019-07-13T13:53:09Z</time>
      </trkpt>
      <trkpt lat="43.0948250" lon="-0.9778590">
        <ele>792.4</ele>
        <time>2019-07-13T13:53:14Z</time>
      </trkpt>
      <trkpt lat="43.0948600" lon="-0.9779810">
        <ele>792.8</ele>
        <time>2019-07-13T13:53:20Z</time>
      </trkpt>
      <trkpt lat="43.0949010" lon="-0.9780940">
        <ele>793.1</ele>
        <time>2019-07-13T13:53:25Z</time>
      </trkpt>
      <trkpt lat="43.0949310" lon="-0.9782240">
        <ele>793.6</ele>
        <time>2019-07-13T13:53:31Z</time>
      </trkpt>
      <trkpt lat="43.0949700" lon="-0.9783370">
        <ele>794.0</ele>
        <time>2019-07-13T13:53:36Z</time>
      </trkpt>
      <trkpt lat="43.0950100" lon="-0.9784490">
        <ele>794.3</ele>
        <time>2019-07-13T13:53:41Z</time>
      </trkpt>
      <trkpt lat="43.0950680" lon="-0.9785650">
        <ele>794.6</ele>
        <time>2019-07-13T13:53:47Z</time>
      </trkpt>
      <trkpt lat="43.0951090" lon="-0.9786860">
        <ele>794.9</ele>
        <time>2019-07-13T13:53:53Z</time>
      </trkpt>
      <trkpt lat="43.0951520" lon="-0.9788090">
        <ele>795.4</ele>
        <time>2019-07-13T13:54:00Z</time>
      </trkpt>
      <trkpt lat="43.0951860" lon="-0.9789290">
        <ele>795.7</ele>
        <time>2019-07-13T13:54:06Z</time>
      </trkpt>
      <trkpt lat="43.0952320" lon="-0.9790460">
        <ele>796.1</ele>
        <time>2019-07-13T13:54:12Z</time>
      </trkpt>
      <trkpt lat="43.0952670" lon="-0.9791700">
        <ele>796.4</ele>
        <time>2019-07-13T13:54:19Z</time>
      </trkpt>
      <trkpt lat="43.0952960" lon="-0.9793030">
        <ele>796.8</ele>
        <time>2019-07-13T13:54:26Z</time>
      </trkpt>
      <trkpt lat="43.0953320" lon="-0.9794190">
        <ele>797.2</ele>
        <time>2019-07-13T13:54:32Z</time>
      </trkpt>
      <trkpt lat="43.0953680" lon="-0.9795400">
        <ele>797.5</ele>
        <time>2019-07-13T13:54:38Z</time>
      </trkpt>
      <trkpt lat="43.0953980" lon="-0.9796640">
        <ele>798.0</ele>
        <time>2019-07-13T13:54:44Z</time>
      </trkpt>
      <trkpt lat="43.0954090" lon="-0.9798050">
        <ele>798.5</ele>
        <time>2019-07-13T13:54:51Z</time>
      </trkpt>
      <trkpt lat="43.0954220" lon="-0.9799320">
        <ele>799.1</ele>
        <time>2019-07-13T13:54:57Z</time>
      </trkpt>
      <trkpt lat="43.0954430" lon="-0.9800520">
        <ele>799.5</ele>
        <time>2019-07-13T13:55:03Z</time>
      </trkpt>
      <trkpt lat="43.0954510" lon="-0.9801770">
        <ele>799.9</ele>
        <time>2019-07-13T13:55:09Z</time>
      </trkpt>
      <trkpt lat="43.0954680" lon="-0.9802990">
        <ele>800.4</ele>
        <time>2019-07-13T13:55:15Z</time>
      </trkpt>
      <trkpt lat="43.0954940" lon="-0.9804390">
        <ele>800.9</ele>
        <time>2019-07-13T13:55:22Z</time>
      </trkpt>
      <trkpt lat="43.0955300" lon="-0.9805710">
        <ele>801.3</ele>
        <time>2019-07-13T13:55:29Z</time>
      </trkpt>
      <trkpt lat="43.0955570" lon="-0.9806980">
        <ele>801.6</ele>
        <time>2019-07-13T13:55:36Z</time>
      </trkpt>
      <trkpt lat="43.0955970" lon="-0.9808280">
        <ele>801.9</ele>
        <time>2019-07-13T13:55:43Z</time>
      </trkpt>
      <trkpt lat="43.0956200" lon="-0.9809530">
        <ele>802.1</ele>
        <time>2019-07-13T13:55:50Z</time>
      </trkpt>
      <trkpt lat="43.0956330" lon="-0.9810880">
        <ele>802.3</ele>
        <time>2019-07-13T13:55:57Z</time>
      </trkpt>
      <trkpt lat="43.0956530" lon="-0.9812120">
        <ele>802.7</ele>
        <time>2019-07-13T13:56:03Z</time>
      </trkpt>
      <trkpt lat="43.0956800" lon="-0.9813330">
        <ele>802.9</ele>
        <time>2019-07-13T13:56:09Z</time>
      </trkpt>
      <trkpt lat="43.0957170" lon="-0.9814660">
        <ele>803.1</ele>
        <time>2019-07-13T13:56:15Z</time>
      </trkpt>
      <trkpt lat="43.0957350" lon="-0.9816010">
        <ele>803.3</ele>
        <time>2019-07-13T13:56:21Z</time>
      </trkpt>
      <trkpt lat="43.0957620" lon="-0.9817240">
        <ele>803.6</ele>
        <time>2019-07-13T13:56:27Z</time>
      </trkpt>
      <trkpt lat="43.0957950" lon="-0.9818520">
        <ele>803.8</ele>
        <time>2019-07-13T13:56:33Z</time>
      </trkpt>
      <trkpt lat="43.0958120" lon="-0.9819790">
        <ele>804.2</ele>
        <time>2019-07-13T13:56:39Z</time>
      </trkpt>
      <trkpt lat="43.0958310" lon="-0.9821160">
        <ele>804.4</ele>
        <time>2019-07-13T13:56:45Z</time>
      </trkpt>
      <trkpt lat="43.0958470" lon="-0.9822550">
        <ele>804.6</ele>
        <time>2019-07-13T13:56:51Z</time>
      </trkpt>
      <trkpt lat="43.0958590" lon="-0.9823940">
        <ele>804.7</ele>
        <time>2019-07-13T13:56:58Z</time>
      </trkpt>
      <trkpt lat="43.0958790" lon="-0.9825280">
        <ele>804.8</ele>
        <time>2019-07-13T13:57:04Z</time>
      </trkpt>
      <trkpt lat="43.0958830" lon="-0.9826530">
        <ele>804.9</ele>
        <time>2019-07-13T13:57:10Z</time>
      </trkpt>
      <trkpt lat="43.0958840" lon="-0.9827930">
        <ele>805.0</ele>
        <time>2019-07-13T13:57:16Z</time>
      </trkpt>
      <trkpt lat="43.0958940" lon="-0.9829340">
        <ele>805.1</ele>
        <time>2019-07-13T13:57:22Z</time>
      </trkpt>
      <trkpt lat="43.0959040" lon="-0.9830570">
        <ele>805.2</ele>
        <time>2019-07-13T13:57:27Z</time>
      </trkpt>
      <trkpt lat="43.0959050" lon="-0.9831840">
        <ele>805.2</ele>
        <time>2019-07-13T13:57:33Z</time>
      </trkpt>
      <trkpt lat="43.0959170" lon="-0.9833230">
        <ele>805.2</ele>
        <time>2019-07-13T13:57:39Z</time>
      </trkpt>
      <trkpt lat="43.0959480" lon="-0.9834480">
        <ele>805.3</ele>
        <time>2019-07-13T13:57:45Z</time>
      </trkpt>
      <trkpt lat="43.0959970" lon="-0.9835690">
        <ele>805.4</ele>
        <time>2019-07-13T13:57:51Z</time>
      </trkpt>
      <trkpt lat="43.0960440" lon="-0.9836740">
        <ele>805.5</ele>
        <time>2019-07-13T13:57:56Z</time>
      </trkpt>
      <trkpt lat="43.0961050" lon="-0.9837910">
        <ele>805.6</ele>
        <time>2019-07-13T13:58:02Z</time>
      </trkpt>
      <trkpt lat="43.0961590" lon="-0.9838970">
        <ele>805.7</ele>
        <time>2019-07-13T13:58:08Z</time>
      </trkpt>
      <trkpt lat="43.0962180" lon="-0.9840150">
        <ele>805.8</ele>
        <time>2019-07-13T13:58:15Z</time>
      </trkpt>
      <trkpt lat="43.0962830" lon="-0.9841130">
        <ele>805.9</ele>
        <time>2019-07-13T13:58:22Z</time>
      </trkpt>
      <trkpt lat="43.0963580" lon="-0.9841980">
        <ele>806.0</ele>
        <time>2019-07-13T13:58:29Z</time>
      </trkpt>
      <trkpt lat="43.0964300" lon="-0.9842950">
        <ele>806.1</ele>
        <time>2019-07-13T13:58:37Z</time>
      </trkpt>
      <trkpt lat="43.0964990" lon="-0.9843900">
        <ele>806.2</ele>
        <time>2019-07-13T13:58:44Z</time>
      </trkpt>
      <trkpt lat="43.0965550" lon="-0.9844940">
        <ele>806.3</ele>
        <time>2019-07-13T13:58:51Z</time>
      </trkpt>
      <trkpt lat="43.0966190" lon="-0.9846020">
        <ele>806.6</ele>
        <time>2019-07-13T13:58:58Z</time>
      </trkpt>
      <trkpt lat="43.0966830" lon="-0.9847050">
        <ele>807.1</ele>
        <time>2019-07-13T13:59:04Z</time>
      </trkpt>
      <trkpt lat="43.0967450" lon="-0.9848070">
        <ele>807.7</ele>
        <time>2019-07-13T13:59:10Z</time>
      </trkpt>
      <trkpt lat="43.0968100" lon="-0.9849060">
        <ele>808.2</ele>
        <time>2019-07-13T13:59:16Z</time>
      </trkpt>
      <trkpt lat="43.0968800" lon="-0.9849950">
        <ele>808.8</ele>
        <time>2019-07-13T13:59:21Z</time>
      </trkpt>
      <trkpt lat="43.0969540" lon="-0.9851010">
        <ele>809.3</ele>
        <time>2019-07-13T13:59:26Z</time>
      </trkpt>
      <trkpt lat="43.0970050" lon="-0.9852060">
        <ele>809.8</ele>
        <time>2019-07-13T13:59:31Z</time>
      </trkpt>
      <trkpt lat="43.0970810" lon="-0.9853160">
        <ele>810.4</ele>
        <time>2019-07-13T13:59:37Z</time>
      </trkpt>
      <trkpt lat="43.0971400" lon="-0.9854150">
        <ele>810.9</ele>
        <time>2019-07-13T13:59:42Z</time>
      </trkpt>
      <trkpt lat="43.0972070" lon="-0.9855200">
        <ele>811.3</ele>
        <time>2019-07-13T13:59:47Z</time>
      </trkpt>
      <trkpt lat="43.0972700" lon="-0.9856100">
        <ele>811.6</ele>
        <time>2019-07-13T13:59:51Z</time>
      </trkpt>
      <trkpt lat="43.0973400" lon="-0.9857180">
        <ele>811.9</ele>
        <time>2019-07-13T13:59:56Z</time>
      </trkpt>
      <trkpt lat="43.0974090" lon="-0.9858300">
        <ele>812.3</ele>
        <time>2019-07-13T14:00:01Z</time>
      </trkpt>
      <trkpt lat="43.0974820" lon="-0.9859390">
        <ele>812.6</ele>
        <time>2019-07-13T14:00:07Z</time>
      </trkpt>
      <trkpt lat="43.0975370" lon="-0.9860460">
        <ele>813.1</ele>
        <time>2019-07-13T14:00:12Z</time>
      </trkpt>
      <trkpt lat="43.0976030" lon="-0.9861530">
        <ele>813.6</ele>
        <time>2019-07-13T14:00:17Z</time>
      </trkpt>
      <trkpt lat="43.0976590" lon="-0.9862620">
        <ele>814.0</ele>
        <time>2019-07-13T14:00:22Z</time>
      </trkpt>
      <trkpt lat="43.0977040" lon="-0.9863840">
        <ele>814.4</ele>
        <time>2019-07-13T14:00:27Z</time>
      </trkpt>
      <trkpt lat="43.0977510" lon="-0.9864980">
        <ele>814.9</ele>
        <time>2019-07-13T14:00:32Z</time>
      </trkpt>
      <trkpt lat="43.0978020" lon="-0.9866190">
        <ele>815.4</ele>
        <time>2019-07-13T14:00:37Z</time>
      </trkpt>
      <trkpt lat="43.0978660" lon="-0.9867370">
        <ele>816.1</ele>
        <time>2019-07-13T14:00:42Z</time>
      </trkpt>
      <trkpt lat="43.0979180" lon="-0.9868460">
        <ele>816.9</ele>
        <time>2019-07-13T14:00:48Z</time>
      </trkpt>
      <trkpt lat="43.0979690" lon="-0.9869490">
        <ele>817.7</ele>
        <time>2019-07-13T14:00:54Z</time>
      </trkpt>
      <trkpt lat="43.0980330" lon="-0.9870600">
        <ele>818.5</ele>
        <time>2019-07-13T14:00:59Z</time>
      </trkpt>
      <trkpt lat="43.0980990" lon="-0.9871640">
        <ele>819.3</ele>
        <time>2019-07-13T14:01:04Z</time>
      </trkpt>
      <trkpt lat="43.0981590" lon="-0.9872780">
        <ele>820.1</ele>
        <time>2019-07-13T14:01:09Z</time>
      </trkpt>
      <trkpt lat="43.0981800" lon="-0.9874150">
        <ele>821.0</ele>
        <time>2019-07-13T14:01:14Z</time>
      </trkpt>
      <trkpt lat="43.0981810" lon="-0.9875510">
        <ele>821.7</ele>
        <time>2019-07-13T14:01:19Z</time>
      </trkpt>
      <trkpt lat="43.0981920" lon="-0.9876940">
        <ele>822.4</ele>
        <time>2019-07-13T14:01:24Z</time>
      </trkpt>
      <trkpt lat="43.0982120" lon="-0.9878250">
        <ele>822.9</ele>
        <time>2019-07-13T14:01:30Z</time>
      </trkpt>
      <trkpt lat="43.0982250" lon="-0.9879630">
        <ele>823.4</ele>
        <time>2019-07-13T14:01:36Z</time>
      </trkpt>
      <trkpt lat="43.0982330" lon="-0.9881070">
        <ele>823.9</ele>
        <time>2019-07-13T14:01:42Z</time>
      </trkpt>
      <trkpt lat="43.0982400" lon="-0.9882470">
        <ele>824.3</ele>
        <time>2019-07-13T14:01:48Z</time>
      </trkpt>
      <trkpt lat="43.0982670" lon="-0.9883710">
        <ele>824.7</ele>
        <time>2019-07-13T14:01:54Z</time>
      </trkpt>
      <trkpt lat="43.0982920" lon="-0.9884980">
        <ele>825.4</ele>
        <time>2019-07-13T14:02:00Z</time>
      </trkpt>
      <trkpt lat="43.0983210" lon="-0.9886190">
        <ele>825.8</ele>
        <time>2019-07-13T14:02:06Z</time>
      </trkpt>
      <trkpt lat="43.0983460" lon="-0.9887470">
        <ele>826.2</ele>
        <time>2019-07-13T14:02:12Z</time>
      </trkpt>
      <trkpt lat="43.0983570" lon="-0.9888820">
        <ele>826.7</ele>
        <time>2019-07-13T14:02:18Z</time>
      </trkpt>
      <trkpt lat="43.0983900" lon="-0.9890180">
        <ele>827.1</ele>
        <time>2019-07-13T14:02:24Z</time>
      </trkpt>
      <trkpt lat="43.0984220" lon="-0.9891370">
        <ele>827.5</ele>
        <time>2019-07-13T14:02:29Z</time>
      </trkpt>
      <trkpt lat="43.0984270" lon="-0.9892700">
        <ele>828.0</ele>
        <time>2019-07-13T14:02:35Z</time>
      </trkpt>
      <trkpt lat="43.0984320" lon="-0.9894010">
        <ele>828.5</ele>
        <time>2019-07-13T14:02:41Z</time>
      </trkpt>
      <trkpt lat="43.0984260" lon="-0.9895410">
        <ele>829.0</ele>
        <time>2019-07-13T14:02:47Z</time>
      </trkpt>
      <trkpt lat="43.0984220" lon="-0.9896640">
        <ele>829.5</ele>
        <time>2019-07-13T14:02:53Z</time>
      </trkpt>
      <trkpt lat="43.0984050" lon="-0.9897970">
        <ele>830.1</ele>
        <time>2019-07-13T14:02:59Z</time>
      </trkpt>
      <trkpt lat="43.0984140" lon="-0.9899410">
        <ele>831.0</ele>
        <time>2019-07-13T14:03:06Z</time>
      </trkpt>
      <trkpt lat="43.0984110" lon="-0.9900690">
        <ele>831.6</ele>
        <time>2019-07-13T14:03:12Z</time>
      </trkpt>
      <trkpt lat="43.0984010" lon="-0.9902120">
        <ele>832.2</ele>
        <time>2019-07-13T14:03:18Z</time>
      </trkpt>
      <trkpt lat="43.0983350" lon="-0.9903230">
        <ele>832.8</ele>
        <time>2019-07-13T14:03:23Z</time>
      </trkpt>
      <trkpt lat="43.0983670" lon="-0.9904580">
        <ele>833.4</ele>
        <time>2019-07-13T14:03:28Z</time>
      </trkpt>
      <trkpt lat="43.0983990" lon="-0.9905900">
        <ele>833.9</ele>
        <time>2019-07-13T14:03:34Z</time>
      </trkpt>
      <trkpt lat="43.0983860" lon="-0.9907140">
        <ele>834.5</ele>
        <time>2019-07-13T14:03:39Z</time>
      </trkpt>
      <trkpt lat="43.0984000" lon="-0.9908610">
        <ele>835.4</ele>
        <time>2019-07-13T14:03:45Z</time>
      </trkpt>
      <trkpt lat="43.0984070" lon="-0.9909970">
        <ele>836.2</ele>
        <time>2019-07-13T14:03:50Z</time>
      </trkpt>
      <trkpt lat="43.0983830" lon="-0.9911380">
        <ele>837.0</ele>
        <time>2019-07-13T14:03:56Z</time>
      </trkpt>
      <trkpt lat="43.0983920" lon="-0.9912630">
        <ele>837.7</ele>
        <time>2019-07-13T14:04:01Z</time>
      </trkpt>
      <trkpt lat="43.0984010" lon="-0.9914040">
        <ele>838.4</ele>
        <time>2019-07-13T14:04:07Z</time>
      </trkpt>
      <trkpt lat="43.0984080" lon="-0.9915450">
        <ele>838.9</ele>
        <time>2019-07-13T14:04:13Z</time>
      </trkpt>
      <trkpt lat="43.0984190" lon="-0.9916800">
        <ele>839.4</ele>
        <time>2019-07-13T14:04:19Z</time>
      </trkpt>
      <trkpt lat="43.0984290" lon="-0.9917090">
        <ele>839.5</ele>
        <time>2019-07-13T14:04:24Z</time>
      </trkpt>
      <trkpt lat="43.0984770" lon="-0.9918180">
        <ele>840.0</ele>
        <time>2019-07-13T14:07:18Z</time>
      </trkpt>
      <trkpt lat="43.0984770" lon="-0.9919620">
        <ele>840.8</ele>
        <time>2019-07-13T14:07:24Z</time>
      </trkpt>
      <trkpt lat="43.0984760" lon="-0.9920880">
        <ele>841.4</ele>
        <time>2019-07-13T14:07:29Z</time>
      </trkpt>
      <trkpt lat="43.0984810" lon="-0.9922290">
        <ele>842.1</ele>
        <time>2019-07-13T14:07:34Z</time>
      </trkpt>
      <trkpt lat="43.0984820" lon="-0.9923770">
        <ele>842.9</ele>
        <time>2019-07-13T14:07:39Z</time>
      </trkpt>
      <trkpt lat="43.0984990" lon="-0.9925210">
        <ele>843.5</ele>
        <time>2019-07-13T14:07:44Z</time>
      </trkpt>
      <trkpt lat="43.0985080" lon="-0.9926550">
        <ele>844.1</ele>
        <time>2019-07-13T14:07:49Z</time>
      </trkpt>
      <trkpt lat="43.0985200" lon="-0.9927820">
        <ele>844.7</ele>
        <time>2019-07-13T14:07:54Z</time>
      </trkpt>
      <trkpt lat="43.0985270" lon="-0.9929070">
        <ele>845.4</ele>
        <time>2019-07-13T14:08:00Z</time>
      </trkpt>
      <trkpt lat="43.0985420" lon="-0.9930360">
        <ele>846.0</ele>
        <time>2019-07-13T14:08:07Z</time>
      </trkpt>
      <trkpt lat="43.0985710" lon="-0.9931590">
        <ele>846.5</ele>
        <time>2019-07-13T14:08:14Z</time>
      </trkpt>
      <trkpt lat="43.0985910" lon="-0.9932970">
        <ele>847.1</ele>
        <time>2019-07-13T14:08:22Z</time>
      </trkpt>
      <trkpt lat="43.0986130" lon="-0.9934190">
        <ele>847.9</ele>
        <time>2019-07-13T14:08:29Z</time>
      </trkpt>
      <trkpt lat="43.0986570" lon="-0.9935330">
        <ele>848.6</ele>
        <time>2019-07-13T14:08:36Z</time>
      </trkpt>
      <trkpt lat="43.0987000" lon="-0.9936510">
        <ele>849.3</ele>
        <time>2019-07-13T14:08:43Z</time>
      </trkpt>
      <trkpt lat="43.0987570" lon="-0.9937610">
        <ele>850.0</ele>
        <time>2019-07-13T14:08:48Z</time>
      </trkpt>
      <trkpt lat="43.0988040" lon="-0.9938880">
        <ele>850.9</ele>
        <time>2019-07-13T14:08:55Z</time>
      </trkpt>
      <trkpt lat="43.0988370" lon="-0.9940120">
        <ele>851.7</ele>
        <time>2019-07-13T14:09:02Z</time>
      </trkpt>
      <trkpt lat="43.0988800" lon="-0.9941380">
        <ele>852.3</ele>
        <time>2019-07-13T14:09:09Z</time>
      </trkpt>
      <trkpt lat="43.0989180" lon="-0.9942670">
        <ele>853.0</ele>
        <time>2019-07-13T14:09:16Z</time>
      </trkpt>
      <trkpt lat="43.0989470" lon="-0.9944030">
        <ele>853.6</ele>
        <time>2019-07-13T14:09:23Z</time>
      </trkpt>
      <trkpt lat="43.0989790" lon="-0.9945280">
        <ele>854.3</ele>
        <time>2019-07-13T14:09:30Z</time>
      </trkpt>
      <trkpt lat="43.0990040" lon="-0.9946480">
        <ele>854.9</ele>
        <time>2019-07-13T14:09:37Z</time>
      </trkpt>
      <trkpt lat="43.0990170" lon="-0.9947720">
        <ele>855.5</ele>
        <time>2019-07-13T14:09:44Z</time>
      </trkpt>
      <trkpt lat="43.0990300" lon="-0.9949150">
        <ele>856.2</ele>
        <time>2019-07-13T14:09:51Z</time>
      </trkpt>
      <trkpt lat="43.0990350" lon="-0.9950550">
        <ele>856.9</ele>
        <time>2019-07-13T14:09:58Z</time>
      </trkpt>
      <trkpt lat="43.0990460" lon="-0.9951780">
        <ele>857.9</ele>
        <time>2019-07-13T14:10:05Z</time>
      </trkpt>
      <trkpt lat="43.0990380" lon="-0.9953030">
        <ele>858.6</ele>
        <time>2019-07-13T14:10:12Z</time>
      </trkpt>
      <trkpt lat="43.0990340" lon="-0.9954260">
        <ele>859.4</ele>
        <time>2019-07-13T14:10:19Z</time>
      </trkpt>
      <trkpt lat="43.0990530" lon="-0.9955550">
        <ele>860.5</ele>
        <time>2019-07-13T14:10:26Z</time>
      </trkpt>
      <trkpt lat="43.0990570" lon="-0.9956830">
        <ele>861.3</ele>
        <time>2019-07-13T14:10:33Z</time>
      </trkpt>
      <trkpt lat="43.0990430" lon="-0.9958230">
        <ele>862.2</ele>
        <time>2019-07-13T14:10:41Z</time>
      </trkpt>
      <trkpt lat="43.0990430" lon="-0.9959560">
        <ele>863.1</ele>
        <time>2019-07-13T14:10:49Z</time>
      </trkpt>
      <trkpt lat="43.0990380" lon="-0.9960840">
        <ele>863.9</ele>
        <time>2019-07-13T14:10:56Z</time>
      </trkpt>
      <trkpt lat="43.0990330" lon="-0.9962180">
        <ele>865.0</ele>
        <time>2019-07-13T14:11:03Z</time>
      </trkpt>
      <trkpt lat="43.0990300" lon="-0.9963500">
        <ele>865.8</ele>
        <time>2019-07-13T14:11:10Z</time>
      </trkpt>
      <trkpt lat="43.0990190" lon="-0.9964830">
        <ele>866.6</ele>
        <time>2019-07-13T14:11:17Z</time>
      </trkpt>
      <trkpt lat="43.0990220" lon="-0.9966130">
        <ele>867.5</ele>
        <time>2019-07-13T14:11:24Z</time>
      </trkpt>
      <trkpt lat="43.0990100" lon="-0.9967410">
        <ele>868.5</ele>
        <time>2019-07-13T14:11:31Z</time>
      </trkpt>
      <trkpt lat="43.0989860" lon="-0.9968650">
        <ele>869.3</ele>
        <time>2019-07-13T14:11:38Z</time>
      </trkpt>
      <trkpt lat="43.0989620" lon="-0.9969860">
        <ele>870.1</ele>
        <time>2019-07-13T14:11:45Z</time>
      </trkpt>
      <trkpt lat="43.0989170" lon="-0.9971090">
        <ele>870.9</ele>
        <time>2019-07-13T14:11:53Z</time>
      </trkpt>
      <trkpt lat="43.0988850" lon="-0.9972410">
        <ele>871.7</ele>
        <time>2019-07-13T14:12:01Z</time>
      </trkpt>
      <trkpt lat="43.0988640" lon="-0.9973650">
        <ele>872.4</ele>
        <time>2019-07-13T14:12:08Z</time>
      </trkpt>
      <trkpt lat="43.0988550" lon="-0.9975010">
        <ele>873.1</ele>
        <time>2019-07-13T14:12:16Z</time>
      </trkpt>
      <trkpt lat="43.0988350" lon="-0.9976250">
        <ele>873.9</ele>
        <time>2019-07-13T14:12:24Z</time>
      </trkpt>
      <trkpt lat="43.0988390" lon="-0.9977630">
        <ele>874.7</ele>
        <time>2019-07-13T14:12:32Z</time>
      </trkpt>
      <trkpt lat="43.0988530" lon="-0.9978850">
        <ele>875.5</ele>
        <time>2019-07-13T14:12:39Z</time>
      </trkpt>
      <trkpt lat="43.0988510" lon="-0.9980090">
        <ele>876.2</ele>
        <time>2019-07-13T14:12:46Z</time>
      </trkpt>
      <trkpt lat="43.0988570" lon="-0.9981380">
        <ele>876.9</ele>
        <time>2019-07-13T14:12:54Z</time>
      </trkpt>
      <trkpt lat="43.0988440" lon="-0.9982680">
        <ele>877.8</ele>
        <time>2019-07-13T14:13:02Z</time>
      </trkpt>
      <trkpt lat="43.0988720" lon="-0.9983890">
        <ele>878.5</ele>
        <time>2019-07-13T14:13:09Z</time>
      </trkpt>
      <trkpt lat="43.0988970" lon="-0.9985240">
        <ele>879.2</ele>
        <time>2019-07-13T14:13:17Z</time>
      </trkpt>
      <trkpt lat="43.0989190" lon="-0.9986570">
        <ele>880.0</ele>
        <time>2019-07-13T14:13:25Z</time>
      </trkpt>
      <trkpt lat="43.0989350" lon="-0.9987950">
        <ele>881.0</ele>
        <time>2019-07-13T14:13:33Z</time>
      </trkpt>
      <trkpt lat="43.0989440" lon="-0.9989300">
        <ele>881.7</ele>
        <time>2019-07-13T14:13:41Z</time>
      </trkpt>
      <trkpt lat="43.0989540" lon="-0.9990670">
        <ele>882.4</ele>
        <time>2019-07-13T14:13:49Z</time>
      </trkpt>
      <trkpt lat="43.0989710" lon="-0.9991950">
        <ele>883.0</ele>
        <time>2019-07-13T14:13:56Z</time>
      </trkpt>
      <trkpt lat="43.0989970" lon="-0.9993150">
        <ele>883.9</ele>
        <time>2019-07-13T14:14:02Z</time>
      </trkpt>
      <trkpt lat="43.0990250" lon="-0.9994320">
        <ele>884.6</ele>
        <time>2019-07-13T14:14:08Z</time>
      </trkpt>
      <trkpt lat="43.0990570" lon="-0.9995620">
        <ele>885.5</ele>
        <time>2019-07-13T14:14:15Z</time>
      </trkpt>
      <trkpt lat="43.0990810" lon="-0.9996890">
        <ele>886.1</ele>
        <time>2019-07-13T14:14:22Z</time>
      </trkpt>
      <trkpt lat="43.0991070" lon="-0.9998130">
        <ele>886.7</ele>
        <time>2019-07-13T14:14:29Z</time>
      </trkpt>
      <trkpt lat="43.0991270" lon="-0.9999390">
        <ele>887.5</ele>
        <time>2019-07-13T14:14:36Z</time>
      </trkpt>
      <trkpt lat="43.0991580" lon="-1.0000660">
        <ele>888.4</ele>
        <time>2019-07-13T14:14:43Z</time>
      </trkpt>
      <trkpt lat="43.0991900" lon="-1.0001870">
        <ele>889.1</ele>
        <time>2019-07-13T14:14:50Z</time>
      </trkpt>
      <trkpt lat="43.0992100" lon="-1.0003130">
        <ele>889.9</ele>
        <time>2019-07-13T14:14:57Z</time>
      </trkpt>
      <trkpt lat="43.0992230" lon="-1.0004410">
        <ele>890.7</ele>
        <time>2019-07-13T14:15:04Z</time>
      </trkpt>
      <trkpt lat="43.0992420" lon="-1.0005670">
        <ele>891.4</ele>
        <time>2019-07-13T14:15:11Z</time>
      </trkpt>
      <trkpt lat="43.0992580" lon="-1.0007010">
        <ele>892.4</ele>
        <time>2019-07-13T14:15:18Z</time>
      </trkpt>
      <trkpt lat="43.0992700" lon="-1.0008400">
        <ele>893.2</ele>
        <time>2019-07-13T14:15:26Z</time>
      </trkpt>
      <trkpt lat="43.0992840" lon="-1.0009650">
        <ele>893.9</ele>
        <time>2019-07-13T14:15:33Z</time>
      </trkpt>
      <trkpt lat="43.0992910" lon="-1.0010920">
        <ele>894.6</ele>
        <time>2019-07-13T14:15:40Z</time>
      </trkpt>
      <trkpt lat="43.0992850" lon="-1.0012210">
        <ele>895.2</ele>
        <time>2019-07-13T14:15:47Z</time>
      </trkpt>
      <trkpt lat="43.0992950" lon="-1.0013490">
        <ele>895.8</ele>
        <time>2019-07-13T14:15:54Z</time>
      </trkpt>
      <trkpt lat="43.0992990" lon="-1.0014810">
        <ele>896.5</ele>
        <time>2019-07-13T14:16:01Z</time>
      </trkpt>
      <trkpt lat="43.0993010" lon="-1.0016070">
        <ele>897.3</ele>
        <time>2019-07-13T14:16:08Z</time>
      </trkpt>
      <trkpt lat="43.0993110" lon="-1.0017370">
        <ele>897.9</ele>
        <time>2019-07-13T14:16:15Z</time>
      </trkpt>
      <trkpt lat="43.0993000" lon="-1.0018750">
        <ele>898.5</ele>
        <time>2019-07-13T14:16:22Z</time>
      </trkpt>
      <trkpt lat="43.0992930" lon="-1.0020140">
        <ele>899.1</ele>
        <time>2019-07-13T14:16:29Z</time>
      </trkpt>
      <trkpt lat="43.0992760" lon="-1.0021400">
        <ele>899.6</ele>
        <time>2019-07-13T14:16:36Z</time>
      </trkpt>
      <trkpt lat="43.0992720" lon="-1.0022710">
        <ele>900.2</ele>
        <time>2019-07-13T14:16:43Z</time>
      </trkpt>
      <trkpt lat="43.0992360" lon="-1.0023910">
        <ele>900.8</ele>
        <time>2019-07-13T14:16:50Z</time>
      </trkpt>
      <trkpt lat="43.0992380" lon="-1.0025250">
        <ele>901.3</ele>
        <time>2019-07-13T14:16:57Z</time>
      </trkpt>
      <trkpt lat="43.0992180" lon="-1.0026450">
        <ele>901.8</ele>
        <time>2019-07-13T14:17:03Z</time>
      </trkpt>
      <trkpt lat="43.0991910" lon="-1.0027680">
        <ele>902.2</ele>
        <time>2019-07-13T14:17:10Z</time>
      </trkpt>
      <trkpt lat="43.0991490" lon="-1.0028810">
        <ele>902.5</ele>
        <time>2019-07-13T14:17:16Z</time>
      </trkpt>
      <trkpt lat="43.0991180" lon="-1.0030140">
        <ele>902.8</ele>
        <time>2019-07-13T14:17:23Z</time>
      </trkpt>
      <trkpt lat="43.0990650" lon="-1.0031190">
        <ele>903.0</ele>
        <time>2019-07-13T14:17:29Z</time>
      </trkpt>
      <trkpt lat="43.0990270" lon="-1.0032500">
        <ele>903.2</ele>
        <time>2019-07-13T14:17:36Z</time>
      </trkpt>
      <trkpt lat="43.0989960" lon="-1.0033740">
        <ele>903.4</ele>
        <time>2019-07-13T14:17:43Z</time>
      </trkpt>
      <trkpt lat="43.0989570" lon="-1.0035060">
        <ele>903.6</ele>
        <time>2019-07-13T14:17:50Z</time>
      </trkpt>
      <trkpt lat="43.0989210" lon="-1.0036370">
        <ele>903.8</ele>
        <time>2019-07-13T14:17:56Z</time>
      </trkpt>
      <trkpt lat="43.0988970" lon="-1.0037440">
        <ele>903.9</ele>
        <time>2019-07-13T14:18:05Z</time>
      </trkpt>
      <trkpt lat="43.0988380" lon="-1.0038600">
        <ele>904.3</ele>
        <time>2019-07-13T14:22:54Z</time>
      </trkpt>
      <trkpt lat="43.0988100" lon="-1.0039850">
        <ele>904.7</ele>
        <time>2019-07-13T14:23:00Z</time>
      </trkpt>
      <trkpt lat="43.0987600" lon="-1.0041160">
        <ele>905.1</ele>
        <time>2019-07-13T14:23:06Z</time>
      </trkpt>
      <trkpt lat="43.0987130" lon="-1.0042460">
        <ele>905.4</ele>
        <time>2019-07-13T14:23:11Z</time>
      </trkpt>
      <trkpt lat="43.0986510" lon="-1.0043660">
        <ele>905.8</ele>
        <time>2019-07-13T14:23:16Z</time>
      </trkpt>
      <trkpt lat="43.0985970" lon="-1.0044830">
        <ele>906.2</ele>
        <time>2019-07-13T14:23:21Z</time>
      </trkpt>
      <trkpt lat="43.0985370" lon="-1.0046020">
        <ele>906.8</ele>
        <time>2019-07-13T14:23:27Z</time>
      </trkpt>
      <trkpt lat="43.0984890" lon="-1.0047160">
        <ele>907.3</ele>
        <time>2019-07-13T14:23:33Z</time>
      </trkpt>
      <trkpt lat="43.0984420" lon="-1.0048270">
        <ele>907.9</ele>
        <time>2019-07-13T14:23:40Z</time>
      </trkpt>
      <trkpt lat="43.0983940" lon="-1.0049410">
        <ele>908.5</ele>
        <time>2019-07-13T14:23:47Z</time>
      </trkpt>
      <trkpt lat="43.0983360" lon="-1.0050420">
        <ele>908.6</ele>
        <time>2019-07-13T14:23:54Z</time>
      </trkpt>
      <trkpt lat="43.0982770" lon="-1.0051390">
        <ele>908.5</ele>
        <time>2019-07-13T14:24:01Z</time>
      </trkpt>
      <trkpt lat="43.0982270" lon="-1.0052460">
        <ele>908.4</ele>
        <time>2019-07-13T14:24:08Z</time>
      </trkpt>
      <trkpt lat="43.0981710" lon="-1.0053530">
        <ele>909.4</ele>
        <time>2019-07-13T14:24:16Z</time>
      </trkpt>
      <trkpt lat="43.0981110" lon="-1.0054550">
        <ele>910.5</ele>
        <time>2019-07-13T14:24:24Z</time>
      </trkpt>
      <trkpt lat="43.0980450" lon="-1.0055470">
        <ele>911.6</ele>
        <time>2019-07-13T14:24:31Z</time>
      </trkpt>
      <trkpt lat="43.0980000" lon="-1.0056670">
        <ele>912.5</ele>
        <time>2019-07-13T14:24:39Z</time>
      </trkpt>
      <trkpt lat="43.0979480" lon="-1.0057740">
        <ele>913.3</ele>
        <time>2019-07-13T14:24:46Z</time>
      </trkpt>
      <trkpt lat="43.0978970" lon="-1.0058910">
        <ele>914.1</ele>
        <time>2019-07-13T14:24:54Z</time>
      </trkpt>
      <trkpt lat="43.0978290" lon="-1.0059770">
        <ele>915.2</ele>
        <time>2019-07-13T14:25:01Z</time>
      </trkpt>
      <trkpt lat="43.0977590" lon="-1.0060860">
        <ele>916.2</ele>
        <time>2019-07-13T14:25:10Z</time>
      </trkpt>
      <trkpt lat="43.0977000" lon="-1.0061980">
        <ele>917.0</ele>
        <time>2019-07-13T14:25:18Z</time>
      </trkpt>
      <trkpt lat="43.0976320" lon="-1.0062920">
        <ele>917.8</ele>
        <time>2019-07-13T14:25:25Z</time>
      </trkpt>
      <trkpt lat="43.0975790" lon="-1.0063980">
        <ele>918.7</ele>
        <time>2019-07-13T14:25:32Z</time>
      </trkpt>
      <trkpt lat="43.0975200" lon="-1.0064950">
        <ele>919.6</ele>
        <time>2019-07-13T14:25:39Z</time>
      </trkpt>
      <trkpt lat="43.0974690" lon="-1.0066000">
        <ele>920.4</ele>
        <time>2019-07-13T14:25:46Z</time>
      </trkpt>
      <trkpt lat="43.0974230" lon="-1.0067060">
        <ele>921.2</ele>
        <time>2019-07-13T14:25:53Z</time>
      </trkpt>
      <trkpt lat="43.0973690" lon="-1.0068220">
        <ele>922.0</ele>
        <time>2019-07-13T14:26:01Z</time>
      </trkpt>
      <trkpt lat="43.0973140" lon="-1.0069270">
        <ele>922.8</ele>
        <time>2019-07-13T14:26:08Z</time>
      </trkpt>
      <trkpt lat="43.0972660" lon="-1.0070350">
        <ele>923.6</ele>
        <time>2019-07-13T14:26:15Z</time>
      </trkpt>
      <trkpt lat="43.0972170" lon="-1.0071440">
        <ele>924.3</ele>
        <time>2019-07-13T14:26:22Z</time>
      </trkpt>
      <trkpt lat="43.0971540" lon="-1.0072450">
        <ele>925.1</ele>
        <time>2019-07-13T14:26:30Z</time>
      </trkpt>
      <trkpt lat="43.0970980" lon="-1.0073530">
        <ele>925.9</ele>
        <time>2019-07-13T14:26:37Z</time>
      </trkpt>
      <trkpt lat="43.0970360" lon="-1.0074480">
        <ele>926.6</ele>
        <time>2019-07-13T14:26:45Z</time>
      </trkpt>
      <trkpt lat="43.0970120" lon="-1.0075790">
        <ele>927.4</ele>
        <time>2019-07-13T14:26:52Z</time>
      </trkpt>
      <trkpt lat="43.0969590" lon="-1.0076920">
        <ele>928.2</ele>
        <time>2019-07-13T14:26:59Z</time>
      </trkpt>
      <trkpt lat="43.0969010" lon="-1.0078050">
        <ele>929.0</ele>
        <time>2019-07-13T14:27:06Z</time>
      </trkpt>
      <trkpt lat="43.0968470" lon="-1.0079170">
        <ele>929.9</ele>
        <time>2019-07-13T14:27:13Z</time>
      </trkpt>
      <trkpt lat="43.0967990" lon="-1.0080310">
        <ele>930.7</ele>
        <time>2019-07-13T14:27:21Z</time>
      </trkpt>
      <trkpt lat="43.0967480" lon="-1.0081570">
        <ele>931.5</ele>
        <time>2019-07-13T14:27:28Z</time>
      </trkpt>
      <trkpt lat="43.0966960" lon="-1.0082590">
        <ele>932.2</ele>
        <time>2019-07-13T14:27:35Z</time>
      </trkpt>
      <trkpt lat="43.0966390" lon="-1.0083600">
        <ele>932.8</ele>
        <time>2019-07-13T14:27:42Z</time>
      </trkpt>
      <trkpt lat="43.0965710" lon="-1.0084510">
        <ele>933.5</ele>
        <time>2019-07-13T14:27:48Z</time>
      </trkpt>
      <trkpt lat="43.0965190" lon="-1.0085510">
        <ele>934.2</ele>
        <time>2019-07-13T14:27:54Z</time>
      </trkpt>
      <trkpt lat="43.0964660" lon="-1.0086550">
        <ele>935.1</ele>
        <time>2019-07-13T14:28:01Z</time>
      </trkpt>
      <trkpt lat="43.0964140" lon="-1.0087720">
        <ele>935.9</ele>
        <time>2019-07-13T14:28:07Z</time>
      </trkpt>
      <trkpt lat="43.0963670" lon="-1.0088930">
        <ele>936.6</ele>
        <time>2019-07-13T14:28:14Z</time>
      </trkpt>
      <trkpt lat="43.0963360" lon="-1.0090210">
        <ele>937.3</ele>
        <time>2019-07-13T14:28:21Z</time>
      </trkpt>
      <trkpt lat="43.0963050" lon="-1.0091520">
        <ele>938.1</ele>
        <time>2019-07-13T14:28:27Z</time>
      </trkpt>
      <trkpt lat="43.0962710" lon="-1.0092790">
        <ele>938.8</ele>
        <time>2019-07-13T14:28:33Z</time>
      </trkpt>
      <trkpt lat="43.0962350" lon="-1.0094090">
        <ele>939.7</ele>
        <time>2019-07-13T14:28:39Z</time>
      </trkpt>
      <trkpt lat="43.0961870" lon="-1.0095200">
        <ele>940.7</ele>
        <time>2019-07-13T14:28:45Z</time>
      </trkpt>
      <trkpt lat="43.0961650" lon="-1.0096420">
        <ele>941.6</ele>
        <time>2019-07-13T14:28:51Z</time>
      </trkpt>
      <trkpt lat="43.0961090" lon="-1.0097550">
        <ele>942.5</ele>
        <time>2019-07-13T14:28:58Z</time>
      </trkpt>
      <trkpt lat="43.0960850" lon="-1.0098800">
        <ele>943.4</ele>
        <time>2019-07-13T14:29:05Z</time>
      </trkpt>
      <trkpt lat="43.0960250" lon="-1.0099970">
        <ele>944.0</ele>
        <time>2019-07-13T14:29:12Z</time>
      </trkpt>
      <trkpt lat="43.0959900" lon="-1.0101310">
        <ele>944.6</ele>
        <time>2019-07-13T14:29:19Z</time>
      </trkpt>
      <trkpt lat="43.0959370" lon="-1.0102400">
        <ele>945.3</ele>
        <time>2019-07-13T14:29:25Z</time>
      </trkpt>
      <trkpt lat="43.0958980" lon="-1.0103560">
        <ele>945.8</ele>
        <time>2019-07-13T14:29:32Z</time>
      </trkpt>
      <trkpt lat="43.0958530" lon="-1.0104870">
        <ele>946.4</ele>
        <time>2019-07-13T14:29:40Z</time>
      </trkpt>
      <trkpt lat="43.0958200" lon="-1.0106030">
        <ele>946.9</ele>
        <time>2019-07-13T14:29:47Z</time>
      </trkpt>
      <trkpt lat="43.0957750" lon="-1.0107240">
        <ele>947.5</ele>
        <time>2019-07-13T14:29:54Z</time>
      </trkpt>
      <trkpt lat="43.0957490" lon="-1.0108420">
        <ele>947.9</ele>
        <time>2019-07-13T14:30:01Z</time>
      </trkpt>
      <trkpt lat="43.0957230" lon="-1.0109630">
        <ele>948.3</ele>
        <time>2019-07-13T14:30:08Z</time>
      </trkpt>
      <trkpt lat="43.0956840" lon="-1.0110900">
        <ele>948.8</ele>
        <time>2019-07-13T14:30:16Z</time>
      </trkpt>
      <trkpt lat="43.0956420" lon="-1.0112030">
        <ele>949.2</ele>
        <time>2019-07-13T14:30:23Z</time>
      </trkpt>
      <trkpt lat="43.0955960" lon="-1.0113200">
        <ele>949.7</ele>
        <time>2019-07-13T14:30:30Z</time>
      </trkpt>
      <trkpt lat="43.0955440" lon="-1.0114430">
        <ele>950.2</ele>
        <time>2019-07-13T14:30:37Z</time>
      </trkpt>
      <trkpt lat="43.0954820" lon="-1.0115610">
        <ele>950.7</ele>
        <time>2019-07-13T14:30:43Z</time>
      </trkpt>
      <trkpt lat="43.0954310" lon="-1.0116790">
        <ele>951.2</ele>
        <time>2019-07-13T14:30:49Z</time>
      </trkpt>
      <trkpt lat="43.0953760" lon="-1.0117930">
        <ele>951.6</ele>
        <time>2019-07-13T14:30:55Z</time>
      </trkpt>
      <trkpt lat="43.0953430" lon="-1.0119230">
        <ele>952.0</ele>
        <time>2019-07-13T14:31:01Z</time>
      </trkpt>
      <trkpt lat="43.0953120" lon="-1.0120430">
        <ele>952.3</ele>
        <time>2019-07-13T14:31:07Z</time>
      </trkpt>
      <trkpt lat="43.0952740" lon="-1.0121670">
        <ele>952.7</ele>
        <time>2019-07-13T14:31:13Z</time>
      </trkpt>
      <trkpt lat="43.0952430" lon="-1.0122830">
        <ele>953.1</ele>
        <time>2019-07-13T14:31:19Z</time>
      </trkpt>
      <trkpt lat="43.0952100" lon="-1.0124070">
        <ele>953.5</ele>
        <time>2019-07-13T14:31:25Z</time>
      </trkpt>
      <trkpt lat="43.0951780" lon="-1.0125370">
        <ele>953.9</ele>
        <time>2019-07-13T14:31:32Z</time>
      </trkpt>
      <trkpt lat="43.0951430" lon="-1.0126560">
        <ele>954.3</ele>
        <time>2019-07-13T14:31:38Z</time>
      </trkpt>
      <trkpt lat="43.0950990" lon="-1.0127740">
        <ele>954.7</ele>
        <time>2019-07-13T14:31:44Z</time>
      </trkpt>
      <trkpt lat="43.0950570" lon="-1.0129000">
        <ele>955.1</ele>
        <time>2019-07-13T14:31:51Z</time>
      </trkpt>
      <trkpt lat="43.0950260" lon="-1.0130280">
        <ele>955.3</ele>
        <time>2019-07-13T14:31:57Z</time>
      </trkpt>
      <trkpt lat="43.0949780" lon="-1.0131430">
        <ele>955.6</ele>
        <time>2019-07-13T14:32:03Z</time>
      </trkpt>
      <trkpt lat="43.0949450" lon="-1.0132700">
        <ele>955.8</ele>
        <time>2019-07-13T14:32:09Z</time>
      </trkpt>
      <trkpt lat="43.0949100" lon="-1.0133980">
        <ele>956.0</ele>
        <time>2019-07-13T14:32:15Z</time>
      </trkpt>
      <trkpt lat="43.0948800" lon="-1.0135230">
        <ele>956.2</ele>
        <time>2019-07-13T14:32:21Z</time>
      </trkpt>
      <trkpt lat="43.0948660" lon="-1.0136580">
        <ele>956.3</ele>
        <time>2019-07-13T14:32:27Z</time>
      </trkpt>
      <trkpt lat="43.0948390" lon="-1.0137880">
        <ele>956.4</ele>
        <time>2019-07-13T14:32:33Z</time>
      </trkpt>
      <trkpt lat="43.0948170" lon="-1.0139340">
        <ele>956.5</ele>
        <time>2019-07-13T14:32:39Z</time>
      </trkpt>
      <trkpt lat="43.0947880" lon="-1.0140690">
        <ele>956.6</ele>
        <time>2019-07-13T14:32:45Z</time>
      </trkpt>
      <trkpt lat="43.0947630" lon="-1.0142000">
        <ele>956.7</ele>
        <time>2019-07-13T14:32:51Z</time>
      </trkpt>
      <trkpt lat="43.0947510" lon="-1.0143230">
        <ele>956.8</ele>
        <time>2019-07-13T14:32:57Z</time>
      </trkpt>
      <trkpt lat="43.0947450" lon="-1.0144600">
        <ele>957.1</ele>
        <time>2019-07-13T14:33:04Z</time>
      </trkpt>
      <trkpt lat="43.0947470" lon="-1.0145870">
        <ele>957.3</ele>
        <time>2019-07-13T14:33:11Z</time>
      </trkpt>
      <trkpt lat="43.0947530" lon="-1.0147170">
        <ele>958.8</ele>
        <time>2019-07-13T14:33:17Z</time>
      </trkpt>
      <trkpt lat="43.0947450" lon="-1.0148510">
        <ele>960.7</ele>
        <time>2019-07-13T14:33:23Z</time>
      </trkpt>
      <trkpt lat="43.0947500" lon="-1.0149750">
        <ele>962.5</ele>
        <time>2019-07-13T14:33:29Z</time>
      </trkpt>
      <trkpt lat="43.0947550" lon="-1.0151020">
        <ele>964.4</ele>
        <time>2019-07-13T14:33:35Z</time>
      </trkpt>
      <trkpt lat="43.0947540" lon="-1.0152330">
        <ele>966.0</ele>
        <time>2019-07-13T14:33:42Z</time>
      </trkpt>
      <trkpt lat="43.0947390" lon="-1.0153750">
        <ele>966.8</ele>
        <time>2019-07-13T14:33:48Z</time>
      </trkpt>
      <trkpt lat="43.0947400" lon="-1.0154240">
        <ele>966.7</ele>
        <time>2019-07-13T14:33:55Z</time>
      </trkpt>
      <trkpt lat="43.0947430" lon="-1.0152920">
        <ele>966.4</ele>
        <time>2019-07-13T14:36:51Z</time>
      </trkpt>
      <trkpt lat="43.0947340" lon="-1.0151590">
        <ele>965.1</ele>
        <time>2019-07-13T14:37:00Z</time>
      </trkpt>
      <trkpt lat="43.0947330" lon="-1.0150230">
        <ele>964.0</ele>
        <time>2019-07-13T14:37:09Z</time>
      </trkpt>
      <trkpt lat="43.0947320" lon="-1.0148880">
        <ele>962.9</ele>
        <time>2019-07-13T14:37:18Z</time>
      </trkpt>
      <trkpt lat="43.0947170" lon="-1.0147660">
        <ele>961.9</ele>
        <time>2019-07-13T14:37:26Z</time>
      </trkpt>
      <trkpt lat="43.0946940" lon="-1.0146340">
        <ele>960.8</ele>
        <time>2019-07-13T14:37:33Z</time>
      </trkpt>
      <trkpt lat="43.0946680" lon="-1.0145510">
        <ele>960.1</ele>
        <time>2019-07-13T14:37:41Z</time>
      </trkpt>
      <trkpt lat="43.0947490" lon="-1.0147000">
        <ele>958.6</ele>
        <time>2019-07-13T15:23:11Z</time>
      </trkpt>
      <trkpt lat="43.0947480" lon="-1.0148320">
        <ele>960.5</ele>
        <time>2019-07-13T15:23:17Z</time>
      </trkpt>
      <trkpt lat="43.0947520" lon="-1.0149640">
        <ele>962.4</ele>
        <time>2019-07-13T15:23:23Z</time>
      </trkpt>
      <trkpt lat="43.0947560" lon="-1.0150950">
        <ele>964.3</ele>
        <time>2019-07-13T15:23:29Z</time>
      </trkpt>
      <trkpt lat="43.0947540" lon="-1.0152280">
        <ele>966.0</ele>
        <time>2019-07-13T15:23:36Z</time>
      </trkpt>
      <trkpt lat="43.0947330" lon="-1.0153480">
        <ele>966.6</ele>
        <time>2019-07-13T15:23:42Z</time>
      </trkpt>
      <trkpt lat="43.0947240" lon="-1.0154720">
        <ele>967.2</ele>
        <time>2019-07-13T15:23:48Z</time>
      </trkpt>
      <trkpt lat="43.0947230" lon="-1.0155960">
        <ele>967.8</ele>
        <time>2019-07-13T15:23:54Z</time>
      </trkpt>
      <trkpt lat="43.0947080" lon="-1.0157220">
        <ele>968.3</ele>
        <time>2019-07-13T15:24:00Z</time>
      </trkpt>
      <trkpt lat="43.0947000" lon="-1.0158450">
        <ele>968.8</ele>
        <time>2019-07-13T15:24:06Z</time>
      </trkpt>
      <trkpt lat="43.0946830" lon="-1.0159750">
        <ele>969.4</ele>
        <time>2019-07-13T15:24:12Z</time>
      </trkpt>
      <trkpt lat="43.0946730" lon="-1.0161120">
        <ele>970.1</ele>
        <time>2019-07-13T15:24:19Z</time>
      </trkpt>
      <trkpt lat="43.0946440" lon="-1.0162500">
        <ele>970.8</ele>
        <time>2019-07-13T15:24:26Z</time>
      </trkpt>
      <trkpt lat="43.0946170" lon="-1.0163720">
        <ele>971.5</ele>
        <time>2019-07-13T15:24:32Z</time>
      </trkpt>
      <trkpt lat="43.0945700" lon="-1.0164890">
        <ele>972.2</ele>
        <time>2019-07-13T15:24:39Z</time>
      </trkpt>
      <trkpt lat="43.0945150" lon="-1.0165910">
        <ele>972.9</ele>
        <time>2019-07-13T15:24:45Z</time>
      </trkpt>
      <trkpt lat="43.0944420" lon="-1.0166840">
        <ele>973.4</ele>
        <time>2019-07-13T15:24:52Z</time>
      </trkpt>
      <trkpt lat="43.0943610" lon="-1.0167600">
        <ele>973.9</ele>
        <time>2019-07-13T15:24:59Z</time>
      </trkpt>
      <trkpt lat="43.0942870" lon="-1.0168660">
        <ele>974.5</ele>
        <time>2019-07-13T15:25:05Z</time>
      </trkpt>
      <trkpt lat="43.0942520" lon="-1.0170050">
        <ele>975.0</ele>
        <time>2019-07-13T15:25:11Z</time>
      </trkpt>
      <trkpt lat="43.0942400" lon="-1.0171500">
        <ele>975.3</ele>
        <time>2019-07-13T15:25:17Z</time>
      </trkpt>
      <trkpt lat="43.0942450" lon="-1.0172740">
        <ele>975.6</ele>
        <time>2019-07-13T15:25:23Z</time>
      </trkpt>
      <trkpt lat="43.0942490" lon="-1.0174120">
        <ele>976.1</ele>
        <time>2019-07-13T15:25:30Z</time>
      </trkpt>
      <trkpt lat="43.0942640" lon="-1.0175420">
        <ele>976.6</ele>
        <time>2019-07-13T15:25:37Z</time>
      </trkpt>
      <trkpt lat="43.0942800" lon="-1.0176760">
        <ele>977.2</ele>
        <time>2019-07-13T15:25:44Z</time>
      </trkpt>
      <trkpt lat="43.0942950" lon="-1.0178030">
        <ele>977.7</ele>
        <time>2019-07-13T15:25:51Z</time>
      </trkpt>
      <trkpt lat="43.0943200" lon="-1.0179350">
        <ele>978.3</ele>
        <time>2019-07-13T15:25:58Z</time>
      </trkpt>
      <trkpt lat="43.0943270" lon="-1.0180600">
        <ele>978.9</ele>
        <time>2019-07-13T15:26:04Z</time>
      </trkpt>
      <trkpt lat="43.0943440" lon="-1.0181820">
        <ele>979.5</ele>
        <time>2019-07-13T15:26:10Z</time>
      </trkpt>
      <trkpt lat="43.0943590" lon="-1.0183050">
        <ele>980.1</ele>
        <time>2019-07-13T15:26:16Z</time>
      </trkpt>
      <trkpt lat="43.0943710" lon="-1.0184280">
        <ele>980.7</ele>
        <time>2019-07-13T15:26:22Z</time>
      </trkpt>
      <trkpt lat="43.0943840" lon="-1.0185630">
        <ele>981.3</ele>
        <time>2019-07-13T15:26:29Z</time>
      </trkpt>
      <trkpt lat="43.0943920" lon="-1.0187050">
        <ele>982.1</ele>
        <time>2019-07-13T15:26:36Z</time>
      </trkpt>
      <trkpt lat="43.0943900" lon="-1.0188480">
        <ele>982.9</ele>
        <time>2019-07-13T15:26:43Z</time>
      </trkpt>
      <trkpt lat="43.0943790" lon="-1.0189730">
        <ele>983.6</ele>
        <time>2019-07-13T15:26:49Z</time>
      </trkpt>
      <trkpt lat="43.0943710" lon="-1.0191100">
        <ele>984.3</ele>
        <time>2019-07-13T15:26:56Z</time>
      </trkpt>
      <trkpt lat="43.0943600" lon="-1.0192320">
        <ele>985.0</ele>
        <time>2019-07-13T15:27:03Z</time>
      </trkpt>
      <trkpt lat="43.0942970" lon="-1.0193380">
        <ele>985.7</ele>
        <time>2019-07-13T15:27:11Z</time>
      </trkpt>
      <trkpt lat="43.0942070" lon="-1.0194040">
        <ele>986.4</ele>
        <time>2019-07-13T15:27:19Z</time>
      </trkpt>
      <trkpt lat="43.0941120" lon="-1.0194420">
        <ele>987.2</ele>
        <time>2019-07-13T15:27:26Z</time>
      </trkpt>
      <trkpt lat="43.0940210" lon="-1.0194490">
        <ele>987.9</ele>
        <time>2019-07-13T15:27:32Z</time>
      </trkpt>
      <trkpt lat="43.0939280" lon="-1.0194560">
        <ele>988.6</ele>
        <time>2019-07-13T15:27:38Z</time>
      </trkpt>
      <trkpt lat="43.0938450" lon="-1.0195210">
        <ele>989.2</ele>
        <time>2019-07-13T15:27:44Z</time>
      </trkpt>
      <trkpt lat="43.0938120" lon="-1.0196530">
        <ele>989.8</ele>
        <time>2019-07-13T15:27:50Z</time>
      </trkpt>
      <trkpt lat="43.0938040" lon="-1.0197800">
        <ele>990.3</ele>
        <time>2019-07-13T15:27:55Z</time>
      </trkpt>
      <trkpt lat="43.0937990" lon="-1.0199040">
        <ele>990.7</ele>
        <time>2019-07-13T15:28:00Z</time>
      </trkpt>
      <trkpt lat="43.0938010" lon="-1.0200510">
        <ele>991.2</ele>
        <time>2019-07-13T15:28:06Z</time>
      </trkpt>
      <trkpt lat="43.0937990" lon="-1.0201920">
        <ele>991.8</ele>
        <time>2019-07-13T15:28:12Z</time>
      </trkpt>
      <trkpt lat="43.0937880" lon="-1.0203360">
        <ele>992.3</ele>
        <time>2019-07-13T15:28:18Z</time>
      </trkpt>
      <trkpt lat="43.0937860" lon="-1.0204650">
        <ele>992.7</ele>
        <time>2019-07-13T15:28:24Z</time>
      </trkpt>
      <trkpt lat="43.0937760" lon="-1.0206060">
        <ele>993.1</ele>
        <time>2019-07-13T15:28:31Z</time>
      </trkpt>
      <trkpt lat="43.0937620" lon="-1.0207310">
        <ele>993.6</ele>
        <time>2019-07-13T15:28:37Z</time>
      </trkpt>
      <trkpt lat="43.0937430" lon="-1.0208620">
        <ele>994.1</ele>
        <time>2019-07-13T15:28:43Z</time>
      </trkpt>
      <trkpt lat="43.0937090" lon="-1.0209980">
        <ele>994.7</ele>
        <time>2019-07-13T15:28:50Z</time>
      </trkpt>
      <trkpt lat="43.0936810" lon="-1.0211310">
        <ele>995.3</ele>
        <time>2019-07-13T15:28:57Z</time>
      </trkpt>
      <trkpt lat="43.0936570" lon="-1.0212510">
        <ele>995.9</ele>
        <time>2019-07-13T15:29:03Z</time>
      </trkpt>
      <trkpt lat="43.0936310" lon="-1.0213720">
        <ele>996.6</ele>
        <time>2019-07-13T15:29:09Z</time>
      </trkpt>
      <trkpt lat="43.0936060" lon="-1.0214940">
        <ele>997.3</ele>
        <time>2019-07-13T15:29:16Z</time>
      </trkpt>
      <trkpt lat="43.0935870" lon="-1.0216150">
        <ele>998.1</ele>
        <time>2019-07-13T15:29:22Z</time>
      </trkpt>
      <trkpt lat="43.0935830" lon="-1.0217580">
        <ele>998.9</ele>
        <time>2019-07-13T15:29:29Z</time>
      </trkpt>
      <trkpt lat="43.0935860" lon="-1.0218840">
        <ele>999.7</ele>
        <time>2019-07-13T15:29:35Z</time>
      </trkpt>
      <trkpt lat="43.0936110" lon="-1.0220190">
        <ele>1000.6</ele>
        <time>2019-07-13T15:29:42Z</time>
      </trkpt>
      <trkpt lat="43.0936290" lon="-1.0221490">
        <ele>1001.5</ele>
        <time>2019-07-13T15:29:48Z</time>
      </trkpt>
      <trkpt lat="43.0936640" lon="-1.0222790">
        <ele>1002.4</ele>
        <time>2019-07-13T15:29:55Z</time>
      </trkpt>
      <trkpt lat="43.0937280" lon="-1.0223820">
        <ele>1003.2</ele>
        <time>2019-07-13T15:30:02Z</time>
      </trkpt>
      <trkpt lat="43.0937930" lon="-1.0224830">
        <ele>1004.1</ele>
        <time>2019-07-13T15:30:09Z</time>
      </trkpt>
      <trkpt lat="43.0938560" lon="-1.0225770">
        <ele>1004.9</ele>
        <time>2019-07-13T15:30:15Z</time>
      </trkpt>
      <trkpt lat="43.0939120" lon="-1.0226890">
        <ele>1005.8</ele>
        <time>2019-07-13T15:30:21Z</time>
      </trkpt>
      <trkpt lat="43.0939640" lon="-1.0227920">
        <ele>1006.6</ele>
        <time>2019-07-13T15:30:27Z</time>
      </trkpt>
      <trkpt lat="43.0940130" lon="-1.0229110">
        <ele>1007.5</ele>
        <time>2019-07-13T15:30:34Z</time>
      </trkpt>
      <trkpt lat="43.0940390" lon="-1.0230320">
        <ele>1008.2</ele>
        <time>2019-07-13T15:30:40Z</time>
      </trkpt>
      <trkpt lat="43.0940630" lon="-1.0231580">
        <ele>1008.9</ele>
        <time>2019-07-13T15:30:46Z</time>
      </trkpt>
      <trkpt lat="43.0940980" lon="-1.0232950">
        <ele>1009.6</ele>
        <time>2019-07-13T15:30:53Z</time>
      </trkpt>
      <trkpt lat="43.0941280" lon="-1.0234250">
        <ele>1010.4</ele>
        <time>2019-07-13T15:30:59Z</time>
      </trkpt>
      <trkpt lat="43.0941590" lon="-1.0235650">
        <ele>1011.3</ele>
        <time>2019-07-13T15:31:06Z</time>
      </trkpt>
      <trkpt lat="43.0941890" lon="-1.0236860">
        <ele>1012.0</ele>
        <time>2019-07-13T15:31:12Z</time>
      </trkpt>
      <trkpt lat="43.0942090" lon="-1.0238070">
        <ele>1012.7</ele>
        <time>2019-07-13T15:31:19Z</time>
      </trkpt>
      <trkpt lat="43.0941990" lon="-1.0239390">
        <ele>1013.4</ele>
        <time>2019-07-13T15:31:26Z</time>
      </trkpt>
      <trkpt lat="43.0941720" lon="-1.0240630">
        <ele>1014.1</ele>
        <time>2019-07-13T15:31:32Z</time>
      </trkpt>
      <trkpt lat="43.0941080" lon="-1.0241670">
        <ele>1014.9</ele>
        <time>2019-07-13T15:31:38Z</time>
      </trkpt>
      <trkpt lat="43.0940430" lon="-1.0242810">
        <ele>1015.7</ele>
        <time>2019-07-13T15:31:44Z</time>
      </trkpt>
      <trkpt lat="43.0940100" lon="-1.0243950">
        <ele>1016.4</ele>
        <time>2019-07-13T15:31:49Z</time>
      </trkpt>
      <trkpt lat="43.0940170" lon="-1.0245410">
        <ele>1017.1</ele>
        <time>2019-07-13T15:31:55Z</time>
      </trkpt>
      <trkpt lat="43.0940360" lon="-1.0246710">
        <ele>1017.6</ele>
        <time>2019-07-13T15:32:01Z</time>
      </trkpt>
      <trkpt lat="43.0940560" lon="-1.0247980">
        <ele>1018.1</ele>
        <time>2019-07-13T15:32:07Z</time>
      </trkpt>
      <trkpt lat="43.0940820" lon="-1.0249360">
        <ele>1018.7</ele>
        <time>2019-07-13T15:32:13Z</time>
      </trkpt>
      <trkpt lat="43.0941070" lon="-1.0250760">
        <ele>1019.2</ele>
        <time>2019-07-13T15:32:19Z</time>
      </trkpt>
      <trkpt lat="43.0941150" lon="-1.0252190">
        <ele>1019.8</ele>
        <time>2019-07-13T15:32:25Z</time>
      </trkpt>
      <trkpt lat="43.0941210" lon="-1.0253550">
        <ele>1020.3</ele>
        <time>2019-07-13T15:32:31Z</time>
      </trkpt>
      <trkpt lat="43.0941260" lon="-1.0254860">
        <ele>1020.8</ele>
        <time>2019-07-13T15:32:37Z</time>
      </trkpt>
      <trkpt lat="43.0941270" lon="-1.0256170">
        <ele>1021.2</ele>
        <time>2019-07-13T15:32:43Z</time>
      </trkpt>
      <trkpt lat="43.0941390" lon="-1.0257420">
        <ele>1021.7</ele>
        <time>2019-07-13T15:32:50Z</time>
      </trkpt>
      <trkpt lat="43.0941310" lon="-1.0258680">
        <ele>1022.2</ele>
        <time>2019-07-13T15:32:56Z</time>
      </trkpt>
      <trkpt lat="43.0940970" lon="-1.0259930">
        <ele>1022.7</ele>
        <time>2019-07-13T15:33:02Z</time>
      </trkpt>
      <trkpt lat="43.0940480" lon="-1.0261010">
        <ele>1023.2</ele>
        <time>2019-07-13T15:33:08Z</time>
      </trkpt>
      <trkpt lat="43.0939950" lon="-1.0262080">
        <ele>1023.8</ele>
        <time>2019-07-13T15:33:14Z</time>
      </trkpt>
      <trkpt lat="43.0939840" lon="-1.0263390">
        <ele>1024.4</ele>
        <time>2019-07-13T15:33:21Z</time>
      </trkpt>
      <trkpt lat="43.0940120" lon="-1.0264560">
        <ele>1024.9</ele>
        <time>2019-07-13T15:33:27Z</time>
      </trkpt>
      <trkpt lat="43.0940360" lon="-1.0266000">
        <ele>1025.6</ele>
        <time>2019-07-13T15:33:34Z</time>
      </trkpt>
      <trkpt lat="43.0940500" lon="-1.0267280">
        <ele>1026.2</ele>
        <time>2019-07-13T15:33:39Z</time>
      </trkpt>
      <trkpt lat="43.0940420" lon="-1.0268720">
        <ele>1027.1</ele>
        <time>2019-07-13T15:33:45Z</time>
      </trkpt>
      <trkpt lat="43.0940250" lon="-1.0270110">
        <ele>1027.7</ele>
        <time>2019-07-13T15:33:51Z</time>
      </trkpt>
      <trkpt lat="43.0940320" lon="-1.0271350">
        <ele>1028.2</ele>
        <time>2019-07-13T15:33:56Z</time>
      </trkpt>
      <trkpt lat="43.0940390" lon="-1.0272680">
        <ele>1028.8</ele>
        <time>2019-07-13T15:34:02Z</time>
      </trkpt>
      <trkpt lat="43.0940530" lon="-1.0274040">
        <ele>1029.4</ele>
        <time>2019-07-13T15:34:08Z</time>
      </trkpt>
      <trkpt lat="43.0940800" lon="-1.0275360">
        <ele>1030.2</ele>
        <time>2019-07-13T15:34:13Z</time>
      </trkpt>
      <trkpt lat="43.0941080" lon="-1.0276600">
        <ele>1030.6</ele>
        <time>2019-07-13T15:34:17Z</time>
      </trkpt>
      <trkpt lat="43.0941380" lon="-1.0277920">
        <ele>1031.1</ele>
        <time>2019-07-13T15:34:21Z</time>
      </trkpt>
      <trkpt lat="43.0941740" lon="-1.0279240">
        <ele>1031.5</ele>
        <time>2019-07-13T15:34:25Z</time>
      </trkpt>
      <trkpt lat="43.0942010" lon="-1.0280550">
        <ele>1031.8</ele>
        <time>2019-07-13T15:34:29Z</time>
      </trkpt>
      <trkpt lat="43.0942350" lon="-1.0281970">
        <ele>1031.9</ele>
        <time>2019-07-13T15:34:34Z</time>
      </trkpt>
      <trkpt lat="43.0942830" lon="-1.0283340">
        <ele>1032.1</ele>
        <time>2019-07-13T15:34:40Z</time>
      </trkpt>
      <trkpt lat="43.0943070" lon="-1.0284550">
        <ele>1032.3</ele>
        <time>2019-07-13T15:34:45Z</time>
      </trkpt>
      <trkpt lat="43.0943510" lon="-1.0285680">
        <ele>1032.7</ele>
        <time>2019-07-13T15:34:50Z</time>
      </trkpt>
      <trkpt lat="43.0943860" lon="-1.0286850">
        <ele>1033.0</ele>
        <time>2019-07-13T15:34:55Z</time>
      </trkpt>
      <trkpt lat="43.0944380" lon="-1.0287920">
        <ele>1033.2</ele>
        <time>2019-07-13T15:35:00Z</time>
      </trkpt>
      <trkpt lat="43.0944650" lon="-1.0289170">
        <ele>1033.4</ele>
        <time>2019-07-13T15:35:05Z</time>
      </trkpt>
      <trkpt lat="43.0945150" lon="-1.0290420">
        <ele>1033.5</ele>
        <time>2019-07-13T15:35:10Z</time>
      </trkpt>
      <trkpt lat="43.0945600" lon="-1.0291700">
        <ele>1033.5</ele>
        <time>2019-07-13T15:35:15Z</time>
      </trkpt>
      <trkpt lat="43.0945880" lon="-1.0292910">
        <ele>1033.6</ele>
        <time>2019-07-13T15:35:20Z</time>
      </trkpt>
      <trkpt lat="43.0946120" lon="-1.0294240">
        <ele>1033.7</ele>
        <time>2019-07-13T15:35:25Z</time>
      </trkpt>
      <trkpt lat="43.0946230" lon="-1.0295580">
        <ele>1033.8</ele>
        <time>2019-07-13T15:35:30Z</time>
      </trkpt>
      <trkpt lat="43.0946340" lon="-1.0297010">
        <ele>1033.9</ele>
        <time>2019-07-13T15:35:36Z</time>
      </trkpt>
      <trkpt lat="43.0946640" lon="-1.0298380">
        <ele>1033.9</ele>
        <time>2019-07-13T15:35:41Z</time>
      </trkpt>
      <trkpt lat="43.0946250" lon="-1.0299560">
        <ele>1034.0</ele>
        <time>2019-07-13T15:35:46Z</time>
      </trkpt>
      <trkpt lat="43.0945970" lon="-1.0300450">
        <ele>1034.1</ele>
        <time>2019-07-13T15:35:55Z</time>
      </trkpt>
      <trkpt lat="43.0946330" lon="-1.0301740">
        <ele>1034.1</ele>
        <time>2019-07-13T15:37:56Z</time>
      </trkpt>
      <trkpt lat="43.0946160" lon="-1.0302970">
        <ele>1034.2</ele>
        <time>2019-07-13T15:38:01Z</time>
      </trkpt>
      <trkpt lat="43.0945990" lon="-1.0304270">
        <ele>1034.3</ele>
        <time>2019-07-13T15:38:06Z</time>
      </trkpt>
      <trkpt lat="43.0945920" lon="-1.0305570">
        <ele>1034.4</ele>
        <time>2019-07-13T15:38:11Z</time>
      </trkpt>
      <trkpt lat="43.0945910" lon="-1.0306840">
        <ele>1034.5</ele>
        <time>2019-07-13T15:38:16Z</time>
      </trkpt>
      <trkpt lat="43.0945790" lon="-1.0308260">
        <ele>1034.7</ele>
        <time>2019-07-13T15:38:22Z</time>
      </trkpt>
      <trkpt lat="43.0945820" lon="-1.0309680">
        <ele>1035.0</ele>
        <time>2019-07-13T15:38:27Z</time>
      </trkpt>
      <trkpt lat="43.0946020" lon="-1.0311050">
        <ele>1035.4</ele>
        <time>2019-07-13T15:38:32Z</time>
      </trkpt>
      <trkpt lat="43.0946290" lon="-1.0312250">
        <ele>1035.8</ele>
        <time>2019-07-13T15:38:37Z</time>
      </trkpt>
      <trkpt lat="43.0946560" lon="-1.0313670">
        <ele>1036.2</ele>
        <time>2019-07-13T15:38:43Z</time>
      </trkpt>
      <trkpt lat="43.0946830" lon="-1.0315010">
        <ele>1036.6</ele>
        <time>2019-07-13T15:38:49Z</time>
      </trkpt>
      <trkpt lat="43.0946900" lon="-1.0316280">
        <ele>1037.1</ele>
        <time>2019-07-13T15:38:54Z</time>
      </trkpt>
      <trkpt lat="43.0947050" lon="-1.0317650">
        <ele>1037.7</ele>
        <time>2019-07-13T15:38:59Z</time>
      </trkpt>
      <trkpt lat="43.0947170" lon="-1.0318990">
        <ele>1038.3</ele>
        <time>2019-07-13T15:39:04Z</time>
      </trkpt>
      <trkpt lat="43.0947160" lon="-1.0320350">
        <ele>1039.0</ele>
        <time>2019-07-13T15:39:09Z</time>
      </trkpt>
      <trkpt lat="43.0947280" lon="-1.0321630">
        <ele>1039.6</ele>
        <time>2019-07-13T15:39:14Z</time>
      </trkpt>
      <trkpt lat="43.0947260" lon="-1.0322930">
        <ele>1040.1</ele>
        <time>2019-07-13T15:39:19Z</time>
      </trkpt>
      <trkpt lat="43.0947310" lon="-1.0324350">
        <ele>1040.8</ele>
        <time>2019-07-13T15:39:24Z</time>
      </trkpt>
      <trkpt lat="43.0947270" lon="-1.0325820">
        <ele>1041.4</ele>
        <time>2019-07-13T15:39:29Z</time>
      </trkpt>
      <trkpt lat="43.0947000" lon="-1.0327100">
        <ele>1041.5</ele>
        <time>2019-07-13T15:39:34Z</time>
      </trkpt>
      <trkpt lat="43.0946660" lon="-1.0328310">
        <ele>1041.5</ele>
        <time>2019-07-13T15:39:38Z</time>
      </trkpt>
      <trkpt lat="43.0946220" lon="-1.0329600">
        <ele>1041.5</ele>
        <time>2019-07-13T15:39:42Z</time>
      </trkpt>
      <trkpt lat="43.0945850" lon="-1.0330740">
        <ele>1041.5</ele>
        <time>2019-07-13T15:39:45Z</time>
      </trkpt>
      <trkpt lat="43.0945390" lon="-1.0332030">
        <ele>1041.5</ele>
        <time>2019-07-13T15:39:48Z</time>
      </trkpt>
      <trkpt lat="43.0944900" lon="-1.0333440">
        <ele>1041.5</ele>
        <time>2019-07-13T15:39:51Z</time>
      </trkpt>
      <trkpt lat="43.0944390" lon="-1.0334760">
        <ele>1041.5</ele>
        <time>2019-07-13T15:39:54Z</time>
      </trkpt>
      <trkpt lat="43.0943890" lon="-1.0336100">
        <ele>1041.5</ele>
        <time>2019-07-13T15:39:57Z</time>
      </trkpt>
      <trkpt lat="43.0943430" lon="-1.0337400">
        <ele>1041.5</ele>
        <time>2019-07-13T15:40:00Z</time>
      </trkpt>
      <trkpt lat="43.0942910" lon="-1.0338750">
        <ele>1041.5</ele>
        <time>2019-07-13T15:40:03Z</time>
      </trkpt>
      <trkpt lat="43.0942460" lon="-1.0339940">
        <ele>1041.4</ele>
        <time>2019-07-13T15:40:06Z</time>
      </trkpt>
      <trkpt lat="43.0941930" lon="-1.0341160">
        <ele>1041.2</ele>
        <time>2019-07-13T15:40:09Z</time>
      </trkpt>
      <trkpt lat="43.0941360" lon="-1.0342530">
        <ele>1040.9</ele>
        <time>2019-07-13T15:40:12Z</time>
      </trkpt>
      <trkpt lat="43.0940770" lon="-1.0344050">
        <ele>1040.3</ele>
        <time>2019-07-13T15:40:15Z</time>
      </trkpt>
      <trkpt lat="43.0940150" lon="-1.0345640">
        <ele>1039.8</ele>
        <time>2019-07-13T15:40:18Z</time>
      </trkpt>
      <trkpt lat="43.0939740" lon="-1.0346770">
        <ele>1039.4</ele>
        <time>2019-07-13T15:40:20Z</time>
      </trkpt>
      <trkpt lat="43.0939290" lon="-1.0347930">
        <ele>1039.2</ele>
        <time>2019-07-13T15:40:22Z</time>
      </trkpt>
      <trkpt lat="43.0938860" lon="-1.0349070">
        <ele>1039.0</ele>
        <time>2019-07-13T15:40:24Z</time>
      </trkpt>
      <trkpt lat="43.0938470" lon="-1.0350190">
        <ele>1038.7</ele>
        <time>2019-07-13T15:40:26Z</time>
      </trkpt>
      <trkpt lat="43.0938060" lon="-1.0351640">
        <ele>1038.3</ele>
        <time>2019-07-13T15:40:29Z</time>
      </trkpt>
      <trkpt lat="43.0937730" lon="-1.0353130">
        <ele>1037.7</ele>
        <time>2019-07-13T15:40:33Z</time>
      </trkpt>
      <trkpt lat="43.0937530" lon="-1.0354460">
        <ele>1037.3</ele>
        <time>2019-07-13T15:40:37Z</time>
      </trkpt>
      <trkpt lat="43.0937320" lon="-1.0355740">
        <ele>1037.0</ele>
        <time>2019-07-13T15:40:41Z</time>
      </trkpt>
      <trkpt lat="43.0937210" lon="-1.0357170">
        <ele>1036.9</ele>
        <time>2019-07-13T15:40:45Z</time>
      </trkpt>
      <trkpt lat="43.0937170" lon="-1.0358850">
        <ele>1036.9</ele>
        <time>2019-07-13T15:40:49Z</time>
      </trkpt>
      <trkpt lat="43.0937070" lon="-1.0360140">
        <ele>1036.9</ele>
        <time>2019-07-13T15:40:52Z</time>
      </trkpt>
      <trkpt lat="43.0937010" lon="-1.0361470">
        <ele>1036.9</ele>
        <time>2019-07-13T15:40:55Z</time>
      </trkpt>
      <trkpt lat="43.0936940" lon="-1.0362710">
        <ele>1036.9</ele>
        <time>2019-07-13T15:40:58Z</time>
      </trkpt>
      <trkpt lat="43.0936810" lon="-1.0364170">
        <ele>1036.9</ele>
        <time>2019-07-13T15:41:02Z</time>
      </trkpt>
      <trkpt lat="43.0936680" lon="-1.0365660">
        <ele>1036.9</ele>
        <time>2019-07-13T15:41:06Z</time>
      </trkpt>
      <trkpt lat="43.0936750" lon="-1.0367060">
        <ele>1036.9</ele>
        <time>2019-07-13T15:41:10Z</time>
      </trkpt>
      <trkpt lat="43.0936880" lon="-1.0368550">
        <ele>1036.9</ele>
        <time>2019-07-13T15:41:14Z</time>
      </trkpt>
      <trkpt lat="43.0937260" lon="-1.0369960">
        <ele>1036.9</ele>
        <time>2019-07-13T15:41:18Z</time>
      </trkpt>
      <trkpt lat="43.0937620" lon="-1.0371400">
        <ele>1036.9</ele>
        <time>2019-07-13T15:41:22Z</time>
      </trkpt>
      <trkpt lat="43.0938110" lon="-1.0372780">
        <ele>1036.9</ele>
        <time>2019-07-13T15:41:26Z</time>
      </trkpt>
      <trkpt lat="43.0938660" lon="-1.0374050">
        <ele>1036.9</ele>
        <time>2019-07-13T15:41:30Z</time>
      </trkpt>
      <trkpt lat="43.0939220" lon="-1.0375160">
        <ele>1036.9</ele>
        <time>2019-07-13T15:41:34Z</time>
      </trkpt>
      <trkpt lat="43.0939770" lon="-1.0376500">
        <ele>1036.9</ele>
        <time>2019-07-13T15:41:39Z</time>
      </trkpt>
      <trkpt lat="43.0940290" lon="-1.0377670">
        <ele>1036.9</ele>
        <time>2019-07-13T15:41:43Z</time>
      </trkpt>
      <trkpt lat="43.0940820" lon="-1.0378980">
        <ele>1036.9</ele>
        <time>2019-07-13T15:41:47Z</time>
      </trkpt>
      <trkpt lat="43.0941150" lon="-1.0380240">
        <ele>1036.9</ele>
        <time>2019-07-13T15:41:50Z</time>
      </trkpt>
      <trkpt lat="43.0941450" lon="-1.0381580">
        <ele>1036.9</ele>
        <time>2019-07-13T15:41:53Z</time>
      </trkpt>
      <trkpt lat="43.0941560" lon="-1.0383120">
        <ele>1036.9</ele>
        <time>2019-07-13T15:41:57Z</time>
      </trkpt>
      <trkpt lat="43.0941560" lon="-1.0384600">
        <ele>1037.1</ele>
        <time>2019-07-13T15:42:02Z</time>
      </trkpt>
      <trkpt lat="43.0941890" lon="-1.0385830">
        <ele>1037.5</ele>
        <time>2019-07-13T15:42:08Z</time>
      </trkpt>
      <trkpt lat="43.0942270" lon="-1.0386980">
        <ele>1038.1</ele>
        <time>2019-07-13T15:42:14Z</time>
      </trkpt>
      <trkpt lat="43.0942630" lon="-1.0388290">
        <ele>1039.0</ele>
        <time>2019-07-13T15:42:21Z</time>
      </trkpt>
      <trkpt lat="43.0943120" lon="-1.0389440">
        <ele>1040.0</ele>
        <time>2019-07-13T15:42:28Z</time>
      </trkpt>
      <trkpt lat="43.0943750" lon="-1.0390420">
        <ele>1041.0</ele>
        <time>2019-07-13T15:42:35Z</time>
      </trkpt>
      <trkpt lat="43.0944180" lon="-1.0391550">
        <ele>1041.9</ele>
        <time>2019-07-13T15:42:41Z</time>
      </trkpt>
      <trkpt lat="43.0944720" lon="-1.0392760">
        <ele>1043.0</ele>
        <time>2019-07-13T15:42:48Z</time>
      </trkpt>
      <trkpt lat="43.0945200" lon="-1.0393870">
        <ele>1044.0</ele>
        <time>2019-07-13T15:42:54Z</time>
      </trkpt>
      <trkpt lat="43.0945780" lon="-1.0394950">
        <ele>1045.0</ele>
        <time>2019-07-13T15:43:00Z</time>
      </trkpt>
      <trkpt lat="43.0946340" lon="-1.0396010">
        <ele>1046.1</ele>
        <time>2019-07-13T15:43:06Z</time>
      </trkpt>
      <trkpt lat="43.0947000" lon="-1.0397030">
        <ele>1047.1</ele>
        <time>2019-07-13T15:43:13Z</time>
      </trkpt>
      <trkpt lat="43.0947620" lon="-1.0398150">
        <ele>1048.3</ele>
        <time>2019-07-13T15:43:20Z</time>
      </trkpt>
      <trkpt lat="43.0948020" lon="-1.0399340">
        <ele>1049.4</ele>
        <time>2019-07-13T15:43:26Z</time>
      </trkpt>
      <trkpt lat="43.0948520" lon="-1.0400460">
        <ele>1050.5</ele>
        <time>2019-07-13T15:43:32Z</time>
      </trkpt>
      <trkpt lat="43.0949000" lon="-1.0401640">
        <ele>1051.5</ele>
        <time>2019-07-13T15:43:39Z</time>
      </trkpt>
      <trkpt lat="43.0949380" lon="-1.0402770">
        <ele>1052.4</ele>
        <time>2019-07-13T15:43:45Z</time>
      </trkpt>
      <trkpt lat="43.0949750" lon="-1.0403910">
        <ele>1053.2</ele>
        <time>2019-07-13T15:43:51Z</time>
      </trkpt>
      <trkpt lat="43.0950030" lon="-1.0405220">
        <ele>1054.0</ele>
        <time>2019-07-13T15:43:58Z</time>
      </trkpt>
      <trkpt lat="43.0950150" lon="-1.0406610">
        <ele>1055.0</ele>
        <time>2019-07-13T15:44:05Z</time>
      </trkpt>
      <trkpt lat="43.0950190" lon="-1.0407930">
        <ele>1055.9</ele>
        <time>2019-07-13T15:44:12Z</time>
      </trkpt>
      <trkpt lat="43.0949990" lon="-1.0409200">
        <ele>1056.8</ele>
        <time>2019-07-13T15:44:19Z</time>
      </trkpt>
      <trkpt lat="43.0949630" lon="-1.0410360">
        <ele>1057.5</ele>
        <time>2019-07-13T15:44:26Z</time>
      </trkpt>
      <trkpt lat="43.0949130" lon="-1.0411470">
        <ele>1058.3</ele>
        <time>2019-07-13T15:44:34Z</time>
      </trkpt>
      <trkpt lat="43.0948500" lon="-1.0412430">
        <ele>1059.1</ele>
        <time>2019-07-13T15:44:41Z</time>
      </trkpt>
      <trkpt lat="43.0947930" lon="-1.0413390">
        <ele>1059.9</ele>
        <time>2019-07-13T15:44:48Z</time>
      </trkpt>
      <trkpt lat="43.0947210" lon="-1.0414200">
        <ele>1060.8</ele>
        <time>2019-07-13T15:44:55Z</time>
      </trkpt>
      <trkpt lat="43.0946540" lon="-1.0415050">
        <ele>1061.5</ele>
        <time>2019-07-13T15:45:02Z</time>
      </trkpt>
      <trkpt lat="43.0945680" lon="-1.0415540">
        <ele>1062.3</ele>
        <time>2019-07-13T15:45:09Z</time>
      </trkpt>
      <trkpt lat="43.0944800" lon="-1.0416060">
        <ele>1063.1</ele>
        <time>2019-07-13T15:45:16Z</time>
      </trkpt>
      <trkpt lat="43.0943850" lon="-1.0416560">
        <ele>1064.0</ele>
        <time>2019-07-13T15:45:24Z</time>
      </trkpt>
      <trkpt lat="43.0943400" lon="-1.0416860">
        <ele>1064.4</ele>
        <time>2019-07-13T15:45:32Z</time>
      </trkpt>
      <trkpt lat="43.0942490" lon="-1.0417310">
        <ele>1065.2</ele>
        <time>2019-07-13T15:46:52Z</time>
      </trkpt>
      <trkpt lat="43.0941590" lon="-1.0417750">
        <ele>1066.1</ele>
        <time>2019-07-13T15:46:58Z</time>
      </trkpt>
      <trkpt lat="43.0940630" lon="-1.0418050">
        <ele>1067.0</ele>
        <time>2019-07-13T15:47:04Z</time>
      </trkpt>
      <trkpt lat="43.0939640" lon="-1.0418350">
        <ele>1067.7</ele>
        <time>2019-07-13T15:47:10Z</time>
      </trkpt>
      <trkpt lat="43.0938740" lon="-1.0418980">
        <ele>1068.3</ele>
        <time>2019-07-13T15:47:16Z</time>
      </trkpt>
      <trkpt lat="43.0937960" lon="-1.0419860">
        <ele>1069.0</ele>
        <time>2019-07-13T15:47:22Z</time>
      </trkpt>
      <trkpt lat="43.0937540" lon="-1.0421050">
        <ele>1069.9</ele>
        <time>2019-07-13T15:47:28Z</time>
      </trkpt>
      <trkpt lat="43.0937250" lon="-1.0422270">
        <ele>1070.8</ele>
        <time>2019-07-13T15:47:34Z</time>
      </trkpt>
      <trkpt lat="43.0937090" lon="-1.0423580">
        <ele>1071.8</ele>
        <time>2019-07-13T15:47:40Z</time>
      </trkpt>
      <trkpt lat="43.0936880" lon="-1.0424780">
        <ele>1072.6</ele>
        <time>2019-07-13T15:47:46Z</time>
      </trkpt>
      <trkpt lat="43.0936460" lon="-1.0426040">
        <ele>1073.3</ele>
        <time>2019-07-13T15:47:53Z</time>
      </trkpt>
      <trkpt lat="43.0936160" lon="-1.0427290">
        <ele>1074.1</ele>
        <time>2019-07-13T15:47:59Z</time>
      </trkpt>
      <trkpt lat="43.0936060" lon="-1.0428690">
        <ele>1074.8</ele>
        <time>2019-07-13T15:48:06Z</time>
      </trkpt>
      <trkpt lat="43.0935750" lon="-1.0429960">
        <ele>1075.4</ele>
        <time>2019-07-13T15:48:13Z</time>
      </trkpt>
      <trkpt lat="43.0935260" lon="-1.0431030">
        <ele>1075.9</ele>
        <time>2019-07-13T15:48:19Z</time>
      </trkpt>
      <trkpt lat="43.0935150" lon="-1.0431430">
        <ele>1076.1</ele>
        <time>2019-07-13T15:48:25Z</time>
      </trkpt>
      <trkpt lat="43.0935040" lon="-1.0431680">
        <ele>1076.2</ele>
        <time>2019-07-13T15:49:53Z</time>
      </trkpt>
      <trkpt lat="43.0934290" lon="-1.0432730">
        <ele>1076.6</ele>
        <time>2019-07-13T15:50:00Z</time>
      </trkpt>
      <trkpt lat="43.0933820" lon="-1.0433970">
        <ele>1076.8</ele>
        <time>2019-07-13T15:50:05Z</time>
      </trkpt>
      <trkpt lat="43.0933750" lon="-1.0435350">
        <ele>1076.9</ele>
        <time>2019-07-13T15:50:10Z</time>
      </trkpt>
      <trkpt lat="43.0933570" lon="-1.0436670">
        <ele>1077.0</ele>
        <time>2019-07-13T15:50:16Z</time>
      </trkpt>
      <trkpt lat="43.0933440" lon="-1.0436870">
        <ele>1077.0</ele>
        <time>2019-07-13T15:50:21Z</time>
      </trkpt>
      <trkpt lat="43.0933960" lon="-1.0437910">
        <ele>1077.1</ele>
        <time>2019-07-13T15:55:09Z</time>
      </trkpt>
      <trkpt lat="43.0934020" lon="-1.0439380">
        <ele>1077.1</ele>
        <time>2019-07-13T15:55:14Z</time>
      </trkpt>
      <trkpt lat="43.0933900" lon="-1.0440790">
        <ele>1077.2</ele>
        <time>2019-07-13T15:55:18Z</time>
      </trkpt>
      <trkpt lat="43.0933840" lon="-1.0442230">
        <ele>1077.2</ele>
        <time>2019-07-13T15:55:22Z</time>
      </trkpt>
      <trkpt lat="43.0933710" lon="-1.0443630">
        <ele>1077.4</ele>
        <time>2019-07-13T15:55:26Z</time>
      </trkpt>
      <trkpt lat="43.0933620" lon="-1.0444990">
        <ele>1077.5</ele>
        <time>2019-07-13T15:55:30Z</time>
      </trkpt>
      <trkpt lat="43.0933420" lon="-1.0446320">
        <ele>1077.7</ele>
        <time>2019-07-13T15:55:34Z</time>
      </trkpt>
      <trkpt lat="43.0933000" lon="-1.0447440">
        <ele>1077.8</ele>
        <time>2019-07-13T15:55:38Z</time>
      </trkpt>
      <trkpt lat="43.0932300" lon="-1.0448340">
        <ele>1078.0</ele>
        <time>2019-07-13T15:55:43Z</time>
      </trkpt>
      <trkpt lat="43.0931370" lon="-1.0449120">
        <ele>1078.2</ele>
        <time>2019-07-13T15:55:49Z</time>
      </trkpt>
      <trkpt lat="43.0930440" lon="-1.0449720">
        <ele>1078.4</ele>
        <time>2019-07-13T15:55:55Z</time>
      </trkpt>
      <trkpt lat="43.0929490" lon="-1.0450390">
        <ele>1078.4</ele>
        <time>2019-07-13T15:56:01Z</time>
      </trkpt>
      <trkpt lat="43.0928600" lon="-1.0450740">
        <ele>1078.4</ele>
        <time>2019-07-13T15:56:06Z</time>
      </trkpt>
      <trkpt lat="43.0927620" lon="-1.0451310">
        <ele>1078.2</ele>
        <time>2019-07-13T15:56:12Z</time>
      </trkpt>
      <trkpt lat="43.0926710" lon="-1.0452080">
        <ele>1077.9</ele>
        <time>2019-07-13T15:56:17Z</time>
      </trkpt>
      <trkpt lat="43.0926110" lon="-1.0453060">
        <ele>1077.3</ele>
        <time>2019-07-13T15:56:21Z</time>
      </trkpt>
      <trkpt lat="43.0925490" lon="-1.0454250">
        <ele>1075.9</ele>
        <time>2019-07-13T15:56:25Z</time>
      </trkpt>
      <trkpt lat="43.0924790" lon="-1.0455430">
        <ele>1074.5</ele>
        <time>2019-07-13T15:56:29Z</time>
      </trkpt>
      <trkpt lat="43.0924200" lon="-1.0456600">
        <ele>1073.2</ele>
        <time>2019-07-13T15:56:33Z</time>
      </trkpt>
      <trkpt lat="43.0923590" lon="-1.0457600">
        <ele>1071.8</ele>
        <time>2019-07-13T15:56:37Z</time>
      </trkpt>
      <trkpt lat="43.0923150" lon="-1.0458710">
        <ele>1070.1</ele>
        <time>2019-07-13T15:56:41Z</time>
      </trkpt>
      <trkpt lat="43.0923770" lon="-1.0459900">
        <ele>1068.4</ele>
        <time>2019-07-13T15:56:46Z</time>
      </trkpt>
      <trkpt lat="43.0924670" lon="-1.0460150">
        <ele>1067.3</ele>
        <time>2019-07-13T15:56:50Z</time>
      </trkpt>
      <trkpt lat="43.0925640" lon="-1.0460690">
        <ele>1066.0</ele>
        <time>2019-07-13T15:56:54Z</time>
      </trkpt>
      <trkpt lat="43.0926240" lon="-1.0461650">
        <ele>1065.2</ele>
        <time>2019-07-13T15:56:58Z</time>
      </trkpt>
      <trkpt lat="43.0926730" lon="-1.0463060">
        <ele>1064.2</ele>
        <time>2019-07-13T15:57:02Z</time>
      </trkpt>
      <trkpt lat="43.0927020" lon="-1.0464300">
        <ele>1063.4</ele>
        <time>2019-07-13T15:57:05Z</time>
      </trkpt>
      <trkpt lat="43.0927460" lon="-1.0465760">
        <ele>1062.1</ele>
        <time>2019-07-13T15:57:09Z</time>
      </trkpt>
      <trkpt lat="43.0927820" lon="-1.0467240">
        <ele>1060.7</ele>
        <time>2019-07-13T15:57:13Z</time>
      </trkpt>
      <trkpt lat="43.0928120" lon="-1.0468400">
        <ele>1059.8</ele>
        <time>2019-07-13T15:57:16Z</time>
      </trkpt>
      <trkpt lat="43.0928460" lon="-1.0469610">
        <ele>1058.7</ele>
        <time>2019-07-13T15:57:19Z</time>
      </trkpt>
      <trkpt lat="43.0928820" lon="-1.0470760">
        <ele>1057.7</ele>
        <time>2019-07-13T15:57:22Z</time>
      </trkpt>
      <trkpt lat="43.0929220" lon="-1.0472210">
        <ele>1056.0</ele>
        <time>2019-07-13T15:57:26Z</time>
      </trkpt>
      <trkpt lat="43.0929580" lon="-1.0473390">
        <ele>1054.7</ele>
        <time>2019-07-13T15:57:29Z</time>
      </trkpt>
      <trkpt lat="43.0929980" lon="-1.0474680">
        <ele>1053.4</ele>
        <time>2019-07-13T15:57:32Z</time>
      </trkpt>
      <trkpt lat="43.0930350" lon="-1.0475830">
        <ele>1052.2</ele>
        <time>2019-07-13T15:57:35Z</time>
      </trkpt>
      <trkpt lat="43.0930730" lon="-1.0477040">
        <ele>1050.8</ele>
        <time>2019-07-13T15:57:38Z</time>
      </trkpt>
      <trkpt lat="43.0931130" lon="-1.0478560">
        <ele>1049.1</ele>
        <time>2019-07-13T15:57:42Z</time>
      </trkpt>
      <trkpt lat="43.0931380" lon="-1.0479800">
        <ele>1047.7</ele>
        <time>2019-07-13T15:57:45Z</time>
      </trkpt>
      <trkpt lat="43.0931700" lon="-1.0481130">
        <ele>1046.1</ele>
        <time>2019-07-13T15:57:48Z</time>
      </trkpt>
      <trkpt lat="43.0932050" lon="-1.0482460">
        <ele>1044.6</ele>
        <time>2019-07-13T15:57:51Z</time>
      </trkpt>
      <trkpt lat="43.0932370" lon="-1.0483660">
        <ele>1043.2</ele>
        <time>2019-07-13T15:57:54Z</time>
      </trkpt>
      <trkpt lat="43.0932710" lon="-1.0484910">
        <ele>1041.6</ele>
        <time>2019-07-13T15:57:57Z</time>
      </trkpt>
      <trkpt lat="43.0933010" lon="-1.0486160">
        <ele>1040.2</ele>
        <time>2019-07-13T15:58:00Z</time>
      </trkpt>
      <trkpt lat="43.0933370" lon="-1.0487660">
        <ele>1038.8</ele>
        <time>2019-07-13T15:58:04Z</time>
      </trkpt>
      <trkpt lat="43.0933730" lon="-1.0488890">
        <ele>1037.4</ele>
        <time>2019-07-13T15:58:07Z</time>
      </trkpt>
      <trkpt lat="43.0934120" lon="-1.0490280">
        <ele>1035.5</ele>
        <time>2019-07-13T15:58:10Z</time>
      </trkpt>
      <trkpt lat="43.0934520" lon="-1.0491660">
        <ele>1033.6</ele>
        <time>2019-07-13T15:58:13Z</time>
      </trkpt>
      <trkpt lat="43.0934910" lon="-1.0493130">
        <ele>1032.1</ele>
        <time>2019-07-13T15:58:17Z</time>
      </trkpt>
      <trkpt lat="43.0935350" lon="-1.0494580">
        <ele>1030.3</ele>
        <time>2019-07-13T15:58:22Z</time>
      </trkpt>
      <trkpt lat="43.0935640" lon="-1.0495750">
        <ele>1028.5</ele>
        <time>2019-07-13T15:58:25Z</time>
      </trkpt>
      <trkpt lat="43.0935960" lon="-1.0496940">
        <ele>1026.7</ele>
        <time>2019-07-13T15:58:28Z</time>
      </trkpt>
      <trkpt lat="43.0936330" lon="-1.0498090">
        <ele>1024.9</ele>
        <time>2019-07-13T15:58:31Z</time>
      </trkpt>
      <trkpt lat="43.0936790" lon="-1.0499420">
        <ele>1022.8</ele>
        <time>2019-07-13T15:58:35Z</time>
      </trkpt>
      <trkpt lat="43.0937250" lon="-1.0500850">
        <ele>1020.7</ele>
        <time>2019-07-13T15:58:39Z</time>
      </trkpt>
      <trkpt lat="43.0937800" lon="-1.0501990">
        <ele>1019.1</ele>
        <time>2019-07-13T15:58:43Z</time>
      </trkpt>
      <trkpt lat="43.0938360" lon="-1.0503230">
        <ele>1017.6</ele>
        <time>2019-07-13T15:58:47Z</time>
      </trkpt>
      <trkpt lat="43.0938890" lon="-1.0504470">
        <ele>1016.1</ele>
        <time>2019-07-13T15:58:51Z</time>
      </trkpt>
      <trkpt lat="43.0939420" lon="-1.0505800">
        <ele>1014.6</ele>
        <time>2019-07-13T15:58:55Z</time>
      </trkpt>
      <trkpt lat="43.0940010" lon="-1.0507180">
        <ele>1013.0</ele>
        <time>2019-07-13T15:58:59Z</time>
      </trkpt>
      <trkpt lat="43.0940650" lon="-1.0508550">
        <ele>1011.4</ele>
        <time>2019-07-13T15:59:03Z</time>
      </trkpt>
      <trkpt lat="43.0941140" lon="-1.0509880">
        <ele>1009.9</ele>
        <time>2019-07-13T15:59:07Z</time>
      </trkpt>
      <trkpt lat="43.0941600" lon="-1.0511120">
        <ele>1008.5</ele>
        <time>2019-07-13T15:59:11Z</time>
      </trkpt>
      <trkpt lat="43.0942030" lon="-1.0512550">
        <ele>1006.9</ele>
        <time>2019-07-13T15:59:15Z</time>
      </trkpt>
      <trkpt lat="43.0942430" lon="-1.0514020">
        <ele>1005.4</ele>
        <time>2019-07-13T15:59:19Z</time>
      </trkpt>
      <trkpt lat="43.0942820" lon="-1.0515540">
        <ele>1003.8</ele>
        <time>2019-07-13T15:59:23Z</time>
      </trkpt>
      <trkpt lat="43.0943130" lon="-1.0517120">
        <ele>1002.2</ele>
        <time>2019-07-13T15:59:27Z</time>
      </trkpt>
      <trkpt lat="43.0943310" lon="-1.0518350">
        <ele>1001.1</ele>
        <time>2019-07-13T15:59:30Z</time>
      </trkpt>
      <trkpt lat="43.0943510" lon="-1.0519910">
        <ele>999.6</ele>
        <time>2019-07-13T15:59:34Z</time>
      </trkpt>
      <trkpt lat="43.0943650" lon="-1.0521490">
        <ele>998.0</ele>
        <time>2019-07-13T15:59:38Z</time>
      </trkpt>
      <trkpt lat="43.0943730" lon="-1.0522820">
        <ele>996.7</ele>
        <time>2019-07-13T15:59:41Z</time>
      </trkpt>
      <trkpt lat="43.0943770" lon="-1.0524440">
        <ele>995.2</ele>
        <time>2019-07-13T15:59:44Z</time>
      </trkpt>
      <trkpt lat="43.0943780" lon="-1.0526020">
        <ele>994.0</ele>
        <time>2019-07-13T15:59:47Z</time>
      </trkpt>
      <trkpt lat="43.0943780" lon="-1.0527560">
        <ele>992.8</ele>
        <time>2019-07-13T15:59:50Z</time>
      </trkpt>
      <trkpt lat="43.0943820" lon="-1.0529080">
        <ele>991.7</ele>
        <time>2019-07-13T15:59:53Z</time>
      </trkpt>
      <trkpt lat="43.0943890" lon="-1.0530650">
        <ele>990.2</ele>
        <time>2019-07-13T15:59:56Z</time>
      </trkpt>
      <trkpt lat="43.0943930" lon="-1.0532250">
        <ele>988.6</ele>
        <time>2019-07-13T16:00:00Z</time>
      </trkpt>
      <trkpt lat="43.0943940" lon="-1.0533920">
        <ele>987.2</ele>
        <time>2019-07-13T16:00:04Z</time>
      </trkpt>
      <trkpt lat="43.0943950" lon="-1.0535590">
        <ele>985.8</ele>
        <time>2019-07-13T16:00:07Z</time>
      </trkpt>
      <trkpt lat="43.0943930" lon="-1.0536990">
        <ele>984.6</ele>
        <time>2019-07-13T16:00:10Z</time>
      </trkpt>
      <trkpt lat="43.0943950" lon="-1.0538430">
        <ele>983.5</ele>
        <time>2019-07-13T16:00:13Z</time>
      </trkpt>
      <trkpt lat="43.0943940" lon="-1.0539810">
        <ele>982.7</ele>
        <time>2019-07-13T16:00:16Z</time>
      </trkpt>
      <trkpt lat="43.0944000" lon="-1.0541410">
        <ele>981.7</ele>
        <time>2019-07-13T16:00:19Z</time>
      </trkpt>
      <trkpt lat="43.0944080" lon="-1.0542980">
        <ele>980.8</ele>
        <time>2019-07-13T16:00:22Z</time>
      </trkpt>
      <trkpt lat="43.0944220" lon="-1.0544540">
        <ele>979.5</ele>
        <time>2019-07-13T16:00:25Z</time>
      </trkpt>
      <trkpt lat="43.0944370" lon="-1.0546110">
        <ele>978.1</ele>
        <time>2019-07-13T16:00:28Z</time>
      </trkpt>
      <trkpt lat="43.0944450" lon="-1.0547420">
        <ele>977.2</ele>
        <time>2019-07-13T16:00:31Z</time>
      </trkpt>
      <trkpt lat="43.0944600" lon="-1.0548700">
        <ele>976.4</ele>
        <time>2019-07-13T16:00:34Z</time>
      </trkpt>
      <trkpt lat="43.0944780" lon="-1.0550140">
        <ele>975.5</ele>
        <time>2019-07-13T16:00:37Z</time>
      </trkpt>
      <trkpt lat="43.0944940" lon="-1.0551530">
        <ele>974.5</ele>
        <time>2019-07-13T16:00:40Z</time>
      </trkpt>
      <trkpt lat="43.0945140" lon="-1.0553050">
        <ele>973.2</ele>
        <time>2019-07-13T16:00:44Z</time>
      </trkpt>
      <trkpt lat="43.0945320" lon="-1.0554670">
        <ele>972.1</ele>
        <time>2019-07-13T16:00:48Z</time>
      </trkpt>
      <trkpt lat="43.0945590" lon="-1.0556440">
        <ele>970.8</ele>
        <time>2019-07-13T16:00:51Z</time>
      </trkpt>
      <trkpt lat="43.0945830" lon="-1.0558180">
        <ele>969.4</ele>
        <time>2019-07-13T16:00:54Z</time>
      </trkpt>
      <trkpt lat="43.0946020" lon="-1.0559580">
        <ele>968.3</ele>
        <time>2019-07-13T16:00:57Z</time>
      </trkpt>
      <trkpt lat="43.0946200" lon="-1.0561140">
        <ele>967.0</ele>
        <time>2019-07-13T16:01:00Z</time>
      </trkpt>
      <trkpt lat="43.0946400" lon="-1.0562510">
        <ele>965.8</ele>
        <time>2019-07-13T16:01:03Z</time>
      </trkpt>
      <trkpt lat="43.0946570" lon="-1.0563970">
        <ele>964.7</ele>
        <time>2019-07-13T16:01:06Z</time>
      </trkpt>
      <trkpt lat="43.0946790" lon="-1.0565430">
        <ele>963.5</ele>
        <time>2019-07-13T16:01:09Z</time>
      </trkpt>
      <trkpt lat="43.0947040" lon="-1.0567070">
        <ele>962.2</ele>
        <time>2019-07-13T16:01:12Z</time>
      </trkpt>
      <trkpt lat="43.0947320" lon="-1.0568660">
        <ele>960.9</ele>
        <time>2019-07-13T16:01:15Z</time>
      </trkpt>
      <trkpt lat="43.0947590" lon="-1.0570180">
        <ele>959.7</ele>
        <time>2019-07-13T16:01:18Z</time>
      </trkpt>
      <trkpt lat="43.0947900" lon="-1.0571770">
        <ele>958.4</ele>
        <time>2019-07-13T16:01:21Z</time>
      </trkpt>
      <trkpt lat="43.0948110" lon="-1.0573020">
        <ele>957.0</ele>
        <time>2019-07-13T16:01:23Z</time>
      </trkpt>
      <trkpt lat="43.0948420" lon="-1.0574730">
        <ele>955.4</ele>
        <time>2019-07-13T16:01:26Z</time>
      </trkpt>
      <trkpt lat="43.0948680" lon="-1.0576280">
        <ele>953.9</ele>
        <time>2019-07-13T16:01:29Z</time>
      </trkpt>
      <trkpt lat="43.0948930" lon="-1.0577600">
        <ele>952.7</ele>
        <time>2019-07-13T16:01:32Z</time>
      </trkpt>
      <trkpt lat="43.0949160" lon="-1.0579000">
        <ele>951.5</ele>
        <time>2019-07-13T16:01:35Z</time>
      </trkpt>
      <trkpt lat="43.0949430" lon="-1.0580560">
        <ele>950.2</ele>
        <time>2019-07-13T16:01:38Z</time>
      </trkpt>
      <trkpt lat="43.0949610" lon="-1.0582150">
        <ele>948.9</ele>
        <time>2019-07-13T16:01:41Z</time>
      </trkpt>
      <trkpt lat="43.0949860" lon="-1.0583770">
        <ele>947.5</ele>
        <time>2019-07-13T16:01:44Z</time>
      </trkpt>
      <trkpt lat="43.0950090" lon="-1.0585230">
        <ele>946.3</ele>
        <time>2019-07-13T16:01:47Z</time>
      </trkpt>
      <trkpt lat="43.0950300" lon="-1.0586560">
        <ele>945.0</ele>
        <time>2019-07-13T16:01:50Z</time>
      </trkpt>
      <trkpt lat="43.0950530" lon="-1.0587900">
        <ele>943.7</ele>
        <time>2019-07-13T16:01:53Z</time>
      </trkpt>
      <trkpt lat="43.0950850" lon="-1.0589520">
        <ele>941.9</ele>
        <time>2019-07-13T16:01:57Z</time>
      </trkpt>
      <trkpt lat="43.0951130" lon="-1.0591260">
        <ele>939.8</ele>
        <time>2019-07-13T16:02:00Z</time>
      </trkpt>
      <trkpt lat="43.0951400" lon="-1.0593030">
        <ele>938.2</ele>
        <time>2019-07-13T16:02:03Z</time>
      </trkpt>
      <trkpt lat="43.0951730" lon="-1.0594770">
        <ele>936.7</ele>
        <time>2019-07-13T16:02:06Z</time>
      </trkpt>
      <trkpt lat="43.0952070" lon="-1.0596540">
        <ele>934.8</ele>
        <time>2019-07-13T16:02:09Z</time>
      </trkpt>
      <trkpt lat="43.0952310" lon="-1.0597740">
        <ele>933.5</ele>
        <time>2019-07-13T16:02:11Z</time>
      </trkpt>
      <trkpt lat="43.0952620" lon="-1.0599430">
        <ele>931.6</ele>
        <time>2019-07-13T16:02:14Z</time>
      </trkpt>
      <trkpt lat="43.0952820" lon="-1.0600650">
        <ele>930.6</ele>
        <time>2019-07-13T16:02:16Z</time>
      </trkpt>
      <trkpt lat="43.0953060" lon="-1.0602220">
        <ele>929.4</ele>
        <time>2019-07-13T16:02:19Z</time>
      </trkpt>
      <trkpt lat="43.0953260" lon="-1.0603520">
        <ele>928.4</ele>
        <time>2019-07-13T16:02:22Z</time>
      </trkpt>
      <trkpt lat="43.0953480" lon="-1.0604930">
        <ele>927.3</ele>
        <time>2019-07-13T16:02:25Z</time>
      </trkpt>
      <trkpt lat="43.0953750" lon="-1.0606560">
        <ele>925.7</ele>
        <time>2019-07-13T16:02:28Z</time>
      </trkpt>
      <trkpt lat="43.0954020" lon="-1.0608020">
        <ele>924.5</ele>
        <time>2019-07-13T16:02:31Z</time>
      </trkpt>
      <trkpt lat="43.0954240" lon="-1.0609620">
        <ele>923.3</ele>
        <time>2019-07-13T16:02:34Z</time>
      </trkpt>
      <trkpt lat="43.0954480" lon="-1.0611000">
        <ele>922.2</ele>
        <time>2019-07-13T16:02:37Z</time>
      </trkpt>
      <trkpt lat="43.0954790" lon="-1.0612450">
        <ele>921.1</ele>
        <time>2019-07-13T16:02:40Z</time>
      </trkpt>
      <trkpt lat="43.0955090" lon="-1.0614000">
        <ele>919.9</ele>
        <time>2019-07-13T16:02:43Z</time>
      </trkpt>
      <trkpt lat="43.0955420" lon="-1.0615500">
        <ele>918.7</ele>
        <time>2019-07-13T16:02:46Z</time>
      </trkpt>
      <trkpt lat="43.0955730" lon="-1.0616920">
        <ele>917.6</ele>
        <time>2019-07-13T16:02:49Z</time>
      </trkpt>
      <trkpt lat="43.0956110" lon="-1.0618340">
        <ele>916.2</ele>
        <time>2019-07-13T16:02:52Z</time>
      </trkpt>
      <trkpt lat="43.0956560" lon="-1.0619440">
        <ele>915.2</ele>
        <time>2019-07-13T16:02:55Z</time>
      </trkpt>
      <trkpt lat="43.0957050" lon="-1.0620550">
        <ele>914.2</ele>
        <time>2019-07-13T16:02:58Z</time>
      </trkpt>
      <trkpt lat="43.0957700" lon="-1.0621830">
        <ele>913.1</ele>
        <time>2019-07-13T16:03:02Z</time>
      </trkpt>
      <trkpt lat="43.0958360" lon="-1.0623170">
        <ele>911.8</ele>
        <time>2019-07-13T16:03:06Z</time>
      </trkpt>
      <trkpt lat="43.0958930" lon="-1.0624420">
        <ele>911.1</ele>
        <time>2019-07-13T16:03:09Z</time>
      </trkpt>
      <trkpt lat="43.0959590" lon="-1.0625700">
        <ele>910.5</ele>
        <time>2019-07-13T16:03:12Z</time>
      </trkpt>
      <trkpt lat="43.0960220" lon="-1.0627110">
        <ele>909.4</ele>
        <time>2019-07-13T16:03:15Z</time>
      </trkpt>
      <trkpt lat="43.0960800" lon="-1.0628550">
        <ele>908.7</ele>
        <time>2019-07-13T16:03:18Z</time>
      </trkpt>
      <trkpt lat="43.0961350" lon="-1.0629800">
        <ele>907.8</ele>
        <time>2019-07-13T16:03:21Z</time>
      </trkpt>
      <trkpt lat="43.0961910" lon="-1.0631070">
        <ele>906.9</ele>
        <time>2019-07-13T16:03:24Z</time>
      </trkpt>
      <trkpt lat="43.0962560" lon="-1.0632410">
        <ele>906.6</ele>
        <time>2019-07-13T16:03:28Z</time>
      </trkpt>
      <trkpt lat="43.0963140" lon="-1.0633700">
        <ele>906.3</ele>
        <time>2019-07-13T16:03:32Z</time>
      </trkpt>
      <trkpt lat="43.0963690" lon="-1.0634730">
        <ele>906.0</ele>
        <time>2019-07-13T16:03:35Z</time>
      </trkpt>
      <trkpt lat="43.0964330" lon="-1.0635720">
        <ele>905.5</ele>
        <time>2019-07-13T16:03:38Z</time>
      </trkpt>
      <trkpt lat="43.0964970" lon="-1.0636820">
        <ele>904.9</ele>
        <time>2019-07-13T16:03:41Z</time>
      </trkpt>
      <trkpt lat="43.0965540" lon="-1.0637810">
        <ele>904.4</ele>
        <time>2019-07-13T16:03:44Z</time>
      </trkpt>
      <trkpt lat="43.0966170" lon="-1.0638740">
        <ele>904.1</ele>
        <time>2019-07-13T16:03:47Z</time>
      </trkpt>
      <trkpt lat="43.0966780" lon="-1.0639880">
        <ele>903.5</ele>
        <time>2019-07-13T16:03:50Z</time>
      </trkpt>
      <trkpt lat="43.0967470" lon="-1.0641040">
        <ele>902.7</ele>
        <time>2019-07-13T16:03:53Z</time>
      </trkpt>
      <trkpt lat="43.0968150" lon="-1.0642200">
        <ele>902.3</ele>
        <time>2019-07-13T16:03:56Z</time>
      </trkpt>
      <trkpt lat="43.0968910" lon="-1.0643440">
        <ele>901.9</ele>
        <time>2019-07-13T16:03:59Z</time>
      </trkpt>
      <trkpt lat="43.0969620" lon="-1.0644780">
        <ele>901.0</ele>
        <time>2019-07-13T16:04:02Z</time>
      </trkpt>
      <trkpt lat="43.0970260" lon="-1.0646050">
        <ele>900.3</ele>
        <time>2019-07-13T16:04:05Z</time>
      </trkpt>
      <trkpt lat="43.0970870" lon="-1.0647440">
        <ele>899.5</ele>
        <time>2019-07-13T16:04:08Z</time>
      </trkpt>
      <trkpt lat="43.0971470" lon="-1.0648950">
        <ele>898.7</ele>
        <time>2019-07-13T16:04:11Z</time>
      </trkpt>
      <trkpt lat="43.0972080" lon="-1.0650360">
        <ele>898.0</ele>
        <time>2019-07-13T16:04:14Z</time>
      </trkpt>
      <trkpt lat="43.0972700" lon="-1.0651780">
        <ele>897.2</ele>
        <time>2019-07-13T16:04:17Z</time>
      </trkpt>
      <trkpt lat="43.0973360" lon="-1.0653070">
        <ele>896.3</ele>
        <time>2019-07-13T16:04:20Z</time>
      </trkpt>
      <trkpt lat="43.0973960" lon="-1.0654340">
        <ele>895.6</ele>
        <time>2019-07-13T16:04:23Z</time>
      </trkpt>
      <trkpt lat="43.0974620" lon="-1.0655600">
        <ele>894.7</ele>
        <time>2019-07-13T16:04:26Z</time>
      </trkpt>
      <trkpt lat="43.0975340" lon="-1.0656820">
        <ele>893.8</ele>
        <time>2019-07-13T16:04:29Z</time>
      </trkpt>
      <trkpt lat="43.0975930" lon="-1.0658160">
        <ele>893.2</ele>
        <time>2019-07-13T16:04:32Z</time>
      </trkpt>
      <trkpt lat="43.0976500" lon="-1.0659490">
        <ele>892.2</ele>
        <time>2019-07-13T16:04:35Z</time>
      </trkpt>
      <trkpt lat="43.0977070" lon="-1.0660870">
        <ele>891.4</ele>
        <time>2019-07-13T16:04:38Z</time>
      </trkpt>
      <trkpt lat="43.0977660" lon="-1.0662470">
        <ele>890.7</ele>
        <time>2019-07-13T16:04:41Z</time>
      </trkpt>
      <trkpt lat="43.0978140" lon="-1.0663920">
        <ele>889.8</ele>
        <time>2019-07-13T16:04:44Z</time>
      </trkpt>
      <trkpt lat="43.0978650" lon="-1.0665540">
        <ele>889.0</ele>
        <time>2019-07-13T16:04:47Z</time>
      </trkpt>
      <trkpt lat="43.0979040" lon="-1.0666660">
        <ele>888.3</ele>
        <time>2019-07-13T16:04:49Z</time>
      </trkpt>
      <trkpt lat="43.0979460" lon="-1.0667910">
        <ele>887.7</ele>
        <time>2019-07-13T16:04:51Z</time>
      </trkpt>
      <trkpt lat="43.0979840" lon="-1.0669120">
        <ele>887.1</ele>
        <time>2019-07-13T16:04:53Z</time>
      </trkpt>
      <trkpt lat="43.0980350" lon="-1.0670680">
        <ele>886.6</ele>
        <time>2019-07-13T16:04:56Z</time>
      </trkpt>
      <trkpt lat="43.0980890" lon="-1.0672280">
        <ele>885.9</ele>
        <time>2019-07-13T16:04:59Z</time>
      </trkpt>
      <trkpt lat="43.0981380" lon="-1.0673750">
        <ele>885.1</ele>
        <time>2019-07-13T16:05:02Z</time>
      </trkpt>
      <trkpt lat="43.0981890" lon="-1.0675120">
        <ele>884.6</ele>
        <time>2019-07-13T16:05:05Z</time>
      </trkpt>
      <trkpt lat="43.0982330" lon="-1.0676510">
        <ele>884.2</ele>
        <time>2019-07-13T16:05:08Z</time>
      </trkpt>
      <trkpt lat="43.0982740" lon="-1.0677920">
        <ele>883.4</ele>
        <time>2019-07-13T16:05:11Z</time>
      </trkpt>
      <trkpt lat="43.0983240" lon="-1.0679390">
        <ele>882.8</ele>
        <time>2019-07-13T16:05:14Z</time>
      </trkpt>
      <trkpt lat="43.0983610" lon="-1.0680760">
        <ele>882.1</ele>
        <time>2019-07-13T16:05:17Z</time>
      </trkpt>
      <trkpt lat="43.0983950" lon="-1.0681940">
        <ele>881.3</ele>
        <time>2019-07-13T16:05:20Z</time>
      </trkpt>
      <trkpt lat="43.0984340" lon="-1.0683210">
        <ele>880.8</ele>
        <time>2019-07-13T16:05:23Z</time>
      </trkpt>
      <trkpt lat="43.0984760" lon="-1.0684670">
        <ele>880.2</ele>
        <time>2019-07-13T16:05:26Z</time>
      </trkpt>
      <trkpt lat="43.0985190" lon="-1.0686290">
        <ele>879.1</ele>
        <time>2019-07-13T16:05:29Z</time>
      </trkpt>
      <trkpt lat="43.0985720" lon="-1.0687910">
        <ele>878.2</ele>
        <time>2019-07-13T16:05:32Z</time>
      </trkpt>
      <trkpt lat="43.0986210" lon="-1.0689530">
        <ele>877.1</ele>
        <time>2019-07-13T16:05:35Z</time>
      </trkpt>
      <trkpt lat="43.0986770" lon="-1.0691080">
        <ele>876.0</ele>
        <time>2019-07-13T16:05:38Z</time>
      </trkpt>
      <trkpt lat="43.0987360" lon="-1.0692510">
        <ele>875.1</ele>
        <time>2019-07-13T16:05:41Z</time>
      </trkpt>
      <trkpt lat="43.0987920" lon="-1.0693930">
        <ele>874.3</ele>
        <time>2019-07-13T16:05:44Z</time>
      </trkpt>
      <trkpt lat="43.0988490" lon="-1.0695270">
        <ele>873.7</ele>
        <time>2019-07-13T16:05:47Z</time>
      </trkpt>
      <trkpt lat="43.0988980" lon="-1.0696890">
        <ele>872.6</ele>
        <time>2019-07-13T16:05:50Z</time>
      </trkpt>
      <trkpt lat="43.0989220" lon="-1.0698100">
        <ele>872.0</ele>
        <time>2019-07-13T16:05:52Z</time>
      </trkpt>
      <trkpt lat="43.0989510" lon="-1.0699400">
        <ele>871.4</ele>
        <time>2019-07-13T16:05:54Z</time>
      </trkpt>
      <trkpt lat="43.0989830" lon="-1.0700790">
        <ele>870.5</ele>
        <time>2019-07-13T16:05:56Z</time>
      </trkpt>
      <trkpt lat="43.0990130" lon="-1.0702110">
        <ele>869.9</ele>
        <time>2019-07-13T16:05:58Z</time>
      </trkpt>
      <trkpt lat="43.0990410" lon="-1.0703400">
        <ele>869.4</ele>
        <time>2019-07-13T16:06:00Z</time>
      </trkpt>
      <trkpt lat="43.0990730" lon="-1.0705000">
        <ele>868.7</ele>
        <time>2019-07-13T16:06:03Z</time>
      </trkpt>
      <trkpt lat="43.0991100" lon="-1.0706560">
        <ele>867.9</ele>
        <time>2019-07-13T16:06:06Z</time>
      </trkpt>
      <trkpt lat="43.0991380" lon="-1.0708050">
        <ele>867.4</ele>
        <time>2019-07-13T16:06:09Z</time>
      </trkpt>
      <trkpt lat="43.0991020" lon="-1.0709580">
        <ele>866.7</ele>
        <time>2019-07-13T16:06:12Z</time>
      </trkpt>
      <trkpt lat="43.0989890" lon="-1.0710370">
        <ele>865.8</ele>
        <time>2019-07-13T16:06:15Z</time>
      </trkpt>
      <trkpt lat="43.0988580" lon="-1.0710380">
        <ele>865.1</ele>
        <time>2019-07-13T16:06:18Z</time>
      </trkpt>
      <trkpt lat="43.0987420" lon="-1.0710500">
        <ele>864.4</ele>
        <time>2019-07-13T16:06:21Z</time>
      </trkpt>
      <trkpt lat="43.0986100" lon="-1.0710770">
        <ele>863.6</ele>
        <time>2019-07-13T16:06:24Z</time>
      </trkpt>
      <trkpt lat="43.0985200" lon="-1.0711020">
        <ele>863.3</ele>
        <time>2019-07-13T16:06:26Z</time>
      </trkpt>
      <trkpt lat="43.0983960" lon="-1.0711480">
        <ele>862.9</ele>
        <time>2019-07-13T16:06:29Z</time>
      </trkpt>
      <trkpt lat="43.0982780" lon="-1.0711790">
        <ele>862.1</ele>
        <time>2019-07-13T16:06:32Z</time>
      </trkpt>
      <trkpt lat="43.0981690" lon="-1.0712130">
        <ele>861.5</ele>
        <time>2019-07-13T16:06:35Z</time>
      </trkpt>
      <trkpt lat="43.0980680" lon="-1.0712660">
        <ele>860.9</ele>
        <time>2019-07-13T16:06:38Z</time>
      </trkpt>
      <trkpt lat="43.0979710" lon="-1.0713660">
        <ele>860.3</ele>
        <time>2019-07-13T16:06:41Z</time>
      </trkpt>
      <trkpt lat="43.0978830" lon="-1.0714890">
        <ele>859.6</ele>
        <time>2019-07-13T16:06:44Z</time>
      </trkpt>
      <trkpt lat="43.0978030" lon="-1.0716350">
        <ele>859.0</ele>
        <time>2019-07-13T16:06:47Z</time>
      </trkpt>
      <trkpt lat="43.0977330" lon="-1.0717760">
        <ele>858.3</ele>
        <time>2019-07-13T16:06:50Z</time>
      </trkpt>
      <trkpt lat="43.0976820" lon="-1.0719040">
        <ele>857.6</ele>
        <time>2019-07-13T16:06:53Z</time>
      </trkpt>
      <trkpt lat="43.0976420" lon="-1.0720570">
        <ele>856.9</ele>
        <time>2019-07-13T16:06:56Z</time>
      </trkpt>
      <trkpt lat="43.0976040" lon="-1.0722320">
        <ele>856.4</ele>
        <time>2019-07-13T16:06:59Z</time>
      </trkpt>
      <trkpt lat="43.0975620" lon="-1.0723990">
        <ele>855.5</ele>
        <time>2019-07-13T16:07:02Z</time>
      </trkpt>
      <trkpt lat="43.0975140" lon="-1.0725570">
        <ele>854.8</ele>
        <time>2019-07-13T16:07:05Z</time>
      </trkpt>
      <trkpt lat="43.0974630" lon="-1.0727150">
        <ele>854.4</ele>
        <time>2019-07-13T16:07:08Z</time>
      </trkpt>
      <trkpt lat="43.0974240" lon="-1.0728690">
        <ele>853.8</ele>
        <time>2019-07-13T16:07:11Z</time>
      </trkpt>
      <trkpt lat="43.0973900" lon="-1.0730330">
        <ele>853.1</ele>
        <time>2019-07-13T16:07:14Z</time>
      </trkpt>
      <trkpt lat="43.0973550" lon="-1.0732020">
        <ele>852.5</ele>
        <time>2019-07-13T16:07:17Z</time>
      </trkpt>
      <trkpt lat="43.0973120" lon="-1.0733730">
        <ele>852.2</ele>
        <time>2019-07-13T16:07:20Z</time>
      </trkpt>
      <trkpt lat="43.0972720" lon="-1.0735440">
        <ele>852.1</ele>
        <time>2019-07-13T16:07:23Z</time>
      </trkpt>
      <trkpt lat="43.0972310" lon="-1.0737050">
        <ele>851.8</ele>
        <time>2019-07-13T16:07:26Z</time>
      </trkpt>
      <trkpt lat="43.0971930" lon="-1.0738430">
        <ele>851.5</ele>
        <time>2019-07-13T16:07:29Z</time>
      </trkpt>
      <trkpt lat="43.0971490" lon="-1.0739690">
        <ele>851.0</ele>
        <time>2019-07-13T16:07:32Z</time>
      </trkpt>
      <trkpt lat="43.0971130" lon="-1.0740980">
        <ele>850.6</ele>
        <time>2019-07-13T16:07:35Z</time>
      </trkpt>
      <trkpt lat="43.0970930" lon="-1.0742390">
        <ele>850.1</ele>
        <time>2019-07-13T16:07:38Z</time>
      </trkpt>
      <trkpt lat="43.0970930" lon="-1.0743910">
        <ele>849.9</ele>
        <time>2019-07-13T16:07:41Z</time>
      </trkpt>
      <trkpt lat="43.0971050" lon="-1.0745600">
        <ele>849.6</ele>
        <time>2019-07-13T16:07:44Z</time>
      </trkpt>
      <trkpt lat="43.0971010" lon="-1.0747380">
        <ele>849.3</ele>
        <time>2019-07-13T16:07:47Z</time>
      </trkpt>
      <trkpt lat="43.0970930" lon="-1.0749110">
        <ele>848.7</ele>
        <time>2019-07-13T16:07:50Z</time>
      </trkpt>
      <trkpt lat="43.0970930" lon="-1.0750600">
        <ele>848.2</ele>
        <time>2019-07-13T16:07:53Z</time>
      </trkpt>
      <trkpt lat="43.0970900" lon="-1.0752210">
        <ele>847.8</ele>
        <time>2019-07-13T16:07:56Z</time>
      </trkpt>
      <trkpt lat="43.0970940" lon="-1.0753990">
        <ele>847.3</ele>
        <time>2019-07-13T16:07:59Z</time>
      </trkpt>
      <trkpt lat="43.0971040" lon="-1.0755820">
        <ele>846.6</ele>
        <time>2019-07-13T16:08:02Z</time>
      </trkpt>
      <trkpt lat="43.0971130" lon="-1.0757410">
        <ele>846.0</ele>
        <time>2019-07-13T16:08:05Z</time>
      </trkpt>
      <trkpt lat="43.0971210" lon="-1.0758830">
        <ele>845.5</ele>
        <time>2019-07-13T16:08:08Z</time>
      </trkpt>
      <trkpt lat="43.0971190" lon="-1.0760280">
        <ele>845.2</ele>
        <time>2019-07-13T16:08:12Z</time>
      </trkpt>
      <trkpt lat="43.0971070" lon="-1.0761890">
        <ele>844.9</ele>
        <time>2019-07-13T16:08:16Z</time>
      </trkpt>
      <trkpt lat="43.0970980" lon="-1.0763430">
        <ele>844.4</ele>
        <time>2019-07-13T16:08:20Z</time>
      </trkpt>
      <trkpt lat="43.0970980" lon="-1.0764690">
        <ele>844.0</ele>
        <time>2019-07-13T16:08:23Z</time>
      </trkpt>
      <trkpt lat="43.0971030" lon="-1.0766010">
        <ele>843.5</ele>
        <time>2019-07-13T16:08:26Z</time>
      </trkpt>
      <trkpt lat="43.0971370" lon="-1.0767420">
        <ele>843.2</ele>
        <time>2019-07-13T16:08:30Z</time>
      </trkpt>
      <trkpt lat="43.0971970" lon="-1.0768370">
        <ele>843.0</ele>
        <time>2019-07-13T16:08:34Z</time>
      </trkpt>
      <trkpt lat="43.0972880" lon="-1.0769010">
        <ele>842.7</ele>
        <time>2019-07-13T16:08:39Z</time>
      </trkpt>
      <trkpt lat="43.0973820" lon="-1.0769460">
        <ele>842.4</ele>
        <time>2019-07-13T16:08:44Z</time>
      </trkpt>
      <trkpt lat="43.0974810" lon="-1.0769910">
        <ele>842.9</ele>
        <time>2019-07-13T16:08:50Z</time>
      </trkpt>
      <trkpt lat="43.0975780" lon="-1.0770380">
        <ele>845.0</ele>
        <time>2019-07-13T16:08:57Z</time>
      </trkpt>
      <trkpt lat="43.0976670" lon="-1.0770650">
        <ele>846.3</ele>
        <time>2019-07-13T16:09:03Z</time>
      </trkpt>
      <trkpt lat="43.0977590" lon="-1.0771050">
        <ele>847.0</ele>
        <time>2019-07-13T16:09:09Z</time>
      </trkpt>
      <trkpt lat="43.0978470" lon="-1.0771500">
        <ele>847.7</ele>
        <time>2019-07-13T16:09:15Z</time>
      </trkpt>
      <trkpt lat="43.0979370" lon="-1.0772100">
        <ele>848.3</ele>
        <time>2019-07-13T16:09:22Z</time>
      </trkpt>
      <trkpt lat="43.0980180" lon="-1.0772660">
        <ele>848.8</ele>
        <time>2019-07-13T16:09:28Z</time>
      </trkpt>
      <trkpt lat="43.0981010" lon="-1.0773370">
        <ele>849.4</ele>
        <time>2019-07-13T16:09:35Z</time>
      </trkpt>
      <trkpt lat="43.0981920" lon="-1.0774020">
        <ele>849.9</ele>
        <time>2019-07-13T16:09:42Z</time>
      </trkpt>
      <trkpt lat="43.0982730" lon="-1.0774630">
        <ele>850.4</ele>
        <time>2019-07-13T16:09:48Z</time>
      </trkpt>
      <trkpt lat="43.0983500" lon="-1.0775320">
        <ele>851.0</ele>
        <time>2019-07-13T16:09:54Z</time>
      </trkpt>
      <trkpt lat="43.0984200" lon="-1.0776110">
        <ele>851.6</ele>
        <time>2019-07-13T16:10:00Z</time>
      </trkpt>
      <trkpt lat="43.0984990" lon="-1.0776860">
        <ele>852.4</ele>
        <time>2019-07-13T16:10:07Z</time>
      </trkpt>
      <trkpt lat="43.0985760" lon="-1.0777680">
        <ele>853.1</ele>
        <time>2019-07-13T16:10:15Z</time>
      </trkpt>
      <trkpt lat="43.0986510" lon="-1.0778400">
        <ele>853.9</ele>
        <time>2019-07-13T16:10:22Z</time>
      </trkpt>
      <trkpt lat="43.0987380" lon="-1.0779110">
        <ele>854.6</ele>
        <time>2019-07-13T16:10:30Z</time>
      </trkpt>
      <trkpt lat="43.0988310" lon="-1.0779510">
        <ele>855.3</ele>
        <time>2019-07-13T16:10:38Z</time>
      </trkpt>
      <trkpt lat="43.0989240" lon="-1.0779840">
        <ele>856.0</ele>
        <time>2019-07-13T16:10:46Z</time>
      </trkpt>
      <trkpt lat="43.0990150" lon="-1.0779970">
        <ele>856.7</ele>
        <time>2019-07-13T16:10:53Z</time>
      </trkpt>
      <trkpt lat="43.0991080" lon="-1.0780070">
        <ele>857.6</ele>
        <time>2019-07-13T16:11:00Z</time>
      </trkpt>
      <trkpt lat="43.0991960" lon="-1.0780480">
        <ele>858.5</ele>
        <time>2019-07-13T16:11:07Z</time>
      </trkpt>
      <trkpt lat="43.0992900" lon="-1.0780970">
        <ele>859.8</ele>
        <time>2019-07-13T16:11:15Z</time>
      </trkpt>
      <trkpt lat="43.0993850" lon="-1.0781440">
        <ele>861.1</ele>
        <time>2019-07-13T16:11:23Z</time>
      </trkpt>
      <trkpt lat="43.0994710" lon="-1.0782010">
        <ele>862.3</ele>
        <time>2019-07-13T16:11:31Z</time>
      </trkpt>
      <trkpt lat="43.0995600" lon="-1.0782610">
        <ele>863.2</ele>
        <time>2019-07-13T16:11:39Z</time>
      </trkpt>
      <trkpt lat="43.0996450" lon="-1.0783330">
        <ele>864.0</ele>
        <time>2019-07-13T16:11:47Z</time>
      </trkpt>
      <trkpt lat="43.0997200" lon="-1.0784040">
        <ele>864.8</ele>
        <time>2019-07-13T16:11:54Z</time>
      </trkpt>
      <trkpt lat="43.0997980" lon="-1.0784770">
        <ele>865.8</ele>
        <time>2019-07-13T16:12:01Z</time>
      </trkpt>
      <trkpt lat="43.0998910" lon="-1.0785270">
        <ele>867.2</ele>
        <time>2019-07-13T16:12:08Z</time>
      </trkpt>
      <trkpt lat="43.0999760" lon="-1.0785850">
        <ele>868.8</ele>
        <time>2019-07-13T16:12:14Z</time>
      </trkpt>
      <trkpt lat="43.1000800" lon="-1.0786210">
        <ele>870.3</ele>
        <time>2019-07-13T16:12:21Z</time>
      </trkpt>
      <trkpt lat="43.1001660" lon="-1.0786580">
        <ele>871.4</ele>
        <time>2019-07-13T16:12:27Z</time>
      </trkpt>
      <trkpt lat="43.1002300" lon="-1.0787530">
        <ele>871.7</ele>
        <time>2019-07-13T16:12:34Z</time>
      </trkpt>
      <trkpt lat="43.1002400" lon="-1.0787770">
        <ele>871.6</ele>
        <time>2019-07-13T16:12:40Z</time>
      </trkpt>
      <trkpt lat="43.1002830" lon="-1.0788160">
        <ele>871.4</ele>
        <time>2019-07-13T16:13:09Z</time>
      </trkpt>
      <trkpt lat="43.1002720" lon="-1.0789510">
        <ele>871.0</ele>
        <time>2019-07-13T16:14:05Z</time>
      </trkpt>
      <trkpt lat="43.1003040" lon="-1.0790810">
        <ele>870.7</ele>
        <time>2019-07-13T16:14:10Z</time>
      </trkpt>
      <trkpt lat="43.1003710" lon="-1.0792020">
        <ele>870.3</ele>
        <time>2019-07-13T16:14:15Z</time>
      </trkpt>
      <trkpt lat="43.1004600" lon="-1.0792790">
        <ele>869.9</ele>
        <time>2019-07-13T16:14:19Z</time>
      </trkpt>
      <trkpt lat="43.1005690" lon="-1.0793420">
        <ele>869.4</ele>
        <time>2019-07-13T16:14:23Z</time>
      </trkpt>
      <trkpt lat="43.1006480" lon="-1.0794160">
        <ele>869.1</ele>
        <time>2019-07-13T16:14:26Z</time>
      </trkpt>
      <trkpt lat="43.1007230" lon="-1.0795190">
        <ele>868.7</ele>
        <time>2019-07-13T16:14:30Z</time>
      </trkpt>
      <trkpt lat="43.1007960" lon="-1.0796410">
        <ele>868.3</ele>
        <time>2019-07-13T16:14:34Z</time>
      </trkpt>
      <trkpt lat="43.1008350" lon="-1.0797710">
        <ele>867.9</ele>
        <time>2019-07-13T16:14:37Z</time>
      </trkpt>
      <trkpt lat="43.1008760" lon="-1.0798830">
        <ele>867.7</ele>
        <time>2019-07-13T16:14:40Z</time>
      </trkpt>
      <trkpt lat="43.1009300" lon="-1.0800070">
        <ele>867.3</ele>
        <time>2019-07-13T16:14:43Z</time>
      </trkpt>
      <trkpt lat="43.1009950" lon="-1.0801140">
        <ele>867.0</ele>
        <time>2019-07-13T16:14:46Z</time>
      </trkpt>
      <trkpt lat="43.1010680" lon="-1.0802250">
        <ele>866.7</ele>
        <time>2019-07-13T16:14:49Z</time>
      </trkpt>
      <trkpt lat="43.1010920" lon="-1.0803730">
        <ele>866.4</ele>
        <time>2019-07-13T16:14:52Z</time>
      </trkpt>
      <trkpt lat="43.1010530" lon="-1.0805100">
        <ele>866.2</ele>
        <time>2019-07-13T16:14:55Z</time>
      </trkpt>
      <trkpt lat="43.1010000" lon="-1.0806350">
        <ele>866.0</ele>
        <time>2019-07-13T16:14:58Z</time>
      </trkpt>
      <trkpt lat="43.1009450" lon="-1.0807500">
        <ele>865.8</ele>
        <time>2019-07-13T16:15:01Z</time>
      </trkpt>
      <trkpt lat="43.1008850" lon="-1.0808730">
        <ele>865.6</ele>
        <time>2019-07-13T16:15:04Z</time>
      </trkpt>
      <trkpt lat="43.1008270" lon="-1.0810030">
        <ele>865.4</ele>
        <time>2019-07-13T16:15:07Z</time>
      </trkpt>
      <trkpt lat="43.1007960" lon="-1.0811470">
        <ele>865.1</ele>
        <time>2019-07-13T16:15:10Z</time>
      </trkpt>
      <trkpt lat="43.1007720" lon="-1.0812820">
        <ele>865.0</ele>
        <time>2019-07-13T16:15:13Z</time>
      </trkpt>
      <trkpt lat="43.1007420" lon="-1.0814050">
        <ele>864.8</ele>
        <time>2019-07-13T16:15:16Z</time>
      </trkpt>
      <trkpt lat="43.1007230" lon="-1.0815370">
        <ele>864.6</ele>
        <time>2019-07-13T16:15:19Z</time>
      </trkpt>
      <trkpt lat="43.1007150" lon="-1.0816720">
        <ele>864.4</ele>
        <time>2019-07-13T16:15:22Z</time>
      </trkpt>
      <trkpt lat="43.1007350" lon="-1.0818170">
        <ele>864.2</ele>
        <time>2019-07-13T16:15:25Z</time>
      </trkpt>
      <trkpt lat="43.1007470" lon="-1.0819680">
        <ele>864.0</ele>
        <time>2019-07-13T16:15:28Z</time>
      </trkpt>
      <trkpt lat="43.1007030" lon="-1.0821070">
        <ele>863.8</ele>
        <time>2019-07-13T16:15:31Z</time>
      </trkpt>
      <trkpt lat="43.1006120" lon="-1.0821770">
        <ele>863.7</ele>
        <time>2019-07-13T16:15:34Z</time>
      </trkpt>
      <trkpt lat="43.1005170" lon="-1.0822320">
        <ele>863.5</ele>
        <time>2019-07-13T16:15:38Z</time>
      </trkpt>
      <trkpt lat="43.1004380" lon="-1.0823030">
        <ele>863.4</ele>
        <time>2019-07-13T16:15:42Z</time>
      </trkpt>
      <trkpt lat="43.1003660" lon="-1.0824000">
        <ele>863.2</ele>
        <time>2019-07-13T16:15:46Z</time>
      </trkpt>
      <trkpt lat="43.1003110" lon="-1.0825140">
        <ele>863.0</ele>
        <time>2019-07-13T16:15:50Z</time>
      </trkpt>
      <trkpt lat="43.1002670" lon="-1.0826300">
        <ele>862.8</ele>
        <time>2019-07-13T16:15:54Z</time>
      </trkpt>
      <trkpt lat="43.1002230" lon="-1.0827580">
        <ele>862.6</ele>
        <time>2019-07-13T16:15:58Z</time>
      </trkpt>
      <trkpt lat="43.1001830" lon="-1.0828900">
        <ele>862.4</ele>
        <time>2019-07-13T16:16:02Z</time>
      </trkpt>
      <trkpt lat="43.1001330" lon="-1.0830160">
        <ele>862.1</ele>
        <time>2019-07-13T16:16:06Z</time>
      </trkpt>
      <trkpt lat="43.1000770" lon="-1.0831490">
        <ele>861.9</ele>
        <time>2019-07-13T16:16:10Z</time>
      </trkpt>
      <trkpt lat="43.1000380" lon="-1.0832990">
        <ele>861.6</ele>
        <time>2019-07-13T16:16:14Z</time>
      </trkpt>
      <trkpt lat="43.1000170" lon="-1.0834550">
        <ele>861.3</ele>
        <time>2019-07-13T16:16:18Z</time>
      </trkpt>
      <trkpt lat="43.0999990" lon="-1.0836060">
        <ele>861.0</ele>
        <time>2019-07-13T16:16:22Z</time>
      </trkpt>
      <trkpt lat="43.1000000" lon="-1.0837560">
        <ele>860.8</ele>
        <time>2019-07-13T16:16:26Z</time>
      </trkpt>
      <trkpt lat="43.1000200" lon="-1.0839190">
        <ele>860.4</ele>
        <time>2019-07-13T16:16:30Z</time>
      </trkpt>
      <trkpt lat="43.1000400" lon="-1.0840470">
        <ele>860.2</ele>
        <time>2019-07-13T16:16:33Z</time>
      </trkpt>
      <trkpt lat="43.1000670" lon="-1.0841730">
        <ele>859.9</ele>
        <time>2019-07-13T16:16:36Z</time>
      </trkpt>
      <trkpt lat="43.1000980" lon="-1.0842960">
        <ele>859.7</ele>
        <time>2019-07-13T16:16:39Z</time>
      </trkpt>
      <trkpt lat="43.1001380" lon="-1.0844240">
        <ele>859.4</ele>
        <time>2019-07-13T16:16:42Z</time>
      </trkpt>
      <trkpt lat="43.1001890" lon="-1.0845620">
        <ele>859.1</ele>
        <time>2019-07-13T16:16:45Z</time>
      </trkpt>
      <trkpt lat="43.1002480" lon="-1.0847050">
        <ele>858.8</ele>
        <time>2019-07-13T16:16:48Z</time>
      </trkpt>
      <trkpt lat="43.1003070" lon="-1.0848740">
        <ele>858.5</ele>
        <time>2019-07-13T16:16:51Z</time>
      </trkpt>
      <trkpt lat="43.1003290" lon="-1.0850070">
        <ele>858.2</ele>
        <time>2019-07-13T16:16:53Z</time>
      </trkpt>
      <trkpt lat="43.1003290" lon="-1.0851490">
        <ele>857.9</ele>
        <time>2019-07-13T16:16:55Z</time>
      </trkpt>
      <trkpt lat="43.1003210" lon="-1.0852950">
        <ele>857.7</ele>
        <time>2019-07-13T16:16:57Z</time>
      </trkpt>
      <trkpt lat="43.1003100" lon="-1.0854400">
        <ele>857.4</ele>
        <time>2019-07-13T16:16:59Z</time>
      </trkpt>
      <trkpt lat="43.1002960" lon="-1.0855840">
        <ele>857.2</ele>
        <time>2019-07-13T16:17:01Z</time>
      </trkpt>
      <trkpt lat="43.1002790" lon="-1.0857220">
        <ele>856.9</ele>
        <time>2019-07-13T16:17:03Z</time>
      </trkpt>
      <trkpt lat="43.1002630" lon="-1.0858520">
        <ele>856.7</ele>
        <time>2019-07-13T16:17:05Z</time>
      </trkpt>
      <trkpt lat="43.1002490" lon="-1.0859760">
        <ele>856.4</ele>
        <time>2019-07-13T16:17:07Z</time>
      </trkpt>
      <trkpt lat="43.1002210" lon="-1.0861460">
        <ele>856.1</ele>
        <time>2019-07-13T16:17:10Z</time>
      </trkpt>
      <trkpt lat="43.1001880" lon="-1.0863040">
        <ele>855.8</ele>
        <time>2019-07-13T16:17:13Z</time>
      </trkpt>
      <trkpt lat="43.1001550" lon="-1.0864570">
        <ele>855.4</ele>
        <time>2019-07-13T16:17:16Z</time>
      </trkpt>
      <trkpt lat="43.1001190" lon="-1.0865910">
        <ele>855.1</ele>
        <time>2019-07-13T16:17:19Z</time>
      </trkpt>
      <trkpt lat="43.1000830" lon="-1.0867150">
        <ele>854.9</ele>
        <time>2019-07-13T16:17:22Z</time>
      </trkpt>
      <trkpt lat="43.1000390" lon="-1.0868340">
        <ele>854.6</ele>
        <time>2019-07-13T16:17:25Z</time>
      </trkpt>
      <trkpt lat="43.1000060" lon="-1.0869540">
        <ele>854.3</ele>
        <time>2019-07-13T16:17:28Z</time>
      </trkpt>
      <trkpt lat="43.0999650" lon="-1.0870670">
        <ele>854.0</ele>
        <time>2019-07-13T16:17:31Z</time>
      </trkpt>
      <trkpt lat="43.0999270" lon="-1.0872210">
        <ele>853.7</ele>
        <time>2019-07-13T16:17:35Z</time>
      </trkpt>
      <trkpt lat="43.0998740" lon="-1.0873570">
        <ele>853.3</ele>
        <time>2019-07-13T16:17:39Z</time>
      </trkpt>
      <trkpt lat="43.0998140" lon="-1.0874600">
        <ele>853.0</ele>
        <time>2019-07-13T16:17:43Z</time>
      </trkpt>
      <trkpt lat="43.0997330" lon="-1.0875500">
        <ele>852.6</ele>
        <time>2019-07-13T16:17:48Z</time>
      </trkpt>
      <trkpt lat="43.0996540" lon="-1.0876330">
        <ele>852.1</ele>
        <time>2019-07-13T16:17:53Z</time>
      </trkpt>
      <trkpt lat="43.0995780" lon="-1.0877290">
        <ele>851.6</ele>
        <time>2019-07-13T16:17:58Z</time>
      </trkpt>
      <trkpt lat="43.0995260" lon="-1.0878480">
        <ele>851.1</ele>
        <time>2019-07-13T16:18:03Z</time>
      </trkpt>
      <trkpt lat="43.0995020" lon="-1.0879970">
        <ele>850.5</ele>
        <time>2019-07-13T16:18:08Z</time>
      </trkpt>
      <trkpt lat="43.0994980" lon="-1.0881470">
        <ele>850.0</ele>
        <time>2019-07-13T16:18:12Z</time>
      </trkpt>
      <trkpt lat="43.0995130" lon="-1.0883020">
        <ele>849.3</ele>
        <time>2019-07-13T16:18:16Z</time>
      </trkpt>
      <trkpt lat="43.0995260" lon="-1.0884310">
        <ele>848.8</ele>
        <time>2019-07-13T16:18:19Z</time>
      </trkpt>
      <trkpt lat="43.0995580" lon="-1.0885660">
        <ele>848.2</ele>
        <time>2019-07-13T16:18:22Z</time>
      </trkpt>
      <trkpt lat="43.0996060" lon="-1.0886950">
        <ele>847.5</ele>
        <time>2019-07-13T16:18:25Z</time>
      </trkpt>
      <trkpt lat="43.0996680" lon="-1.0888260">
        <ele>846.9</ele>
        <time>2019-07-13T16:18:28Z</time>
      </trkpt>
      <trkpt lat="43.0997390" lon="-1.0889530">
        <ele>846.1</ele>
        <time>2019-07-13T16:18:31Z</time>
      </trkpt>
      <trkpt lat="43.0998110" lon="-1.0890770">
        <ele>845.1</ele>
        <time>2019-07-13T16:18:34Z</time>
      </trkpt>
      <trkpt lat="43.0998870" lon="-1.0892080">
        <ele>844.0</ele>
        <time>2019-07-13T16:18:37Z</time>
      </trkpt>
      <trkpt lat="43.0999720" lon="-1.0893390">
        <ele>842.8</ele>
        <time>2019-07-13T16:18:40Z</time>
      </trkpt>
      <trkpt lat="43.1000570" lon="-1.0894700">
        <ele>841.6</ele>
        <time>2019-07-13T16:18:43Z</time>
      </trkpt>
      <trkpt lat="43.1001180" lon="-1.0895640">
        <ele>840.7</ele>
        <time>2019-07-13T16:18:45Z</time>
      </trkpt>
      <trkpt lat="43.1001840" lon="-1.0896570">
        <ele>839.8</ele>
        <time>2019-07-13T16:18:47Z</time>
      </trkpt>
      <trkpt lat="43.1002530" lon="-1.0897580">
        <ele>838.8</ele>
        <time>2019-07-13T16:18:49Z</time>
      </trkpt>
      <trkpt lat="43.1003160" lon="-1.0898710">
        <ele>837.7</ele>
        <time>2019-07-13T16:18:51Z</time>
      </trkpt>
      <trkpt lat="43.1003790" lon="-1.0899780">
        <ele>836.7</ele>
        <time>2019-07-13T16:18:53Z</time>
      </trkpt>
      <trkpt lat="43.1004400" lon="-1.0900960">
        <ele>835.7</ele>
        <time>2019-07-13T16:18:55Z</time>
      </trkpt>
      <trkpt lat="43.1004990" lon="-1.0902180">
        <ele>834.6</ele>
        <time>2019-07-13T16:18:57Z</time>
      </trkpt>
      <trkpt lat="43.1005630" lon="-1.0903560">
        <ele>833.2</ele>
        <time>2019-07-13T16:18:59Z</time>
      </trkpt>
      <trkpt lat="43.1006200" lon="-1.0904760">
        <ele>831.9</ele>
        <time>2019-07-13T16:19:01Z</time>
      </trkpt>
      <trkpt lat="43.1006760" lon="-1.0905860">
        <ele>830.6</ele>
        <time>2019-07-13T16:19:03Z</time>
      </trkpt>
      <trkpt lat="43.1007370" lon="-1.0906860">
        <ele>829.4</ele>
        <time>2019-07-13T16:19:05Z</time>
      </trkpt>
      <trkpt lat="43.1008130" lon="-1.0907760">
        <ele>828.0</ele>
        <time>2019-07-13T16:19:07Z</time>
      </trkpt>
      <trkpt lat="43.1008980" lon="-1.0908530">
        <ele>826.6</ele>
        <time>2019-07-13T16:19:09Z</time>
      </trkpt>
      <trkpt lat="43.1009840" lon="-1.0909250">
        <ele>825.3</ele>
        <time>2019-07-13T16:19:11Z</time>
      </trkpt>
      <trkpt lat="43.1010990" lon="-1.0910150">
        <ele>823.4</ele>
        <time>2019-07-13T16:19:14Z</time>
      </trkpt>
      <trkpt lat="43.1012220" lon="-1.0910920">
        <ele>821.5</ele>
        <time>2019-07-13T16:19:17Z</time>
      </trkpt>
      <trkpt lat="43.1013160" lon="-1.0911410">
        <ele>820.1</ele>
        <time>2019-07-13T16:19:19Z</time>
      </trkpt>
      <trkpt lat="43.1014140" lon="-1.0911920">
        <ele>818.7</ele>
        <time>2019-07-13T16:19:21Z</time>
      </trkpt>
      <trkpt lat="43.1015160" lon="-1.0912460">
        <ele>817.2</ele>
        <time>2019-07-13T16:19:23Z</time>
      </trkpt>
      <trkpt lat="43.1016060" lon="-1.0912950">
        <ele>815.9</ele>
        <time>2019-07-13T16:19:25Z</time>
      </trkpt>
      <trkpt lat="43.1017010" lon="-1.0913510">
        <ele>814.7</ele>
        <time>2019-07-13T16:19:27Z</time>
      </trkpt>
      <trkpt lat="43.1018040" lon="-1.0914180">
        <ele>813.4</ele>
        <time>2019-07-13T16:19:29Z</time>
      </trkpt>
      <trkpt lat="43.1018920" lon="-1.0914820">
        <ele>812.3</ele>
        <time>2019-07-13T16:19:31Z</time>
      </trkpt>
      <trkpt lat="43.1019710" lon="-1.0915440">
        <ele>811.3</ele>
        <time>2019-07-13T16:19:33Z</time>
      </trkpt>
      <trkpt lat="43.1020540" lon="-1.0916140">
        <ele>810.3</ele>
        <time>2019-07-13T16:19:35Z</time>
      </trkpt>
      <trkpt lat="43.1021370" lon="-1.0916900">
        <ele>809.2</ele>
        <time>2019-07-13T16:19:37Z</time>
      </trkpt>
      <trkpt lat="43.1022200" lon="-1.0917710">
        <ele>808.1</ele>
        <time>2019-07-13T16:19:39Z</time>
      </trkpt>
      <trkpt lat="43.1023010" lon="-1.0918520">
        <ele>806.9</ele>
        <time>2019-07-13T16:19:41Z</time>
      </trkpt>
      <trkpt lat="43.1023770" lon="-1.0919300">
        <ele>805.9</ele>
        <time>2019-07-13T16:19:43Z</time>
      </trkpt>
      <trkpt lat="43.1024630" lon="-1.0920470">
        <ele>804.4</ele>
        <time>2019-07-13T16:19:46Z</time>
      </trkpt>
      <trkpt lat="43.1025400" lon="-1.0921890">
        <ele>802.7</ele>
        <time>2019-07-13T16:19:49Z</time>
      </trkpt>
      <trkpt lat="43.1025900" lon="-1.0923030">
        <ele>801.5</ele>
        <time>2019-07-13T16:19:51Z</time>
      </trkpt>
      <trkpt lat="43.1026350" lon="-1.0924230">
        <ele>800.2</ele>
        <time>2019-07-13T16:19:53Z</time>
      </trkpt>
      <trkpt lat="43.1026860" lon="-1.0925960">
        <ele>798.4</ele>
        <time>2019-07-13T16:19:56Z</time>
      </trkpt>
      <trkpt lat="43.1027270" lon="-1.0927530">
        <ele>796.9</ele>
        <time>2019-07-13T16:19:59Z</time>
      </trkpt>
      <trkpt lat="43.1027570" lon="-1.0928810">
        <ele>795.6</ele>
        <time>2019-07-13T16:20:02Z</time>
      </trkpt>
      <trkpt lat="43.1027850" lon="-1.0930030">
        <ele>794.3</ele>
        <time>2019-07-13T16:20:05Z</time>
      </trkpt>
      <trkpt lat="43.1027990" lon="-1.0931290">
        <ele>793.2</ele>
        <time>2019-07-13T16:20:08Z</time>
      </trkpt>
      <trkpt lat="43.1028070" lon="-1.0932580">
        <ele>791.9</ele>
        <time>2019-07-13T16:20:11Z</time>
      </trkpt>
      <trkpt lat="43.1028140" lon="-1.0933870">
        <ele>790.5</ele>
        <time>2019-07-13T16:20:14Z</time>
      </trkpt>
      <trkpt lat="43.1028170" lon="-1.0935280">
        <ele>789.0</ele>
        <time>2019-07-13T16:20:17Z</time>
      </trkpt>
      <trkpt lat="43.1028120" lon="-1.0936550">
        <ele>787.7</ele>
        <time>2019-07-13T16:20:20Z</time>
      </trkpt>
      <trkpt lat="43.1028000" lon="-1.0938020">
        <ele>786.2</ele>
        <time>2019-07-13T16:20:24Z</time>
      </trkpt>
      <trkpt lat="43.1027810" lon="-1.0939530">
        <ele>784.9</ele>
        <time>2019-07-13T16:20:28Z</time>
      </trkpt>
      <trkpt lat="43.1027750" lon="-1.0940770">
        <ele>784.0</ele>
        <time>2019-07-13T16:20:31Z</time>
      </trkpt>
      <trkpt lat="43.1027870" lon="-1.0942280">
        <ele>782.8</ele>
        <time>2019-07-13T16:20:34Z</time>
      </trkpt>
      <trkpt lat="43.1028080" lon="-1.0943740">
        <ele>781.7</ele>
        <time>2019-07-13T16:20:37Z</time>
      </trkpt>
      <trkpt lat="43.1028370" lon="-1.0945150">
        <ele>780.6</ele>
        <time>2019-07-13T16:20:40Z</time>
      </trkpt>
      <trkpt lat="43.1028710" lon="-1.0946430">
        <ele>779.1</ele>
        <time>2019-07-13T16:20:43Z</time>
      </trkpt>
      <trkpt lat="43.1029140" lon="-1.0947740">
        <ele>777.6</ele>
        <time>2019-07-13T16:20:46Z</time>
      </trkpt>
      <trkpt lat="43.1029660" lon="-1.0949140">
        <ele>776.1</ele>
        <time>2019-07-13T16:20:49Z</time>
      </trkpt>
      <trkpt lat="43.1030240" lon="-1.0950740">
        <ele>774.3</ele>
        <time>2019-07-13T16:20:52Z</time>
      </trkpt>
      <trkpt lat="43.1030780" lon="-1.0952420">
        <ele>772.6</ele>
        <time>2019-07-13T16:20:55Z</time>
      </trkpt>
      <trkpt lat="43.1031350" lon="-1.0954040">
        <ele>770.9</ele>
        <time>2019-07-13T16:20:58Z</time>
      </trkpt>
      <trkpt lat="43.1031990" lon="-1.0955680">
        <ele>769.0</ele>
        <time>2019-07-13T16:21:01Z</time>
      </trkpt>
      <trkpt lat="43.1032470" lon="-1.0956790">
        <ele>768.0</ele>
        <time>2019-07-13T16:21:03Z</time>
      </trkpt>
      <trkpt lat="43.1033000" lon="-1.0958070">
        <ele>766.9</ele>
        <time>2019-07-13T16:21:06Z</time>
      </trkpt>
      <trkpt lat="43.1033460" lon="-1.0959260">
        <ele>766.0</ele>
        <time>2019-07-13T16:21:09Z</time>
      </trkpt>
      <trkpt lat="43.1034140" lon="-1.0960620">
        <ele>764.4</ele>
        <time>2019-07-13T16:21:12Z</time>
      </trkpt>
      <trkpt lat="43.1034930" lon="-1.0962100">
        <ele>763.0</ele>
        <time>2019-07-13T16:21:15Z</time>
      </trkpt>
      <trkpt lat="43.1035770" lon="-1.0963540">
        <ele>761.1</ele>
        <time>2019-07-13T16:21:18Z</time>
      </trkpt>
      <trkpt lat="43.1036430" lon="-1.0964740">
        <ele>759.4</ele>
        <time>2019-07-13T16:21:21Z</time>
      </trkpt>
      <trkpt lat="43.1037000" lon="-1.0965720">
        <ele>758.0</ele>
        <time>2019-07-13T16:21:24Z</time>
      </trkpt>
      <trkpt lat="43.1037720" lon="-1.0966830">
        <ele>756.8</ele>
        <time>2019-07-13T16:21:28Z</time>
      </trkpt>
      <trkpt lat="43.1038390" lon="-1.0967870">
        <ele>755.6</ele>
        <time>2019-07-13T16:21:31Z</time>
      </trkpt>
      <trkpt lat="43.1039360" lon="-1.0969090">
        <ele>753.8</ele>
        <time>2019-07-13T16:21:34Z</time>
      </trkpt>
      <trkpt lat="43.1040300" lon="-1.0970330">
        <ele>752.6</ele>
        <time>2019-07-13T16:21:37Z</time>
      </trkpt>
      <trkpt lat="43.1041250" lon="-1.0971540">
        <ele>751.5</ele>
        <time>2019-07-13T16:21:40Z</time>
      </trkpt>
      <trkpt lat="43.1042120" lon="-1.0972640">
        <ele>750.0</ele>
        <time>2019-07-13T16:21:43Z</time>
      </trkpt>
      <trkpt lat="43.1043010" lon="-1.0973640">
        <ele>748.9</ele>
        <time>2019-07-13T16:21:46Z</time>
      </trkpt>
      <trkpt lat="43.1043910" lon="-1.0974490">
        <ele>748.0</ele>
        <time>2019-07-13T16:21:49Z</time>
      </trkpt>
      <trkpt lat="43.1044770" lon="-1.0975130">
        <ele>746.8</ele>
        <time>2019-07-13T16:21:52Z</time>
      </trkpt>
      <trkpt lat="43.1045890" lon="-1.0975500">
        <ele>745.6</ele>
        <time>2019-07-13T16:21:55Z</time>
      </trkpt>
      <trkpt lat="43.1047140" lon="-1.0975310">
        <ele>744.0</ele>
        <time>2019-07-13T16:21:58Z</time>
      </trkpt>
      <trkpt lat="43.1048340" lon="-1.0975000">
        <ele>742.7</ele>
        <time>2019-07-13T16:22:01Z</time>
      </trkpt>
      <trkpt lat="43.1049510" lon="-1.0974740">
        <ele>741.7</ele>
        <time>2019-07-13T16:22:04Z</time>
      </trkpt>
      <trkpt lat="43.1050790" lon="-1.0974660">
        <ele>740.0</ele>
        <time>2019-07-13T16:22:07Z</time>
      </trkpt>
      <trkpt lat="43.1051700" lon="-1.0974760">
        <ele>739.0</ele>
        <time>2019-07-13T16:22:09Z</time>
      </trkpt>
      <trkpt lat="43.1053000" lon="-1.0975030">
        <ele>737.0</ele>
        <time>2019-07-13T16:22:12Z</time>
      </trkpt>
      <trkpt lat="43.1054350" lon="-1.0975400">
        <ele>735.2</ele>
        <time>2019-07-13T16:22:15Z</time>
      </trkpt>
      <trkpt lat="43.1055390" lon="-1.0975780">
        <ele>733.5</ele>
        <time>2019-07-13T16:22:17Z</time>
      </trkpt>
      <trkpt lat="43.1056520" lon="-1.0976530">
        <ele>731.7</ele>
        <time>2019-07-13T16:22:19Z</time>
      </trkpt>
      <trkpt lat="43.1057570" lon="-1.0977850">
        <ele>730.1</ele>
        <time>2019-07-13T16:22:21Z</time>
      </trkpt>
      <trkpt lat="43.1058440" lon="-1.0979640">
        <ele>728.6</ele>
        <time>2019-07-13T16:22:23Z</time>
      </trkpt>
      <trkpt lat="43.1059240" lon="-1.0981500">
        <ele>728.1</ele>
        <time>2019-07-13T16:22:25Z</time>
      </trkpt>
      <trkpt lat="43.1059890" lon="-1.0983270">
        <ele>727.9</ele>
        <time>2019-07-13T16:22:27Z</time>
      </trkpt>
      <trkpt lat="43.1060380" lon="-1.0984950">
        <ele>727.9</ele>
        <time>2019-07-13T16:22:29Z</time>
      </trkpt>
      <trkpt lat="43.1060590" lon="-1.0986590">
        <ele>728.1</ele>
        <time>2019-07-13T16:22:31Z</time>
      </trkpt>
      <trkpt lat="43.1060520" lon="-1.0988020">
        <ele>728.3</ele>
        <time>2019-07-13T16:22:33Z</time>
      </trkpt>
      <trkpt lat="43.1060460" lon="-1.0989770">
        <ele>728.4</ele>
        <time>2019-07-13T16:22:36Z</time>
      </trkpt>
      <trkpt lat="43.1060610" lon="-1.0991290">
        <ele>728.0</ele>
        <time>2019-07-13T16:22:39Z</time>
      </trkpt>
      <trkpt lat="43.1061010" lon="-1.0992860">
        <ele>727.6</ele>
        <time>2019-07-13T16:22:42Z</time>
      </trkpt>
      <trkpt lat="43.1061470" lon="-1.0994380">
        <ele>726.9</ele>
        <time>2019-07-13T16:22:45Z</time>
      </trkpt>
      <trkpt lat="43.1061960" lon="-1.0995930">
        <ele>726.3</ele>
        <time>2019-07-13T16:22:48Z</time>
      </trkpt>
      <trkpt lat="43.1062390" lon="-1.0997530">
        <ele>725.9</ele>
        <time>2019-07-13T16:22:51Z</time>
      </trkpt>
      <trkpt lat="43.1062680" lon="-1.0998910">
        <ele>725.6</ele>
        <time>2019-07-13T16:22:54Z</time>
      </trkpt>
      <trkpt lat="43.1062970" lon="-1.1000200">
        <ele>725.3</ele>
        <time>2019-07-13T16:22:57Z</time>
      </trkpt>
      <trkpt lat="43.1063300" lon="-1.1001610">
        <ele>724.9</ele>
        <time>2019-07-13T16:23:00Z</time>
      </trkpt>
      <trkpt lat="43.1063630" lon="-1.1002850">
        <ele>724.5</ele>
        <time>2019-07-13T16:23:03Z</time>
      </trkpt>
      <trkpt lat="43.1063900" lon="-1.1004090">
        <ele>723.9</ele>
        <time>2019-07-13T16:23:06Z</time>
      </trkpt>
      <trkpt lat="43.1064350" lon="-1.1005370">
        <ele>723.2</ele>
        <time>2019-07-13T16:23:09Z</time>
      </trkpt>
      <trkpt lat="43.1064810" lon="-1.1006940">
        <ele>722.5</ele>
        <time>2019-07-13T16:23:12Z</time>
      </trkpt>
      <trkpt lat="43.1065290" lon="-1.1008420">
        <ele>721.8</ele>
        <time>2019-07-13T16:23:15Z</time>
      </trkpt>
      <trkpt lat="43.1065820" lon="-1.1009930">
        <ele>721.1</ele>
        <time>2019-07-13T16:23:18Z</time>
      </trkpt>
      <trkpt lat="43.1066490" lon="-1.1011220">
        <ele>720.2</ele>
        <time>2019-07-13T16:23:21Z</time>
      </trkpt>
      <trkpt lat="43.1067270" lon="-1.1012370">
        <ele>719.3</ele>
        <time>2019-07-13T16:23:24Z</time>
      </trkpt>
      <trkpt lat="43.1068280" lon="-1.1013540">
        <ele>718.2</ele>
        <time>2019-07-13T16:23:27Z</time>
      </trkpt>
      <trkpt lat="43.1068950" lon="-1.1014370">
        <ele>717.3</ele>
        <time>2019-07-13T16:23:29Z</time>
      </trkpt>
      <trkpt lat="43.1069570" lon="-1.1015350">
        <ele>716.4</ele>
        <time>2019-07-13T16:23:31Z</time>
      </trkpt>
      <trkpt lat="43.1070100" lon="-1.1016410">
        <ele>715.5</ele>
        <time>2019-07-13T16:23:33Z</time>
      </trkpt>
      <trkpt lat="43.1070570" lon="-1.1017470">
        <ele>714.8</ele>
        <time>2019-07-13T16:23:35Z</time>
      </trkpt>
      <trkpt lat="43.1071210" lon="-1.1018950">
        <ele>713.5</ele>
        <time>2019-07-13T16:23:38Z</time>
      </trkpt>
      <trkpt lat="43.1071690" lon="-1.1020030">
        <ele>712.7</ele>
        <time>2019-07-13T16:23:40Z</time>
      </trkpt>
      <trkpt lat="43.1072160" lon="-1.1021100">
        <ele>711.7</ele>
        <time>2019-07-13T16:23:42Z</time>
      </trkpt>
      <trkpt lat="43.1072680" lon="-1.1022130">
        <ele>710.6</ele>
        <time>2019-07-13T16:23:44Z</time>
      </trkpt>
      <trkpt lat="43.1073290" lon="-1.1023200">
        <ele>709.6</ele>
        <time>2019-07-13T16:23:46Z</time>
      </trkpt>
      <trkpt lat="43.1073870" lon="-1.1024310">
        <ele>708.6</ele>
        <time>2019-07-13T16:23:48Z</time>
      </trkpt>
      <trkpt lat="43.1074350" lon="-1.1025500">
        <ele>707.8</ele>
        <time>2019-07-13T16:23:50Z</time>
      </trkpt>
      <trkpt lat="43.1074670" lon="-1.1026690">
        <ele>707.0</ele>
        <time>2019-07-13T16:23:52Z</time>
      </trkpt>
      <trkpt lat="43.1074930" lon="-1.1027900">
        <ele>706.0</ele>
        <time>2019-07-13T16:23:54Z</time>
      </trkpt>
      <trkpt lat="43.1075310" lon="-1.1029090">
        <ele>704.9</ele>
        <time>2019-07-13T16:23:56Z</time>
      </trkpt>
      <trkpt lat="43.1075820" lon="-1.1030190">
        <ele>703.7</ele>
        <time>2019-07-13T16:23:58Z</time>
      </trkpt>
      <trkpt lat="43.1076580" lon="-1.1031630">
        <ele>702.1</ele>
        <time>2019-07-13T16:24:01Z</time>
      </trkpt>
      <trkpt lat="43.1077310" lon="-1.1033120">
        <ele>700.5</ele>
        <time>2019-07-13T16:24:04Z</time>
      </trkpt>
      <trkpt lat="43.1077970" lon="-1.1034700">
        <ele>699.0</ele>
        <time>2019-07-13T16:24:07Z</time>
      </trkpt>
      <trkpt lat="43.1078440" lon="-1.1035760">
        <ele>698.0</ele>
        <time>2019-07-13T16:24:09Z</time>
      </trkpt>
      <trkpt lat="43.1079200" lon="-1.1037280">
        <ele>696.5</ele>
        <time>2019-07-13T16:24:12Z</time>
      </trkpt>
      <trkpt lat="43.1079700" lon="-1.1038310">
        <ele>695.6</ele>
        <time>2019-07-13T16:24:14Z</time>
      </trkpt>
      <trkpt lat="43.1080220" lon="-1.1039360">
        <ele>694.9</ele>
        <time>2019-07-13T16:24:16Z</time>
      </trkpt>
      <trkpt lat="43.1080750" lon="-1.1040420">
        <ele>693.9</ele>
        <time>2019-07-13T16:24:18Z</time>
      </trkpt>
      <trkpt lat="43.1081640" lon="-1.1041690">
        <ele>692.7</ele>
        <time>2019-07-13T16:24:21Z</time>
      </trkpt>
      <trkpt lat="43.1082560" lon="-1.1042780">
        <ele>691.3</ele>
        <time>2019-07-13T16:24:24Z</time>
      </trkpt>
      <trkpt lat="43.1083600" lon="-1.1043710">
        <ele>690.0</ele>
        <time>2019-07-13T16:24:27Z</time>
      </trkpt>
      <trkpt lat="43.1084610" lon="-1.1044730">
        <ele>688.9</ele>
        <time>2019-07-13T16:24:30Z</time>
      </trkpt>
      <trkpt lat="43.1085600" lon="-1.1045780">
        <ele>687.7</ele>
        <time>2019-07-13T16:24:33Z</time>
      </trkpt>
      <trkpt lat="43.1086640" lon="-1.1046920">
        <ele>686.5</ele>
        <time>2019-07-13T16:24:36Z</time>
      </trkpt>
      <trkpt lat="43.1087610" lon="-1.1048050">
        <ele>685.7</ele>
        <time>2019-07-13T16:24:39Z</time>
      </trkpt>
      <trkpt lat="43.1088450" lon="-1.1049220">
        <ele>684.9</ele>
        <time>2019-07-13T16:24:42Z</time>
      </trkpt>
      <trkpt lat="43.1089190" lon="-1.1050380">
        <ele>683.7</ele>
        <time>2019-07-13T16:24:45Z</time>
      </trkpt>
      <trkpt lat="43.1089900" lon="-1.1051550">
        <ele>682.4</ele>
        <time>2019-07-13T16:24:48Z</time>
      </trkpt>
      <trkpt lat="43.1090580" lon="-1.1052800">
        <ele>680.8</ele>
        <time>2019-07-13T16:24:51Z</time>
      </trkpt>
      <trkpt lat="43.1091280" lon="-1.1054070">
        <ele>679.6</ele>
        <time>2019-07-13T16:24:54Z</time>
      </trkpt>
      <trkpt lat="43.1091980" lon="-1.1055430">
        <ele>678.3</ele>
        <time>2019-07-13T16:24:57Z</time>
      </trkpt>
      <trkpt lat="43.1092760" lon="-1.1056850">
        <ele>677.0</ele>
        <time>2019-07-13T16:25:00Z</time>
      </trkpt>
      <trkpt lat="43.1093330" lon="-1.1057860">
        <ele>676.0</ele>
        <time>2019-07-13T16:25:02Z</time>
      </trkpt>
      <trkpt lat="43.1093900" lon="-1.1058870">
        <ele>675.1</ele>
        <time>2019-07-13T16:25:04Z</time>
      </trkpt>
      <trkpt lat="43.1094410" lon="-1.1059920">
        <ele>674.2</ele>
        <time>2019-07-13T16:25:06Z</time>
      </trkpt>
      <trkpt lat="43.1095100" lon="-1.1061460">
        <ele>672.8</ele>
        <time>2019-07-13T16:25:09Z</time>
      </trkpt>
      <trkpt lat="43.1095780" lon="-1.1062860">
        <ele>671.4</ele>
        <time>2019-07-13T16:25:12Z</time>
      </trkpt>
      <trkpt lat="43.1096400" lon="-1.1064120">
        <ele>670.0</ele>
        <time>2019-07-13T16:25:15Z</time>
      </trkpt>
      <trkpt lat="43.1097100" lon="-1.1065380">
        <ele>668.5</ele>
        <time>2019-07-13T16:25:18Z</time>
      </trkpt>
      <trkpt lat="43.1097850" lon="-1.1066780">
        <ele>666.5</ele>
        <time>2019-07-13T16:25:21Z</time>
      </trkpt>
      <trkpt lat="43.1098520" lon="-1.1068250">
        <ele>665.0</ele>
        <time>2019-07-13T16:25:24Z</time>
      </trkpt>
      <trkpt lat="43.1098940" lon="-1.1069390">
        <ele>664.1</ele>
        <time>2019-07-13T16:25:26Z</time>
      </trkpt>
      <trkpt lat="43.1099180" lon="-1.1070590">
        <ele>663.1</ele>
        <time>2019-07-13T16:25:28Z</time>
      </trkpt>
      <trkpt lat="43.1099230" lon="-1.1072250">
        <ele>661.8</ele>
        <time>2019-07-13T16:25:31Z</time>
      </trkpt>
      <trkpt lat="43.1099270" lon="-1.1073950">
        <ele>660.3</ele>
        <time>2019-07-13T16:25:34Z</time>
      </trkpt>
      <trkpt lat="43.1099250" lon="-1.1075650">
        <ele>658.8</ele>
        <time>2019-07-13T16:25:37Z</time>
      </trkpt>
      <trkpt lat="43.1099240" lon="-1.1077510">
        <ele>657.2</ele>
        <time>2019-07-13T16:25:40Z</time>
      </trkpt>
      <trkpt lat="43.1099340" lon="-1.1079270">
        <ele>655.8</ele>
        <time>2019-07-13T16:25:43Z</time>
      </trkpt>
      <trkpt lat="43.1099440" lon="-1.1080850">
        <ele>654.5</ele>
        <time>2019-07-13T16:25:46Z</time>
      </trkpt>
      <trkpt lat="43.1099670" lon="-1.1082480">
        <ele>653.2</ele>
        <time>2019-07-13T16:25:49Z</time>
      </trkpt>
      <trkpt lat="43.1099850" lon="-1.1084110">
        <ele>652.0</ele>
        <time>2019-07-13T16:25:52Z</time>
      </trkpt>
      <trkpt lat="43.1100080" lon="-1.1085700">
        <ele>650.9</ele>
        <time>2019-07-13T16:25:55Z</time>
      </trkpt>
      <trkpt lat="43.1100380" lon="-1.1087200">
        <ele>649.6</ele>
        <time>2019-07-13T16:25:58Z</time>
      </trkpt>
      <trkpt lat="43.1100790" lon="-1.1088770">
        <ele>648.1</ele>
        <time>2019-07-13T16:26:01Z</time>
      </trkpt>
      <trkpt lat="43.1101260" lon="-1.1090310">
        <ele>646.5</ele>
        <time>2019-07-13T16:26:04Z</time>
      </trkpt>
      <trkpt lat="43.1101750" lon="-1.1091810">
        <ele>644.8</ele>
        <time>2019-07-13T16:26:07Z</time>
      </trkpt>
      <trkpt lat="43.1102150" lon="-1.1093040">
        <ele>643.4</ele>
        <time>2019-07-13T16:26:09Z</time>
      </trkpt>
      <trkpt lat="43.1102530" lon="-1.1094660">
        <ele>641.9</ele>
        <time>2019-07-13T16:26:12Z</time>
      </trkpt>
      <trkpt lat="43.1102880" lon="-1.1096170">
        <ele>640.8</ele>
        <time>2019-07-13T16:26:15Z</time>
      </trkpt>
      <trkpt lat="43.1103320" lon="-1.1097720">
        <ele>639.3</ele>
        <time>2019-07-13T16:26:18Z</time>
      </trkpt>
      <trkpt lat="43.1103890" lon="-1.1099330">
        <ele>637.5</ele>
        <time>2019-07-13T16:26:21Z</time>
      </trkpt>
      <trkpt lat="43.1104590" lon="-1.1100860">
        <ele>635.8</ele>
        <time>2019-07-13T16:26:24Z</time>
      </trkpt>
      <trkpt lat="43.1105440" lon="-1.1102220">
        <ele>634.1</ele>
        <time>2019-07-13T16:26:27Z</time>
      </trkpt>
      <trkpt lat="43.1106270" lon="-1.1103630">
        <ele>632.6</ele>
        <time>2019-07-13T16:26:30Z</time>
      </trkpt>
      <trkpt lat="43.1106800" lon="-1.1104710">
        <ele>631.5</ele>
        <time>2019-07-13T16:26:32Z</time>
      </trkpt>
      <trkpt lat="43.1107250" lon="-1.1105880">
        <ele>630.4</ele>
        <time>2019-07-13T16:26:34Z</time>
      </trkpt>
      <trkpt lat="43.1107600" lon="-1.1107160">
        <ele>629.5</ele>
        <time>2019-07-13T16:26:36Z</time>
      </trkpt>
      <trkpt lat="43.1107930" lon="-1.1108470">
        <ele>629.3</ele>
        <time>2019-07-13T16:26:38Z</time>
      </trkpt>
      <trkpt lat="43.1108200" lon="-1.1109760">
        <ele>629.1</ele>
        <time>2019-07-13T16:26:40Z</time>
      </trkpt>
      <trkpt lat="43.1108410" lon="-1.1111070">
        <ele>628.9</ele>
        <time>2019-07-13T16:26:42Z</time>
      </trkpt>
      <trkpt lat="43.1108490" lon="-1.1112430">
        <ele>628.9</ele>
        <time>2019-07-13T16:26:44Z</time>
      </trkpt>
      <trkpt lat="43.1108270" lon="-1.1113660">
        <ele>628.5</ele>
        <time>2019-07-13T16:26:46Z</time>
      </trkpt>
      <trkpt lat="43.1107650" lon="-1.1115270">
        <ele>627.9</ele>
        <time>2019-07-13T16:26:49Z</time>
      </trkpt>
      <trkpt lat="43.1107050" lon="-1.1116730">
        <ele>627.1</ele>
        <time>2019-07-13T16:26:52Z</time>
      </trkpt>
      <trkpt lat="43.1106610" lon="-1.1118310">
        <ele>626.6</ele>
        <time>2019-07-13T16:26:55Z</time>
      </trkpt>
      <trkpt lat="43.1106360" lon="-1.1119980">
        <ele>626.3</ele>
        <time>2019-07-13T16:26:58Z</time>
      </trkpt>
      <trkpt lat="43.1106250" lon="-1.1121620">
        <ele>625.9</ele>
        <time>2019-07-13T16:27:01Z</time>
      </trkpt>
      <trkpt lat="43.1106180" lon="-1.1123090">
        <ele>625.6</ele>
        <time>2019-07-13T16:27:04Z</time>
      </trkpt>
      <trkpt lat="43.1106210" lon="-1.1124690">
        <ele>625.4</ele>
        <time>2019-07-13T16:27:07Z</time>
      </trkpt>
      <trkpt lat="43.1106400" lon="-1.1126430">
        <ele>625.1</ele>
        <time>2019-07-13T16:27:10Z</time>
      </trkpt>
      <trkpt lat="43.1106750" lon="-1.1128240">
        <ele>624.8</ele>
        <time>2019-07-13T16:27:13Z</time>
      </trkpt>
      <trkpt lat="43.1107080" lon="-1.1129420">
        <ele>624.5</ele>
        <time>2019-07-13T16:27:15Z</time>
      </trkpt>
      <trkpt lat="43.1107480" lon="-1.1130550">
        <ele>624.3</ele>
        <time>2019-07-13T16:27:17Z</time>
      </trkpt>
      <trkpt lat="43.1107890" lon="-1.1131650">
        <ele>624.1</ele>
        <time>2019-07-13T16:27:19Z</time>
      </trkpt>
      <trkpt lat="43.1108560" lon="-1.1133180">
        <ele>623.9</ele>
        <time>2019-07-13T16:27:22Z</time>
      </trkpt>
      <trkpt lat="43.1109180" lon="-1.1134660">
        <ele>623.7</ele>
        <time>2019-07-13T16:27:25Z</time>
      </trkpt>
      <trkpt lat="43.1109840" lon="-1.1136060">
        <ele>623.4</ele>
        <time>2019-07-13T16:27:28Z</time>
      </trkpt>
      <trkpt lat="43.1110540" lon="-1.1137400">
        <ele>623.2</ele>
        <time>2019-07-13T16:27:31Z</time>
      </trkpt>
      <trkpt lat="43.1111240" lon="-1.1138870">
        <ele>622.9</ele>
        <time>2019-07-13T16:27:34Z</time>
      </trkpt>
      <trkpt lat="43.1111800" lon="-1.1140290">
        <ele>622.6</ele>
        <time>2019-07-13T16:27:37Z</time>
      </trkpt>
      <trkpt lat="43.1112300" lon="-1.1141710">
        <ele>622.3</ele>
        <time>2019-07-13T16:27:40Z</time>
      </trkpt>
      <trkpt lat="43.1112770" lon="-1.1143240">
        <ele>621.9</ele>
        <time>2019-07-13T16:27:43Z</time>
      </trkpt>
      <trkpt lat="43.1113140" lon="-1.1144890">
        <ele>621.5</ele>
        <time>2019-07-13T16:27:46Z</time>
      </trkpt>
      <trkpt lat="43.1113400" lon="-1.1146480">
        <ele>621.0</ele>
        <time>2019-07-13T16:27:49Z</time>
      </trkpt>
      <trkpt lat="43.1113570" lon="-1.1147930">
        <ele>620.7</ele>
        <time>2019-07-13T16:27:52Z</time>
      </trkpt>
      <trkpt lat="43.1113730" lon="-1.1149350">
        <ele>620.5</ele>
        <time>2019-07-13T16:27:55Z</time>
      </trkpt>
      <trkpt lat="43.1113820" lon="-1.1150890">
        <ele>620.1</ele>
        <time>2019-07-13T16:27:58Z</time>
      </trkpt>
      <trkpt lat="43.1113880" lon="-1.1152510">
        <ele>619.6</ele>
        <time>2019-07-13T16:28:01Z</time>
      </trkpt>
      <trkpt lat="43.1113960" lon="-1.1154120">
        <ele>619.1</ele>
        <time>2019-07-13T16:28:04Z</time>
      </trkpt>
      <trkpt lat="43.1114010" lon="-1.1155660">
        <ele>618.7</ele>
        <time>2019-07-13T16:28:07Z</time>
      </trkpt>
      <trkpt lat="43.1114160" lon="-1.1157260">
        <ele>618.2</ele>
        <time>2019-07-13T16:28:10Z</time>
      </trkpt>
      <trkpt lat="43.1114330" lon="-1.1158900">
        <ele>617.4</ele>
        <time>2019-07-13T16:28:13Z</time>
      </trkpt>
      <trkpt lat="43.1114530" lon="-1.1160570">
        <ele>616.7</ele>
        <time>2019-07-13T16:28:16Z</time>
      </trkpt>
      <trkpt lat="43.1114690" lon="-1.1162270">
        <ele>615.9</ele>
        <time>2019-07-13T16:28:19Z</time>
      </trkpt>
      <trkpt lat="43.1114810" lon="-1.1163910">
        <ele>615.2</ele>
        <time>2019-07-13T16:28:22Z</time>
      </trkpt>
      <trkpt lat="43.1114940" lon="-1.1165580">
        <ele>614.4</ele>
        <time>2019-07-13T16:28:25Z</time>
      </trkpt>
      <trkpt lat="43.1115110" lon="-1.1166980">
        <ele>613.4</ele>
        <time>2019-07-13T16:28:28Z</time>
      </trkpt>
      <trkpt lat="43.1115280" lon="-1.1168350">
        <ele>612.6</ele>
        <time>2019-07-13T16:28:31Z</time>
      </trkpt>
      <trkpt lat="43.1115480" lon="-1.1169740">
        <ele>611.7</ele>
        <time>2019-07-13T16:28:34Z</time>
      </trkpt>
      <trkpt lat="43.1115650" lon="-1.1171050">
        <ele>610.8</ele>
        <time>2019-07-13T16:28:37Z</time>
      </trkpt>
      <trkpt lat="43.1115890" lon="-1.1172460">
        <ele>609.2</ele>
        <time>2019-07-13T16:28:40Z</time>
      </trkpt>
      <trkpt lat="43.1116020" lon="-1.1173990">
        <ele>607.9</ele>
        <time>2019-07-13T16:28:43Z</time>
      </trkpt>
      <trkpt lat="43.1116190" lon="-1.1174880">
        <ele>607.0</ele>
        <time>2019-07-13T16:28:52Z</time>
      </trkpt>
      <trkpt lat="43.1116290" lon="-1.1176130">
        <ele>605.7</ele>
        <time>2019-07-13T16:29:20Z</time>
      </trkpt>
      <trkpt lat="43.1116550" lon="-1.1177530">
        <ele>604.1</ele>
        <time>2019-07-13T16:29:24Z</time>
      </trkpt>
      <trkpt lat="43.1116980" lon="-1.1178800">
        <ele>603.0</ele>
        <time>2019-07-13T16:29:27Z</time>
      </trkpt>
      <trkpt lat="43.1117630" lon="-1.1180200">
        <ele>601.2</ele>
        <time>2019-07-13T16:29:30Z</time>
      </trkpt>
      <trkpt lat="43.1118420" lon="-1.1181500">
        <ele>599.6</ele>
        <time>2019-07-13T16:29:33Z</time>
      </trkpt>
      <trkpt lat="43.1119320" lon="-1.1182860">
        <ele>597.8</ele>
        <time>2019-07-13T16:29:36Z</time>
      </trkpt>
      <trkpt lat="43.1120220" lon="-1.1184150">
        <ele>595.9</ele>
        <time>2019-07-13T16:29:39Z</time>
      </trkpt>
      <trkpt lat="43.1121050" lon="-1.1185310">
        <ele>594.6</ele>
        <time>2019-07-13T16:29:42Z</time>
      </trkpt>
      <trkpt lat="43.1121860" lon="-1.1186510">
        <ele>592.9</ele>
        <time>2019-07-13T16:29:45Z</time>
      </trkpt>
      <trkpt lat="43.1122580" lon="-1.1187320">
        <ele>591.7</ele>
        <time>2019-07-13T16:29:47Z</time>
      </trkpt>
      <trkpt lat="43.1123470" lon="-1.1188000">
        <ele>590.3</ele>
        <time>2019-07-13T16:29:49Z</time>
      </trkpt>
      <trkpt lat="43.1124410" lon="-1.1188410">
        <ele>589.0</ele>
        <time>2019-07-13T16:29:51Z</time>
      </trkpt>
      <trkpt lat="43.1125460" lon="-1.1188590">
        <ele>587.2</ele>
        <time>2019-07-13T16:29:53Z</time>
      </trkpt>
      <trkpt lat="43.1126560" lon="-1.1188640">
        <ele>585.7</ele>
        <time>2019-07-13T16:29:55Z</time>
      </trkpt>
      <trkpt lat="43.1127640" lon="-1.1188890">
        <ele>584.1</ele>
        <time>2019-07-13T16:29:57Z</time>
      </trkpt>
      <trkpt lat="43.1128670" lon="-1.1189330">
        <ele>582.9</ele>
        <time>2019-07-13T16:29:59Z</time>
      </trkpt>
      <trkpt lat="43.1129600" lon="-1.1189810">
        <ele>581.6</ele>
        <time>2019-07-13T16:30:01Z</time>
      </trkpt>
      <trkpt lat="43.1130470" lon="-1.1190150">
        <ele>580.7</ele>
        <time>2019-07-13T16:30:03Z</time>
      </trkpt>
      <trkpt lat="43.1131380" lon="-1.1190390">
        <ele>579.4</ele>
        <time>2019-07-13T16:30:05Z</time>
      </trkpt>
      <trkpt lat="43.1132320" lon="-1.1190730">
        <ele>578.4</ele>
        <time>2019-07-13T16:30:07Z</time>
      </trkpt>
      <trkpt lat="43.1133210" lon="-1.1191280">
        <ele>577.3</ele>
        <time>2019-07-13T16:30:09Z</time>
      </trkpt>
      <trkpt lat="43.1133940" lon="-1.1192050">
        <ele>576.0</ele>
        <time>2019-07-13T16:30:11Z</time>
      </trkpt>
      <trkpt lat="43.1134610" lon="-1.1193460">
        <ele>574.5</ele>
        <time>2019-07-13T16:30:14Z</time>
      </trkpt>
      <trkpt lat="43.1135150" lon="-1.1194870">
        <ele>573.0</ele>
        <time>2019-07-13T16:30:17Z</time>
      </trkpt>
      <trkpt lat="43.1135770" lon="-1.1196570">
        <ele>571.1</ele>
        <time>2019-07-13T16:30:20Z</time>
      </trkpt>
      <trkpt lat="43.1136190" lon="-1.1197710">
        <ele>570.1</ele>
        <time>2019-07-13T16:30:22Z</time>
      </trkpt>
      <trkpt lat="43.1136700" lon="-1.1199200">
        <ele>568.5</ele>
        <time>2019-07-13T16:30:25Z</time>
      </trkpt>
      <trkpt lat="43.1136940" lon="-1.1200460">
        <ele>567.3</ele>
        <time>2019-07-13T16:30:27Z</time>
      </trkpt>
      <trkpt lat="43.1137090" lon="-1.1201730">
        <ele>566.1</ele>
        <time>2019-07-13T16:30:29Z</time>
      </trkpt>
      <trkpt lat="43.1137360" lon="-1.1203450">
        <ele>564.2</ele>
        <time>2019-07-13T16:30:32Z</time>
      </trkpt>
      <trkpt lat="43.1137640" lon="-1.1205160">
        <ele>562.3</ele>
        <time>2019-07-13T16:30:35Z</time>
      </trkpt>
      <trkpt lat="43.1137950" lon="-1.1206800">
        <ele>560.8</ele>
        <time>2019-07-13T16:30:38Z</time>
      </trkpt>
      <trkpt lat="43.1138270" lon="-1.1208610">
        <ele>559.0</ele>
        <time>2019-07-13T16:30:41Z</time>
      </trkpt>
      <trkpt lat="43.1138500" lon="-1.1209810">
        <ele>557.7</ele>
        <time>2019-07-13T16:30:43Z</time>
      </trkpt>
      <trkpt lat="43.1138730" lon="-1.1211010">
        <ele>556.5</ele>
        <time>2019-07-13T16:30:45Z</time>
      </trkpt>
      <trkpt lat="43.1139120" lon="-1.1212700">
        <ele>554.9</ele>
        <time>2019-07-13T16:30:48Z</time>
      </trkpt>
      <trkpt lat="43.1139450" lon="-1.1214290">
        <ele>553.6</ele>
        <time>2019-07-13T16:30:51Z</time>
      </trkpt>
      <trkpt lat="43.1139710" lon="-1.1215550">
        <ele>552.6</ele>
        <time>2019-07-13T16:30:54Z</time>
      </trkpt>
      <trkpt lat="43.1139980" lon="-1.1216910">
        <ele>551.4</ele>
        <time>2019-07-13T16:30:57Z</time>
      </trkpt>
      <trkpt lat="43.1140210" lon="-1.1218450">
        <ele>549.9</ele>
        <time>2019-07-13T16:31:00Z</time>
      </trkpt>
      <trkpt lat="43.1140450" lon="-1.1219990">
        <ele>548.5</ele>
        <time>2019-07-13T16:31:03Z</time>
      </trkpt>
      <trkpt lat="43.1140780" lon="-1.1221660">
        <ele>547.0</ele>
        <time>2019-07-13T16:31:06Z</time>
      </trkpt>
      <trkpt lat="43.1141190" lon="-1.1223360">
        <ele>545.4</ele>
        <time>2019-07-13T16:31:09Z</time>
      </trkpt>
      <trkpt lat="43.1141760" lon="-1.1225050">
        <ele>543.8</ele>
        <time>2019-07-13T16:31:12Z</time>
      </trkpt>
      <trkpt lat="43.1142210" lon="-1.1226170">
        <ele>542.6</ele>
        <time>2019-07-13T16:31:14Z</time>
      </trkpt>
      <trkpt lat="43.1142940" lon="-1.1227660">
        <ele>540.7</ele>
        <time>2019-07-13T16:31:17Z</time>
      </trkpt>
      <trkpt lat="43.1143460" lon="-1.1228670">
        <ele>539.6</ele>
        <time>2019-07-13T16:31:19Z</time>
      </trkpt>
      <trkpt lat="43.1144230" lon="-1.1230100">
        <ele>537.9</ele>
        <time>2019-07-13T16:31:22Z</time>
      </trkpt>
      <trkpt lat="43.1145050" lon="-1.1231550">
        <ele>536.0</ele>
        <time>2019-07-13T16:31:25Z</time>
      </trkpt>
      <trkpt lat="43.1145610" lon="-1.1232540">
        <ele>534.7</ele>
        <time>2019-07-13T16:31:27Z</time>
      </trkpt>
      <trkpt lat="43.1146200" lon="-1.1233600">
        <ele>533.6</ele>
        <time>2019-07-13T16:31:29Z</time>
      </trkpt>
      <trkpt lat="43.1146780" lon="-1.1234770">
        <ele>532.1</ele>
        <time>2019-07-13T16:31:31Z</time>
      </trkpt>
      <trkpt lat="43.1147350" lon="-1.1235950">
        <ele>530.9</ele>
        <time>2019-07-13T16:31:33Z</time>
      </trkpt>
      <trkpt lat="43.1147830" lon="-1.1237130">
        <ele>529.7</ele>
        <time>2019-07-13T16:31:35Z</time>
      </trkpt>
      <trkpt lat="43.1148520" lon="-1.1238740">
        <ele>528.0</ele>
        <time>2019-07-13T16:31:38Z</time>
      </trkpt>
      <trkpt lat="43.1149000" lon="-1.1239980">
        <ele>526.8</ele>
        <time>2019-07-13T16:31:40Z</time>
      </trkpt>
      <trkpt lat="43.1149450" lon="-1.1241110">
        <ele>525.9</ele>
        <time>2019-07-13T16:31:42Z</time>
      </trkpt>
      <trkpt lat="43.1149940" lon="-1.1242240">
        <ele>525.2</ele>
        <time>2019-07-13T16:31:44Z</time>
      </trkpt>
      <trkpt lat="43.1150480" lon="-1.1243570">
        <ele>524.3</ele>
        <time>2019-07-13T16:31:46Z</time>
      </trkpt>
      <trkpt lat="43.1151020" lon="-1.1244780">
        <ele>523.6</ele>
        <time>2019-07-13T16:31:48Z</time>
      </trkpt>
      <trkpt lat="43.1151620" lon="-1.1245900">
        <ele>523.0</ele>
        <time>2019-07-13T16:31:50Z</time>
      </trkpt>
      <trkpt lat="43.1152230" lon="-1.1247020">
        <ele>522.0</ele>
        <time>2019-07-13T16:31:52Z</time>
      </trkpt>
      <trkpt lat="43.1152810" lon="-1.1248190">
        <ele>521.2</ele>
        <time>2019-07-13T16:31:54Z</time>
      </trkpt>
      <trkpt lat="43.1153550" lon="-1.1249670">
        <ele>520.4</ele>
        <time>2019-07-13T16:31:57Z</time>
      </trkpt>
      <trkpt lat="43.1154090" lon="-1.1250800">
        <ele>519.7</ele>
        <time>2019-07-13T16:31:59Z</time>
      </trkpt>
      <trkpt lat="43.1154670" lon="-1.1251930">
        <ele>519.2</ele>
        <time>2019-07-13T16:32:01Z</time>
      </trkpt>
      <trkpt lat="43.1155210" lon="-1.1252970">
        <ele>518.8</ele>
        <time>2019-07-13T16:32:03Z</time>
      </trkpt>
      <trkpt lat="43.1155800" lon="-1.1253950">
        <ele>518.4</ele>
        <time>2019-07-13T16:32:05Z</time>
      </trkpt>
      <trkpt lat="43.1156470" lon="-1.1255020">
        <ele>518.0</ele>
        <time>2019-07-13T16:32:07Z</time>
      </trkpt>
      <trkpt lat="43.1157160" lon="-1.1256080">
        <ele>517.5</ele>
        <time>2019-07-13T16:32:09Z</time>
      </trkpt>
      <trkpt lat="43.1158020" lon="-1.1257400">
        <ele>516.9</ele>
        <time>2019-07-13T16:32:12Z</time>
      </trkpt>
      <trkpt lat="43.1158900" lon="-1.1258580">
        <ele>516.4</ele>
        <time>2019-07-13T16:32:15Z</time>
      </trkpt>
      <trkpt lat="43.1159830" lon="-1.1259690">
        <ele>515.5</ele>
        <time>2019-07-13T16:32:18Z</time>
      </trkpt>
      <trkpt lat="43.1160870" lon="-1.1260650">
        <ele>514.7</ele>
        <time>2019-07-13T16:32:21Z</time>
      </trkpt>
      <trkpt lat="43.1161940" lon="-1.1261400">
        <ele>513.9</ele>
        <time>2019-07-13T16:32:24Z</time>
      </trkpt>
      <trkpt lat="43.1163160" lon="-1.1261970">
        <ele>512.7</ele>
        <time>2019-07-13T16:32:27Z</time>
      </trkpt>
      <trkpt lat="43.1164480" lon="-1.1262290">
        <ele>511.3</ele>
        <time>2019-07-13T16:32:30Z</time>
      </trkpt>
      <trkpt lat="43.1165490" lon="-1.1262480">
        <ele>510.1</ele>
        <time>2019-07-13T16:32:32Z</time>
      </trkpt>
      <trkpt lat="43.1166600" lon="-1.1262800">
        <ele>509.1</ele>
        <time>2019-07-13T16:32:34Z</time>
      </trkpt>
      <trkpt lat="43.1167770" lon="-1.1263210">
        <ele>507.9</ele>
        <time>2019-07-13T16:32:36Z</time>
      </trkpt>
      <trkpt lat="43.1168870" lon="-1.1263740">
        <ele>506.8</ele>
        <time>2019-07-13T16:32:38Z</time>
      </trkpt>
      <trkpt lat="43.1169860" lon="-1.1264430">
        <ele>505.6</ele>
        <time>2019-07-13T16:32:40Z</time>
      </trkpt>
      <trkpt lat="43.1170890" lon="-1.1265290">
        <ele>504.4</ele>
        <time>2019-07-13T16:32:42Z</time>
      </trkpt>
      <trkpt lat="43.1171780" lon="-1.1266280">
        <ele>503.4</ele>
        <time>2019-07-13T16:32:44Z</time>
      </trkpt>
      <trkpt lat="43.1172450" lon="-1.1267430">
        <ele>502.7</ele>
        <time>2019-07-13T16:32:46Z</time>
      </trkpt>
      <trkpt lat="43.1172990" lon="-1.1268740">
        <ele>501.8</ele>
        <time>2019-07-13T16:32:48Z</time>
      </trkpt>
      <trkpt lat="43.1173420" lon="-1.1270130">
        <ele>500.8</ele>
        <time>2019-07-13T16:32:50Z</time>
      </trkpt>
      <trkpt lat="43.1173800" lon="-1.1271470">
        <ele>500.0</ele>
        <time>2019-07-13T16:32:52Z</time>
      </trkpt>
      <trkpt lat="43.1174260" lon="-1.1272610">
        <ele>499.2</ele>
        <time>2019-07-13T16:32:54Z</time>
      </trkpt>
      <trkpt lat="43.1174880" lon="-1.1273630">
        <ele>498.2</ele>
        <time>2019-07-13T16:32:56Z</time>
      </trkpt>
      <trkpt lat="43.1175600" lon="-1.1274530">
        <ele>497.3</ele>
        <time>2019-07-13T16:32:58Z</time>
      </trkpt>
      <trkpt lat="43.1176430" lon="-1.1275350">
        <ele>496.4</ele>
        <time>2019-07-13T16:33:00Z</time>
      </trkpt>
      <trkpt lat="43.1177430" lon="-1.1276260">
        <ele>495.4</ele>
        <time>2019-07-13T16:33:02Z</time>
      </trkpt>
      <trkpt lat="43.1178520" lon="-1.1277280">
        <ele>494.5</ele>
        <time>2019-07-13T16:33:04Z</time>
      </trkpt>
      <trkpt lat="43.1179420" lon="-1.1278290">
        <ele>493.5</ele>
        <time>2019-07-13T16:33:06Z</time>
      </trkpt>
      <trkpt lat="43.1180290" lon="-1.1279340">
        <ele>492.7</ele>
        <time>2019-07-13T16:33:08Z</time>
      </trkpt>
      <trkpt lat="43.1181180" lon="-1.1280330">
        <ele>492.1</ele>
        <time>2019-07-13T16:33:10Z</time>
      </trkpt>
      <trkpt lat="43.1182000" lon="-1.1281200">
        <ele>491.4</ele>
        <time>2019-07-13T16:33:12Z</time>
      </trkpt>
      <trkpt lat="43.1182860" lon="-1.1282040">
        <ele>490.6</ele>
        <time>2019-07-13T16:33:14Z</time>
      </trkpt>
      <trkpt lat="43.1183760" lon="-1.1282940">
        <ele>489.8</ele>
        <time>2019-07-13T16:33:16Z</time>
      </trkpt>
      <trkpt lat="43.1184690" lon="-1.1283910">
        <ele>489.0</ele>
        <time>2019-07-13T16:33:18Z</time>
      </trkpt>
      <trkpt lat="43.1185600" lon="-1.1284760">
        <ele>488.2</ele>
        <time>2019-07-13T16:33:20Z</time>
      </trkpt>
      <trkpt lat="43.1186490" lon="-1.1285500">
        <ele>487.6</ele>
        <time>2019-07-13T16:33:22Z</time>
      </trkpt>
      <trkpt lat="43.1187290" lon="-1.1286190">
        <ele>487.1</ele>
        <time>2019-07-13T16:33:24Z</time>
      </trkpt>
      <trkpt lat="43.1188440" lon="-1.1287130">
        <ele>486.1</ele>
        <time>2019-07-13T16:33:27Z</time>
      </trkpt>
      <trkpt lat="43.1189310" lon="-1.1287660">
        <ele>485.4</ele>
        <time>2019-07-13T16:33:29Z</time>
      </trkpt>
      <trkpt lat="43.1190200" lon="-1.1287920">
        <ele>484.6</ele>
        <time>2019-07-13T16:33:31Z</time>
      </trkpt>
      <trkpt lat="43.1191510" lon="-1.1287870">
        <ele>483.4</ele>
        <time>2019-07-13T16:33:34Z</time>
      </trkpt>
      <trkpt lat="43.1192560" lon="-1.1287210">
        <ele>481.9</ele>
        <time>2019-07-13T16:33:37Z</time>
      </trkpt>
      <trkpt lat="43.1193340" lon="-1.1286080">
        <ele>480.2</ele>
        <time>2019-07-13T16:33:40Z</time>
      </trkpt>
      <trkpt lat="43.1193740" lon="-1.1284570">
        <ele>478.5</ele>
        <time>2019-07-13T16:33:43Z</time>
      </trkpt>
      <trkpt lat="43.1193840" lon="-1.1282880">
        <ele>476.6</ele>
        <time>2019-07-13T16:33:46Z</time>
      </trkpt>
      <trkpt lat="43.1193560" lon="-1.1281240">
        <ele>475.1</ele>
        <time>2019-07-13T16:33:49Z</time>
      </trkpt>
      <trkpt lat="43.1193290" lon="-1.1280060">
        <ele>473.7</ele>
        <time>2019-07-13T16:33:51Z</time>
      </trkpt>
      <trkpt lat="43.1192960" lon="-1.1278810">
        <ele>472.6</ele>
        <time>2019-07-13T16:33:53Z</time>
      </trkpt>
      <trkpt lat="43.1192590" lon="-1.1277600">
        <ele>471.4</ele>
        <time>2019-07-13T16:33:55Z</time>
      </trkpt>
      <trkpt lat="43.1192230" lon="-1.1276320">
        <ele>470.1</ele>
        <time>2019-07-13T16:33:57Z</time>
      </trkpt>
      <trkpt lat="43.1192070" lon="-1.1275050">
        <ele>468.9</ele>
        <time>2019-07-13T16:33:59Z</time>
      </trkpt>
      <trkpt lat="43.1192440" lon="-1.1273380">
        <ele>467.1</ele>
        <time>2019-07-13T16:34:02Z</time>
      </trkpt>
      <trkpt lat="43.1193340" lon="-1.1272200">
        <ele>465.4</ele>
        <time>2019-07-13T16:34:05Z</time>
      </trkpt>
      <trkpt lat="43.1194110" lon="-1.1271480">
        <ele>463.9</ele>
        <time>2019-07-13T16:34:07Z</time>
      </trkpt>
      <trkpt lat="43.1195130" lon="-1.1270410">
        <ele>461.7</ele>
        <time>2019-07-13T16:34:10Z</time>
      </trkpt>
      <trkpt lat="43.1195890" lon="-1.1269240">
        <ele>459.9</ele>
        <time>2019-07-13T16:34:13Z</time>
      </trkpt>
      <trkpt lat="43.1196480" lon="-1.1268240">
        <ele>458.2</ele>
        <time>2019-07-13T16:34:15Z</time>
      </trkpt>
      <trkpt lat="43.1197300" lon="-1.1266920">
        <ele>456.3</ele>
        <time>2019-07-13T16:34:18Z</time>
      </trkpt>
      <trkpt lat="43.1198120" lon="-1.1265510">
        <ele>454.2</ele>
        <time>2019-07-13T16:34:21Z</time>
      </trkpt>
      <trkpt lat="43.1198850" lon="-1.1264310">
        <ele>452.3</ele>
        <time>2019-07-13T16:34:24Z</time>
      </trkpt>
      <trkpt lat="43.1199530" lon="-1.1262980">
        <ele>450.7</ele>
        <time>2019-07-13T16:34:27Z</time>
      </trkpt>
      <trkpt lat="43.1200010" lon="-1.1261640">
        <ele>449.2</ele>
        <time>2019-07-13T16:34:30Z</time>
      </trkpt>
      <trkpt lat="43.1200420" lon="-1.1260260">
        <ele>447.7</ele>
        <time>2019-07-13T16:34:33Z</time>
      </trkpt>
      <trkpt lat="43.1201240" lon="-1.1259470">
        <ele>446.1</ele>
        <time>2019-07-13T16:34:37Z</time>
      </trkpt>
      <trkpt lat="43.1202210" lon="-1.1260270">
        <ele>444.7</ele>
        <time>2019-07-13T16:34:41Z</time>
      </trkpt>
      <trkpt lat="43.1202980" lon="-1.1261550">
        <ele>443.3</ele>
        <time>2019-07-13T16:34:45Z</time>
      </trkpt>
      <trkpt lat="43.1203700" lon="-1.1262610">
        <ele>442.0</ele>
        <time>2019-07-13T16:34:48Z</time>
      </trkpt>
      <trkpt lat="43.1204330" lon="-1.1263890">
        <ele>440.4</ele>
        <time>2019-07-13T16:34:51Z</time>
      </trkpt>
      <trkpt lat="43.1204850" lon="-1.1265520">
        <ele>438.8</ele>
        <time>2019-07-13T16:34:54Z</time>
      </trkpt>
      <trkpt lat="43.1205110" lon="-1.1267290">
        <ele>436.4</ele>
        <time>2019-07-13T16:34:57Z</time>
      </trkpt>
      <trkpt lat="43.1205180" lon="-1.1268970">
        <ele>434.5</ele>
        <time>2019-07-13T16:35:00Z</time>
      </trkpt>
      <trkpt lat="43.1205010" lon="-1.1270580">
        <ele>432.8</ele>
        <time>2019-07-13T16:35:03Z</time>
      </trkpt>
      <trkpt lat="43.1204740" lon="-1.1272220">
        <ele>430.6</ele>
        <time>2019-07-13T16:35:06Z</time>
      </trkpt>
      <trkpt lat="43.1204410" lon="-1.1273920">
        <ele>428.5</ele>
        <time>2019-07-13T16:35:09Z</time>
      </trkpt>
      <trkpt lat="43.1204280" lon="-1.1275380">
        <ele>426.8</ele>
        <time>2019-07-13T16:35:12Z</time>
      </trkpt>
      <trkpt lat="43.1204690" lon="-1.1276870">
        <ele>424.9</ele>
        <time>2019-07-13T16:35:15Z</time>
      </trkpt>
      <trkpt lat="43.1205600" lon="-1.1277870">
        <ele>423.1</ele>
        <time>2019-07-13T16:35:18Z</time>
      </trkpt>
      <trkpt lat="43.1206520" lon="-1.1278740">
        <ele>421.4</ele>
        <time>2019-07-13T16:35:21Z</time>
      </trkpt>
      <trkpt lat="43.1207460" lon="-1.1279490">
        <ele>420.1</ele>
        <time>2019-07-13T16:35:24Z</time>
      </trkpt>
      <trkpt lat="43.1208400" lon="-1.1280270">
        <ele>418.4</ele>
        <time>2019-07-13T16:35:27Z</time>
      </trkpt>
      <trkpt lat="43.1209210" lon="-1.1280900">
        <ele>417.1</ele>
        <time>2019-07-13T16:35:29Z</time>
      </trkpt>
      <trkpt lat="43.1210020" lon="-1.1281590">
        <ele>415.9</ele>
        <time>2019-07-13T16:35:31Z</time>
      </trkpt>
      <trkpt lat="43.1210870" lon="-1.1282260">
        <ele>414.5</ele>
        <time>2019-07-13T16:35:33Z</time>
      </trkpt>
      <trkpt lat="43.1211690" lon="-1.1282840">
        <ele>413.3</ele>
        <time>2019-07-13T16:35:35Z</time>
      </trkpt>
      <trkpt lat="43.1212530" lon="-1.1283420">
        <ele>412.0</ele>
        <time>2019-07-13T16:35:37Z</time>
      </trkpt>
      <trkpt lat="43.1213360" lon="-1.1284000">
        <ele>410.9</ele>
        <time>2019-07-13T16:35:39Z</time>
      </trkpt>
      <trkpt lat="43.1214370" lon="-1.1285050">
        <ele>409.0</ele>
        <time>2019-07-13T16:35:42Z</time>
      </trkpt>
      <trkpt lat="43.1215400" lon="-1.1286190">
        <ele>407.3</ele>
        <time>2019-07-13T16:35:45Z</time>
      </trkpt>
      <trkpt lat="43.1216150" lon="-1.1286920">
        <ele>406.1</ele>
        <time>2019-07-13T16:35:47Z</time>
      </trkpt>
      <trkpt lat="43.1217160" lon="-1.1288010">
        <ele>404.6</ele>
        <time>2019-07-13T16:35:50Z</time>
      </trkpt>
      <trkpt lat="43.1217880" lon="-1.1288790">
        <ele>403.2</ele>
        <time>2019-07-13T16:35:52Z</time>
      </trkpt>
      <trkpt lat="43.1218710" lon="-1.1289510">
        <ele>401.7</ele>
        <time>2019-07-13T16:35:54Z</time>
      </trkpt>
      <trkpt lat="43.1219480" lon="-1.1290270">
        <ele>400.7</ele>
        <time>2019-07-13T16:35:56Z</time>
      </trkpt>
      <trkpt lat="43.1220250" lon="-1.1290960">
        <ele>399.7</ele>
        <time>2019-07-13T16:35:58Z</time>
      </trkpt>
      <trkpt lat="43.1221180" lon="-1.1292230">
        <ele>398.3</ele>
        <time>2019-07-13T16:36:01Z</time>
      </trkpt>
      <trkpt lat="43.1222010" lon="-1.1293780">
        <ele>395.9</ele>
        <time>2019-07-13T16:36:04Z</time>
      </trkpt>
      <trkpt lat="43.1222590" lon="-1.1294970">
        <ele>394.3</ele>
        <time>2019-07-13T16:36:06Z</time>
      </trkpt>
      <trkpt lat="43.1223210" lon="-1.1296370">
        <ele>392.7</ele>
        <time>2019-07-13T16:36:09Z</time>
      </trkpt>
      <trkpt lat="43.1224030" lon="-1.1297910">
        <ele>390.9</ele>
        <time>2019-07-13T16:36:12Z</time>
      </trkpt>
      <trkpt lat="43.1224560" lon="-1.1299110">
        <ele>389.4</ele>
        <time>2019-07-13T16:36:14Z</time>
      </trkpt>
      <trkpt lat="43.1225030" lon="-1.1300290">
        <ele>387.7</ele>
        <time>2019-07-13T16:36:16Z</time>
      </trkpt>
      <trkpt lat="43.1225410" lon="-1.1301550">
        <ele>386.2</ele>
        <time>2019-07-13T16:36:18Z</time>
      </trkpt>
      <trkpt lat="43.1225900" lon="-1.1302910">
        <ele>384.8</ele>
        <time>2019-07-13T16:36:20Z</time>
      </trkpt>
      <trkpt lat="43.1226370" lon="-1.1304270">
        <ele>383.1</ele>
        <time>2019-07-13T16:36:22Z</time>
      </trkpt>
      <trkpt lat="43.1226800" lon="-1.1305400">
        <ele>381.5</ele>
        <time>2019-07-13T16:36:24Z</time>
      </trkpt>
      <trkpt lat="43.1227240" lon="-1.1306550">
        <ele>380.1</ele>
        <time>2019-07-13T16:36:26Z</time>
      </trkpt>
      <trkpt lat="43.1227750" lon="-1.1307650">
        <ele>378.6</ele>
        <time>2019-07-13T16:36:28Z</time>
      </trkpt>
      <trkpt lat="43.1228360" lon="-1.1308640">
        <ele>377.4</ele>
        <time>2019-07-13T16:36:30Z</time>
      </trkpt>
      <trkpt lat="43.1229030" lon="-1.1309540">
        <ele>376.2</ele>
        <time>2019-07-13T16:36:32Z</time>
      </trkpt>
      <trkpt lat="43.1229760" lon="-1.1310410">
        <ele>374.7</ele>
        <time>2019-07-13T16:36:34Z</time>
      </trkpt>
      <trkpt lat="43.1230430" lon="-1.1311420">
        <ele>373.3</ele>
        <time>2019-07-13T16:36:36Z</time>
      </trkpt>
      <trkpt lat="43.1231050" lon="-1.1312430">
        <ele>372.0</ele>
        <time>2019-07-13T16:36:38Z</time>
      </trkpt>
      <trkpt lat="43.1231750" lon="-1.1313570">
        <ele>370.5</ele>
        <time>2019-07-13T16:36:40Z</time>
      </trkpt>
      <trkpt lat="43.1232330" lon="-1.1314600">
        <ele>369.3</ele>
        <time>2019-07-13T16:36:42Z</time>
      </trkpt>
      <trkpt lat="43.1232970" lon="-1.1315910">
        <ele>367.6</ele>
        <time>2019-07-13T16:36:45Z</time>
      </trkpt>
      <trkpt lat="43.1233340" lon="-1.1317150">
        <ele>366.3</ele>
        <time>2019-07-13T16:36:48Z</time>
      </trkpt>
      <trkpt lat="43.1233020" lon="-1.1318440">
        <ele>365.1</ele>
        <time>2019-07-13T16:36:51Z</time>
      </trkpt>
      <trkpt lat="43.1232290" lon="-1.1319460">
        <ele>363.8</ele>
        <time>2019-07-13T16:36:54Z</time>
      </trkpt>
      <trkpt lat="43.1231490" lon="-1.1320400">
        <ele>362.0</ele>
        <time>2019-07-13T16:36:57Z</time>
      </trkpt>
      <trkpt lat="43.1230610" lon="-1.1321600">
        <ele>360.3</ele>
        <time>2019-07-13T16:37:00Z</time>
      </trkpt>
      <trkpt lat="43.1229780" lon="-1.1322920">
        <ele>359.2</ele>
        <time>2019-07-13T16:37:03Z</time>
      </trkpt>
      <trkpt lat="43.1229070" lon="-1.1324030">
        <ele>358.5</ele>
        <time>2019-07-13T16:37:05Z</time>
      </trkpt>
      <trkpt lat="43.1228500" lon="-1.1325100">
        <ele>357.7</ele>
        <time>2019-07-13T16:37:07Z</time>
      </trkpt>
      <trkpt lat="43.1227710" lon="-1.1326300">
        <ele>357.0</ele>
        <time>2019-07-13T16:37:10Z</time>
      </trkpt>
      <trkpt lat="43.1226970" lon="-1.1327510">
        <ele>356.3</ele>
        <time>2019-07-13T16:37:13Z</time>
      </trkpt>
      <trkpt lat="43.1226310" lon="-1.1328670">
        <ele>355.6</ele>
        <time>2019-07-13T16:37:16Z</time>
      </trkpt>
      <trkpt lat="43.1225740" lon="-1.1329960">
        <ele>355.0</ele>
        <time>2019-07-13T16:37:19Z</time>
      </trkpt>
      <trkpt lat="43.1225270" lon="-1.1331440">
        <ele>354.1</ele>
        <time>2019-07-13T16:37:22Z</time>
      </trkpt>
      <trkpt lat="43.1224740" lon="-1.1332810">
        <ele>353.0</ele>
        <time>2019-07-13T16:37:25Z</time>
      </trkpt>
      <trkpt lat="43.1223830" lon="-1.1334050">
        <ele>351.4</ele>
        <time>2019-07-13T16:37:28Z</time>
      </trkpt>
      <trkpt lat="43.1222930" lon="-1.1335000">
        <ele>350.0</ele>
        <time>2019-07-13T16:37:31Z</time>
      </trkpt>
      <trkpt lat="43.1222250" lon="-1.1335900">
        <ele>348.7</ele>
        <time>2019-07-13T16:37:34Z</time>
      </trkpt>
      <trkpt lat="43.1222410" lon="-1.1337270">
        <ele>347.3</ele>
        <time>2019-07-13T16:37:39Z</time>
      </trkpt>
      <trkpt lat="43.1223480" lon="-1.1337140">
        <ele>346.2</ele>
        <time>2019-07-13T16:37:43Z</time>
      </trkpt>
      <trkpt lat="43.1224420" lon="-1.1336790">
        <ele>345.4</ele>
        <time>2019-07-13T16:37:46Z</time>
      </trkpt>
      <trkpt lat="43.1225420" lon="-1.1336330">
        <ele>344.4</ele>
        <time>2019-07-13T16:37:49Z</time>
      </trkpt>
      <trkpt lat="43.1226580" lon="-1.1335820">
        <ele>343.0</ele>
        <time>2019-07-13T16:37:52Z</time>
      </trkpt>
      <trkpt lat="43.1227510" lon="-1.1335340">
        <ele>341.9</ele>
        <time>2019-07-13T16:37:54Z</time>
      </trkpt>
      <trkpt lat="43.1228510" lon="-1.1334760">
        <ele>340.9</ele>
        <time>2019-07-13T16:37:56Z</time>
      </trkpt>
      <trkpt lat="43.1229490" lon="-1.1334200">
        <ele>339.8</ele>
        <time>2019-07-13T16:37:58Z</time>
      </trkpt>
      <trkpt lat="43.1230480" lon="-1.1333910">
        <ele>339.1</ele>
        <time>2019-07-13T16:38:01Z</time>
      </trkpt>
      <trkpt lat="43.1231580" lon="-1.1333770">
        <ele>338.1</ele>
        <time>2019-07-13T16:38:05Z</time>
      </trkpt>
      <trkpt lat="43.1232500" lon="-1.1333860">
        <ele>336.9</ele>
        <time>2019-07-13T16:38:08Z</time>
      </trkpt>
      <trkpt lat="43.1233640" lon="-1.1334100">
        <ele>335.0</ele>
        <time>2019-07-13T16:38:11Z</time>
      </trkpt>
      <trkpt lat="43.1234700" lon="-1.1334260">
        <ele>332.9</ele>
        <time>2019-07-13T16:38:13Z</time>
      </trkpt>
      <trkpt lat="43.1235770" lon="-1.1334410">
        <ele>331.2</ele>
        <time>2019-07-13T16:38:15Z</time>
      </trkpt>
      <trkpt lat="43.1236910" lon="-1.1334640">
        <ele>329.8</ele>
        <time>2019-07-13T16:38:18Z</time>
      </trkpt>
      <trkpt lat="43.1238030" lon="-1.1334790">
        <ele>328.3</ele>
        <time>2019-07-13T16:38:21Z</time>
      </trkpt>
      <trkpt lat="43.1239260" lon="-1.1334830">
        <ele>326.8</ele>
        <time>2019-07-13T16:38:24Z</time>
      </trkpt>
      <trkpt lat="43.1240200" lon="-1.1334670">
        <ele>325.5</ele>
        <time>2019-07-13T16:38:26Z</time>
      </trkpt>
      <trkpt lat="43.1241390" lon="-1.1334530">
        <ele>324.0</ele>
        <time>2019-07-13T16:38:29Z</time>
      </trkpt>
      <trkpt lat="43.1242570" lon="-1.1334140">
        <ele>321.5</ele>
        <time>2019-07-13T16:38:32Z</time>
      </trkpt>
      <trkpt lat="43.1243590" lon="-1.1334010">
        <ele>319.3</ele>
        <time>2019-07-13T16:38:34Z</time>
      </trkpt>
      <trkpt lat="43.1244550" lon="-1.1333920">
        <ele>317.1</ele>
        <time>2019-07-13T16:38:36Z</time>
      </trkpt>
      <trkpt lat="43.1245760" lon="-1.1334040">
        <ele>314.7</ele>
        <time>2019-07-13T16:38:39Z</time>
      </trkpt>
      <trkpt lat="43.1246760" lon="-1.1334060">
        <ele>312.8</ele>
        <time>2019-07-13T16:38:41Z</time>
      </trkpt>
      <trkpt lat="43.1247700" lon="-1.1334100">
        <ele>311.4</ele>
        <time>2019-07-13T16:38:43Z</time>
      </trkpt>
      <trkpt lat="43.1248800" lon="-1.1334240">
        <ele>310.1</ele>
        <time>2019-07-13T16:38:46Z</time>
      </trkpt>
      <trkpt lat="43.1249770" lon="-1.1334440">
        <ele>308.4</ele>
        <time>2019-07-13T16:38:49Z</time>
      </trkpt>
      <trkpt lat="43.1250650" lon="-1.1335320">
        <ele>306.7</ele>
        <time>2019-07-13T16:38:52Z</time>
      </trkpt>
      <trkpt lat="43.1251120" lon="-1.1336480">
        <ele>305.0</ele>
        <time>2019-07-13T16:38:55Z</time>
      </trkpt>
      <trkpt lat="43.1251490" lon="-1.1337800">
        <ele>303.0</ele>
        <time>2019-07-13T16:38:59Z</time>
      </trkpt>
      <trkpt lat="43.1251560" lon="-1.1337830">
        <ele>302.9</ele>
        <time>2019-07-13T16:39:03Z</time>
      </trkpt>
      <trkpt lat="43.1252020" lon="-1.1339310">
        <ele>301.9</ele>
        <time>2019-07-13T16:39:38Z</time>
      </trkpt>
      <trkpt lat="43.1253040" lon="-1.1340210">
        <ele>300.1</ele>
        <time>2019-07-13T16:39:41Z</time>
      </trkpt>
      <trkpt lat="43.1253920" lon="-1.1340560">
        <ele>298.9</ele>
        <time>2019-07-13T16:39:43Z</time>
      </trkpt>
      <trkpt lat="43.1255160" lon="-1.1341070">
        <ele>297.2</ele>
        <time>2019-07-13T16:39:46Z</time>
      </trkpt>
      <trkpt lat="43.1256050" lon="-1.1341490">
        <ele>296.0</ele>
        <time>2019-07-13T16:39:48Z</time>
      </trkpt>
      <trkpt lat="43.1256990" lon="-1.1342290">
        <ele>295.1</ele>
        <time>2019-07-13T16:39:51Z</time>
      </trkpt>
      <trkpt lat="43.1257470" lon="-1.1343530">
        <ele>293.8</ele>
        <time>2019-07-13T16:39:55Z</time>
      </trkpt>
      <trkpt lat="43.1257720" lon="-1.1345050">
        <ele>292.5</ele>
        <time>2019-07-13T16:39:59Z</time>
      </trkpt>
      <trkpt lat="43.1257870" lon="-1.1346460">
        <ele>291.7</ele>
        <time>2019-07-13T16:40:03Z</time>
      </trkpt>
      <trkpt lat="43.1258040" lon="-1.1347800">
        <ele>291.2</ele>
        <time>2019-07-13T16:40:07Z</time>
      </trkpt>
      <trkpt lat="43.1258140" lon="-1.1349170">
        <ele>290.9</ele>
        <time>2019-07-13T16:40:11Z</time>
      </trkpt>
      <trkpt lat="43.1258280" lon="-1.1349490">
        <ele>290.9</ele>
        <time>2019-07-13T16:40:16Z</time>
      </trkpt>
      <trkpt lat="43.1259160" lon="-1.1350520">
        <ele>290.7</ele>
        <time>2019-07-13T16:41:07Z</time>
      </trkpt>
      <trkpt lat="43.1259850" lon="-1.1351860">
        <ele>290.5</ele>
        <time>2019-07-13T16:41:10Z</time>
      </trkpt>
      <trkpt lat="43.1260460" lon="-1.1353020">
        <ele>290.3</ele>
        <time>2019-07-13T16:41:12Z</time>
      </trkpt>
      <trkpt lat="43.1261220" lon="-1.1354360">
        <ele>290.2</ele>
        <time>2019-07-13T16:41:14Z</time>
      </trkpt>
      <trkpt lat="43.1262000" lon="-1.1355810">
        <ele>289.9</ele>
        <time>2019-07-13T16:41:16Z</time>
      </trkpt>
      <trkpt lat="43.1262700" lon="-1.1357170">
        <ele>289.7</ele>
        <time>2019-07-13T16:41:18Z</time>
      </trkpt>
      <trkpt lat="43.1263400" lon="-1.1358530">
        <ele>289.2</ele>
        <time>2019-07-13T16:41:20Z</time>
      </trkpt>
      <trkpt lat="43.1263930" lon="-1.1360170">
        <ele>288.4</ele>
        <time>2019-07-13T16:41:22Z</time>
      </trkpt>
      <trkpt lat="43.1264300" lon="-1.1362000">
        <ele>287.5</ele>
        <time>2019-07-13T16:41:24Z</time>
      </trkpt>
      <trkpt lat="43.1264660" lon="-1.1363760">
        <ele>286.5</ele>
        <time>2019-07-13T16:41:26Z</time>
      </trkpt>
      <trkpt lat="43.1264960" lon="-1.1365250">
        <ele>285.6</ele>
        <time>2019-07-13T16:41:28Z</time>
      </trkpt>
      <trkpt lat="43.1265280" lon="-1.1366750">
        <ele>284.8</ele>
        <time>2019-07-13T16:41:30Z</time>
      </trkpt>
      <trkpt lat="43.1265530" lon="-1.1368230">
        <ele>284.0</ele>
        <time>2019-07-13T16:41:32Z</time>
      </trkpt>
      <trkpt lat="43.1265740" lon="-1.1369600">
        <ele>283.4</ele>
        <time>2019-07-13T16:41:34Z</time>
      </trkpt>
      <trkpt lat="43.1266000" lon="-1.1370830">
        <ele>282.9</ele>
        <time>2019-07-13T16:41:36Z</time>
      </trkpt>
      <trkpt lat="43.1266280" lon="-1.1372510">
        <ele>282.1</ele>
        <time>2019-07-13T16:41:39Z</time>
      </trkpt>
      <trkpt lat="43.1266620" lon="-1.1374020">
        <ele>281.5</ele>
        <time>2019-07-13T16:41:42Z</time>
      </trkpt>
      <trkpt lat="43.1266880" lon="-1.1375480">
        <ele>281.0</ele>
        <time>2019-07-13T16:41:46Z</time>
      </trkpt>
      <trkpt lat="43.1267150" lon="-1.1376900">
        <ele>280.6</ele>
        <time>2019-07-13T16:41:51Z</time>
      </trkpt>
      <trkpt lat="43.1267780" lon="-1.1377880">
        <ele>280.0</ele>
        <time>2019-07-13T16:41:56Z</time>
      </trkpt>
      <trkpt lat="43.1268720" lon="-1.1378280">
        <ele>279.8</ele>
        <time>2019-07-13T16:41:59Z</time>
      </trkpt>
      <trkpt lat="43.1269860" lon="-1.1378860">
        <ele>279.5</ele>
        <time>2019-07-13T16:42:02Z</time>
      </trkpt>
      <trkpt lat="43.1270980" lon="-1.1379500">
        <ele>279.3</ele>
        <time>2019-07-13T16:42:05Z</time>
      </trkpt>
      <trkpt lat="43.1271860" lon="-1.1380020">
        <ele>279.1</ele>
        <time>2019-07-13T16:42:08Z</time>
      </trkpt>
      <trkpt lat="43.1271960" lon="-1.1380080">
        <ele>279.1</ele>
        <time>2019-07-13T16:42:15Z</time>
      </trkpt>
      <trkpt lat="43.1272860" lon="-1.1380770">
        <ele>278.9</ele>
        <time>2019-07-13T16:43:32Z</time>
      </trkpt>
      <trkpt lat="43.1273860" lon="-1.1381210">
        <ele>278.7</ele>
        <time>2019-07-13T16:43:35Z</time>
      </trkpt>
      <trkpt lat="43.1274910" lon="-1.1381860">
        <ele>278.6</ele>
        <time>2019-07-13T16:43:38Z</time>
      </trkpt>
      <trkpt lat="43.1276060" lon="-1.1382480">
        <ele>278.4</ele>
        <time>2019-07-13T16:43:41Z</time>
      </trkpt>
      <trkpt lat="43.1277230" lon="-1.1383260">
        <ele>278.2</ele>
        <time>2019-07-13T16:43:44Z</time>
      </trkpt>
      <trkpt lat="43.1278070" lon="-1.1383730">
        <ele>278.0</ele>
        <time>2019-07-13T16:43:46Z</time>
      </trkpt>
      <trkpt lat="43.1278930" lon="-1.1384240">
        <ele>277.7</ele>
        <time>2019-07-13T16:43:48Z</time>
      </trkpt>
      <trkpt lat="43.1279750" lon="-1.1384870">
        <ele>277.4</ele>
        <time>2019-07-13T16:43:50Z</time>
      </trkpt>
      <trkpt lat="43.1280590" lon="-1.1385630">
        <ele>277.0</ele>
        <time>2019-07-13T16:43:52Z</time>
      </trkpt>
      <trkpt lat="43.1281370" lon="-1.1386500">
        <ele>276.7</ele>
        <time>2019-07-13T16:43:54Z</time>
      </trkpt>
      <trkpt lat="43.1282220" lon="-1.1387390">
        <ele>276.3</ele>
        <time>2019-07-13T16:43:56Z</time>
      </trkpt>
      <trkpt lat="43.1283020" lon="-1.1388320">
        <ele>275.9</ele>
        <time>2019-07-13T16:43:58Z</time>
      </trkpt>
      <trkpt lat="43.1283780" lon="-1.1389310">
        <ele>275.6</ele>
        <time>2019-07-13T16:44:00Z</time>
      </trkpt>
      <trkpt lat="43.1284620" lon="-1.1390310">
        <ele>275.3</ele>
        <time>2019-07-13T16:44:02Z</time>
      </trkpt>
      <trkpt lat="43.1285480" lon="-1.1391290">
        <ele>275.0</ele>
        <time>2019-07-13T16:44:04Z</time>
      </trkpt>
      <trkpt lat="43.1286320" lon="-1.1392240">
        <ele>274.5</ele>
        <time>2019-07-13T16:44:06Z</time>
      </trkpt>
      <trkpt lat="43.1287230" lon="-1.1393190">
        <ele>274.0</ele>
        <time>2019-07-13T16:44:08Z</time>
      </trkpt>
      <trkpt lat="43.1288170" lon="-1.1394160">
        <ele>273.3</ele>
        <time>2019-07-13T16:44:10Z</time>
      </trkpt>
      <trkpt lat="43.1289190" lon="-1.1395140">
        <ele>272.6</ele>
        <time>2019-07-13T16:44:12Z</time>
      </trkpt>
      <trkpt lat="43.1290320" lon="-1.1396040">
        <ele>271.9</ele>
        <time>2019-07-13T16:44:14Z</time>
      </trkpt>
      <trkpt lat="43.1291510" lon="-1.1396880">
        <ele>271.2</ele>
        <time>2019-07-13T16:44:16Z</time>
      </trkpt>
      <trkpt lat="43.1292720" lon="-1.1397740">
        <ele>270.6</ele>
        <time>2019-07-13T16:44:18Z</time>
      </trkpt>
      <trkpt lat="43.1293920" lon="-1.1398620">
        <ele>270.5</ele>
        <time>2019-07-13T16:44:20Z</time>
      </trkpt>
      <trkpt lat="43.1295120" lon="-1.1399460">
        <ele>270.4</ele>
        <time>2019-07-13T16:44:22Z</time>
      </trkpt>
      <trkpt lat="43.1296350" lon="-1.1400160">
        <ele>270.4</ele>
        <time>2019-07-13T16:44:24Z</time>
      </trkpt>
      <trkpt lat="43.1297530" lon="-1.1400780">
        <ele>270.4</ele>
        <time>2019-07-13T16:44:26Z</time>
      </trkpt>
      <trkpt lat="43.1298620" lon="-1.1401250">
        <ele>270.4</ele>
        <time>2019-07-13T16:44:28Z</time>
      </trkpt>
      <trkpt lat="43.1299620" lon="-1.1401730">
        <ele>270.4</ele>
        <time>2019-07-13T16:44:30Z</time>
      </trkpt>
      <trkpt lat="43.1300500" lon="-1.1402140">
        <ele>270.4</ele>
        <time>2019-07-13T16:44:32Z</time>
      </trkpt>
      <trkpt lat="43.1301510" lon="-1.1402710">
        <ele>270.4</ele>
        <time>2019-07-13T16:44:35Z</time>
      </trkpt>
      <trkpt lat="43.1301900" lon="-1.1402780">
        <ele>270.4</ele>
        <time>2019-07-13T16:44:41Z</time>
      </trkpt>
      <trkpt lat="43.1302870" lon="-1.1403190">
        <ele>270.4</ele>
        <time>2019-07-13T16:45:01Z</time>
      </trkpt>
      <trkpt lat="43.1303920" lon="-1.1403990">
        <ele>270.4</ele>
        <time>2019-07-13T16:45:05Z</time>
      </trkpt>
      <trkpt lat="43.1304740" lon="-1.1404560">
        <ele>270.5</ele>
        <time>2019-07-13T16:45:08Z</time>
      </trkpt>
      <trkpt lat="43.1305620" lon="-1.1405210">
        <ele>270.5</ele>
        <time>2019-07-13T16:45:11Z</time>
      </trkpt>
      <trkpt lat="43.1306500" lon="-1.1405900">
        <ele>270.6</ele>
        <time>2019-07-13T16:45:14Z</time>
      </trkpt>
      <trkpt lat="43.1307390" lon="-1.1406580">
        <ele>270.6</ele>
        <time>2019-07-13T16:45:17Z</time>
      </trkpt>
      <trkpt lat="43.1308340" lon="-1.1407320">
        <ele>270.7</ele>
        <time>2019-07-13T16:45:20Z</time>
      </trkpt>
      <trkpt lat="43.1309430" lon="-1.1407980">
        <ele>270.7</ele>
        <time>2019-07-13T16:45:23Z</time>
      </trkpt>
      <trkpt lat="43.1310580" lon="-1.1408780">
        <ele>270.6</ele>
        <time>2019-07-13T16:45:26Z</time>
      </trkpt>
      <trkpt lat="43.1311750" lon="-1.1409690">
        <ele>270.6</ele>
        <time>2019-07-13T16:45:29Z</time>
      </trkpt>
      <trkpt lat="43.1312610" lon="-1.1410280">
        <ele>270.6</ele>
        <time>2019-07-13T16:45:31Z</time>
      </trkpt>
      <trkpt lat="43.1313480" lon="-1.1410860">
        <ele>270.6</ele>
        <time>2019-07-13T16:45:33Z</time>
      </trkpt>
      <trkpt lat="43.1314360" lon="-1.1411470">
        <ele>270.5</ele>
        <time>2019-07-13T16:45:35Z</time>
      </trkpt>
      <trkpt lat="43.1315200" lon="-1.1412120">
        <ele>270.4</ele>
        <time>2019-07-13T16:45:37Z</time>
      </trkpt>
      <trkpt lat="43.1316010" lon="-1.1412720">
        <ele>270.3</ele>
        <time>2019-07-13T16:45:39Z</time>
      </trkpt>
      <trkpt lat="43.1316850" lon="-1.1413270">
        <ele>270.2</ele>
        <time>2019-07-13T16:45:41Z</time>
      </trkpt>
      <trkpt lat="43.1317650" lon="-1.1413840">
        <ele>269.9</ele>
        <time>2019-07-13T16:45:43Z</time>
      </trkpt>
      <trkpt lat="43.1318830" lon="-1.1414690">
        <ele>269.5</ele>
        <time>2019-07-13T16:45:46Z</time>
      </trkpt>
      <trkpt lat="43.1320030" lon="-1.1415420">
        <ele>269.0</ele>
        <time>2019-07-13T16:45:49Z</time>
      </trkpt>
      <trkpt lat="43.1321230" lon="-1.1416160">
        <ele>268.7</ele>
        <time>2019-07-13T16:45:52Z</time>
      </trkpt>
      <trkpt lat="43.1322480" lon="-1.1416770">
        <ele>268.5</ele>
        <time>2019-07-13T16:45:55Z</time>
      </trkpt>
      <trkpt lat="43.1323330" lon="-1.1417190">
        <ele>268.4</ele>
        <time>2019-07-13T16:45:57Z</time>
      </trkpt>
      <trkpt lat="43.1324180" lon="-1.1417670">
        <ele>268.4</ele>
        <time>2019-07-13T16:45:59Z</time>
      </trkpt>
      <trkpt lat="43.1325030" lon="-1.1418150">
        <ele>268.3</ele>
        <time>2019-07-13T16:46:01Z</time>
      </trkpt>
      <trkpt lat="43.1325910" lon="-1.1418660">
        <ele>268.3</ele>
        <time>2019-07-13T16:46:03Z</time>
      </trkpt>
      <trkpt lat="43.1326780" lon="-1.1419150">
        <ele>268.2</ele>
        <time>2019-07-13T16:46:05Z</time>
      </trkpt>
      <trkpt lat="43.1327640" lon="-1.1419700">
        <ele>268.2</ele>
        <time>2019-07-13T16:46:07Z</time>
      </trkpt>
      <trkpt lat="43.1328490" lon="-1.1420290">
        <ele>268.2</ele>
        <time>2019-07-13T16:46:09Z</time>
      </trkpt>
      <trkpt lat="43.1329340" lon="-1.1420800">
        <ele>268.2</ele>
        <time>2019-07-13T16:46:11Z</time>
      </trkpt>
      <trkpt lat="43.1330590" lon="-1.1421530">
        <ele>268.2</ele>
        <time>2019-07-13T16:46:14Z</time>
      </trkpt>
      <trkpt lat="43.1331770" lon="-1.1422260">
        <ele>268.2</ele>
        <time>2019-07-13T16:46:17Z</time>
      </trkpt>
      <trkpt lat="43.1332960" lon="-1.1422850">
        <ele>268.2</ele>
        <time>2019-07-13T16:46:20Z</time>
      </trkpt>
      <trkpt lat="43.1334150" lon="-1.1423550">
        <ele>268.1</ele>
        <time>2019-07-13T16:46:23Z</time>
      </trkpt>
      <trkpt lat="43.1335300" lon="-1.1424250">
        <ele>268.2</ele>
        <time>2019-07-13T16:46:26Z</time>
      </trkpt>
      <trkpt lat="43.1336400" lon="-1.1424910">
        <ele>268.2</ele>
        <time>2019-07-13T16:46:29Z</time>
      </trkpt>
      <trkpt lat="43.1337540" lon="-1.1425540">
        <ele>268.2</ele>
        <time>2019-07-13T16:46:32Z</time>
      </trkpt>
      <trkpt lat="43.1338640" lon="-1.1426220">
        <ele>268.2</ele>
        <time>2019-07-13T16:46:35Z</time>
      </trkpt>
      <trkpt lat="43.1339770" lon="-1.1426780">
        <ele>268.2</ele>
        <time>2019-07-13T16:46:38Z</time>
      </trkpt>
      <trkpt lat="43.1340930" lon="-1.1427470">
        <ele>268.2</ele>
        <time>2019-07-13T16:46:41Z</time>
      </trkpt>
      <trkpt lat="43.1341770" lon="-1.1427950">
        <ele>268.2</ele>
        <time>2019-07-13T16:46:43Z</time>
      </trkpt>
      <trkpt lat="43.1342600" lon="-1.1428570">
        <ele>268.3</ele>
        <time>2019-07-13T16:46:45Z</time>
      </trkpt>
      <trkpt lat="43.1343360" lon="-1.1429390">
        <ele>268.3</ele>
        <time>2019-07-13T16:46:47Z</time>
      </trkpt>
      <trkpt lat="43.1344050" lon="-1.1430230">
        <ele>268.3</ele>
        <time>2019-07-13T16:46:49Z</time>
      </trkpt>
      <trkpt lat="43.1344850" lon="-1.1431570">
        <ele>268.3</ele>
        <time>2019-07-13T16:46:52Z</time>
      </trkpt>
      <trkpt lat="43.1345560" lon="-1.1432990">
        <ele>268.1</ele>
        <time>2019-07-13T16:46:55Z</time>
      </trkpt>
      <trkpt lat="43.1346360" lon="-1.1434430">
        <ele>267.8</ele>
        <time>2019-07-13T16:46:58Z</time>
      </trkpt>
      <trkpt lat="43.1346990" lon="-1.1435380">
        <ele>267.6</ele>
        <time>2019-07-13T16:47:00Z</time>
      </trkpt>
      <trkpt lat="43.1347650" lon="-1.1436350">
        <ele>267.3</ele>
        <time>2019-07-13T16:47:02Z</time>
      </trkpt>
      <trkpt lat="43.1348390" lon="-1.1437290">
        <ele>267.0</ele>
        <time>2019-07-13T16:47:04Z</time>
      </trkpt>
      <trkpt lat="43.1349150" lon="-1.1438290">
        <ele>266.7</ele>
        <time>2019-07-13T16:47:06Z</time>
      </trkpt>
      <trkpt lat="43.1349960" lon="-1.1439260">
        <ele>266.3</ele>
        <time>2019-07-13T16:47:08Z</time>
      </trkpt>
      <trkpt lat="43.1350820" lon="-1.1440190">
        <ele>266.1</ele>
        <time>2019-07-13T16:47:10Z</time>
      </trkpt>
      <trkpt lat="43.1351570" lon="-1.1440900">
        <ele>265.8</ele>
        <time>2019-07-13T16:47:12Z</time>
      </trkpt>
      <trkpt lat="43.1352340" lon="-1.1441630">
        <ele>265.6</ele>
        <time>2019-07-13T16:47:14Z</time>
      </trkpt>
      <trkpt lat="43.1353420" lon="-1.1442740">
        <ele>265.3</ele>
        <time>2019-07-13T16:47:17Z</time>
      </trkpt>
      <trkpt lat="43.1354180" lon="-1.1443510">
        <ele>265.1</ele>
        <time>2019-07-13T16:47:19Z</time>
      </trkpt>
      <trkpt lat="43.1354980" lon="-1.1444410">
        <ele>264.9</ele>
        <time>2019-07-13T16:47:21Z</time>
      </trkpt>
      <trkpt lat="43.1355770" lon="-1.1445410">
        <ele>264.6</ele>
        <time>2019-07-13T16:47:23Z</time>
      </trkpt>
      <trkpt lat="43.1356610" lon="-1.1446360">
        <ele>264.3</ele>
        <time>2019-07-13T16:47:25Z</time>
      </trkpt>
      <trkpt lat="43.1357500" lon="-1.1447290">
        <ele>263.9</ele>
        <time>2019-07-13T16:47:27Z</time>
      </trkpt>
      <trkpt lat="43.1358350" lon="-1.1448370">
        <ele>263.5</ele>
        <time>2019-07-13T16:47:29Z</time>
      </trkpt>
      <trkpt lat="43.1359210" lon="-1.1449510">
        <ele>263.1</ele>
        <time>2019-07-13T16:47:31Z</time>
      </trkpt>
      <trkpt lat="43.1360060" lon="-1.1450650">
        <ele>262.7</ele>
        <time>2019-07-13T16:47:33Z</time>
      </trkpt>
      <trkpt lat="43.1360810" lon="-1.1451820">
        <ele>262.3</ele>
        <time>2019-07-13T16:47:35Z</time>
      </trkpt>
      <trkpt lat="43.1361540" lon="-1.1452970">
        <ele>261.9</ele>
        <time>2019-07-13T16:47:37Z</time>
      </trkpt>
      <trkpt lat="43.1362200" lon="-1.1454060">
        <ele>261.5</ele>
        <time>2019-07-13T16:47:39Z</time>
      </trkpt>
      <trkpt lat="43.1362870" lon="-1.1455180">
        <ele>261.1</ele>
        <time>2019-07-13T16:47:41Z</time>
      </trkpt>
      <trkpt lat="43.1363530" lon="-1.1456370">
        <ele>260.7</ele>
        <time>2019-07-13T16:47:43Z</time>
      </trkpt>
      <trkpt lat="43.1364180" lon="-1.1457590">
        <ele>260.4</ele>
        <time>2019-07-13T16:47:45Z</time>
      </trkpt>
      <trkpt lat="43.1364850" lon="-1.1458810">
        <ele>260.1</ele>
        <time>2019-07-13T16:47:47Z</time>
      </trkpt>
      <trkpt lat="43.1365560" lon="-1.1460060">
        <ele>259.8</ele>
        <time>2019-07-13T16:47:49Z</time>
      </trkpt>
      <trkpt lat="43.1366280" lon="-1.1461270">
        <ele>259.6</ele>
        <time>2019-07-13T16:47:51Z</time>
      </trkpt>
      <trkpt lat="43.1366990" lon="-1.1462500">
        <ele>259.4</ele>
        <time>2019-07-13T16:47:53Z</time>
      </trkpt>
      <trkpt lat="43.1367740" lon="-1.1463740">
        <ele>259.2</ele>
        <time>2019-07-13T16:47:55Z</time>
      </trkpt>
      <trkpt lat="43.1368540" lon="-1.1465020">
        <ele>259.1</ele>
        <time>2019-07-13T16:47:57Z</time>
      </trkpt>
      <trkpt lat="43.1369380" lon="-1.1466360">
        <ele>259.0</ele>
        <time>2019-07-13T16:47:59Z</time>
      </trkpt>
      <trkpt lat="43.1370290" lon="-1.1467620">
        <ele>258.8</ele>
        <time>2019-07-13T16:48:01Z</time>
      </trkpt>
      <trkpt lat="43.1371200" lon="-1.1468880">
        <ele>258.7</ele>
        <time>2019-07-13T16:48:03Z</time>
      </trkpt>
      <trkpt lat="43.1372060" lon="-1.1470120">
        <ele>258.4</ele>
        <time>2019-07-13T16:48:05Z</time>
      </trkpt>
      <trkpt lat="43.1372920" lon="-1.1471340">
        <ele>258.1</ele>
        <time>2019-07-13T16:48:07Z</time>
      </trkpt>
      <trkpt lat="43.1373720" lon="-1.1472570">
        <ele>257.7</ele>
        <time>2019-07-13T16:48:09Z</time>
      </trkpt>
      <trkpt lat="43.1374500" lon="-1.1473840">
        <ele>257.3</ele>
        <time>2019-07-13T16:48:11Z</time>
      </trkpt>
      <trkpt lat="43.1375270" lon="-1.1475020">
        <ele>257.0</ele>
        <time>2019-07-13T16:48:13Z</time>
      </trkpt>
      <trkpt lat="43.1376020" lon="-1.1476130">
        <ele>256.8</ele>
        <time>2019-07-13T16:48:15Z</time>
      </trkpt>
      <trkpt lat="43.1376750" lon="-1.1477210">
        <ele>256.5</ele>
        <time>2019-07-13T16:48:17Z</time>
      </trkpt>
      <trkpt lat="43.1377430" lon="-1.1478310">
        <ele>256.3</ele>
        <time>2019-07-13T16:48:19Z</time>
      </trkpt>
      <trkpt lat="43.1378100" lon="-1.1479400">
        <ele>256.3</ele>
        <time>2019-07-13T16:48:21Z</time>
      </trkpt>
      <trkpt lat="43.1378710" lon="-1.1480400">
        <ele>256.4</ele>
        <time>2019-07-13T16:48:23Z</time>
      </trkpt>
      <trkpt lat="43.1379330" lon="-1.1481390">
        <ele>256.3</ele>
        <time>2019-07-13T16:48:25Z</time>
      </trkpt>
      <trkpt lat="43.1379930" lon="-1.1482430">
        <ele>256.1</ele>
        <time>2019-07-13T16:48:27Z</time>
      </trkpt>
      <trkpt lat="43.1380600" lon="-1.1483480">
        <ele>255.7</ele>
        <time>2019-07-13T16:48:29Z</time>
      </trkpt>
      <trkpt lat="43.1381270" lon="-1.1484510">
        <ele>255.5</ele>
        <time>2019-07-13T16:48:31Z</time>
      </trkpt>
      <trkpt lat="43.1381920" lon="-1.1485590">
        <ele>255.3</ele>
        <time>2019-07-13T16:48:33Z</time>
      </trkpt>
      <trkpt lat="43.1382540" lon="-1.1486690">
        <ele>255.3</ele>
        <time>2019-07-13T16:48:35Z</time>
      </trkpt>
      <trkpt lat="43.1383180" lon="-1.1487730">
        <ele>255.2</ele>
        <time>2019-07-13T16:48:37Z</time>
      </trkpt>
      <trkpt lat="43.1383840" lon="-1.1488780">
        <ele>254.9</ele>
        <time>2019-07-13T16:48:39Z</time>
      </trkpt>
      <trkpt lat="43.1384470" lon="-1.1489870">
        <ele>254.6</ele>
        <time>2019-07-13T16:48:41Z</time>
      </trkpt>
      <trkpt lat="43.1385170" lon="-1.1490970">
        <ele>254.3</ele>
        <time>2019-07-13T16:48:43Z</time>
      </trkpt>
      <trkpt lat="43.1385850" lon="-1.1492110">
        <ele>254.1</ele>
        <time>2019-07-13T16:48:45Z</time>
      </trkpt>
      <trkpt lat="43.1386570" lon="-1.1493210">
        <ele>253.8</ele>
        <time>2019-07-13T16:48:47Z</time>
      </trkpt>
      <trkpt lat="43.1387250" lon="-1.1494340">
        <ele>253.6</ele>
        <time>2019-07-13T16:48:49Z</time>
      </trkpt>
      <trkpt lat="43.1387960" lon="-1.1495460">
        <ele>253.4</ele>
        <time>2019-07-13T16:48:51Z</time>
      </trkpt>
      <trkpt lat="43.1388650" lon="-1.1496560">
        <ele>253.3</ele>
        <time>2019-07-13T16:48:53Z</time>
      </trkpt>
      <trkpt lat="43.1389340" lon="-1.1497740">
        <ele>253.3</ele>
        <time>2019-07-13T16:48:55Z</time>
      </trkpt>
      <trkpt lat="43.1390060" lon="-1.1498900">
        <ele>253.3</ele>
        <time>2019-07-13T16:48:57Z</time>
      </trkpt>
      <trkpt lat="43.1390820" lon="-1.1500050">
        <ele>253.3</ele>
        <time>2019-07-13T16:48:59Z</time>
      </trkpt>
      <trkpt lat="43.1391560" lon="-1.1501230">
        <ele>253.3</ele>
        <time>2019-07-13T16:49:01Z</time>
      </trkpt>
      <trkpt lat="43.1392320" lon="-1.1502440">
        <ele>253.1</ele>
        <time>2019-07-13T16:49:03Z</time>
      </trkpt>
      <trkpt lat="43.1393050" lon="-1.1503610">
        <ele>252.8</ele>
        <time>2019-07-13T16:49:05Z</time>
      </trkpt>
      <trkpt lat="43.1393770" lon="-1.1504680">
        <ele>252.5</ele>
        <time>2019-07-13T16:49:07Z</time>
      </trkpt>
      <trkpt lat="43.1394460" lon="-1.1505730">
        <ele>252.3</ele>
        <time>2019-07-13T16:49:09Z</time>
      </trkpt>
      <trkpt lat="43.1395130" lon="-1.1506780">
        <ele>252.2</ele>
        <time>2019-07-13T16:49:11Z</time>
      </trkpt>
      <trkpt lat="43.1395780" lon="-1.1507750">
        <ele>252.1</ele>
        <time>2019-07-13T16:49:13Z</time>
      </trkpt>
      <trkpt lat="43.1396430" lon="-1.1508740">
        <ele>251.8</ele>
        <time>2019-07-13T16:49:15Z</time>
      </trkpt>
      <trkpt lat="43.1397110" lon="-1.1509750">
        <ele>251.3</ele>
        <time>2019-07-13T16:49:17Z</time>
      </trkpt>
      <trkpt lat="43.1397840" lon="-1.1510760">
        <ele>250.7</ele>
        <time>2019-07-13T16:49:19Z</time>
      </trkpt>
      <trkpt lat="43.1398500" lon="-1.1511790">
        <ele>250.4</ele>
        <time>2019-07-13T16:49:21Z</time>
      </trkpt>
      <trkpt lat="43.1399180" lon="-1.1512770">
        <ele>250.3</ele>
        <time>2019-07-13T16:49:23Z</time>
      </trkpt>
      <trkpt lat="43.1399840" lon="-1.1513710">
        <ele>250.2</ele>
        <time>2019-07-13T16:49:25Z</time>
      </trkpt>
      <trkpt lat="43.1400450" lon="-1.1514690">
        <ele>250.0</ele>
        <time>2019-07-13T16:49:27Z</time>
      </trkpt>
      <trkpt lat="43.1401120" lon="-1.1515730">
        <ele>249.6</ele>
        <time>2019-07-13T16:49:29Z</time>
      </trkpt>
      <trkpt lat="43.1401800" lon="-1.1516800">
        <ele>249.2</ele>
        <time>2019-07-13T16:49:31Z</time>
      </trkpt>
      <trkpt lat="43.1402510" lon="-1.1517860">
        <ele>248.7</ele>
        <time>2019-07-13T16:49:33Z</time>
      </trkpt>
      <trkpt lat="43.1403220" lon="-1.1518890">
        <ele>248.3</ele>
        <time>2019-07-13T16:49:35Z</time>
      </trkpt>
      <trkpt lat="43.1403840" lon="-1.1520050">
        <ele>247.8</ele>
        <time>2019-07-13T16:49:37Z</time>
      </trkpt>
      <trkpt lat="43.1404420" lon="-1.1521360">
        <ele>247.3</ele>
        <time>2019-07-13T16:49:39Z</time>
      </trkpt>
      <trkpt lat="43.1405040" lon="-1.1522670">
        <ele>246.9</ele>
        <time>2019-07-13T16:49:41Z</time>
      </trkpt>
      <trkpt lat="43.1405670" lon="-1.1524140">
        <ele>246.4</ele>
        <time>2019-07-13T16:49:43Z</time>
      </trkpt>
      <trkpt lat="43.1406310" lon="-1.1525580">
        <ele>245.9</ele>
        <time>2019-07-13T16:49:45Z</time>
      </trkpt>
      <trkpt lat="43.1406930" lon="-1.1527020">
        <ele>245.6</ele>
        <time>2019-07-13T16:49:47Z</time>
      </trkpt>
      <trkpt lat="43.1407520" lon="-1.1528420">
        <ele>245.3</ele>
        <time>2019-07-13T16:49:49Z</time>
      </trkpt>
      <trkpt lat="43.1408100" lon="-1.1529680">
        <ele>245.1</ele>
        <time>2019-07-13T16:49:51Z</time>
      </trkpt>
      <trkpt lat="43.1408710" lon="-1.1530860">
        <ele>244.8</ele>
        <time>2019-07-13T16:49:53Z</time>
      </trkpt>
      <trkpt lat="43.1409510" lon="-1.1531980">
        <ele>244.5</ele>
        <time>2019-07-13T16:49:55Z</time>
      </trkpt>
      <trkpt lat="43.1410550" lon="-1.1532880">
        <ele>244.2</ele>
        <time>2019-07-13T16:49:57Z</time>
      </trkpt>
      <trkpt lat="43.1411830" lon="-1.1533480">
        <ele>243.8</ele>
        <time>2019-07-13T16:49:59Z</time>
      </trkpt>
      <trkpt lat="43.1413120" lon="-1.1533920">
        <ele>243.5</ele>
        <time>2019-07-13T16:50:01Z</time>
      </trkpt>
      <trkpt lat="43.1414370" lon="-1.1534510">
        <ele>243.0</ele>
        <time>2019-07-13T16:50:03Z</time>
      </trkpt>
      <trkpt lat="43.1415530" lon="-1.1535070">
        <ele>242.6</ele>
        <time>2019-07-13T16:50:05Z</time>
      </trkpt>
      <trkpt lat="43.1416620" lon="-1.1535540">
        <ele>242.1</ele>
        <time>2019-07-13T16:50:07Z</time>
      </trkpt>
      <trkpt lat="43.1417570" lon="-1.1535910">
        <ele>241.8</ele>
        <time>2019-07-13T16:50:09Z</time>
      </trkpt>
      <trkpt lat="43.1418700" lon="-1.1536320">
        <ele>241.8</ele>
        <time>2019-07-13T16:50:12Z</time>
      </trkpt>
      <trkpt lat="43.1419960" lon="-1.1536580">
        <ele>241.9</ele>
        <time>2019-07-13T16:50:15Z</time>
      </trkpt>
      <trkpt lat="43.1420970" lon="-1.1536580">
        <ele>242.5</ele>
        <time>2019-07-13T16:50:17Z</time>
      </trkpt>
      <trkpt lat="43.1422020" lon="-1.1536570">
        <ele>242.9</ele>
        <time>2019-07-13T16:50:19Z</time>
      </trkpt>
      <trkpt lat="43.1423010" lon="-1.1536460">
        <ele>243.2</ele>
        <time>2019-07-13T16:50:21Z</time>
      </trkpt>
      <trkpt lat="43.1423940" lon="-1.1536410">
        <ele>243.4</ele>
        <time>2019-07-13T16:50:23Z</time>
      </trkpt>
      <trkpt lat="43.1425150" lon="-1.1536260">
        <ele>243.6</ele>
        <time>2019-07-13T16:50:26Z</time>
      </trkpt>
      <trkpt lat="43.1426370" lon="-1.1536020">
        <ele>244.0</ele>
        <time>2019-07-13T16:50:29Z</time>
      </trkpt>
      <trkpt lat="43.1427600" lon="-1.1535890">
        <ele>244.4</ele>
        <time>2019-07-13T16:50:32Z</time>
      </trkpt>
      <trkpt lat="43.1428800" lon="-1.1535820">
        <ele>244.7</ele>
        <time>2019-07-13T16:50:35Z</time>
      </trkpt>
      <trkpt lat="43.1429960" lon="-1.1535810">
        <ele>244.9</ele>
        <time>2019-07-13T16:50:38Z</time>
      </trkpt>
      <trkpt lat="43.1431100" lon="-1.1536010">
        <ele>245.1</ele>
        <time>2019-07-13T16:50:41Z</time>
      </trkpt>
      <trkpt lat="43.1432150" lon="-1.1536500">
        <ele>245.5</ele>
        <time>2019-07-13T16:50:44Z</time>
      </trkpt>
      <trkpt lat="43.1433190" lon="-1.1537060">
        <ele>245.9</ele>
        <time>2019-07-13T16:50:47Z</time>
      </trkpt>
      <trkpt lat="43.1434330" lon="-1.1537700">
        <ele>246.3</ele>
        <time>2019-07-13T16:50:50Z</time>
      </trkpt>
      <trkpt lat="43.1435470" lon="-1.1538320">
        <ele>246.5</ele>
        <time>2019-07-13T16:50:53Z</time>
      </trkpt>
      <trkpt lat="43.1436370" lon="-1.1539130">
        <ele>246.7</ele>
        <time>2019-07-13T16:50:56Z</time>
      </trkpt>
      <trkpt lat="43.1437050" lon="-1.1540020">
        <ele>246.8</ele>
        <time>2019-07-13T16:50:59Z</time>
      </trkpt>
      <trkpt lat="43.1437540" lon="-1.1541070">
        <ele>246.8</ele>
        <time>2019-07-13T16:51:02Z</time>
      </trkpt>
      <trkpt lat="43.1437790" lon="-1.1542600">
        <ele>246.8</ele>
        <time>2019-07-13T16:51:06Z</time>
      </trkpt>
      <trkpt lat="43.1438000" lon="-1.1543980">
        <ele>246.8</ele>
        <time>2019-07-13T16:51:10Z</time>
      </trkpt>
      <trkpt lat="43.1438170" lon="-1.1545430">
        <ele>246.8</ele>
        <time>2019-07-13T16:51:14Z</time>
      </trkpt>
      <trkpt lat="43.1438390" lon="-1.1546960">
        <ele>246.7</ele>
        <time>2019-07-13T16:51:18Z</time>
      </trkpt>
      <trkpt lat="43.1438610" lon="-1.1548400">
        <ele>246.7</ele>
        <time>2019-07-13T16:51:22Z</time>
      </trkpt>
      <trkpt lat="43.1438720" lon="-1.1549720">
        <ele>246.7</ele>
        <time>2019-07-13T16:51:25Z</time>
      </trkpt>
      <trkpt lat="43.1438910" lon="-1.1551110">
        <ele>246.8</ele>
        <time>2019-07-13T16:51:28Z</time>
      </trkpt>
      <trkpt lat="43.1439070" lon="-1.1552530">
        <ele>246.9</ele>
        <time>2019-07-13T16:51:31Z</time>
      </trkpt>
      <trkpt lat="43.1439290" lon="-1.1554010">
        <ele>246.9</ele>
        <time>2019-07-13T16:51:34Z</time>
      </trkpt>
      <trkpt lat="43.1439490" lon="-1.1555440">
        <ele>247.0</ele>
        <time>2019-07-13T16:51:37Z</time>
      </trkpt>
      <trkpt lat="43.1439730" lon="-1.1556910">
        <ele>247.0</ele>
        <time>2019-07-13T16:51:40Z</time>
      </trkpt>
      <trkpt lat="43.1439930" lon="-1.1558260">
        <ele>247.0</ele>
        <time>2019-07-13T16:51:43Z</time>
      </trkpt>
      <trkpt lat="43.1440170" lon="-1.1559720">
        <ele>247.0</ele>
        <time>2019-07-13T16:51:46Z</time>
      </trkpt>
      <trkpt lat="43.1440460" lon="-1.1561060">
        <ele>246.9</ele>
        <time>2019-07-13T16:51:49Z</time>
      </trkpt>
      <trkpt lat="43.1440730" lon="-1.1562440">
        <ele>246.9</ele>
        <time>2019-07-13T16:51:52Z</time>
      </trkpt>
      <trkpt lat="43.1441050" lon="-1.1563850">
        <ele>246.9</ele>
        <time>2019-07-13T16:51:55Z</time>
      </trkpt>
      <trkpt lat="43.1441320" lon="-1.1565300">
        <ele>246.9</ele>
        <time>2019-07-13T16:51:58Z</time>
      </trkpt>
      <trkpt lat="43.1441570" lon="-1.1566810">
        <ele>247.0</ele>
        <time>2019-07-13T16:52:01Z</time>
      </trkpt>
      <trkpt lat="43.1441770" lon="-1.1568440">
        <ele>247.1</ele>
        <time>2019-07-13T16:52:04Z</time>
      </trkpt>
      <trkpt lat="43.1441980" lon="-1.1569950">
        <ele>247.1</ele>
        <time>2019-07-13T16:52:07Z</time>
      </trkpt>
      <trkpt lat="43.1442190" lon="-1.1571510">
        <ele>247.1</ele>
        <time>2019-07-13T16:52:10Z</time>
      </trkpt>
      <trkpt lat="43.1442280" lon="-1.1573070">
        <ele>247.1</ele>
        <time>2019-07-13T16:52:13Z</time>
      </trkpt>
      <trkpt lat="43.1442450" lon="-1.1574600">
        <ele>247.1</ele>
        <time>2019-07-13T16:52:16Z</time>
      </trkpt>
      <trkpt lat="43.1442620" lon="-1.1576080">
        <ele>247.0</ele>
        <time>2019-07-13T16:52:19Z</time>
      </trkpt>
      <trkpt lat="43.1442880" lon="-1.1577610">
        <ele>246.9</ele>
        <time>2019-07-13T16:52:22Z</time>
      </trkpt>
      <trkpt lat="43.1443210" lon="-1.1579040">
        <ele>246.8</ele>
        <time>2019-07-13T16:52:25Z</time>
      </trkpt>
      <trkpt lat="43.1443530" lon="-1.1580450">
        <ele>246.7</ele>
        <time>2019-07-13T16:52:28Z</time>
      </trkpt>
      <trkpt lat="43.1443920" lon="-1.1581780">
        <ele>246.6</ele>
        <time>2019-07-13T16:52:31Z</time>
      </trkpt>
      <trkpt lat="43.1444350" lon="-1.1583100">
        <ele>246.4</ele>
        <time>2019-07-13T16:52:34Z</time>
      </trkpt>
      <trkpt lat="43.1444850" lon="-1.1584410">
        <ele>246.1</ele>
        <time>2019-07-13T16:52:37Z</time>
      </trkpt>
      <trkpt lat="43.1445430" lon="-1.1585690">
        <ele>245.7</ele>
        <time>2019-07-13T16:52:40Z</time>
      </trkpt>
      <trkpt lat="43.1446020" lon="-1.1587030">
        <ele>245.2</ele>
        <time>2019-07-13T16:52:43Z</time>
      </trkpt>
      <trkpt lat="43.1446560" lon="-1.1588310">
        <ele>244.8</ele>
        <time>2019-07-13T16:52:46Z</time>
      </trkpt>
      <trkpt lat="43.1446900" lon="-1.1589820">
        <ele>244.5</ele>
        <time>2019-07-13T16:52:49Z</time>
      </trkpt>
      <trkpt lat="43.1447260" lon="-1.1591650">
        <ele>244.2</ele>
        <time>2019-07-13T16:52:52Z</time>
      </trkpt>
      <trkpt lat="43.1447320" lon="-1.1592970">
        <ele>244.2</ele>
        <time>2019-07-13T16:52:54Z</time>
      </trkpt>
      <trkpt lat="43.1447360" lon="-1.1594360">
        <ele>244.1</ele>
        <time>2019-07-13T16:52:56Z</time>
      </trkpt>
      <trkpt lat="43.1447270" lon="-1.1595920">
        <ele>244.1</ele>
        <time>2019-07-13T16:52:58Z</time>
      </trkpt>
      <trkpt lat="43.1447170" lon="-1.1597610">
        <ele>244.2</ele>
        <time>2019-07-13T16:53:00Z</time>
      </trkpt>
      <trkpt lat="43.1447050" lon="-1.1599310">
        <ele>244.2</ele>
        <time>2019-07-13T16:53:02Z</time>
      </trkpt>
      <trkpt lat="43.1446950" lon="-1.1600980">
        <ele>244.2</ele>
        <time>2019-07-13T16:53:04Z</time>
      </trkpt>
      <trkpt lat="43.1446910" lon="-1.1602580">
        <ele>244.3</ele>
        <time>2019-07-13T16:53:06Z</time>
      </trkpt>
      <trkpt lat="43.1446900" lon="-1.1604070">
        <ele>244.5</ele>
        <time>2019-07-13T16:53:08Z</time>
      </trkpt>
      <trkpt lat="43.1446910" lon="-1.1605440">
        <ele>244.6</ele>
        <time>2019-07-13T16:53:10Z</time>
      </trkpt>
      <trkpt lat="43.1447030" lon="-1.1606690">
        <ele>244.9</ele>
        <time>2019-07-13T16:53:12Z</time>
      </trkpt>
      <trkpt lat="43.1447220" lon="-1.1608280">
        <ele>245.2</ele>
        <time>2019-07-13T16:53:15Z</time>
      </trkpt>
      <trkpt lat="43.1447430" lon="-1.1609670">
        <ele>245.6</ele>
        <time>2019-07-13T16:53:18Z</time>
      </trkpt>
      <trkpt lat="43.1447590" lon="-1.1610920">
        <ele>246.0</ele>
        <time>2019-07-13T16:53:21Z</time>
      </trkpt>
      <trkpt lat="43.1447600" lon="-1.1612530">
        <ele>246.6</ele>
        <time>2019-07-13T16:53:25Z</time>
      </trkpt>
      <trkpt lat="43.1447500" lon="-1.1614170">
        <ele>247.2</ele>
        <time>2019-07-13T16:53:29Z</time>
      </trkpt>
      <trkpt lat="43.1447360" lon="-1.1615470">
        <ele>247.8</ele>
        <time>2019-07-13T16:53:32Z</time>
      </trkpt>
      <trkpt lat="43.1447250" lon="-1.1617090">
        <ele>248.5</ele>
        <time>2019-07-13T16:53:36Z</time>
      </trkpt>
      <trkpt lat="43.1447030" lon="-1.1618540">
        <ele>249.0</ele>
        <time>2019-07-13T16:53:40Z</time>
      </trkpt>
      <trkpt lat="43.1446800" lon="-1.1619910">
        <ele>249.4</ele>
        <time>2019-07-13T16:53:44Z</time>
      </trkpt>
      <trkpt lat="43.1446730" lon="-1.1621250">
        <ele>249.7</ele>
        <time>2019-07-13T16:53:49Z</time>
      </trkpt>
      <trkpt lat="43.1446740" lon="-1.1622540">
        <ele>250.0</ele>
        <time>2019-07-13T16:53:54Z</time>
      </trkpt>
      <trkpt lat="43.1446780" lon="-1.1623970">
        <ele>250.3</ele>
        <time>2019-07-13T16:54:00Z</time>
      </trkpt>
      <trkpt lat="43.1446980" lon="-1.1625330">
        <ele>250.6</ele>
        <time>2019-07-13T16:54:06Z</time>
      </trkpt>
      <trkpt lat="43.1447140" lon="-1.1626630">
        <ele>250.9</ele>
        <time>2019-07-13T16:54:12Z</time>
      </trkpt>
      <trkpt lat="43.1447380" lon="-1.1627960">
        <ele>251.4</ele>
        <time>2019-07-13T16:54:20Z</time>
      </trkpt>
      <trkpt lat="43.1447790" lon="-1.1629130">
        <ele>251.8</ele>
        <time>2019-07-13T16:54:26Z</time>
      </trkpt>
      <trkpt lat="43.1448210" lon="-1.1630240">
        <ele>252.2</ele>
        <time>2019-07-13T16:54:31Z</time>
      </trkpt>
      <trkpt lat="43.1448520" lon="-1.1631450">
        <ele>252.6</ele>
        <time>2019-07-13T16:54:36Z</time>
      </trkpt>
      <trkpt lat="43.1448940" lon="-1.1632810">
        <ele>253.1</ele>
        <time>2019-07-13T16:54:41Z</time>
      </trkpt>
      <trkpt lat="43.1449320" lon="-1.1634240">
        <ele>253.4</ele>
        <time>2019-07-13T16:54:46Z</time>
      </trkpt>
      <trkpt lat="43.1449780" lon="-1.1635600">
        <ele>253.7</ele>
        <time>2019-07-13T16:54:51Z</time>
      </trkpt>
      <trkpt lat="43.1450090" lon="-1.1636790">
        <ele>254.0</ele>
        <time>2019-07-13T16:54:56Z</time>
      </trkpt>
      <trkpt lat="43.1450450" lon="-1.1637930">
        <ele>254.2</ele>
        <time>2019-07-13T16:55:02Z</time>
      </trkpt>
      <trkpt lat="43.1450730" lon="-1.1639260">
        <ele>254.5</ele>
        <time>2019-07-13T16:55:09Z</time>
      </trkpt>
      <trkpt lat="43.1451190" lon="-1.1640580">
        <ele>254.7</ele>
        <time>2019-07-13T16:55:16Z</time>
      </trkpt>
      <trkpt lat="43.1451120" lon="-1.1641910">
        <ele>254.5</ele>
        <time>2019-07-13T16:55:22Z</time>
      </trkpt>
      <trkpt lat="43.1450740" lon="-1.1643120">
        <ele>254.2</ele>
        <time>2019-07-13T16:55:27Z</time>
      </trkpt>
      <trkpt lat="43.1450360" lon="-1.1644450">
        <ele>254.1</ele>
        <time>2019-07-13T16:55:32Z</time>
      </trkpt>
      <trkpt lat="43.1449910" lon="-1.1645770">
        <ele>254.1</ele>
        <time>2019-07-13T16:55:37Z</time>
      </trkpt>
      <trkpt lat="43.1449470" lon="-1.1646980">
        <ele>253.9</ele>
        <time>2019-07-13T16:55:42Z</time>
      </trkpt>
      <trkpt lat="43.1449130" lon="-1.1648180">
        <ele>253.6</ele>
        <time>2019-07-13T16:55:46Z</time>
      </trkpt>
      <trkpt lat="43.1448840" lon="-1.1649670">
        <ele>253.3</ele>
        <time>2019-07-13T16:55:51Z</time>
      </trkpt>
      <trkpt lat="43.1448590" lon="-1.1651250">
        <ele>252.9</ele>
        <time>2019-07-13T16:55:55Z</time>
      </trkpt>
      <trkpt lat="43.1448290" lon="-1.1652720">
        <ele>252.4</ele>
        <time>2019-07-13T16:55:58Z</time>
      </trkpt>
      <trkpt lat="43.1448170" lon="-1.1654510">
        <ele>251.8</ele>
        <time>2019-07-13T16:56:01Z</time>
      </trkpt>
      <trkpt lat="43.1448060" lon="-1.1655900">
        <ele>251.3</ele>
        <time>2019-07-13T16:56:03Z</time>
      </trkpt>
      <trkpt lat="43.1447920" lon="-1.1657400">
        <ele>250.6</ele>
        <time>2019-07-13T16:56:05Z</time>
      </trkpt>
      <trkpt lat="43.1447850" lon="-1.1659000">
        <ele>249.7</ele>
        <time>2019-07-13T16:56:07Z</time>
      </trkpt>
      <trkpt lat="43.1447930" lon="-1.1660550">
        <ele>248.7</ele>
        <time>2019-07-13T16:56:09Z</time>
      </trkpt>
      <trkpt lat="43.1448120" lon="-1.1662110">
        <ele>247.6</ele>
        <time>2019-07-13T16:56:11Z</time>
      </trkpt>
      <trkpt lat="43.1448590" lon="-1.1663540">
        <ele>246.5</ele>
        <time>2019-07-13T16:56:13Z</time>
      </trkpt>
      <trkpt lat="43.1449410" lon="-1.1664590">
        <ele>245.2</ele>
        <time>2019-07-13T16:56:15Z</time>
      </trkpt>
      <trkpt lat="43.1450480" lon="-1.1665300">
        <ele>244.4</ele>
        <time>2019-07-13T16:56:17Z</time>
      </trkpt>
      <trkpt lat="43.1451740" lon="-1.1665770">
        <ele>243.9</ele>
        <time>2019-07-13T16:56:19Z</time>
      </trkpt>
      <trkpt lat="43.1453120" lon="-1.1666180">
        <ele>243.3</ele>
        <time>2019-07-13T16:56:21Z</time>
      </trkpt>
      <trkpt lat="43.1454440" lon="-1.1666700">
        <ele>243.0</ele>
        <time>2019-07-13T16:56:23Z</time>
      </trkpt>
      <trkpt lat="43.1455720" lon="-1.1667350">
        <ele>242.7</ele>
        <time>2019-07-13T16:56:25Z</time>
      </trkpt>
      <trkpt lat="43.1456840" lon="-1.1668400">
        <ele>242.6</ele>
        <time>2019-07-13T16:56:27Z</time>
      </trkpt>
      <trkpt lat="43.1457810" lon="-1.1669500">
        <ele>242.5</ele>
        <time>2019-07-13T16:56:29Z</time>
      </trkpt>
      <trkpt lat="43.1458650" lon="-1.1670510">
        <ele>242.5</ele>
        <time>2019-07-13T16:56:31Z</time>
      </trkpt>
      <trkpt lat="43.1459450" lon="-1.1671430">
        <ele>242.4</ele>
        <time>2019-07-13T16:56:33Z</time>
      </trkpt>
      <trkpt lat="43.1460230" lon="-1.1672280">
        <ele>242.3</ele>
        <time>2019-07-13T16:56:35Z</time>
      </trkpt>
      <trkpt lat="43.1460940" lon="-1.1673140">
        <ele>242.1</ele>
        <time>2019-07-13T16:56:37Z</time>
      </trkpt>
      <trkpt lat="43.1461690" lon="-1.1673970">
        <ele>241.8</ele>
        <time>2019-07-13T16:56:39Z</time>
      </trkpt>
      <trkpt lat="43.1462810" lon="-1.1675080">
        <ele>241.2</ele>
        <time>2019-07-13T16:56:42Z</time>
      </trkpt>
      <trkpt lat="43.1463630" lon="-1.1676000">
        <ele>240.4</ele>
        <time>2019-07-13T16:56:44Z</time>
      </trkpt>
      <trkpt lat="43.1464620" lon="-1.1677020">
        <ele>239.6</ele>
        <time>2019-07-13T16:56:46Z</time>
      </trkpt>
      <trkpt lat="43.1465730" lon="-1.1678280">
        <ele>239.0</ele>
        <time>2019-07-13T16:56:48Z</time>
      </trkpt>
      <trkpt lat="43.1466810" lon="-1.1679750">
        <ele>238.5</ele>
        <time>2019-07-13T16:56:50Z</time>
      </trkpt>
      <trkpt lat="43.1467630" lon="-1.1681470">
        <ele>238.3</ele>
        <time>2019-07-13T16:56:52Z</time>
      </trkpt>
      <trkpt lat="43.1468220" lon="-1.1683180">
        <ele>238.2</ele>
        <time>2019-07-13T16:56:54Z</time>
      </trkpt>
      <trkpt lat="43.1468660" lon="-1.1684580">
        <ele>238.3</ele>
        <time>2019-07-13T16:56:56Z</time>
      </trkpt>
      <trkpt lat="43.1469010" lon="-1.1685810">
        <ele>237.8</ele>
        <time>2019-07-13T16:56:58Z</time>
      </trkpt>
      <trkpt lat="43.1469450" lon="-1.1686990">
        <ele>237.5</ele>
        <time>2019-07-13T16:57:00Z</time>
      </trkpt>
      <trkpt lat="43.1470060" lon="-1.1688540">
        <ele>237.1</ele>
        <time>2019-07-13T16:57:03Z</time>
      </trkpt>
      <trkpt lat="43.1470640" lon="-1.1690090">
        <ele>236.8</ele>
        <time>2019-07-13T16:57:06Z</time>
      </trkpt>
      <trkpt lat="43.1471130" lon="-1.1691150">
        <ele>236.6</ele>
        <time>2019-07-13T16:57:08Z</time>
      </trkpt>
      <trkpt lat="43.1471710" lon="-1.1692220">
        <ele>236.4</ele>
        <time>2019-07-13T16:57:10Z</time>
      </trkpt>
      <trkpt lat="43.1472280" lon="-1.1693320">
        <ele>236.3</ele>
        <time>2019-07-13T16:57:12Z</time>
      </trkpt>
      <trkpt lat="43.1472950" lon="-1.1694360">
        <ele>236.1</ele>
        <time>2019-07-13T16:57:14Z</time>
      </trkpt>
      <trkpt lat="43.1473610" lon="-1.1695300">
        <ele>236.0</ele>
        <time>2019-07-13T16:57:16Z</time>
      </trkpt>
      <trkpt lat="43.1474250" lon="-1.1696260">
        <ele>236.0</ele>
        <time>2019-07-13T16:57:18Z</time>
      </trkpt>
      <trkpt lat="43.1475090" lon="-1.1697560">
        <ele>235.9</ele>
        <time>2019-07-13T16:57:21Z</time>
      </trkpt>
      <trkpt lat="43.1475930" lon="-1.1698800">
        <ele>235.9</ele>
        <time>2019-07-13T16:57:24Z</time>
      </trkpt>
      <trkpt lat="43.1476760" lon="-1.1700040">
        <ele>235.9</ele>
        <time>2019-07-13T16:57:27Z</time>
      </trkpt>
      <trkpt lat="43.1477520" lon="-1.1701270">
        <ele>235.9</ele>
        <time>2019-07-13T16:57:30Z</time>
      </trkpt>
      <trkpt lat="43.1478330" lon="-1.1702720">
        <ele>235.9</ele>
        <time>2019-07-13T16:57:33Z</time>
      </trkpt>
      <trkpt lat="43.1478850" lon="-1.1703800">
        <ele>235.9</ele>
        <time>2019-07-13T16:57:35Z</time>
      </trkpt>
      <trkpt lat="43.1479410" lon="-1.1704960">
        <ele>235.9</ele>
        <time>2019-07-13T16:57:37Z</time>
      </trkpt>
      <trkpt lat="43.1479970" lon="-1.1706220">
        <ele>235.8</ele>
        <time>2019-07-13T16:57:39Z</time>
      </trkpt>
      <trkpt lat="43.1480490" lon="-1.1707490">
        <ele>235.8</ele>
        <time>2019-07-13T16:57:41Z</time>
      </trkpt>
      <trkpt lat="43.1480990" lon="-1.1708750">
        <ele>235.7</ele>
        <time>2019-07-13T16:57:43Z</time>
      </trkpt>
      <trkpt lat="43.1481520" lon="-1.1709920">
        <ele>235.6</ele>
        <time>2019-07-13T16:57:45Z</time>
      </trkpt>
      <trkpt lat="43.1482130" lon="-1.1711010">
        <ele>235.5</ele>
        <time>2019-07-13T16:57:47Z</time>
      </trkpt>
      <trkpt lat="43.1482840" lon="-1.1711980">
        <ele>235.3</ele>
        <time>2019-07-13T16:57:49Z</time>
      </trkpt>
      <trkpt lat="43.1483580" lon="-1.1712790">
        <ele>235.1</ele>
        <time>2019-07-13T16:57:51Z</time>
      </trkpt>
      <trkpt lat="43.1484360" lon="-1.1713430">
        <ele>234.8</ele>
        <time>2019-07-13T16:57:53Z</time>
      </trkpt>
      <trkpt lat="43.1485170" lon="-1.1714060">
        <ele>234.6</ele>
        <time>2019-07-13T16:57:55Z</time>
      </trkpt>
      <trkpt lat="43.1486060" lon="-1.1714560">
        <ele>234.3</ele>
        <time>2019-07-13T16:57:57Z</time>
      </trkpt>
      <trkpt lat="43.1486920" lon="-1.1715050">
        <ele>234.0</ele>
        <time>2019-07-13T16:57:59Z</time>
      </trkpt>
      <trkpt lat="43.1487760" lon="-1.1715560">
        <ele>233.8</ele>
        <time>2019-07-13T16:58:01Z</time>
      </trkpt>
      <trkpt lat="43.1488650" lon="-1.1716080">
        <ele>233.7</ele>
        <time>2019-07-13T16:58:03Z</time>
      </trkpt>
      <trkpt lat="43.1489530" lon="-1.1716730">
        <ele>233.5</ele>
        <time>2019-07-13T16:58:05Z</time>
      </trkpt>
      <trkpt lat="43.1490400" lon="-1.1717480">
        <ele>233.4</ele>
        <time>2019-07-13T16:58:07Z</time>
      </trkpt>
      <trkpt lat="43.1491360" lon="-1.1718340">
        <ele>233.2</ele>
        <time>2019-07-13T16:58:09Z</time>
      </trkpt>
      <trkpt lat="43.1492340" lon="-1.1719210">
        <ele>233.0</ele>
        <time>2019-07-13T16:58:11Z</time>
      </trkpt>
      <trkpt lat="43.1493280" lon="-1.1720220">
        <ele>232.8</ele>
        <time>2019-07-13T16:58:13Z</time>
      </trkpt>
      <trkpt lat="43.1494170" lon="-1.1721280">
        <ele>232.6</ele>
        <time>2019-07-13T16:58:15Z</time>
      </trkpt>
      <trkpt lat="43.1495070" lon="-1.1722310">
        <ele>232.3</ele>
        <time>2019-07-13T16:58:17Z</time>
      </trkpt>
      <trkpt lat="43.1495890" lon="-1.1723380">
        <ele>232.0</ele>
        <time>2019-07-13T16:58:19Z</time>
      </trkpt>
      <trkpt lat="43.1496740" lon="-1.1724440">
        <ele>231.6</ele>
        <time>2019-07-13T16:58:21Z</time>
      </trkpt>
      <trkpt lat="43.1497550" lon="-1.1725570">
        <ele>231.1</ele>
        <time>2019-07-13T16:58:23Z</time>
      </trkpt>
      <trkpt lat="43.1498360" lon="-1.1726710">
        <ele>230.6</ele>
        <time>2019-07-13T16:58:25Z</time>
      </trkpt>
      <trkpt lat="43.1499160" lon="-1.1727720">
        <ele>230.3</ele>
        <time>2019-07-13T16:58:27Z</time>
      </trkpt>
      <trkpt lat="43.1499880" lon="-1.1728740">
        <ele>230.1</ele>
        <time>2019-07-13T16:58:29Z</time>
      </trkpt>
      <trkpt lat="43.1500580" lon="-1.1729870">
        <ele>230.0</ele>
        <time>2019-07-13T16:58:31Z</time>
      </trkpt>
      <trkpt lat="43.1501330" lon="-1.1731020">
        <ele>229.9</ele>
        <time>2019-07-13T16:58:33Z</time>
      </trkpt>
      <trkpt lat="43.1502180" lon="-1.1732130">
        <ele>229.9</ele>
        <time>2019-07-13T16:58:35Z</time>
      </trkpt>
      <trkpt lat="43.1503010" lon="-1.1733360">
        <ele>229.8</ele>
        <time>2019-07-13T16:58:37Z</time>
      </trkpt>
      <trkpt lat="43.1503860" lon="-1.1734520">
        <ele>229.8</ele>
        <time>2019-07-13T16:58:39Z</time>
      </trkpt>
      <trkpt lat="43.1504670" lon="-1.1735600">
        <ele>229.8</ele>
        <time>2019-07-13T16:58:41Z</time>
      </trkpt>
      <trkpt lat="43.1505430" lon="-1.1736730">
        <ele>229.8</ele>
        <time>2019-07-13T16:58:43Z</time>
      </trkpt>
      <trkpt lat="43.1506200" lon="-1.1737810">
        <ele>229.8</ele>
        <time>2019-07-13T16:58:45Z</time>
      </trkpt>
      <trkpt lat="43.1506870" lon="-1.1738980">
        <ele>229.8</ele>
        <time>2019-07-13T16:58:47Z</time>
      </trkpt>
      <trkpt lat="43.1507490" lon="-1.1740130">
        <ele>229.9</ele>
        <time>2019-07-13T16:58:49Z</time>
      </trkpt>
      <trkpt lat="43.1508030" lon="-1.1741280">
        <ele>229.9</ele>
        <time>2019-07-13T16:58:51Z</time>
      </trkpt>
      <trkpt lat="43.1508530" lon="-1.1742440">
        <ele>230.0</ele>
        <time>2019-07-13T16:58:53Z</time>
      </trkpt>
      <trkpt lat="43.1509000" lon="-1.1743600">
        <ele>230.2</ele>
        <time>2019-07-13T16:58:55Z</time>
      </trkpt>
      <trkpt lat="43.1509380" lon="-1.1744720">
        <ele>230.3</ele>
        <time>2019-07-13T16:58:57Z</time>
      </trkpt>
      <trkpt lat="43.1509860" lon="-1.1746310">
        <ele>230.5</ele>
        <time>2019-07-13T16:59:00Z</time>
      </trkpt>
      <trkpt lat="43.1510420" lon="-1.1747800">
        <ele>230.8</ele>
        <time>2019-07-13T16:59:03Z</time>
      </trkpt>
      <trkpt lat="43.1510900" lon="-1.1749190">
        <ele>231.0</ele>
        <time>2019-07-13T16:59:06Z</time>
      </trkpt>
      <trkpt lat="43.1511300" lon="-1.1750510">
        <ele>231.4</ele>
        <time>2019-07-13T16:59:09Z</time>
      </trkpt>
      <trkpt lat="43.1511720" lon="-1.1751700">
        <ele>231.9</ele>
        <time>2019-07-13T16:59:12Z</time>
      </trkpt>
      <trkpt lat="43.1512090" lon="-1.1752940">
        <ele>232.3</ele>
        <time>2019-07-13T16:59:15Z</time>
      </trkpt>
      <trkpt lat="43.1512470" lon="-1.1754450">
        <ele>232.9</ele>
        <time>2019-07-13T16:59:19Z</time>
      </trkpt>
      <trkpt lat="43.1512830" lon="-1.1755860">
        <ele>233.4</ele>
        <time>2019-07-13T16:59:23Z</time>
      </trkpt>
      <trkpt lat="43.1513060" lon="-1.1757220">
        <ele>234.0</ele>
        <time>2019-07-13T16:59:27Z</time>
      </trkpt>
      <trkpt lat="43.1513390" lon="-1.1758460">
        <ele>234.5</ele>
        <time>2019-07-13T16:59:31Z</time>
      </trkpt>
      <trkpt lat="43.1513630" lon="-1.1759940">
        <ele>235.2</ele>
        <time>2019-07-13T16:59:36Z</time>
      </trkpt>
      <trkpt lat="43.1513960" lon="-1.1761370">
        <ele>235.8</ele>
        <time>2019-07-13T16:59:41Z</time>
      </trkpt>
      <trkpt lat="43.1514350" lon="-1.1762550">
        <ele>236.4</ele>
        <time>2019-07-13T16:59:46Z</time>
      </trkpt>
      <trkpt lat="43.1514490" lon="-1.1763930">
        <ele>237.1</ele>
        <time>2019-07-13T16:59:52Z</time>
      </trkpt>
      <trkpt lat="43.1514880" lon="-1.1765250">
        <ele>237.8</ele>
        <time>2019-07-13T16:59:59Z</time>
      </trkpt>
      <trkpt lat="43.1515160" lon="-1.1766500">
        <ele>238.4</ele>
        <time>2019-07-13T17:00:05Z</time>
      </trkpt>
      <trkpt lat="43.1515400" lon="-1.1767730">
        <ele>239.1</ele>
        <time>2019-07-13T17:00:11Z</time>
      </trkpt>
      <trkpt lat="43.1515740" lon="-1.1769040">
        <ele>239.8</ele>
        <time>2019-07-13T17:00:18Z</time>
      </trkpt>
      <trkpt lat="43.1516030" lon="-1.1770300">
        <ele>240.4</ele>
        <time>2019-07-13T17:00:25Z</time>
      </trkpt>
      <trkpt lat="43.1516290" lon="-1.1771590">
        <ele>240.9</ele>
        <time>2019-07-13T17:00:33Z</time>
      </trkpt>
      <trkpt lat="43.1516470" lon="-1.1772840">
        <ele>241.4</ele>
        <time>2019-07-13T17:00:41Z</time>
      </trkpt>
      <trkpt lat="43.1516770" lon="-1.1774030">
        <ele>241.8</ele>
        <time>2019-07-13T17:00:48Z</time>
      </trkpt>
      <trkpt lat="43.1517050" lon="-1.1775360">
        <ele>242.3</ele>
        <time>2019-07-13T17:00:56Z</time>
      </trkpt>
      <trkpt lat="43.1517540" lon="-1.1776610">
        <ele>242.7</ele>
        <time>2019-07-13T17:01:04Z</time>
      </trkpt>
      <trkpt lat="43.1518070" lon="-1.1777780">
        <ele>243.1</ele>
        <time>2019-07-13T17:01:11Z</time>
      </trkpt>
      <trkpt lat="43.1518670" lon="-1.1778730">
        <ele>243.4</ele>
        <time>2019-07-13T17:01:17Z</time>
      </trkpt>
      <trkpt lat="43.1519300" lon="-1.1779650">
        <ele>243.7</ele>
        <time>2019-07-13T17:01:23Z</time>
      </trkpt>
      <trkpt lat="43.1520030" lon="-1.1780440">
        <ele>244.0</ele>
        <time>2019-07-13T17:01:29Z</time>
      </trkpt>
      <trkpt lat="43.1520720" lon="-1.1781310">
        <ele>244.2</ele>
        <time>2019-07-13T17:01:35Z</time>
      </trkpt>
      <trkpt lat="43.1521560" lon="-1.1782100">
        <ele>244.4</ele>
        <time>2019-07-13T17:01:41Z</time>
      </trkpt>
      <trkpt lat="43.1522340" lon="-1.1782990">
        <ele>244.6</ele>
        <time>2019-07-13T17:01:47Z</time>
      </trkpt>
      <trkpt lat="43.1523080" lon="-1.1783810">
        <ele>244.6</ele>
        <time>2019-07-13T17:01:52Z</time>
      </trkpt>
      <trkpt lat="43.1523850" lon="-1.1784850">
        <ele>244.5</ele>
        <time>2019-07-13T17:01:57Z</time>
      </trkpt>
      <trkpt lat="43.1524630" lon="-1.1785750">
        <ele>244.2</ele>
        <time>2019-07-13T17:02:01Z</time>
      </trkpt>
      <trkpt lat="43.1525540" lon="-1.1786800">
        <ele>243.7</ele>
        <time>2019-07-13T17:02:05Z</time>
      </trkpt>
      <trkpt lat="43.1526430" lon="-1.1787730">
        <ele>243.3</ele>
        <time>2019-07-13T17:02:08Z</time>
      </trkpt>
      <trkpt lat="43.1527530" lon="-1.1788850">
        <ele>242.5</ele>
        <time>2019-07-13T17:02:11Z</time>
      </trkpt>
      <trkpt lat="43.1528350" lon="-1.1789840">
        <ele>242.0</ele>
        <time>2019-07-13T17:02:13Z</time>
      </trkpt>
      <trkpt lat="43.1529230" lon="-1.1790910">
        <ele>241.4</ele>
        <time>2019-07-13T17:02:15Z</time>
      </trkpt>
      <trkpt lat="43.1530180" lon="-1.1791980">
        <ele>240.8</ele>
        <time>2019-07-13T17:02:17Z</time>
      </trkpt>
      <trkpt lat="43.1531180" lon="-1.1793180">
        <ele>240.3</ele>
        <time>2019-07-13T17:02:19Z</time>
      </trkpt>
      <trkpt lat="43.1532260" lon="-1.1794390">
        <ele>239.7</ele>
        <time>2019-07-13T17:02:21Z</time>
      </trkpt>
      <trkpt lat="43.1533410" lon="-1.1795580">
        <ele>239.1</ele>
        <time>2019-07-13T17:02:23Z</time>
      </trkpt>
      <trkpt lat="43.1534600" lon="-1.1796870">
        <ele>238.4</ele>
        <time>2019-07-13T17:02:25Z</time>
      </trkpt>
      <trkpt lat="43.1535820" lon="-1.1798180">
        <ele>237.5</ele>
        <time>2019-07-13T17:02:27Z</time>
      </trkpt>
      <trkpt lat="43.1537000" lon="-1.1799710">
        <ele>236.8</ele>
        <time>2019-07-13T17:02:29Z</time>
      </trkpt>
      <trkpt lat="43.1538260" lon="-1.1801140">
        <ele>235.9</ele>
        <time>2019-07-13T17:02:31Z</time>
      </trkpt>
      <trkpt lat="43.1539420" lon="-1.1802490">
        <ele>235.1</ele>
        <time>2019-07-13T17:02:33Z</time>
      </trkpt>
      <trkpt lat="43.1540410" lon="-1.1803980">
        <ele>234.4</ele>
        <time>2019-07-13T17:02:35Z</time>
      </trkpt>
      <trkpt lat="43.1541260" lon="-1.1805610">
        <ele>233.7</ele>
        <time>2019-07-13T17:02:37Z</time>
      </trkpt>
      <trkpt lat="43.1541920" lon="-1.1807360">
        <ele>233.2</ele>
        <time>2019-07-13T17:02:39Z</time>
      </trkpt>
      <trkpt lat="43.1542380" lon="-1.1809220">
        <ele>232.8</ele>
        <time>2019-07-13T17:02:41Z</time>
      </trkpt>
      <trkpt lat="43.1542790" lon="-1.1811340">
        <ele>232.4</ele>
        <time>2019-07-13T17:02:43Z</time>
      </trkpt>
      <trkpt lat="43.1543170" lon="-1.1813320">
        <ele>232.1</ele>
        <time>2019-07-13T17:02:45Z</time>
      </trkpt>
      <trkpt lat="43.1543510" lon="-1.1815270">
        <ele>231.8</ele>
        <time>2019-07-13T17:02:47Z</time>
      </trkpt>
      <trkpt lat="43.1543850" lon="-1.1817120">
        <ele>231.5</ele>
        <time>2019-07-13T17:02:49Z</time>
      </trkpt>
      <trkpt lat="43.1544190" lon="-1.1818960">
        <ele>231.2</ele>
        <time>2019-07-13T17:02:51Z</time>
      </trkpt>
      <trkpt lat="43.1544490" lon="-1.1820730">
        <ele>230.9</ele>
        <time>2019-07-13T17:02:53Z</time>
      </trkpt>
      <trkpt lat="43.1544810" lon="-1.1822540">
        <ele>230.5</ele>
        <time>2019-07-13T17:02:55Z</time>
      </trkpt>
      <trkpt lat="43.1545150" lon="-1.1824190">
        <ele>230.2</ele>
        <time>2019-07-13T17:02:57Z</time>
      </trkpt>
      <trkpt lat="43.1545510" lon="-1.1825720">
        <ele>229.8</ele>
        <time>2019-07-13T17:02:59Z</time>
      </trkpt>
      <trkpt lat="43.1545860" lon="-1.1827440">
        <ele>229.5</ele>
        <time>2019-07-13T17:03:01Z</time>
      </trkpt>
      <trkpt lat="43.1546240" lon="-1.1829090">
        <ele>229.0</ele>
        <time>2019-07-13T17:03:03Z</time>
      </trkpt>
      <trkpt lat="43.1546610" lon="-1.1830710">
        <ele>228.6</ele>
        <time>2019-07-13T17:03:05Z</time>
      </trkpt>
      <trkpt lat="43.1546990" lon="-1.1832350">
        <ele>228.3</ele>
        <time>2019-07-13T17:03:07Z</time>
      </trkpt>
      <trkpt lat="43.1547280" lon="-1.1834080">
        <ele>228.0</ele>
        <time>2019-07-13T17:03:09Z</time>
      </trkpt>
      <trkpt lat="43.1547620" lon="-1.1835800">
        <ele>227.6</ele>
        <time>2019-07-13T17:03:11Z</time>
      </trkpt>
      <trkpt lat="43.1547960" lon="-1.1837550">
        <ele>227.2</ele>
        <time>2019-07-13T17:03:13Z</time>
      </trkpt>
      <trkpt lat="43.1548290" lon="-1.1839170">
        <ele>226.7</ele>
        <time>2019-07-13T17:03:15Z</time>
      </trkpt>
      <trkpt lat="43.1548600" lon="-1.1840760">
        <ele>226.3</ele>
        <time>2019-07-13T17:03:17Z</time>
      </trkpt>
      <trkpt lat="43.1548920" lon="-1.1842370">
        <ele>225.9</ele>
        <time>2019-07-13T17:03:19Z</time>
      </trkpt>
      <trkpt lat="43.1549250" lon="-1.1843950">
        <ele>225.4</ele>
        <time>2019-07-13T17:03:21Z</time>
      </trkpt>
      <trkpt lat="43.1549600" lon="-1.1845560">
        <ele>224.8</ele>
        <time>2019-07-13T17:03:23Z</time>
      </trkpt>
      <trkpt lat="43.1549990" lon="-1.1847270">
        <ele>223.9</ele>
        <time>2019-07-13T17:03:25Z</time>
      </trkpt>
      <trkpt lat="43.1550520" lon="-1.1849130">
        <ele>223.2</ele>
        <time>2019-07-13T17:03:27Z</time>
      </trkpt>
      <trkpt lat="43.1551170" lon="-1.1850990">
        <ele>222.3</ele>
        <time>2019-07-13T17:03:29Z</time>
      </trkpt>
      <trkpt lat="43.1552050" lon="-1.1852800">
        <ele>221.4</ele>
        <time>2019-07-13T17:03:31Z</time>
      </trkpt>
      <trkpt lat="43.1553060" lon="-1.1854420">
        <ele>220.4</ele>
        <time>2019-07-13T17:03:33Z</time>
      </trkpt>
      <trkpt lat="43.1554080" lon="-1.1855740">
        <ele>219.4</ele>
        <time>2019-07-13T17:03:35Z</time>
      </trkpt>
      <trkpt lat="43.1555130" lon="-1.1856980">
        <ele>218.2</ele>
        <time>2019-07-13T17:03:37Z</time>
      </trkpt>
      <trkpt lat="43.1556170" lon="-1.1858130">
        <ele>217.0</ele>
        <time>2019-07-13T17:03:39Z</time>
      </trkpt>
      <trkpt lat="43.1557230" lon="-1.1859200">
        <ele>215.7</ele>
        <time>2019-07-13T17:03:41Z</time>
      </trkpt>
      <trkpt lat="43.1558270" lon="-1.1860250">
        <ele>214.4</ele>
        <time>2019-07-13T17:03:43Z</time>
      </trkpt>
      <trkpt lat="43.1559260" lon="-1.1861310">
        <ele>213.1</ele>
        <time>2019-07-13T17:03:45Z</time>
      </trkpt>
      <trkpt lat="43.1560220" lon="-1.1862330">
        <ele>212.3</ele>
        <time>2019-07-13T17:03:47Z</time>
      </trkpt>
      <trkpt lat="43.1561210" lon="-1.1863320">
        <ele>211.4</ele>
        <time>2019-07-13T17:03:49Z</time>
      </trkpt>
      <trkpt lat="43.1562260" lon="-1.1864280">
        <ele>211.0</ele>
        <time>2019-07-13T17:03:51Z</time>
      </trkpt>
      <trkpt lat="43.1563350" lon="-1.1865390">
        <ele>210.9</ele>
        <time>2019-07-13T17:03:53Z</time>
      </trkpt>
      <trkpt lat="43.1564460" lon="-1.1866590">
        <ele>210.8</ele>
        <time>2019-07-13T17:03:55Z</time>
      </trkpt>
      <trkpt lat="43.1565640" lon="-1.1867750">
        <ele>210.7</ele>
        <time>2019-07-13T17:03:57Z</time>
      </trkpt>
      <trkpt lat="43.1566800" lon="-1.1868990">
        <ele>210.7</ele>
        <time>2019-07-13T17:03:59Z</time>
      </trkpt>
      <trkpt lat="43.1567940" lon="-1.1870150">
        <ele>210.6</ele>
        <time>2019-07-13T17:04:01Z</time>
      </trkpt>
      <trkpt lat="43.1569020" lon="-1.1871310">
        <ele>210.5</ele>
        <time>2019-07-13T17:04:03Z</time>
      </trkpt>
      <trkpt lat="43.1570080" lon="-1.1872380">
        <ele>210.4</ele>
        <time>2019-07-13T17:04:05Z</time>
      </trkpt>
      <trkpt lat="43.1571080" lon="-1.1873450">
        <ele>210.4</ele>
        <time>2019-07-13T17:04:07Z</time>
      </trkpt>
      <trkpt lat="43.1572060" lon="-1.1874460">
        <ele>210.3</ele>
        <time>2019-07-13T17:04:09Z</time>
      </trkpt>
      <trkpt lat="43.1573020" lon="-1.1875420">
        <ele>210.3</ele>
        <time>2019-07-13T17:04:11Z</time>
      </trkpt>
      <trkpt lat="43.1573950" lon="-1.1876350">
        <ele>210.4</ele>
        <time>2019-07-13T17:04:13Z</time>
      </trkpt>
      <trkpt lat="43.1574870" lon="-1.1877140">
        <ele>210.5</ele>
        <time>2019-07-13T17:04:15Z</time>
      </trkpt>
      <trkpt lat="43.1575710" lon="-1.1877970">
        <ele>210.5</ele>
        <time>2019-07-13T17:04:17Z</time>
      </trkpt>
      <trkpt lat="43.1576600" lon="-1.1878730">
        <ele>210.5</ele>
        <time>2019-07-13T17:04:19Z</time>
      </trkpt>
      <trkpt lat="43.1577460" lon="-1.1879510">
        <ele>210.5</ele>
        <time>2019-07-13T17:04:21Z</time>
      </trkpt>
      <trkpt lat="43.1578280" lon="-1.1880250">
        <ele>210.5</ele>
        <time>2019-07-13T17:04:23Z</time>
      </trkpt>
      <trkpt lat="43.1579080" lon="-1.1880960">
        <ele>210.5</ele>
        <time>2019-07-13T17:04:25Z</time>
      </trkpt>
      <trkpt lat="43.1579880" lon="-1.1881690">
        <ele>210.5</ele>
        <time>2019-07-13T17:04:27Z</time>
      </trkpt>
      <trkpt lat="43.1580690" lon="-1.1882450">
        <ele>210.6</ele>
        <time>2019-07-13T17:04:29Z</time>
      </trkpt>
      <trkpt lat="43.1581540" lon="-1.1883250">
        <ele>210.6</ele>
        <time>2019-07-13T17:04:31Z</time>
      </trkpt>
      <trkpt lat="43.1582440" lon="-1.1884140">
        <ele>210.7</ele>
        <time>2019-07-13T17:04:33Z</time>
      </trkpt>
      <trkpt lat="43.1583440" lon="-1.1884990">
        <ele>210.7</ele>
        <time>2019-07-13T17:04:35Z</time>
      </trkpt>
      <trkpt lat="43.1584400" lon="-1.1885860">
        <ele>210.7</ele>
        <time>2019-07-13T17:04:37Z</time>
      </trkpt>
      <trkpt lat="43.1585410" lon="-1.1886720">
        <ele>210.6</ele>
        <time>2019-07-13T17:04:39Z</time>
      </trkpt>
      <trkpt lat="43.1586400" lon="-1.1887580">
        <ele>210.6</ele>
        <time>2019-07-13T17:04:41Z</time>
      </trkpt>
      <trkpt lat="43.1587390" lon="-1.1888460">
        <ele>210.6</ele>
        <time>2019-07-13T17:04:43Z</time>
      </trkpt>
      <trkpt lat="43.1588380" lon="-1.1889280">
        <ele>210.6</ele>
        <time>2019-07-13T17:04:45Z</time>
      </trkpt>
      <trkpt lat="43.1589340" lon="-1.1890140">
        <ele>210.5</ele>
        <time>2019-07-13T17:04:47Z</time>
      </trkpt>
      <trkpt lat="43.1590280" lon="-1.1891010">
        <ele>210.3</ele>
        <time>2019-07-13T17:04:49Z</time>
      </trkpt>
      <trkpt lat="43.1591230" lon="-1.1891800">
        <ele>210.2</ele>
        <time>2019-07-13T17:04:51Z</time>
      </trkpt>
      <trkpt lat="43.1592170" lon="-1.1892590">
        <ele>210.1</ele>
        <time>2019-07-13T17:04:53Z</time>
      </trkpt>
      <trkpt lat="43.1593060" lon="-1.1893390">
        <ele>210.0</ele>
        <time>2019-07-13T17:04:55Z</time>
      </trkpt>
      <trkpt lat="43.1593940" lon="-1.1894160">
        <ele>209.9</ele>
        <time>2019-07-13T17:04:57Z</time>
      </trkpt>
      <trkpt lat="43.1594770" lon="-1.1894910">
        <ele>209.7</ele>
        <time>2019-07-13T17:04:59Z</time>
      </trkpt>
      <trkpt lat="43.1595510" lon="-1.1895650">
        <ele>209.6</ele>
        <time>2019-07-13T17:05:01Z</time>
      </trkpt>
      <trkpt lat="43.1596280" lon="-1.1896290">
        <ele>209.5</ele>
        <time>2019-07-13T17:05:03Z</time>
      </trkpt>
      <trkpt lat="43.1597120" lon="-1.1896850">
        <ele>209.3</ele>
        <time>2019-07-13T17:05:05Z</time>
      </trkpt>
      <trkpt lat="43.1597930" lon="-1.1897430">
        <ele>209.2</ele>
        <time>2019-07-13T17:05:07Z</time>
      </trkpt>
      <trkpt lat="43.1598760" lon="-1.1898050">
        <ele>209.1</ele>
        <time>2019-07-13T17:05:09Z</time>
      </trkpt>
      <trkpt lat="43.1599470" lon="-1.1898840">
        <ele>209.0</ele>
        <time>2019-07-13T17:05:11Z</time>
      </trkpt>
      <trkpt lat="43.1600470" lon="-1.1900040">
        <ele>208.9</ele>
        <time>2019-07-13T17:05:14Z</time>
      </trkpt>
      <trkpt lat="43.1601510" lon="-1.1900990">
        <ele>208.9</ele>
        <time>2019-07-13T17:05:17Z</time>
      </trkpt>
      <trkpt lat="43.1602500" lon="-1.1901870">
        <ele>208.8</ele>
        <time>2019-07-13T17:05:20Z</time>
      </trkpt>
      <trkpt lat="43.1603420" lon="-1.1902730">
        <ele>208.9</ele>
        <time>2019-07-13T17:05:23Z</time>
      </trkpt>
      <trkpt lat="43.1604310" lon="-1.1903530">
        <ele>208.9</ele>
        <time>2019-07-13T17:05:26Z</time>
      </trkpt>
      <trkpt lat="43.1605180" lon="-1.1904320">
        <ele>208.8</ele>
        <time>2019-07-13T17:05:29Z</time>
      </trkpt>
      <trkpt lat="43.1606040" lon="-1.1905080">
        <ele>208.8</ele>
        <time>2019-07-13T17:05:32Z</time>
      </trkpt>
      <trkpt lat="43.1606990" lon="-1.1905800">
        <ele>208.8</ele>
        <time>2019-07-13T17:05:35Z</time>
      </trkpt>
      <trkpt lat="43.1608010" lon="-1.1906710">
        <ele>208.8</ele>
        <time>2019-07-13T17:05:38Z</time>
      </trkpt>
      <trkpt lat="43.1609110" lon="-1.1907820">
        <ele>208.8</ele>
        <time>2019-07-13T17:05:41Z</time>
      </trkpt>
      <trkpt lat="43.1609910" lon="-1.1908600">
        <ele>208.8</ele>
        <time>2019-07-13T17:05:43Z</time>
      </trkpt>
      <trkpt lat="43.1610740" lon="-1.1909360">
        <ele>208.8</ele>
        <time>2019-07-13T17:05:45Z</time>
      </trkpt>
      <trkpt lat="43.1611670" lon="-1.1910180">
        <ele>208.7</ele>
        <time>2019-07-13T17:05:47Z</time>
      </trkpt>
      <trkpt lat="43.1612630" lon="-1.1911060">
        <ele>208.6</ele>
        <time>2019-07-13T17:05:49Z</time>
      </trkpt>
      <trkpt lat="43.1613600" lon="-1.1911950">
        <ele>208.4</ele>
        <time>2019-07-13T17:05:51Z</time>
      </trkpt>
      <trkpt lat="43.1614600" lon="-1.1912840">
        <ele>208.3</ele>
        <time>2019-07-13T17:05:53Z</time>
      </trkpt>
      <trkpt lat="43.1615580" lon="-1.1913770">
        <ele>208.2</ele>
        <time>2019-07-13T17:05:55Z</time>
      </trkpt>
      <trkpt lat="43.1616570" lon="-1.1914630">
        <ele>208.1</ele>
        <time>2019-07-13T17:05:57Z</time>
      </trkpt>
      <trkpt lat="43.1617500" lon="-1.1915480">
        <ele>208.0</ele>
        <time>2019-07-13T17:05:59Z</time>
      </trkpt>
      <trkpt lat="43.1618410" lon="-1.1916310">
        <ele>208.0</ele>
        <time>2019-07-13T17:06:01Z</time>
      </trkpt>
      <trkpt lat="43.1619310" lon="-1.1917140">
        <ele>208.0</ele>
        <time>2019-07-13T17:06:03Z</time>
      </trkpt>
      <trkpt lat="43.1620210" lon="-1.1917900">
        <ele>208.0</ele>
        <time>2019-07-13T17:06:05Z</time>
      </trkpt>
      <trkpt lat="43.1621080" lon="-1.1918660">
        <ele>208.0</ele>
        <time>2019-07-13T17:06:07Z</time>
      </trkpt>
      <trkpt lat="43.1621880" lon="-1.1919420">
        <ele>207.9</ele>
        <time>2019-07-13T17:06:09Z</time>
      </trkpt>
      <trkpt lat="43.1623020" lon="-1.1920350">
        <ele>208.0</ele>
        <time>2019-07-13T17:06:12Z</time>
      </trkpt>
      <trkpt lat="43.1624090" lon="-1.1921110">
        <ele>208.1</ele>
        <time>2019-07-13T17:06:15Z</time>
      </trkpt>
      <trkpt lat="43.1625200" lon="-1.1921830">
        <ele>207.8</ele>
        <time>2019-07-13T17:06:18Z</time>
      </trkpt>
      <trkpt lat="43.1626340" lon="-1.1922580">
        <ele>207.5</ele>
        <time>2019-07-13T17:06:21Z</time>
      </trkpt>
      <trkpt lat="43.1627460" lon="-1.1923310">
        <ele>207.3</ele>
        <time>2019-07-13T17:06:24Z</time>
      </trkpt>
      <trkpt lat="43.1628580" lon="-1.1924000">
        <ele>207.1</ele>
        <time>2019-07-13T17:06:27Z</time>
      </trkpt>
      <trkpt lat="43.1629710" lon="-1.1924800">
        <ele>206.9</ele>
        <time>2019-07-13T17:06:30Z</time>
      </trkpt>
      <trkpt lat="43.1630950" lon="-1.1925540">
        <ele>206.8</ele>
        <time>2019-07-13T17:06:33Z</time>
      </trkpt>
      <trkpt lat="43.1631770" lon="-1.1926140">
        <ele>206.6</ele>
        <time>2019-07-13T17:06:35Z</time>
      </trkpt>
      <trkpt lat="43.1632640" lon="-1.1926730">
        <ele>206.5</ele>
        <time>2019-07-13T17:06:37Z</time>
      </trkpt>
      <trkpt lat="43.1633590" lon="-1.1927360">
        <ele>206.2</ele>
        <time>2019-07-13T17:06:39Z</time>
      </trkpt>
      <trkpt lat="43.1634630" lon="-1.1928030">
        <ele>205.9</ele>
        <time>2019-07-13T17:06:41Z</time>
      </trkpt>
      <trkpt lat="43.1635630" lon="-1.1928740">
        <ele>205.5</ele>
        <time>2019-07-13T17:06:43Z</time>
      </trkpt>
      <trkpt lat="43.1636750" lon="-1.1929530">
        <ele>205.0</ele>
        <time>2019-07-13T17:06:45Z</time>
      </trkpt>
      <trkpt lat="43.1637930" lon="-1.1930290">
        <ele>204.5</ele>
        <time>2019-07-13T17:06:47Z</time>
      </trkpt>
      <trkpt lat="43.1639190" lon="-1.1931080">
        <ele>203.9</ele>
        <time>2019-07-13T17:06:49Z</time>
      </trkpt>
      <trkpt lat="43.1640500" lon="-1.1931880">
        <ele>203.3</ele>
        <time>2019-07-13T17:06:51Z</time>
      </trkpt>
      <trkpt lat="43.1641790" lon="-1.1932670">
        <ele>202.8</ele>
        <time>2019-07-13T17:06:53Z</time>
      </trkpt>
      <trkpt lat="43.1643010" lon="-1.1933410">
        <ele>202.5</ele>
        <time>2019-07-13T17:06:55Z</time>
      </trkpt>
      <trkpt lat="43.1644120" lon="-1.1934140">
        <ele>202.5</ele>
        <time>2019-07-13T17:06:57Z</time>
      </trkpt>
      <trkpt lat="43.1645190" lon="-1.1934740">
        <ele>202.7</ele>
        <time>2019-07-13T17:06:59Z</time>
      </trkpt>
      <trkpt lat="43.1646070" lon="-1.1935270">
        <ele>202.9</ele>
        <time>2019-07-13T17:07:01Z</time>
      </trkpt>
      <trkpt lat="43.1647220" lon="-1.1935920">
        <ele>203.3</ele>
        <time>2019-07-13T17:07:04Z</time>
      </trkpt>
      <trkpt lat="43.1648010" lon="-1.1936520">
        <ele>203.5</ele>
        <time>2019-07-13T17:07:07Z</time>
      </trkpt>
      <trkpt lat="43.1649040" lon="-1.1937010">
        <ele>203.9</ele>
        <time>2019-07-13T17:07:11Z</time>
      </trkpt>
      <trkpt lat="43.1649980" lon="-1.1937600">
        <ele>204.2</ele>
        <time>2019-07-13T17:07:15Z</time>
      </trkpt>
      <trkpt lat="43.1651090" lon="-1.1937930">
        <ele>204.4</ele>
        <time>2019-07-13T17:07:19Z</time>
      </trkpt>
      <trkpt lat="43.1652080" lon="-1.1938300">
        <ele>204.4</ele>
        <time>2019-07-13T17:07:23Z</time>
      </trkpt>
      <trkpt lat="43.1652980" lon="-1.1938800">
        <ele>204.4</ele>
        <time>2019-07-13T17:07:27Z</time>
      </trkpt>
      <trkpt lat="43.1653600" lon="-1.1939970">
        <ele>204.3</ele>
        <time>2019-07-13T17:07:32Z</time>
      </trkpt>
      <trkpt lat="43.1653610" lon="-1.1941280">
        <ele>204.2</ele>
        <time>2019-07-13T17:07:37Z</time>
      </trkpt>
      <trkpt lat="43.1653510" lon="-1.1942710">
        <ele>204.2</ele>
        <time>2019-07-13T17:07:42Z</time>
      </trkpt>
      <trkpt lat="43.1653350" lon="-1.1943920">
        <ele>204.2</ele>
        <time>2019-07-13T17:07:48Z</time>
      </trkpt>
      <trkpt lat="43.1653060" lon="-1.1944070">
        <ele>204.2</ele>
        <time>2019-07-13T17:07:55Z</time>
      </trkpt>
      <trkpt lat="43.1653290" lon="-1.1945450">
        <ele>204.2</ele>
        <time>2019-07-13T17:28:26Z</time>
      </trkpt>
      <trkpt lat="43.1653240" lon="-1.1946760">
        <ele>204.2</ele>
        <time>2019-07-13T17:28:30Z</time>
      </trkpt>
      <trkpt lat="43.1652970" lon="-1.1947950">
        <ele>204.3</ele>
        <time>2019-07-13T17:28:34Z</time>
      </trkpt>
      <trkpt lat="43.1652790" lon="-1.1949230">
        <ele>204.4</ele>
        <time>2019-07-13T17:28:39Z</time>
      </trkpt>
      <trkpt lat="43.1652490" lon="-1.1950720">
        <ele>204.6</ele>
        <time>2019-07-13T17:28:44Z</time>
      </trkpt>
      <trkpt lat="43.1652260" lon="-1.1952230">
        <ele>204.6</ele>
        <time>2019-07-13T17:28:49Z</time>
      </trkpt>
      <trkpt lat="43.1652030" lon="-1.1953460">
        <ele>204.6</ele>
        <time>2019-07-13T17:28:53Z</time>
      </trkpt>
      <trkpt lat="43.1651780" lon="-1.1954740">
        <ele>204.6</ele>
        <time>2019-07-13T17:28:57Z</time>
      </trkpt>
      <trkpt lat="43.1651500" lon="-1.1956240">
        <ele>204.6</ele>
        <time>2019-07-13T17:29:01Z</time>
      </trkpt>
      <trkpt lat="43.1651290" lon="-1.1957460">
        <ele>204.6</ele>
        <time>2019-07-13T17:29:04Z</time>
      </trkpt>
      <trkpt lat="43.1651250" lon="-1.1958760">
        <ele>204.5</ele>
        <time>2019-07-13T17:29:07Z</time>
      </trkpt>
      <trkpt lat="43.1651380" lon="-1.1960070">
        <ele>204.4</ele>
        <time>2019-07-13T17:29:10Z</time>
      </trkpt>
      <trkpt lat="43.1651470" lon="-1.1961410">
        <ele>204.2</ele>
        <time>2019-07-13T17:29:13Z</time>
      </trkpt>
      <trkpt lat="43.1651790" lon="-1.1962680">
        <ele>203.8</ele>
        <time>2019-07-13T17:29:16Z</time>
      </trkpt>
      <trkpt lat="43.1652040" lon="-1.1963930">
        <ele>203.3</ele>
        <time>2019-07-13T17:29:19Z</time>
      </trkpt>
      <trkpt lat="43.1652330" lon="-1.1965280">
        <ele>202.8</ele>
        <time>2019-07-13T17:29:22Z</time>
      </trkpt>
      <trkpt lat="43.1652640" lon="-1.1966810">
        <ele>202.2</ele>
        <time>2019-07-13T17:29:25Z</time>
      </trkpt>
      <trkpt lat="43.1652750" lon="-1.1968120">
        <ele>201.5</ele>
        <time>2019-07-13T17:29:27Z</time>
      </trkpt>
      <trkpt lat="43.1652800" lon="-1.1969480">
        <ele>200.9</ele>
        <time>2019-07-13T17:29:29Z</time>
      </trkpt>
      <trkpt lat="43.1652890" lon="-1.1970900">
        <ele>200.4</ele>
        <time>2019-07-13T17:29:31Z</time>
      </trkpt>
      <trkpt lat="43.1653050" lon="-1.1972330">
        <ele>200.0</ele>
        <time>2019-07-13T17:29:33Z</time>
      </trkpt>
      <trkpt lat="43.1653180" lon="-1.1973730">
        <ele>199.4</ele>
        <time>2019-07-13T17:29:35Z</time>
      </trkpt>
      <trkpt lat="43.1653360" lon="-1.1975170">
        <ele>199.0</ele>
        <time>2019-07-13T17:29:37Z</time>
      </trkpt>
      <trkpt lat="43.1653600" lon="-1.1976670">
        <ele>198.7</ele>
        <time>2019-07-13T17:29:39Z</time>
      </trkpt>
      <trkpt lat="43.1653790" lon="-1.1978220">
        <ele>198.2</ele>
        <time>2019-07-13T17:29:41Z</time>
      </trkpt>
      <trkpt lat="43.1653940" lon="-1.1979790">
        <ele>197.6</ele>
        <time>2019-07-13T17:29:43Z</time>
      </trkpt>
      <trkpt lat="43.1654110" lon="-1.1981380">
        <ele>197.2</ele>
        <time>2019-07-13T17:29:45Z</time>
      </trkpt>
      <trkpt lat="43.1654290" lon="-1.1983000">
        <ele>196.8</ele>
        <time>2019-07-13T17:29:47Z</time>
      </trkpt>
      <trkpt lat="43.1654480" lon="-1.1984690">
        <ele>196.6</ele>
        <time>2019-07-13T17:29:49Z</time>
      </trkpt>
      <trkpt lat="43.1654660" lon="-1.1986440">
        <ele>196.3</ele>
        <time>2019-07-13T17:29:51Z</time>
      </trkpt>
      <trkpt lat="43.1654860" lon="-1.1988200">
        <ele>196.0</ele>
        <time>2019-07-13T17:29:53Z</time>
      </trkpt>
      <trkpt lat="43.1655060" lon="-1.1990040">
        <ele>195.8</ele>
        <time>2019-07-13T17:29:55Z</time>
      </trkpt>
      <trkpt lat="43.1655240" lon="-1.1991920">
        <ele>195.6</ele>
        <time>2019-07-13T17:29:57Z</time>
      </trkpt>
      <trkpt lat="43.1655440" lon="-1.1993850">
        <ele>195.3</ele>
        <time>2019-07-13T17:29:59Z</time>
      </trkpt>
      <trkpt lat="43.1655620" lon="-1.1995840">
        <ele>195.1</ele>
        <time>2019-07-13T17:30:01Z</time>
      </trkpt>
      <trkpt lat="43.1655870" lon="-1.1997760">
        <ele>194.8</ele>
        <time>2019-07-13T17:30:03Z</time>
      </trkpt>
      <trkpt lat="43.1656110" lon="-1.1999680">
        <ele>194.5</ele>
        <time>2019-07-13T17:30:05Z</time>
      </trkpt>
      <trkpt lat="43.1656290" lon="-1.2001640">
        <ele>194.3</ele>
        <time>2019-07-13T17:30:07Z</time>
      </trkpt>
      <trkpt lat="43.1656480" lon="-1.2003590">
        <ele>194.1</ele>
        <time>2019-07-13T17:30:09Z</time>
      </trkpt>
      <trkpt lat="43.1656710" lon="-1.2005450">
        <ele>193.7</ele>
        <time>2019-07-13T17:30:11Z</time>
      </trkpt>
      <trkpt lat="43.1656920" lon="-1.2007210">
        <ele>193.4</ele>
        <time>2019-07-13T17:30:13Z</time>
      </trkpt>
      <trkpt lat="43.1657140" lon="-1.2008970">
        <ele>193.2</ele>
        <time>2019-07-13T17:30:15Z</time>
      </trkpt>
      <trkpt lat="43.1657340" lon="-1.2010760">
        <ele>193.0</ele>
        <time>2019-07-13T17:30:17Z</time>
      </trkpt>
      <trkpt lat="43.1657530" lon="-1.2012490">
        <ele>192.8</ele>
        <time>2019-07-13T17:30:19Z</time>
      </trkpt>
      <trkpt lat="43.1657730" lon="-1.2014150">
        <ele>192.6</ele>
        <time>2019-07-13T17:30:21Z</time>
      </trkpt>
      <trkpt lat="43.1657880" lon="-1.2015850">
        <ele>192.3</ele>
        <time>2019-07-13T17:30:23Z</time>
      </trkpt>
      <trkpt lat="43.1658060" lon="-1.2017510">
        <ele>192.1</ele>
        <time>2019-07-13T17:30:25Z</time>
      </trkpt>
      <trkpt lat="43.1658250" lon="-1.2019180">
        <ele>191.8</ele>
        <time>2019-07-13T17:30:27Z</time>
      </trkpt>
      <trkpt lat="43.1658440" lon="-1.2020850">
        <ele>191.6</ele>
        <time>2019-07-13T17:30:29Z</time>
      </trkpt>
      <trkpt lat="43.1658640" lon="-1.2022470">
        <ele>191.4</ele>
        <time>2019-07-13T17:30:31Z</time>
      </trkpt>
      <trkpt lat="43.1658840" lon="-1.2024040">
        <ele>191.3</ele>
        <time>2019-07-13T17:30:33Z</time>
      </trkpt>
      <trkpt lat="43.1658950" lon="-1.2025670">
        <ele>191.2</ele>
        <time>2019-07-13T17:30:35Z</time>
      </trkpt>
      <trkpt lat="43.1659110" lon="-1.2027230">
        <ele>190.9</ele>
        <time>2019-07-13T17:30:37Z</time>
      </trkpt>
      <trkpt lat="43.1659260" lon="-1.2028810">
        <ele>190.7</ele>
        <time>2019-07-13T17:30:39Z</time>
      </trkpt>
      <trkpt lat="43.1659390" lon="-1.2030340">
        <ele>190.4</ele>
        <time>2019-07-13T17:30:41Z</time>
      </trkpt>
      <trkpt lat="43.1659560" lon="-1.2031710">
        <ele>190.1</ele>
        <time>2019-07-13T17:30:43Z</time>
      </trkpt>
      <trkpt lat="43.1659720" lon="-1.2032960">
        <ele>189.8</ele>
        <time>2019-07-13T17:30:45Z</time>
      </trkpt>
      <trkpt lat="43.1660200" lon="-1.2034680">
        <ele>189.4</ele>
        <time>2019-07-13T17:30:48Z</time>
      </trkpt>
      <trkpt lat="43.1660740" lon="-1.2035670">
        <ele>189.4</ele>
        <time>2019-07-13T17:30:50Z</time>
      </trkpt>
      <trkpt lat="43.1661170" lon="-1.2036760">
        <ele>189.3</ele>
        <time>2019-07-13T17:30:52Z</time>
      </trkpt>
      <trkpt lat="43.1661080" lon="-1.2038600">
        <ele>188.5</ele>
        <time>2019-07-13T17:30:55Z</time>
      </trkpt>
      <trkpt lat="43.1660810" lon="-1.2039930">
        <ele>188.0</ele>
        <time>2019-07-13T17:30:57Z</time>
      </trkpt>
      <trkpt lat="43.1660740" lon="-1.2041370">
        <ele>187.6</ele>
        <time>2019-07-13T17:30:59Z</time>
      </trkpt>
      <trkpt lat="43.1660810" lon="-1.2042830">
        <ele>187.3</ele>
        <time>2019-07-13T17:31:01Z</time>
      </trkpt>
      <trkpt lat="43.1660960" lon="-1.2044310">
        <ele>187.2</ele>
        <time>2019-07-13T17:31:03Z</time>
      </trkpt>
      <trkpt lat="43.1661150" lon="-1.2045800">
        <ele>187.0</ele>
        <time>2019-07-13T17:31:05Z</time>
      </trkpt>
      <trkpt lat="43.1661360" lon="-1.2047290">
        <ele>187.0</ele>
        <time>2019-07-13T17:31:07Z</time>
      </trkpt>
      <trkpt lat="43.1661540" lon="-1.2048780">
        <ele>186.9</ele>
        <time>2019-07-13T17:31:09Z</time>
      </trkpt>
      <trkpt lat="43.1661740" lon="-1.2050250">
        <ele>186.9</ele>
        <time>2019-07-13T17:31:11Z</time>
      </trkpt>
      <trkpt lat="43.1661890" lon="-1.2051750">
        <ele>186.8</ele>
        <time>2019-07-13T17:31:13Z</time>
      </trkpt>
      <trkpt lat="43.1662030" lon="-1.2053230">
        <ele>186.8</ele>
        <time>2019-07-13T17:31:15Z</time>
      </trkpt>
      <trkpt lat="43.1662210" lon="-1.2054680">
        <ele>186.8</ele>
        <time>2019-07-13T17:31:17Z</time>
      </trkpt>
      <trkpt lat="43.1662440" lon="-1.2056160">
        <ele>186.8</ele>
        <time>2019-07-13T17:31:19Z</time>
      </trkpt>
      <trkpt lat="43.1662620" lon="-1.2057650">
        <ele>186.7</ele>
        <time>2019-07-13T17:31:21Z</time>
      </trkpt>
      <trkpt lat="43.1662770" lon="-1.2059080">
        <ele>186.7</ele>
        <time>2019-07-13T17:31:23Z</time>
      </trkpt>
      <trkpt lat="43.1662890" lon="-1.2060530">
        <ele>186.7</ele>
        <time>2019-07-13T17:31:25Z</time>
      </trkpt>
      <trkpt lat="43.1663070" lon="-1.2062020">
        <ele>186.7</ele>
        <time>2019-07-13T17:31:27Z</time>
      </trkpt>
      <trkpt lat="43.1663240" lon="-1.2063450">
        <ele>186.6</ele>
        <time>2019-07-13T17:31:29Z</time>
      </trkpt>
      <trkpt lat="43.1663380" lon="-1.2064840">
        <ele>186.6</ele>
        <time>2019-07-13T17:31:31Z</time>
      </trkpt>
      <trkpt lat="43.1663530" lon="-1.2066210">
        <ele>186.6</ele>
        <time>2019-07-13T17:31:33Z</time>
      </trkpt>
      <trkpt lat="43.1663720" lon="-1.2067590">
        <ele>186.6</ele>
        <time>2019-07-13T17:31:35Z</time>
      </trkpt>
      <trkpt lat="43.1663900" lon="-1.2068960">
        <ele>186.5</ele>
        <time>2019-07-13T17:31:37Z</time>
      </trkpt>
      <trkpt lat="43.1664020" lon="-1.2070350">
        <ele>186.5</ele>
        <time>2019-07-13T17:31:39Z</time>
      </trkpt>
      <trkpt lat="43.1664210" lon="-1.2071750">
        <ele>186.4</ele>
        <time>2019-07-13T17:31:41Z</time>
      </trkpt>
      <trkpt lat="43.1664380" lon="-1.2073110">
        <ele>186.4</ele>
        <time>2019-07-13T17:31:43Z</time>
      </trkpt>
      <trkpt lat="43.1664510" lon="-1.2074470">
        <ele>186.3</ele>
        <time>2019-07-13T17:31:45Z</time>
      </trkpt>
      <trkpt lat="43.1664610" lon="-1.2075850">
        <ele>186.2</ele>
        <time>2019-07-13T17:31:47Z</time>
      </trkpt>
      <trkpt lat="43.1664750" lon="-1.2077230">
        <ele>186.1</ele>
        <time>2019-07-13T17:31:49Z</time>
      </trkpt>
      <trkpt lat="43.1664920" lon="-1.2078590">
        <ele>185.9</ele>
        <time>2019-07-13T17:31:51Z</time>
      </trkpt>
      <trkpt lat="43.1665090" lon="-1.2079930">
        <ele>185.7</ele>
        <time>2019-07-13T17:31:53Z</time>
      </trkpt>
      <trkpt lat="43.1665220" lon="-1.2081330">
        <ele>185.3</ele>
        <time>2019-07-13T17:31:55Z</time>
      </trkpt>
      <trkpt lat="43.1665370" lon="-1.2082730">
        <ele>184.9</ele>
        <time>2019-07-13T17:31:57Z</time>
      </trkpt>
      <trkpt lat="43.1665510" lon="-1.2084150">
        <ele>184.5</ele>
        <time>2019-07-13T17:31:59Z</time>
      </trkpt>
      <trkpt lat="43.1665700" lon="-1.2085560">
        <ele>184.1</ele>
        <time>2019-07-13T17:32:01Z</time>
      </trkpt>
      <trkpt lat="43.1665860" lon="-1.2086940">
        <ele>183.8</ele>
        <time>2019-07-13T17:32:03Z</time>
      </trkpt>
      <trkpt lat="43.1666020" lon="-1.2088280">
        <ele>183.7</ele>
        <time>2019-07-13T17:32:05Z</time>
      </trkpt>
      <trkpt lat="43.1666210" lon="-1.2089620">
        <ele>183.5</ele>
        <time>2019-07-13T17:32:07Z</time>
      </trkpt>
      <trkpt lat="43.1666360" lon="-1.2090970">
        <ele>183.3</ele>
        <time>2019-07-13T17:32:09Z</time>
      </trkpt>
      <trkpt lat="43.1666510" lon="-1.2092350">
        <ele>183.2</ele>
        <time>2019-07-13T17:32:11Z</time>
      </trkpt>
      <trkpt lat="43.1666660" lon="-1.2093730">
        <ele>183.0</ele>
        <time>2019-07-13T17:32:13Z</time>
      </trkpt>
      <trkpt lat="43.1666840" lon="-1.2095050">
        <ele>182.9</ele>
        <time>2019-07-13T17:32:15Z</time>
      </trkpt>
      <trkpt lat="43.1667000" lon="-1.2096360">
        <ele>182.7</ele>
        <time>2019-07-13T17:32:17Z</time>
      </trkpt>
      <trkpt lat="43.1667120" lon="-1.2097720">
        <ele>182.5</ele>
        <time>2019-07-13T17:32:19Z</time>
      </trkpt>
      <trkpt lat="43.1667300" lon="-1.2099120">
        <ele>182.3</ele>
        <time>2019-07-13T17:32:21Z</time>
      </trkpt>
      <trkpt lat="43.1667450" lon="-1.2100550">
        <ele>182.2</ele>
        <time>2019-07-13T17:32:23Z</time>
      </trkpt>
      <trkpt lat="43.1667590" lon="-1.2101980">
        <ele>181.9</ele>
        <time>2019-07-13T17:32:25Z</time>
      </trkpt>
      <trkpt lat="43.1667730" lon="-1.2103380">
        <ele>181.6</ele>
        <time>2019-07-13T17:32:27Z</time>
      </trkpt>
      <trkpt lat="43.1667890" lon="-1.2104770">
        <ele>181.6</ele>
        <time>2019-07-13T17:32:29Z</time>
      </trkpt>
      <trkpt lat="43.1668050" lon="-1.2106140">
        <ele>181.6</ele>
        <time>2019-07-13T17:32:31Z</time>
      </trkpt>
      <trkpt lat="43.1668200" lon="-1.2107580">
        <ele>181.5</ele>
        <time>2019-07-13T17:32:33Z</time>
      </trkpt>
      <trkpt lat="43.1668330" lon="-1.2109050">
        <ele>181.5</ele>
        <time>2019-07-13T17:32:35Z</time>
      </trkpt>
      <trkpt lat="43.1668480" lon="-1.2110490">
        <ele>181.4</ele>
        <time>2019-07-13T17:32:37Z</time>
      </trkpt>
      <trkpt lat="43.1668580" lon="-1.2111940">
        <ele>181.4</ele>
        <time>2019-07-13T17:32:39Z</time>
      </trkpt>
      <trkpt lat="43.1668730" lon="-1.2113360">
        <ele>181.3</ele>
        <time>2019-07-13T17:32:41Z</time>
      </trkpt>
      <trkpt lat="43.1668870" lon="-1.2114730">
        <ele>181.3</ele>
        <time>2019-07-13T17:32:43Z</time>
      </trkpt>
      <trkpt lat="43.1669030" lon="-1.2116160">
        <ele>181.2</ele>
        <time>2019-07-13T17:32:45Z</time>
      </trkpt>
      <trkpt lat="43.1669170" lon="-1.2117640">
        <ele>181.3</ele>
        <time>2019-07-13T17:32:47Z</time>
      </trkpt>
      <trkpt lat="43.1669310" lon="-1.2119090">
        <ele>181.4</ele>
        <time>2019-07-13T17:32:49Z</time>
      </trkpt>
      <trkpt lat="43.1669440" lon="-1.2120520">
        <ele>181.5</ele>
        <time>2019-07-13T17:32:51Z</time>
      </trkpt>
      <trkpt lat="43.1669600" lon="-1.2121840">
        <ele>181.5</ele>
        <time>2019-07-13T17:32:53Z</time>
      </trkpt>
      <trkpt lat="43.1669760" lon="-1.2123160">
        <ele>181.4</ele>
        <time>2019-07-13T17:32:55Z</time>
      </trkpt>
      <trkpt lat="43.1669920" lon="-1.2124500">
        <ele>181.3</ele>
        <time>2019-07-13T17:32:57Z</time>
      </trkpt>
      <trkpt lat="43.1670060" lon="-1.2125790">
        <ele>181.2</ele>
        <time>2019-07-13T17:32:59Z</time>
      </trkpt>
      <trkpt lat="43.1670200" lon="-1.2127050">
        <ele>181.0</ele>
        <time>2019-07-13T17:33:01Z</time>
      </trkpt>
      <trkpt lat="43.1670370" lon="-1.2128290">
        <ele>180.9</ele>
        <time>2019-07-13T17:33:03Z</time>
      </trkpt>
      <trkpt lat="43.1670510" lon="-1.2129530">
        <ele>180.7</ele>
        <time>2019-07-13T17:33:05Z</time>
      </trkpt>
      <trkpt lat="43.1670710" lon="-1.2131310">
        <ele>180.3</ele>
        <time>2019-07-13T17:33:08Z</time>
      </trkpt>
      <trkpt lat="43.1670930" lon="-1.2133090">
        <ele>180.0</ele>
        <time>2019-07-13T17:33:11Z</time>
      </trkpt>
      <trkpt lat="43.1671150" lon="-1.2134930">
        <ele>179.7</ele>
        <time>2019-07-13T17:33:14Z</time>
      </trkpt>
      <trkpt lat="43.1671270" lon="-1.2136230">
        <ele>179.4</ele>
        <time>2019-07-13T17:33:16Z</time>
      </trkpt>
      <trkpt lat="43.1671410" lon="-1.2137620">
        <ele>179.2</ele>
        <time>2019-07-13T17:33:18Z</time>
      </trkpt>
      <trkpt lat="43.1671540" lon="-1.2139060">
        <ele>178.9</ele>
        <time>2019-07-13T17:33:20Z</time>
      </trkpt>
      <trkpt lat="43.1671710" lon="-1.2140480">
        <ele>178.6</ele>
        <time>2019-07-13T17:33:22Z</time>
      </trkpt>
      <trkpt lat="43.1671820" lon="-1.2141910">
        <ele>178.4</ele>
        <time>2019-07-13T17:33:24Z</time>
      </trkpt>
      <trkpt lat="43.1671960" lon="-1.2143310">
        <ele>178.1</ele>
        <time>2019-07-13T17:33:26Z</time>
      </trkpt>
      <trkpt lat="43.1672110" lon="-1.2144610">
        <ele>177.9</ele>
        <time>2019-07-13T17:33:28Z</time>
      </trkpt>
      <trkpt lat="43.1672270" lon="-1.2145930">
        <ele>177.7</ele>
        <time>2019-07-13T17:33:30Z</time>
      </trkpt>
      <trkpt lat="43.1672410" lon="-1.2147290">
        <ele>177.6</ele>
        <time>2019-07-13T17:33:32Z</time>
      </trkpt>
      <trkpt lat="43.1672580" lon="-1.2148530">
        <ele>177.5</ele>
        <time>2019-07-13T17:33:34Z</time>
      </trkpt>
      <trkpt lat="43.1672760" lon="-1.2149770">
        <ele>177.4</ele>
        <time>2019-07-13T17:33:36Z</time>
      </trkpt>
      <trkpt lat="43.1672960" lon="-1.2151480">
        <ele>177.3</ele>
        <time>2019-07-13T17:33:39Z</time>
      </trkpt>
      <trkpt lat="43.1673130" lon="-1.2152730">
        <ele>177.2</ele>
        <time>2019-07-13T17:33:42Z</time>
      </trkpt>
      <trkpt lat="43.1673100" lon="-1.2154110">
        <ele>177.1</ele>
        <time>2019-07-13T17:33:46Z</time>
      </trkpt>
      <trkpt lat="43.1672250" lon="-1.2154800">
        <ele>176.9</ele>
        <time>2019-07-13T17:33:51Z</time>
      </trkpt>
      <trkpt lat="43.1671260" lon="-1.2155470">
        <ele>176.7</ele>
        <time>2019-07-13T17:33:55Z</time>
      </trkpt>
      <trkpt lat="43.1670310" lon="-1.2156180">
        <ele>176.5</ele>
        <time>2019-07-13T17:33:58Z</time>
      </trkpt>
      <trkpt lat="43.1669350" lon="-1.2155970">
        <ele>176.3</ele>
        <time>2019-07-13T17:34:04Z</time>
      </trkpt>
      <trkpt lat="43.1668730" lon="-1.2154980">
        <ele>176.2</ele>
        <time>2019-07-13T17:34:10Z</time>
      </trkpt>
      <trkpt lat="43.1668030" lon="-1.2154010">
        <ele>176.1</ele>
        <time>2019-07-13T17:34:15Z</time>
      </trkpt>
      <trkpt lat="43.1667530" lon="-1.2152980">
        <ele>176.1</ele>
        <time>2019-07-13T17:34:19Z</time>
      </trkpt>
      <trkpt lat="43.1666960" lon="-1.2151960">
        <ele>176.0</ele>
        <time>2019-07-13T17:34:23Z</time>
      </trkpt>
      <trkpt lat="43.1666660" lon="-1.2151400">
        <ele>176.0</ele>
        <time>2019-07-13T17:34:29Z</time>
      </trkpt>
      <trkpt lat="43.1665710" lon="-1.2151190">
        <ele>176.0</ele>
        <time>2019-07-13T17:37:49Z</time>
      </trkpt>
      <trkpt lat="43.1665260" lon="-1.2150020">
        <ele>176.0</ele>
        <time>2019-07-13T17:38:00Z</time>
      </trkpt>
      <trkpt lat="43.1665440" lon="-1.2148680">
        <ele>176.0</ele>
        <time>2019-07-13T17:38:09Z</time>
      </trkpt>
      <trkpt lat="43.1665820" lon="-1.2147560">
        <ele>176.0</ele>
        <time>2019-07-13T17:38:21Z</time>
      </trkpt>
      <trkpt lat="43.1666120" lon="-1.2146630">
        <ele>176.1</ele>
        <time>2019-07-13T17:38:33Z</time>
      </trkpt>
      <trkpt lat="43.1726240" lon="-1.2537010">
        <ele>158.9</ele>
        <time>2019-07-15T08:02:54Z</time>
      </trkpt>
      <trkpt lat="43.1726300" lon="-1.2537000">
        <ele>158.9</ele>
        <time>2019-07-15T08:02:55Z</time>
      </trkpt>
      <trkpt lat="43.1726280" lon="-1.2536860">
        <ele>158.9</ele>
        <time>2019-07-15T08:02:58Z</time>
      </trkpt>
      <trkpt lat="43.1725890" lon="-1.2536450">
        <ele>158.9</ele>
        <time>2019-07-15T08:03:11Z</time>
      </trkpt>
      <trkpt lat="43.1725790" lon="-1.2536050">
        <ele>158.9</ele>
        <time>2019-07-15T08:03:21Z</time>
      </trkpt>
      <trkpt lat="43.1725420" lon="-1.2536260">
        <ele>158.9</ele>
        <time>2019-07-15T08:08:01Z</time>
      </trkpt>
      <trkpt lat="43.1726360" lon="-1.2536410">
        <ele>158.9</ele>
        <time>2019-07-15T08:08:22Z</time>
      </trkpt>
      <trkpt lat="43.1726400" lon="-1.2536390">
        <ele>158.9</ele>
        <time>2019-07-15T08:08:24Z</time>
      </trkpt>
      <trkpt lat="43.1726240" lon="-1.2535800">
        <ele>158.9</ele>
        <time>2019-07-15T08:09:18Z</time>
      </trkpt>
      <trkpt lat="43.1726240" lon="-1.2535850">
        <ele>158.9</ele>
        <time>2019-07-15T08:12:42Z</time>
      </trkpt>
      <trkpt lat="43.1725770" lon="-1.2535770">
        <ele>158.9</ele>
        <time>2019-07-15T08:14:53Z</time>
      </trkpt>
      <trkpt lat="43.1725580" lon="-1.2537180">
        <ele>158.9</ele>
        <time>2019-07-15T08:15:01Z</time>
      </trkpt>
      <trkpt lat="43.1726690" lon="-1.2537800">
        <ele>158.9</ele>
        <time>2019-07-15T08:15:05Z</time>
      </trkpt>
      <trkpt lat="43.1727610" lon="-1.2538300">
        <ele>158.9</ele>
        <time>2019-07-15T08:15:08Z</time>
      </trkpt>
      <trkpt lat="43.1728100" lon="-1.2539540">
        <ele>158.9</ele>
        <time>2019-07-15T08:15:14Z</time>
      </trkpt>
      <trkpt lat="43.1728760" lon="-1.2539450">
        <ele>158.9</ele>
        <time>2019-07-15T08:15:28Z</time>
      </trkpt>
      <trkpt lat="43.1729520" lon="-1.2540180">
        <ele>158.8</ele>
        <time>2019-07-15T08:15:37Z</time>
      </trkpt>
      <trkpt lat="43.1730360" lon="-1.2540840">
        <ele>158.8</ele>
        <time>2019-07-15T08:15:42Z</time>
      </trkpt>
      <trkpt lat="43.1731360" lon="-1.2541760">
        <ele>158.7</ele>
        <time>2019-07-15T08:15:46Z</time>
      </trkpt>
      <trkpt lat="43.1732180" lon="-1.2542680">
        <ele>158.5</ele>
        <time>2019-07-15T08:15:50Z</time>
      </trkpt>
      <trkpt lat="43.1732470" lon="-1.2543180">
        <ele>158.5</ele>
        <time>2019-07-15T08:15:59Z</time>
      </trkpt>
      <trkpt lat="43.1733380" lon="-1.2542350">
        <ele>158.0</ele>
        <time>2019-07-15T08:16:33Z</time>
      </trkpt>
      <trkpt lat="43.1734070" lon="-1.2541490">
        <ele>157.8</ele>
        <time>2019-07-15T08:16:36Z</time>
      </trkpt>
      <trkpt lat="43.1734880" lon="-1.2540590">
        <ele>157.5</ele>
        <time>2019-07-15T08:16:39Z</time>
      </trkpt>
      <trkpt lat="43.1735860" lon="-1.2539800">
        <ele>157.2</ele>
        <time>2019-07-15T08:16:42Z</time>
      </trkpt>
      <trkpt lat="43.1737000" lon="-1.2539380">
        <ele>156.9</ele>
        <time>2019-07-15T08:16:45Z</time>
      </trkpt>
      <trkpt lat="43.1738100" lon="-1.2539170">
        <ele>156.5</ele>
        <time>2019-07-15T08:16:48Z</time>
      </trkpt>
      <trkpt lat="43.1739310" lon="-1.2538860">
        <ele>156.2</ele>
        <time>2019-07-15T08:16:51Z</time>
      </trkpt>
      <trkpt lat="43.1740220" lon="-1.2538710">
        <ele>156.0</ele>
        <time>2019-07-15T08:16:53Z</time>
      </trkpt>
      <trkpt lat="43.1741210" lon="-1.2538610">
        <ele>155.6</ele>
        <time>2019-07-15T08:16:55Z</time>
      </trkpt>
      <trkpt lat="43.1742280" lon="-1.2538410">
        <ele>155.4</ele>
        <time>2019-07-15T08:16:57Z</time>
      </trkpt>
      <trkpt lat="43.1743490" lon="-1.2538320">
        <ele>155.1</ele>
        <time>2019-07-15T08:16:59Z</time>
      </trkpt>
      <trkpt lat="43.1744920" lon="-1.2538250">
        <ele>154.8</ele>
        <time>2019-07-15T08:17:01Z</time>
      </trkpt>
      <trkpt lat="43.1746480" lon="-1.2538240">
        <ele>154.5</ele>
        <time>2019-07-15T08:17:03Z</time>
      </trkpt>
      <trkpt lat="43.1748080" lon="-1.2538230">
        <ele>154.1</ele>
        <time>2019-07-15T08:17:05Z</time>
      </trkpt>
      <trkpt lat="43.1749600" lon="-1.2538150">
        <ele>153.8</ele>
        <time>2019-07-15T08:17:07Z</time>
      </trkpt>
      <trkpt lat="43.1751140" lon="-1.2538060">
        <ele>153.4</ele>
        <time>2019-07-15T08:17:09Z</time>
      </trkpt>
      <trkpt lat="43.1752360" lon="-1.2537880">
        <ele>153.1</ele>
        <time>2019-07-15T08:17:11Z</time>
      </trkpt>
      <trkpt lat="43.1753350" lon="-1.2537270">
        <ele>152.9</ele>
        <time>2019-07-15T08:17:14Z</time>
      </trkpt>
      <trkpt lat="43.1753060" lon="-1.2536040">
        <ele>152.8</ele>
        <time>2019-07-15T08:17:18Z</time>
      </trkpt>
      <trkpt lat="43.1752710" lon="-1.2534500">
        <ele>152.8</ele>
        <time>2019-07-15T08:17:22Z</time>
      </trkpt>
      <trkpt lat="43.1752300" lon="-1.2533330">
        <ele>152.7</ele>
        <time>2019-07-15T08:17:25Z</time>
      </trkpt>
      <trkpt lat="43.1751770" lon="-1.2532270">
        <ele>152.7</ele>
        <time>2019-07-15T08:17:28Z</time>
      </trkpt>
      <trkpt lat="43.1751280" lon="-1.2530930">
        <ele>152.7</ele>
        <time>2019-07-15T08:17:32Z</time>
      </trkpt>
      <trkpt lat="43.1750700" lon="-1.2529590">
        <ele>152.7</ele>
        <time>2019-07-15T08:17:36Z</time>
      </trkpt>
      <trkpt lat="43.1750230" lon="-1.2528530">
        <ele>152.7</ele>
        <time>2019-07-15T08:17:39Z</time>
      </trkpt>
      <trkpt lat="43.1749790" lon="-1.2527340">
        <ele>152.8</ele>
        <time>2019-07-15T08:17:42Z</time>
      </trkpt>
      <trkpt lat="43.1749150" lon="-1.2526150">
        <ele>152.9</ele>
        <time>2019-07-15T08:17:45Z</time>
      </trkpt>
      <trkpt lat="43.1748580" lon="-1.2524960">
        <ele>152.8</ele>
        <time>2019-07-15T08:17:48Z</time>
      </trkpt>
      <trkpt lat="43.1747980" lon="-1.2523780">
        <ele>152.6</ele>
        <time>2019-07-15T08:17:51Z</time>
      </trkpt>
      <trkpt lat="43.1747400" lon="-1.2522510">
        <ele>152.4</ele>
        <time>2019-07-15T08:17:54Z</time>
      </trkpt>
      <trkpt lat="43.1746900" lon="-1.2521350">
        <ele>152.3</ele>
        <time>2019-07-15T08:17:57Z</time>
      </trkpt>
      <trkpt lat="43.1746260" lon="-1.2520200">
        <ele>152.1</ele>
        <time>2019-07-15T08:18:00Z</time>
      </trkpt>
      <trkpt lat="43.1745720" lon="-1.2519100">
        <ele>152.1</ele>
        <time>2019-07-15T08:18:03Z</time>
      </trkpt>
      <trkpt lat="43.1745110" lon="-1.2517950">
        <ele>152.0</ele>
        <time>2019-07-15T08:18:06Z</time>
      </trkpt>
      <trkpt lat="43.1744500" lon="-1.2516800">
        <ele>151.9</ele>
        <time>2019-07-15T08:18:09Z</time>
      </trkpt>
      <trkpt lat="43.1743800" lon="-1.2515770">
        <ele>151.8</ele>
        <time>2019-07-15T08:18:12Z</time>
      </trkpt>
      <trkpt lat="43.1742970" lon="-1.2514600">
        <ele>151.8</ele>
        <time>2019-07-15T08:18:16Z</time>
      </trkpt>
      <trkpt lat="43.1742230" lon="-1.2513880">
        <ele>151.8</ele>
        <time>2019-07-15T08:18:19Z</time>
      </trkpt>
      <trkpt lat="43.1741200" lon="-1.2513180">
        <ele>151.8</ele>
        <time>2019-07-15T08:18:23Z</time>
      </trkpt>
      <trkpt lat="43.1740030" lon="-1.2512700">
        <ele>151.9</ele>
        <time>2019-07-15T08:18:27Z</time>
      </trkpt>
      <trkpt lat="43.1739090" lon="-1.2512490">
        <ele>152.0</ele>
        <time>2019-07-15T08:18:30Z</time>
      </trkpt>
      <trkpt lat="43.1738120" lon="-1.2512360">
        <ele>152.1</ele>
        <time>2019-07-15T08:18:33Z</time>
      </trkpt>
      <trkpt lat="43.1736990" lon="-1.2512200">
        <ele>152.2</ele>
        <time>2019-07-15T08:18:36Z</time>
      </trkpt>
      <trkpt lat="43.1735920" lon="-1.2512140">
        <ele>152.3</ele>
        <time>2019-07-15T08:18:39Z</time>
      </trkpt>
      <trkpt lat="43.1734950" lon="-1.2512070">
        <ele>152.3</ele>
        <time>2019-07-15T08:18:43Z</time>
      </trkpt>
      <trkpt lat="43.1733750" lon="-1.2511960">
        <ele>152.3</ele>
        <time>2019-07-15T08:18:47Z</time>
      </trkpt>
      <trkpt lat="43.1732660" lon="-1.2511620">
        <ele>152.4</ele>
        <time>2019-07-15T08:18:51Z</time>
      </trkpt>
      <trkpt lat="43.1731600" lon="-1.2511040">
        <ele>152.4</ele>
        <time>2019-07-15T08:18:54Z</time>
      </trkpt>
      <trkpt lat="43.1730640" lon="-1.2510030">
        <ele>152.5</ele>
        <time>2019-07-15T08:18:58Z</time>
      </trkpt>
      <trkpt lat="43.1729620" lon="-1.2509050">
        <ele>152.6</ele>
        <time>2019-07-15T08:19:01Z</time>
      </trkpt>
      <trkpt lat="43.1728660" lon="-1.2507990">
        <ele>152.7</ele>
        <time>2019-07-15T08:19:04Z</time>
      </trkpt>
      <trkpt lat="43.1727950" lon="-1.2506960">
        <ele>152.8</ele>
        <time>2019-07-15T08:19:07Z</time>
      </trkpt>
      <trkpt lat="43.1727220" lon="-1.2506140">
        <ele>152.9</ele>
        <time>2019-07-15T08:19:09Z</time>
      </trkpt>
      <trkpt lat="43.1726490" lon="-1.2504980">
        <ele>153.1</ele>
        <time>2019-07-15T08:19:12Z</time>
      </trkpt>
      <trkpt lat="43.1725770" lon="-1.2503530">
        <ele>153.5</ele>
        <time>2019-07-15T08:19:15Z</time>
      </trkpt>
      <trkpt lat="43.1725390" lon="-1.2502000">
        <ele>153.8</ele>
        <time>2019-07-15T08:19:18Z</time>
      </trkpt>
      <trkpt lat="43.1725140" lon="-1.2500790">
        <ele>154.0</ele>
        <time>2019-07-15T08:19:20Z</time>
      </trkpt>
      <trkpt lat="43.1724680" lon="-1.2499150">
        <ele>154.5</ele>
        <time>2019-07-15T08:19:23Z</time>
      </trkpt>
      <trkpt lat="43.1724450" lon="-1.2497880">
        <ele>154.9</ele>
        <time>2019-07-15T08:19:25Z</time>
      </trkpt>
      <trkpt lat="43.1723950" lon="-1.2496650">
        <ele>155.3</ele>
        <time>2019-07-15T08:19:27Z</time>
      </trkpt>
      <trkpt lat="43.1723200" lon="-1.2495510">
        <ele>155.8</ele>
        <time>2019-07-15T08:19:29Z</time>
      </trkpt>
      <trkpt lat="43.1722580" lon="-1.2494410">
        <ele>156.3</ele>
        <time>2019-07-15T08:19:31Z</time>
      </trkpt>
      <trkpt lat="43.1722190" lon="-1.2493170">
        <ele>156.8</ele>
        <time>2019-07-15T08:19:34Z</time>
      </trkpt>
      <trkpt lat="43.1721230" lon="-1.2491500">
        <ele>157.6</ele>
        <time>2019-07-15T08:19:38Z</time>
      </trkpt>
      <trkpt lat="43.1719180" lon="-1.2489900">
        <ele>158.8</ele>
        <time>2019-07-15T08:19:42Z</time>
      </trkpt>
      <trkpt lat="43.1717610" lon="-1.2487940">
        <ele>159.7</ele>
        <time>2019-07-15T08:19:46Z</time>
      </trkpt>
      <trkpt lat="43.1715790" lon="-1.2486240">
        <ele>160.5</ele>
        <time>2019-07-15T08:19:50Z</time>
      </trkpt>
      <trkpt lat="43.1714350" lon="-1.2485180">
        <ele>161.1</ele>
        <time>2019-07-15T08:19:53Z</time>
      </trkpt>
      <trkpt lat="43.1713200" lon="-1.2484390">
        <ele>161.6</ele>
        <time>2019-07-15T08:19:55Z</time>
      </trkpt>
      <trkpt lat="43.1712250" lon="-1.2483530">
        <ele>162.0</ele>
        <time>2019-07-15T08:19:57Z</time>
      </trkpt>
      <trkpt lat="43.1711340" lon="-1.2482790">
        <ele>162.2</ele>
        <time>2019-07-15T08:19:59Z</time>
      </trkpt>
      <trkpt lat="43.1710500" lon="-1.2482210">
        <ele>162.3</ele>
        <time>2019-07-15T08:20:01Z</time>
      </trkpt>
      <trkpt lat="43.1709490" lon="-1.2481610">
        <ele>162.1</ele>
        <time>2019-07-15T08:20:03Z</time>
      </trkpt>
      <trkpt lat="43.1708680" lon="-1.2481030">
        <ele>161.4</ele>
        <time>2019-07-15T08:20:05Z</time>
      </trkpt>
      <trkpt lat="43.1707720" lon="-1.2480520">
        <ele>160.5</ele>
        <time>2019-07-15T08:20:07Z</time>
      </trkpt>
      <trkpt lat="43.1706460" lon="-1.2479780">
        <ele>159.4</ele>
        <time>2019-07-15T08:20:10Z</time>
      </trkpt>
      <trkpt lat="43.1705590" lon="-1.2479340">
        <ele>158.6</ele>
        <time>2019-07-15T08:20:12Z</time>
      </trkpt>
      <trkpt lat="43.1704700" lon="-1.2478910">
        <ele>157.8</ele>
        <time>2019-07-15T08:20:14Z</time>
      </trkpt>
      <trkpt lat="43.1703500" lon="-1.2478320">
        <ele>156.8</ele>
        <time>2019-07-15T08:20:17Z</time>
      </trkpt>
      <trkpt lat="43.1702320" lon="-1.2477710">
        <ele>155.7</ele>
        <time>2019-07-15T08:20:20Z</time>
      </trkpt>
      <trkpt lat="43.1701100" lon="-1.2477070">
        <ele>154.7</ele>
        <time>2019-07-15T08:20:23Z</time>
      </trkpt>
      <trkpt lat="43.1699920" lon="-1.2476480">
        <ele>153.7</ele>
        <time>2019-07-15T08:20:26Z</time>
      </trkpt>
      <trkpt lat="43.1698710" lon="-1.2475870">
        <ele>153.6</ele>
        <time>2019-07-15T08:20:29Z</time>
      </trkpt>
      <trkpt lat="43.1697500" lon="-1.2475310">
        <ele>153.6</ele>
        <time>2019-07-15T08:20:32Z</time>
      </trkpt>
      <trkpt lat="43.1696300" lon="-1.2474750">
        <ele>153.8</ele>
        <time>2019-07-15T08:20:35Z</time>
      </trkpt>
      <trkpt lat="43.1695170" lon="-1.2474240">
        <ele>153.9</ele>
        <time>2019-07-15T08:20:38Z</time>
      </trkpt>
      <trkpt lat="43.1694260" lon="-1.2473900">
        <ele>154.2</ele>
        <time>2019-07-15T08:20:40Z</time>
      </trkpt>
      <trkpt lat="43.1693360" lon="-1.2473510">
        <ele>154.4</ele>
        <time>2019-07-15T08:20:42Z</time>
      </trkpt>
      <trkpt lat="43.1692470" lon="-1.2473100">
        <ele>154.7</ele>
        <time>2019-07-15T08:20:44Z</time>
      </trkpt>
      <trkpt lat="43.1691250" lon="-1.2472590">
        <ele>154.8</ele>
        <time>2019-07-15T08:20:47Z</time>
      </trkpt>
      <trkpt lat="43.1690030" lon="-1.2471990">
        <ele>154.7</ele>
        <time>2019-07-15T08:20:50Z</time>
      </trkpt>
      <trkpt lat="43.1688940" lon="-1.2471350">
        <ele>154.5</ele>
        <time>2019-07-15T08:20:53Z</time>
      </trkpt>
      <trkpt lat="43.1687840" lon="-1.2470730">
        <ele>154.4</ele>
        <time>2019-07-15T08:20:56Z</time>
      </trkpt>
      <trkpt lat="43.1686810" lon="-1.2470170">
        <ele>154.4</ele>
        <time>2019-07-15T08:20:59Z</time>
      </trkpt>
      <trkpt lat="43.1685710" lon="-1.2469630">
        <ele>154.3</ele>
        <time>2019-07-15T08:21:02Z</time>
      </trkpt>
      <trkpt lat="43.1684720" lon="-1.2469110">
        <ele>154.2</ele>
        <time>2019-07-15T08:21:05Z</time>
      </trkpt>
      <trkpt lat="43.1683750" lon="-1.2468590">
        <ele>154.1</ele>
        <time>2019-07-15T08:21:08Z</time>
      </trkpt>
      <trkpt lat="43.1682680" lon="-1.2468080">
        <ele>154.0</ele>
        <time>2019-07-15T08:21:11Z</time>
      </trkpt>
      <trkpt lat="43.1681630" lon="-1.2467580">
        <ele>154.1</ele>
        <time>2019-07-15T08:21:14Z</time>
      </trkpt>
      <trkpt lat="43.1680770" lon="-1.2467210">
        <ele>154.2</ele>
        <time>2019-07-15T08:21:16Z</time>
      </trkpt>
      <trkpt lat="43.1679510" lon="-1.2466630">
        <ele>154.3</ele>
        <time>2019-07-15T08:21:19Z</time>
      </trkpt>
      <trkpt lat="43.1678280" lon="-1.2466000">
        <ele>154.4</ele>
        <time>2019-07-15T08:21:22Z</time>
      </trkpt>
      <trkpt lat="43.1677410" lon="-1.2465590">
        <ele>154.5</ele>
        <time>2019-07-15T08:21:24Z</time>
      </trkpt>
      <trkpt lat="43.1676550" lon="-1.2465180">
        <ele>154.6</ele>
        <time>2019-07-15T08:21:26Z</time>
      </trkpt>
      <trkpt lat="43.1675680" lon="-1.2464770">
        <ele>154.7</ele>
        <time>2019-07-15T08:21:28Z</time>
      </trkpt>
      <trkpt lat="43.1674770" lon="-1.2464320">
        <ele>154.8</ele>
        <time>2019-07-15T08:21:30Z</time>
      </trkpt>
      <trkpt lat="43.1673560" lon="-1.2463710">
        <ele>154.9</ele>
        <time>2019-07-15T08:21:33Z</time>
      </trkpt>
      <trkpt lat="43.1672300" lon="-1.2463100">
        <ele>155.0</ele>
        <time>2019-07-15T08:21:36Z</time>
      </trkpt>
      <trkpt lat="43.1671080" lon="-1.2462540">
        <ele>155.1</ele>
        <time>2019-07-15T08:21:39Z</time>
      </trkpt>
      <trkpt lat="43.1669840" lon="-1.2461920">
        <ele>155.2</ele>
        <time>2019-07-15T08:21:42Z</time>
      </trkpt>
      <trkpt lat="43.1668610" lon="-1.2461420">
        <ele>155.3</ele>
        <time>2019-07-15T08:21:45Z</time>
      </trkpt>
      <trkpt lat="43.1667480" lon="-1.2460800">
        <ele>155.4</ele>
        <time>2019-07-15T08:21:48Z</time>
      </trkpt>
      <trkpt lat="43.1666490" lon="-1.2459820">
        <ele>155.5</ele>
        <time>2019-07-15T08:21:51Z</time>
      </trkpt>
      <trkpt lat="43.1665540" lon="-1.2458690">
        <ele>155.7</ele>
        <time>2019-07-15T08:21:54Z</time>
      </trkpt>
      <trkpt lat="43.1664880" lon="-1.2457830">
        <ele>155.8</ele>
        <time>2019-07-15T08:21:56Z</time>
      </trkpt>
      <trkpt lat="43.1664000" lon="-1.2456500">
        <ele>156.0</ele>
        <time>2019-07-15T08:21:59Z</time>
      </trkpt>
      <trkpt lat="43.1663130" lon="-1.2455230">
        <ele>156.2</ele>
        <time>2019-07-15T08:22:02Z</time>
      </trkpt>
      <trkpt lat="43.1662260" lon="-1.2453920">
        <ele>156.4</ele>
        <time>2019-07-15T08:22:05Z</time>
      </trkpt>
      <trkpt lat="43.1661370" lon="-1.2452620">
        <ele>156.7</ele>
        <time>2019-07-15T08:22:08Z</time>
      </trkpt>
      <trkpt lat="43.1660480" lon="-1.2451420">
        <ele>157.0</ele>
        <time>2019-07-15T08:22:11Z</time>
      </trkpt>
      <trkpt lat="43.1659540" lon="-1.2450210">
        <ele>157.3</ele>
        <time>2019-07-15T08:22:14Z</time>
      </trkpt>
      <trkpt lat="43.1658580" lon="-1.2448930">
        <ele>157.7</ele>
        <time>2019-07-15T08:22:17Z</time>
      </trkpt>
      <trkpt lat="43.1657940" lon="-1.2448040">
        <ele>158.1</ele>
        <time>2019-07-15T08:22:19Z</time>
      </trkpt>
      <trkpt lat="43.1657060" lon="-1.2446850">
        <ele>158.6</ele>
        <time>2019-07-15T08:22:22Z</time>
      </trkpt>
      <trkpt lat="43.1656190" lon="-1.2445650">
        <ele>159.2</ele>
        <time>2019-07-15T08:22:25Z</time>
      </trkpt>
      <trkpt lat="43.1655450" lon="-1.2444490">
        <ele>159.7</ele>
        <time>2019-07-15T08:22:28Z</time>
      </trkpt>
      <trkpt lat="43.1654730" lon="-1.2443650">
        <ele>160.2</ele>
        <time>2019-07-15T08:22:31Z</time>
      </trkpt>
      <trkpt lat="43.1654110" lon="-1.2442710">
        <ele>160.7</ele>
        <time>2019-07-15T08:22:34Z</time>
      </trkpt>
      <trkpt lat="43.1653400" lon="-1.2441820">
        <ele>161.2</ele>
        <time>2019-07-15T08:22:37Z</time>
      </trkpt>
      <trkpt lat="43.1652700" lon="-1.2440920">
        <ele>161.7</ele>
        <time>2019-07-15T08:22:40Z</time>
      </trkpt>
      <trkpt lat="43.1651960" lon="-1.2439920">
        <ele>162.1</ele>
        <time>2019-07-15T08:22:43Z</time>
      </trkpt>
      <trkpt lat="43.1651240" lon="-1.2438860">
        <ele>162.4</ele>
        <time>2019-07-15T08:22:46Z</time>
      </trkpt>
      <trkpt lat="43.1650370" lon="-1.2437970">
        <ele>162.8</ele>
        <time>2019-07-15T08:22:49Z</time>
      </trkpt>
      <trkpt lat="43.1649710" lon="-1.2437030">
        <ele>163.0</ele>
        <time>2019-07-15T08:22:52Z</time>
      </trkpt>
      <trkpt lat="43.1648990" lon="-1.2436000">
        <ele>163.2</ele>
        <time>2019-07-15T08:22:55Z</time>
      </trkpt>
      <trkpt lat="43.1648180" lon="-1.2434920">
        <ele>163.5</ele>
        <time>2019-07-15T08:22:58Z</time>
      </trkpt>
      <trkpt lat="43.1647390" lon="-1.2433680">
        <ele>164.3</ele>
        <time>2019-07-15T08:23:01Z</time>
      </trkpt>
      <trkpt lat="43.1646650" lon="-1.2432370">
        <ele>165.7</ele>
        <time>2019-07-15T08:23:04Z</time>
      </trkpt>
      <trkpt lat="43.1645690" lon="-1.2431020">
        <ele>167.6</ele>
        <time>2019-07-15T08:23:07Z</time>
      </trkpt>
      <trkpt lat="43.1645020" lon="-1.2430060">
        <ele>169.0</ele>
        <time>2019-07-15T08:23:09Z</time>
      </trkpt>
      <trkpt lat="43.1644500" lon="-1.2428990">
        <ele>170.3</ele>
        <time>2019-07-15T08:23:11Z</time>
      </trkpt>
      <trkpt lat="43.1645090" lon="-1.2427440">
        <ele>168.7</ele>
        <time>2019-07-15T08:23:14Z</time>
      </trkpt>
      <trkpt lat="43.1646180" lon="-1.2427400">
        <ele>166.9</ele>
        <time>2019-07-15T08:23:18Z</time>
      </trkpt>
      <trkpt lat="43.1647050" lon="-1.2428040">
        <ele>166.3</ele>
        <time>2019-07-15T08:23:22Z</time>
      </trkpt>
      <trkpt lat="43.1647870" lon="-1.2428820">
        <ele>165.8</ele>
        <time>2019-07-15T08:23:28Z</time>
      </trkpt>
      <trkpt lat="43.1647500" lon="-1.2429480">
        <ele>165.5</ele>
        <time>2019-07-15T08:23:45Z</time>
      </trkpt>
      <trkpt lat="43.1647070" lon="-1.2429760">
        <ele>165.2</ele>
        <time>2019-07-15T08:23:54Z</time>
      </trkpt>
      <trkpt lat="43.1646260" lon="-1.2430610">
        <ele>164.4</ele>
        <time>2019-07-15T08:35:51Z</time>
      </trkpt>
      <trkpt lat="43.1647020" lon="-1.2430890">
        <ele>163.9</ele>
        <time>2019-07-15T08:40:06Z</time>
      </trkpt>
      <trkpt lat="43.1647130" lon="-1.2431630">
        <ele>163.5</ele>
        <time>2019-07-15T08:40:53Z</time>
      </trkpt>
      <trkpt lat="43.1646270" lon="-1.2431020">
        <ele>165.0</ele>
        <time>2019-07-15T08:41:05Z</time>
      </trkpt>
      <trkpt lat="43.1645680" lon="-1.2429980">
        <ele>165.9</ele>
        <time>2019-07-15T08:41:09Z</time>
      </trkpt>
      <trkpt lat="43.1644990" lon="-1.2429110">
        <ele>166.7</ele>
        <time>2019-07-15T08:41:13Z</time>
      </trkpt>
      <trkpt lat="43.1644500" lon="-1.2430320">
        <ele>169.3</ele>
        <time>2019-07-15T08:41:19Z</time>
      </trkpt>
      <trkpt lat="43.1645070" lon="-1.2431330">
        <ele>168.0</ele>
        <time>2019-07-15T08:41:23Z</time>
      </trkpt>
      <trkpt lat="43.1645920" lon="-1.2432280">
        <ele>166.5</ele>
        <time>2019-07-15T08:41:27Z</time>
      </trkpt>
      <trkpt lat="43.1646660" lon="-1.2432990">
        <ele>165.3</ele>
        <time>2019-07-15T08:41:30Z</time>
      </trkpt>
      <trkpt lat="43.1647540" lon="-1.2433850">
        <ele>164.2</ele>
        <time>2019-07-15T08:41:34Z</time>
      </trkpt>
      <trkpt lat="43.1648350" lon="-1.2434750">
        <ele>163.5</ele>
        <time>2019-07-15T08:41:38Z</time>
      </trkpt>
      <trkpt lat="43.1649080" lon="-1.2435800">
        <ele>163.3</ele>
        <time>2019-07-15T08:41:42Z</time>
      </trkpt>
      <trkpt lat="43.1649860" lon="-1.2436890">
        <ele>163.0</ele>
        <time>2019-07-15T08:41:46Z</time>
      </trkpt>
      <trkpt lat="43.1650580" lon="-1.2437750">
        <ele>162.8</ele>
        <time>2019-07-15T08:41:49Z</time>
      </trkpt>
      <trkpt lat="43.1651300" lon="-1.2438820">
        <ele>162.4</ele>
        <time>2019-07-15T08:41:52Z</time>
      </trkpt>
      <trkpt lat="43.1652200" lon="-1.2439860">
        <ele>162.0</ele>
        <time>2019-07-15T08:41:55Z</time>
      </trkpt>
      <trkpt lat="43.1653100" lon="-1.2441030">
        <ele>161.5</ele>
        <time>2019-07-15T08:41:58Z</time>
      </trkpt>
      <trkpt lat="43.1653770" lon="-1.2442000">
        <ele>161.1</ele>
        <time>2019-07-15T08:42:00Z</time>
      </trkpt>
      <trkpt lat="43.1654580" lon="-1.2443000">
        <ele>160.5</ele>
        <time>2019-07-15T08:42:02Z</time>
      </trkpt>
      <trkpt lat="43.1655460" lon="-1.2444130">
        <ele>159.8</ele>
        <time>2019-07-15T08:42:04Z</time>
      </trkpt>
      <trkpt lat="43.1656400" lon="-1.2445410">
        <ele>159.1</ele>
        <time>2019-07-15T08:42:06Z</time>
      </trkpt>
      <trkpt lat="43.1657380" lon="-1.2446740">
        <ele>158.5</ele>
        <time>2019-07-15T08:42:08Z</time>
      </trkpt>
      <trkpt lat="43.1658310" lon="-1.2448070">
        <ele>158.0</ele>
        <time>2019-07-15T08:42:10Z</time>
      </trkpt>
      <trkpt lat="43.1659180" lon="-1.2449360">
        <ele>157.5</ele>
        <time>2019-07-15T08:42:12Z</time>
      </trkpt>
      <trkpt lat="43.1660010" lon="-1.2450580">
        <ele>157.2</ele>
        <time>2019-07-15T08:42:14Z</time>
      </trkpt>
      <trkpt lat="43.1660790" lon="-1.2451660">
        <ele>156.9</ele>
        <time>2019-07-15T08:42:16Z</time>
      </trkpt>
      <trkpt lat="43.1661520" lon="-1.2452700">
        <ele>156.7</ele>
        <time>2019-07-15T08:42:18Z</time>
      </trkpt>
      <trkpt lat="43.1662210" lon="-1.2453660">
        <ele>156.5</ele>
        <time>2019-07-15T08:42:20Z</time>
      </trkpt>
      <trkpt lat="43.1662900" lon="-1.2454590">
        <ele>156.3</ele>
        <time>2019-07-15T08:42:22Z</time>
      </trkpt>
      <trkpt lat="43.1663550" lon="-1.2455530">
        <ele>156.1</ele>
        <time>2019-07-15T08:42:24Z</time>
      </trkpt>
      <trkpt lat="43.1664220" lon="-1.2456470">
        <ele>155.9</ele>
        <time>2019-07-15T08:42:26Z</time>
      </trkpt>
      <trkpt lat="43.1664870" lon="-1.2457400">
        <ele>155.8</ele>
        <time>2019-07-15T08:42:28Z</time>
      </trkpt>
      <trkpt lat="43.1665750" lon="-1.2458690">
        <ele>155.6</ele>
        <time>2019-07-15T08:42:31Z</time>
      </trkpt>
      <trkpt lat="43.1666600" lon="-1.2459670">
        <ele>155.5</ele>
        <time>2019-07-15T08:42:34Z</time>
      </trkpt>
      <trkpt lat="43.1667500" lon="-1.2460530">
        <ele>155.4</ele>
        <time>2019-07-15T08:42:38Z</time>
      </trkpt>
      <trkpt lat="43.1667630" lon="-1.2460810">
        <ele>155.4</ele>
        <time>2019-07-15T08:42:45Z</time>
      </trkpt>
      <trkpt lat="43.1667970" lon="-1.2462190">
        <ele>155.5</ele>
        <time>2019-07-15T08:42:57Z</time>
      </trkpt>
      <trkpt lat="43.1667820" lon="-1.2463700">
        <ele>155.6</ele>
        <time>2019-07-15T08:43:01Z</time>
      </trkpt>
      <trkpt lat="43.1667930" lon="-1.2465010">
        <ele>155.7</ele>
        <time>2019-07-15T08:43:04Z</time>
      </trkpt>
      <trkpt lat="43.1667990" lon="-1.2466350">
        <ele>155.8</ele>
        <time>2019-07-15T08:43:07Z</time>
      </trkpt>
      <trkpt lat="43.1667960" lon="-1.2467650">
        <ele>155.9</ele>
        <time>2019-07-15T08:43:10Z</time>
      </trkpt>
      <trkpt lat="43.1667820" lon="-1.2469150">
        <ele>156.1</ele>
        <time>2019-07-15T08:43:13Z</time>
      </trkpt>
      <trkpt lat="43.1667650" lon="-1.2470470">
        <ele>156.2</ele>
        <time>2019-07-15T08:43:16Z</time>
      </trkpt>
      <trkpt lat="43.1667200" lon="-1.2471910">
        <ele>156.3</ele>
        <time>2019-07-15T08:43:20Z</time>
      </trkpt>
      <trkpt lat="43.1666730" lon="-1.2473080">
        <ele>156.3</ele>
        <time>2019-07-15T08:43:23Z</time>
      </trkpt>
      <trkpt lat="43.1666270" lon="-1.2474310">
        <ele>156.4</ele>
        <time>2019-07-15T08:43:26Z</time>
      </trkpt>
      <trkpt lat="43.1665760" lon="-1.2475540">
        <ele>156.3</ele>
        <time>2019-07-15T08:43:29Z</time>
      </trkpt>
      <trkpt lat="43.1665250" lon="-1.2476770">
        <ele>156.1</ele>
        <time>2019-07-15T08:43:32Z</time>
      </trkpt>
      <trkpt lat="43.1664790" lon="-1.2477910">
        <ele>156.0</ele>
        <time>2019-07-15T08:43:35Z</time>
      </trkpt>
      <trkpt lat="43.1664330" lon="-1.2479080">
        <ele>155.8</ele>
        <time>2019-07-15T08:43:38Z</time>
      </trkpt>
      <trkpt lat="43.1663860" lon="-1.2480260">
        <ele>155.7</ele>
        <time>2019-07-15T08:43:41Z</time>
      </trkpt>
      <trkpt lat="43.1663410" lon="-1.2481460">
        <ele>155.6</ele>
        <time>2019-07-15T08:43:44Z</time>
      </trkpt>
      <trkpt lat="43.1662850" lon="-1.2482760">
        <ele>155.7</ele>
        <time>2019-07-15T08:43:47Z</time>
      </trkpt>
      <trkpt lat="43.1662310" lon="-1.2484190">
        <ele>156.0</ele>
        <time>2019-07-15T08:43:50Z</time>
      </trkpt>
      <trkpt lat="43.1661800" lon="-1.2485640">
        <ele>156.5</ele>
        <time>2019-07-15T08:43:53Z</time>
      </trkpt>
      <trkpt lat="43.1661240" lon="-1.2487000">
        <ele>156.9</ele>
        <time>2019-07-15T08:43:56Z</time>
      </trkpt>
      <trkpt lat="43.1660710" lon="-1.2488410">
        <ele>157.4</ele>
        <time>2019-07-15T08:43:59Z</time>
      </trkpt>
      <trkpt lat="43.1660140" lon="-1.2489800">
        <ele>158.0</ele>
        <time>2019-07-15T08:44:02Z</time>
      </trkpt>
      <trkpt lat="43.1659630" lon="-1.2491240">
        <ele>158.4</ele>
        <time>2019-07-15T08:44:05Z</time>
      </trkpt>
      <trkpt lat="43.1659090" lon="-1.2492600">
        <ele>158.6</ele>
        <time>2019-07-15T08:44:08Z</time>
      </trkpt>
      <trkpt lat="43.1658560" lon="-1.2493860">
        <ele>158.9</ele>
        <time>2019-07-15T08:44:11Z</time>
      </trkpt>
      <trkpt lat="43.1657990" lon="-1.2495080">
        <ele>159.0</ele>
        <time>2019-07-15T08:44:14Z</time>
      </trkpt>
      <trkpt lat="43.1657420" lon="-1.2496180">
        <ele>159.2</ele>
        <time>2019-07-15T08:44:17Z</time>
      </trkpt>
      <trkpt lat="43.1656770" lon="-1.2497180">
        <ele>159.4</ele>
        <time>2019-07-15T08:44:20Z</time>
      </trkpt>
      <trkpt lat="43.1656000" lon="-1.2498030">
        <ele>159.6</ele>
        <time>2019-07-15T08:44:23Z</time>
      </trkpt>
      <trkpt lat="43.1655160" lon="-1.2498690">
        <ele>159.9</ele>
        <time>2019-07-15T08:44:26Z</time>
      </trkpt>
      <trkpt lat="43.1654270" lon="-1.2499140">
        <ele>160.2</ele>
        <time>2019-07-15T08:44:29Z</time>
      </trkpt>
      <trkpt lat="43.1653360" lon="-1.2499470">
        <ele>160.7</ele>
        <time>2019-07-15T08:44:32Z</time>
      </trkpt>
      <trkpt lat="43.1652280" lon="-1.2499810">
        <ele>161.8</ele>
        <time>2019-07-15T08:44:36Z</time>
      </trkpt>
      <trkpt lat="43.1651190" lon="-1.2500260">
        <ele>162.7</ele>
        <time>2019-07-15T08:44:40Z</time>
      </trkpt>
      <trkpt lat="43.1650360" lon="-1.2500810">
        <ele>163.3</ele>
        <time>2019-07-15T08:44:43Z</time>
      </trkpt>
      <trkpt lat="43.1649550" lon="-1.2501930">
        <ele>164.0</ele>
        <time>2019-07-15T08:44:47Z</time>
      </trkpt>
      <trkpt lat="43.1649100" lon="-1.2503110">
        <ele>164.4</ele>
        <time>2019-07-15T08:44:50Z</time>
      </trkpt>
      <trkpt lat="43.1648920" lon="-1.2504350">
        <ele>165.0</ele>
        <time>2019-07-15T08:44:53Z</time>
      </trkpt>
      <trkpt lat="43.1649150" lon="-1.2505810">
        <ele>166.1</ele>
        <time>2019-07-15T08:44:57Z</time>
      </trkpt>
      <trkpt lat="43.1649300" lon="-1.2507040">
        <ele>166.8</ele>
        <time>2019-07-15T08:45:01Z</time>
      </trkpt>
      <trkpt lat="43.1650100" lon="-1.2508030">
        <ele>167.7</ele>
        <time>2019-07-15T08:45:06Z</time>
      </trkpt>
      <trkpt lat="43.1651130" lon="-1.2508470">
        <ele>168.7</ele>
        <time>2019-07-15T08:45:11Z</time>
      </trkpt>
      <trkpt lat="43.1651850" lon="-1.2509300">
        <ele>169.4</ele>
        <time>2019-07-15T08:45:15Z</time>
      </trkpt>
      <trkpt lat="43.1652910" lon="-1.2509780">
        <ele>170.5</ele>
        <time>2019-07-15T08:45:20Z</time>
      </trkpt>
      <trkpt lat="43.1653800" lon="-1.2510200">
        <ele>171.3</ele>
        <time>2019-07-15T08:45:23Z</time>
      </trkpt>
      <trkpt lat="43.1654670" lon="-1.2510480">
        <ele>172.0</ele>
        <time>2019-07-15T08:45:27Z</time>
      </trkpt>
      <trkpt lat="43.1655710" lon="-1.2510840">
        <ele>173.3</ele>
        <time>2019-07-15T08:45:33Z</time>
      </trkpt>
      <trkpt lat="43.1656680" lon="-1.2511270">
        <ele>173.8</ele>
        <time>2019-07-15T08:45:38Z</time>
      </trkpt>
      <trkpt lat="43.1657640" lon="-1.2511640">
        <ele>174.3</ele>
        <time>2019-07-15T08:45:43Z</time>
      </trkpt>
      <trkpt lat="43.1658600" lon="-1.2512090">
        <ele>174.9</ele>
        <time>2019-07-15T08:45:48Z</time>
      </trkpt>
      <trkpt lat="43.1659680" lon="-1.2512490">
        <ele>175.7</ele>
        <time>2019-07-15T08:45:53Z</time>
      </trkpt>
      <trkpt lat="43.1660700" lon="-1.2512850">
        <ele>176.4</ele>
        <time>2019-07-15T08:45:58Z</time>
      </trkpt>
      <trkpt lat="43.1661670" lon="-1.2513250">
        <ele>177.2</ele>
        <time>2019-07-15T08:46:03Z</time>
      </trkpt>
      <trkpt lat="43.1662690" lon="-1.2513690">
        <ele>178.1</ele>
        <time>2019-07-15T08:46:08Z</time>
      </trkpt>
      <trkpt lat="43.1664050" lon="-1.2514390">
        <ele>179.2</ele>
        <time>2019-07-15T08:46:16Z</time>
      </trkpt>
      <trkpt lat="43.1665350" lon="-1.2515140">
        <ele>180.3</ele>
        <time>2019-07-15T08:46:24Z</time>
      </trkpt>
      <trkpt lat="43.1666700" lon="-1.2515890">
        <ele>181.5</ele>
        <time>2019-07-15T08:46:32Z</time>
      </trkpt>
      <trkpt lat="43.1668010" lon="-1.2516550">
        <ele>182.4</ele>
        <time>2019-07-15T08:46:40Z</time>
      </trkpt>
      <trkpt lat="43.1669010" lon="-1.2516990">
        <ele>183.1</ele>
        <time>2019-07-15T08:46:46Z</time>
      </trkpt>
      <trkpt lat="43.1669980" lon="-1.2517400">
        <ele>183.8</ele>
        <time>2019-07-15T08:46:52Z</time>
      </trkpt>
      <trkpt lat="43.1671210" lon="-1.2518030">
        <ele>184.5</ele>
        <time>2019-07-15T08:46:59Z</time>
      </trkpt>
      <trkpt lat="43.1672140" lon="-1.2518500">
        <ele>185.0</ele>
        <time>2019-07-15T08:47:04Z</time>
      </trkpt>
      <trkpt lat="43.1673170" lon="-1.2519060">
        <ele>185.4</ele>
        <time>2019-07-15T08:47:09Z</time>
      </trkpt>
      <trkpt lat="43.1674050" lon="-1.2519650">
        <ele>185.7</ele>
        <time>2019-07-15T08:47:13Z</time>
      </trkpt>
      <trkpt lat="43.1674860" lon="-1.2520390">
        <ele>185.9</ele>
        <time>2019-07-15T08:47:17Z</time>
      </trkpt>
      <trkpt lat="43.1675610" lon="-1.2521340">
        <ele>186.1</ele>
        <time>2019-07-15T08:47:21Z</time>
      </trkpt>
      <trkpt lat="43.1676360" lon="-1.2522340">
        <ele>186.2</ele>
        <time>2019-07-15T08:47:25Z</time>
      </trkpt>
      <trkpt lat="43.1677010" lon="-1.2523220">
        <ele>186.2</ele>
        <time>2019-07-15T08:47:29Z</time>
      </trkpt>
      <trkpt lat="43.1677500" lon="-1.2524350">
        <ele>186.4</ele>
        <time>2019-07-15T08:47:34Z</time>
      </trkpt>
      <trkpt lat="43.1677920" lon="-1.2525540">
        <ele>186.6</ele>
        <time>2019-07-15T08:47:40Z</time>
      </trkpt>
      <trkpt lat="43.1678260" lon="-1.2526680">
        <ele>185.9</ele>
        <time>2019-07-15T08:47:46Z</time>
      </trkpt>
      <trkpt lat="43.1678260" lon="-1.2526760">
        <ele>185.8</ele>
        <time>2019-07-15T08:47:50Z</time>
      </trkpt>
      <trkpt lat="43.1678540" lon="-1.2528130">
        <ele>184.8</ele>
        <time>2019-07-15T08:48:09Z</time>
      </trkpt>
      <trkpt lat="43.1678790" lon="-1.2529790">
        <ele>183.3</ele>
        <time>2019-07-15T08:48:12Z</time>
      </trkpt>
      <trkpt lat="43.1679000" lon="-1.2531130">
        <ele>182.0</ele>
        <time>2019-07-15T08:48:14Z</time>
      </trkpt>
      <trkpt lat="43.1679330" lon="-1.2532830">
        <ele>180.4</ele>
        <time>2019-07-15T08:48:16Z</time>
      </trkpt>
      <trkpt lat="43.1679770" lon="-1.2534880">
        <ele>178.4</ele>
        <time>2019-07-15T08:48:18Z</time>
      </trkpt>
      <trkpt lat="43.1680190" lon="-1.2537060">
        <ele>176.2</ele>
        <time>2019-07-15T08:48:20Z</time>
      </trkpt>
      <trkpt lat="43.1680590" lon="-1.2539250">
        <ele>174.4</ele>
        <time>2019-07-15T08:48:22Z</time>
      </trkpt>
      <trkpt lat="43.1680910" lon="-1.2541560">
        <ele>173.2</ele>
        <time>2019-07-15T08:48:24Z</time>
      </trkpt>
      <trkpt lat="43.1681120" lon="-1.2543980">
        <ele>172.4</ele>
        <time>2019-07-15T08:48:26Z</time>
      </trkpt>
      <trkpt lat="43.1681150" lon="-1.2545210">
        <ele>172.1</ele>
        <time>2019-07-15T08:48:27Z</time>
      </trkpt>
      <trkpt lat="43.1681180" lon="-1.2547650">
        <ele>171.4</ele>
        <time>2019-07-15T08:48:29Z</time>
      </trkpt>
      <trkpt lat="43.1681210" lon="-1.2550000">
        <ele>170.7</ele>
        <time>2019-07-15T08:48:31Z</time>
      </trkpt>
      <trkpt lat="43.1681220" lon="-1.2552280">
        <ele>170.2</ele>
        <time>2019-07-15T08:48:33Z</time>
      </trkpt>
      <trkpt lat="43.1681260" lon="-1.2554510">
        <ele>170.0</ele>
        <time>2019-07-15T08:48:35Z</time>
      </trkpt>
      <trkpt lat="43.1681320" lon="-1.2556720">
        <ele>170.0</ele>
        <time>2019-07-15T08:48:37Z</time>
      </trkpt>
      <trkpt lat="43.1681310" lon="-1.2558870">
        <ele>170.0</ele>
        <time>2019-07-15T08:48:39Z</time>
      </trkpt>
      <trkpt lat="43.1681290" lon="-1.2560850">
        <ele>170.1</ele>
        <time>2019-07-15T08:48:41Z</time>
      </trkpt>
      <trkpt lat="43.1681250" lon="-1.2562710">
        <ele>170.3</ele>
        <time>2019-07-15T08:48:43Z</time>
      </trkpt>
      <trkpt lat="43.1681260" lon="-1.2564410">
        <ele>170.5</ele>
        <time>2019-07-15T08:48:45Z</time>
      </trkpt>
      <trkpt lat="43.1681230" lon="-1.2565980">
        <ele>170.8</ele>
        <time>2019-07-15T08:48:47Z</time>
      </trkpt>
      <trkpt lat="43.1681210" lon="-1.2567490">
        <ele>171.1</ele>
        <time>2019-07-15T08:48:49Z</time>
      </trkpt>
      <trkpt lat="43.1681200" lon="-1.2568880">
        <ele>171.5</ele>
        <time>2019-07-15T08:48:51Z</time>
      </trkpt>
      <trkpt lat="43.1681210" lon="-1.2570130">
        <ele>171.9</ele>
        <time>2019-07-15T08:48:53Z</time>
      </trkpt>
      <trkpt lat="43.1681230" lon="-1.2571800">
        <ele>172.5</ele>
        <time>2019-07-15T08:48:56Z</time>
      </trkpt>
      <trkpt lat="43.1681230" lon="-1.2573330">
        <ele>173.0</ele>
        <time>2019-07-15T08:48:59Z</time>
      </trkpt>
      <trkpt lat="43.1681260" lon="-1.2574860">
        <ele>173.4</ele>
        <time>2019-07-15T08:49:02Z</time>
      </trkpt>
      <trkpt lat="43.1681190" lon="-1.2576330">
        <ele>173.9</ele>
        <time>2019-07-15T08:49:05Z</time>
      </trkpt>
      <trkpt lat="43.1681180" lon="-1.2577940">
        <ele>174.5</ele>
        <time>2019-07-15T08:49:09Z</time>
      </trkpt>
      <trkpt lat="43.1681190" lon="-1.2579320">
        <ele>175.1</ele>
        <time>2019-07-15T08:49:13Z</time>
      </trkpt>
      <trkpt lat="43.1681180" lon="-1.2580660">
        <ele>175.8</ele>
        <time>2019-07-15T08:49:17Z</time>
      </trkpt>
      <trkpt lat="43.1681140" lon="-1.2581940">
        <ele>176.5</ele>
        <time>2019-07-15T08:49:21Z</time>
      </trkpt>
      <trkpt lat="43.1681040" lon="-1.2583240">
        <ele>177.3</ele>
        <time>2019-07-15T08:49:25Z</time>
      </trkpt>
      <trkpt lat="43.1680960" lon="-1.2584570">
        <ele>177.9</ele>
        <time>2019-07-15T08:49:29Z</time>
      </trkpt>
      <trkpt lat="43.1680770" lon="-1.2585880">
        <ele>178.5</ele>
        <time>2019-07-15T08:49:33Z</time>
      </trkpt>
      <trkpt lat="43.1680660" lon="-1.2587190">
        <ele>179.1</ele>
        <time>2019-07-15T08:49:37Z</time>
      </trkpt>
      <trkpt lat="43.1680540" lon="-1.2588430">
        <ele>179.6</ele>
        <time>2019-07-15T08:49:41Z</time>
      </trkpt>
      <trkpt lat="43.1680520" lon="-1.2589690">
        <ele>180.1</ele>
        <time>2019-07-15T08:49:45Z</time>
      </trkpt>
      <trkpt lat="43.1680420" lon="-1.2591010">
        <ele>180.6</ele>
        <time>2019-07-15T08:49:50Z</time>
      </trkpt>
      <trkpt lat="43.1680320" lon="-1.2592590">
        <ele>181.1</ele>
        <time>2019-07-15T08:49:55Z</time>
      </trkpt>
      <trkpt lat="43.1680210" lon="-1.2593980">
        <ele>181.6</ele>
        <time>2019-07-15T08:50:00Z</time>
      </trkpt>
      <trkpt lat="43.1680200" lon="-1.2595460">
        <ele>182.1</ele>
        <time>2019-07-15T08:50:05Z</time>
      </trkpt>
      <trkpt lat="43.1680140" lon="-1.2596980">
        <ele>182.6</ele>
        <time>2019-07-15T08:50:10Z</time>
      </trkpt>
      <trkpt lat="43.1680260" lon="-1.2598410">
        <ele>183.1</ele>
        <time>2019-07-15T08:50:15Z</time>
      </trkpt>
      <trkpt lat="43.1680410" lon="-1.2599840">
        <ele>183.6</ele>
        <time>2019-07-15T08:50:20Z</time>
      </trkpt>
      <trkpt lat="43.1680550" lon="-1.2601370">
        <ele>184.1</ele>
        <time>2019-07-15T08:50:25Z</time>
      </trkpt>
      <trkpt lat="43.1680860" lon="-1.2602660">
        <ele>184.5</ele>
        <time>2019-07-15T08:50:30Z</time>
      </trkpt>
      <trkpt lat="43.1681060" lon="-1.2604100">
        <ele>185.0</ele>
        <time>2019-07-15T08:50:35Z</time>
      </trkpt>
      <trkpt lat="43.1681350" lon="-1.2605520">
        <ele>185.5</ele>
        <time>2019-07-15T08:50:40Z</time>
      </trkpt>
      <trkpt lat="43.1681640" lon="-1.2606690">
        <ele>185.9</ele>
        <time>2019-07-15T08:50:45Z</time>
      </trkpt>
      <trkpt lat="43.1681990" lon="-1.2608070">
        <ele>186.4</ele>
        <time>2019-07-15T08:50:51Z</time>
      </trkpt>
      <trkpt lat="43.1682260" lon="-1.2609420">
        <ele>186.8</ele>
        <time>2019-07-15T08:50:57Z</time>
      </trkpt>
      <trkpt lat="43.1682510" lon="-1.2610840">
        <ele>187.3</ele>
        <time>2019-07-15T08:51:02Z</time>
      </trkpt>
      <trkpt lat="43.1682890" lon="-1.2612140">
        <ele>187.7</ele>
        <time>2019-07-15T08:51:06Z</time>
      </trkpt>
      <trkpt lat="43.1683120" lon="-1.2613530">
        <ele>188.1</ele>
        <time>2019-07-15T08:51:10Z</time>
      </trkpt>
      <trkpt lat="43.1683340" lon="-1.2614820">
        <ele>188.4</ele>
        <time>2019-07-15T08:51:14Z</time>
      </trkpt>
      <trkpt lat="43.1683580" lon="-1.2616090">
        <ele>188.8</ele>
        <time>2019-07-15T08:51:18Z</time>
      </trkpt>
      <trkpt lat="43.1683840" lon="-1.2617330">
        <ele>189.1</ele>
        <time>2019-07-15T08:51:22Z</time>
      </trkpt>
      <trkpt lat="43.1684110" lon="-1.2618790">
        <ele>189.2</ele>
        <time>2019-07-15T08:51:27Z</time>
      </trkpt>
      <trkpt lat="43.1684450" lon="-1.2620110">
        <ele>189.0</ele>
        <time>2019-07-15T08:51:32Z</time>
      </trkpt>
      <trkpt lat="43.1684800" lon="-1.2621540">
        <ele>188.8</ele>
        <time>2019-07-15T08:51:37Z</time>
      </trkpt>
      <trkpt lat="43.1685250" lon="-1.2622780">
        <ele>188.6</ele>
        <time>2019-07-15T08:51:41Z</time>
      </trkpt>
      <trkpt lat="43.1685690" lon="-1.2624010">
        <ele>188.5</ele>
        <time>2019-07-15T08:51:44Z</time>
      </trkpt>
      <trkpt lat="43.1686290" lon="-1.2625430">
        <ele>188.3</ele>
        <time>2019-07-15T08:51:47Z</time>
      </trkpt>
      <trkpt lat="43.1687050" lon="-1.2626870">
        <ele>188.2</ele>
        <time>2019-07-15T08:51:50Z</time>
      </trkpt>
      <trkpt lat="43.1687880" lon="-1.2628260">
        <ele>188.0</ele>
        <time>2019-07-15T08:51:53Z</time>
      </trkpt>
      <trkpt lat="43.1688710" lon="-1.2629580">
        <ele>187.8</ele>
        <time>2019-07-15T08:51:56Z</time>
      </trkpt>
      <trkpt lat="43.1689500" lon="-1.2630840">
        <ele>187.5</ele>
        <time>2019-07-15T08:51:59Z</time>
      </trkpt>
      <trkpt lat="43.1690250" lon="-1.2632160">
        <ele>187.3</ele>
        <time>2019-07-15T08:52:02Z</time>
      </trkpt>
      <trkpt lat="43.1690910" lon="-1.2633450">
        <ele>187.0</ele>
        <time>2019-07-15T08:52:05Z</time>
      </trkpt>
      <trkpt lat="43.1691530" lon="-1.2634670">
        <ele>186.6</ele>
        <time>2019-07-15T08:52:08Z</time>
      </trkpt>
      <trkpt lat="43.1692190" lon="-1.2635840">
        <ele>186.2</ele>
        <time>2019-07-15T08:52:11Z</time>
      </trkpt>
      <trkpt lat="43.1692900" lon="-1.2637050">
        <ele>185.7</ele>
        <time>2019-07-15T08:52:14Z</time>
      </trkpt>
      <trkpt lat="43.1693680" lon="-1.2638270">
        <ele>185.3</ele>
        <time>2019-07-15T08:52:17Z</time>
      </trkpt>
      <trkpt lat="43.1694440" lon="-1.2639520">
        <ele>184.8</ele>
        <time>2019-07-15T08:52:20Z</time>
      </trkpt>
      <trkpt lat="43.1695200" lon="-1.2640790">
        <ele>184.2</ele>
        <time>2019-07-15T08:52:23Z</time>
      </trkpt>
      <trkpt lat="43.1695960" lon="-1.2642060">
        <ele>183.5</ele>
        <time>2019-07-15T08:52:26Z</time>
      </trkpt>
      <trkpt lat="43.1696700" lon="-1.2643430">
        <ele>182.8</ele>
        <time>2019-07-15T08:52:29Z</time>
      </trkpt>
      <trkpt lat="43.1697520" lon="-1.2644820">
        <ele>181.9</ele>
        <time>2019-07-15T08:52:32Z</time>
      </trkpt>
      <trkpt lat="43.1698320" lon="-1.2646330">
        <ele>181.2</ele>
        <time>2019-07-15T08:52:35Z</time>
      </trkpt>
      <trkpt lat="43.1698830" lon="-1.2647490">
        <ele>180.6</ele>
        <time>2019-07-15T08:52:37Z</time>
      </trkpt>
      <trkpt lat="43.1699380" lon="-1.2648880">
        <ele>180.0</ele>
        <time>2019-07-15T08:52:39Z</time>
      </trkpt>
      <trkpt lat="43.1699940" lon="-1.2650490">
        <ele>179.4</ele>
        <time>2019-07-15T08:52:41Z</time>
      </trkpt>
      <trkpt lat="43.1700430" lon="-1.2652440">
        <ele>178.9</ele>
        <time>2019-07-15T08:52:43Z</time>
      </trkpt>
      <trkpt lat="43.1700690" lon="-1.2654690">
        <ele>178.5</ele>
        <time>2019-07-15T08:52:45Z</time>
      </trkpt>
      <trkpt lat="43.1700840" lon="-1.2657050">
        <ele>178.3</ele>
        <time>2019-07-15T08:52:47Z</time>
      </trkpt>
      <trkpt lat="43.1701020" lon="-1.2659540">
        <ele>178.3</ele>
        <time>2019-07-15T08:52:49Z</time>
      </trkpt>
      <trkpt lat="43.1701150" lon="-1.2660820">
        <ele>178.2</ele>
        <time>2019-07-15T08:52:50Z</time>
      </trkpt>
      <trkpt lat="43.1701310" lon="-1.2662110">
        <ele>178.2</ele>
        <time>2019-07-15T08:52:51Z</time>
      </trkpt>
      <trkpt lat="43.1701490" lon="-1.2663420">
        <ele>178.2</ele>
        <time>2019-07-15T08:52:52Z</time>
      </trkpt>
      <trkpt lat="43.1701730" lon="-1.2664640">
        <ele>178.2</ele>
        <time>2019-07-15T08:52:53Z</time>
      </trkpt>
      <trkpt lat="43.1702010" lon="-1.2665880">
        <ele>178.1</ele>
        <time>2019-07-15T08:52:54Z</time>
      </trkpt>
      <trkpt lat="43.1702350" lon="-1.2667100">
        <ele>178.1</ele>
        <time>2019-07-15T08:52:55Z</time>
      </trkpt>
      <trkpt lat="43.1702780" lon="-1.2668230">
        <ele>178.1</ele>
        <time>2019-07-15T08:52:56Z</time>
      </trkpt>
      <trkpt lat="43.1703280" lon="-1.2669260">
        <ele>178.2</ele>
        <time>2019-07-15T08:52:57Z</time>
      </trkpt>
      <trkpt lat="43.1704400" lon="-1.2670980">
        <ele>178.3</ele>
        <time>2019-07-15T08:52:59Z</time>
      </trkpt>
      <trkpt lat="43.1705670" lon="-1.2672270">
        <ele>178.4</ele>
        <time>2019-07-15T08:53:01Z</time>
      </trkpt>
      <trkpt lat="43.1706860" lon="-1.2673360">
        <ele>178.4</ele>
        <time>2019-07-15T08:53:03Z</time>
      </trkpt>
      <trkpt lat="43.1708040" lon="-1.2674200">
        <ele>178.5</ele>
        <time>2019-07-15T08:53:05Z</time>
      </trkpt>
      <trkpt lat="43.1709160" lon="-1.2674840">
        <ele>178.5</ele>
        <time>2019-07-15T08:53:07Z</time>
      </trkpt>
      <trkpt lat="43.1710170" lon="-1.2675340">
        <ele>178.5</ele>
        <time>2019-07-15T08:53:09Z</time>
      </trkpt>
      <trkpt lat="43.1711200" lon="-1.2675880">
        <ele>178.5</ele>
        <time>2019-07-15T08:53:11Z</time>
      </trkpt>
      <trkpt lat="43.1712170" lon="-1.2676450">
        <ele>178.4</ele>
        <time>2019-07-15T08:53:13Z</time>
      </trkpt>
      <trkpt lat="43.1713110" lon="-1.2676950">
        <ele>178.4</ele>
        <time>2019-07-15T08:53:15Z</time>
      </trkpt>
      <trkpt lat="43.1714000" lon="-1.2677430">
        <ele>178.3</ele>
        <time>2019-07-15T08:53:17Z</time>
      </trkpt>
      <trkpt lat="43.1714870" lon="-1.2677900">
        <ele>178.3</ele>
        <time>2019-07-15T08:53:19Z</time>
      </trkpt>
      <trkpt lat="43.1715720" lon="-1.2678330">
        <ele>178.2</ele>
        <time>2019-07-15T08:53:21Z</time>
      </trkpt>
      <trkpt lat="43.1716720" lon="-1.2678910">
        <ele>178.1</ele>
        <time>2019-07-15T08:53:24Z</time>
      </trkpt>
      <trkpt lat="43.1717680" lon="-1.2679410">
        <ele>178.0</ele>
        <time>2019-07-15T08:53:27Z</time>
      </trkpt>
      <trkpt lat="43.1718580" lon="-1.2679770">
        <ele>177.9</ele>
        <time>2019-07-15T08:53:30Z</time>
      </trkpt>
      <trkpt lat="43.1719570" lon="-1.2680580">
        <ele>177.7</ele>
        <time>2019-07-15T08:53:33Z</time>
      </trkpt>
      <trkpt lat="43.1720830" lon="-1.2681390">
        <ele>177.6</ele>
        <time>2019-07-15T08:53:36Z</time>
      </trkpt>
      <trkpt lat="43.1721880" lon="-1.2682040">
        <ele>177.4</ele>
        <time>2019-07-15T08:53:39Z</time>
      </trkpt>
      <trkpt lat="43.1722980" lon="-1.2682600">
        <ele>177.3</ele>
        <time>2019-07-15T08:53:42Z</time>
      </trkpt>
      <trkpt lat="43.1724020" lon="-1.2683260">
        <ele>177.1</ele>
        <time>2019-07-15T08:53:45Z</time>
      </trkpt>
      <trkpt lat="43.1725030" lon="-1.2683980">
        <ele>176.8</ele>
        <time>2019-07-15T08:53:48Z</time>
      </trkpt>
      <trkpt lat="43.1726140" lon="-1.2684860">
        <ele>176.5</ele>
        <time>2019-07-15T08:53:51Z</time>
      </trkpt>
      <trkpt lat="43.1727100" lon="-1.2685780">
        <ele>176.2</ele>
        <time>2019-07-15T08:53:54Z</time>
      </trkpt>
      <trkpt lat="43.1727920" lon="-1.2686710">
        <ele>175.9</ele>
        <time>2019-07-15T08:53:57Z</time>
      </trkpt>
      <trkpt lat="43.1728660" lon="-1.2687710">
        <ele>175.7</ele>
        <time>2019-07-15T08:54:00Z</time>
      </trkpt>
      <trkpt lat="43.1729320" lon="-1.2688860">
        <ele>175.4</ele>
        <time>2019-07-15T08:54:03Z</time>
      </trkpt>
      <trkpt lat="43.1729800" lon="-1.2690130">
        <ele>175.2</ele>
        <time>2019-07-15T08:54:06Z</time>
      </trkpt>
      <trkpt lat="43.1730210" lon="-1.2691710">
        <ele>174.9</ele>
        <time>2019-07-15T08:54:09Z</time>
      </trkpt>
      <trkpt lat="43.1730500" lon="-1.2693330">
        <ele>174.7</ele>
        <time>2019-07-15T08:54:12Z</time>
      </trkpt>
      <trkpt lat="43.1730670" lon="-1.2693830">
        <ele>174.6</ele>
        <time>2019-07-15T08:54:18Z</time>
      </trkpt>
      <trkpt lat="43.1731150" lon="-1.2693020">
        <ele>174.5</ele>
        <time>2019-07-15T08:54:30Z</time>
      </trkpt>
      <trkpt lat="43.1731270" lon="-1.2695170">
        <ele>174.2</ele>
        <time>2019-07-15T08:55:13Z</time>
      </trkpt>
      <trkpt lat="43.1731320" lon="-1.2696830">
        <ele>173.9</ele>
        <time>2019-07-15T08:55:16Z</time>
      </trkpt>
      <trkpt lat="43.1731230" lon="-1.2698100">
        <ele>173.7</ele>
        <time>2019-07-15T08:55:18Z</time>
      </trkpt>
      <trkpt lat="43.1731180" lon="-1.2699560">
        <ele>173.5</ele>
        <time>2019-07-15T08:55:20Z</time>
      </trkpt>
      <trkpt lat="43.1731150" lon="-1.2701030">
        <ele>173.2</ele>
        <time>2019-07-15T08:55:22Z</time>
      </trkpt>
      <trkpt lat="43.1731150" lon="-1.2702510">
        <ele>173.0</ele>
        <time>2019-07-15T08:55:24Z</time>
      </trkpt>
      <trkpt lat="43.1731050" lon="-1.2704260">
        <ele>172.9</ele>
        <time>2019-07-15T08:55:26Z</time>
      </trkpt>
      <trkpt lat="43.1730990" lon="-1.2706020">
        <ele>172.8</ele>
        <time>2019-07-15T08:55:28Z</time>
      </trkpt>
      <trkpt lat="43.1730930" lon="-1.2707780">
        <ele>172.7</ele>
        <time>2019-07-15T08:55:30Z</time>
      </trkpt>
      <trkpt lat="43.1730840" lon="-1.2709540">
        <ele>172.8</ele>
        <time>2019-07-15T08:55:32Z</time>
      </trkpt>
      <trkpt lat="43.1730800" lon="-1.2711270">
        <ele>172.8</ele>
        <time>2019-07-15T08:55:34Z</time>
      </trkpt>
      <trkpt lat="43.1730740" lon="-1.2713090">
        <ele>172.9</ele>
        <time>2019-07-15T08:55:36Z</time>
      </trkpt>
      <trkpt lat="43.1730720" lon="-1.2714850">
        <ele>173.0</ele>
        <time>2019-07-15T08:55:38Z</time>
      </trkpt>
      <trkpt lat="43.1730660" lon="-1.2716600">
        <ele>173.2</ele>
        <time>2019-07-15T08:55:40Z</time>
      </trkpt>
      <trkpt lat="43.1730600" lon="-1.2718350">
        <ele>173.4</ele>
        <time>2019-07-15T08:55:42Z</time>
      </trkpt>
      <trkpt lat="43.1730570" lon="-1.2720070">
        <ele>173.6</ele>
        <time>2019-07-15T08:55:44Z</time>
      </trkpt>
      <trkpt lat="43.1730530" lon="-1.2721740">
        <ele>173.8</ele>
        <time>2019-07-15T08:55:46Z</time>
      </trkpt>
      <trkpt lat="43.1730480" lon="-1.2723400">
        <ele>173.9</ele>
        <time>2019-07-15T08:55:48Z</time>
      </trkpt>
      <trkpt lat="43.1730400" lon="-1.2725050">
        <ele>174.1</ele>
        <time>2019-07-15T08:55:50Z</time>
      </trkpt>
      <trkpt lat="43.1730340" lon="-1.2726560">
        <ele>174.2</ele>
        <time>2019-07-15T08:55:52Z</time>
      </trkpt>
      <trkpt lat="43.1730240" lon="-1.2728020">
        <ele>174.3</ele>
        <time>2019-07-15T08:55:54Z</time>
      </trkpt>
      <trkpt lat="43.1730180" lon="-1.2729360">
        <ele>174.4</ele>
        <time>2019-07-15T08:55:56Z</time>
      </trkpt>
      <trkpt lat="43.1730150" lon="-1.2730700">
        <ele>174.5</ele>
        <time>2019-07-15T08:55:58Z</time>
      </trkpt>
      <trkpt lat="43.1730110" lon="-1.2732010">
        <ele>174.6</ele>
        <time>2019-07-15T08:56:00Z</time>
      </trkpt>
      <trkpt lat="43.1730080" lon="-1.2733310">
        <ele>174.8</ele>
        <time>2019-07-15T08:56:02Z</time>
      </trkpt>
      <trkpt lat="43.1730040" lon="-1.2735000">
        <ele>174.9</ele>
        <time>2019-07-15T08:56:05Z</time>
      </trkpt>
      <trkpt lat="43.1730030" lon="-1.2736890">
        <ele>175.4</ele>
        <time>2019-07-15T08:56:08Z</time>
      </trkpt>
      <trkpt lat="43.1729920" lon="-1.2738270">
        <ele>175.7</ele>
        <time>2019-07-15T08:56:10Z</time>
      </trkpt>
      <trkpt lat="43.1729830" lon="-1.2739620">
        <ele>176.1</ele>
        <time>2019-07-15T08:56:12Z</time>
      </trkpt>
      <trkpt lat="43.1729770" lon="-1.2740850">
        <ele>176.5</ele>
        <time>2019-07-15T08:56:14Z</time>
      </trkpt>
      <trkpt lat="43.1729700" lon="-1.2742210">
        <ele>176.9</ele>
        <time>2019-07-15T08:56:16Z</time>
      </trkpt>
      <trkpt lat="43.1729680" lon="-1.2743530">
        <ele>177.2</ele>
        <time>2019-07-15T08:56:18Z</time>
      </trkpt>
      <trkpt lat="43.1729620" lon="-1.2744790">
        <ele>177.5</ele>
        <time>2019-07-15T08:56:20Z</time>
      </trkpt>
      <trkpt lat="43.1729590" lon="-1.2746040">
        <ele>177.8</ele>
        <time>2019-07-15T08:56:22Z</time>
      </trkpt>
      <trkpt lat="43.1729560" lon="-1.2747300">
        <ele>178.0</ele>
        <time>2019-07-15T08:56:24Z</time>
      </trkpt>
      <trkpt lat="43.1729520" lon="-1.2748590">
        <ele>178.2</ele>
        <time>2019-07-15T08:56:26Z</time>
      </trkpt>
      <trkpt lat="43.1729460" lon="-1.2750470">
        <ele>178.6</ele>
        <time>2019-07-15T08:56:29Z</time>
      </trkpt>
      <trkpt lat="43.1729390" lon="-1.2751740">
        <ele>178.9</ele>
        <time>2019-07-15T08:56:31Z</time>
      </trkpt>
      <trkpt lat="43.1729390" lon="-1.2753500">
        <ele>179.2</ele>
        <time>2019-07-15T08:56:34Z</time>
      </trkpt>
      <trkpt lat="43.1729340" lon="-1.2755320">
        <ele>179.6</ele>
        <time>2019-07-15T08:56:37Z</time>
      </trkpt>
      <trkpt lat="43.1729320" lon="-1.2756590">
        <ele>179.8</ele>
        <time>2019-07-15T08:56:39Z</time>
      </trkpt>
      <trkpt lat="43.1729300" lon="-1.2758460">
        <ele>180.1</ele>
        <time>2019-07-15T08:56:42Z</time>
      </trkpt>
      <trkpt lat="43.1729290" lon="-1.2759750">
        <ele>180.2</ele>
        <time>2019-07-15T08:56:44Z</time>
      </trkpt>
      <trkpt lat="43.1729300" lon="-1.2761480">
        <ele>180.3</ele>
        <time>2019-07-15T08:56:47Z</time>
      </trkpt>
      <trkpt lat="43.1729260" lon="-1.2762720">
        <ele>180.4</ele>
        <time>2019-07-15T08:56:49Z</time>
      </trkpt>
      <trkpt lat="43.1729220" lon="-1.2763960">
        <ele>180.6</ele>
        <time>2019-07-15T08:56:51Z</time>
      </trkpt>
      <trkpt lat="43.1729200" lon="-1.2765210">
        <ele>180.5</ele>
        <time>2019-07-15T08:56:53Z</time>
      </trkpt>
      <trkpt lat="43.1729190" lon="-1.2766480">
        <ele>180.3</ele>
        <time>2019-07-15T08:56:55Z</time>
      </trkpt>
      <trkpt lat="43.1729150" lon="-1.2767780">
        <ele>180.2</ele>
        <time>2019-07-15T08:56:57Z</time>
      </trkpt>
      <trkpt lat="43.1729090" lon="-1.2769050">
        <ele>180.3</ele>
        <time>2019-07-15T08:56:59Z</time>
      </trkpt>
      <trkpt lat="43.1729000" lon="-1.2770810">
        <ele>180.9</ele>
        <time>2019-07-15T08:57:02Z</time>
      </trkpt>
      <trkpt lat="43.1728960" lon="-1.2772600">
        <ele>181.7</ele>
        <time>2019-07-15T08:57:05Z</time>
      </trkpt>
      <trkpt lat="43.1728960" lon="-1.2774330">
        <ele>182.3</ele>
        <time>2019-07-15T08:57:08Z</time>
      </trkpt>
      <trkpt lat="43.1729050" lon="-1.2776110">
        <ele>182.8</ele>
        <time>2019-07-15T08:57:11Z</time>
      </trkpt>
      <trkpt lat="43.1729240" lon="-1.2777330">
        <ele>183.2</ele>
        <time>2019-07-15T08:57:13Z</time>
      </trkpt>
      <trkpt lat="43.1729580" lon="-1.2778540">
        <ele>183.4</ele>
        <time>2019-07-15T08:57:15Z</time>
      </trkpt>
      <trkpt lat="43.1729950" lon="-1.2779670">
        <ele>183.5</ele>
        <time>2019-07-15T08:57:17Z</time>
      </trkpt>
      <trkpt lat="43.1730640" lon="-1.2781110">
        <ele>183.6</ele>
        <time>2019-07-15T08:57:20Z</time>
      </trkpt>
      <trkpt lat="43.1731290" lon="-1.2782040">
        <ele>183.6</ele>
        <time>2019-07-15T08:57:22Z</time>
      </trkpt>
      <trkpt lat="43.1732020" lon="-1.2782900">
        <ele>182.3</ele>
        <time>2019-07-15T08:57:24Z</time>
      </trkpt>
      <trkpt lat="43.1733170" lon="-1.2783750">
        <ele>180.6</ele>
        <time>2019-07-15T08:57:27Z</time>
      </trkpt>
      <trkpt lat="43.1734040" lon="-1.2784140">
        <ele>179.7</ele>
        <time>2019-07-15T08:57:29Z</time>
      </trkpt>
      <trkpt lat="43.1734920" lon="-1.2784430">
        <ele>179.0</ele>
        <time>2019-07-15T08:57:31Z</time>
      </trkpt>
      <trkpt lat="43.1735810" lon="-1.2784740">
        <ele>178.2</ele>
        <time>2019-07-15T08:57:33Z</time>
      </trkpt>
      <trkpt lat="43.1737050" lon="-1.2785180">
        <ele>177.4</ele>
        <time>2019-07-15T08:57:36Z</time>
      </trkpt>
      <trkpt lat="43.1738190" lon="-1.2785780">
        <ele>176.8</ele>
        <time>2019-07-15T08:57:39Z</time>
      </trkpt>
      <trkpt lat="43.1739220" lon="-1.2786560">
        <ele>176.9</ele>
        <time>2019-07-15T08:57:42Z</time>
      </trkpt>
      <trkpt lat="43.1740230" lon="-1.2787480">
        <ele>177.0</ele>
        <time>2019-07-15T08:57:45Z</time>
      </trkpt>
      <trkpt lat="43.1741020" lon="-1.2788460">
        <ele>177.0</ele>
        <time>2019-07-15T08:57:48Z</time>
      </trkpt>
      <trkpt lat="43.1741730" lon="-1.2789500">
        <ele>177.1</ele>
        <time>2019-07-15T08:57:51Z</time>
      </trkpt>
      <trkpt lat="43.1742350" lon="-1.2790750">
        <ele>177.2</ele>
        <time>2019-07-15T08:57:54Z</time>
      </trkpt>
      <trkpt lat="43.1742860" lon="-1.2792080">
        <ele>177.3</ele>
        <time>2019-07-15T08:57:57Z</time>
      </trkpt>
      <trkpt lat="43.1743250" lon="-1.2793350">
        <ele>177.4</ele>
        <time>2019-07-15T08:58:00Z</time>
      </trkpt>
      <trkpt lat="43.1743560" lon="-1.2794660">
        <ele>177.5</ele>
        <time>2019-07-15T08:58:03Z</time>
      </trkpt>
      <trkpt lat="43.1743800" lon="-1.2795990">
        <ele>177.6</ele>
        <time>2019-07-15T08:58:06Z</time>
      </trkpt>
      <trkpt lat="43.1744050" lon="-1.2797490">
        <ele>177.7</ele>
        <time>2019-07-15T08:58:09Z</time>
      </trkpt>
      <trkpt lat="43.1744240" lon="-1.2798990">
        <ele>177.7</ele>
        <time>2019-07-15T08:58:12Z</time>
      </trkpt>
      <trkpt lat="43.1744400" lon="-1.2800490">
        <ele>177.8</ele>
        <time>2019-07-15T08:58:15Z</time>
      </trkpt>
      <trkpt lat="43.1744570" lon="-1.2802020">
        <ele>177.9</ele>
        <time>2019-07-15T08:58:18Z</time>
      </trkpt>
      <trkpt lat="43.1744720" lon="-1.2803550">
        <ele>178.1</ele>
        <time>2019-07-15T08:58:21Z</time>
      </trkpt>
      <trkpt lat="43.1744890" lon="-1.2805110">
        <ele>178.3</ele>
        <time>2019-07-15T08:58:24Z</time>
      </trkpt>
      <trkpt lat="43.1745010" lon="-1.2806640">
        <ele>178.5</ele>
        <time>2019-07-15T08:58:27Z</time>
      </trkpt>
      <trkpt lat="43.1745170" lon="-1.2808170">
        <ele>178.6</ele>
        <time>2019-07-15T08:58:30Z</time>
      </trkpt>
      <trkpt lat="43.1745340" lon="-1.2809670">
        <ele>178.8</ele>
        <time>2019-07-15T08:58:33Z</time>
      </trkpt>
      <trkpt lat="43.1745490" lon="-1.2811070">
        <ele>178.9</ele>
        <time>2019-07-15T08:58:36Z</time>
      </trkpt>
      <trkpt lat="43.1745670" lon="-1.2812560">
        <ele>179.0</ele>
        <time>2019-07-15T08:58:39Z</time>
      </trkpt>
      <trkpt lat="43.1745830" lon="-1.2814090">
        <ele>179.1</ele>
        <time>2019-07-15T08:58:42Z</time>
      </trkpt>
      <trkpt lat="43.1745990" lon="-1.2815570">
        <ele>179.3</ele>
        <time>2019-07-15T08:58:45Z</time>
      </trkpt>
      <trkpt lat="43.1746170" lon="-1.2817120">
        <ele>179.4</ele>
        <time>2019-07-15T08:58:48Z</time>
      </trkpt>
      <trkpt lat="43.1746300" lon="-1.2818660">
        <ele>179.7</ele>
        <time>2019-07-15T08:58:51Z</time>
      </trkpt>
      <trkpt lat="43.1746450" lon="-1.2820170">
        <ele>180.0</ele>
        <time>2019-07-15T08:58:54Z</time>
      </trkpt>
      <trkpt lat="43.1746600" lon="-1.2821750">
        <ele>180.3</ele>
        <time>2019-07-15T08:58:57Z</time>
      </trkpt>
      <trkpt lat="43.1746780" lon="-1.2823390">
        <ele>180.6</ele>
        <time>2019-07-15T08:59:00Z</time>
      </trkpt>
      <trkpt lat="43.1746920" lon="-1.2825040">
        <ele>180.9</ele>
        <time>2019-07-15T08:59:03Z</time>
      </trkpt>
      <trkpt lat="43.1747090" lon="-1.2826660">
        <ele>181.2</ele>
        <time>2019-07-15T08:59:06Z</time>
      </trkpt>
      <trkpt lat="43.1747280" lon="-1.2828300">
        <ele>181.5</ele>
        <time>2019-07-15T08:59:09Z</time>
      </trkpt>
      <trkpt lat="43.1747470" lon="-1.2830040">
        <ele>181.8</ele>
        <time>2019-07-15T08:59:12Z</time>
      </trkpt>
      <trkpt lat="43.1747670" lon="-1.2831700">
        <ele>182.0</ele>
        <time>2019-07-15T08:59:15Z</time>
      </trkpt>
      <trkpt lat="43.1747870" lon="-1.2833400">
        <ele>182.3</ele>
        <time>2019-07-15T08:59:18Z</time>
      </trkpt>
      <trkpt lat="43.1748040" lon="-1.2835150">
        <ele>182.7</ele>
        <time>2019-07-15T08:59:21Z</time>
      </trkpt>
      <trkpt lat="43.1748240" lon="-1.2836940">
        <ele>183.0</ele>
        <time>2019-07-15T08:59:24Z</time>
      </trkpt>
      <trkpt lat="43.1748400" lon="-1.2838720">
        <ele>183.3</ele>
        <time>2019-07-15T08:59:27Z</time>
      </trkpt>
      <trkpt lat="43.1748520" lon="-1.2839960">
        <ele>183.6</ele>
        <time>2019-07-15T08:59:29Z</time>
      </trkpt>
      <trkpt lat="43.1748690" lon="-1.2841740">
        <ele>183.9</ele>
        <time>2019-07-15T08:59:32Z</time>
      </trkpt>
      <trkpt lat="43.1748870" lon="-1.2843540">
        <ele>184.2</ele>
        <time>2019-07-15T08:59:35Z</time>
      </trkpt>
      <trkpt lat="43.1749010" lon="-1.2845270">
        <ele>184.5</ele>
        <time>2019-07-15T08:59:38Z</time>
      </trkpt>
      <trkpt lat="43.1749230" lon="-1.2846940">
        <ele>184.7</ele>
        <time>2019-07-15T08:59:41Z</time>
      </trkpt>
      <trkpt lat="43.1749390" lon="-1.2848680">
        <ele>185.0</ele>
        <time>2019-07-15T08:59:44Z</time>
      </trkpt>
      <trkpt lat="43.1749560" lon="-1.2850350">
        <ele>185.4</ele>
        <time>2019-07-15T08:59:47Z</time>
      </trkpt>
      <trkpt lat="43.1749720" lon="-1.2852000">
        <ele>185.7</ele>
        <time>2019-07-15T08:59:50Z</time>
      </trkpt>
      <trkpt lat="43.1749890" lon="-1.2853630">
        <ele>186.0</ele>
        <time>2019-07-15T08:59:53Z</time>
      </trkpt>
      <trkpt lat="43.1750080" lon="-1.2855280">
        <ele>186.3</ele>
        <time>2019-07-15T08:59:56Z</time>
      </trkpt>
      <trkpt lat="43.1750270" lon="-1.2856970">
        <ele>186.6</ele>
        <time>2019-07-15T08:59:59Z</time>
      </trkpt>
      <trkpt lat="43.1750450" lon="-1.2858660">
        <ele>187.0</ele>
        <time>2019-07-15T09:00:02Z</time>
      </trkpt>
      <trkpt lat="43.1750630" lon="-1.2860370">
        <ele>187.3</ele>
        <time>2019-07-15T09:00:05Z</time>
      </trkpt>
      <trkpt lat="43.1750810" lon="-1.2862070">
        <ele>187.6</ele>
        <time>2019-07-15T09:00:08Z</time>
      </trkpt>
      <trkpt lat="43.1750990" lon="-1.2863750">
        <ele>188.0</ele>
        <time>2019-07-15T09:00:11Z</time>
      </trkpt>
      <trkpt lat="43.1751130" lon="-1.2865410">
        <ele>188.3</ele>
        <time>2019-07-15T09:00:14Z</time>
      </trkpt>
      <trkpt lat="43.1751290" lon="-1.2867130">
        <ele>188.6</ele>
        <time>2019-07-15T09:00:17Z</time>
      </trkpt>
      <trkpt lat="43.1751380" lon="-1.2868920">
        <ele>189.0</ele>
        <time>2019-07-15T09:00:20Z</time>
      </trkpt>
      <trkpt lat="43.1751630" lon="-1.2870470">
        <ele>189.3</ele>
        <time>2019-07-15T09:00:23Z</time>
      </trkpt>
      <trkpt lat="43.1751780" lon="-1.2871960">
        <ele>189.6</ele>
        <time>2019-07-15T09:00:26Z</time>
      </trkpt>
      <trkpt lat="43.1751940" lon="-1.2873520">
        <ele>189.5</ele>
        <time>2019-07-15T09:00:29Z</time>
      </trkpt>
      <trkpt lat="43.1752140" lon="-1.2875070">
        <ele>189.2</ele>
        <time>2019-07-15T09:00:32Z</time>
      </trkpt>
      <trkpt lat="43.1752280" lon="-1.2876610">
        <ele>188.9</ele>
        <time>2019-07-15T09:00:35Z</time>
      </trkpt>
      <trkpt lat="43.1752480" lon="-1.2878120">
        <ele>188.6</ele>
        <time>2019-07-15T09:00:38Z</time>
      </trkpt>
      <trkpt lat="43.1752630" lon="-1.2879680">
        <ele>188.3</ele>
        <time>2019-07-15T09:00:41Z</time>
      </trkpt>
      <trkpt lat="43.1752790" lon="-1.2881220">
        <ele>188.0</ele>
        <time>2019-07-15T09:00:44Z</time>
      </trkpt>
      <trkpt lat="43.1752940" lon="-1.2882820">
        <ele>187.7</ele>
        <time>2019-07-15T09:00:47Z</time>
      </trkpt>
      <trkpt lat="43.1753110" lon="-1.2884360">
        <ele>187.4</ele>
        <time>2019-07-15T09:00:50Z</time>
      </trkpt>
      <trkpt lat="43.1753260" lon="-1.2885990">
        <ele>187.4</ele>
        <time>2019-07-15T09:00:53Z</time>
      </trkpt>
      <trkpt lat="43.1753410" lon="-1.2887540">
        <ele>187.4</ele>
        <time>2019-07-15T09:00:56Z</time>
      </trkpt>
      <trkpt lat="43.1753610" lon="-1.2889220">
        <ele>187.4</ele>
        <time>2019-07-15T09:00:59Z</time>
      </trkpt>
      <trkpt lat="43.1753770" lon="-1.2890910">
        <ele>187.4</ele>
        <time>2019-07-15T09:01:02Z</time>
      </trkpt>
      <trkpt lat="43.1753940" lon="-1.2892510">
        <ele>187.5</ele>
        <time>2019-07-15T09:01:05Z</time>
      </trkpt>
      <trkpt lat="43.1754130" lon="-1.2894140">
        <ele>187.5</ele>
        <time>2019-07-15T09:01:08Z</time>
      </trkpt>
      <trkpt lat="43.1754300" lon="-1.2895710">
        <ele>187.7</ele>
        <time>2019-07-15T09:01:11Z</time>
      </trkpt>
      <trkpt lat="43.1754490" lon="-1.2897300">
        <ele>187.9</ele>
        <time>2019-07-15T09:01:14Z</time>
      </trkpt>
      <trkpt lat="43.1754670" lon="-1.2898840">
        <ele>188.1</ele>
        <time>2019-07-15T09:01:17Z</time>
      </trkpt>
      <trkpt lat="43.1754820" lon="-1.2900410">
        <ele>188.2</ele>
        <time>2019-07-15T09:01:20Z</time>
      </trkpt>
      <trkpt lat="43.1754950" lon="-1.2901890">
        <ele>188.4</ele>
        <time>2019-07-15T09:01:23Z</time>
      </trkpt>
      <trkpt lat="43.1755060" lon="-1.2903490">
        <ele>188.5</ele>
        <time>2019-07-15T09:01:26Z</time>
      </trkpt>
      <trkpt lat="43.1755250" lon="-1.2904980">
        <ele>188.5</ele>
        <time>2019-07-15T09:01:29Z</time>
      </trkpt>
      <trkpt lat="43.1755440" lon="-1.2906470">
        <ele>188.6</ele>
        <time>2019-07-15T09:01:32Z</time>
      </trkpt>
      <trkpt lat="43.1755610" lon="-1.2907910">
        <ele>188.6</ele>
        <time>2019-07-15T09:01:35Z</time>
      </trkpt>
      <trkpt lat="43.1755770" lon="-1.2909390">
        <ele>188.7</ele>
        <time>2019-07-15T09:01:38Z</time>
      </trkpt>
      <trkpt lat="43.1755940" lon="-1.2910860">
        <ele>188.8</ele>
        <time>2019-07-15T09:01:41Z</time>
      </trkpt>
      <trkpt lat="43.1756090" lon="-1.2912370">
        <ele>188.9</ele>
        <time>2019-07-15T09:01:44Z</time>
      </trkpt>
      <trkpt lat="43.1756250" lon="-1.2913790">
        <ele>189.0</ele>
        <time>2019-07-15T09:01:47Z</time>
      </trkpt>
      <trkpt lat="43.1756380" lon="-1.2915290">
        <ele>189.2</ele>
        <time>2019-07-15T09:01:50Z</time>
      </trkpt>
      <trkpt lat="43.1756560" lon="-1.2916880">
        <ele>189.5</ele>
        <time>2019-07-15T09:01:53Z</time>
      </trkpt>
      <trkpt lat="43.1756720" lon="-1.2918310">
        <ele>189.7</ele>
        <time>2019-07-15T09:01:56Z</time>
      </trkpt>
      <trkpt lat="43.1756910" lon="-1.2919840">
        <ele>190.0</ele>
        <time>2019-07-15T09:01:59Z</time>
      </trkpt>
      <trkpt lat="43.1757090" lon="-1.2921360">
        <ele>190.2</ele>
        <time>2019-07-15T09:02:02Z</time>
      </trkpt>
      <trkpt lat="43.1757250" lon="-1.2922860">
        <ele>190.4</ele>
        <time>2019-07-15T09:02:05Z</time>
      </trkpt>
      <trkpt lat="43.1757400" lon="-1.2924290">
        <ele>190.6</ele>
        <time>2019-07-15T09:02:08Z</time>
      </trkpt>
      <trkpt lat="43.1757560" lon="-1.2925720">
        <ele>190.8</ele>
        <time>2019-07-15T09:02:11Z</time>
      </trkpt>
      <trkpt lat="43.1757730" lon="-1.2927190">
        <ele>191.0</ele>
        <time>2019-07-15T09:02:14Z</time>
      </trkpt>
      <trkpt lat="43.1757890" lon="-1.2928630">
        <ele>191.3</ele>
        <time>2019-07-15T09:02:17Z</time>
      </trkpt>
      <trkpt lat="43.1758060" lon="-1.2929990">
        <ele>191.5</ele>
        <time>2019-07-15T09:02:20Z</time>
      </trkpt>
      <trkpt lat="43.1758210" lon="-1.2931440">
        <ele>191.7</ele>
        <time>2019-07-15T09:02:23Z</time>
      </trkpt>
      <trkpt lat="43.1758370" lon="-1.2932970">
        <ele>192.1</ele>
        <time>2019-07-15T09:02:26Z</time>
      </trkpt>
      <trkpt lat="43.1758530" lon="-1.2934550">
        <ele>192.5</ele>
        <time>2019-07-15T09:02:29Z</time>
      </trkpt>
      <trkpt lat="43.1758680" lon="-1.2936090">
        <ele>193.0</ele>
        <time>2019-07-15T09:02:32Z</time>
      </trkpt>
      <trkpt lat="43.1758840" lon="-1.2937660">
        <ele>193.5</ele>
        <time>2019-07-15T09:02:35Z</time>
      </trkpt>
      <trkpt lat="43.1758980" lon="-1.2939260">
        <ele>194.0</ele>
        <time>2019-07-15T09:02:38Z</time>
      </trkpt>
      <trkpt lat="43.1759110" lon="-1.2940890">
        <ele>194.5</ele>
        <time>2019-07-15T09:02:41Z</time>
      </trkpt>
      <trkpt lat="43.1759330" lon="-1.2942350">
        <ele>194.9</ele>
        <time>2019-07-15T09:02:44Z</time>
      </trkpt>
      <trkpt lat="43.1759460" lon="-1.2943790">
        <ele>195.4</ele>
        <time>2019-07-15T09:02:47Z</time>
      </trkpt>
      <trkpt lat="43.1759580" lon="-1.2945160">
        <ele>195.8</ele>
        <time>2019-07-15T09:02:50Z</time>
      </trkpt>
      <trkpt lat="43.1759750" lon="-1.2946520">
        <ele>196.2</ele>
        <time>2019-07-15T09:02:53Z</time>
      </trkpt>
      <trkpt lat="43.1759880" lon="-1.2947870">
        <ele>196.6</ele>
        <time>2019-07-15T09:02:56Z</time>
      </trkpt>
      <trkpt lat="43.1760030" lon="-1.2949140">
        <ele>197.1</ele>
        <time>2019-07-15T09:02:59Z</time>
      </trkpt>
      <trkpt lat="43.1760190" lon="-1.2950430">
        <ele>197.5</ele>
        <time>2019-07-15T09:03:02Z</time>
      </trkpt>
      <trkpt lat="43.1760300" lon="-1.2951760">
        <ele>197.8</ele>
        <time>2019-07-15T09:03:05Z</time>
      </trkpt>
      <trkpt lat="43.1760410" lon="-1.2953070">
        <ele>198.0</ele>
        <time>2019-07-15T09:03:08Z</time>
      </trkpt>
      <trkpt lat="43.1760560" lon="-1.2954320">
        <ele>198.2</ele>
        <time>2019-07-15T09:03:11Z</time>
      </trkpt>
      <trkpt lat="43.1760610" lon="-1.2955620">
        <ele>198.3</ele>
        <time>2019-07-15T09:03:14Z</time>
      </trkpt>
      <trkpt lat="43.1760750" lon="-1.2956900">
        <ele>198.4</ele>
        <time>2019-07-15T09:03:17Z</time>
      </trkpt>
      <trkpt lat="43.1760900" lon="-1.2958160">
        <ele>198.6</ele>
        <time>2019-07-15T09:03:20Z</time>
      </trkpt>
      <trkpt lat="43.1761050" lon="-1.2959670">
        <ele>198.7</ele>
        <time>2019-07-15T09:03:24Z</time>
      </trkpt>
      <trkpt lat="43.1761230" lon="-1.2961170">
        <ele>198.9</ele>
        <time>2019-07-15T09:03:28Z</time>
      </trkpt>
      <trkpt lat="43.1761440" lon="-1.2962700">
        <ele>199.2</ele>
        <time>2019-07-15T09:03:32Z</time>
      </trkpt>
      <trkpt lat="43.1761550" lon="-1.2963990">
        <ele>199.5</ele>
        <time>2019-07-15T09:03:36Z</time>
      </trkpt>
      <trkpt lat="43.1761850" lon="-1.2965180">
        <ele>199.8</ele>
        <time>2019-07-15T09:03:40Z</time>
      </trkpt>
      <trkpt lat="43.1762170" lon="-1.2966660">
        <ele>200.4</ele>
        <time>2019-07-15T09:03:44Z</time>
      </trkpt>
      <trkpt lat="43.1762550" lon="-1.2968030">
        <ele>201.0</ele>
        <time>2019-07-15T09:03:48Z</time>
      </trkpt>
      <trkpt lat="43.1762980" lon="-1.2969300">
        <ele>201.7</ele>
        <time>2019-07-15T09:03:52Z</time>
      </trkpt>
      <trkpt lat="43.1763500" lon="-1.2970600">
        <ele>202.4</ele>
        <time>2019-07-15T09:03:56Z</time>
      </trkpt>
      <trkpt lat="43.1763910" lon="-1.2971930">
        <ele>203.0</ele>
        <time>2019-07-15T09:04:00Z</time>
      </trkpt>
      <trkpt lat="43.1764310" lon="-1.2973180">
        <ele>203.7</ele>
        <time>2019-07-15T09:04:04Z</time>
      </trkpt>
      <trkpt lat="43.1764650" lon="-1.2974440">
        <ele>204.3</ele>
        <time>2019-07-15T09:04:08Z</time>
      </trkpt>
      <trkpt lat="43.1764910" lon="-1.2975680">
        <ele>204.8</ele>
        <time>2019-07-15T09:04:12Z</time>
      </trkpt>
      <trkpt lat="43.1765300" lon="-1.2977120">
        <ele>205.5</ele>
        <time>2019-07-15T09:04:17Z</time>
      </trkpt>
      <trkpt lat="43.1765570" lon="-1.2978340">
        <ele>206.0</ele>
        <time>2019-07-15T09:04:21Z</time>
      </trkpt>
      <trkpt lat="43.1765760" lon="-1.2979800">
        <ele>206.5</ele>
        <time>2019-07-15T09:04:26Z</time>
      </trkpt>
      <trkpt lat="43.1765860" lon="-1.2981260">
        <ele>207.0</ele>
        <time>2019-07-15T09:04:31Z</time>
      </trkpt>
      <trkpt lat="43.1765920" lon="-1.2982560">
        <ele>207.4</ele>
        <time>2019-07-15T09:04:35Z</time>
      </trkpt>
      <trkpt lat="43.1765960" lon="-1.2983900">
        <ele>207.9</ele>
        <time>2019-07-15T09:04:40Z</time>
      </trkpt>
      <trkpt lat="43.1765880" lon="-1.2985460">
        <ele>208.4</ele>
        <time>2019-07-15T09:04:45Z</time>
      </trkpt>
      <trkpt lat="43.1765720" lon="-1.2986700">
        <ele>208.9</ele>
        <time>2019-07-15T09:04:49Z</time>
      </trkpt>
      <trkpt lat="43.1765600" lon="-1.2987980">
        <ele>209.3</ele>
        <time>2019-07-15T09:04:53Z</time>
      </trkpt>
      <trkpt lat="43.1765400" lon="-1.2989290">
        <ele>209.6</ele>
        <time>2019-07-15T09:04:57Z</time>
      </trkpt>
      <trkpt lat="43.1765180" lon="-1.2990880">
        <ele>209.9</ele>
        <time>2019-07-15T09:05:02Z</time>
      </trkpt>
      <trkpt lat="43.1765040" lon="-1.2992150">
        <ele>210.3</ele>
        <time>2019-07-15T09:05:06Z</time>
      </trkpt>
      <trkpt lat="43.1764900" lon="-1.2993380">
        <ele>210.7</ele>
        <time>2019-07-15T09:05:10Z</time>
      </trkpt>
      <trkpt lat="43.1764680" lon="-1.2994780">
        <ele>211.1</ele>
        <time>2019-07-15T09:05:14Z</time>
      </trkpt>
      <trkpt lat="43.1764500" lon="-1.2996190">
        <ele>211.6</ele>
        <time>2019-07-15T09:05:18Z</time>
      </trkpt>
      <trkpt lat="43.1764340" lon="-1.2997470">
        <ele>212.0</ele>
        <time>2019-07-15T09:05:22Z</time>
      </trkpt>
      <trkpt lat="43.1764260" lon="-1.2998730">
        <ele>212.4</ele>
        <time>2019-07-15T09:05:26Z</time>
      </trkpt>
      <trkpt lat="43.1764160" lon="-1.3000030">
        <ele>212.9</ele>
        <time>2019-07-15T09:05:30Z</time>
      </trkpt>
      <trkpt lat="43.1764070" lon="-1.3001330">
        <ele>213.3</ele>
        <time>2019-07-15T09:05:34Z</time>
      </trkpt>
      <trkpt lat="43.1763920" lon="-1.3002550">
        <ele>213.8</ele>
        <time>2019-07-15T09:05:38Z</time>
      </trkpt>
      <trkpt lat="43.1763760" lon="-1.3004110">
        <ele>214.4</ele>
        <time>2019-07-15T09:05:43Z</time>
      </trkpt>
      <trkpt lat="43.1763700" lon="-1.3005410">
        <ele>215.0</ele>
        <time>2019-07-15T09:05:47Z</time>
      </trkpt>
      <trkpt lat="43.1763660" lon="-1.3006940">
        <ele>215.6</ele>
        <time>2019-07-15T09:05:52Z</time>
      </trkpt>
      <trkpt lat="43.1763830" lon="-1.3008430">
        <ele>216.2</ele>
        <time>2019-07-15T09:05:57Z</time>
      </trkpt>
      <trkpt lat="43.1764110" lon="-1.3009610">
        <ele>216.8</ele>
        <time>2019-07-15T09:06:01Z</time>
      </trkpt>
      <trkpt lat="43.1764530" lon="-1.3011000">
        <ele>217.4</ele>
        <time>2019-07-15T09:06:06Z</time>
      </trkpt>
      <trkpt lat="43.1765230" lon="-1.3012230">
        <ele>218.1</ele>
        <time>2019-07-15T09:06:11Z</time>
      </trkpt>
      <trkpt lat="43.1765890" lon="-1.3013110">
        <ele>218.7</ele>
        <time>2019-07-15T09:06:15Z</time>
      </trkpt>
      <trkpt lat="43.1766780" lon="-1.3013880">
        <ele>219.3</ele>
        <time>2019-07-15T09:06:20Z</time>
      </trkpt>
      <trkpt lat="43.1767620" lon="-1.3014340">
        <ele>219.8</ele>
        <time>2019-07-15T09:06:25Z</time>
      </trkpt>
      <trkpt lat="43.1768560" lon="-1.3014340">
        <ele>220.4</ele>
        <time>2019-07-15T09:06:30Z</time>
      </trkpt>
      <trkpt lat="43.1769490" lon="-1.3014330">
        <ele>220.8</ele>
        <time>2019-07-15T09:06:35Z</time>
      </trkpt>
      <trkpt lat="43.1770420" lon="-1.3014290">
        <ele>221.1</ele>
        <time>2019-07-15T09:06:40Z</time>
      </trkpt>
      <trkpt lat="43.1771380" lon="-1.3013810">
        <ele>221.4</ele>
        <time>2019-07-15T09:06:47Z</time>
      </trkpt>
      <trkpt lat="43.1772360" lon="-1.3013550">
        <ele>221.7</ele>
        <time>2019-07-15T09:06:52Z</time>
      </trkpt>
      <trkpt lat="43.1773290" lon="-1.3013430">
        <ele>222.0</ele>
        <time>2019-07-15T09:06:57Z</time>
      </trkpt>
      <trkpt lat="43.1774330" lon="-1.3013400">
        <ele>222.4</ele>
        <time>2019-07-15T09:07:03Z</time>
      </trkpt>
      <trkpt lat="43.1775340" lon="-1.3013750">
        <ele>222.8</ele>
        <time>2019-07-15T09:07:10Z</time>
      </trkpt>
      <trkpt lat="43.1776170" lon="-1.3014300">
        <ele>223.2</ele>
        <time>2019-07-15T09:07:16Z</time>
      </trkpt>
      <trkpt lat="43.1777140" lon="-1.3014690">
        <ele>223.7</ele>
        <time>2019-07-15T09:07:22Z</time>
      </trkpt>
      <trkpt lat="43.1778000" lon="-1.3015260">
        <ele>224.0</ele>
        <time>2019-07-15T09:07:28Z</time>
      </trkpt>
      <trkpt lat="43.1778890" lon="-1.3015920">
        <ele>224.4</ele>
        <time>2019-07-15T09:07:34Z</time>
      </trkpt>
      <trkpt lat="43.1779740" lon="-1.3016750">
        <ele>224.8</ele>
        <time>2019-07-15T09:07:40Z</time>
      </trkpt>
      <trkpt lat="43.1780460" lon="-1.3017820">
        <ele>225.3</ele>
        <time>2019-07-15T09:07:46Z</time>
      </trkpt>
      <trkpt lat="43.1781140" lon="-1.3018870">
        <ele>225.9</ele>
        <time>2019-07-15T09:07:52Z</time>
      </trkpt>
      <trkpt lat="43.1781660" lon="-1.3019900">
        <ele>226.4</ele>
        <time>2019-07-15T09:07:57Z</time>
      </trkpt>
      <trkpt lat="43.1782130" lon="-1.3021010">
        <ele>227.0</ele>
        <time>2019-07-15T09:08:02Z</time>
      </trkpt>
      <trkpt lat="43.1782600" lon="-1.3022130">
        <ele>227.4</ele>
        <time>2019-07-15T09:08:07Z</time>
      </trkpt>
      <trkpt lat="43.1783120" lon="-1.3023230">
        <ele>227.8</ele>
        <time>2019-07-15T09:08:12Z</time>
      </trkpt>
      <trkpt lat="43.1783630" lon="-1.3024410">
        <ele>228.2</ele>
        <time>2019-07-15T09:08:17Z</time>
      </trkpt>
      <trkpt lat="43.1784230" lon="-1.3025370">
        <ele>228.6</ele>
        <time>2019-07-15T09:08:22Z</time>
      </trkpt>
      <trkpt lat="43.1784840" lon="-1.3026400">
        <ele>229.1</ele>
        <time>2019-07-15T09:08:27Z</time>
      </trkpt>
      <trkpt lat="43.1785200" lon="-1.3027770">
        <ele>229.7</ele>
        <time>2019-07-15T09:08:33Z</time>
      </trkpt>
      <trkpt lat="43.1785340" lon="-1.3028200">
        <ele>229.9</ele>
        <time>2019-07-15T09:08:41Z</time>
      </trkpt>
      <trkpt lat="43.1785970" lon="-1.3029710">
        <ele>230.7</ele>
        <time>2019-07-15T09:09:38Z</time>
      </trkpt>
      <trkpt lat="43.1786380" lon="-1.3030990">
        <ele>231.3</ele>
        <time>2019-07-15T09:09:43Z</time>
      </trkpt>
      <trkpt lat="43.1786700" lon="-1.3032190">
        <ele>232.1</ele>
        <time>2019-07-15T09:09:48Z</time>
      </trkpt>
      <trkpt lat="43.1787040" lon="-1.3033350">
        <ele>233.1</ele>
        <time>2019-07-15T09:09:52Z</time>
      </trkpt>
      <trkpt lat="43.1787270" lon="-1.3034690">
        <ele>234.1</ele>
        <time>2019-07-15T09:09:56Z</time>
      </trkpt>
      <trkpt lat="43.1787520" lon="-1.3035940">
        <ele>235.2</ele>
        <time>2019-07-15T09:10:00Z</time>
      </trkpt>
      <trkpt lat="43.1787790" lon="-1.3037130">
        <ele>236.3</ele>
        <time>2019-07-15T09:10:04Z</time>
      </trkpt>
      <trkpt lat="43.1788130" lon="-1.3038550">
        <ele>237.4</ele>
        <time>2019-07-15T09:10:09Z</time>
      </trkpt>
      <trkpt lat="43.1788330" lon="-1.3039770">
        <ele>238.1</ele>
        <time>2019-07-15T09:10:13Z</time>
      </trkpt>
      <trkpt lat="43.1788450" lon="-1.3041000">
        <ele>239.1</ele>
        <time>2019-07-15T09:10:17Z</time>
      </trkpt>
      <trkpt lat="43.1788720" lon="-1.3042480">
        <ele>240.7</ele>
        <time>2019-07-15T09:10:22Z</time>
      </trkpt>
      <trkpt lat="43.1788880" lon="-1.3043920">
        <ele>241.6</ele>
        <time>2019-07-15T09:10:27Z</time>
      </trkpt>
      <trkpt lat="43.1789110" lon="-1.3045340">
        <ele>242.5</ele>
        <time>2019-07-15T09:10:32Z</time>
      </trkpt>
      <trkpt lat="43.1789290" lon="-1.3046670">
        <ele>243.3</ele>
        <time>2019-07-15T09:10:37Z</time>
      </trkpt>
      <trkpt lat="43.1789560" lon="-1.3048020">
        <ele>244.2</ele>
        <time>2019-07-15T09:10:43Z</time>
      </trkpt>
      <trkpt lat="43.1789790" lon="-1.3049420">
        <ele>245.0</ele>
        <time>2019-07-15T09:10:50Z</time>
      </trkpt>
      <trkpt lat="43.1790000" lon="-1.3050640">
        <ele>245.7</ele>
        <time>2019-07-15T09:10:56Z</time>
      </trkpt>
      <trkpt lat="43.1790180" lon="-1.3052070">
        <ele>246.7</ele>
        <time>2019-07-15T09:11:03Z</time>
      </trkpt>
      <trkpt lat="43.1790550" lon="-1.3053270">
        <ele>247.7</ele>
        <time>2019-07-15T09:11:10Z</time>
      </trkpt>
      <trkpt lat="43.1790720" lon="-1.3054490">
        <ele>248.5</ele>
        <time>2019-07-15T09:11:16Z</time>
      </trkpt>
      <trkpt lat="43.1790930" lon="-1.3055770">
        <ele>249.1</ele>
        <time>2019-07-15T09:11:22Z</time>
      </trkpt>
      <trkpt lat="43.1791170" lon="-1.3057050">
        <ele>249.8</ele>
        <time>2019-07-15T09:11:28Z</time>
      </trkpt>
      <trkpt lat="43.1791300" lon="-1.3058270">
        <ele>250.4</ele>
        <time>2019-07-15T09:11:33Z</time>
      </trkpt>
      <trkpt lat="43.1791540" lon="-1.3059590">
        <ele>251.0</ele>
        <time>2019-07-15T09:11:39Z</time>
      </trkpt>
      <trkpt lat="43.1791810" lon="-1.3060980">
        <ele>251.8</ele>
        <time>2019-07-15T09:11:45Z</time>
      </trkpt>
      <trkpt lat="43.1792050" lon="-1.3062440">
        <ele>252.2</ele>
        <time>2019-07-15T09:11:51Z</time>
      </trkpt>
      <trkpt lat="43.1792200" lon="-1.3063910">
        <ele>252.6</ele>
        <time>2019-07-15T09:11:56Z</time>
      </trkpt>
      <trkpt lat="43.1792270" lon="-1.3065350">
        <ele>252.9</ele>
        <time>2019-07-15T09:12:01Z</time>
      </trkpt>
      <trkpt lat="43.1792310" lon="-1.3066660">
        <ele>253.2</ele>
        <time>2019-07-15T09:12:05Z</time>
      </trkpt>
      <trkpt lat="43.1792320" lon="-1.3068270">
        <ele>253.3</ele>
        <time>2019-07-15T09:12:09Z</time>
      </trkpt>
      <trkpt lat="43.1792140" lon="-1.3069560">
        <ele>253.4</ele>
        <time>2019-07-15T09:12:12Z</time>
      </trkpt>
      <trkpt lat="43.1791800" lon="-1.3070950">
        <ele>252.9</ele>
        <time>2019-07-15T09:12:15Z</time>
      </trkpt>
      <trkpt lat="43.1791350" lon="-1.3072430">
        <ele>252.4</ele>
        <time>2019-07-15T09:12:18Z</time>
      </trkpt>
      <trkpt lat="43.1790960" lon="-1.3073570">
        <ele>251.7</ele>
        <time>2019-07-15T09:12:20Z</time>
      </trkpt>
      <trkpt lat="43.1790570" lon="-1.3074810">
        <ele>250.9</ele>
        <time>2019-07-15T09:12:22Z</time>
      </trkpt>
      <trkpt lat="43.1790090" lon="-1.3076090">
        <ele>250.0</ele>
        <time>2019-07-15T09:12:24Z</time>
      </trkpt>
      <trkpt lat="43.1789620" lon="-1.3077510">
        <ele>249.0</ele>
        <time>2019-07-15T09:12:26Z</time>
      </trkpt>
      <trkpt lat="43.1789160" lon="-1.3079050">
        <ele>247.9</ele>
        <time>2019-07-15T09:12:28Z</time>
      </trkpt>
      <trkpt lat="43.1788740" lon="-1.3080610">
        <ele>246.9</ele>
        <time>2019-07-15T09:12:30Z</time>
      </trkpt>
      <trkpt lat="43.1788390" lon="-1.3082250">
        <ele>245.7</ele>
        <time>2019-07-15T09:12:32Z</time>
      </trkpt>
      <trkpt lat="43.1788070" lon="-1.3084010">
        <ele>244.4</ele>
        <time>2019-07-15T09:12:34Z</time>
      </trkpt>
      <trkpt lat="43.1787790" lon="-1.3085790">
        <ele>243.1</ele>
        <time>2019-07-15T09:12:36Z</time>
      </trkpt>
      <trkpt lat="43.1787530" lon="-1.3087640">
        <ele>241.8</ele>
        <time>2019-07-15T09:12:38Z</time>
      </trkpt>
      <trkpt lat="43.1787210" lon="-1.3089600">
        <ele>240.6</ele>
        <time>2019-07-15T09:12:40Z</time>
      </trkpt>
      <trkpt lat="43.1786870" lon="-1.3091570">
        <ele>239.4</ele>
        <time>2019-07-15T09:12:42Z</time>
      </trkpt>
      <trkpt lat="43.1786460" lon="-1.3093600">
        <ele>238.3</ele>
        <time>2019-07-15T09:12:44Z</time>
      </trkpt>
      <trkpt lat="43.1785990" lon="-1.3095760">
        <ele>237.0</ele>
        <time>2019-07-15T09:12:46Z</time>
      </trkpt>
      <trkpt lat="43.1785370" lon="-1.3097980">
        <ele>236.0</ele>
        <time>2019-07-15T09:12:48Z</time>
      </trkpt>
      <trkpt lat="43.1784700" lon="-1.3100170">
        <ele>234.9</ele>
        <time>2019-07-15T09:12:50Z</time>
      </trkpt>
      <trkpt lat="43.1784060" lon="-1.3102440">
        <ele>233.6</ele>
        <time>2019-07-15T09:12:52Z</time>
      </trkpt>
      <trkpt lat="43.1783760" lon="-1.3103610">
        <ele>233.1</ele>
        <time>2019-07-15T09:12:53Z</time>
      </trkpt>
      <trkpt lat="43.1783290" lon="-1.3105960">
        <ele>231.7</ele>
        <time>2019-07-15T09:12:55Z</time>
      </trkpt>
      <trkpt lat="43.1782930" lon="-1.3108310">
        <ele>230.2</ele>
        <time>2019-07-15T09:12:57Z</time>
      </trkpt>
      <trkpt lat="43.1782730" lon="-1.3109520">
        <ele>229.5</ele>
        <time>2019-07-15T09:12:58Z</time>
      </trkpt>
      <trkpt lat="43.1782510" lon="-1.3110720">
        <ele>229.1</ele>
        <time>2019-07-15T09:12:59Z</time>
      </trkpt>
      <trkpt lat="43.1782310" lon="-1.3111930">
        <ele>228.6</ele>
        <time>2019-07-15T09:13:00Z</time>
      </trkpt>
      <trkpt lat="43.1782140" lon="-1.3113160">
        <ele>228.1</ele>
        <time>2019-07-15T09:13:01Z</time>
      </trkpt>
      <trkpt lat="43.1782010" lon="-1.3114390">
        <ele>227.6</ele>
        <time>2019-07-15T09:13:02Z</time>
      </trkpt>
      <trkpt lat="43.1781870" lon="-1.3116700">
        <ele>226.7</ele>
        <time>2019-07-15T09:13:04Z</time>
      </trkpt>
      <trkpt lat="43.1781850" lon="-1.3118920">
        <ele>226.1</ele>
        <time>2019-07-15T09:13:06Z</time>
      </trkpt>
      <trkpt lat="43.1781880" lon="-1.3121110">
        <ele>225.4</ele>
        <time>2019-07-15T09:13:08Z</time>
      </trkpt>
      <trkpt lat="43.1781970" lon="-1.3123080">
        <ele>224.7</ele>
        <time>2019-07-15T09:13:10Z</time>
      </trkpt>
      <trkpt lat="43.1782150" lon="-1.3125050">
        <ele>223.8</ele>
        <time>2019-07-15T09:13:12Z</time>
      </trkpt>
      <trkpt lat="43.1782360" lon="-1.3127030">
        <ele>222.9</ele>
        <time>2019-07-15T09:13:14Z</time>
      </trkpt>
      <trkpt lat="43.1782760" lon="-1.3129120">
        <ele>221.3</ele>
        <time>2019-07-15T09:13:16Z</time>
      </trkpt>
      <trkpt lat="43.1783270" lon="-1.3131300">
        <ele>219.5</ele>
        <time>2019-07-15T09:13:18Z</time>
      </trkpt>
      <trkpt lat="43.1783950" lon="-1.3133540">
        <ele>217.6</ele>
        <time>2019-07-15T09:13:20Z</time>
      </trkpt>
      <trkpt lat="43.1784340" lon="-1.3134720">
        <ele>216.9</ele>
        <time>2019-07-15T09:13:21Z</time>
      </trkpt>
      <trkpt lat="43.1784730" lon="-1.3135890">
        <ele>216.1</ele>
        <time>2019-07-15T09:13:22Z</time>
      </trkpt>
      <trkpt lat="43.1785120" lon="-1.3137080">
        <ele>215.2</ele>
        <time>2019-07-15T09:13:23Z</time>
      </trkpt>
      <trkpt lat="43.1785540" lon="-1.3138310">
        <ele>214.5</ele>
        <time>2019-07-15T09:13:24Z</time>
      </trkpt>
      <trkpt lat="43.1785990" lon="-1.3139540">
        <ele>213.9</ele>
        <time>2019-07-15T09:13:25Z</time>
      </trkpt>
      <trkpt lat="43.1786430" lon="-1.3140770">
        <ele>213.2</ele>
        <time>2019-07-15T09:13:26Z</time>
      </trkpt>
      <trkpt lat="43.1786880" lon="-1.3142000">
        <ele>212.5</ele>
        <time>2019-07-15T09:13:27Z</time>
      </trkpt>
      <trkpt lat="43.1787320" lon="-1.3143230">
        <ele>211.7</ele>
        <time>2019-07-15T09:13:28Z</time>
      </trkpt>
      <trkpt lat="43.1787740" lon="-1.3144460">
        <ele>210.9</ele>
        <time>2019-07-15T09:13:29Z</time>
      </trkpt>
      <trkpt lat="43.1788120" lon="-1.3145630">
        <ele>210.0</ele>
        <time>2019-07-15T09:13:30Z</time>
      </trkpt>
      <trkpt lat="43.1788470" lon="-1.3146800">
        <ele>209.0</ele>
        <time>2019-07-15T09:13:31Z</time>
      </trkpt>
      <trkpt lat="43.1788780" lon="-1.3147970">
        <ele>208.1</ele>
        <time>2019-07-15T09:13:32Z</time>
      </trkpt>
      <trkpt lat="43.1789270" lon="-1.3150250">
        <ele>206.1</ele>
        <time>2019-07-15T09:13:34Z</time>
      </trkpt>
      <trkpt lat="43.1789670" lon="-1.3152580">
        <ele>204.3</ele>
        <time>2019-07-15T09:13:36Z</time>
      </trkpt>
      <trkpt lat="43.1789960" lon="-1.3154860">
        <ele>202.9</ele>
        <time>2019-07-15T09:13:38Z</time>
      </trkpt>
      <trkpt lat="43.1790100" lon="-1.3156120">
        <ele>202.3</ele>
        <time>2019-07-15T09:13:39Z</time>
      </trkpt>
      <trkpt lat="43.1790420" lon="-1.3158530">
        <ele>201.2</ele>
        <time>2019-07-15T09:13:41Z</time>
      </trkpt>
      <trkpt lat="43.1790920" lon="-1.3160850">
        <ele>200.4</ele>
        <time>2019-07-15T09:13:43Z</time>
      </trkpt>
      <trkpt lat="43.1791250" lon="-1.3162000">
        <ele>200.0</ele>
        <time>2019-07-15T09:13:44Z</time>
      </trkpt>
      <trkpt lat="43.1791630" lon="-1.3163150">
        <ele>199.6</ele>
        <time>2019-07-15T09:13:45Z</time>
      </trkpt>
      <trkpt lat="43.1792060" lon="-1.3164300">
        <ele>199.3</ele>
        <time>2019-07-15T09:13:46Z</time>
      </trkpt>
      <trkpt lat="43.1792560" lon="-1.3165390">
        <ele>198.9</ele>
        <time>2019-07-15T09:13:47Z</time>
      </trkpt>
      <trkpt lat="43.1793070" lon="-1.3166470">
        <ele>198.5</ele>
        <time>2019-07-15T09:13:48Z</time>
      </trkpt>
      <trkpt lat="43.1793580" lon="-1.3167570">
        <ele>198.0</ele>
        <time>2019-07-15T09:13:49Z</time>
      </trkpt>
      <trkpt lat="43.1794070" lon="-1.3168690">
        <ele>197.6</ele>
        <time>2019-07-15T09:13:50Z</time>
      </trkpt>
      <trkpt lat="43.1794560" lon="-1.3169830">
        <ele>197.0</ele>
        <time>2019-07-15T09:13:51Z</time>
      </trkpt>
      <trkpt lat="43.1795060" lon="-1.3170990">
        <ele>196.4</ele>
        <time>2019-07-15T09:13:52Z</time>
      </trkpt>
      <trkpt lat="43.1795600" lon="-1.3172180">
        <ele>195.8</ele>
        <time>2019-07-15T09:13:53Z</time>
      </trkpt>
      <trkpt lat="43.1796160" lon="-1.3173400">
        <ele>195.0</ele>
        <time>2019-07-15T09:13:54Z</time>
      </trkpt>
      <trkpt lat="43.1796720" lon="-1.3174630">
        <ele>194.1</ele>
        <time>2019-07-15T09:13:55Z</time>
      </trkpt>
      <trkpt lat="43.1797280" lon="-1.3175790">
        <ele>193.2</ele>
        <time>2019-07-15T09:13:56Z</time>
      </trkpt>
      <trkpt lat="43.1797810" lon="-1.3176870">
        <ele>192.2</ele>
        <time>2019-07-15T09:13:57Z</time>
      </trkpt>
      <trkpt lat="43.1798320" lon="-1.3177900">
        <ele>191.2</ele>
        <time>2019-07-15T09:13:58Z</time>
      </trkpt>
      <trkpt lat="43.1799380" lon="-1.3179810">
        <ele>189.3</ele>
        <time>2019-07-15T09:14:00Z</time>
      </trkpt>
      <trkpt lat="43.1800690" lon="-1.3181450">
        <ele>187.6</ele>
        <time>2019-07-15T09:14:02Z</time>
      </trkpt>
      <trkpt lat="43.1801490" lon="-1.3182150">
        <ele>186.8</ele>
        <time>2019-07-15T09:14:03Z</time>
      </trkpt>
      <trkpt lat="43.1802320" lon="-1.3182830">
        <ele>186.1</ele>
        <time>2019-07-15T09:14:04Z</time>
      </trkpt>
      <trkpt lat="43.1803130" lon="-1.3183480">
        <ele>185.4</ele>
        <time>2019-07-15T09:14:05Z</time>
      </trkpt>
      <trkpt lat="43.1804460" lon="-1.3184800">
        <ele>184.4</ele>
        <time>2019-07-15T09:14:07Z</time>
      </trkpt>
      <trkpt lat="43.1805410" lon="-1.3186410">
        <ele>183.6</ele>
        <time>2019-07-15T09:14:09Z</time>
      </trkpt>
      <trkpt lat="43.1805960" lon="-1.3188160">
        <ele>183.4</ele>
        <time>2019-07-15T09:14:11Z</time>
      </trkpt>
      <trkpt lat="43.1806210" lon="-1.3189800">
        <ele>183.4</ele>
        <time>2019-07-15T09:14:13Z</time>
      </trkpt>
      <trkpt lat="43.1806550" lon="-1.3191410">
        <ele>183.2</ele>
        <time>2019-07-15T09:14:15Z</time>
      </trkpt>
      <trkpt lat="43.1807030" lon="-1.3193030">
        <ele>183.2</ele>
        <time>2019-07-15T09:14:17Z</time>
      </trkpt>
      <trkpt lat="43.1807700" lon="-1.3194520">
        <ele>183.1</ele>
        <time>2019-07-15T09:14:19Z</time>
      </trkpt>
      <trkpt lat="43.1808650" lon="-1.3195840">
        <ele>183.0</ele>
        <time>2019-07-15T09:14:21Z</time>
      </trkpt>
      <trkpt lat="43.1809820" lon="-1.3196990">
        <ele>182.9</ele>
        <time>2019-07-15T09:14:23Z</time>
      </trkpt>
      <trkpt lat="43.1811140" lon="-1.3198030">
        <ele>182.8</ele>
        <time>2019-07-15T09:14:25Z</time>
      </trkpt>
      <trkpt lat="43.1812460" lon="-1.3199160">
        <ele>182.8</ele>
        <time>2019-07-15T09:14:27Z</time>
      </trkpt>
      <trkpt lat="43.1813730" lon="-1.3200230">
        <ele>182.8</ele>
        <time>2019-07-15T09:14:29Z</time>
      </trkpt>
      <trkpt lat="43.1814740" lon="-1.3201180">
        <ele>182.8</ele>
        <time>2019-07-15T09:14:31Z</time>
      </trkpt>
      <trkpt lat="43.1815520" lon="-1.3202060">
        <ele>182.6</ele>
        <time>2019-07-15T09:14:33Z</time>
      </trkpt>
      <trkpt lat="43.1816210" lon="-1.3202890">
        <ele>182.3</ele>
        <time>2019-07-15T09:14:35Z</time>
      </trkpt>
      <trkpt lat="43.1816860" lon="-1.3203840">
        <ele>181.9</ele>
        <time>2019-07-15T09:14:37Z</time>
      </trkpt>
      <trkpt lat="43.1817420" lon="-1.3204850">
        <ele>181.2</ele>
        <time>2019-07-15T09:14:39Z</time>
      </trkpt>
      <trkpt lat="43.1817910" lon="-1.3205930">
        <ele>180.5</ele>
        <time>2019-07-15T09:14:41Z</time>
      </trkpt>
      <trkpt lat="43.1818250" lon="-1.3207170">
        <ele>179.7</ele>
        <time>2019-07-15T09:14:43Z</time>
      </trkpt>
      <trkpt lat="43.1818500" lon="-1.3208550">
        <ele>178.7</ele>
        <time>2019-07-15T09:14:45Z</time>
      </trkpt>
      <trkpt lat="43.1818650" lon="-1.3210130">
        <ele>177.4</ele>
        <time>2019-07-15T09:14:47Z</time>
      </trkpt>
      <trkpt lat="43.1818580" lon="-1.3211920">
        <ele>175.8</ele>
        <time>2019-07-15T09:14:49Z</time>
      </trkpt>
      <trkpt lat="43.1818260" lon="-1.3213750">
        <ele>174.1</ele>
        <time>2019-07-15T09:14:51Z</time>
      </trkpt>
      <trkpt lat="43.1817800" lon="-1.3215400">
        <ele>172.6</ele>
        <time>2019-07-15T09:14:53Z</time>
      </trkpt>
      <trkpt lat="43.1817100" lon="-1.3217050">
        <ele>171.0</ele>
        <time>2019-07-15T09:14:55Z</time>
      </trkpt>
      <trkpt lat="43.1816190" lon="-1.3218620">
        <ele>169.7</ele>
        <time>2019-07-15T09:14:57Z</time>
      </trkpt>
      <trkpt lat="43.1815080" lon="-1.3220140">
        <ele>168.7</ele>
        <time>2019-07-15T09:14:59Z</time>
      </trkpt>
      <trkpt lat="43.1813840" lon="-1.3221480">
        <ele>167.7</ele>
        <time>2019-07-15T09:15:01Z</time>
      </trkpt>
      <trkpt lat="43.1812460" lon="-1.3222790">
        <ele>166.9</ele>
        <time>2019-07-15T09:15:03Z</time>
      </trkpt>
      <trkpt lat="43.1811200" lon="-1.3224170">
        <ele>166.6</ele>
        <time>2019-07-15T09:15:05Z</time>
      </trkpt>
      <trkpt lat="43.1810310" lon="-1.3225960">
        <ele>166.6</ele>
        <time>2019-07-15T09:15:07Z</time>
      </trkpt>
      <trkpt lat="43.1809940" lon="-1.3227890">
        <ele>167.0</ele>
        <time>2019-07-15T09:15:09Z</time>
      </trkpt>
      <trkpt lat="43.1809990" lon="-1.3229690">
        <ele>167.4</ele>
        <time>2019-07-15T09:15:11Z</time>
      </trkpt>
      <trkpt lat="43.1810280" lon="-1.3231380">
        <ele>167.8</ele>
        <time>2019-07-15T09:15:13Z</time>
      </trkpt>
      <trkpt lat="43.1810720" lon="-1.3232950">
        <ele>168.3</ele>
        <time>2019-07-15T09:15:15Z</time>
      </trkpt>
      <trkpt lat="43.1811210" lon="-1.3234420">
        <ele>168.8</ele>
        <time>2019-07-15T09:15:17Z</time>
      </trkpt>
      <trkpt lat="43.1811620" lon="-1.3235830">
        <ele>169.2</ele>
        <time>2019-07-15T09:15:19Z</time>
      </trkpt>
      <trkpt lat="43.1812060" lon="-1.3237040">
        <ele>169.6</ele>
        <time>2019-07-15T09:15:21Z</time>
      </trkpt>
      <trkpt lat="43.1812530" lon="-1.3238110">
        <ele>169.9</ele>
        <time>2019-07-15T09:15:23Z</time>
      </trkpt>
      <trkpt lat="43.1813090" lon="-1.3239620">
        <ele>170.4</ele>
        <time>2019-07-15T09:15:26Z</time>
      </trkpt>
      <trkpt lat="43.1813520" lon="-1.3241010">
        <ele>170.9</ele>
        <time>2019-07-15T09:15:29Z</time>
      </trkpt>
      <trkpt lat="43.1813930" lon="-1.3242250">
        <ele>171.3</ele>
        <time>2019-07-15T09:15:32Z</time>
      </trkpt>
      <trkpt lat="43.1814450" lon="-1.3243640">
        <ele>171.8</ele>
        <time>2019-07-15T09:15:36Z</time>
      </trkpt>
      <trkpt lat="43.1814940" lon="-1.3244830">
        <ele>172.2</ele>
        <time>2019-07-15T09:15:40Z</time>
      </trkpt>
      <trkpt lat="43.1815400" lon="-1.3245940">
        <ele>172.6</ele>
        <time>2019-07-15T09:15:44Z</time>
      </trkpt>
      <trkpt lat="43.1815820" lon="-1.3247050">
        <ele>172.9</ele>
        <time>2019-07-15T09:15:48Z</time>
      </trkpt>
      <trkpt lat="43.1816150" lon="-1.3248270">
        <ele>173.2</ele>
        <time>2019-07-15T09:15:52Z</time>
      </trkpt>
      <trkpt lat="43.1816530" lon="-1.3249410">
        <ele>173.4</ele>
        <time>2019-07-15T09:15:56Z</time>
      </trkpt>
      <trkpt lat="43.1816960" lon="-1.3250750">
        <ele>173.7</ele>
        <time>2019-07-15T09:16:01Z</time>
      </trkpt>
      <trkpt lat="43.1817520" lon="-1.3251910">
        <ele>173.9</ele>
        <time>2019-07-15T09:16:07Z</time>
      </trkpt>
      <trkpt lat="43.1817870" lon="-1.3253110">
        <ele>174.0</ele>
        <time>2019-07-15T09:16:12Z</time>
      </trkpt>
      <trkpt lat="43.1818130" lon="-1.3254530">
        <ele>174.1</ele>
        <time>2019-07-15T09:16:18Z</time>
      </trkpt>
      <trkpt lat="43.1818330" lon="-1.3255870">
        <ele>174.2</ele>
        <time>2019-07-15T09:16:23Z</time>
      </trkpt>
      <trkpt lat="43.1818430" lon="-1.3257260">
        <ele>174.2</ele>
        <time>2019-07-15T09:16:28Z</time>
      </trkpt>
      <trkpt lat="43.1818650" lon="-1.3258620">
        <ele>174.2</ele>
        <time>2019-07-15T09:16:33Z</time>
      </trkpt>
      <trkpt lat="43.1818900" lon="-1.3259900">
        <ele>174.1</ele>
        <time>2019-07-15T09:16:38Z</time>
      </trkpt>
      <trkpt lat="43.1819070" lon="-1.3261190">
        <ele>174.0</ele>
        <time>2019-07-15T09:16:43Z</time>
      </trkpt>
      <trkpt lat="43.1819330" lon="-1.3262530">
        <ele>173.8</ele>
        <time>2019-07-15T09:16:48Z</time>
      </trkpt>
      <trkpt lat="43.1819670" lon="-1.3263870">
        <ele>173.5</ele>
        <time>2019-07-15T09:16:53Z</time>
      </trkpt>
      <trkpt lat="43.1820060" lon="-1.3265150">
        <ele>173.0</ele>
        <time>2019-07-15T09:16:58Z</time>
      </trkpt>
      <trkpt lat="43.1820500" lon="-1.3266260">
        <ele>172.5</ele>
        <time>2019-07-15T09:17:02Z</time>
      </trkpt>
      <trkpt lat="43.1821140" lon="-1.3267570">
        <ele>172.0</ele>
        <time>2019-07-15T09:17:06Z</time>
      </trkpt>
      <trkpt lat="43.1821760" lon="-1.3268620">
        <ele>171.5</ele>
        <time>2019-07-15T09:17:09Z</time>
      </trkpt>
      <trkpt lat="43.1822640" lon="-1.3269730">
        <ele>170.8</ele>
        <time>2019-07-15T09:17:12Z</time>
      </trkpt>
      <trkpt lat="43.1823650" lon="-1.3270830">
        <ele>170.0</ele>
        <time>2019-07-15T09:17:15Z</time>
      </trkpt>
      <trkpt lat="43.1824400" lon="-1.3271530">
        <ele>169.5</ele>
        <time>2019-07-15T09:17:17Z</time>
      </trkpt>
      <trkpt lat="43.1825220" lon="-1.3272200">
        <ele>169.0</ele>
        <time>2019-07-15T09:17:19Z</time>
      </trkpt>
      <trkpt lat="43.1826080" lon="-1.3272970">
        <ele>168.5</ele>
        <time>2019-07-15T09:17:21Z</time>
      </trkpt>
      <trkpt lat="43.1826970" lon="-1.3273910">
        <ele>168.0</ele>
        <time>2019-07-15T09:17:23Z</time>
      </trkpt>
      <trkpt lat="43.1827900" lon="-1.3274760">
        <ele>167.6</ele>
        <time>2019-07-15T09:17:25Z</time>
      </trkpt>
      <trkpt lat="43.1828800" lon="-1.3275590">
        <ele>167.1</ele>
        <time>2019-07-15T09:17:27Z</time>
      </trkpt>
      <trkpt lat="43.1829680" lon="-1.3276370">
        <ele>166.7</ele>
        <time>2019-07-15T09:17:29Z</time>
      </trkpt>
      <trkpt lat="43.1830630" lon="-1.3277200">
        <ele>166.3</ele>
        <time>2019-07-15T09:17:31Z</time>
      </trkpt>
      <trkpt lat="43.1831590" lon="-1.3278200">
        <ele>165.9</ele>
        <time>2019-07-15T09:17:33Z</time>
      </trkpt>
      <trkpt lat="43.1832620" lon="-1.3279140">
        <ele>165.4</ele>
        <time>2019-07-15T09:17:35Z</time>
      </trkpt>
      <trkpt lat="43.1833800" lon="-1.3280090">
        <ele>164.8</ele>
        <time>2019-07-15T09:17:37Z</time>
      </trkpt>
      <trkpt lat="43.1835040" lon="-1.3281170">
        <ele>164.2</ele>
        <time>2019-07-15T09:17:39Z</time>
      </trkpt>
      <trkpt lat="43.1836300" lon="-1.3282340">
        <ele>163.6</ele>
        <time>2019-07-15T09:17:41Z</time>
      </trkpt>
      <trkpt lat="43.1837450" lon="-1.3283370">
        <ele>162.9</ele>
        <time>2019-07-15T09:17:43Z</time>
      </trkpt>
      <trkpt lat="43.1838490" lon="-1.3284400">
        <ele>162.2</ele>
        <time>2019-07-15T09:17:45Z</time>
      </trkpt>
      <trkpt lat="43.1839410" lon="-1.3285630">
        <ele>161.6</ele>
        <time>2019-07-15T09:17:47Z</time>
      </trkpt>
      <trkpt lat="43.1840170" lon="-1.3287090">
        <ele>160.9</ele>
        <time>2019-07-15T09:17:49Z</time>
      </trkpt>
      <trkpt lat="43.1840750" lon="-1.3288670">
        <ele>160.2</ele>
        <time>2019-07-15T09:17:51Z</time>
      </trkpt>
      <trkpt lat="43.1841300" lon="-1.3290280">
        <ele>159.6</ele>
        <time>2019-07-15T09:17:53Z</time>
      </trkpt>
      <trkpt lat="43.1841820" lon="-1.3291860">
        <ele>158.9</ele>
        <time>2019-07-15T09:17:55Z</time>
      </trkpt>
      <trkpt lat="43.1842220" lon="-1.3293510">
        <ele>158.2</ele>
        <time>2019-07-15T09:17:57Z</time>
      </trkpt>
      <trkpt lat="43.1842400" lon="-1.3295350">
        <ele>157.4</ele>
        <time>2019-07-15T09:17:59Z</time>
      </trkpt>
      <trkpt lat="43.1842260" lon="-1.3297300">
        <ele>156.5</ele>
        <time>2019-07-15T09:18:01Z</time>
      </trkpt>
      <trkpt lat="43.1841810" lon="-1.3299070">
        <ele>155.9</ele>
        <time>2019-07-15T09:18:03Z</time>
      </trkpt>
      <trkpt lat="43.1841150" lon="-1.3300610">
        <ele>155.1</ele>
        <time>2019-07-15T09:18:05Z</time>
      </trkpt>
      <trkpt lat="43.1840550" lon="-1.3302280">
        <ele>154.3</ele>
        <time>2019-07-15T09:18:07Z</time>
      </trkpt>
      <trkpt lat="43.1840160" lon="-1.3304190">
        <ele>153.5</ele>
        <time>2019-07-15T09:18:09Z</time>
      </trkpt>
      <trkpt lat="43.1839990" lon="-1.3306150">
        <ele>152.4</ele>
        <time>2019-07-15T09:18:11Z</time>
      </trkpt>
      <trkpt lat="43.1840110" lon="-1.3308000">
        <ele>151.6</ele>
        <time>2019-07-15T09:18:13Z</time>
      </trkpt>
      <trkpt lat="43.1840240" lon="-1.3309680">
        <ele>151.0</ele>
        <time>2019-07-15T09:18:15Z</time>
      </trkpt>
      <trkpt lat="43.1840410" lon="-1.3311380">
        <ele>150.6</ele>
        <time>2019-07-15T09:18:17Z</time>
      </trkpt>
      <trkpt lat="43.1840620" lon="-1.3313140">
        <ele>150.4</ele>
        <time>2019-07-15T09:18:19Z</time>
      </trkpt>
      <trkpt lat="43.1840760" lon="-1.3315000">
        <ele>150.4</ele>
        <time>2019-07-15T09:18:21Z</time>
      </trkpt>
      <trkpt lat="43.1840870" lon="-1.3316940">
        <ele>150.4</ele>
        <time>2019-07-15T09:18:23Z</time>
      </trkpt>
      <trkpt lat="43.1840920" lon="-1.3318840">
        <ele>150.3</ele>
        <time>2019-07-15T09:18:25Z</time>
      </trkpt>
      <trkpt lat="43.1840770" lon="-1.3320620">
        <ele>150.0</ele>
        <time>2019-07-15T09:18:27Z</time>
      </trkpt>
      <trkpt lat="43.1840350" lon="-1.3322370">
        <ele>149.7</ele>
        <time>2019-07-15T09:18:29Z</time>
      </trkpt>
      <trkpt lat="43.1839900" lon="-1.3323980">
        <ele>149.4</ele>
        <time>2019-07-15T09:18:31Z</time>
      </trkpt>
      <trkpt lat="43.1839440" lon="-1.3325520">
        <ele>149.0</ele>
        <time>2019-07-15T09:18:33Z</time>
      </trkpt>
      <trkpt lat="43.1839010" lon="-1.3326920">
        <ele>148.7</ele>
        <time>2019-07-15T09:18:35Z</time>
      </trkpt>
      <trkpt lat="43.1838670" lon="-1.3328170">
        <ele>148.5</ele>
        <time>2019-07-15T09:18:37Z</time>
      </trkpt>
      <trkpt lat="43.1838250" lon="-1.3329450">
        <ele>148.4</ele>
        <time>2019-07-15T09:18:39Z</time>
      </trkpt>
      <trkpt lat="43.1837740" lon="-1.3331090">
        <ele>148.4</ele>
        <time>2019-07-15T09:18:42Z</time>
      </trkpt>
      <trkpt lat="43.1837280" lon="-1.3332760">
        <ele>148.4</ele>
        <time>2019-07-15T09:18:45Z</time>
      </trkpt>
      <trkpt lat="43.1836730" lon="-1.3334180">
        <ele>148.4</ele>
        <time>2019-07-15T09:18:48Z</time>
      </trkpt>
      <trkpt lat="43.1836080" lon="-1.3335360">
        <ele>148.3</ele>
        <time>2019-07-15T09:18:51Z</time>
      </trkpt>
      <trkpt lat="43.1835390" lon="-1.3336380">
        <ele>148.3</ele>
        <time>2019-07-15T09:18:54Z</time>
      </trkpt>
      <trkpt lat="43.1834680" lon="-1.3337500">
        <ele>148.3</ele>
        <time>2019-07-15T09:18:57Z</time>
      </trkpt>
      <trkpt lat="43.1833980" lon="-1.3338560">
        <ele>148.3</ele>
        <time>2019-07-15T09:19:00Z</time>
      </trkpt>
      <trkpt lat="43.1833230" lon="-1.3339450">
        <ele>148.4</ele>
        <time>2019-07-15T09:19:03Z</time>
      </trkpt>
      <trkpt lat="43.1832550" lon="-1.3340300">
        <ele>148.4</ele>
        <time>2019-07-15T09:19:06Z</time>
      </trkpt>
      <trkpt lat="43.1831880" lon="-1.3341310">
        <ele>148.5</ele>
        <time>2019-07-15T09:19:09Z</time>
      </trkpt>
      <trkpt lat="43.1831160" lon="-1.3342400">
        <ele>148.6</ele>
        <time>2019-07-15T09:19:12Z</time>
      </trkpt>
      <trkpt lat="43.1830480" lon="-1.3343400">
        <ele>148.7</ele>
        <time>2019-07-15T09:19:15Z</time>
      </trkpt>
      <trkpt lat="43.1829700" lon="-1.3344510">
        <ele>148.8</ele>
        <time>2019-07-15T09:19:18Z</time>
      </trkpt>
      <trkpt lat="43.1828960" lon="-1.3345550">
        <ele>149.0</ele>
        <time>2019-07-15T09:19:21Z</time>
      </trkpt>
      <trkpt lat="43.1828210" lon="-1.3346560">
        <ele>149.2</ele>
        <time>2019-07-15T09:19:24Z</time>
      </trkpt>
      <trkpt lat="43.1827520" lon="-1.3347500">
        <ele>149.3</ele>
        <time>2019-07-15T09:19:27Z</time>
      </trkpt>
      <trkpt lat="43.1826910" lon="-1.3348470">
        <ele>149.5</ele>
        <time>2019-07-15T09:19:30Z</time>
      </trkpt>
      <trkpt lat="43.1826220" lon="-1.3349770">
        <ele>149.6</ele>
        <time>2019-07-15T09:19:34Z</time>
      </trkpt>
      <trkpt lat="43.1825830" lon="-1.3351270">
        <ele>149.8</ele>
        <time>2019-07-15T09:19:38Z</time>
      </trkpt>
      <trkpt lat="43.1825670" lon="-1.3352580">
        <ele>149.9</ele>
        <time>2019-07-15T09:19:41Z</time>
      </trkpt>
      <trkpt lat="43.1825190" lon="-1.3353780">
        <ele>150.1</ele>
        <time>2019-07-15T09:19:44Z</time>
      </trkpt>
      <trkpt lat="43.1824870" lon="-1.3355090">
        <ele>150.2</ele>
        <time>2019-07-15T09:19:47Z</time>
      </trkpt>
      <trkpt lat="43.1824760" lon="-1.3356510">
        <ele>150.2</ele>
        <time>2019-07-15T09:19:50Z</time>
      </trkpt>
      <trkpt lat="43.1824850" lon="-1.3357970">
        <ele>150.1</ele>
        <time>2019-07-15T09:19:53Z</time>
      </trkpt>
      <trkpt lat="43.1824960" lon="-1.3359390">
        <ele>149.9</ele>
        <time>2019-07-15T09:19:56Z</time>
      </trkpt>
      <trkpt lat="43.1824980" lon="-1.3360840">
        <ele>149.7</ele>
        <time>2019-07-15T09:19:59Z</time>
      </trkpt>
      <trkpt lat="43.1825020" lon="-1.3362450">
        <ele>149.4</ele>
        <time>2019-07-15T09:20:02Z</time>
      </trkpt>
      <trkpt lat="43.1825060" lon="-1.3363840">
        <ele>149.2</ele>
        <time>2019-07-15T09:20:05Z</time>
      </trkpt>
      <trkpt lat="43.1825110" lon="-1.3365340">
        <ele>149.4</ele>
        <time>2019-07-15T09:20:08Z</time>
      </trkpt>
      <trkpt lat="43.1825340" lon="-1.3366850">
        <ele>149.7</ele>
        <time>2019-07-15T09:20:11Z</time>
      </trkpt>
      <trkpt lat="43.1825090" lon="-1.3368260">
        <ele>149.9</ele>
        <time>2019-07-15T09:20:14Z</time>
      </trkpt>
      <trkpt lat="43.1824300" lon="-1.3369270">
        <ele>150.0</ele>
        <time>2019-07-15T09:20:17Z</time>
      </trkpt>
      <trkpt lat="43.1823300" lon="-1.3370030">
        <ele>150.1</ele>
        <time>2019-07-15T09:20:20Z</time>
      </trkpt>
      <trkpt lat="43.1822190" lon="-1.3370600">
        <ele>150.6</ele>
        <time>2019-07-15T09:20:23Z</time>
      </trkpt>
      <trkpt lat="43.1821050" lon="-1.3371320">
        <ele>151.1</ele>
        <time>2019-07-15T09:20:26Z</time>
      </trkpt>
      <trkpt lat="43.1819990" lon="-1.3372150">
        <ele>151.6</ele>
        <time>2019-07-15T09:20:29Z</time>
      </trkpt>
      <trkpt lat="43.1818900" lon="-1.3373090">
        <ele>152.1</ele>
        <time>2019-07-15T09:20:32Z</time>
      </trkpt>
      <trkpt lat="43.1818140" lon="-1.3373830">
        <ele>152.4</ele>
        <time>2019-07-15T09:20:34Z</time>
      </trkpt>
      <trkpt lat="43.1817390" lon="-1.3374560">
        <ele>152.8</ele>
        <time>2019-07-15T09:20:36Z</time>
      </trkpt>
      <trkpt lat="43.1816260" lon="-1.3375540">
        <ele>153.3</ele>
        <time>2019-07-15T09:20:39Z</time>
      </trkpt>
      <trkpt lat="43.1815520" lon="-1.3376290">
        <ele>153.6</ele>
        <time>2019-07-15T09:20:41Z</time>
      </trkpt>
      <trkpt lat="43.1814560" lon="-1.3377320">
        <ele>153.8</ele>
        <time>2019-07-15T09:20:44Z</time>
      </trkpt>
      <trkpt lat="43.1813660" lon="-1.3378300">
        <ele>153.9</ele>
        <time>2019-07-15T09:20:47Z</time>
      </trkpt>
      <trkpt lat="43.1812880" lon="-1.3379140">
        <ele>153.9</ele>
        <time>2019-07-15T09:20:50Z</time>
      </trkpt>
      <trkpt lat="43.1812240" lon="-1.3380160">
        <ele>153.9</ele>
        <time>2019-07-15T09:20:53Z</time>
      </trkpt>
      <trkpt lat="43.1811530" lon="-1.3381270">
        <ele>154.0</ele>
        <time>2019-07-15T09:20:56Z</time>
      </trkpt>
      <trkpt lat="43.1810810" lon="-1.3382330">
        <ele>154.2</ele>
        <time>2019-07-15T09:20:59Z</time>
      </trkpt>
      <trkpt lat="43.1810200" lon="-1.3383590">
        <ele>154.4</ele>
        <time>2019-07-15T09:21:02Z</time>
      </trkpt>
      <trkpt lat="43.1809680" lon="-1.3385190">
        <ele>154.3</ele>
        <time>2019-07-15T09:21:05Z</time>
      </trkpt>
      <trkpt lat="43.1809090" lon="-1.3386620">
        <ele>154.3</ele>
        <time>2019-07-15T09:21:08Z</time>
      </trkpt>
      <trkpt lat="43.1808460" lon="-1.3387960">
        <ele>154.2</ele>
        <time>2019-07-15T09:21:11Z</time>
      </trkpt>
      <trkpt lat="43.1807890" lon="-1.3389370">
        <ele>154.2</ele>
        <time>2019-07-15T09:21:14Z</time>
      </trkpt>
      <trkpt lat="43.1807250" lon="-1.3390270">
        <ele>154.2</ele>
        <time>2019-07-15T09:21:17Z</time>
      </trkpt>
      <trkpt lat="43.1806320" lon="-1.3390940">
        <ele>154.2</ele>
        <time>2019-07-15T09:21:20Z</time>
      </trkpt>
      <trkpt lat="43.1805350" lon="-1.3391400">
        <ele>154.1</ele>
        <time>2019-07-15T09:21:23Z</time>
      </trkpt>
      <trkpt lat="43.1804330" lon="-1.3391930">
        <ele>154.1</ele>
        <time>2019-07-15T09:21:26Z</time>
      </trkpt>
      <trkpt lat="43.1803310" lon="-1.3392520">
        <ele>154.1</ele>
        <time>2019-07-15T09:21:29Z</time>
      </trkpt>
      <trkpt lat="43.1802270" lon="-1.3393210">
        <ele>154.2</ele>
        <time>2019-07-15T09:21:32Z</time>
      </trkpt>
      <trkpt lat="43.1801390" lon="-1.3394160">
        <ele>154.2</ele>
        <time>2019-07-15T09:21:35Z</time>
      </trkpt>
      <trkpt lat="43.1800480" lon="-1.3395050">
        <ele>154.3</ele>
        <time>2019-07-15T09:21:38Z</time>
      </trkpt>
      <trkpt lat="43.1799600" lon="-1.3395760">
        <ele>154.5</ele>
        <time>2019-07-15T09:21:41Z</time>
      </trkpt>
      <trkpt lat="43.1798940" lon="-1.3396630">
        <ele>154.6</ele>
        <time>2019-07-15T09:21:45Z</time>
      </trkpt>
      <trkpt lat="43.1797970" lon="-1.3397290">
        <ele>154.8</ele>
        <time>2019-07-15T09:21:50Z</time>
      </trkpt>
      <trkpt lat="43.1797280" lon="-1.3397070">
        <ele>154.9</ele>
        <time>2019-07-15T09:22:06Z</time>
      </trkpt>
      <trkpt lat="43.1797120" lon="-1.3396440">
        <ele>154.9</ele>
        <time>2019-07-15T09:22:19Z</time>
      </trkpt>
      <trkpt lat="43.1796910" lon="-1.3396360">
        <ele>155.0</ele>
        <time>2019-07-15T09:22:27Z</time>
      </trkpt>
      <trkpt lat="43.1796890" lon="-1.3396660">
        <ele>155.0</ele>
        <time>2019-07-15T09:22:30Z</time>
      </trkpt>
      <trkpt lat="43.1797050" lon="-1.3397870">
        <ele>155.1</ele>
        <time>2019-07-15T09:22:52Z</time>
      </trkpt>
      <trkpt lat="43.1796270" lon="-1.3398970">
        <ele>155.2</ele>
        <time>2019-07-15T09:23:10Z</time>
      </trkpt>
      <trkpt lat="43.1795440" lon="-1.3399500">
        <ele>155.2</ele>
        <time>2019-07-15T09:23:16Z</time>
      </trkpt>
      <trkpt lat="43.1794540" lon="-1.3400390">
        <ele>155.3</ele>
        <time>2019-07-15T09:23:22Z</time>
      </trkpt>
      <trkpt lat="43.1793720" lon="-1.3401530">
        <ele>155.4</ele>
        <time>2019-07-15T09:23:26Z</time>
      </trkpt>
      <trkpt lat="43.1793000" lon="-1.3402270">
        <ele>155.6</ele>
        <time>2019-07-15T09:23:30Z</time>
      </trkpt>
      <trkpt lat="43.1792000" lon="-1.3402970">
        <ele>155.6</ele>
        <time>2019-07-15T09:23:35Z</time>
      </trkpt>
      <trkpt lat="43.1791230" lon="-1.3403610">
        <ele>155.6</ele>
        <time>2019-07-15T09:23:40Z</time>
      </trkpt>
      <trkpt lat="43.1790400" lon="-1.3404150">
        <ele>155.8</ele>
        <time>2019-07-15T09:23:45Z</time>
      </trkpt>
      <trkpt lat="43.1789490" lon="-1.3405030">
        <ele>156.1</ele>
        <time>2019-07-15T09:23:49Z</time>
      </trkpt>
      <trkpt lat="43.1788790" lon="-1.3405870">
        <ele>156.2</ele>
        <time>2019-07-15T09:23:52Z</time>
      </trkpt>
      <trkpt lat="43.1787900" lon="-1.3406870">
        <ele>155.9</ele>
        <time>2019-07-15T09:23:56Z</time>
      </trkpt>
      <trkpt lat="43.1787140" lon="-1.3407840">
        <ele>155.4</ele>
        <time>2019-07-15T09:24:00Z</time>
      </trkpt>
      <trkpt lat="43.1786380" lon="-1.3408930">
        <ele>154.7</ele>
        <time>2019-07-15T09:24:04Z</time>
      </trkpt>
      <trkpt lat="43.1785580" lon="-1.3409800">
        <ele>154.6</ele>
        <time>2019-07-15T09:24:08Z</time>
      </trkpt>
      <trkpt lat="43.1784830" lon="-1.3410660">
        <ele>154.6</ele>
        <time>2019-07-15T09:24:12Z</time>
      </trkpt>
      <trkpt lat="43.1784020" lon="-1.3411520">
        <ele>154.8</ele>
        <time>2019-07-15T09:24:16Z</time>
      </trkpt>
      <trkpt lat="43.1783250" lon="-1.3412450">
        <ele>154.9</ele>
        <time>2019-07-15T09:24:20Z</time>
      </trkpt>
      <trkpt lat="43.1782330" lon="-1.3413360">
        <ele>155.0</ele>
        <time>2019-07-15T09:24:24Z</time>
      </trkpt>
      <trkpt lat="43.1781670" lon="-1.3414350">
        <ele>155.2</ele>
        <time>2019-07-15T09:24:27Z</time>
      </trkpt>
      <trkpt lat="43.1780990" lon="-1.3415170">
        <ele>155.3</ele>
        <time>2019-07-15T09:24:30Z</time>
      </trkpt>
      <trkpt lat="43.1780250" lon="-1.3416060">
        <ele>155.4</ele>
        <time>2019-07-15T09:24:33Z</time>
      </trkpt>
      <trkpt lat="43.1779540" lon="-1.3416920">
        <ele>155.5</ele>
        <time>2019-07-15T09:24:36Z</time>
      </trkpt>
      <trkpt lat="43.1778780" lon="-1.3417780">
        <ele>155.6</ele>
        <time>2019-07-15T09:24:39Z</time>
      </trkpt>
      <trkpt lat="43.1777980" lon="-1.3418880">
        <ele>155.7</ele>
        <time>2019-07-15T09:24:43Z</time>
      </trkpt>
      <trkpt lat="43.1777270" lon="-1.3419880">
        <ele>155.8</ele>
        <time>2019-07-15T09:24:47Z</time>
      </trkpt>
      <trkpt lat="43.1777720" lon="-1.3418630">
        <ele>155.7</ele>
        <time>2019-07-15T09:24:58Z</time>
      </trkpt>
      <trkpt lat="43.1778520" lon="-1.3417760">
        <ele>155.6</ele>
        <time>2019-07-15T09:25:02Z</time>
      </trkpt>
      <trkpt lat="43.1779140" lon="-1.3416860">
        <ele>155.5</ele>
        <time>2019-07-15T09:25:05Z</time>
      </trkpt>
      <trkpt lat="43.1779880" lon="-1.3415960">
        <ele>155.4</ele>
        <time>2019-07-15T09:25:08Z</time>
      </trkpt>
      <trkpt lat="43.1780630" lon="-1.3415080">
        <ele>155.3</ele>
        <time>2019-07-15T09:25:11Z</time>
      </trkpt>
      <trkpt lat="43.1781360" lon="-1.3414150">
        <ele>155.2</ele>
        <time>2019-07-15T09:25:14Z</time>
      </trkpt>
      <trkpt lat="43.1782150" lon="-1.3413290">
        <ele>155.0</ele>
        <time>2019-07-15T09:25:17Z</time>
      </trkpt>
      <trkpt lat="43.1782890" lon="-1.3412440">
        <ele>154.9</ele>
        <time>2019-07-15T09:25:20Z</time>
      </trkpt>
      <trkpt lat="43.1783710" lon="-1.3411530">
        <ele>154.8</ele>
        <time>2019-07-15T09:25:23Z</time>
      </trkpt>
      <trkpt lat="43.1784550" lon="-1.3410550">
        <ele>154.7</ele>
        <time>2019-07-15T09:25:26Z</time>
      </trkpt>
      <trkpt lat="43.1785340" lon="-1.3409630">
        <ele>154.6</ele>
        <time>2019-07-15T09:25:29Z</time>
      </trkpt>
      <trkpt lat="43.1786220" lon="-1.3408650">
        <ele>154.7</ele>
        <time>2019-07-15T09:25:32Z</time>
      </trkpt>
      <trkpt lat="43.1787110" lon="-1.3407720">
        <ele>155.4</ele>
        <time>2019-07-15T09:25:35Z</time>
      </trkpt>
      <trkpt lat="43.1787870" lon="-1.3406710">
        <ele>155.9</ele>
        <time>2019-07-15T09:25:38Z</time>
      </trkpt>
      <trkpt lat="43.1788700" lon="-1.3405780">
        <ele>156.2</ele>
        <time>2019-07-15T09:25:41Z</time>
      </trkpt>
      <trkpt lat="43.1789390" lon="-1.3404830">
        <ele>156.1</ele>
        <time>2019-07-15T09:25:44Z</time>
      </trkpt>
      <trkpt lat="43.1790080" lon="-1.3403890">
        <ele>155.8</ele>
        <time>2019-07-15T09:25:47Z</time>
      </trkpt>
      <trkpt lat="43.1790860" lon="-1.3403210">
        <ele>155.6</ele>
        <time>2019-07-15T09:25:50Z</time>
      </trkpt>
      <trkpt lat="43.1791850" lon="-1.3402580">
        <ele>155.6</ele>
        <time>2019-07-15T09:25:54Z</time>
      </trkpt>
      <trkpt lat="43.1792500" lon="-1.3401640">
        <ele>155.6</ele>
        <time>2019-07-15T09:26:00Z</time>
      </trkpt>
      <trkpt lat="43.1792530" lon="-1.3401320">
        <ele>155.6</ele>
        <time>2019-07-15T09:26:07Z</time>
      </trkpt>
      <trkpt lat="43.1792240" lon="-1.3401910">
        <ele>155.6</ele>
        <time>2019-07-15T09:26:33Z</time>
      </trkpt>
      <trkpt lat="43.1791690" lon="-1.3402900">
        <ele>155.6</ele>
        <time>2019-07-15T09:51:09Z</time>
      </trkpt>
      <trkpt lat="43.1791670" lon="-1.3402990">
        <ele>155.6</ele>
        <time>2019-07-15T09:51:12Z</time>
      </trkpt>
      <trkpt lat="43.1791770" lon="-1.3403590">
        <ele>155.6</ele>
        <time>2019-07-15T09:53:02Z</time>
      </trkpt>
      <trkpt lat="43.1790720" lon="-1.3403790">
        <ele>155.6</ele>
        <time>2019-07-15T10:08:11Z</time>
      </trkpt>
      <trkpt lat="43.1789990" lon="-1.3404530">
        <ele>156.0</ele>
        <time>2019-07-15T10:08:14Z</time>
      </trkpt>
      <trkpt lat="43.1789060" lon="-1.3405380">
        <ele>156.2</ele>
        <time>2019-07-15T10:08:18Z</time>
      </trkpt>
      <trkpt lat="43.1788310" lon="-1.3406160">
        <ele>156.1</ele>
        <time>2019-07-15T10:08:21Z</time>
      </trkpt>
      <trkpt lat="43.1787550" lon="-1.3407010">
        <ele>155.7</ele>
        <time>2019-07-15T10:08:24Z</time>
      </trkpt>
      <trkpt lat="43.1786750" lon="-1.3407880">
        <ele>155.2</ele>
        <time>2019-07-15T10:08:28Z</time>
      </trkpt>
      <trkpt lat="43.1786040" lon="-1.3408850">
        <ele>154.7</ele>
        <time>2019-07-15T10:08:31Z</time>
      </trkpt>
      <trkpt lat="43.1785180" lon="-1.3410030">
        <ele>154.6</ele>
        <time>2019-07-15T10:08:34Z</time>
      </trkpt>
      <trkpt lat="43.1784410" lon="-1.3411000">
        <ele>154.7</ele>
        <time>2019-07-15T10:08:37Z</time>
      </trkpt>
      <trkpt lat="43.1783530" lon="-1.3412000">
        <ele>154.8</ele>
        <time>2019-07-15T10:08:40Z</time>
      </trkpt>
      <trkpt lat="43.1782740" lon="-1.3413000">
        <ele>155.0</ele>
        <time>2019-07-15T10:08:43Z</time>
      </trkpt>
      <trkpt lat="43.1781920" lon="-1.3413980">
        <ele>155.1</ele>
        <time>2019-07-15T10:08:46Z</time>
      </trkpt>
      <trkpt lat="43.1781240" lon="-1.3414980">
        <ele>155.2</ele>
        <time>2019-07-15T10:08:49Z</time>
      </trkpt>
      <trkpt lat="43.1780320" lon="-1.3416050">
        <ele>155.4</ele>
        <time>2019-07-15T10:08:53Z</time>
      </trkpt>
      <trkpt lat="43.1779570" lon="-1.3417020">
        <ele>155.5</ele>
        <time>2019-07-15T10:08:56Z</time>
      </trkpt>
      <trkpt lat="43.1778740" lon="-1.3418060">
        <ele>155.6</ele>
        <time>2019-07-15T10:08:59Z</time>
      </trkpt>
      <trkpt lat="43.1777980" lon="-1.3418960">
        <ele>155.7</ele>
        <time>2019-07-15T10:09:02Z</time>
      </trkpt>
      <trkpt lat="43.1777010" lon="-1.3419480">
        <ele>155.8</ele>
        <time>2019-07-15T10:09:05Z</time>
      </trkpt>
      <trkpt lat="43.1775960" lon="-1.3419710">
        <ele>156.0</ele>
        <time>2019-07-15T10:09:08Z</time>
      </trkpt>
      <trkpt lat="43.1774940" lon="-1.3419740">
        <ele>156.2</ele>
        <time>2019-07-15T10:09:11Z</time>
      </trkpt>
      <trkpt lat="43.1773980" lon="-1.3419580">
        <ele>156.5</ele>
        <time>2019-07-15T10:09:14Z</time>
      </trkpt>
      <trkpt lat="43.1772830" lon="-1.3419360">
        <ele>156.7</ele>
        <time>2019-07-15T10:09:18Z</time>
      </trkpt>
      <trkpt lat="43.1771890" lon="-1.3419230">
        <ele>157.0</ele>
        <time>2019-07-15T10:09:21Z</time>
      </trkpt>
      <trkpt lat="43.1770790" lon="-1.3419100">
        <ele>157.2</ele>
        <time>2019-07-15T10:09:24Z</time>
      </trkpt>
      <trkpt lat="43.1769700" lon="-1.3418970">
        <ele>157.5</ele>
        <time>2019-07-15T10:09:27Z</time>
      </trkpt>
      <trkpt lat="43.1768550" lon="-1.3419180">
        <ele>157.3</ele>
        <time>2019-07-15T10:09:30Z</time>
      </trkpt>
      <trkpt lat="43.1767570" lon="-1.3419640">
        <ele>157.2</ele>
        <time>2019-07-15T10:09:33Z</time>
      </trkpt>
      <trkpt lat="43.1766720" lon="-1.3420270">
        <ele>157.2</ele>
        <time>2019-07-15T10:09:36Z</time>
      </trkpt>
      <trkpt lat="43.1766180" lon="-1.3421700">
        <ele>157.2</ele>
        <time>2019-07-15T10:09:40Z</time>
      </trkpt>
      <trkpt lat="43.1765780" lon="-1.3422920">
        <ele>157.3</ele>
        <time>2019-07-15T10:09:43Z</time>
      </trkpt>
      <trkpt lat="43.1765500" lon="-1.3424400">
        <ele>157.5</ele>
        <time>2019-07-15T10:09:47Z</time>
      </trkpt>
      <trkpt lat="43.1765010" lon="-1.3425880">
        <ele>157.7</ele>
        <time>2019-07-15T10:09:51Z</time>
      </trkpt>
      <trkpt lat="43.1764470" lon="-1.3427070">
        <ele>157.8</ele>
        <time>2019-07-15T10:09:54Z</time>
      </trkpt>
      <trkpt lat="43.1764100" lon="-1.3428230">
        <ele>158.0</ele>
        <time>2019-07-15T10:09:57Z</time>
      </trkpt>
      <trkpt lat="43.1763780" lon="-1.3429430">
        <ele>158.1</ele>
        <time>2019-07-15T10:10:00Z</time>
      </trkpt>
      <trkpt lat="43.1763370" lon="-1.3430930">
        <ele>158.2</ele>
        <time>2019-07-15T10:10:04Z</time>
      </trkpt>
      <trkpt lat="43.1762870" lon="-1.3432130">
        <ele>158.3</ele>
        <time>2019-07-15T10:10:07Z</time>
      </trkpt>
      <trkpt lat="43.1762490" lon="-1.3433300">
        <ele>158.4</ele>
        <time>2019-07-15T10:10:10Z</time>
      </trkpt>
      <trkpt lat="43.1762270" lon="-1.3434730">
        <ele>158.4</ele>
        <time>2019-07-15T10:10:13Z</time>
      </trkpt>
      <trkpt lat="43.1762100" lon="-1.3436180">
        <ele>158.3</ele>
        <time>2019-07-15T10:10:16Z</time>
      </trkpt>
      <trkpt lat="43.1761970" lon="-1.3437480">
        <ele>158.2</ele>
        <time>2019-07-15T10:10:19Z</time>
      </trkpt>
      <trkpt lat="43.1761830" lon="-1.3438720">
        <ele>158.2</ele>
        <time>2019-07-15T10:10:22Z</time>
      </trkpt>
      <trkpt lat="43.1761590" lon="-1.3440340">
        <ele>158.2</ele>
        <time>2019-07-15T10:10:26Z</time>
      </trkpt>
      <trkpt lat="43.1761480" lon="-1.3441640">
        <ele>158.2</ele>
        <time>2019-07-15T10:10:29Z</time>
      </trkpt>
      <trkpt lat="43.1761330" lon="-1.3443000">
        <ele>158.2</ele>
        <time>2019-07-15T10:10:32Z</time>
      </trkpt>
      <trkpt lat="43.1761260" lon="-1.3444280">
        <ele>158.3</ele>
        <time>2019-07-15T10:10:35Z</time>
      </trkpt>
      <trkpt lat="43.1761230" lon="-1.3445690">
        <ele>158.4</ele>
        <time>2019-07-15T10:10:38Z</time>
      </trkpt>
      <trkpt lat="43.1761230" lon="-1.3447030">
        <ele>158.6</ele>
        <time>2019-07-15T10:10:41Z</time>
      </trkpt>
      <trkpt lat="43.1761120" lon="-1.3448360">
        <ele>158.8</ele>
        <time>2019-07-15T10:10:44Z</time>
      </trkpt>
      <trkpt lat="43.1760970" lon="-1.3449700">
        <ele>159.0</ele>
        <time>2019-07-15T10:10:47Z</time>
      </trkpt>
      <trkpt lat="43.1760790" lon="-1.3451010">
        <ele>159.1</ele>
        <time>2019-07-15T10:10:50Z</time>
      </trkpt>
      <trkpt lat="43.1760410" lon="-1.3452530">
        <ele>159.2</ele>
        <time>2019-07-15T10:10:54Z</time>
      </trkpt>
      <trkpt lat="43.1759960" lon="-1.3453740">
        <ele>159.3</ele>
        <time>2019-07-15T10:10:58Z</time>
      </trkpt>
      <trkpt lat="43.1759590" lon="-1.3454940">
        <ele>159.5</ele>
        <time>2019-07-15T10:11:01Z</time>
      </trkpt>
      <trkpt lat="43.1758980" lon="-1.3456230">
        <ele>159.8</ele>
        <time>2019-07-15T10:11:05Z</time>
      </trkpt>
      <trkpt lat="43.1758480" lon="-1.3457470">
        <ele>159.9</ele>
        <time>2019-07-15T10:11:09Z</time>
      </trkpt>
      <trkpt lat="43.1757920" lon="-1.3458680">
        <ele>160.1</ele>
        <time>2019-07-15T10:11:13Z</time>
      </trkpt>
      <trkpt lat="43.1757450" lon="-1.3459780">
        <ele>160.2</ele>
        <time>2019-07-15T10:11:16Z</time>
      </trkpt>
      <trkpt lat="43.1756940" lon="-1.3460850">
        <ele>160.4</ele>
        <time>2019-07-15T10:11:19Z</time>
      </trkpt>
      <trkpt lat="43.1756500" lon="-1.3462230">
        <ele>160.9</ele>
        <time>2019-07-15T10:11:22Z</time>
      </trkpt>
      <trkpt lat="43.1756010" lon="-1.3463420">
        <ele>161.3</ele>
        <time>2019-07-15T10:11:25Z</time>
      </trkpt>
      <trkpt lat="43.1755470" lon="-1.3464930">
        <ele>161.5</ele>
        <time>2019-07-15T10:11:29Z</time>
      </trkpt>
      <trkpt lat="43.1754950" lon="-1.3466080">
        <ele>161.5</ele>
        <time>2019-07-15T10:11:32Z</time>
      </trkpt>
      <trkpt lat="43.1754350" lon="-1.3467390">
        <ele>161.4</ele>
        <time>2019-07-15T10:11:36Z</time>
      </trkpt>
      <trkpt lat="43.1753820" lon="-1.3468490">
        <ele>161.4</ele>
        <time>2019-07-15T10:11:39Z</time>
      </trkpt>
      <trkpt lat="43.1753000" lon="-1.3469640">
        <ele>161.6</ele>
        <time>2019-07-15T10:11:43Z</time>
      </trkpt>
      <trkpt lat="43.1752390" lon="-1.3470610">
        <ele>161.7</ele>
        <time>2019-07-15T10:11:47Z</time>
      </trkpt>
      <trkpt lat="43.1751790" lon="-1.3471660">
        <ele>161.8</ele>
        <time>2019-07-15T10:11:52Z</time>
      </trkpt>
      <trkpt lat="43.1751310" lon="-1.3472790">
        <ele>161.8</ele>
        <time>2019-07-15T10:11:57Z</time>
      </trkpt>
      <trkpt lat="43.1751890" lon="-1.3473830">
        <ele>161.3</ele>
        <time>2019-07-15T10:12:01Z</time>
      </trkpt>
      <trkpt lat="43.1752550" lon="-1.3474850">
        <ele>160.9</ele>
        <time>2019-07-15T10:12:05Z</time>
      </trkpt>
      <trkpt lat="43.1753220" lon="-1.3476000">
        <ele>160.5</ele>
        <time>2019-07-15T10:12:09Z</time>
      </trkpt>
      <trkpt lat="43.1754210" lon="-1.3476780">
        <ele>160.2</ele>
        <time>2019-07-15T10:12:13Z</time>
      </trkpt>
      <trkpt lat="43.1755060" lon="-1.3477640">
        <ele>161.4</ele>
        <time>2019-07-15T10:12:17Z</time>
      </trkpt>
      <trkpt lat="43.1755740" lon="-1.3478550">
        <ele>162.8</ele>
        <time>2019-07-15T10:12:21Z</time>
      </trkpt>
      <trkpt lat="43.1756490" lon="-1.3479360">
        <ele>164.3</ele>
        <time>2019-07-15T10:12:25Z</time>
      </trkpt>
      <trkpt lat="43.1757290" lon="-1.3480380">
        <ele>165.9</ele>
        <time>2019-07-15T10:12:29Z</time>
      </trkpt>
      <trkpt lat="43.1757860" lon="-1.3481550">
        <ele>166.5</ele>
        <time>2019-07-15T10:12:33Z</time>
      </trkpt>
      <trkpt lat="43.1758440" lon="-1.3482830">
        <ele>166.9</ele>
        <time>2019-07-15T10:12:37Z</time>
      </trkpt>
      <trkpt lat="43.1758560" lon="-1.3484230">
        <ele>167.5</ele>
        <time>2019-07-15T10:12:42Z</time>
      </trkpt>
      <trkpt lat="43.1758350" lon="-1.3485640">
        <ele>168.0</ele>
        <time>2019-07-15T10:12:47Z</time>
      </trkpt>
      <trkpt lat="43.1757910" lon="-1.3486750">
        <ele>168.5</ele>
        <time>2019-07-15T10:12:51Z</time>
      </trkpt>
      <trkpt lat="43.1757550" lon="-1.3488030">
        <ele>169.0</ele>
        <time>2019-07-15T10:12:56Z</time>
      </trkpt>
      <trkpt lat="43.1756970" lon="-1.3489020">
        <ele>169.6</ele>
        <time>2019-07-15T10:13:04Z</time>
      </trkpt>
      <trkpt lat="43.1756520" lon="-1.3490210">
        <ele>170.3</ele>
        <time>2019-07-15T10:13:09Z</time>
      </trkpt>
      <trkpt lat="43.1755880" lon="-1.3491380">
        <ele>171.0</ele>
        <time>2019-07-15T10:13:15Z</time>
      </trkpt>
      <trkpt lat="43.1755150" lon="-1.3492360">
        <ele>171.4</ele>
        <time>2019-07-15T10:13:21Z</time>
      </trkpt>
      <trkpt lat="43.1754350" lon="-1.3493350">
        <ele>171.4</ele>
        <time>2019-07-15T10:13:27Z</time>
      </trkpt>
      <trkpt lat="43.1753610" lon="-1.3494230">
        <ele>171.4</ele>
        <time>2019-07-15T10:13:33Z</time>
      </trkpt>
      <trkpt lat="43.1752920" lon="-1.3495170">
        <ele>171.4</ele>
        <time>2019-07-15T10:13:40Z</time>
      </trkpt>
      <trkpt lat="43.1752150" lon="-1.3495990">
        <ele>171.4</ele>
        <time>2019-07-15T10:13:48Z</time>
      </trkpt>
      <trkpt lat="43.1751430" lon="-1.3496810">
        <ele>171.3</ele>
        <time>2019-07-15T10:13:55Z</time>
      </trkpt>
      <trkpt lat="43.1751240" lon="-1.3498060">
        <ele>171.6</ele>
        <time>2019-07-15T10:14:01Z</time>
      </trkpt>
      <trkpt lat="43.1751640" lon="-1.3499330">
        <ele>172.6</ele>
        <time>2019-07-15T10:14:08Z</time>
      </trkpt>
      <trkpt lat="43.1752360" lon="-1.3500240">
        <ele>173.7</ele>
        <time>2019-07-15T10:14:15Z</time>
      </trkpt>
      <trkpt lat="43.1753350" lon="-1.3500510">
        <ele>175.0</ele>
        <time>2019-07-15T10:14:21Z</time>
      </trkpt>
      <trkpt lat="43.1754360" lon="-1.3499750">
        <ele>176.3</ele>
        <time>2019-07-15T10:14:31Z</time>
      </trkpt>
      <trkpt lat="43.1755150" lon="-1.3498800">
        <ele>176.9</ele>
        <time>2019-07-15T10:14:36Z</time>
      </trkpt>
      <trkpt lat="43.1755860" lon="-1.3497980">
        <ele>177.3</ele>
        <time>2019-07-15T10:14:43Z</time>
      </trkpt>
      <trkpt lat="43.1756640" lon="-1.3497100">
        <ele>177.8</ele>
        <time>2019-07-15T10:14:49Z</time>
      </trkpt>
      <trkpt lat="43.1757460" lon="-1.3496290">
        <ele>178.3</ele>
        <time>2019-07-15T10:14:54Z</time>
      </trkpt>
      <trkpt lat="43.1758210" lon="-1.3495460">
        <ele>178.8</ele>
        <time>2019-07-15T10:15:01Z</time>
      </trkpt>
      <trkpt lat="43.1759140" lon="-1.3494830">
        <ele>179.3</ele>
        <time>2019-07-15T10:15:08Z</time>
      </trkpt>
      <trkpt lat="43.1760060" lon="-1.3494350">
        <ele>179.7</ele>
        <time>2019-07-15T10:15:15Z</time>
      </trkpt>
      <trkpt lat="43.1760940" lon="-1.3493920">
        <ele>180.1</ele>
        <time>2019-07-15T10:15:22Z</time>
      </trkpt>
      <trkpt lat="43.1761810" lon="-1.3493510">
        <ele>180.9</ele>
        <time>2019-07-15T10:15:29Z</time>
      </trkpt>
      <trkpt lat="43.1762720" lon="-1.3493140">
        <ele>181.8</ele>
        <time>2019-07-15T10:15:35Z</time>
      </trkpt>
      <trkpt lat="43.1763630" lon="-1.3492710">
        <ele>183.1</ele>
        <time>2019-07-15T10:15:41Z</time>
      </trkpt>
      <trkpt lat="43.1764680" lon="-1.3492780">
        <ele>184.6</ele>
        <time>2019-07-15T10:15:50Z</time>
      </trkpt>
      <trkpt lat="43.1765620" lon="-1.3492950">
        <ele>186.0</ele>
        <time>2019-07-15T10:15:57Z</time>
      </trkpt>
      <trkpt lat="43.1766480" lon="-1.3493660">
        <ele>187.5</ele>
        <time>2019-07-15T10:16:03Z</time>
      </trkpt>
      <trkpt lat="43.1767360" lon="-1.3494310">
        <ele>188.7</ele>
        <time>2019-07-15T10:16:10Z</time>
      </trkpt>
      <trkpt lat="43.1767890" lon="-1.3495410">
        <ele>189.6</ele>
        <time>2019-07-15T10:16:17Z</time>
      </trkpt>
      <trkpt lat="43.1768450" lon="-1.3496380">
        <ele>190.5</ele>
        <time>2019-07-15T10:16:24Z</time>
      </trkpt>
      <trkpt lat="43.1768900" lon="-1.3497540">
        <ele>191.3</ele>
        <time>2019-07-15T10:16:31Z</time>
      </trkpt>
      <trkpt lat="43.1769440" lon="-1.3498770">
        <ele>192.0</ele>
        <time>2019-07-15T10:16:38Z</time>
      </trkpt>
      <trkpt lat="43.1769730" lon="-1.3500140">
        <ele>192.6</ele>
        <time>2019-07-15T10:16:46Z</time>
      </trkpt>
      <trkpt lat="43.1770280" lon="-1.3501220">
        <ele>193.1</ele>
        <time>2019-07-15T10:16:51Z</time>
      </trkpt>
      <trkpt lat="43.1770800" lon="-1.3502300">
        <ele>193.6</ele>
        <time>2019-07-15T10:16:57Z</time>
      </trkpt>
      <trkpt lat="43.1771660" lon="-1.3502940">
        <ele>194.1</ele>
        <time>2019-07-15T10:17:03Z</time>
      </trkpt>
      <trkpt lat="43.1772700" lon="-1.3502840">
        <ele>194.7</ele>
        <time>2019-07-15T10:17:09Z</time>
      </trkpt>
      <trkpt lat="43.1773610" lon="-1.3502940">
        <ele>195.5</ele>
        <time>2019-07-15T10:17:14Z</time>
      </trkpt>
      <trkpt lat="43.1774510" lon="-1.3502960">
        <ele>196.2</ele>
        <time>2019-07-15T10:17:20Z</time>
      </trkpt>
      <trkpt lat="43.1775550" lon="-1.3503420">
        <ele>197.0</ele>
        <time>2019-07-15T10:17:27Z</time>
      </trkpt>
      <trkpt lat="43.1776440" lon="-1.3504130">
        <ele>197.8</ele>
        <time>2019-07-15T10:17:35Z</time>
      </trkpt>
      <trkpt lat="43.1776990" lon="-1.3505180">
        <ele>198.5</ele>
        <time>2019-07-15T10:17:42Z</time>
      </trkpt>
      <trkpt lat="43.1777370" lon="-1.3506360">
        <ele>199.2</ele>
        <time>2019-07-15T10:17:47Z</time>
      </trkpt>
      <trkpt lat="43.1778150" lon="-1.3507530">
        <ele>199.9</ele>
        <time>2019-07-15T10:17:53Z</time>
      </trkpt>
      <trkpt lat="43.1778410" lon="-1.3508770">
        <ele>200.4</ele>
        <time>2019-07-15T10:17:59Z</time>
      </trkpt>
      <trkpt lat="43.1778150" lon="-1.3510090">
        <ele>200.7</ele>
        <time>2019-07-15T10:18:04Z</time>
      </trkpt>
      <trkpt lat="43.1777310" lon="-1.3510870">
        <ele>201.1</ele>
        <time>2019-07-15T10:18:09Z</time>
      </trkpt>
      <trkpt lat="43.1776450" lon="-1.3511570">
        <ele>201.6</ele>
        <time>2019-07-15T10:18:15Z</time>
      </trkpt>
      <trkpt lat="43.1775370" lon="-1.3511520">
        <ele>202.3</ele>
        <time>2019-07-15T10:18:21Z</time>
      </trkpt>
      <trkpt lat="43.1774380" lon="-1.3510970">
        <ele>203.1</ele>
        <time>2019-07-15T10:18:27Z</time>
      </trkpt>
      <trkpt lat="43.1773650" lon="-1.3510170">
        <ele>204.1</ele>
        <time>2019-07-15T10:18:34Z</time>
      </trkpt>
      <trkpt lat="43.1772990" lon="-1.3509170">
        <ele>204.9</ele>
        <time>2019-07-15T10:18:42Z</time>
      </trkpt>
      <trkpt lat="43.1772000" lon="-1.3508510">
        <ele>205.6</ele>
        <time>2019-07-15T10:18:47Z</time>
      </trkpt>
      <trkpt lat="43.1771140" lon="-1.3507860">
        <ele>206.2</ele>
        <time>2019-07-15T10:18:51Z</time>
      </trkpt>
      <trkpt lat="43.1770210" lon="-1.3507240">
        <ele>206.6</ele>
        <time>2019-07-15T10:18:57Z</time>
      </trkpt>
      <trkpt lat="43.1769400" lon="-1.3506630">
        <ele>207.0</ele>
        <time>2019-07-15T10:19:02Z</time>
      </trkpt>
      <trkpt lat="43.1768480" lon="-1.3506710">
        <ele>207.3</ele>
        <time>2019-07-15T10:19:08Z</time>
      </trkpt>
      <trkpt lat="43.1767570" lon="-1.3507120">
        <ele>207.8</ele>
        <time>2019-07-15T10:19:14Z</time>
      </trkpt>
      <trkpt lat="43.1766670" lon="-1.3507390">
        <ele>208.1</ele>
        <time>2019-07-15T10:19:18Z</time>
      </trkpt>
      <trkpt lat="43.1765840" lon="-1.3507950">
        <ele>208.5</ele>
        <time>2019-07-15T10:19:24Z</time>
      </trkpt>
      <trkpt lat="43.1765080" lon="-1.3508780">
        <ele>209.0</ele>
        <time>2019-07-15T10:19:29Z</time>
      </trkpt>
      <trkpt lat="43.1764080" lon="-1.3509390">
        <ele>209.7</ele>
        <time>2019-07-15T10:19:36Z</time>
      </trkpt>
      <trkpt lat="43.1763310" lon="-1.3510160">
        <ele>210.3</ele>
        <time>2019-07-15T10:19:42Z</time>
      </trkpt>
      <trkpt lat="43.1762510" lon="-1.3510800">
        <ele>210.8</ele>
        <time>2019-07-15T10:19:48Z</time>
      </trkpt>
      <trkpt lat="43.1761840" lon="-1.3511650">
        <ele>211.4</ele>
        <time>2019-07-15T10:19:52Z</time>
      </trkpt>
      <trkpt lat="43.1761120" lon="-1.3512560">
        <ele>212.2</ele>
        <time>2019-07-15T10:19:57Z</time>
      </trkpt>
      <trkpt lat="43.1760490" lon="-1.3513690">
        <ele>213.1</ele>
        <time>2019-07-15T10:20:04Z</time>
      </trkpt>
      <trkpt lat="43.1760010" lon="-1.3514790">
        <ele>214.0</ele>
        <time>2019-07-15T10:20:09Z</time>
      </trkpt>
      <trkpt lat="43.1759560" lon="-1.3516010">
        <ele>214.8</ele>
        <time>2019-07-15T10:20:15Z</time>
      </trkpt>
      <trkpt lat="43.1759140" lon="-1.3517350">
        <ele>215.6</ele>
        <time>2019-07-15T10:20:21Z</time>
      </trkpt>
      <trkpt lat="43.1758790" lon="-1.3518490">
        <ele>216.3</ele>
        <time>2019-07-15T10:20:27Z</time>
      </trkpt>
      <trkpt lat="43.1758620" lon="-1.3519820">
        <ele>217.4</ele>
        <time>2019-07-15T10:20:33Z</time>
      </trkpt>
      <trkpt lat="43.1758850" lon="-1.3521170">
        <ele>218.3</ele>
        <time>2019-07-15T10:20:40Z</time>
      </trkpt>
      <trkpt lat="43.1758960" lon="-1.3522560">
        <ele>219.2</ele>
        <time>2019-07-15T10:20:47Z</time>
      </trkpt>
      <trkpt lat="43.1758990" lon="-1.3523900">
        <ele>219.9</ele>
        <time>2019-07-15T10:20:54Z</time>
      </trkpt>
      <trkpt lat="43.1759030" lon="-1.3525310">
        <ele>220.7</ele>
        <time>2019-07-15T10:21:00Z</time>
      </trkpt>
      <trkpt lat="43.1759110" lon="-1.3526640">
        <ele>221.4</ele>
        <time>2019-07-15T10:21:05Z</time>
      </trkpt>
      <trkpt lat="43.1759090" lon="-1.3527950">
        <ele>221.9</ele>
        <time>2019-07-15T10:21:11Z</time>
      </trkpt>
      <trkpt lat="43.1759270" lon="-1.3529340">
        <ele>222.4</ele>
        <time>2019-07-15T10:21:18Z</time>
      </trkpt>
      <trkpt lat="43.1759240" lon="-1.3530630">
        <ele>222.9</ele>
        <time>2019-07-15T10:21:24Z</time>
      </trkpt>
      <trkpt lat="43.1759090" lon="-1.3532010">
        <ele>223.5</ele>
        <time>2019-07-15T10:21:31Z</time>
      </trkpt>
      <trkpt lat="43.1759010" lon="-1.3533480">
        <ele>224.3</ele>
        <time>2019-07-15T10:21:39Z</time>
      </trkpt>
      <trkpt lat="43.1758780" lon="-1.3534890">
        <ele>225.2</ele>
        <time>2019-07-15T10:21:45Z</time>
      </trkpt>
      <trkpt lat="43.1757960" lon="-1.3535710">
        <ele>226.0</ele>
        <time>2019-07-15T10:21:52Z</time>
      </trkpt>
      <trkpt lat="43.1757120" lon="-1.3536240">
        <ele>226.6</ele>
        <time>2019-07-15T10:21:58Z</time>
      </trkpt>
      <trkpt lat="43.1756420" lon="-1.3537130">
        <ele>227.2</ele>
        <time>2019-07-15T10:22:04Z</time>
      </trkpt>
      <trkpt lat="43.1755560" lon="-1.3537530">
        <ele>227.7</ele>
        <time>2019-07-15T10:22:10Z</time>
      </trkpt>
      <trkpt lat="43.1754650" lon="-1.3537920">
        <ele>228.2</ele>
        <time>2019-07-15T10:22:15Z</time>
      </trkpt>
      <trkpt lat="43.1753750" lon="-1.3537960">
        <ele>228.7</ele>
        <time>2019-07-15T10:22:21Z</time>
      </trkpt>
      <trkpt lat="43.1752680" lon="-1.3538140">
        <ele>229.3</ele>
        <time>2019-07-15T10:22:27Z</time>
      </trkpt>
      <trkpt lat="43.1751760" lon="-1.3538280">
        <ele>229.7</ele>
        <time>2019-07-15T10:22:32Z</time>
      </trkpt>
      <trkpt lat="43.1750870" lon="-1.3538760">
        <ele>230.2</ele>
        <time>2019-07-15T10:22:37Z</time>
      </trkpt>
      <trkpt lat="43.1750120" lon="-1.3539660">
        <ele>230.8</ele>
        <time>2019-07-15T10:22:43Z</time>
      </trkpt>
      <trkpt lat="43.1749180" lon="-1.3540240">
        <ele>231.3</ele>
        <time>2019-07-15T10:22:49Z</time>
      </trkpt>
      <trkpt lat="43.1748450" lon="-1.3541160">
        <ele>231.9</ele>
        <time>2019-07-15T10:22:55Z</time>
      </trkpt>
      <trkpt lat="43.1747780" lon="-1.3542260">
        <ele>232.3</ele>
        <time>2019-07-15T10:23:01Z</time>
      </trkpt>
      <trkpt lat="43.1747110" lon="-1.3543330">
        <ele>233.0</ele>
        <time>2019-07-15T10:23:07Z</time>
      </trkpt>
      <trkpt lat="43.1746930" lon="-1.3544580">
        <ele>234.0</ele>
        <time>2019-07-15T10:23:13Z</time>
      </trkpt>
      <trkpt lat="43.1746740" lon="-1.3545910">
        <ele>234.9</ele>
        <time>2019-07-15T10:23:19Z</time>
      </trkpt>
      <trkpt lat="43.1746440" lon="-1.3547120">
        <ele>235.6</ele>
        <time>2019-07-15T10:23:25Z</time>
      </trkpt>
      <trkpt lat="43.1745970" lon="-1.3548400">
        <ele>236.4</ele>
        <time>2019-07-15T10:23:31Z</time>
      </trkpt>
      <trkpt lat="43.1745540" lon="-1.3549710">
        <ele>237.0</ele>
        <time>2019-07-15T10:23:37Z</time>
      </trkpt>
      <trkpt lat="43.1745390" lon="-1.3551080">
        <ele>237.6</ele>
        <time>2019-07-15T10:23:43Z</time>
      </trkpt>
      <trkpt lat="43.1745120" lon="-1.3552300">
        <ele>238.1</ele>
        <time>2019-07-15T10:23:49Z</time>
      </trkpt>
      <trkpt lat="43.1744890" lon="-1.3553510">
        <ele>238.8</ele>
        <time>2019-07-15T10:23:55Z</time>
      </trkpt>
      <trkpt lat="43.1744540" lon="-1.3554870">
        <ele>239.7</ele>
        <time>2019-07-15T10:24:02Z</time>
      </trkpt>
      <trkpt lat="43.1744060" lon="-1.3556170">
        <ele>240.8</ele>
        <time>2019-07-15T10:24:09Z</time>
      </trkpt>
      <trkpt lat="43.1743600" lon="-1.3557390">
        <ele>241.5</ele>
        <time>2019-07-15T10:24:15Z</time>
      </trkpt>
      <trkpt lat="43.1743090" lon="-1.3558520">
        <ele>242.1</ele>
        <time>2019-07-15T10:24:21Z</time>
      </trkpt>
      <trkpt lat="43.1742810" lon="-1.3559800">
        <ele>242.7</ele>
        <time>2019-07-15T10:24:27Z</time>
      </trkpt>
      <trkpt lat="43.1742510" lon="-1.3561000">
        <ele>243.2</ele>
        <time>2019-07-15T10:24:33Z</time>
      </trkpt>
      <trkpt lat="43.1742080" lon="-1.3562220">
        <ele>243.9</ele>
        <time>2019-07-15T10:24:39Z</time>
      </trkpt>
      <trkpt lat="43.1741700" lon="-1.3563490">
        <ele>244.6</ele>
        <time>2019-07-15T10:24:45Z</time>
      </trkpt>
      <trkpt lat="43.1741200" lon="-1.3564590">
        <ele>245.2</ele>
        <time>2019-07-15T10:24:51Z</time>
      </trkpt>
      <trkpt lat="43.1740590" lon="-1.3565550">
        <ele>245.8</ele>
        <time>2019-07-15T10:24:57Z</time>
      </trkpt>
      <trkpt lat="43.1739910" lon="-1.3566670">
        <ele>246.4</ele>
        <time>2019-07-15T10:25:04Z</time>
      </trkpt>
      <trkpt lat="43.1739380" lon="-1.3567670">
        <ele>246.8</ele>
        <time>2019-07-15T10:25:10Z</time>
      </trkpt>
      <trkpt lat="43.1738840" lon="-1.3568840">
        <ele>247.4</ele>
        <time>2019-07-15T10:25:16Z</time>
      </trkpt>
      <trkpt lat="43.1738480" lon="-1.3570120">
        <ele>248.2</ele>
        <time>2019-07-15T10:25:23Z</time>
      </trkpt>
      <trkpt lat="43.1738320" lon="-1.3571460">
        <ele>248.8</ele>
        <time>2019-07-15T10:25:29Z</time>
      </trkpt>
      <trkpt lat="43.1738200" lon="-1.3572840">
        <ele>249.4</ele>
        <time>2019-07-15T10:25:35Z</time>
      </trkpt>
      <trkpt lat="43.1738250" lon="-1.3574110">
        <ele>250.0</ele>
        <time>2019-07-15T10:25:41Z</time>
      </trkpt>
      <trkpt lat="43.1738360" lon="-1.3575410">
        <ele>250.7</ele>
        <time>2019-07-15T10:25:47Z</time>
      </trkpt>
      <trkpt lat="43.1738550" lon="-1.3576800">
        <ele>251.4</ele>
        <time>2019-07-15T10:25:53Z</time>
      </trkpt>
      <trkpt lat="43.1738920" lon="-1.3578090">
        <ele>252.2</ele>
        <time>2019-07-15T10:25:59Z</time>
      </trkpt>
      <trkpt lat="43.1739420" lon="-1.3579180">
        <ele>253.0</ele>
        <time>2019-07-15T10:26:04Z</time>
      </trkpt>
      <trkpt lat="43.1740000" lon="-1.3580410">
        <ele>254.0</ele>
        <time>2019-07-15T10:26:10Z</time>
      </trkpt>
      <trkpt lat="43.1740860" lon="-1.3581110">
        <ele>255.1</ele>
        <time>2019-07-15T10:26:16Z</time>
      </trkpt>
      <trkpt lat="43.1741750" lon="-1.3581480">
        <ele>256.0</ele>
        <time>2019-07-15T10:26:22Z</time>
      </trkpt>
      <trkpt lat="43.1742790" lon="-1.3581590">
        <ele>257.0</ele>
        <time>2019-07-15T10:26:28Z</time>
      </trkpt>
      <trkpt lat="43.1743760" lon="-1.3581550">
        <ele>257.9</ele>
        <time>2019-07-15T10:26:34Z</time>
      </trkpt>
      <trkpt lat="43.1744700" lon="-1.3581510">
        <ele>258.6</ele>
        <time>2019-07-15T10:26:40Z</time>
      </trkpt>
      <trkpt lat="43.1745630" lon="-1.3581620">
        <ele>259.4</ele>
        <time>2019-07-15T10:26:47Z</time>
      </trkpt>
      <trkpt lat="43.1746590" lon="-1.3581700">
        <ele>260.1</ele>
        <time>2019-07-15T10:26:53Z</time>
      </trkpt>
      <trkpt lat="43.1747510" lon="-1.3581550">
        <ele>260.8</ele>
        <time>2019-07-15T10:26:58Z</time>
      </trkpt>
      <trkpt lat="43.1748530" lon="-1.3581650">
        <ele>261.6</ele>
        <time>2019-07-15T10:27:04Z</time>
      </trkpt>
      <trkpt lat="43.1749510" lon="-1.3581360">
        <ele>262.4</ele>
        <time>2019-07-15T10:27:09Z</time>
      </trkpt>
      <trkpt lat="43.1750460" lon="-1.3581770">
        <ele>263.1</ele>
        <time>2019-07-15T10:27:15Z</time>
      </trkpt>
      <trkpt lat="43.1751480" lon="-1.3581980">
        <ele>263.9</ele>
        <time>2019-07-15T10:27:21Z</time>
      </trkpt>
      <trkpt lat="43.1752450" lon="-1.3582120">
        <ele>264.5</ele>
        <time>2019-07-15T10:27:27Z</time>
      </trkpt>
      <trkpt lat="43.1753510" lon="-1.3582080">
        <ele>265.3</ele>
        <time>2019-07-15T10:27:33Z</time>
      </trkpt>
      <trkpt lat="43.1754470" lon="-1.3582130">
        <ele>265.9</ele>
        <time>2019-07-15T10:27:39Z</time>
      </trkpt>
      <trkpt lat="43.1755460" lon="-1.3582300">
        <ele>266.5</ele>
        <time>2019-07-15T10:27:47Z</time>
      </trkpt>
      <trkpt lat="43.1756470" lon="-1.3582270">
        <ele>267.1</ele>
        <time>2019-07-15T10:27:53Z</time>
      </trkpt>
      <trkpt lat="43.1757470" lon="-1.3582660">
        <ele>267.8</ele>
        <time>2019-07-15T10:28:02Z</time>
      </trkpt>
      <trkpt lat="43.1758410" lon="-1.3582730">
        <ele>268.3</ele>
        <time>2019-07-15T10:28:08Z</time>
      </trkpt>
      <trkpt lat="43.1759450" lon="-1.3582760">
        <ele>269.0</ele>
        <time>2019-07-15T10:28:13Z</time>
      </trkpt>
      <trkpt lat="43.1760350" lon="-1.3583000">
        <ele>269.5</ele>
        <time>2019-07-15T10:28:20Z</time>
      </trkpt>
      <trkpt lat="43.1761310" lon="-1.3583490">
        <ele>270.1</ele>
        <time>2019-07-15T10:28:27Z</time>
      </trkpt>
      <trkpt lat="43.1762190" lon="-1.3583880">
        <ele>270.6</ele>
        <time>2019-07-15T10:28:33Z</time>
      </trkpt>
      <trkpt lat="43.1763020" lon="-1.3584480">
        <ele>271.1</ele>
        <time>2019-07-15T10:28:39Z</time>
      </trkpt>
      <trkpt lat="43.1763780" lon="-1.3585160">
        <ele>271.6</ele>
        <time>2019-07-15T10:28:44Z</time>
      </trkpt>
      <trkpt lat="43.1764640" lon="-1.3585690">
        <ele>272.1</ele>
        <time>2019-07-15T10:28:49Z</time>
      </trkpt>
      <trkpt lat="43.1765430" lon="-1.3586410">
        <ele>272.6</ele>
        <time>2019-07-15T10:28:56Z</time>
      </trkpt>
      <trkpt lat="43.1766250" lon="-1.3587060">
        <ele>273.1</ele>
        <time>2019-07-15T10:29:02Z</time>
      </trkpt>
      <trkpt lat="43.1767210" lon="-1.3587630">
        <ele>273.7</ele>
        <time>2019-07-15T10:29:08Z</time>
      </trkpt>
      <trkpt lat="43.1767610" lon="-1.3588850">
        <ele>274.3</ele>
        <time>2019-07-15T10:29:13Z</time>
      </trkpt>
      <trkpt lat="43.1768250" lon="-1.3589890">
        <ele>274.9</ele>
        <time>2019-07-15T10:29:19Z</time>
      </trkpt>
      <trkpt lat="43.1768900" lon="-1.3590880">
        <ele>275.5</ele>
        <time>2019-07-15T10:29:26Z</time>
      </trkpt>
      <trkpt lat="43.1769660" lon="-1.3591570">
        <ele>276.1</ele>
        <time>2019-07-15T10:29:32Z</time>
      </trkpt>
      <trkpt lat="43.1770380" lon="-1.3592520">
        <ele>276.8</ele>
        <time>2019-07-15T10:29:38Z</time>
      </trkpt>
      <trkpt lat="43.1770840" lon="-1.3593650">
        <ele>277.5</ele>
        <time>2019-07-15T10:29:43Z</time>
      </trkpt>
      <trkpt lat="43.1771300" lon="-1.3594820">
        <ele>278.3</ele>
        <time>2019-07-15T10:29:49Z</time>
      </trkpt>
      <trkpt lat="43.1771720" lon="-1.3595910">
        <ele>279.1</ele>
        <time>2019-07-15T10:29:55Z</time>
      </trkpt>
      <trkpt lat="43.1772030" lon="-1.3597150">
        <ele>279.9</ele>
        <time>2019-07-15T10:30:01Z</time>
      </trkpt>
      <trkpt lat="43.1772170" lon="-1.3598510">
        <ele>280.8</ele>
        <time>2019-07-15T10:30:07Z</time>
      </trkpt>
      <trkpt lat="43.1772390" lon="-1.3599720">
        <ele>281.6</ele>
        <time>2019-07-15T10:30:13Z</time>
      </trkpt>
      <trkpt lat="43.1772610" lon="-1.3601080">
        <ele>282.5</ele>
        <time>2019-07-15T10:30:19Z</time>
      </trkpt>
      <trkpt lat="43.1772910" lon="-1.3602250">
        <ele>283.2</ele>
        <time>2019-07-15T10:30:25Z</time>
      </trkpt>
      <trkpt lat="43.1773250" lon="-1.3603540">
        <ele>283.9</ele>
        <time>2019-07-15T10:30:31Z</time>
      </trkpt>
      <trkpt lat="43.1773600" lon="-1.3604880">
        <ele>284.6</ele>
        <time>2019-07-15T10:30:37Z</time>
      </trkpt>
      <trkpt lat="43.1773920" lon="-1.3606130">
        <ele>285.3</ele>
        <time>2019-07-15T10:30:43Z</time>
      </trkpt>
      <trkpt lat="43.1773840" lon="-1.3607500">
        <ele>286.1</ele>
        <time>2019-07-15T10:30:52Z</time>
      </trkpt>
      <trkpt lat="43.1774050" lon="-1.3608720">
        <ele>286.8</ele>
        <time>2019-07-15T10:30:59Z</time>
      </trkpt>
      <trkpt lat="43.1773860" lon="-1.3609990">
        <ele>287.4</ele>
        <time>2019-07-15T10:31:05Z</time>
      </trkpt>
      <trkpt lat="43.1773620" lon="-1.3611290">
        <ele>288.1</ele>
        <time>2019-07-15T10:31:10Z</time>
      </trkpt>
      <trkpt lat="43.1773520" lon="-1.3612530">
        <ele>288.7</ele>
        <time>2019-07-15T10:31:15Z</time>
      </trkpt>
      <trkpt lat="43.1773640" lon="-1.3613990">
        <ele>289.3</ele>
        <time>2019-07-15T10:31:21Z</time>
      </trkpt>
      <trkpt lat="43.1773980" lon="-1.3615320">
        <ele>289.9</ele>
        <time>2019-07-15T10:31:28Z</time>
      </trkpt>
      <trkpt lat="43.1774590" lon="-1.3616400">
        <ele>290.6</ele>
        <time>2019-07-15T10:31:34Z</time>
      </trkpt>
      <trkpt lat="43.1774860" lon="-1.3617580">
        <ele>291.1</ele>
        <time>2019-07-15T10:31:39Z</time>
      </trkpt>
      <trkpt lat="43.1775130" lon="-1.3618810">
        <ele>291.7</ele>
        <time>2019-07-15T10:31:45Z</time>
      </trkpt>
      <trkpt lat="43.1775240" lon="-1.3620240">
        <ele>292.3</ele>
        <time>2019-07-15T10:31:52Z</time>
      </trkpt>
      <trkpt lat="43.1775300" lon="-1.3621570">
        <ele>292.9</ele>
        <time>2019-07-15T10:32:01Z</time>
      </trkpt>
      <trkpt lat="43.1775170" lon="-1.3622800">
        <ele>293.5</ele>
        <time>2019-07-15T10:32:05Z</time>
      </trkpt>
      <trkpt lat="43.1774550" lon="-1.3623720">
        <ele>294.1</ele>
        <time>2019-07-15T10:32:09Z</time>
      </trkpt>
      <trkpt lat="43.1773860" lon="-1.3624550">
        <ele>294.6</ele>
        <time>2019-07-15T10:32:14Z</time>
      </trkpt>
      <trkpt lat="43.1773490" lon="-1.3625890">
        <ele>295.2</ele>
        <time>2019-07-15T10:32:20Z</time>
      </trkpt>
      <trkpt lat="43.1773110" lon="-1.3627160">
        <ele>295.8</ele>
        <time>2019-07-15T10:32:26Z</time>
      </trkpt>
      <trkpt lat="43.1772870" lon="-1.3628410">
        <ele>296.4</ele>
        <time>2019-07-15T10:32:32Z</time>
      </trkpt>
      <trkpt lat="43.1772610" lon="-1.3629670">
        <ele>297.1</ele>
        <time>2019-07-15T10:32:37Z</time>
      </trkpt>
      <trkpt lat="43.1772440" lon="-1.3630880">
        <ele>297.7</ele>
        <time>2019-07-15T10:32:43Z</time>
      </trkpt>
      <trkpt lat="43.1772300" lon="-1.3632230">
        <ele>298.4</ele>
        <time>2019-07-15T10:32:49Z</time>
      </trkpt>
      <trkpt lat="43.1772160" lon="-1.3633600">
        <ele>299.2</ele>
        <time>2019-07-15T10:32:56Z</time>
      </trkpt>
      <trkpt lat="43.1771650" lon="-1.3634870">
        <ele>300.2</ele>
        <time>2019-07-15T10:33:02Z</time>
      </trkpt>
      <trkpt lat="43.1771110" lon="-1.3635900">
        <ele>301.2</ele>
        <time>2019-07-15T10:33:08Z</time>
      </trkpt>
      <trkpt lat="43.1770360" lon="-1.3636750">
        <ele>302.2</ele>
        <time>2019-07-15T10:33:16Z</time>
      </trkpt>
      <trkpt lat="43.1769960" lon="-1.3637880">
        <ele>303.1</ele>
        <time>2019-07-15T10:33:23Z</time>
      </trkpt>
      <trkpt lat="43.1769710" lon="-1.3639180">
        <ele>304.1</ele>
        <time>2019-07-15T10:33:30Z</time>
      </trkpt>
      <trkpt lat="43.1769740" lon="-1.3640600">
        <ele>305.0</ele>
        <time>2019-07-15T10:33:37Z</time>
      </trkpt>
      <trkpt lat="43.1770350" lon="-1.3641620">
        <ele>306.0</ele>
        <time>2019-07-15T10:33:43Z</time>
      </trkpt>
      <trkpt lat="43.1770970" lon="-1.3642540">
        <ele>307.0</ele>
        <time>2019-07-15T10:33:49Z</time>
      </trkpt>
      <trkpt lat="43.1772100" lon="-1.3643180">
        <ele>308.3</ele>
        <time>2019-07-15T10:33:57Z</time>
      </trkpt>
      <trkpt lat="43.1773380" lon="-1.3643660">
        <ele>309.6</ele>
        <time>2019-07-15T10:34:05Z</time>
      </trkpt>
      <trkpt lat="43.1774590" lon="-1.3644420">
        <ele>310.6</ele>
        <time>2019-07-15T10:34:14Z</time>
      </trkpt>
      <trkpt lat="43.1775460" lon="-1.3645000">
        <ele>311.3</ele>
        <time>2019-07-15T10:34:20Z</time>
      </trkpt>
      <trkpt lat="43.1776330" lon="-1.3645550">
        <ele>312.0</ele>
        <time>2019-07-15T10:34:27Z</time>
      </trkpt>
      <trkpt lat="43.1777670" lon="-1.3646000">
        <ele>312.9</ele>
        <time>2019-07-15T10:34:36Z</time>
      </trkpt>
      <trkpt lat="43.1778720" lon="-1.3645780">
        <ele>313.7</ele>
        <time>2019-07-15T10:34:42Z</time>
      </trkpt>
      <trkpt lat="43.1779730" lon="-1.3646180">
        <ele>314.5</ele>
        <time>2019-07-15T10:34:49Z</time>
      </trkpt>
      <trkpt lat="43.1780320" lon="-1.3647180">
        <ele>315.3</ele>
        <time>2019-07-15T10:34:55Z</time>
      </trkpt>
      <trkpt lat="43.1780550" lon="-1.3648480">
        <ele>316.2</ele>
        <time>2019-07-15T10:35:02Z</time>
      </trkpt>
      <trkpt lat="43.1780550" lon="-1.3649800">
        <ele>317.2</ele>
        <time>2019-07-15T10:35:09Z</time>
      </trkpt>
      <trkpt lat="43.1780520" lon="-1.3651160">
        <ele>318.0</ele>
        <time>2019-07-15T10:35:17Z</time>
      </trkpt>
      <trkpt lat="43.1780290" lon="-1.3652360">
        <ele>318.7</ele>
        <time>2019-07-15T10:35:23Z</time>
      </trkpt>
      <trkpt lat="43.1779980" lon="-1.3653600">
        <ele>319.4</ele>
        <time>2019-07-15T10:35:30Z</time>
      </trkpt>
      <trkpt lat="43.1779520" lon="-1.3654700">
        <ele>320.0</ele>
        <time>2019-07-15T10:35:37Z</time>
      </trkpt>
      <trkpt lat="43.1778960" lon="-1.3655700">
        <ele>320.6</ele>
        <time>2019-07-15T10:35:43Z</time>
      </trkpt>
      <trkpt lat="43.1778670" lon="-1.3656990">
        <ele>321.3</ele>
        <time>2019-07-15T10:35:50Z</time>
      </trkpt>
      <trkpt lat="43.1778050" lon="-1.3657900">
        <ele>322.0</ele>
        <time>2019-07-15T10:35:56Z</time>
      </trkpt>
      <trkpt lat="43.1777290" lon="-1.3658830">
        <ele>322.9</ele>
        <time>2019-07-15T10:36:03Z</time>
      </trkpt>
      <trkpt lat="43.1776770" lon="-1.3660060">
        <ele>323.7</ele>
        <time>2019-07-15T10:36:09Z</time>
      </trkpt>
      <trkpt lat="43.1776440" lon="-1.3661230">
        <ele>324.5</ele>
        <time>2019-07-15T10:36:15Z</time>
      </trkpt>
      <trkpt lat="43.1775900" lon="-1.3662480">
        <ele>325.4</ele>
        <time>2019-07-15T10:36:22Z</time>
      </trkpt>
      <trkpt lat="43.1775390" lon="-1.3663530">
        <ele>326.2</ele>
        <time>2019-07-15T10:36:28Z</time>
      </trkpt>
      <trkpt lat="43.1774830" lon="-1.3664710">
        <ele>327.1</ele>
        <time>2019-07-15T10:36:35Z</time>
      </trkpt>
      <trkpt lat="43.1774250" lon="-1.3665870">
        <ele>328.0</ele>
        <time>2019-07-15T10:36:42Z</time>
      </trkpt>
      <trkpt lat="43.1773750" lon="-1.3666930">
        <ele>328.8</ele>
        <time>2019-07-15T10:36:48Z</time>
      </trkpt>
      <trkpt lat="43.1773490" lon="-1.3668140">
        <ele>329.7</ele>
        <time>2019-07-15T10:36:54Z</time>
      </trkpt>
      <trkpt lat="43.1773360" lon="-1.3669460">
        <ele>330.6</ele>
        <time>2019-07-15T10:37:00Z</time>
      </trkpt>
      <trkpt lat="43.1773180" lon="-1.3670740">
        <ele>331.5</ele>
        <time>2019-07-15T10:37:06Z</time>
      </trkpt>
      <trkpt lat="43.1773170" lon="-1.3672040">
        <ele>332.3</ele>
        <time>2019-07-15T10:37:12Z</time>
      </trkpt>
      <trkpt lat="43.1773090" lon="-1.3673290">
        <ele>333.1</ele>
        <time>2019-07-15T10:37:18Z</time>
      </trkpt>
      <trkpt lat="43.1773070" lon="-1.3674720">
        <ele>334.0</ele>
        <time>2019-07-15T10:37:25Z</time>
      </trkpt>
      <trkpt lat="43.1772930" lon="-1.3676000">
        <ele>334.8</ele>
        <time>2019-07-15T10:37:31Z</time>
      </trkpt>
      <trkpt lat="43.1773060" lon="-1.3677340">
        <ele>335.5</ele>
        <time>2019-07-15T10:37:38Z</time>
      </trkpt>
      <trkpt lat="43.1773120" lon="-1.3678770">
        <ele>336.3</ele>
        <time>2019-07-15T10:37:45Z</time>
      </trkpt>
      <trkpt lat="43.1773070" lon="-1.3680020">
        <ele>336.9</ele>
        <time>2019-07-15T10:37:51Z</time>
      </trkpt>
      <trkpt lat="43.1773260" lon="-1.3681240">
        <ele>337.5</ele>
        <time>2019-07-15T10:37:58Z</time>
      </trkpt>
      <trkpt lat="43.1773350" lon="-1.3682490">
        <ele>338.1</ele>
        <time>2019-07-15T10:38:04Z</time>
      </trkpt>
      <trkpt lat="43.1773790" lon="-1.3683740">
        <ele>338.7</ele>
        <time>2019-07-15T10:38:11Z</time>
      </trkpt>
      <trkpt lat="43.1774010" lon="-1.3685090">
        <ele>339.3</ele>
        <time>2019-07-15T10:38:18Z</time>
      </trkpt>
      <trkpt lat="43.1774120" lon="-1.3686390">
        <ele>339.8</ele>
        <time>2019-07-15T10:38:24Z</time>
      </trkpt>
      <trkpt lat="43.1774120" lon="-1.3687660">
        <ele>340.3</ele>
        <time>2019-07-15T10:38:29Z</time>
      </trkpt>
      <trkpt lat="43.1774290" lon="-1.3689050">
        <ele>340.8</ele>
        <time>2019-07-15T10:38:36Z</time>
      </trkpt>
      <trkpt lat="43.1774260" lon="-1.3690350">
        <ele>341.3</ele>
        <time>2019-07-15T10:38:43Z</time>
      </trkpt>
      <trkpt lat="43.1774260" lon="-1.3691610">
        <ele>341.7</ele>
        <time>2019-07-15T10:38:50Z</time>
      </trkpt>
      <trkpt lat="43.1774140" lon="-1.3692950">
        <ele>342.3</ele>
        <time>2019-07-15T10:38:57Z</time>
      </trkpt>
      <trkpt lat="43.1773880" lon="-1.3694210">
        <ele>342.9</ele>
        <time>2019-07-15T10:39:04Z</time>
      </trkpt>
      <trkpt lat="43.1773560" lon="-1.3695480">
        <ele>343.6</ele>
        <time>2019-07-15T10:39:11Z</time>
      </trkpt>
      <trkpt lat="43.1773120" lon="-1.3696690">
        <ele>344.4</ele>
        <time>2019-07-15T10:39:17Z</time>
      </trkpt>
      <trkpt lat="43.1772800" lon="-1.3697980">
        <ele>345.4</ele>
        <time>2019-07-15T10:39:23Z</time>
      </trkpt>
      <trkpt lat="43.1772730" lon="-1.3699370">
        <ele>346.6</ele>
        <time>2019-07-15T10:39:28Z</time>
      </trkpt>
      <trkpt lat="43.1773300" lon="-1.3700430">
        <ele>347.7</ele>
        <time>2019-07-15T10:39:33Z</time>
      </trkpt>
      <trkpt lat="43.1774080" lon="-1.3701130">
        <ele>348.8</ele>
        <time>2019-07-15T10:39:38Z</time>
      </trkpt>
      <trkpt lat="43.1775090" lon="-1.3701110">
        <ele>349.8</ele>
        <time>2019-07-15T10:39:45Z</time>
      </trkpt>
      <trkpt lat="43.1776010" lon="-1.3700870">
        <ele>350.7</ele>
        <time>2019-07-15T10:39:51Z</time>
      </trkpt>
      <trkpt lat="43.1777070" lon="-1.3700840">
        <ele>351.6</ele>
        <time>2019-07-15T10:39:58Z</time>
      </trkpt>
      <trkpt lat="43.1778050" lon="-1.3700760">
        <ele>352.5</ele>
        <time>2019-07-15T10:40:03Z</time>
      </trkpt>
      <trkpt lat="43.1779040" lon="-1.3700940">
        <ele>353.4</ele>
        <time>2019-07-15T10:40:09Z</time>
      </trkpt>
      <trkpt lat="43.1779960" lon="-1.3701230">
        <ele>354.2</ele>
        <time>2019-07-15T10:40:15Z</time>
      </trkpt>
      <trkpt lat="43.1781030" lon="-1.3701140">
        <ele>355.1</ele>
        <time>2019-07-15T10:40:21Z</time>
      </trkpt>
      <trkpt lat="43.1782170" lon="-1.3701020">
        <ele>356.0</ele>
        <time>2019-07-15T10:40:28Z</time>
      </trkpt>
      <trkpt lat="43.1783210" lon="-1.3701020">
        <ele>356.8</ele>
        <time>2019-07-15T10:40:34Z</time>
      </trkpt>
      <trkpt lat="43.1784150" lon="-1.3701270">
        <ele>357.4</ele>
        <time>2019-07-15T10:40:40Z</time>
      </trkpt>
      <trkpt lat="43.1785140" lon="-1.3701370">
        <ele>358.0</ele>
        <time>2019-07-15T10:40:49Z</time>
      </trkpt>
      <trkpt lat="43.1786100" lon="-1.3701590">
        <ele>358.6</ele>
        <time>2019-07-15T10:40:55Z</time>
      </trkpt>
      <trkpt lat="43.1787100" lon="-1.3702070">
        <ele>359.1</ele>
        <time>2019-07-15T10:41:02Z</time>
      </trkpt>
      <trkpt lat="43.1788060" lon="-1.3702280">
        <ele>359.5</ele>
        <time>2019-07-15T10:41:08Z</time>
      </trkpt>
      <trkpt lat="43.1788990" lon="-1.3702640">
        <ele>360.0</ele>
        <time>2019-07-15T10:41:15Z</time>
      </trkpt>
      <trkpt lat="43.1789950" lon="-1.3702610">
        <ele>360.5</ele>
        <time>2019-07-15T10:41:21Z</time>
      </trkpt>
      <trkpt lat="43.1790960" lon="-1.3702640">
        <ele>361.0</ele>
        <time>2019-07-15T10:41:28Z</time>
      </trkpt>
      <trkpt lat="43.1792090" lon="-1.3702770">
        <ele>361.5</ele>
        <time>2019-07-15T10:41:35Z</time>
      </trkpt>
      <trkpt lat="43.1793270" lon="-1.3702640">
        <ele>362.1</ele>
        <time>2019-07-15T10:41:43Z</time>
      </trkpt>
      <trkpt lat="43.1794150" lon="-1.3703160">
        <ele>362.5</ele>
        <time>2019-07-15T10:41:50Z</time>
      </trkpt>
      <trkpt lat="43.1795070" lon="-1.3703450">
        <ele>362.9</ele>
        <time>2019-07-15T10:41:56Z</time>
      </trkpt>
      <trkpt lat="43.1795940" lon="-1.3703810">
        <ele>363.3</ele>
        <time>2019-07-15T10:42:02Z</time>
      </trkpt>
      <trkpt lat="43.1796780" lon="-1.3704370">
        <ele>363.7</ele>
        <time>2019-07-15T10:42:10Z</time>
      </trkpt>
      <trkpt lat="43.1797660" lon="-1.3704790">
        <ele>364.1</ele>
        <time>2019-07-15T10:42:16Z</time>
      </trkpt>
      <trkpt lat="43.1798560" lon="-1.3704990">
        <ele>364.5</ele>
        <time>2019-07-15T10:42:22Z</time>
      </trkpt>
      <trkpt lat="43.1799520" lon="-1.3705360">
        <ele>365.0</ele>
        <time>2019-07-15T10:42:29Z</time>
      </trkpt>
      <trkpt lat="43.1800310" lon="-1.3706100">
        <ele>365.4</ele>
        <time>2019-07-15T10:42:35Z</time>
      </trkpt>
      <trkpt lat="43.1801020" lon="-1.3706930">
        <ele>366.0</ele>
        <time>2019-07-15T10:42:41Z</time>
      </trkpt>
      <trkpt lat="43.1801780" lon="-1.3707700">
        <ele>366.6</ele>
        <time>2019-07-15T10:42:47Z</time>
      </trkpt>
      <trkpt lat="43.1802560" lon="-1.3708560">
        <ele>367.2</ele>
        <time>2019-07-15T10:42:53Z</time>
      </trkpt>
      <trkpt lat="43.1803120" lon="-1.3709670">
        <ele>367.9</ele>
        <time>2019-07-15T10:42:59Z</time>
      </trkpt>
      <trkpt lat="43.1803720" lon="-1.3710680">
        <ele>368.6</ele>
        <time>2019-07-15T10:43:05Z</time>
      </trkpt>
      <trkpt lat="43.1804280" lon="-1.3711760">
        <ele>369.2</ele>
        <time>2019-07-15T10:43:12Z</time>
      </trkpt>
      <trkpt lat="43.1804780" lon="-1.3712820">
        <ele>369.8</ele>
        <time>2019-07-15T10:43:19Z</time>
      </trkpt>
      <trkpt lat="43.1805300" lon="-1.3713960">
        <ele>370.4</ele>
        <time>2019-07-15T10:43:26Z</time>
      </trkpt>
      <trkpt lat="43.1805330" lon="-1.3715300">
        <ele>371.0</ele>
        <time>2019-07-15T10:43:34Z</time>
      </trkpt>
      <trkpt lat="43.1805490" lon="-1.3716630">
        <ele>371.6</ele>
        <time>2019-07-15T10:43:41Z</time>
      </trkpt>
      <trkpt lat="43.1805360" lon="-1.3718030">
        <ele>372.1</ele>
        <time>2019-07-15T10:43:48Z</time>
      </trkpt>
      <trkpt lat="43.1805470" lon="-1.3719380">
        <ele>372.6</ele>
        <time>2019-07-15T10:43:55Z</time>
      </trkpt>
      <trkpt lat="43.1805360" lon="-1.3720760">
        <ele>373.0</ele>
        <time>2019-07-15T10:44:02Z</time>
      </trkpt>
      <trkpt lat="43.1805380" lon="-1.3722030">
        <ele>373.3</ele>
        <time>2019-07-15T10:44:09Z</time>
      </trkpt>
      <trkpt lat="43.1805330" lon="-1.3723290">
        <ele>373.6</ele>
        <time>2019-07-15T10:44:15Z</time>
      </trkpt>
      <trkpt lat="43.1805300" lon="-1.3724720">
        <ele>373.9</ele>
        <time>2019-07-15T10:44:21Z</time>
      </trkpt>
      <trkpt lat="43.1805320" lon="-1.3726050">
        <ele>374.2</ele>
        <time>2019-07-15T10:44:27Z</time>
      </trkpt>
      <trkpt lat="43.1805460" lon="-1.3727430">
        <ele>374.5</ele>
        <time>2019-07-15T10:44:34Z</time>
      </trkpt>
      <trkpt lat="43.1805600" lon="-1.3728680">
        <ele>374.7</ele>
        <time>2019-07-15T10:44:40Z</time>
      </trkpt>
      <trkpt lat="43.1805630" lon="-1.3730130">
        <ele>375.1</ele>
        <time>2019-07-15T10:44:47Z</time>
      </trkpt>
      <trkpt lat="43.1805930" lon="-1.3731390">
        <ele>375.4</ele>
        <time>2019-07-15T10:44:53Z</time>
      </trkpt>
      <trkpt lat="43.1806270" lon="-1.3732630">
        <ele>375.8</ele>
        <time>2019-07-15T10:44:59Z</time>
      </trkpt>
      <trkpt lat="43.1806800" lon="-1.3733760">
        <ele>376.3</ele>
        <time>2019-07-15T10:45:06Z</time>
      </trkpt>
      <trkpt lat="43.1807620" lon="-1.3734590">
        <ele>376.8</ele>
        <time>2019-07-15T10:45:13Z</time>
      </trkpt>
      <trkpt lat="43.1808380" lon="-1.3735450">
        <ele>377.5</ele>
        <time>2019-07-15T10:45:20Z</time>
      </trkpt>
      <trkpt lat="43.1809350" lon="-1.3735970">
        <ele>378.2</ele>
        <time>2019-07-15T10:45:27Z</time>
      </trkpt>
      <trkpt lat="43.1810190" lon="-1.3736490">
        <ele>379.1</ele>
        <time>2019-07-15T10:45:34Z</time>
      </trkpt>
      <trkpt lat="43.1811080" lon="-1.3737040">
        <ele>380.3</ele>
        <time>2019-07-15T10:45:41Z</time>
      </trkpt>
      <trkpt lat="43.1812050" lon="-1.3737680">
        <ele>381.5</ele>
        <time>2019-07-15T10:45:48Z</time>
      </trkpt>
      <trkpt lat="43.1812670" lon="-1.3738620">
        <ele>382.5</ele>
        <time>2019-07-15T10:45:54Z</time>
      </trkpt>
      <trkpt lat="43.1813120" lon="-1.3740050">
        <ele>383.8</ele>
        <time>2019-07-15T10:46:02Z</time>
      </trkpt>
      <trkpt lat="43.1813150" lon="-1.3741750">
        <ele>385.1</ele>
        <time>2019-07-15T10:46:10Z</time>
      </trkpt>
      <trkpt lat="43.1813220" lon="-1.3743340">
        <ele>386.2</ele>
        <time>2019-07-15T10:46:17Z</time>
      </trkpt>
      <trkpt lat="43.1814170" lon="-1.3744450">
        <ele>387.5</ele>
        <time>2019-07-15T10:46:25Z</time>
      </trkpt>
      <trkpt lat="43.1815030" lon="-1.3744960">
        <ele>388.4</ele>
        <time>2019-07-15T10:46:31Z</time>
      </trkpt>
      <trkpt lat="43.1815950" lon="-1.3745180">
        <ele>389.1</ele>
        <time>2019-07-15T10:46:37Z</time>
      </trkpt>
      <trkpt lat="43.1816910" lon="-1.3745490">
        <ele>389.8</ele>
        <time>2019-07-15T10:46:43Z</time>
      </trkpt>
      <trkpt lat="43.1817810" lon="-1.3745770">
        <ele>390.5</ele>
        <time>2019-07-15T10:46:49Z</time>
      </trkpt>
      <trkpt lat="43.1819030" lon="-1.3746170">
        <ele>391.3</ele>
        <time>2019-07-15T10:46:57Z</time>
      </trkpt>
      <trkpt lat="43.1819920" lon="-1.3746580">
        <ele>391.8</ele>
        <time>2019-07-15T10:47:03Z</time>
      </trkpt>
      <trkpt lat="43.1820860" lon="-1.3747170">
        <ele>392.4</ele>
        <time>2019-07-15T10:47:10Z</time>
      </trkpt>
      <trkpt lat="43.1821740" lon="-1.3747730">
        <ele>393.0</ele>
        <time>2019-07-15T10:47:17Z</time>
      </trkpt>
      <trkpt lat="43.1822640" lon="-1.3748330">
        <ele>393.6</ele>
        <time>2019-07-15T10:47:24Z</time>
      </trkpt>
      <trkpt lat="43.1823510" lon="-1.3749100">
        <ele>394.2</ele>
        <time>2019-07-15T10:47:32Z</time>
      </trkpt>
      <trkpt lat="43.1824210" lon="-1.3750130">
        <ele>394.8</ele>
        <time>2019-07-15T10:47:39Z</time>
      </trkpt>
      <trkpt lat="43.1825000" lon="-1.3750780">
        <ele>395.3</ele>
        <time>2019-07-15T10:47:45Z</time>
      </trkpt>
      <trkpt lat="43.1825850" lon="-1.3751340">
        <ele>395.8</ele>
        <time>2019-07-15T10:47:51Z</time>
      </trkpt>
      <trkpt lat="43.1826670" lon="-1.3752190">
        <ele>396.5</ele>
        <time>2019-07-15T10:47:59Z</time>
      </trkpt>
      <trkpt lat="43.1827360" lon="-1.3753010">
        <ele>397.0</ele>
        <time>2019-07-15T10:48:06Z</time>
      </trkpt>
      <trkpt lat="43.1828180" lon="-1.3754100">
        <ele>397.7</ele>
        <time>2019-07-15T10:48:14Z</time>
      </trkpt>
      <trkpt lat="43.1828970" lon="-1.3754730">
        <ele>398.2</ele>
        <time>2019-07-15T10:48:20Z</time>
      </trkpt>
      <trkpt lat="43.1829870" lon="-1.3755130">
        <ele>398.8</ele>
        <time>2019-07-15T10:48:26Z</time>
      </trkpt>
      <trkpt lat="43.1830830" lon="-1.3755290">
        <ele>399.3</ele>
        <time>2019-07-15T10:48:32Z</time>
      </trkpt>
      <trkpt lat="43.1831750" lon="-1.3755440">
        <ele>399.9</ele>
        <time>2019-07-15T10:48:39Z</time>
      </trkpt>
      <trkpt lat="43.1832750" lon="-1.3755610">
        <ele>400.4</ele>
        <time>2019-07-15T10:48:46Z</time>
      </trkpt>
      <trkpt lat="43.1833680" lon="-1.3756010">
        <ele>400.9</ele>
        <time>2019-07-15T10:48:53Z</time>
      </trkpt>
      <trkpt lat="43.1834100" lon="-1.3757200">
        <ele>401.6</ele>
        <time>2019-07-15T10:49:01Z</time>
      </trkpt>
      <trkpt lat="43.1834120" lon="-1.3758490">
        <ele>402.2</ele>
        <time>2019-07-15T10:49:11Z</time>
      </trkpt>
      <trkpt lat="43.1834020" lon="-1.3758670">
        <ele>402.3</ele>
        <time>2019-07-15T10:49:15Z</time>
      </trkpt>
      <trkpt lat="43.1833460" lon="-1.3759970">
        <ele>403.0</ele>
        <time>2019-07-15T10:50:33Z</time>
      </trkpt>
      <trkpt lat="43.1832520" lon="-1.3760440">
        <ele>403.6</ele>
        <time>2019-07-15T10:50:37Z</time>
      </trkpt>
      <trkpt lat="43.1831590" lon="-1.3760930">
        <ele>404.3</ele>
        <time>2019-07-15T10:50:41Z</time>
      </trkpt>
      <trkpt lat="43.1830580" lon="-1.3761480">
        <ele>405.0</ele>
        <time>2019-07-15T10:50:45Z</time>
      </trkpt>
      <trkpt lat="43.1829540" lon="-1.3761820">
        <ele>405.6</ele>
        <time>2019-07-15T10:50:49Z</time>
      </trkpt>
      <trkpt lat="43.1828560" lon="-1.3762110">
        <ele>406.1</ele>
        <time>2019-07-15T10:50:53Z</time>
      </trkpt>
      <trkpt lat="43.1827600" lon="-1.3762300">
        <ele>406.7</ele>
        <time>2019-07-15T10:50:57Z</time>
      </trkpt>
      <trkpt lat="43.1826700" lon="-1.3762290">
        <ele>407.2</ele>
        <time>2019-07-15T10:51:01Z</time>
      </trkpt>
      <trkpt lat="43.1825760" lon="-1.3762290">
        <ele>407.7</ele>
        <time>2019-07-15T10:51:05Z</time>
      </trkpt>
      <trkpt lat="43.1824710" lon="-1.3762110">
        <ele>408.3</ele>
        <time>2019-07-15T10:51:10Z</time>
      </trkpt>
      <trkpt lat="43.1823670" lon="-1.3761660">
        <ele>408.9</ele>
        <time>2019-07-15T10:51:15Z</time>
      </trkpt>
      <trkpt lat="43.1822740" lon="-1.3761260">
        <ele>409.5</ele>
        <time>2019-07-15T10:51:21Z</time>
      </trkpt>
      <trkpt lat="43.1821900" lon="-1.3760790">
        <ele>410.1</ele>
        <time>2019-07-15T10:51:27Z</time>
      </trkpt>
      <trkpt lat="43.1820960" lon="-1.3760460">
        <ele>410.8</ele>
        <time>2019-07-15T10:51:33Z</time>
      </trkpt>
      <trkpt lat="43.1820040" lon="-1.3760090">
        <ele>411.5</ele>
        <time>2019-07-15T10:51:39Z</time>
      </trkpt>
      <trkpt lat="43.1819080" lon="-1.3760140">
        <ele>412.2</ele>
        <time>2019-07-15T10:51:45Z</time>
      </trkpt>
      <trkpt lat="43.1818180" lon="-1.3760320">
        <ele>412.9</ele>
        <time>2019-07-15T10:51:51Z</time>
      </trkpt>
      <trkpt lat="43.1817280" lon="-1.3760610">
        <ele>413.6</ele>
        <time>2019-07-15T10:51:58Z</time>
      </trkpt>
      <trkpt lat="43.1816350" lon="-1.3761050">
        <ele>414.4</ele>
        <time>2019-07-15T10:52:05Z</time>
      </trkpt>
      <trkpt lat="43.1815510" lon="-1.3761580">
        <ele>415.1</ele>
        <time>2019-07-15T10:52:12Z</time>
      </trkpt>
      <trkpt lat="43.1814590" lon="-1.3762070">
        <ele>415.8</ele>
        <time>2019-07-15T10:52:19Z</time>
      </trkpt>
      <trkpt lat="43.1813740" lon="-1.3762510">
        <ele>416.5</ele>
        <time>2019-07-15T10:52:24Z</time>
      </trkpt>
      <trkpt lat="43.1812710" lon="-1.3762880">
        <ele>417.3</ele>
        <time>2019-07-15T10:52:30Z</time>
      </trkpt>
      <trkpt lat="43.1811820" lon="-1.3763300">
        <ele>418.0</ele>
        <time>2019-07-15T10:52:36Z</time>
      </trkpt>
      <trkpt lat="43.1810890" lon="-1.3763570">
        <ele>418.7</ele>
        <time>2019-07-15T10:52:42Z</time>
      </trkpt>
      <trkpt lat="43.1809650" lon="-1.3764240">
        <ele>419.6</ele>
        <time>2019-07-15T10:52:51Z</time>
      </trkpt>
      <trkpt lat="43.1808730" lon="-1.3764620">
        <ele>420.3</ele>
        <time>2019-07-15T10:52:58Z</time>
      </trkpt>
      <trkpt lat="43.1807850" lon="-1.3764980">
        <ele>421.0</ele>
        <time>2019-07-15T10:53:04Z</time>
      </trkpt>
      <trkpt lat="43.1806900" lon="-1.3765090">
        <ele>421.6</ele>
        <time>2019-07-15T10:53:11Z</time>
      </trkpt>
      <trkpt lat="43.1805780" lon="-1.3765100">
        <ele>422.4</ele>
        <time>2019-07-15T10:53:18Z</time>
      </trkpt>
      <trkpt lat="43.1804930" lon="-1.3764630">
        <ele>423.1</ele>
        <time>2019-07-15T10:53:24Z</time>
      </trkpt>
      <trkpt lat="43.1804060" lon="-1.3763900">
        <ele>423.9</ele>
        <time>2019-07-15T10:53:31Z</time>
      </trkpt>
      <trkpt lat="43.1803120" lon="-1.3763310">
        <ele>424.7</ele>
        <time>2019-07-15T10:53:38Z</time>
      </trkpt>
      <trkpt lat="43.1802200" lon="-1.3763110">
        <ele>425.3</ele>
        <time>2019-07-15T10:53:45Z</time>
      </trkpt>
      <trkpt lat="43.1801210" lon="-1.3763140">
        <ele>426.0</ele>
        <time>2019-07-15T10:53:52Z</time>
      </trkpt>
      <trkpt lat="43.1800230" lon="-1.3762990">
        <ele>426.6</ele>
        <time>2019-07-15T10:54:01Z</time>
      </trkpt>
      <trkpt lat="43.1799080" lon="-1.3762190">
        <ele>427.3</ele>
        <time>2019-07-15T10:54:07Z</time>
      </trkpt>
      <trkpt lat="43.1798160" lon="-1.3761830">
        <ele>427.8</ele>
        <time>2019-07-15T10:54:13Z</time>
      </trkpt>
      <trkpt lat="43.1797240" lon="-1.3761480">
        <ele>428.3</ele>
        <time>2019-07-15T10:54:21Z</time>
      </trkpt>
      <trkpt lat="43.1796340" lon="-1.3760940">
        <ele>428.8</ele>
        <time>2019-07-15T10:54:29Z</time>
      </trkpt>
      <trkpt lat="43.1795550" lon="-1.3760270">
        <ele>429.3</ele>
        <time>2019-07-15T10:54:36Z</time>
      </trkpt>
      <trkpt lat="43.1794800" lon="-1.3759540">
        <ele>429.8</ele>
        <time>2019-07-15T10:54:43Z</time>
      </trkpt>
      <trkpt lat="43.1793940" lon="-1.3759070">
        <ele>430.3</ele>
        <time>2019-07-15T10:54:50Z</time>
      </trkpt>
      <trkpt lat="43.1792940" lon="-1.3758440">
        <ele>430.8</ele>
        <time>2019-07-15T10:54:58Z</time>
      </trkpt>
      <trkpt lat="43.1792130" lon="-1.3757540">
        <ele>431.2</ele>
        <time>2019-07-15T10:55:05Z</time>
      </trkpt>
      <trkpt lat="43.1791350" lon="-1.3756700">
        <ele>431.7</ele>
        <time>2019-07-15T10:55:11Z</time>
      </trkpt>
      <trkpt lat="43.1790520" lon="-1.3755790">
        <ele>432.2</ele>
        <time>2019-07-15T10:55:18Z</time>
      </trkpt>
      <trkpt lat="43.1789760" lon="-1.3755030">
        <ele>432.8</ele>
        <time>2019-07-15T10:55:24Z</time>
      </trkpt>
      <trkpt lat="43.1788990" lon="-1.3754200">
        <ele>433.5</ele>
        <time>2019-07-15T10:55:29Z</time>
      </trkpt>
      <trkpt lat="43.1788200" lon="-1.3753300">
        <ele>434.5</ele>
        <time>2019-07-15T10:55:34Z</time>
      </trkpt>
      <trkpt lat="43.1787260" lon="-1.3753100">
        <ele>435.4</ele>
        <time>2019-07-15T10:55:38Z</time>
      </trkpt>
      <trkpt lat="43.1786480" lon="-1.3753760">
        <ele>436.3</ele>
        <time>2019-07-15T10:55:42Z</time>
      </trkpt>
      <trkpt lat="43.1785710" lon="-1.3754500">
        <ele>437.2</ele>
        <time>2019-07-15T10:55:47Z</time>
      </trkpt>
      <trkpt lat="43.1784920" lon="-1.3755100">
        <ele>438.0</ele>
        <time>2019-07-15T10:55:52Z</time>
      </trkpt>
      <trkpt lat="43.1784020" lon="-1.3755830">
        <ele>438.8</ele>
        <time>2019-07-15T10:55:58Z</time>
      </trkpt>
      <trkpt lat="43.1783160" lon="-1.3756220">
        <ele>439.5</ele>
        <time>2019-07-15T10:56:03Z</time>
      </trkpt>
      <trkpt lat="43.1782130" lon="-1.3756700">
        <ele>440.4</ele>
        <time>2019-07-15T10:56:09Z</time>
      </trkpt>
      <trkpt lat="43.1781140" lon="-1.3757330">
        <ele>441.4</ele>
        <time>2019-07-15T10:56:15Z</time>
      </trkpt>
      <trkpt lat="43.1780540" lon="-1.3758440">
        <ele>442.3</ele>
        <time>2019-07-15T10:56:21Z</time>
      </trkpt>
      <trkpt lat="43.1780230" lon="-1.3759810">
        <ele>443.3</ele>
        <time>2019-07-15T10:56:27Z</time>
      </trkpt>
      <trkpt lat="43.1780040" lon="-1.3761050">
        <ele>444.1</ele>
        <time>2019-07-15T10:56:33Z</time>
      </trkpt>
      <trkpt lat="43.1780100" lon="-1.3762370">
        <ele>444.9</ele>
        <time>2019-07-15T10:56:39Z</time>
      </trkpt>
      <trkpt lat="43.1780180" lon="-1.3763810">
        <ele>445.8</ele>
        <time>2019-07-15T10:56:46Z</time>
      </trkpt>
      <trkpt lat="43.1780260" lon="-1.3765080">
        <ele>446.5</ele>
        <time>2019-07-15T10:56:52Z</time>
      </trkpt>
      <trkpt lat="43.1780490" lon="-1.3766480">
        <ele>447.3</ele>
        <time>2019-07-15T10:56:59Z</time>
      </trkpt>
      <trkpt lat="43.1780570" lon="-1.3767740">
        <ele>448.0</ele>
        <time>2019-07-15T10:57:05Z</time>
      </trkpt>
      <trkpt lat="43.1780950" lon="-1.3769050">
        <ele>448.8</ele>
        <time>2019-07-15T10:57:12Z</time>
      </trkpt>
      <trkpt lat="43.1781060" lon="-1.3770450">
        <ele>449.5</ele>
        <time>2019-07-15T10:57:19Z</time>
      </trkpt>
      <trkpt lat="43.1781280" lon="-1.3771660">
        <ele>450.1</ele>
        <time>2019-07-15T10:57:25Z</time>
      </trkpt>
      <trkpt lat="43.1781460" lon="-1.3772940">
        <ele>450.8</ele>
        <time>2019-07-15T10:57:31Z</time>
      </trkpt>
      <trkpt lat="43.1781720" lon="-1.3774210">
        <ele>451.5</ele>
        <time>2019-07-15T10:57:37Z</time>
      </trkpt>
      <trkpt lat="43.1782040" lon="-1.3775370">
        <ele>452.0</ele>
        <time>2019-07-15T10:57:43Z</time>
      </trkpt>
      <trkpt lat="43.1782590" lon="-1.3776550">
        <ele>452.7</ele>
        <time>2019-07-15T10:57:50Z</time>
      </trkpt>
      <trkpt lat="43.1783180" lon="-1.3777540">
        <ele>453.3</ele>
        <time>2019-07-15T10:57:56Z</time>
      </trkpt>
      <trkpt lat="43.1783760" lon="-1.3778560">
        <ele>453.9</ele>
        <time>2019-07-15T10:58:02Z</time>
      </trkpt>
      <trkpt lat="43.1784430" lon="-1.3779490">
        <ele>454.5</ele>
        <time>2019-07-15T10:58:08Z</time>
      </trkpt>
      <trkpt lat="43.1785180" lon="-1.3780260">
        <ele>455.1</ele>
        <time>2019-07-15T10:58:14Z</time>
      </trkpt>
      <trkpt lat="43.1786120" lon="-1.3780760">
        <ele>455.7</ele>
        <time>2019-07-15T10:58:21Z</time>
      </trkpt>
      <trkpt lat="43.1787100" lon="-1.3781220">
        <ele>456.4</ele>
        <time>2019-07-15T10:58:28Z</time>
      </trkpt>
      <trkpt lat="43.1788120" lon="-1.3781320">
        <ele>457.0</ele>
        <time>2019-07-15T10:58:34Z</time>
      </trkpt>
      <trkpt lat="43.1789160" lon="-1.3781340">
        <ele>457.6</ele>
        <time>2019-07-15T10:58:40Z</time>
      </trkpt>
      <trkpt lat="43.1790060" lon="-1.3781480">
        <ele>458.2</ele>
        <time>2019-07-15T10:58:46Z</time>
      </trkpt>
      <trkpt lat="43.1791120" lon="-1.3781570">
        <ele>458.9</ele>
        <time>2019-07-15T10:58:53Z</time>
      </trkpt>
      <trkpt lat="43.1792040" lon="-1.3781660">
        <ele>459.5</ele>
        <time>2019-07-15T10:58:59Z</time>
      </trkpt>
      <trkpt lat="43.1793010" lon="-1.3781770">
        <ele>460.2</ele>
        <time>2019-07-15T10:59:06Z</time>
      </trkpt>
      <trkpt lat="43.1793940" lon="-1.3782200">
        <ele>460.9</ele>
        <time>2019-07-15T10:59:13Z</time>
      </trkpt>
      <trkpt lat="43.1794840" lon="-1.3782390">
        <ele>461.5</ele>
        <time>2019-07-15T10:59:19Z</time>
      </trkpt>
      <trkpt lat="43.1795680" lon="-1.3782870">
        <ele>462.1</ele>
        <time>2019-07-15T10:59:25Z</time>
      </trkpt>
      <trkpt lat="43.1796560" lon="-1.3783480">
        <ele>462.8</ele>
        <time>2019-07-15T10:59:32Z</time>
      </trkpt>
      <trkpt lat="43.1797400" lon="-1.3784070">
        <ele>463.4</ele>
        <time>2019-07-15T10:59:38Z</time>
      </trkpt>
      <trkpt lat="43.1798250" lon="-1.3784590">
        <ele>464.0</ele>
        <time>2019-07-15T10:59:44Z</time>
      </trkpt>
      <trkpt lat="43.1799160" lon="-1.3785110">
        <ele>464.7</ele>
        <time>2019-07-15T10:59:51Z</time>
      </trkpt>
      <trkpt lat="43.1799920" lon="-1.3786040">
        <ele>465.3</ele>
        <time>2019-07-15T10:59:58Z</time>
      </trkpt>
      <trkpt lat="43.1800670" lon="-1.3786780">
        <ele>465.9</ele>
        <time>2019-07-15T11:00:05Z</time>
      </trkpt>
      <trkpt lat="43.1801470" lon="-1.3787410">
        <ele>466.6</ele>
        <time>2019-07-15T11:00:11Z</time>
      </trkpt>
      <trkpt lat="43.1802250" lon="-1.3788370">
        <ele>467.4</ele>
        <time>2019-07-15T11:00:19Z</time>
      </trkpt>
      <trkpt lat="43.1803190" lon="-1.3788820">
        <ele>468.1</ele>
        <time>2019-07-15T11:00:25Z</time>
      </trkpt>
      <trkpt lat="43.1804160" lon="-1.3789160">
        <ele>468.8</ele>
        <time>2019-07-15T11:00:31Z</time>
      </trkpt>
      <trkpt lat="43.1805190" lon="-1.3789470">
        <ele>469.6</ele>
        <time>2019-07-15T11:00:37Z</time>
      </trkpt>
      <trkpt lat="43.1806040" lon="-1.3789850">
        <ele>470.3</ele>
        <time>2019-07-15T11:00:43Z</time>
      </trkpt>
      <trkpt lat="43.1806940" lon="-1.3790120">
        <ele>470.9</ele>
        <time>2019-07-15T11:00:49Z</time>
      </trkpt>
      <trkpt lat="43.1807910" lon="-1.3790520">
        <ele>471.6</ele>
        <time>2019-07-15T11:00:56Z</time>
      </trkpt>
      <trkpt lat="43.1808760" lon="-1.3791210">
        <ele>472.3</ele>
        <time>2019-07-15T11:01:03Z</time>
      </trkpt>
      <trkpt lat="43.1809650" lon="-1.3791820">
        <ele>473.0</ele>
        <time>2019-07-15T11:01:10Z</time>
      </trkpt>
      <trkpt lat="43.1810430" lon="-1.3792470">
        <ele>473.7</ele>
        <time>2019-07-15T11:01:16Z</time>
      </trkpt>
      <trkpt lat="43.1811180" lon="-1.3793210">
        <ele>474.5</ele>
        <time>2019-07-15T11:01:22Z</time>
      </trkpt>
      <trkpt lat="43.1811870" lon="-1.3794040">
        <ele>475.3</ele>
        <time>2019-07-15T11:01:28Z</time>
      </trkpt>
      <trkpt lat="43.1812590" lon="-1.3794910">
        <ele>476.2</ele>
        <time>2019-07-15T11:01:34Z</time>
      </trkpt>
      <trkpt lat="43.1813310" lon="-1.3795690">
        <ele>477.0</ele>
        <time>2019-07-15T11:01:40Z</time>
      </trkpt>
      <trkpt lat="43.1814100" lon="-1.3796550">
        <ele>477.9</ele>
        <time>2019-07-15T11:01:47Z</time>
      </trkpt>
      <trkpt lat="43.1814830" lon="-1.3797480">
        <ele>478.7</ele>
        <time>2019-07-15T11:01:55Z</time>
      </trkpt>
      <trkpt lat="43.1815480" lon="-1.3798420">
        <ele>479.4</ele>
        <time>2019-07-15T11:02:02Z</time>
      </trkpt>
      <trkpt lat="43.1816150" lon="-1.3799350">
        <ele>480.1</ele>
        <time>2019-07-15T11:02:09Z</time>
      </trkpt>
      <trkpt lat="43.1816910" lon="-1.3800330">
        <ele>480.9</ele>
        <time>2019-07-15T11:02:16Z</time>
      </trkpt>
      <trkpt lat="43.1817520" lon="-1.3801390">
        <ele>481.6</ele>
        <time>2019-07-15T11:02:23Z</time>
      </trkpt>
      <trkpt lat="43.1818380" lon="-1.3802180">
        <ele>482.4</ele>
        <time>2019-07-15T11:02:30Z</time>
      </trkpt>
      <trkpt lat="43.1818930" lon="-1.3803220">
        <ele>483.1</ele>
        <time>2019-07-15T11:02:37Z</time>
      </trkpt>
      <trkpt lat="43.1819470" lon="-1.3804290">
        <ele>483.8</ele>
        <time>2019-07-15T11:02:44Z</time>
      </trkpt>
      <trkpt lat="43.1820010" lon="-1.3805410">
        <ele>484.7</ele>
        <time>2019-07-15T11:02:50Z</time>
      </trkpt>
      <trkpt lat="43.1820390" lon="-1.3806540">
        <ele>485.5</ele>
        <time>2019-07-15T11:02:56Z</time>
      </trkpt>
      <trkpt lat="43.1820630" lon="-1.3807870">
        <ele>486.3</ele>
        <time>2019-07-15T11:03:03Z</time>
      </trkpt>
      <trkpt lat="43.1820660" lon="-1.3809120">
        <ele>487.0</ele>
        <time>2019-07-15T11:03:09Z</time>
      </trkpt>
      <trkpt lat="43.1820300" lon="-1.3810440">
        <ele>487.8</ele>
        <time>2019-07-15T11:03:16Z</time>
      </trkpt>
      <trkpt lat="43.1819730" lon="-1.3811520">
        <ele>488.6</ele>
        <time>2019-07-15T11:03:23Z</time>
      </trkpt>
      <trkpt lat="43.1819020" lon="-1.3812410">
        <ele>489.3</ele>
        <time>2019-07-15T11:03:30Z</time>
      </trkpt>
      <trkpt lat="43.1818280" lon="-1.3813480">
        <ele>490.2</ele>
        <time>2019-07-15T11:03:38Z</time>
      </trkpt>
      <trkpt lat="43.1817590" lon="-1.3814390">
        <ele>490.9</ele>
        <time>2019-07-15T11:03:44Z</time>
      </trkpt>
      <trkpt lat="43.1816800" lon="-1.3814990">
        <ele>491.5</ele>
        <time>2019-07-15T11:03:50Z</time>
      </trkpt>
      <trkpt lat="43.1815880" lon="-1.3815640">
        <ele>492.2</ele>
        <time>2019-07-15T11:03:56Z</time>
      </trkpt>
      <trkpt lat="43.1815000" lon="-1.3816080">
        <ele>492.8</ele>
        <time>2019-07-15T11:04:03Z</time>
      </trkpt>
      <trkpt lat="43.1814020" lon="-1.3816350">
        <ele>493.5</ele>
        <time>2019-07-15T11:04:10Z</time>
      </trkpt>
      <trkpt lat="43.1813020" lon="-1.3816710">
        <ele>494.1</ele>
        <time>2019-07-15T11:04:17Z</time>
      </trkpt>
      <trkpt lat="43.1812010" lon="-1.3816900">
        <ele>494.8</ele>
        <time>2019-07-15T11:04:24Z</time>
      </trkpt>
      <trkpt lat="43.1811320" lon="-1.3817690">
        <ele>495.4</ele>
        <time>2019-07-15T11:04:31Z</time>
      </trkpt>
      <trkpt lat="43.1810210" lon="-1.3818270">
        <ele>496.1</ele>
        <time>2019-07-15T11:04:38Z</time>
      </trkpt>
      <trkpt lat="43.1809580" lon="-1.3819190">
        <ele>496.6</ele>
        <time>2019-07-15T11:04:43Z</time>
      </trkpt>
      <trkpt lat="43.1809060" lon="-1.3820370">
        <ele>497.1</ele>
        <time>2019-07-15T11:04:51Z</time>
      </trkpt>
      <trkpt lat="43.1808710" lon="-1.3821660">
        <ele>497.5</ele>
        <time>2019-07-15T11:04:59Z</time>
      </trkpt>
      <trkpt lat="43.1808030" lon="-1.3822610">
        <ele>497.9</ele>
        <time>2019-07-15T11:05:06Z</time>
      </trkpt>
      <trkpt lat="43.1807380" lon="-1.3823580">
        <ele>498.3</ele>
        <time>2019-07-15T11:05:13Z</time>
      </trkpt>
      <trkpt lat="43.1806770" lon="-1.3824680">
        <ele>498.7</ele>
        <time>2019-07-15T11:05:20Z</time>
      </trkpt>
      <trkpt lat="43.1806110" lon="-1.3825550">
        <ele>499.1</ele>
        <time>2019-07-15T11:05:26Z</time>
      </trkpt>
      <trkpt lat="43.1805350" lon="-1.3826480">
        <ele>499.6</ele>
        <time>2019-07-15T11:05:33Z</time>
      </trkpt>
      <trkpt lat="43.1804640" lon="-1.3827290">
        <ele>500.1</ele>
        <time>2019-07-15T11:05:39Z</time>
      </trkpt>
      <trkpt lat="43.1804120" lon="-1.3828300">
        <ele>500.5</ele>
        <time>2019-07-15T11:05:45Z</time>
      </trkpt>
      <trkpt lat="43.1803410" lon="-1.3829130">
        <ele>501.0</ele>
        <time>2019-07-15T11:05:51Z</time>
      </trkpt>
      <trkpt lat="43.1802780" lon="-1.3830120">
        <ele>501.5</ele>
        <time>2019-07-15T11:05:57Z</time>
      </trkpt>
      <trkpt lat="43.1801930" lon="-1.3831010">
        <ele>502.1</ele>
        <time>2019-07-15T11:06:04Z</time>
      </trkpt>
      <trkpt lat="43.1801100" lon="-1.3831650">
        <ele>502.6</ele>
        <time>2019-07-15T11:06:11Z</time>
      </trkpt>
      <trkpt lat="43.1800260" lon="-1.3832360">
        <ele>503.2</ele>
        <time>2019-07-15T11:06:17Z</time>
      </trkpt>
      <trkpt lat="43.1799310" lon="-1.3832900">
        <ele>503.8</ele>
        <time>2019-07-15T11:06:24Z</time>
      </trkpt>
      <trkpt lat="43.1798350" lon="-1.3833430">
        <ele>504.5</ele>
        <time>2019-07-15T11:06:31Z</time>
      </trkpt>
      <trkpt lat="43.1797540" lon="-1.3834160">
        <ele>505.2</ele>
        <time>2019-07-15T11:06:37Z</time>
      </trkpt>
      <trkpt lat="43.1796720" lon="-1.3834860">
        <ele>505.8</ele>
        <time>2019-07-15T11:06:44Z</time>
      </trkpt>
      <trkpt lat="43.1795850" lon="-1.3835560">
        <ele>506.5</ele>
        <time>2019-07-15T11:06:51Z</time>
      </trkpt>
      <trkpt lat="43.1795300" lon="-1.3836630">
        <ele>507.1</ele>
        <time>2019-07-15T11:06:56Z</time>
      </trkpt>
      <trkpt lat="43.1794720" lon="-1.3837620">
        <ele>507.8</ele>
        <time>2019-07-15T11:07:01Z</time>
      </trkpt>
      <trkpt lat="43.1793930" lon="-1.3838630">
        <ele>508.6</ele>
        <time>2019-07-15T11:07:07Z</time>
      </trkpt>
      <trkpt lat="43.1793210" lon="-1.3839590">
        <ele>509.4</ele>
        <time>2019-07-15T11:07:13Z</time>
      </trkpt>
      <trkpt lat="43.1792340" lon="-1.3840390">
        <ele>510.2</ele>
        <time>2019-07-15T11:07:20Z</time>
      </trkpt>
      <trkpt lat="43.1791580" lon="-1.3841320">
        <ele>511.1</ele>
        <time>2019-07-15T11:07:27Z</time>
      </trkpt>
      <trkpt lat="43.1790840" lon="-1.3842100">
        <ele>512.0</ele>
        <time>2019-07-15T11:07:33Z</time>
      </trkpt>
      <trkpt lat="43.1790510" lon="-1.3843320">
        <ele>512.9</ele>
        <time>2019-07-15T11:07:38Z</time>
      </trkpt>
      <trkpt lat="43.1790580" lon="-1.3844650">
        <ele>513.9</ele>
        <time>2019-07-15T11:07:45Z</time>
      </trkpt>
      <trkpt lat="43.1790910" lon="-1.3845910">
        <ele>514.8</ele>
        <time>2019-07-15T11:07:52Z</time>
      </trkpt>
      <trkpt lat="43.1790860" lon="-1.3847240">
        <ele>515.8</ele>
        <time>2019-07-15T11:07:58Z</time>
      </trkpt>
      <trkpt lat="43.1791160" lon="-1.3848530">
        <ele>516.9</ele>
        <time>2019-07-15T11:08:05Z</time>
      </trkpt>
      <trkpt lat="43.1790970" lon="-1.3849910">
        <ele>518.0</ele>
        <time>2019-07-15T11:08:11Z</time>
      </trkpt>
      <trkpt lat="43.1790880" lon="-1.3851540">
        <ele>519.3</ele>
        <time>2019-07-15T11:08:18Z</time>
      </trkpt>
      <trkpt lat="43.1790880" lon="-1.3852890">
        <ele>520.2</ele>
        <time>2019-07-15T11:08:24Z</time>
      </trkpt>
      <trkpt lat="43.1790940" lon="-1.3854170">
        <ele>521.1</ele>
        <time>2019-07-15T11:08:30Z</time>
      </trkpt>
      <trkpt lat="43.1790850" lon="-1.3855410">
        <ele>521.9</ele>
        <time>2019-07-15T11:08:36Z</time>
      </trkpt>
      <trkpt lat="43.1790710" lon="-1.3856730">
        <ele>522.8</ele>
        <time>2019-07-15T11:08:42Z</time>
      </trkpt>
      <trkpt lat="43.1790610" lon="-1.3858080">
        <ele>523.6</ele>
        <time>2019-07-15T11:08:50Z</time>
      </trkpt>
      <trkpt lat="43.1790410" lon="-1.3859520">
        <ele>524.6</ele>
        <time>2019-07-15T11:08:58Z</time>
      </trkpt>
      <trkpt lat="43.1790070" lon="-1.3860690">
        <ele>525.4</ele>
        <time>2019-07-15T11:09:05Z</time>
      </trkpt>
      <trkpt lat="43.1789490" lon="-1.3861730">
        <ele>526.2</ele>
        <time>2019-07-15T11:09:12Z</time>
      </trkpt>
      <trkpt lat="43.1789350" lon="-1.3863170">
        <ele>527.2</ele>
        <time>2019-07-15T11:09:17Z</time>
      </trkpt>
      <trkpt lat="43.1789540" lon="-1.3864490">
        <ele>528.2</ele>
        <time>2019-07-15T11:09:23Z</time>
      </trkpt>
      <trkpt lat="43.1790150" lon="-1.3865700">
        <ele>529.2</ele>
        <time>2019-07-15T11:09:29Z</time>
      </trkpt>
      <trkpt lat="43.1790850" lon="-1.3866540">
        <ele>530.1</ele>
        <time>2019-07-15T11:09:34Z</time>
      </trkpt>
      <trkpt lat="43.1791760" lon="-1.3867190">
        <ele>531.2</ele>
        <time>2019-07-15T11:09:40Z</time>
      </trkpt>
      <trkpt lat="43.1792680" lon="-1.3867490">
        <ele>532.2</ele>
        <time>2019-07-15T11:09:46Z</time>
      </trkpt>
      <trkpt lat="43.1793600" lon="-1.3867510">
        <ele>533.1</ele>
        <time>2019-07-15T11:09:52Z</time>
      </trkpt>
      <trkpt lat="43.1794530" lon="-1.3867560">
        <ele>534.1</ele>
        <time>2019-07-15T11:09:58Z</time>
      </trkpt>
      <trkpt lat="43.1795490" lon="-1.3867510">
        <ele>535.0</ele>
        <time>2019-07-15T11:10:04Z</time>
      </trkpt>
      <trkpt lat="43.1796440" lon="-1.3867420">
        <ele>535.9</ele>
        <time>2019-07-15T11:10:10Z</time>
      </trkpt>
      <trkpt lat="43.1797330" lon="-1.3867240">
        <ele>536.7</ele>
        <time>2019-07-15T11:10:16Z</time>
      </trkpt>
      <trkpt lat="43.1798260" lon="-1.3866820">
        <ele>537.7</ele>
        <time>2019-07-15T11:10:23Z</time>
      </trkpt>
      <trkpt lat="43.1799210" lon="-1.3866550">
        <ele>538.6</ele>
        <time>2019-07-15T11:10:29Z</time>
      </trkpt>
      <trkpt lat="43.1800100" lon="-1.3866270">
        <ele>539.4</ele>
        <time>2019-07-15T11:10:35Z</time>
      </trkpt>
      <trkpt lat="43.1800990" lon="-1.3865970">
        <ele>540.2</ele>
        <time>2019-07-15T11:10:40Z</time>
      </trkpt>
      <trkpt lat="43.1802020" lon="-1.3865650">
        <ele>541.2</ele>
        <time>2019-07-15T11:10:47Z</time>
      </trkpt>
      <trkpt lat="43.1803090" lon="-1.3865190">
        <ele>542.2</ele>
        <time>2019-07-15T11:10:54Z</time>
      </trkpt>
      <trkpt lat="43.1804070" lon="-1.3864860">
        <ele>543.1</ele>
        <time>2019-07-15T11:11:00Z</time>
      </trkpt>
      <trkpt lat="43.1804980" lon="-1.3864360">
        <ele>543.9</ele>
        <time>2019-07-15T11:11:06Z</time>
      </trkpt>
      <trkpt lat="43.1805930" lon="-1.3864030">
        <ele>544.7</ele>
        <time>2019-07-15T11:11:12Z</time>
      </trkpt>
      <trkpt lat="43.1806870" lon="-1.3863630">
        <ele>545.5</ele>
        <time>2019-07-15T11:11:18Z</time>
      </trkpt>
      <trkpt lat="43.1807760" lon="-1.3863440">
        <ele>546.2</ele>
        <time>2019-07-15T11:11:25Z</time>
      </trkpt>
      <trkpt lat="43.1808660" lon="-1.3863940">
        <ele>546.9</ele>
        <time>2019-07-15T11:11:32Z</time>
      </trkpt>
      <trkpt lat="43.1809520" lon="-1.3864420">
        <ele>547.6</ele>
        <time>2019-07-15T11:11:38Z</time>
      </trkpt>
      <trkpt lat="43.1810280" lon="-1.3865150">
        <ele>548.3</ele>
        <time>2019-07-15T11:11:44Z</time>
      </trkpt>
      <trkpt lat="43.1810970" lon="-1.3865960">
        <ele>549.0</ele>
        <time>2019-07-15T11:11:50Z</time>
      </trkpt>
      <trkpt lat="43.1811670" lon="-1.3867010">
        <ele>549.8</ele>
        <time>2019-07-15T11:11:57Z</time>
      </trkpt>
      <trkpt lat="43.1812380" lon="-1.3867890">
        <ele>550.6</ele>
        <time>2019-07-15T11:12:03Z</time>
      </trkpt>
      <trkpt lat="43.1813110" lon="-1.3868870">
        <ele>551.4</ele>
        <time>2019-07-15T11:12:09Z</time>
      </trkpt>
      <trkpt lat="43.1813890" lon="-1.3869760">
        <ele>552.3</ele>
        <time>2019-07-15T11:12:15Z</time>
      </trkpt>
      <trkpt lat="43.1814680" lon="-1.3870460">
        <ele>553.0</ele>
        <time>2019-07-15T11:12:21Z</time>
      </trkpt>
      <trkpt lat="43.1815560" lon="-1.3870840">
        <ele>553.8</ele>
        <time>2019-07-15T11:12:27Z</time>
      </trkpt>
      <trkpt lat="43.1816450" lon="-1.3871270">
        <ele>554.5</ele>
        <time>2019-07-15T11:12:33Z</time>
      </trkpt>
      <trkpt lat="43.1817340" lon="-1.3871680">
        <ele>555.2</ele>
        <time>2019-07-15T11:12:39Z</time>
      </trkpt>
      <trkpt lat="43.1818310" lon="-1.3871910">
        <ele>556.0</ele>
        <time>2019-07-15T11:12:45Z</time>
      </trkpt>
      <trkpt lat="43.1819230" lon="-1.3872060">
        <ele>556.6</ele>
        <time>2019-07-15T11:12:51Z</time>
      </trkpt>
      <trkpt lat="43.1820130" lon="-1.3872230">
        <ele>557.2</ele>
        <time>2019-07-15T11:12:57Z</time>
      </trkpt>
      <trkpt lat="43.1821030" lon="-1.3872530">
        <ele>557.8</ele>
        <time>2019-07-15T11:13:03Z</time>
      </trkpt>
      <trkpt lat="43.1822000" lon="-1.3872940">
        <ele>558.4</ele>
        <time>2019-07-15T11:13:09Z</time>
      </trkpt>
      <trkpt lat="43.1822950" lon="-1.3873230">
        <ele>559.0</ele>
        <time>2019-07-15T11:13:17Z</time>
      </trkpt>
      <trkpt lat="43.1823990" lon="-1.3873500">
        <ele>559.5</ele>
        <time>2019-07-15T11:13:24Z</time>
      </trkpt>
      <trkpt lat="43.1824880" lon="-1.3873830">
        <ele>560.0</ele>
        <time>2019-07-15T11:13:30Z</time>
      </trkpt>
      <trkpt lat="43.1825760" lon="-1.3874160">
        <ele>560.5</ele>
        <time>2019-07-15T11:13:36Z</time>
      </trkpt>
      <trkpt lat="43.1826750" lon="-1.3874110">
        <ele>561.1</ele>
        <time>2019-07-15T11:13:42Z</time>
      </trkpt>
      <trkpt lat="43.1827690" lon="-1.3874220">
        <ele>561.6</ele>
        <time>2019-07-15T11:13:48Z</time>
      </trkpt>
      <trkpt lat="43.1828660" lon="-1.3874430">
        <ele>562.1</ele>
        <time>2019-07-15T11:13:55Z</time>
      </trkpt>
      <trkpt lat="43.1829590" lon="-1.3874660">
        <ele>562.5</ele>
        <time>2019-07-15T11:14:01Z</time>
      </trkpt>
      <trkpt lat="43.1830510" lon="-1.3874840">
        <ele>563.0</ele>
        <time>2019-07-15T11:14:07Z</time>
      </trkpt>
      <trkpt lat="43.1831500" lon="-1.3875080">
        <ele>563.6</ele>
        <time>2019-07-15T11:14:13Z</time>
      </trkpt>
      <trkpt lat="43.1832250" lon="-1.3875840">
        <ele>564.2</ele>
        <time>2019-07-15T11:14:20Z</time>
      </trkpt>
      <trkpt lat="43.1832510" lon="-1.3877050">
        <ele>564.9</ele>
        <time>2019-07-15T11:14:26Z</time>
      </trkpt>
      <trkpt lat="43.1832180" lon="-1.3878400">
        <ele>565.8</ele>
        <time>2019-07-15T11:14:32Z</time>
      </trkpt>
      <trkpt lat="43.1831580" lon="-1.3879440">
        <ele>566.7</ele>
        <time>2019-07-15T11:14:38Z</time>
      </trkpt>
      <trkpt lat="43.1830840" lon="-1.3880490">
        <ele>567.7</ele>
        <time>2019-07-15T11:14:44Z</time>
      </trkpt>
      <trkpt lat="43.1830200" lon="-1.3881610">
        <ele>568.6</ele>
        <time>2019-07-15T11:14:50Z</time>
      </trkpt>
      <trkpt lat="43.1829640" lon="-1.3882840">
        <ele>569.5</ele>
        <time>2019-07-15T11:14:56Z</time>
      </trkpt>
      <trkpt lat="43.1829170" lon="-1.3883940">
        <ele>570.2</ele>
        <time>2019-07-15T11:15:01Z</time>
      </trkpt>
      <trkpt lat="43.1828620" lon="-1.3885140">
        <ele>571.0</ele>
        <time>2019-07-15T11:15:07Z</time>
      </trkpt>
      <trkpt lat="43.1828100" lon="-1.3886150">
        <ele>571.7</ele>
        <time>2019-07-15T11:15:13Z</time>
      </trkpt>
      <trkpt lat="43.1827580" lon="-1.3887360">
        <ele>572.4</ele>
        <time>2019-07-15T11:15:20Z</time>
      </trkpt>
      <trkpt lat="43.1827150" lon="-1.3888470">
        <ele>573.1</ele>
        <time>2019-07-15T11:15:26Z</time>
      </trkpt>
      <trkpt lat="43.1826620" lon="-1.3889620">
        <ele>573.9</ele>
        <time>2019-07-15T11:15:33Z</time>
      </trkpt>
      <trkpt lat="43.1826150" lon="-1.3890830">
        <ele>574.8</ele>
        <time>2019-07-15T11:15:41Z</time>
      </trkpt>
      <trkpt lat="43.1825400" lon="-1.3891700">
        <ele>575.6</ele>
        <time>2019-07-15T11:15:48Z</time>
      </trkpt>
      <trkpt lat="43.1824710" lon="-1.3892590">
        <ele>576.4</ele>
        <time>2019-07-15T11:15:54Z</time>
      </trkpt>
      <trkpt lat="43.1823940" lon="-1.3893380">
        <ele>577.3</ele>
        <time>2019-07-15T11:16:00Z</time>
      </trkpt>
      <trkpt lat="43.1823220" lon="-1.3894210">
        <ele>578.0</ele>
        <time>2019-07-15T11:16:06Z</time>
      </trkpt>
      <trkpt lat="43.1822410" lon="-1.3894910">
        <ele>578.8</ele>
        <time>2019-07-15T11:16:13Z</time>
      </trkpt>
      <trkpt lat="43.1821700" lon="-1.3895780">
        <ele>579.6</ele>
        <time>2019-07-15T11:16:19Z</time>
      </trkpt>
      <trkpt lat="43.1820960" lon="-1.3896790">
        <ele>580.5</ele>
        <time>2019-07-15T11:16:26Z</time>
      </trkpt>
      <trkpt lat="43.1820420" lon="-1.3897830">
        <ele>581.2</ele>
        <time>2019-07-15T11:16:32Z</time>
      </trkpt>
      <trkpt lat="43.1820180" lon="-1.3899040">
        <ele>582.1</ele>
        <time>2019-07-15T11:16:38Z</time>
      </trkpt>
      <trkpt lat="43.1820590" lon="-1.3900160">
        <ele>582.9</ele>
        <time>2019-07-15T11:16:44Z</time>
      </trkpt>
      <trkpt lat="43.1821340" lon="-1.3900860">
        <ele>583.7</ele>
        <time>2019-07-15T11:16:50Z</time>
      </trkpt>
      <trkpt lat="43.1821970" lon="-1.3901810">
        <ele>584.4</ele>
        <time>2019-07-15T11:16:56Z</time>
      </trkpt>
      <trkpt lat="43.1822810" lon="-1.3902660">
        <ele>585.7</ele>
        <time>2019-07-15T11:17:03Z</time>
      </trkpt>
      <trkpt lat="43.1823370" lon="-1.3903660">
        <ele>587.4</ele>
        <time>2019-07-15T11:17:09Z</time>
      </trkpt>
      <trkpt lat="43.1823490" lon="-1.3904380">
        <ele>588.3</ele>
        <time>2019-07-15T11:17:18Z</time>
      </trkpt>
      <trkpt lat="43.1823180" lon="-1.3905570">
        <ele>589.9</ele>
        <time>2019-07-15T11:19:44Z</time>
      </trkpt>
      <trkpt lat="43.1822810" lon="-1.3906870">
        <ele>592.3</ele>
        <time>2019-07-15T11:19:50Z</time>
      </trkpt>
      <trkpt lat="43.1822460" lon="-1.3908080">
        <ele>594.0</ele>
        <time>2019-07-15T11:19:55Z</time>
      </trkpt>
      <trkpt lat="43.1822360" lon="-1.3909350">
        <ele>595.8</ele>
        <time>2019-07-15T11:20:00Z</time>
      </trkpt>
      <trkpt lat="43.1822360" lon="-1.3910790">
        <ele>597.7</ele>
        <time>2019-07-15T11:20:06Z</time>
      </trkpt>
      <trkpt lat="43.1822470" lon="-1.3912150">
        <ele>599.5</ele>
        <time>2019-07-15T11:20:12Z</time>
      </trkpt>
      <trkpt lat="43.1822580" lon="-1.3913580">
        <ele>601.4</ele>
        <time>2019-07-15T11:20:18Z</time>
      </trkpt>
      <trkpt lat="43.1822510" lon="-1.3914970">
        <ele>603.3</ele>
        <time>2019-07-15T11:20:24Z</time>
      </trkpt>
      <trkpt lat="43.1822320" lon="-1.3916290">
        <ele>605.1</ele>
        <time>2019-07-15T11:20:31Z</time>
      </trkpt>
      <trkpt lat="43.1821710" lon="-1.3917460">
        <ele>605.5</ele>
        <time>2019-07-15T11:20:37Z</time>
      </trkpt>
      <trkpt lat="43.1820820" lon="-1.3918330">
        <ele>606.0</ele>
        <time>2019-07-15T11:20:43Z</time>
      </trkpt>
      <trkpt lat="43.1819950" lon="-1.3918760">
        <ele>606.4</ele>
        <time>2019-07-15T11:20:48Z</time>
      </trkpt>
      <trkpt lat="43.1819070" lon="-1.3919290">
        <ele>606.7</ele>
        <time>2019-07-15T11:20:54Z</time>
      </trkpt>
      <trkpt lat="43.1818220" lon="-1.3919860">
        <ele>607.1</ele>
        <time>2019-07-15T11:21:00Z</time>
      </trkpt>
      <trkpt lat="43.1817230" lon="-1.3919850">
        <ele>607.4</ele>
        <time>2019-07-15T11:21:07Z</time>
      </trkpt>
      <trkpt lat="43.1816250" lon="-1.3920120">
        <ele>607.8</ele>
        <time>2019-07-15T11:21:13Z</time>
      </trkpt>
      <trkpt lat="43.1815330" lon="-1.3920510">
        <ele>608.2</ele>
        <time>2019-07-15T11:21:19Z</time>
      </trkpt>
      <trkpt lat="43.1814580" lon="-1.3921260">
        <ele>608.6</ele>
        <time>2019-07-15T11:21:25Z</time>
      </trkpt>
      <trkpt lat="43.1814180" lon="-1.3922600">
        <ele>609.1</ele>
        <time>2019-07-15T11:21:32Z</time>
      </trkpt>
      <trkpt lat="43.1813870" lon="-1.3923810">
        <ele>609.7</ele>
        <time>2019-07-15T11:21:37Z</time>
      </trkpt>
      <trkpt lat="43.1813880" lon="-1.3925260">
        <ele>610.3</ele>
        <time>2019-07-15T11:21:44Z</time>
      </trkpt>
      <trkpt lat="43.1813740" lon="-1.3926650">
        <ele>610.9</ele>
        <time>2019-07-15T11:21:50Z</time>
      </trkpt>
      <trkpt lat="43.1813810" lon="-1.3927980">
        <ele>611.5</ele>
        <time>2019-07-15T11:21:57Z</time>
      </trkpt>
      <trkpt lat="43.1813890" lon="-1.3929380">
        <ele>612.1</ele>
        <time>2019-07-15T11:22:05Z</time>
      </trkpt>
      <trkpt lat="43.1813810" lon="-1.3930680">
        <ele>612.7</ele>
        <time>2019-07-15T11:22:12Z</time>
      </trkpt>
      <trkpt lat="43.1813650" lon="-1.3931940">
        <ele>613.2</ele>
        <time>2019-07-15T11:22:19Z</time>
      </trkpt>
      <trkpt lat="43.1813550" lon="-1.3933310">
        <ele>613.8</ele>
        <time>2019-07-15T11:22:25Z</time>
      </trkpt>
      <trkpt lat="43.1813460" lon="-1.3934610">
        <ele>614.4</ele>
        <time>2019-07-15T11:22:31Z</time>
      </trkpt>
      <trkpt lat="43.1813550" lon="-1.3935840">
        <ele>614.9</ele>
        <time>2019-07-15T11:22:37Z</time>
      </trkpt>
      <trkpt lat="43.1813670" lon="-1.3937250">
        <ele>615.4</ele>
        <time>2019-07-15T11:22:44Z</time>
      </trkpt>
      <trkpt lat="43.1813670" lon="-1.3938550">
        <ele>615.8</ele>
        <time>2019-07-15T11:22:49Z</time>
      </trkpt>
      <trkpt lat="43.1813590" lon="-1.3939910">
        <ele>616.3</ele>
        <time>2019-07-15T11:22:55Z</time>
      </trkpt>
      <trkpt lat="43.1813300" lon="-1.3941090">
        <ele>616.7</ele>
        <time>2019-07-15T11:23:01Z</time>
      </trkpt>
      <trkpt lat="43.1813000" lon="-1.3942260">
        <ele>617.0</ele>
        <time>2019-07-15T11:23:08Z</time>
      </trkpt>
      <trkpt lat="43.1812310" lon="-1.3943350">
        <ele>617.5</ele>
        <time>2019-07-15T11:23:15Z</time>
      </trkpt>
      <trkpt lat="43.1811690" lon="-1.3944260">
        <ele>617.9</ele>
        <time>2019-07-15T11:23:21Z</time>
      </trkpt>
      <trkpt lat="43.1810990" lon="-1.3945110">
        <ele>618.3</ele>
        <time>2019-07-15T11:23:28Z</time>
      </trkpt>
      <trkpt lat="43.1810240" lon="-1.3945860">
        <ele>618.7</ele>
        <time>2019-07-15T11:23:35Z</time>
      </trkpt>
      <trkpt lat="43.1809290" lon="-1.3946430">
        <ele>619.1</ele>
        <time>2019-07-15T11:23:43Z</time>
      </trkpt>
      <trkpt lat="43.1808360" lon="-1.3946820">
        <ele>619.6</ele>
        <time>2019-07-15T11:23:50Z</time>
      </trkpt>
      <trkpt lat="43.1807640" lon="-1.3947580">
        <ele>620.1</ele>
        <time>2019-07-15T11:23:56Z</time>
      </trkpt>
      <trkpt lat="43.1806880" lon="-1.3948370">
        <ele>620.7</ele>
        <time>2019-07-15T11:24:02Z</time>
      </trkpt>
      <trkpt lat="43.1806200" lon="-1.3949200">
        <ele>621.2</ele>
        <time>2019-07-15T11:24:08Z</time>
      </trkpt>
      <trkpt lat="43.1805510" lon="-1.3950110">
        <ele>621.9</ele>
        <time>2019-07-15T11:24:14Z</time>
      </trkpt>
      <trkpt lat="43.1804820" lon="-1.3951090">
        <ele>622.6</ele>
        <time>2019-07-15T11:24:21Z</time>
      </trkpt>
      <trkpt lat="43.1804060" lon="-1.3952070">
        <ele>623.3</ele>
        <time>2019-07-15T11:24:28Z</time>
      </trkpt>
      <trkpt lat="43.1803430" lon="-1.3953210">
        <ele>623.8</ele>
        <time>2019-07-15T11:24:35Z</time>
      </trkpt>
      <trkpt lat="43.1802990" lon="-1.3954330">
        <ele>624.4</ele>
        <time>2019-07-15T11:24:41Z</time>
      </trkpt>
      <trkpt lat="43.1802660" lon="-1.3955710">
        <ele>624.9</ele>
        <time>2019-07-15T11:24:48Z</time>
      </trkpt>
      <trkpt lat="43.1802480" lon="-1.3956940">
        <ele>625.4</ele>
        <time>2019-07-15T11:24:54Z</time>
      </trkpt>
      <trkpt lat="43.1801910" lon="-1.3958030">
        <ele>625.9</ele>
        <time>2019-07-15T11:25:01Z</time>
      </trkpt>
      <trkpt lat="43.1801470" lon="-1.3959270">
        <ele>626.5</ele>
        <time>2019-07-15T11:25:08Z</time>
      </trkpt>
      <trkpt lat="43.1800660" lon="-1.3959920">
        <ele>627.1</ele>
        <time>2019-07-15T11:25:14Z</time>
      </trkpt>
      <trkpt lat="43.1799790" lon="-1.3960590">
        <ele>627.7</ele>
        <time>2019-07-15T11:25:21Z</time>
      </trkpt>
      <trkpt lat="43.1798920" lon="-1.3961290">
        <ele>628.2</ele>
        <time>2019-07-15T11:25:28Z</time>
      </trkpt>
      <trkpt lat="43.1797980" lon="-1.3961330">
        <ele>628.5</ele>
        <time>2019-07-15T11:25:35Z</time>
      </trkpt>
      <trkpt lat="43.1797060" lon="-1.3961520">
        <ele>628.9</ele>
        <time>2019-07-15T11:25:41Z</time>
      </trkpt>
      <trkpt lat="43.1796140" lon="-1.3961630">
        <ele>629.2</ele>
        <time>2019-07-15T11:25:47Z</time>
      </trkpt>
      <trkpt lat="43.1795170" lon="-1.3961800">
        <ele>629.7</ele>
        <time>2019-07-15T11:25:53Z</time>
      </trkpt>
      <trkpt lat="43.1794240" lon="-1.3962010">
        <ele>630.2</ele>
        <time>2019-07-15T11:25:59Z</time>
      </trkpt>
      <trkpt lat="43.1793310" lon="-1.3962450">
        <ele>630.8</ele>
        <time>2019-07-15T11:26:05Z</time>
      </trkpt>
      <trkpt lat="43.1792390" lon="-1.3962890">
        <ele>631.5</ele>
        <time>2019-07-15T11:26:11Z</time>
      </trkpt>
      <trkpt lat="43.1791510" lon="-1.3963310">
        <ele>632.1</ele>
        <time>2019-07-15T11:26:17Z</time>
      </trkpt>
      <trkpt lat="43.1790760" lon="-1.3964060">
        <ele>632.8</ele>
        <time>2019-07-15T11:26:23Z</time>
      </trkpt>
      <trkpt lat="43.1789810" lon="-1.3964540">
        <ele>633.5</ele>
        <time>2019-07-15T11:26:30Z</time>
      </trkpt>
      <trkpt lat="43.1788880" lon="-1.3965180">
        <ele>634.2</ele>
        <time>2019-07-15T11:26:37Z</time>
      </trkpt>
      <trkpt lat="43.1787980" lon="-1.3965580">
        <ele>634.8</ele>
        <time>2019-07-15T11:26:43Z</time>
      </trkpt>
      <trkpt lat="43.1787110" lon="-1.3965920">
        <ele>635.3</ele>
        <time>2019-07-15T11:26:49Z</time>
      </trkpt>
      <trkpt lat="43.1786120" lon="-1.3966250">
        <ele>635.8</ele>
        <time>2019-07-15T11:26:55Z</time>
      </trkpt>
      <trkpt lat="43.1785120" lon="-1.3966320">
        <ele>636.5</ele>
        <time>2019-07-15T11:27:01Z</time>
      </trkpt>
      <trkpt lat="43.1784100" lon="-1.3966250">
        <ele>637.2</ele>
        <time>2019-07-15T11:27:07Z</time>
      </trkpt>
      <trkpt lat="43.1783170" lon="-1.3966690">
        <ele>637.8</ele>
        <time>2019-07-15T11:27:13Z</time>
      </trkpt>
      <trkpt lat="43.1782310" lon="-1.3967500">
        <ele>638.5</ele>
        <time>2019-07-15T11:27:20Z</time>
      </trkpt>
      <trkpt lat="43.1781570" lon="-1.3968600">
        <ele>639.3</ele>
        <time>2019-07-15T11:27:27Z</time>
      </trkpt>
      <trkpt lat="43.1781110" lon="-1.3969690">
        <ele>639.9</ele>
        <time>2019-07-15T11:27:33Z</time>
      </trkpt>
      <trkpt lat="43.1780620" lon="-1.3970850">
        <ele>640.6</ele>
        <time>2019-07-15T11:27:39Z</time>
      </trkpt>
      <trkpt lat="43.1780190" lon="-1.3972120">
        <ele>641.2</ele>
        <time>2019-07-15T11:27:46Z</time>
      </trkpt>
      <trkpt lat="43.1779830" lon="-1.3973380">
        <ele>641.8</ele>
        <time>2019-07-15T11:27:53Z</time>
      </trkpt>
      <trkpt lat="43.1779410" lon="-1.3974560">
        <ele>642.2</ele>
        <time>2019-07-15T11:27:59Z</time>
      </trkpt>
      <trkpt lat="43.1779060" lon="-1.3975690">
        <ele>642.6</ele>
        <time>2019-07-15T11:28:05Z</time>
      </trkpt>
      <trkpt lat="43.1778650" lon="-1.3976840">
        <ele>643.1</ele>
        <time>2019-07-15T11:28:11Z</time>
      </trkpt>
      <trkpt lat="43.1778280" lon="-1.3978030">
        <ele>643.7</ele>
        <time>2019-07-15T11:28:17Z</time>
      </trkpt>
      <trkpt lat="43.1777920" lon="-1.3979230">
        <ele>644.4</ele>
        <time>2019-07-15T11:28:23Z</time>
      </trkpt>
      <trkpt lat="43.1777530" lon="-1.3980430">
        <ele>645.1</ele>
        <time>2019-07-15T11:28:29Z</time>
      </trkpt>
      <trkpt lat="43.1777240" lon="-1.3981640">
        <ele>645.8</ele>
        <time>2019-07-15T11:28:35Z</time>
      </trkpt>
      <trkpt lat="43.1776800" lon="-1.3982830">
        <ele>646.6</ele>
        <time>2019-07-15T11:28:41Z</time>
      </trkpt>
      <trkpt lat="43.1776320" lon="-1.3983890">
        <ele>647.3</ele>
        <time>2019-07-15T11:28:47Z</time>
      </trkpt>
      <trkpt lat="43.1775890" lon="-1.3985080">
        <ele>648.0</ele>
        <time>2019-07-15T11:28:53Z</time>
      </trkpt>
      <trkpt lat="43.1775380" lon="-1.3986170">
        <ele>648.7</ele>
        <time>2019-07-15T11:28:59Z</time>
      </trkpt>
      <trkpt lat="43.1774960" lon="-1.3987290">
        <ele>649.3</ele>
        <time>2019-07-15T11:29:05Z</time>
      </trkpt>
      <trkpt lat="43.1774560" lon="-1.3988570">
        <ele>649.9</ele>
        <time>2019-07-15T11:29:12Z</time>
      </trkpt>
      <trkpt lat="43.1773980" lon="-1.3989630">
        <ele>650.5</ele>
        <time>2019-07-15T11:29:18Z</time>
      </trkpt>
      <trkpt lat="43.1773420" lon="-1.3990830">
        <ele>651.1</ele>
        <time>2019-07-15T11:29:26Z</time>
      </trkpt>
      <trkpt lat="43.1772810" lon="-1.3991930">
        <ele>651.7</ele>
        <time>2019-07-15T11:29:33Z</time>
      </trkpt>
      <trkpt lat="43.1772260" lon="-1.3993080">
        <ele>652.3</ele>
        <time>2019-07-15T11:29:41Z</time>
      </trkpt>
      <trkpt lat="43.1771870" lon="-1.3994310">
        <ele>652.9</ele>
        <time>2019-07-15T11:29:49Z</time>
      </trkpt>
      <trkpt lat="43.1771350" lon="-1.3995470">
        <ele>653.6</ele>
        <time>2019-07-15T11:29:57Z</time>
      </trkpt>
      <trkpt lat="43.1770930" lon="-1.3996680">
        <ele>654.3</ele>
        <time>2019-07-15T11:30:04Z</time>
      </trkpt>
      <trkpt lat="43.1770410" lon="-1.3997850">
        <ele>655.0</ele>
        <time>2019-07-15T11:30:11Z</time>
      </trkpt>
      <trkpt lat="43.1770060" lon="-1.3999130">
        <ele>655.7</ele>
        <time>2019-07-15T11:30:18Z</time>
      </trkpt>
      <trkpt lat="43.1769580" lon="-1.4000270">
        <ele>656.4</ele>
        <time>2019-07-15T11:30:25Z</time>
      </trkpt>
      <trkpt lat="43.1769270" lon="-1.4001630">
        <ele>657.2</ele>
        <time>2019-07-15T11:30:32Z</time>
      </trkpt>
      <trkpt lat="43.1768800" lon="-1.4002910">
        <ele>658.0</ele>
        <time>2019-07-15T11:30:39Z</time>
      </trkpt>
      <trkpt lat="43.1768300" lon="-1.4004050">
        <ele>658.7</ele>
        <time>2019-07-15T11:30:46Z</time>
      </trkpt>
      <trkpt lat="43.1767820" lon="-1.4005340">
        <ele>659.4</ele>
        <time>2019-07-15T11:30:53Z</time>
      </trkpt>
      <trkpt lat="43.1767370" lon="-1.4006630">
        <ele>660.0</ele>
        <time>2019-07-15T11:30:59Z</time>
      </trkpt>
      <trkpt lat="43.1767100" lon="-1.4008030">
        <ele>660.7</ele>
        <time>2019-07-15T11:31:06Z</time>
      </trkpt>
      <trkpt lat="43.1766690" lon="-1.4009180">
        <ele>661.2</ele>
        <time>2019-07-15T11:31:12Z</time>
      </trkpt>
      <trkpt lat="43.1766020" lon="-1.4010080">
        <ele>661.8</ele>
        <time>2019-07-15T11:31:18Z</time>
      </trkpt>
      <trkpt lat="43.1765360" lon="-1.4011040">
        <ele>662.4</ele>
        <time>2019-07-15T11:31:24Z</time>
      </trkpt>
      <trkpt lat="43.1764640" lon="-1.4011780">
        <ele>663.0</ele>
        <time>2019-07-15T11:31:30Z</time>
      </trkpt>
      <trkpt lat="43.1763900" lon="-1.4012560">
        <ele>663.7</ele>
        <time>2019-07-15T11:31:36Z</time>
      </trkpt>
      <trkpt lat="43.1763030" lon="-1.4012950">
        <ele>664.3</ele>
        <time>2019-07-15T11:31:42Z</time>
      </trkpt>
      <trkpt lat="43.1762220" lon="-1.4013560">
        <ele>665.1</ele>
        <time>2019-07-15T11:31:48Z</time>
      </trkpt>
      <trkpt lat="43.1761350" lon="-1.4014100">
        <ele>665.9</ele>
        <time>2019-07-15T11:31:54Z</time>
      </trkpt>
      <trkpt lat="43.1760500" lon="-1.4014550">
        <ele>666.8</ele>
        <time>2019-07-15T11:32:00Z</time>
      </trkpt>
      <trkpt lat="43.1759640" lon="-1.4015130">
        <ele>667.6</ele>
        <time>2019-07-15T11:32:07Z</time>
      </trkpt>
      <trkpt lat="43.1758800" lon="-1.4015820">
        <ele>668.4</ele>
        <time>2019-07-15T11:32:13Z</time>
      </trkpt>
      <trkpt lat="43.1758030" lon="-1.4016580">
        <ele>669.2</ele>
        <time>2019-07-15T11:32:19Z</time>
      </trkpt>
      <trkpt lat="43.1757400" lon="-1.4017520">
        <ele>669.9</ele>
        <time>2019-07-15T11:32:24Z</time>
      </trkpt>
      <trkpt lat="43.1757070" lon="-1.4018750">
        <ele>670.5</ele>
        <time>2019-07-15T11:32:30Z</time>
      </trkpt>
      <trkpt lat="43.1756920" lon="-1.4020060">
        <ele>670.3</ele>
        <time>2019-07-15T11:32:36Z</time>
      </trkpt>
      <trkpt lat="43.1756630" lon="-1.4021240">
        <ele>670.1</ele>
        <time>2019-07-15T11:32:43Z</time>
      </trkpt>
      <trkpt lat="43.1756220" lon="-1.4021440">
        <ele>670.0</ele>
        <time>2019-07-15T11:32:48Z</time>
      </trkpt>
      <trkpt lat="43.1756120" lon="-1.4020210">
        <ele>669.7</ele>
        <time>2019-07-15T11:40:24Z</time>
      </trkpt>
      <trkpt lat="43.1755130" lon="-1.4020360">
        <ele>669.5</ele>
        <time>2019-07-15T11:40:34Z</time>
      </trkpt>
      <trkpt lat="43.1755240" lon="-1.4021080">
        <ele>669.4</ele>
        <time>2019-07-15T11:40:44Z</time>
      </trkpt>
      <trkpt lat="43.1754900" lon="-1.4021320">
        <ele>669.3</ele>
        <time>2019-07-15T11:40:54Z</time>
      </trkpt>
      <trkpt lat="43.1754440" lon="-1.4021120">
        <ele>669.1</ele>
        <time>2019-07-15T11:41:39Z</time>
      </trkpt>
      <trkpt lat="43.1754560" lon="-1.4022430">
        <ele>668.8</ele>
        <time>2019-07-15T11:41:59Z</time>
      </trkpt>
      <trkpt lat="43.1754270" lon="-1.4023780">
        <ele>668.5</ele>
        <time>2019-07-15T11:42:02Z</time>
      </trkpt>
      <trkpt lat="43.1753650" lon="-1.4024810">
        <ele>668.5</ele>
        <time>2019-07-15T11:42:06Z</time>
      </trkpt>
      <trkpt lat="43.1753560" lon="-1.4024010">
        <ele>668.5</ele>
        <time>2019-07-15T11:42:15Z</time>
      </trkpt>
      <trkpt lat="43.1753390" lon="-1.4023390">
        <ele>668.6</ele>
        <time>2019-07-15T11:42:28Z</time>
      </trkpt>
      <trkpt lat="43.1753220" lon="-1.4022760">
        <ele>668.7</ele>
        <time>2019-07-15T11:42:28Z</time>
      </trkpt>
      <trkpt lat="43.1753220" lon="-1.4022760">
        <ele>668.7</ele>
        <time>2019-07-15T11:42:28Z</time>
      </trkpt>
      <trkpt lat="43.1753210" lon="-1.4019940">
        <ele>668.9</ele>
        <time>2019-07-15T11:42:43Z</time>
      </trkpt>
      <trkpt lat="43.1754100" lon="-1.4019350">
        <ele>669.0</ele>
        <time>2019-07-15T11:42:48Z</time>
      </trkpt>
      <trkpt lat="43.1755120" lon="-1.4018980">
        <ele>669.1</ele>
        <time>2019-07-15T11:42:55Z</time>
      </trkpt>
      <trkpt lat="43.1755510" lon="-1.4018860">
        <ele>669.2</ele>
        <time>2019-07-15T11:43:04Z</time>
      </trkpt>
      <trkpt lat="43.1755650" lon="-1.4018750">
        <ele>669.2</ele>
        <time>2019-07-15T11:43:08Z</time>
      </trkpt>
      <trkpt lat="43.1754720" lon="-1.4019700">
        <ele>669.3</ele>
        <time>2019-07-15T11:43:17Z</time>
      </trkpt>
      <trkpt lat="43.1755110" lon="-1.4020940">
        <ele>669.4</ele>
        <time>2019-07-15T11:43:27Z</time>
      </trkpt>
      <trkpt lat="43.1755140" lon="-1.4021020">
        <ele>669.4</ele>
        <time>2019-07-15T11:43:31Z</time>
      </trkpt>
      <trkpt lat="43.1754230" lon="-1.4021180">
        <ele>669.5</ele>
        <time>2019-07-15T11:43:49Z</time>
      </trkpt>
      <trkpt lat="43.1754330" lon="-1.4021160">
        <ele>669.5</ele>
        <time>2019-07-15T11:43:51Z</time>
      </trkpt>
      <trkpt lat="43.1754340" lon="-1.4021070">
        <ele>669.5</ele>
        <time>2019-07-15T11:50:30Z</time>
      </trkpt>
      <trkpt lat="43.1754640" lon="-1.4021870">
        <ele>669.6</ele>
        <time>2019-07-15T11:50:46Z</time>
      </trkpt>
      <trkpt lat="43.1754130" lon="-1.4020950">
        <ele>669.6</ele>
        <time>2019-07-15T12:36:08Z</time>
      </trkpt>
      <trkpt lat="43.1755060" lon="-1.4020820">
        <ele>669.7</ele>
        <time>2019-07-15T13:11:05Z</time>
      </trkpt>
      <trkpt lat="43.1755160" lon="-1.4020880">
        <ele>669.7</ele>
        <time>2019-07-15T13:11:09Z</time>
      </trkpt>
      <trkpt lat="43.1755730" lon="-1.4020020">
        <ele>669.8</ele>
        <time>2019-07-15T13:17:31Z</time>
      </trkpt>
      <trkpt lat="43.1756090" lon="-1.4019380">
        <ele>669.9</ele>
        <time>2019-07-15T13:17:52Z</time>
      </trkpt>
      <trkpt lat="43.1756440" lon="-1.4019080">
        <ele>669.9</ele>
        <time>2019-07-15T13:18:02Z</time>
      </trkpt>
      <trkpt lat="43.1756320" lon="-1.4020390">
        <ele>670.0</ele>
        <time>2019-07-15T13:20:52Z</time>
      </trkpt>
      <trkpt lat="43.1756380" lon="-1.4020350">
        <ele>670.0</ele>
        <time>2019-07-15T13:20:55Z</time>
      </trkpt>
      <trkpt lat="43.1756060" lon="-1.4020020">
        <ele>670.0</ele>
        <time>2019-07-15T13:21:43Z</time>
      </trkpt>
      <trkpt lat="43.1755450" lon="-1.4020450">
        <ele>670.1</ele>
        <time>2019-07-15T13:21:58Z</time>
      </trkpt>
      <trkpt lat="43.1755990" lon="-1.4019430">
        <ele>670.2</ele>
        <time>2019-07-15T13:22:12Z</time>
      </trkpt>
      <trkpt lat="43.1756750" lon="-1.4018370">
        <ele>670.6</ele>
        <time>2019-07-15T13:22:15Z</time>
      </trkpt>
      <trkpt lat="43.1757610" lon="-1.4017090">
        <ele>670.5</ele>
        <time>2019-07-15T13:22:18Z</time>
      </trkpt>
      <trkpt lat="43.1758400" lon="-1.4016110">
        <ele>670.6</ele>
        <time>2019-07-15T13:22:20Z</time>
      </trkpt>
      <trkpt lat="43.1759380" lon="-1.4015310">
        <ele>670.7</ele>
        <time>2019-07-15T13:22:22Z</time>
      </trkpt>
      <trkpt lat="43.1760330" lon="-1.4014680">
        <ele>670.7</ele>
        <time>2019-07-15T13:22:24Z</time>
      </trkpt>
      <trkpt lat="43.1761420" lon="-1.4014040">
        <ele>670.5</ele>
        <time>2019-07-15T13:22:26Z</time>
      </trkpt>
      <trkpt lat="43.1762650" lon="-1.4013280">
        <ele>670.4</ele>
        <time>2019-07-15T13:22:28Z</time>
      </trkpt>
      <trkpt lat="43.1764020" lon="-1.4012410">
        <ele>670.1</ele>
        <time>2019-07-15T13:22:30Z</time>
      </trkpt>
      <trkpt lat="43.1765100" lon="-1.4011470">
        <ele>669.7</ele>
        <time>2019-07-15T13:22:32Z</time>
      </trkpt>
      <trkpt lat="43.1765990" lon="-1.4010420">
        <ele>669.3</ele>
        <time>2019-07-15T13:22:34Z</time>
      </trkpt>
      <trkpt lat="43.1766720" lon="-1.4009150">
        <ele>668.8</ele>
        <time>2019-07-15T13:22:36Z</time>
      </trkpt>
      <trkpt lat="43.1767220" lon="-1.4007700">
        <ele>668.3</ele>
        <time>2019-07-15T13:22:38Z</time>
      </trkpt>
      <trkpt lat="43.1767690" lon="-1.4006150">
        <ele>667.8</ele>
        <time>2019-07-15T13:22:40Z</time>
      </trkpt>
      <trkpt lat="43.1768150" lon="-1.4004590">
        <ele>667.4</ele>
        <time>2019-07-15T13:22:42Z</time>
      </trkpt>
      <trkpt lat="43.1768650" lon="-1.4003020">
        <ele>666.9</ele>
        <time>2019-07-15T13:22:44Z</time>
      </trkpt>
      <trkpt lat="43.1769220" lon="-1.4001440">
        <ele>666.3</ele>
        <time>2019-07-15T13:22:46Z</time>
      </trkpt>
      <trkpt lat="43.1769860" lon="-1.3999780">
        <ele>665.5</ele>
        <time>2019-07-15T13:22:48Z</time>
      </trkpt>
      <trkpt lat="43.1770510" lon="-1.3998030">
        <ele>664.7</ele>
        <time>2019-07-15T13:22:50Z</time>
      </trkpt>
      <trkpt lat="43.1771190" lon="-1.3996220">
        <ele>663.7</ele>
        <time>2019-07-15T13:22:52Z</time>
      </trkpt>
      <trkpt lat="43.1771940" lon="-1.3994310">
        <ele>663.0</ele>
        <time>2019-07-15T13:22:54Z</time>
      </trkpt>
      <trkpt lat="43.1772760" lon="-1.3992400">
        <ele>662.5</ele>
        <time>2019-07-15T13:22:56Z</time>
      </trkpt>
      <trkpt lat="43.1773630" lon="-1.3990660">
        <ele>662.0</ele>
        <time>2019-07-15T13:22:58Z</time>
      </trkpt>
      <trkpt lat="43.1774470" lon="-1.3988940">
        <ele>661.4</ele>
        <time>2019-07-15T13:23:00Z</time>
      </trkpt>
      <trkpt lat="43.1775280" lon="-1.3987180">
        <ele>660.6</ele>
        <time>2019-07-15T13:23:02Z</time>
      </trkpt>
      <trkpt lat="43.1776060" lon="-1.3985370">
        <ele>659.6</ele>
        <time>2019-07-15T13:23:04Z</time>
      </trkpt>
      <trkpt lat="43.1776760" lon="-1.3983650">
        <ele>658.6</ele>
        <time>2019-07-15T13:23:06Z</time>
      </trkpt>
      <trkpt lat="43.1777370" lon="-1.3982030">
        <ele>657.8</ele>
        <time>2019-07-15T13:23:08Z</time>
      </trkpt>
      <trkpt lat="43.1777860" lon="-1.3980350">
        <ele>656.8</ele>
        <time>2019-07-15T13:23:10Z</time>
      </trkpt>
      <trkpt lat="43.1778390" lon="-1.3978580">
        <ele>656.0</ele>
        <time>2019-07-15T13:23:12Z</time>
      </trkpt>
      <trkpt lat="43.1778900" lon="-1.3976880">
        <ele>655.2</ele>
        <time>2019-07-15T13:23:14Z</time>
      </trkpt>
      <trkpt lat="43.1779470" lon="-1.3975120">
        <ele>654.5</ele>
        <time>2019-07-15T13:23:16Z</time>
      </trkpt>
      <trkpt lat="43.1780030" lon="-1.3973420">
        <ele>653.7</ele>
        <time>2019-07-15T13:23:18Z</time>
      </trkpt>
      <trkpt lat="43.1780630" lon="-1.3971780">
        <ele>653.0</ele>
        <time>2019-07-15T13:23:20Z</time>
      </trkpt>
      <trkpt lat="43.1781270" lon="-1.3970130">
        <ele>652.3</ele>
        <time>2019-07-15T13:23:22Z</time>
      </trkpt>
      <trkpt lat="43.1781960" lon="-1.3968550">
        <ele>651.4</ele>
        <time>2019-07-15T13:23:24Z</time>
      </trkpt>
      <trkpt lat="43.1782780" lon="-1.3967240">
        <ele>650.1</ele>
        <time>2019-07-15T13:23:26Z</time>
      </trkpt>
      <trkpt lat="43.1784020" lon="-1.3966490">
        <ele>648.7</ele>
        <time>2019-07-15T13:23:28Z</time>
      </trkpt>
      <trkpt lat="43.1785460" lon="-1.3966400">
        <ele>646.6</ele>
        <time>2019-07-15T13:23:30Z</time>
      </trkpt>
      <trkpt lat="43.1786860" lon="-1.3966230">
        <ele>645.0</ele>
        <time>2019-07-15T13:23:32Z</time>
      </trkpt>
      <trkpt lat="43.1788150" lon="-1.3965720">
        <ele>643.7</ele>
        <time>2019-07-15T13:23:34Z</time>
      </trkpt>
      <trkpt lat="43.1789310" lon="-1.3965160">
        <ele>642.6</ele>
        <time>2019-07-15T13:23:36Z</time>
      </trkpt>
      <trkpt lat="43.1790470" lon="-1.3964530">
        <ele>641.9</ele>
        <time>2019-07-15T13:23:38Z</time>
      </trkpt>
      <trkpt lat="43.1791640" lon="-1.3963730">
        <ele>641.3</ele>
        <time>2019-07-15T13:23:40Z</time>
      </trkpt>
      <trkpt lat="43.1792810" lon="-1.3962930">
        <ele>640.7</ele>
        <time>2019-07-15T13:23:42Z</time>
      </trkpt>
      <trkpt lat="43.1794130" lon="-1.3962390">
        <ele>640.3</ele>
        <time>2019-07-15T13:23:44Z</time>
      </trkpt>
      <trkpt lat="43.1795450" lon="-1.3962100">
        <ele>639.8</ele>
        <time>2019-07-15T13:23:46Z</time>
      </trkpt>
      <trkpt lat="43.1796720" lon="-1.3961820">
        <ele>639.4</ele>
        <time>2019-07-15T13:23:48Z</time>
      </trkpt>
      <trkpt lat="43.1798060" lon="-1.3961500">
        <ele>638.6</ele>
        <time>2019-07-15T13:23:50Z</time>
      </trkpt>
      <trkpt lat="43.1799420" lon="-1.3960990">
        <ele>637.9</ele>
        <time>2019-07-15T13:23:52Z</time>
      </trkpt>
      <trkpt lat="43.1800530" lon="-1.3960330">
        <ele>637.3</ele>
        <time>2019-07-15T13:23:54Z</time>
      </trkpt>
      <trkpt lat="43.1801480" lon="-1.3959360">
        <ele>636.6</ele>
        <time>2019-07-15T13:23:56Z</time>
      </trkpt>
      <trkpt lat="43.1802260" lon="-1.3958000">
        <ele>635.8</ele>
        <time>2019-07-15T13:23:58Z</time>
      </trkpt>
      <trkpt lat="43.1802810" lon="-1.3956450">
        <ele>635.0</ele>
        <time>2019-07-15T13:24:00Z</time>
      </trkpt>
      <trkpt lat="43.1803220" lon="-1.3954700">
        <ele>634.0</ele>
        <time>2019-07-15T13:24:02Z</time>
      </trkpt>
      <trkpt lat="43.1803950" lon="-1.3953050">
        <ele>632.9</ele>
        <time>2019-07-15T13:24:04Z</time>
      </trkpt>
      <trkpt lat="43.1805000" lon="-1.3951570">
        <ele>631.9</ele>
        <time>2019-07-15T13:24:06Z</time>
      </trkpt>
      <trkpt lat="43.1806060" lon="-1.3950190">
        <ele>630.9</ele>
        <time>2019-07-15T13:24:08Z</time>
      </trkpt>
      <trkpt lat="43.1807010" lon="-1.3948890">
        <ele>630.2</ele>
        <time>2019-07-15T13:24:10Z</time>
      </trkpt>
      <trkpt lat="43.1808040" lon="-1.3947630">
        <ele>629.5</ele>
        <time>2019-07-15T13:24:12Z</time>
      </trkpt>
      <trkpt lat="43.1809260" lon="-1.3946850">
        <ele>628.4</ele>
        <time>2019-07-15T13:24:14Z</time>
      </trkpt>
      <trkpt lat="43.1810500" lon="-1.3946150">
        <ele>627.5</ele>
        <time>2019-07-15T13:24:16Z</time>
      </trkpt>
      <trkpt lat="43.1811520" lon="-1.3944980">
        <ele>626.6</ele>
        <time>2019-07-15T13:24:18Z</time>
      </trkpt>
      <trkpt lat="43.1812450" lon="-1.3943590">
        <ele>625.7</ele>
        <time>2019-07-15T13:24:20Z</time>
      </trkpt>
      <trkpt lat="43.1813300" lon="-1.3942190">
        <ele>624.8</ele>
        <time>2019-07-15T13:24:22Z</time>
      </trkpt>
      <trkpt lat="43.1813780" lon="-1.3940630">
        <ele>624.0</ele>
        <time>2019-07-15T13:24:24Z</time>
      </trkpt>
      <trkpt lat="43.1813930" lon="-1.3938930">
        <ele>623.3</ele>
        <time>2019-07-15T13:24:26Z</time>
      </trkpt>
      <trkpt lat="43.1813910" lon="-1.3937200">
        <ele>622.4</ele>
        <time>2019-07-15T13:24:28Z</time>
      </trkpt>
      <trkpt lat="43.1813820" lon="-1.3935450">
        <ele>621.4</ele>
        <time>2019-07-15T13:24:30Z</time>
      </trkpt>
      <trkpt lat="43.1813850" lon="-1.3933740">
        <ele>620.4</ele>
        <time>2019-07-15T13:24:32Z</time>
      </trkpt>
      <trkpt lat="43.1814000" lon="-1.3931960">
        <ele>619.4</ele>
        <time>2019-07-15T13:24:34Z</time>
      </trkpt>
      <trkpt lat="43.1814110" lon="-1.3930170">
        <ele>618.6</ele>
        <time>2019-07-15T13:24:36Z</time>
      </trkpt>
      <trkpt lat="43.1814130" lon="-1.3928310">
        <ele>617.6</ele>
        <time>2019-07-15T13:24:38Z</time>
      </trkpt>
      <trkpt lat="43.1814080" lon="-1.3926370">
        <ele>617.1</ele>
        <time>2019-07-15T13:24:40Z</time>
      </trkpt>
      <trkpt lat="43.1814050" lon="-1.3924420">
        <ele>616.6</ele>
        <time>2019-07-15T13:24:42Z</time>
      </trkpt>
      <trkpt lat="43.1814260" lon="-1.3922620">
        <ele>616.1</ele>
        <time>2019-07-15T13:24:44Z</time>
      </trkpt>
      <trkpt lat="43.1814960" lon="-1.3921170">
        <ele>615.3</ele>
        <time>2019-07-15T13:24:46Z</time>
      </trkpt>
      <trkpt lat="43.1816110" lon="-1.3920390">
        <ele>613.4</ele>
        <time>2019-07-15T13:24:48Z</time>
      </trkpt>
      <trkpt lat="43.1817410" lon="-1.3920120">
        <ele>611.2</ele>
        <time>2019-07-15T13:24:50Z</time>
      </trkpt>
      <trkpt lat="43.1818680" lon="-1.3919740">
        <ele>609.3</ele>
        <time>2019-07-15T13:24:52Z</time>
      </trkpt>
      <trkpt lat="43.1819740" lon="-1.3919070">
        <ele>607.9</ele>
        <time>2019-07-15T13:24:54Z</time>
      </trkpt>
      <trkpt lat="43.1820960" lon="-1.3918200">
        <ele>606.7</ele>
        <time>2019-07-15T13:24:57Z</time>
      </trkpt>
      <trkpt lat="43.1821750" lon="-1.3917560">
        <ele>605.7</ele>
        <time>2019-07-15T13:24:59Z</time>
      </trkpt>
      <trkpt lat="43.1822340" lon="-1.3916550">
        <ele>605.2</ele>
        <time>2019-07-15T13:25:01Z</time>
      </trkpt>
      <trkpt lat="43.1822620" lon="-1.3915240">
        <ele>603.6</ele>
        <time>2019-07-15T13:25:03Z</time>
      </trkpt>
      <trkpt lat="43.1822650" lon="-1.3913870">
        <ele>601.7</ele>
        <time>2019-07-15T13:25:05Z</time>
      </trkpt>
      <trkpt lat="43.1822590" lon="-1.3912550">
        <ele>599.9</ele>
        <time>2019-07-15T13:25:07Z</time>
      </trkpt>
      <trkpt lat="43.1822560" lon="-1.3911270">
        <ele>598.3</ele>
        <time>2019-07-15T13:25:09Z</time>
      </trkpt>
      <trkpt lat="43.1822550" lon="-1.3909920">
        <ele>596.4</ele>
        <time>2019-07-15T13:25:11Z</time>
      </trkpt>
      <trkpt lat="43.1822620" lon="-1.3908580">
        <ele>594.7</ele>
        <time>2019-07-15T13:25:13Z</time>
      </trkpt>
      <trkpt lat="43.1822760" lon="-1.3906690">
        <ele>592.1</ele>
        <time>2019-07-15T13:25:16Z</time>
      </trkpt>
      <trkpt lat="43.1822720" lon="-1.3905190">
        <ele>589.4</ele>
        <time>2019-07-15T13:25:18Z</time>
      </trkpt>
      <trkpt lat="43.1822450" lon="-1.3903570">
        <ele>586.3</ele>
        <time>2019-07-15T13:25:20Z</time>
      </trkpt>
      <trkpt lat="43.1821850" lon="-1.3902130">
        <ele>584.6</ele>
        <time>2019-07-15T13:25:22Z</time>
      </trkpt>
      <trkpt lat="43.1821120" lon="-1.3900860">
        <ele>583.9</ele>
        <time>2019-07-15T13:25:24Z</time>
      </trkpt>
      <trkpt lat="43.1820620" lon="-1.3899380">
        <ele>583.1</ele>
        <time>2019-07-15T13:25:26Z</time>
      </trkpt>
      <trkpt lat="43.1820720" lon="-1.3897810">
        <ele>582.5</ele>
        <time>2019-07-15T13:25:28Z</time>
      </trkpt>
      <trkpt lat="43.1821430" lon="-1.3896380">
        <ele>581.7</ele>
        <time>2019-07-15T13:25:30Z</time>
      </trkpt>
      <trkpt lat="43.1822380" lon="-1.3895070">
        <ele>580.8</ele>
        <time>2019-07-15T13:25:32Z</time>
      </trkpt>
      <trkpt lat="43.1823470" lon="-1.3893870">
        <ele>579.9</ele>
        <time>2019-07-15T13:25:34Z</time>
      </trkpt>
      <trkpt lat="43.1824640" lon="-1.3892780">
        <ele>579.4</ele>
        <time>2019-07-15T13:25:36Z</time>
      </trkpt>
      <trkpt lat="43.1825680" lon="-1.3891640">
        <ele>578.9</ele>
        <time>2019-07-15T13:25:38Z</time>
      </trkpt>
      <trkpt lat="43.1826550" lon="-1.3890360">
        <ele>578.2</ele>
        <time>2019-07-15T13:25:40Z</time>
      </trkpt>
      <trkpt lat="43.1827170" lon="-1.3888830">
        <ele>577.5</ele>
        <time>2019-07-15T13:25:42Z</time>
      </trkpt>
      <trkpt lat="43.1827910" lon="-1.3887200">
        <ele>576.8</ele>
        <time>2019-07-15T13:25:44Z</time>
      </trkpt>
      <trkpt lat="43.1828700" lon="-1.3885650">
        <ele>576.3</ele>
        <time>2019-07-15T13:25:46Z</time>
      </trkpt>
      <trkpt lat="43.1829400" lon="-1.3884160">
        <ele>575.7</ele>
        <time>2019-07-15T13:25:48Z</time>
      </trkpt>
      <trkpt lat="43.1830110" lon="-1.3882720">
        <ele>575.1</ele>
        <time>2019-07-15T13:25:50Z</time>
      </trkpt>
      <trkpt lat="43.1830840" lon="-1.3881320">
        <ele>574.4</ele>
        <time>2019-07-15T13:25:52Z</time>
      </trkpt>
      <trkpt lat="43.1831630" lon="-1.3880110">
        <ele>573.7</ele>
        <time>2019-07-15T13:25:54Z</time>
      </trkpt>
      <trkpt lat="43.1832450" lon="-1.3879040">
        <ele>573.0</ele>
        <time>2019-07-15T13:25:56Z</time>
      </trkpt>
      <trkpt lat="43.1832810" lon="-1.3877630">
        <ele>572.3</ele>
        <time>2019-07-15T13:25:58Z</time>
      </trkpt>
      <trkpt lat="43.1832430" lon="-1.3876210">
        <ele>571.4</ele>
        <time>2019-07-15T13:26:00Z</time>
      </trkpt>
      <trkpt lat="43.1831480" lon="-1.3875310">
        <ele>570.4</ele>
        <time>2019-07-15T13:26:02Z</time>
      </trkpt>
      <trkpt lat="43.1830330" lon="-1.3874920">
        <ele>569.5</ele>
        <time>2019-07-15T13:26:04Z</time>
      </trkpt>
      <trkpt lat="43.1829220" lon="-1.3874600">
        <ele>568.7</ele>
        <time>2019-07-15T13:26:06Z</time>
      </trkpt>
      <trkpt lat="43.1828100" lon="-1.3874220">
        <ele>568.0</ele>
        <time>2019-07-15T13:26:08Z</time>
      </trkpt>
      <trkpt lat="43.1826880" lon="-1.3873980">
        <ele>567.4</ele>
        <time>2019-07-15T13:26:10Z</time>
      </trkpt>
      <trkpt lat="43.1825770" lon="-1.3873700">
        <ele>566.8</ele>
        <time>2019-07-15T13:26:12Z</time>
      </trkpt>
      <trkpt lat="43.1824640" lon="-1.3873430">
        <ele>566.1</ele>
        <time>2019-07-15T13:26:14Z</time>
      </trkpt>
      <trkpt lat="43.1823390" lon="-1.3873130">
        <ele>565.4</ele>
        <time>2019-07-15T13:26:16Z</time>
      </trkpt>
      <trkpt lat="43.1822180" lon="-1.3872750">
        <ele>564.9</ele>
        <time>2019-07-15T13:26:18Z</time>
      </trkpt>
      <trkpt lat="43.1820970" lon="-1.3872380">
        <ele>564.3</ele>
        <time>2019-07-15T13:26:20Z</time>
      </trkpt>
      <trkpt lat="43.1819770" lon="-1.3872120">
        <ele>563.8</ele>
        <time>2019-07-15T13:26:22Z</time>
      </trkpt>
      <trkpt lat="43.1818500" lon="-1.3871790">
        <ele>563.3</ele>
        <time>2019-07-15T13:26:24Z</time>
      </trkpt>
      <trkpt lat="43.1817240" lon="-1.3871390">
        <ele>562.6</ele>
        <time>2019-07-15T13:26:26Z</time>
      </trkpt>
      <trkpt lat="43.1816150" lon="-1.3871010">
        <ele>562.0</ele>
        <time>2019-07-15T13:26:28Z</time>
      </trkpt>
      <trkpt lat="43.1815160" lon="-1.3870580">
        <ele>561.5</ele>
        <time>2019-07-15T13:26:30Z</time>
      </trkpt>
      <trkpt lat="43.1814170" lon="-1.3869940">
        <ele>560.9</ele>
        <time>2019-07-15T13:26:32Z</time>
      </trkpt>
      <trkpt lat="43.1813250" lon="-1.3868910">
        <ele>560.4</ele>
        <time>2019-07-15T13:26:34Z</time>
      </trkpt>
      <trkpt lat="43.1812460" lon="-1.3867460">
        <ele>559.9</ele>
        <time>2019-07-15T13:26:36Z</time>
      </trkpt>
      <trkpt lat="43.1811600" lon="-1.3865870">
        <ele>559.0</ele>
        <time>2019-07-15T13:26:38Z</time>
      </trkpt>
      <trkpt lat="43.1810550" lon="-1.3864500">
        <ele>558.2</ele>
        <time>2019-07-15T13:26:40Z</time>
      </trkpt>
      <trkpt lat="43.1809240" lon="-1.3863600">
        <ele>557.3</ele>
        <time>2019-07-15T13:26:42Z</time>
      </trkpt>
      <trkpt lat="43.1807770" lon="-1.3863270">
        <ele>556.5</ele>
        <time>2019-07-15T13:26:44Z</time>
      </trkpt>
      <trkpt lat="43.1806290" lon="-1.3863550">
        <ele>555.6</ele>
        <time>2019-07-15T13:26:46Z</time>
      </trkpt>
      <trkpt lat="43.1804930" lon="-1.3864160">
        <ele>554.8</ele>
        <time>2019-07-15T13:26:48Z</time>
      </trkpt>
      <trkpt lat="43.1803680" lon="-1.3864680">
        <ele>554.2</ele>
        <time>2019-07-15T13:26:50Z</time>
      </trkpt>
      <trkpt lat="43.1802500" lon="-1.3865180">
        <ele>553.7</ele>
        <time>2019-07-15T13:26:52Z</time>
      </trkpt>
      <trkpt lat="43.1801280" lon="-1.3865670">
        <ele>552.8</ele>
        <time>2019-07-15T13:26:54Z</time>
      </trkpt>
      <trkpt lat="43.1800040" lon="-1.3866240">
        <ele>552.1</ele>
        <time>2019-07-15T13:26:56Z</time>
      </trkpt>
      <trkpt lat="43.1798820" lon="-1.3866800">
        <ele>551.5</ele>
        <time>2019-07-15T13:26:58Z</time>
      </trkpt>
      <trkpt lat="43.1797640" lon="-1.3867180">
        <ele>550.9</ele>
        <time>2019-07-15T13:27:00Z</time>
      </trkpt>
      <trkpt lat="43.1796450" lon="-1.3867430">
        <ele>550.3</ele>
        <time>2019-07-15T13:27:02Z</time>
      </trkpt>
      <trkpt lat="43.1795220" lon="-1.3867580">
        <ele>549.4</ele>
        <time>2019-07-15T13:27:04Z</time>
      </trkpt>
      <trkpt lat="43.1794080" lon="-1.3867600">
        <ele>548.8</ele>
        <time>2019-07-15T13:27:06Z</time>
      </trkpt>
      <trkpt lat="43.1792920" lon="-1.3867600">
        <ele>548.3</ele>
        <time>2019-07-15T13:27:08Z</time>
      </trkpt>
      <trkpt lat="43.1791780" lon="-1.3867300">
        <ele>547.5</ele>
        <time>2019-07-15T13:27:10Z</time>
      </trkpt>
      <trkpt lat="43.1790720" lon="-1.3866630">
        <ele>546.7</ele>
        <time>2019-07-15T13:27:12Z</time>
      </trkpt>
      <trkpt lat="43.1789880" lon="-1.3865640">
        <ele>546.0</ele>
        <time>2019-07-15T13:27:14Z</time>
      </trkpt>
      <trkpt lat="43.1789400" lon="-1.3864440">
        <ele>545.3</ele>
        <time>2019-07-15T13:27:16Z</time>
      </trkpt>
      <trkpt lat="43.1789340" lon="-1.3862660">
        <ele>544.5</ele>
        <time>2019-07-15T13:27:19Z</time>
      </trkpt>
      <trkpt lat="43.1789830" lon="-1.3861100">
        <ele>543.7</ele>
        <time>2019-07-15T13:27:22Z</time>
      </trkpt>
      <trkpt lat="43.1790320" lon="-1.3860060">
        <ele>543.1</ele>
        <time>2019-07-15T13:27:24Z</time>
      </trkpt>
      <trkpt lat="43.1790780" lon="-1.3858660">
        <ele>542.5</ele>
        <time>2019-07-15T13:27:26Z</time>
      </trkpt>
      <trkpt lat="43.1791170" lon="-1.3856960">
        <ele>541.7</ele>
        <time>2019-07-15T13:27:28Z</time>
      </trkpt>
      <trkpt lat="43.1791260" lon="-1.3855260">
        <ele>541.0</ele>
        <time>2019-07-15T13:27:30Z</time>
      </trkpt>
      <trkpt lat="43.1791190" lon="-1.3853720">
        <ele>540.3</ele>
        <time>2019-07-15T13:27:32Z</time>
      </trkpt>
      <trkpt lat="43.1791140" lon="-1.3852060">
        <ele>539.7</ele>
        <time>2019-07-15T13:27:34Z</time>
      </trkpt>
      <trkpt lat="43.1791070" lon="-1.3850290">
        <ele>539.1</ele>
        <time>2019-07-15T13:27:36Z</time>
      </trkpt>
      <trkpt lat="43.1790880" lon="-1.3848570">
        <ele>538.5</ele>
        <time>2019-07-15T13:27:38Z</time>
      </trkpt>
      <trkpt lat="43.1790620" lon="-1.3846850">
        <ele>537.9</ele>
        <time>2019-07-15T13:27:40Z</time>
      </trkpt>
      <trkpt lat="43.1790410" lon="-1.3845200">
        <ele>537.3</ele>
        <time>2019-07-15T13:27:42Z</time>
      </trkpt>
      <trkpt lat="43.1790320" lon="-1.3843720">
        <ele>536.6</ele>
        <time>2019-07-15T13:27:44Z</time>
      </trkpt>
      <trkpt lat="43.1790490" lon="-1.3842360">
        <ele>535.8</ele>
        <time>2019-07-15T13:27:46Z</time>
      </trkpt>
      <trkpt lat="43.1791200" lon="-1.3841360">
        <ele>535.1</ele>
        <time>2019-07-15T13:27:48Z</time>
      </trkpt>
      <trkpt lat="43.1792160" lon="-1.3840590">
        <ele>534.3</ele>
        <time>2019-07-15T13:27:50Z</time>
      </trkpt>
      <trkpt lat="43.1793050" lon="-1.3839670">
        <ele>533.6</ele>
        <time>2019-07-15T13:27:52Z</time>
      </trkpt>
      <trkpt lat="43.1793930" lon="-1.3838700">
        <ele>532.9</ele>
        <time>2019-07-15T13:27:54Z</time>
      </trkpt>
      <trkpt lat="43.1794820" lon="-1.3837720">
        <ele>532.2</ele>
        <time>2019-07-15T13:27:56Z</time>
      </trkpt>
      <trkpt lat="43.1795550" lon="-1.3836710">
        <ele>531.7</ele>
        <time>2019-07-15T13:27:58Z</time>
      </trkpt>
      <trkpt lat="43.1796300" lon="-1.3835730">
        <ele>531.2</ele>
        <time>2019-07-15T13:28:00Z</time>
      </trkpt>
      <trkpt lat="43.1797150" lon="-1.3834920">
        <ele>530.5</ele>
        <time>2019-07-15T13:28:02Z</time>
      </trkpt>
      <trkpt lat="43.1798180" lon="-1.3834160">
        <ele>529.8</ele>
        <time>2019-07-15T13:28:04Z</time>
      </trkpt>
      <trkpt lat="43.1799230" lon="-1.3833330">
        <ele>529.2</ele>
        <time>2019-07-15T13:28:06Z</time>
      </trkpt>
      <trkpt lat="43.1800340" lon="-1.3832540">
        <ele>528.6</ele>
        <time>2019-07-15T13:28:08Z</time>
      </trkpt>
      <trkpt lat="43.1801470" lon="-1.3831680">
        <ele>527.9</ele>
        <time>2019-07-15T13:28:10Z</time>
      </trkpt>
      <trkpt lat="43.1802530" lon="-1.3830600">
        <ele>527.2</ele>
        <time>2019-07-15T13:28:12Z</time>
      </trkpt>
      <trkpt lat="43.1803610" lon="-1.3829280">
        <ele>526.5</ele>
        <time>2019-07-15T13:28:14Z</time>
      </trkpt>
      <trkpt lat="43.1804690" lon="-1.3827860">
        <ele>525.8</ele>
        <time>2019-07-15T13:28:16Z</time>
      </trkpt>
      <trkpt lat="43.1805740" lon="-1.3826420">
        <ele>525.0</ele>
        <time>2019-07-15T13:28:18Z</time>
      </trkpt>
      <trkpt lat="43.1806850" lon="-1.3824930">
        <ele>524.3</ele>
        <time>2019-07-15T13:28:20Z</time>
      </trkpt>
      <trkpt lat="43.1807900" lon="-1.3823390">
        <ele>523.5</ele>
        <time>2019-07-15T13:28:22Z</time>
      </trkpt>
      <trkpt lat="43.1808910" lon="-1.3821610">
        <ele>522.5</ele>
        <time>2019-07-15T13:28:24Z</time>
      </trkpt>
      <trkpt lat="43.1809680" lon="-1.3819840">
        <ele>521.5</ele>
        <time>2019-07-15T13:28:26Z</time>
      </trkpt>
      <trkpt lat="43.1810420" lon="-1.3818470">
        <ele>520.8</ele>
        <time>2019-07-15T13:28:28Z</time>
      </trkpt>
      <trkpt lat="43.1811400" lon="-1.3817540">
        <ele>520.0</ele>
        <time>2019-07-15T13:28:30Z</time>
      </trkpt>
      <trkpt lat="43.1812730" lon="-1.3817100">
        <ele>518.9</ele>
        <time>2019-07-15T13:28:32Z</time>
      </trkpt>
      <trkpt lat="43.1814050" lon="-1.3816670">
        <ele>517.9</ele>
        <time>2019-07-15T13:28:34Z</time>
      </trkpt>
      <trkpt lat="43.1815250" lon="-1.3816190">
        <ele>517.2</ele>
        <time>2019-07-15T13:28:36Z</time>
      </trkpt>
      <trkpt lat="43.1816430" lon="-1.3815470">
        <ele>516.5</ele>
        <time>2019-07-15T13:28:38Z</time>
      </trkpt>
      <trkpt lat="43.1817450" lon="-1.3814520">
        <ele>515.8</ele>
        <time>2019-07-15T13:28:40Z</time>
      </trkpt>
      <trkpt lat="43.1818420" lon="-1.3813500">
        <ele>515.1</ele>
        <time>2019-07-15T13:28:42Z</time>
      </trkpt>
      <trkpt lat="43.1819420" lon="-1.3812290">
        <ele>514.3</ele>
        <time>2019-07-15T13:28:44Z</time>
      </trkpt>
      <trkpt lat="43.1820270" lon="-1.3810780">
        <ele>513.3</ele>
        <time>2019-07-15T13:28:46Z</time>
      </trkpt>
      <trkpt lat="43.1820760" lon="-1.3809150">
        <ele>512.3</ele>
        <time>2019-07-15T13:28:48Z</time>
      </trkpt>
      <trkpt lat="43.1820790" lon="-1.3807470">
        <ele>511.4</ele>
        <time>2019-07-15T13:28:50Z</time>
      </trkpt>
      <trkpt lat="43.1820370" lon="-1.3805790">
        <ele>510.5</ele>
        <time>2019-07-15T13:28:52Z</time>
      </trkpt>
      <trkpt lat="43.1819640" lon="-1.3804210">
        <ele>509.6</ele>
        <time>2019-07-15T13:28:54Z</time>
      </trkpt>
      <trkpt lat="43.1818830" lon="-1.3803020">
        <ele>508.8</ele>
        <time>2019-07-15T13:28:56Z</time>
      </trkpt>
      <trkpt lat="43.1818080" lon="-1.3801900">
        <ele>508.0</ele>
        <time>2019-07-15T13:28:58Z</time>
      </trkpt>
      <trkpt lat="43.1817300" lon="-1.3800750">
        <ele>507.4</ele>
        <time>2019-07-15T13:29:00Z</time>
      </trkpt>
      <trkpt lat="43.1816470" lon="-1.3799580">
        <ele>506.8</ele>
        <time>2019-07-15T13:29:02Z</time>
      </trkpt>
      <trkpt lat="43.1815510" lon="-1.3798290">
        <ele>506.1</ele>
        <time>2019-07-15T13:29:04Z</time>
      </trkpt>
      <trkpt lat="43.1814450" lon="-1.3796830">
        <ele>505.3</ele>
        <time>2019-07-15T13:29:06Z</time>
      </trkpt>
      <trkpt lat="43.1813280" lon="-1.3795320">
        <ele>504.4</ele>
        <time>2019-07-15T13:29:08Z</time>
      </trkpt>
      <trkpt lat="43.1812030" lon="-1.3793790">
        <ele>503.5</ele>
        <time>2019-07-15T13:29:10Z</time>
      </trkpt>
      <trkpt lat="43.1811340" lon="-1.3793000">
        <ele>503.0</ele>
        <time>2019-07-15T13:29:11Z</time>
      </trkpt>
      <trkpt lat="43.1809900" lon="-1.3791610">
        <ele>502.1</ele>
        <time>2019-07-15T13:29:13Z</time>
      </trkpt>
      <trkpt lat="43.1808380" lon="-1.3790570">
        <ele>501.2</ele>
        <time>2019-07-15T13:29:15Z</time>
      </trkpt>
      <trkpt lat="43.1806790" lon="-1.3789740">
        <ele>500.0</ele>
        <time>2019-07-15T13:29:17Z</time>
      </trkpt>
      <trkpt lat="43.1805300" lon="-1.3789060">
        <ele>499.1</ele>
        <time>2019-07-15T13:29:19Z</time>
      </trkpt>
      <trkpt lat="43.1803880" lon="-1.3788370">
        <ele>498.4</ele>
        <time>2019-07-15T13:29:21Z</time>
      </trkpt>
      <trkpt lat="43.1802520" lon="-1.3787690">
        <ele>497.7</ele>
        <time>2019-07-15T13:29:23Z</time>
      </trkpt>
      <trkpt lat="43.1801310" lon="-1.3786790">
        <ele>496.8</ele>
        <time>2019-07-15T13:29:25Z</time>
      </trkpt>
      <trkpt lat="43.1800150" lon="-1.3785550">
        <ele>495.9</ele>
        <time>2019-07-15T13:29:27Z</time>
      </trkpt>
      <trkpt lat="43.1798930" lon="-1.3784340">
        <ele>495.2</ele>
        <time>2019-07-15T13:29:29Z</time>
      </trkpt>
      <trkpt lat="43.1797510" lon="-1.3783320">
        <ele>494.2</ele>
        <time>2019-07-15T13:29:31Z</time>
      </trkpt>
      <trkpt lat="43.1796010" lon="-1.3782530">
        <ele>493.2</ele>
        <time>2019-07-15T13:29:33Z</time>
      </trkpt>
      <trkpt lat="43.1794610" lon="-1.3781900">
        <ele>492.5</ele>
        <time>2019-07-15T13:29:35Z</time>
      </trkpt>
      <trkpt lat="43.1793130" lon="-1.3781410">
        <ele>491.5</ele>
        <time>2019-07-15T13:29:37Z</time>
      </trkpt>
      <trkpt lat="43.1791540" lon="-1.3781150">
        <ele>490.4</ele>
        <time>2019-07-15T13:29:39Z</time>
      </trkpt>
      <trkpt lat="43.1789950" lon="-1.3781130">
        <ele>489.3</ele>
        <time>2019-07-15T13:29:41Z</time>
      </trkpt>
      <trkpt lat="43.1788610" lon="-1.3780970">
        <ele>488.4</ele>
        <time>2019-07-15T13:29:43Z</time>
      </trkpt>
      <trkpt lat="43.1787240" lon="-1.3780900">
        <ele>487.6</ele>
        <time>2019-07-15T13:29:45Z</time>
      </trkpt>
      <trkpt lat="43.1785890" lon="-1.3780560">
        <ele>486.7</ele>
        <time>2019-07-15T13:29:47Z</time>
      </trkpt>
      <trkpt lat="43.1784810" lon="-1.3779760">
        <ele>485.8</ele>
        <time>2019-07-15T13:29:49Z</time>
      </trkpt>
      <trkpt lat="43.1783890" lon="-1.3778440">
        <ele>484.9</ele>
        <time>2019-07-15T13:29:51Z</time>
      </trkpt>
      <trkpt lat="43.1783090" lon="-1.3776850">
        <ele>484.0</ele>
        <time>2019-07-15T13:29:53Z</time>
      </trkpt>
      <trkpt lat="43.1782430" lon="-1.3775220">
        <ele>483.2</ele>
        <time>2019-07-15T13:29:55Z</time>
      </trkpt>
      <trkpt lat="43.1781910" lon="-1.3773420">
        <ele>482.3</ele>
        <time>2019-07-15T13:29:57Z</time>
      </trkpt>
      <trkpt lat="43.1781470" lon="-1.3771500">
        <ele>481.3</ele>
        <time>2019-07-15T13:29:59Z</time>
      </trkpt>
      <trkpt lat="43.1781100" lon="-1.3769530">
        <ele>480.3</ele>
        <time>2019-07-15T13:30:01Z</time>
      </trkpt>
      <trkpt lat="43.1780740" lon="-1.3767410">
        <ele>479.4</ele>
        <time>2019-07-15T13:30:03Z</time>
      </trkpt>
      <trkpt lat="43.1780340" lon="-1.3765150">
        <ele>478.5</ele>
        <time>2019-07-15T13:30:05Z</time>
      </trkpt>
      <trkpt lat="43.1779970" lon="-1.3763100">
        <ele>477.6</ele>
        <time>2019-07-15T13:30:07Z</time>
      </trkpt>
      <trkpt lat="43.1779760" lon="-1.3761160">
        <ele>476.6</ele>
        <time>2019-07-15T13:30:09Z</time>
      </trkpt>
      <trkpt lat="43.1779850" lon="-1.3759380">
        <ele>475.5</ele>
        <time>2019-07-15T13:30:11Z</time>
      </trkpt>
      <trkpt lat="43.1780450" lon="-1.3757790">
        <ele>474.4</ele>
        <time>2019-07-15T13:30:13Z</time>
      </trkpt>
      <trkpt lat="43.1781610" lon="-1.3756770">
        <ele>473.3</ele>
        <time>2019-07-15T13:30:15Z</time>
      </trkpt>
      <trkpt lat="43.1782800" lon="-1.3756080">
        <ele>472.4</ele>
        <time>2019-07-15T13:30:17Z</time>
      </trkpt>
      <trkpt lat="43.1783940" lon="-1.3755440">
        <ele>471.5</ele>
        <time>2019-07-15T13:30:19Z</time>
      </trkpt>
      <trkpt lat="43.1785070" lon="-1.3754660">
        <ele>470.6</ele>
        <time>2019-07-15T13:30:21Z</time>
      </trkpt>
      <trkpt lat="43.1786090" lon="-1.3753680">
        <ele>469.7</ele>
        <time>2019-07-15T13:30:23Z</time>
      </trkpt>
      <trkpt lat="43.1787120" lon="-1.3752980">
        <ele>468.7</ele>
        <time>2019-07-15T13:30:25Z</time>
      </trkpt>
      <trkpt lat="43.1788140" lon="-1.3753380">
        <ele>467.8</ele>
        <time>2019-07-15T13:30:27Z</time>
      </trkpt>
      <trkpt lat="43.1789030" lon="-1.3754360">
        <ele>466.9</ele>
        <time>2019-07-15T13:30:29Z</time>
      </trkpt>
      <trkpt lat="43.1789950" lon="-1.3755340">
        <ele>465.9</ele>
        <time>2019-07-15T13:30:31Z</time>
      </trkpt>
      <trkpt lat="43.1790890" lon="-1.3756260">
        <ele>464.8</ele>
        <time>2019-07-15T13:30:33Z</time>
      </trkpt>
      <trkpt lat="43.1791700" lon="-1.3757350">
        <ele>464.1</ele>
        <time>2019-07-15T13:30:35Z</time>
      </trkpt>
      <trkpt lat="43.1792740" lon="-1.3758290">
        <ele>463.3</ele>
        <time>2019-07-15T13:30:37Z</time>
      </trkpt>
      <trkpt lat="43.1793860" lon="-1.3759210">
        <ele>462.4</ele>
        <time>2019-07-15T13:30:39Z</time>
      </trkpt>
      <trkpt lat="43.1794940" lon="-1.3760190">
        <ele>461.7</ele>
        <time>2019-07-15T13:30:41Z</time>
      </trkpt>
      <trkpt lat="43.1796110" lon="-1.3761050">
        <ele>460.9</ele>
        <time>2019-07-15T13:30:43Z</time>
      </trkpt>
      <trkpt lat="43.1797250" lon="-1.3761690">
        <ele>460.2</ele>
        <time>2019-07-15T13:30:45Z</time>
      </trkpt>
      <trkpt lat="43.1798260" lon="-1.3762350">
        <ele>459.4</ele>
        <time>2019-07-15T13:30:47Z</time>
      </trkpt>
      <trkpt lat="43.1799540" lon="-1.3762660">
        <ele>458.4</ele>
        <time>2019-07-15T13:30:49Z</time>
      </trkpt>
      <trkpt lat="43.1800690" lon="-1.3763210">
        <ele>457.6</ele>
        <time>2019-07-15T13:30:51Z</time>
      </trkpt>
      <trkpt lat="43.1802000" lon="-1.3763630">
        <ele>456.6</ele>
        <time>2019-07-15T13:30:53Z</time>
      </trkpt>
      <trkpt lat="43.1803260" lon="-1.3764190">
        <ele>455.8</ele>
        <time>2019-07-15T13:30:55Z</time>
      </trkpt>
      <trkpt lat="43.1804420" lon="-1.3764840">
        <ele>455.2</ele>
        <time>2019-07-15T13:30:57Z</time>
      </trkpt>
      <trkpt lat="43.1805750" lon="-1.3765240">
        <ele>454.1</ele>
        <time>2019-07-15T13:30:59Z</time>
      </trkpt>
      <trkpt lat="43.1807290" lon="-1.3765210">
        <ele>453.1</ele>
        <time>2019-07-15T13:31:01Z</time>
      </trkpt>
      <trkpt lat="43.1808850" lon="-1.3764820">
        <ele>452.2</ele>
        <time>2019-07-15T13:31:03Z</time>
      </trkpt>
      <trkpt lat="43.1810160" lon="-1.3764290">
        <ele>451.4</ele>
        <time>2019-07-15T13:31:05Z</time>
      </trkpt>
      <trkpt lat="43.1811540" lon="-1.3763660">
        <ele>450.3</ele>
        <time>2019-07-15T13:31:07Z</time>
      </trkpt>
      <trkpt lat="43.1812850" lon="-1.3763060">
        <ele>449.5</ele>
        <time>2019-07-15T13:31:09Z</time>
      </trkpt>
      <trkpt lat="43.1814080" lon="-1.3762340">
        <ele>448.8</ele>
        <time>2019-07-15T13:31:11Z</time>
      </trkpt>
      <trkpt lat="43.1815340" lon="-1.3761740">
        <ele>448.1</ele>
        <time>2019-07-15T13:31:13Z</time>
      </trkpt>
      <trkpt lat="43.1816550" lon="-1.3761050">
        <ele>447.3</ele>
        <time>2019-07-15T13:31:15Z</time>
      </trkpt>
      <trkpt lat="43.1817900" lon="-1.3760500">
        <ele>446.3</ele>
        <time>2019-07-15T13:31:17Z</time>
      </trkpt>
      <trkpt lat="43.1819270" lon="-1.3760470">
        <ele>445.3</ele>
        <time>2019-07-15T13:31:19Z</time>
      </trkpt>
      <trkpt lat="43.1820620" lon="-1.3760820">
        <ele>444.3</ele>
        <time>2019-07-15T13:31:21Z</time>
      </trkpt>
      <trkpt lat="43.1821980" lon="-1.3761290">
        <ele>443.3</ele>
        <time>2019-07-15T13:31:23Z</time>
      </trkpt>
      <trkpt lat="43.1823210" lon="-1.3761660">
        <ele>442.6</ele>
        <time>2019-07-15T13:31:25Z</time>
      </trkpt>
      <trkpt lat="43.1824430" lon="-1.3762030">
        <ele>441.9</ele>
        <time>2019-07-15T13:31:27Z</time>
      </trkpt>
      <trkpt lat="43.1825550" lon="-1.3762280">
        <ele>441.2</ele>
        <time>2019-07-15T13:31:29Z</time>
      </trkpt>
      <trkpt lat="43.1826720" lon="-1.3762240">
        <ele>440.5</ele>
        <time>2019-07-15T13:31:31Z</time>
      </trkpt>
      <trkpt lat="43.1827810" lon="-1.3762000">
        <ele>439.7</ele>
        <time>2019-07-15T13:31:33Z</time>
      </trkpt>
      <trkpt lat="43.1828750" lon="-1.3761700">
        <ele>439.0</ele>
        <time>2019-07-15T13:31:35Z</time>
      </trkpt>
      <trkpt lat="43.1829780" lon="-1.3761250">
        <ele>438.2</ele>
        <time>2019-07-15T13:31:37Z</time>
      </trkpt>
      <trkpt lat="43.1830640" lon="-1.3760730">
        <ele>437.5</ele>
        <time>2019-07-15T13:31:39Z</time>
      </trkpt>
      <trkpt lat="43.1831520" lon="-1.3760290">
        <ele>436.7</ele>
        <time>2019-07-15T13:31:41Z</time>
      </trkpt>
      <trkpt lat="43.1832530" lon="-1.3759680">
        <ele>435.8</ele>
        <time>2019-07-15T13:31:44Z</time>
      </trkpt>
      <trkpt lat="43.1833520" lon="-1.3758650">
        <ele>434.8</ele>
        <time>2019-07-15T13:31:47Z</time>
      </trkpt>
      <trkpt lat="43.1833960" lon="-1.3757370">
        <ele>433.3</ele>
        <time>2019-07-15T13:31:50Z</time>
      </trkpt>
      <trkpt lat="43.1833430" lon="-1.3756240">
        <ele>431.6</ele>
        <time>2019-07-15T13:31:53Z</time>
      </trkpt>
      <trkpt lat="43.1832190" lon="-1.3755810">
        <ele>429.7</ele>
        <time>2019-07-15T13:31:56Z</time>
      </trkpt>
      <trkpt lat="43.1831170" lon="-1.3755780">
        <ele>427.9</ele>
        <time>2019-07-15T13:31:58Z</time>
      </trkpt>
      <trkpt lat="43.1830000" lon="-1.3755640">
        <ele>425.7</ele>
        <time>2019-07-15T13:32:01Z</time>
      </trkpt>
      <trkpt lat="43.1829110" lon="-1.3755080">
        <ele>423.7</ele>
        <time>2019-07-15T13:32:03Z</time>
      </trkpt>
      <trkpt lat="43.1828130" lon="-1.3753800">
        <ele>420.8</ele>
        <time>2019-07-15T13:32:06Z</time>
      </trkpt>
      <trkpt lat="43.1827480" lon="-1.3752860">
        <ele>418.9</ele>
        <time>2019-07-15T13:32:08Z</time>
      </trkpt>
      <trkpt lat="43.1826690" lon="-1.3751860">
        <ele>416.8</ele>
        <time>2019-07-15T13:32:10Z</time>
      </trkpt>
      <trkpt lat="43.1825940" lon="-1.3750960">
        <ele>415.0</ele>
        <time>2019-07-15T13:32:12Z</time>
      </trkpt>
      <trkpt lat="43.1825080" lon="-1.3749970">
        <ele>412.9</ele>
        <time>2019-07-15T13:32:14Z</time>
      </trkpt>
      <trkpt lat="43.1824140" lon="-1.3749040">
        <ele>410.6</ele>
        <time>2019-07-15T13:32:16Z</time>
      </trkpt>
      <trkpt lat="43.1823000" lon="-1.3748080">
        <ele>408.1</ele>
        <time>2019-07-15T13:32:18Z</time>
      </trkpt>
      <trkpt lat="43.1821950" lon="-1.3747350">
        <ele>405.8</ele>
        <time>2019-07-15T13:32:20Z</time>
      </trkpt>
      <trkpt lat="43.1820860" lon="-1.3746760">
        <ele>403.6</ele>
        <time>2019-07-15T13:32:22Z</time>
      </trkpt>
      <trkpt lat="43.1819910" lon="-1.3746190">
        <ele>401.8</ele>
        <time>2019-07-15T13:32:24Z</time>
      </trkpt>
      <trkpt lat="43.1818670" lon="-1.3745660">
        <ele>399.5</ele>
        <time>2019-07-15T13:32:26Z</time>
      </trkpt>
      <trkpt lat="43.1817250" lon="-1.3745190">
        <ele>396.8</ele>
        <time>2019-07-15T13:32:28Z</time>
      </trkpt>
      <trkpt lat="43.1815920" lon="-1.3744870">
        <ele>394.4</ele>
        <time>2019-07-15T13:32:30Z</time>
      </trkpt>
      <trkpt lat="43.1814760" lon="-1.3744520">
        <ele>392.3</ele>
        <time>2019-07-15T13:32:32Z</time>
      </trkpt>
      <trkpt lat="43.1813860" lon="-1.3743670">
        <ele>390.3</ele>
        <time>2019-07-15T13:32:34Z</time>
      </trkpt>
      <trkpt lat="43.1813560" lon="-1.3742350">
        <ele>388.4</ele>
        <time>2019-07-15T13:32:36Z</time>
      </trkpt>
      <trkpt lat="43.1813460" lon="-1.3740850">
        <ele>386.8</ele>
        <time>2019-07-15T13:32:38Z</time>
      </trkpt>
      <trkpt lat="43.1813120" lon="-1.3739330">
        <ele>386.3</ele>
        <time>2019-07-15T13:32:40Z</time>
      </trkpt>
      <trkpt lat="43.1812460" lon="-1.3738020">
        <ele>385.9</ele>
        <time>2019-07-15T13:32:42Z</time>
      </trkpt>
      <trkpt lat="43.1811480" lon="-1.3737150">
        <ele>385.4</ele>
        <time>2019-07-15T13:32:44Z</time>
      </trkpt>
      <trkpt lat="43.1810300" lon="-1.3736550">
        <ele>384.9</ele>
        <time>2019-07-15T13:32:46Z</time>
      </trkpt>
      <trkpt lat="43.1809150" lon="-1.3735920">
        <ele>384.5</ele>
        <time>2019-07-15T13:32:48Z</time>
      </trkpt>
      <trkpt lat="43.1808090" lon="-1.3735160">
        <ele>384.2</ele>
        <time>2019-07-15T13:32:50Z</time>
      </trkpt>
      <trkpt lat="43.1807040" lon="-1.3734130">
        <ele>383.8</ele>
        <time>2019-07-15T13:32:52Z</time>
      </trkpt>
      <trkpt lat="43.1806290" lon="-1.3732750">
        <ele>383.4</ele>
        <time>2019-07-15T13:32:54Z</time>
      </trkpt>
      <trkpt lat="43.1805840" lon="-1.3731040">
        <ele>383.0</ele>
        <time>2019-07-15T13:32:56Z</time>
      </trkpt>
      <trkpt lat="43.1805620" lon="-1.3729140">
        <ele>382.6</ele>
        <time>2019-07-15T13:32:58Z</time>
      </trkpt>
      <trkpt lat="43.1805500" lon="-1.3727210">
        <ele>382.2</ele>
        <time>2019-07-15T13:33:00Z</time>
      </trkpt>
      <trkpt lat="43.1805460" lon="-1.3725470">
        <ele>382.0</ele>
        <time>2019-07-15T13:33:02Z</time>
      </trkpt>
      <trkpt lat="43.1805500" lon="-1.3723700">
        <ele>381.6</ele>
        <time>2019-07-15T13:33:04Z</time>
      </trkpt>
      <trkpt lat="43.1805680" lon="-1.3721910">
        <ele>381.2</ele>
        <time>2019-07-15T13:33:06Z</time>
      </trkpt>
      <trkpt lat="43.1805820" lon="-1.3720000">
        <ele>380.6</ele>
        <time>2019-07-15T13:33:08Z</time>
      </trkpt>
      <trkpt lat="43.1805790" lon="-1.3718260">
        <ele>380.1</ele>
        <time>2019-07-15T13:33:10Z</time>
      </trkpt>
      <trkpt lat="43.1805660" lon="-1.3716660">
        <ele>379.7</ele>
        <time>2019-07-15T13:33:12Z</time>
      </trkpt>
      <trkpt lat="43.1805520" lon="-1.3714990">
        <ele>379.3</ele>
        <time>2019-07-15T13:33:14Z</time>
      </trkpt>
      <trkpt lat="43.1805040" lon="-1.3713320">
        <ele>378.9</ele>
        <time>2019-07-15T13:33:16Z</time>
      </trkpt>
      <trkpt lat="43.1804450" lon="-1.3711880">
        <ele>378.4</ele>
        <time>2019-07-15T13:33:18Z</time>
      </trkpt>
      <trkpt lat="43.1803850" lon="-1.3710350">
        <ele>377.8</ele>
        <time>2019-07-15T13:33:20Z</time>
      </trkpt>
      <trkpt lat="43.1802990" lon="-1.3708910">
        <ele>377.2</ele>
        <time>2019-07-15T13:33:22Z</time>
      </trkpt>
      <trkpt lat="43.1801990" lon="-1.3707710">
        <ele>376.5</ele>
        <time>2019-07-15T13:33:24Z</time>
      </trkpt>
      <trkpt lat="43.1801270" lon="-1.3706500">
        <ele>375.8</ele>
        <time>2019-07-15T13:33:26Z</time>
      </trkpt>
      <trkpt lat="43.1800200" lon="-1.3705660">
        <ele>375.0</ele>
        <time>2019-07-15T13:33:28Z</time>
      </trkpt>
      <trkpt lat="43.1798960" lon="-1.3704880">
        <ele>374.2</ele>
        <time>2019-07-15T13:33:31Z</time>
      </trkpt>
      <trkpt lat="43.1797850" lon="-1.3704220">
        <ele>373.9</ele>
        <time>2019-07-15T13:33:33Z</time>
      </trkpt>
      <trkpt lat="43.1797030" lon="-1.3703500">
        <ele>373.6</ele>
        <time>2019-07-15T13:33:35Z</time>
      </trkpt>
      <trkpt lat="43.1795750" lon="-1.3703030">
        <ele>372.8</ele>
        <time>2019-07-15T13:33:37Z</time>
      </trkpt>
      <trkpt lat="43.1794820" lon="-1.3702760">
        <ele>372.0</ele>
        <time>2019-07-15T13:33:39Z</time>
      </trkpt>
      <trkpt lat="43.1793760" lon="-1.3702700">
        <ele>371.0</ele>
        <time>2019-07-15T13:33:41Z</time>
      </trkpt>
      <trkpt lat="43.1792350" lon="-1.3702780">
        <ele>370.0</ele>
        <time>2019-07-15T13:33:43Z</time>
      </trkpt>
      <trkpt lat="43.1791230" lon="-1.3702760">
        <ele>369.1</ele>
        <time>2019-07-15T13:33:45Z</time>
      </trkpt>
      <trkpt lat="43.1790160" lon="-1.3702490">
        <ele>368.1</ele>
        <time>2019-07-15T13:33:47Z</time>
      </trkpt>
      <trkpt lat="43.1788970" lon="-1.3701670">
        <ele>366.7</ele>
        <time>2019-07-15T13:33:50Z</time>
      </trkpt>
      <trkpt lat="43.1787760" lon="-1.3701040">
        <ele>365.5</ele>
        <time>2019-07-15T13:33:52Z</time>
      </trkpt>
      <trkpt lat="43.1786830" lon="-1.3700880">
        <ele>364.7</ele>
        <time>2019-07-15T13:33:53Z</time>
      </trkpt>
      <trkpt lat="43.1785590" lon="-1.3700580">
        <ele>363.5</ele>
        <time>2019-07-15T13:33:55Z</time>
      </trkpt>
      <trkpt lat="43.1784690" lon="-1.3700660">
        <ele>362.5</ele>
        <time>2019-07-15T13:33:56Z</time>
      </trkpt>
      <trkpt lat="43.1783190" lon="-1.3700730">
        <ele>361.3</ele>
        <time>2019-07-15T13:33:58Z</time>
      </trkpt>
      <trkpt lat="43.1781920" lon="-1.3700950">
        <ele>360.3</ele>
        <time>2019-07-15T13:34:00Z</time>
      </trkpt>
      <trkpt lat="43.1780750" lon="-1.3700920">
        <ele>359.5</ele>
        <time>2019-07-15T13:34:02Z</time>
      </trkpt>
      <trkpt lat="43.1779700" lon="-1.3700650">
        <ele>358.4</ele>
        <time>2019-07-15T13:34:04Z</time>
      </trkpt>
      <trkpt lat="43.1778560" lon="-1.3700430">
        <ele>357.2</ele>
        <time>2019-07-15T13:34:06Z</time>
      </trkpt>
      <trkpt lat="43.1777500" lon="-1.3700460">
        <ele>356.2</ele>
        <time>2019-07-15T13:34:08Z</time>
      </trkpt>
      <trkpt lat="43.1776430" lon="-1.3700650">
        <ele>355.3</ele>
        <time>2019-07-15T13:34:10Z</time>
      </trkpt>
      <trkpt lat="43.1775120" lon="-1.3700900">
        <ele>354.4</ele>
        <time>2019-07-15T13:34:12Z</time>
      </trkpt>
      <trkpt lat="43.1773930" lon="-1.3700900">
        <ele>353.9</ele>
        <time>2019-07-15T13:34:14Z</time>
      </trkpt>
      <trkpt lat="43.1772970" lon="-1.3700200">
        <ele>353.5</ele>
        <time>2019-07-15T13:34:16Z</time>
      </trkpt>
      <trkpt lat="43.1772610" lon="-1.3698980">
        <ele>353.0</ele>
        <time>2019-07-15T13:34:18Z</time>
      </trkpt>
      <trkpt lat="43.1772840" lon="-1.3697630">
        <ele>352.4</ele>
        <time>2019-07-15T13:34:20Z</time>
      </trkpt>
      <trkpt lat="43.1773190" lon="-1.3696360">
        <ele>351.6</ele>
        <time>2019-07-15T13:34:22Z</time>
      </trkpt>
      <trkpt lat="43.1773620" lon="-1.3695170">
        <ele>351.0</ele>
        <time>2019-07-15T13:34:24Z</time>
      </trkpt>
      <trkpt lat="43.1773970" lon="-1.3693750">
        <ele>350.1</ele>
        <time>2019-07-15T13:34:26Z</time>
      </trkpt>
      <trkpt lat="43.1774090" lon="-1.3692220">
        <ele>349.2</ele>
        <time>2019-07-15T13:34:28Z</time>
      </trkpt>
      <trkpt lat="43.1774070" lon="-1.3690370">
        <ele>347.7</ele>
        <time>2019-07-15T13:34:30Z</time>
      </trkpt>
      <trkpt lat="43.1774050" lon="-1.3688830">
        <ele>346.8</ele>
        <time>2019-07-15T13:34:32Z</time>
      </trkpt>
      <trkpt lat="43.1774000" lon="-1.3687180">
        <ele>345.6</ele>
        <time>2019-07-15T13:34:34Z</time>
      </trkpt>
      <trkpt lat="43.1773810" lon="-1.3685580">
        <ele>344.6</ele>
        <time>2019-07-15T13:34:36Z</time>
      </trkpt>
      <trkpt lat="43.1773670" lon="-1.3683980">
        <ele>343.5</ele>
        <time>2019-07-15T13:34:38Z</time>
      </trkpt>
      <trkpt lat="43.1773580" lon="-1.3682330">
        <ele>342.4</ele>
        <time>2019-07-15T13:34:40Z</time>
      </trkpt>
      <trkpt lat="43.1773350" lon="-1.3680500">
        <ele>341.0</ele>
        <time>2019-07-15T13:34:42Z</time>
      </trkpt>
      <trkpt lat="43.1773400" lon="-1.3678850">
        <ele>340.0</ele>
        <time>2019-07-15T13:34:44Z</time>
      </trkpt>
      <trkpt lat="43.1773360" lon="-1.3677020">
        <ele>339.0</ele>
        <time>2019-07-15T13:34:46Z</time>
      </trkpt>
      <trkpt lat="43.1773300" lon="-1.3675080">
        <ele>338.3</ele>
        <time>2019-07-15T13:34:48Z</time>
      </trkpt>
      <trkpt lat="43.1773300" lon="-1.3673160">
        <ele>337.5</ele>
        <time>2019-07-15T13:34:50Z</time>
      </trkpt>
      <trkpt lat="43.1773340" lon="-1.3671580">
        <ele>336.5</ele>
        <time>2019-07-15T13:34:52Z</time>
      </trkpt>
      <trkpt lat="43.1773470" lon="-1.3670020">
        <ele>335.8</ele>
        <time>2019-07-15T13:34:54Z</time>
      </trkpt>
      <trkpt lat="43.1773760" lon="-1.3668280">
        <ele>334.3</ele>
        <time>2019-07-15T13:34:56Z</time>
      </trkpt>
      <trkpt lat="43.1774240" lon="-1.3666650">
        <ele>333.0</ele>
        <time>2019-07-15T13:34:58Z</time>
      </trkpt>
      <trkpt lat="43.1775030" lon="-1.3665180">
        <ele>331.7</ele>
        <time>2019-07-15T13:35:00Z</time>
      </trkpt>
      <trkpt lat="43.1775840" lon="-1.3663820">
        <ele>330.6</ele>
        <time>2019-07-15T13:35:02Z</time>
      </trkpt>
      <trkpt lat="43.1776550" lon="-1.3662420">
        <ele>329.7</ele>
        <time>2019-07-15T13:35:04Z</time>
      </trkpt>
      <trkpt lat="43.1777240" lon="-1.3660960">
        <ele>328.9</ele>
        <time>2019-07-15T13:35:06Z</time>
      </trkpt>
      <trkpt lat="43.1778140" lon="-1.3659670">
        <ele>328.0</ele>
        <time>2019-07-15T13:35:08Z</time>
      </trkpt>
      <trkpt lat="43.1778800" lon="-1.3658130">
        <ele>327.1</ele>
        <time>2019-07-15T13:35:10Z</time>
      </trkpt>
      <trkpt lat="43.1779130" lon="-1.3656400">
        <ele>326.0</ele>
        <time>2019-07-15T13:35:12Z</time>
      </trkpt>
      <trkpt lat="43.1779610" lon="-1.3654890">
        <ele>324.8</ele>
        <time>2019-07-15T13:35:14Z</time>
      </trkpt>
      <trkpt lat="43.1780220" lon="-1.3653270">
        <ele>323.8</ele>
        <time>2019-07-15T13:35:16Z</time>
      </trkpt>
      <trkpt lat="43.1780560" lon="-1.3651410">
        <ele>322.2</ele>
        <time>2019-07-15T13:35:18Z</time>
      </trkpt>
      <trkpt lat="43.1780660" lon="-1.3649720">
        <ele>320.7</ele>
        <time>2019-07-15T13:35:20Z</time>
      </trkpt>
      <trkpt lat="43.1780490" lon="-1.3648210">
        <ele>319.5</ele>
        <time>2019-07-15T13:35:22Z</time>
      </trkpt>
      <trkpt lat="43.1779730" lon="-1.3646960">
        <ele>318.6</ele>
        <time>2019-07-15T13:35:24Z</time>
      </trkpt>
      <trkpt lat="43.1778790" lon="-1.3646340">
        <ele>317.6</ele>
        <time>2019-07-15T13:35:26Z</time>
      </trkpt>
      <trkpt lat="43.1777910" lon="-1.3646040">
        <ele>316.6</ele>
        <time>2019-07-15T13:35:28Z</time>
      </trkpt>
      <trkpt lat="43.1776870" lon="-1.3645720">
        <ele>315.7</ele>
        <time>2019-07-15T13:35:30Z</time>
      </trkpt>
      <trkpt lat="43.1775440" lon="-1.3645170">
        <ele>314.7</ele>
        <time>2019-07-15T13:35:32Z</time>
      </trkpt>
      <trkpt lat="43.1773700" lon="-1.3644500">
        <ele>313.3</ele>
        <time>2019-07-15T13:35:34Z</time>
      </trkpt>
      <trkpt lat="43.1772160" lon="-1.3643930">
        <ele>312.0</ele>
        <time>2019-07-15T13:35:36Z</time>
      </trkpt>
      <trkpt lat="43.1770940" lon="-1.3643070">
        <ele>311.0</ele>
        <time>2019-07-15T13:35:38Z</time>
      </trkpt>
      <trkpt lat="43.1770070" lon="-1.3642060">
        <ele>310.4</ele>
        <time>2019-07-15T13:35:40Z</time>
      </trkpt>
      <trkpt lat="43.1769500" lon="-1.3640670">
        <ele>309.7</ele>
        <time>2019-07-15T13:35:42Z</time>
      </trkpt>
      <trkpt lat="43.1769540" lon="-1.3639130">
        <ele>309.0</ele>
        <time>2019-07-15T13:35:44Z</time>
      </trkpt>
      <trkpt lat="43.1770150" lon="-1.3637820">
        <ele>308.2</ele>
        <time>2019-07-15T13:35:46Z</time>
      </trkpt>
      <trkpt lat="43.1770990" lon="-1.3636840">
        <ele>307.4</ele>
        <time>2019-07-15T13:35:48Z</time>
      </trkpt>
      <trkpt lat="43.1771800" lon="-1.3635740">
        <ele>306.5</ele>
        <time>2019-07-15T13:35:50Z</time>
      </trkpt>
      <trkpt lat="43.1772240" lon="-1.3634510">
        <ele>305.5</ele>
        <time>2019-07-15T13:35:52Z</time>
      </trkpt>
      <trkpt lat="43.1772280" lon="-1.3633140">
        <ele>304.5</ele>
        <time>2019-07-15T13:35:54Z</time>
      </trkpt>
      <trkpt lat="43.1772470" lon="-1.3631640">
        <ele>303.8</ele>
        <time>2019-07-15T13:35:56Z</time>
      </trkpt>
      <trkpt lat="43.1772700" lon="-1.3630110">
        <ele>303.0</ele>
        <time>2019-07-15T13:35:58Z</time>
      </trkpt>
      <trkpt lat="43.1772940" lon="-1.3628510">
        <ele>302.0</ele>
        <time>2019-07-15T13:36:00Z</time>
      </trkpt>
      <trkpt lat="43.1773270" lon="-1.3626870">
        <ele>301.1</ele>
        <time>2019-07-15T13:36:02Z</time>
      </trkpt>
      <trkpt lat="43.1773870" lon="-1.3625520">
        <ele>300.4</ele>
        <time>2019-07-15T13:36:04Z</time>
      </trkpt>
      <trkpt lat="43.1774470" lon="-1.3624360">
        <ele>299.6</ele>
        <time>2019-07-15T13:36:06Z</time>
      </trkpt>
      <trkpt lat="43.1775000" lon="-1.3622920">
        <ele>298.7</ele>
        <time>2019-07-15T13:36:08Z</time>
      </trkpt>
      <trkpt lat="43.1775060" lon="-1.3621300">
        <ele>297.6</ele>
        <time>2019-07-15T13:36:10Z</time>
      </trkpt>
      <trkpt lat="43.1774840" lon="-1.3619650">
        <ele>296.4</ele>
        <time>2019-07-15T13:36:12Z</time>
      </trkpt>
      <trkpt lat="43.1774350" lon="-1.3618210">
        <ele>295.4</ele>
        <time>2019-07-15T13:36:14Z</time>
      </trkpt>
      <trkpt lat="43.1773800" lon="-1.3616660">
        <ele>294.4</ele>
        <time>2019-07-15T13:36:16Z</time>
      </trkpt>
      <trkpt lat="43.1773430" lon="-1.3615040">
        <ele>293.9</ele>
        <time>2019-07-15T13:36:18Z</time>
      </trkpt>
      <trkpt lat="43.1773380" lon="-1.3613330">
        <ele>293.3</ele>
        <time>2019-07-15T13:36:20Z</time>
      </trkpt>
      <trkpt lat="43.1773550" lon="-1.3611660">
        <ele>292.7</ele>
        <time>2019-07-15T13:36:22Z</time>
      </trkpt>
      <trkpt lat="43.1773850" lon="-1.3609850">
        <ele>291.8</ele>
        <time>2019-07-15T13:36:24Z</time>
      </trkpt>
      <trkpt lat="43.1773780" lon="-1.3608040">
        <ele>291.0</ele>
        <time>2019-07-15T13:36:26Z</time>
      </trkpt>
      <trkpt lat="43.1773440" lon="-1.3606340">
        <ele>290.2</ele>
        <time>2019-07-15T13:36:28Z</time>
      </trkpt>
      <trkpt lat="43.1772960" lon="-1.3604670">
        <ele>288.8</ele>
        <time>2019-07-15T13:36:30Z</time>
      </trkpt>
      <trkpt lat="43.1772540" lon="-1.3602790">
        <ele>287.6</ele>
        <time>2019-07-15T13:36:32Z</time>
      </trkpt>
      <trkpt lat="43.1772080" lon="-1.3600760">
        <ele>286.4</ele>
        <time>2019-07-15T13:36:34Z</time>
      </trkpt>
      <trkpt lat="43.1771760" lon="-1.3598620">
        <ele>285.0</ele>
        <time>2019-07-15T13:36:36Z</time>
      </trkpt>
      <trkpt lat="43.1771480" lon="-1.3596730">
        <ele>283.8</ele>
        <time>2019-07-15T13:36:38Z</time>
      </trkpt>
      <trkpt lat="43.1771150" lon="-1.3594960">
        <ele>282.6</ele>
        <time>2019-07-15T13:36:40Z</time>
      </trkpt>
      <trkpt lat="43.1770550" lon="-1.3593480">
        <ele>281.9</ele>
        <time>2019-07-15T13:36:42Z</time>
      </trkpt>
      <trkpt lat="43.1769780" lon="-1.3592040">
        <ele>280.8</ele>
        <time>2019-07-15T13:36:44Z</time>
      </trkpt>
      <trkpt lat="43.1769060" lon="-1.3590910">
        <ele>279.7</ele>
        <time>2019-07-15T13:36:46Z</time>
      </trkpt>
      <trkpt lat="43.1768190" lon="-1.3589540">
        <ele>278.4</ele>
        <time>2019-07-15T13:36:48Z</time>
      </trkpt>
      <trkpt lat="43.1767110" lon="-1.3588350">
        <ele>277.2</ele>
        <time>2019-07-15T13:36:50Z</time>
      </trkpt>
      <trkpt lat="43.1766100" lon="-1.3587270">
        <ele>276.2</ele>
        <time>2019-07-15T13:36:52Z</time>
      </trkpt>
      <trkpt lat="43.1764770" lon="-1.3586070">
        <ele>274.8</ele>
        <time>2019-07-15T13:36:54Z</time>
      </trkpt>
      <trkpt lat="43.1763410" lon="-1.3585110">
        <ele>273.3</ele>
        <time>2019-07-15T13:36:56Z</time>
      </trkpt>
      <trkpt lat="43.1762230" lon="-1.3584450">
        <ele>272.4</ele>
        <time>2019-07-15T13:36:58Z</time>
      </trkpt>
      <trkpt lat="43.1760810" lon="-1.3583340">
        <ele>270.7</ele>
        <time>2019-07-15T13:37:00Z</time>
      </trkpt>
      <trkpt lat="43.1759370" lon="-1.3582680">
        <ele>269.4</ele>
        <time>2019-07-15T13:37:02Z</time>
      </trkpt>
      <trkpt lat="43.1757910" lon="-1.3582410">
        <ele>268.2</ele>
        <time>2019-07-15T13:37:04Z</time>
      </trkpt>
      <trkpt lat="43.1756630" lon="-1.3582070">
        <ele>267.3</ele>
        <time>2019-07-15T13:37:06Z</time>
      </trkpt>
      <trkpt lat="43.1755370" lon="-1.3581860">
        <ele>266.1</ele>
        <time>2019-07-15T13:37:08Z</time>
      </trkpt>
      <trkpt lat="43.1754140" lon="-1.3582050">
        <ele>265.2</ele>
        <time>2019-07-15T13:37:10Z</time>
      </trkpt>
      <trkpt lat="43.1753020" lon="-1.3582450">
        <ele>264.6</ele>
        <time>2019-07-15T13:37:13Z</time>
      </trkpt>
      <trkpt lat="43.1752480" lon="-1.3582360">
        <ele>264.3</ele>
        <time>2019-07-15T13:37:20Z</time>
      </trkpt>
      <trkpt lat="43.1751440" lon="-1.3581830">
        <ele>263.7</ele>
        <time>2019-07-15T13:38:26Z</time>
      </trkpt>
      <trkpt lat="43.1750290" lon="-1.3581620">
        <ele>262.8</ele>
        <time>2019-07-15T13:38:31Z</time>
      </trkpt>
      <trkpt lat="43.1749270" lon="-1.3581560">
        <ele>262.0</ele>
        <time>2019-07-15T13:38:34Z</time>
      </trkpt>
      <trkpt lat="43.1747990" lon="-1.3581540">
        <ele>261.1</ele>
        <time>2019-07-15T13:38:37Z</time>
      </trkpt>
      <trkpt lat="43.1746630" lon="-1.3581660">
        <ele>260.1</ele>
        <time>2019-07-15T13:38:40Z</time>
      </trkpt>
      <trkpt lat="43.1745600" lon="-1.3581770">
        <ele>259.3</ele>
        <time>2019-07-15T13:38:42Z</time>
      </trkpt>
      <trkpt lat="43.1744500" lon="-1.3581900">
        <ele>258.4</ele>
        <time>2019-07-15T13:38:44Z</time>
      </trkpt>
      <trkpt lat="43.1743280" lon="-1.3581930">
        <ele>257.6</ele>
        <time>2019-07-15T13:38:46Z</time>
      </trkpt>
      <trkpt lat="43.1742080" lon="-1.3581880">
        <ele>256.7</ele>
        <time>2019-07-15T13:38:48Z</time>
      </trkpt>
      <trkpt lat="43.1740900" lon="-1.3581610">
        <ele>256.0</ele>
        <time>2019-07-15T13:38:50Z</time>
      </trkpt>
      <trkpt lat="43.1739950" lon="-1.3580880">
        <ele>255.4</ele>
        <time>2019-07-15T13:38:52Z</time>
      </trkpt>
      <trkpt lat="43.1739220" lon="-1.3579730">
        <ele>254.5</ele>
        <time>2019-07-15T13:38:54Z</time>
      </trkpt>
      <trkpt lat="43.1738570" lon="-1.3578450">
        <ele>253.8</ele>
        <time>2019-07-15T13:38:56Z</time>
      </trkpt>
      <trkpt lat="43.1738200" lon="-1.3576890">
        <ele>252.8</ele>
        <time>2019-07-15T13:38:58Z</time>
      </trkpt>
      <trkpt lat="43.1737890" lon="-1.3575270">
        <ele>251.9</ele>
        <time>2019-07-15T13:39:00Z</time>
      </trkpt>
      <trkpt lat="43.1737910" lon="-1.3573530">
        <ele>250.9</ele>
        <time>2019-07-15T13:39:02Z</time>
      </trkpt>
      <trkpt lat="43.1738080" lon="-1.3571660">
        <ele>249.6</ele>
        <time>2019-07-15T13:39:04Z</time>
      </trkpt>
      <trkpt lat="43.1738490" lon="-1.3569730">
        <ele>247.9</ele>
        <time>2019-07-15T13:39:06Z</time>
      </trkpt>
      <trkpt lat="43.1739260" lon="-1.3567910">
        <ele>247.0</ele>
        <time>2019-07-15T13:39:08Z</time>
      </trkpt>
      <trkpt lat="43.1740120" lon="-1.3566320">
        <ele>246.3</ele>
        <time>2019-07-15T13:39:10Z</time>
      </trkpt>
      <trkpt lat="43.1740950" lon="-1.3564790">
        <ele>245.5</ele>
        <time>2019-07-15T13:39:12Z</time>
      </trkpt>
      <trkpt lat="43.1741630" lon="-1.3563150">
        <ele>244.5</ele>
        <time>2019-07-15T13:39:14Z</time>
      </trkpt>
      <trkpt lat="43.1742120" lon="-1.3561380">
        <ele>243.5</ele>
        <time>2019-07-15T13:39:16Z</time>
      </trkpt>
      <trkpt lat="43.1742660" lon="-1.3559540">
        <ele>242.6</ele>
        <time>2019-07-15T13:39:18Z</time>
      </trkpt>
      <trkpt lat="43.1743280" lon="-1.3557790">
        <ele>241.8</ele>
        <time>2019-07-15T13:39:20Z</time>
      </trkpt>
      <trkpt lat="43.1743820" lon="-1.3556220">
        <ele>240.9</ele>
        <time>2019-07-15T13:39:22Z</time>
      </trkpt>
      <trkpt lat="43.1744370" lon="-1.3554570">
        <ele>239.6</ele>
        <time>2019-07-15T13:39:24Z</time>
      </trkpt>
      <trkpt lat="43.1744770" lon="-1.3552740">
        <ele>238.4</ele>
        <time>2019-07-15T13:39:26Z</time>
      </trkpt>
      <trkpt lat="43.1745100" lon="-1.3550940">
        <ele>237.6</ele>
        <time>2019-07-15T13:39:28Z</time>
      </trkpt>
      <trkpt lat="43.1745490" lon="-1.3549330">
        <ele>236.8</ele>
        <time>2019-07-15T13:39:30Z</time>
      </trkpt>
      <trkpt lat="43.1745860" lon="-1.3547980">
        <ele>236.2</ele>
        <time>2019-07-15T13:39:32Z</time>
      </trkpt>
      <trkpt lat="43.1746230" lon="-1.3546500">
        <ele>235.3</ele>
        <time>2019-07-15T13:39:34Z</time>
      </trkpt>
      <trkpt lat="43.1746610" lon="-1.3544830">
        <ele>234.3</ele>
        <time>2019-07-15T13:39:36Z</time>
      </trkpt>
      <trkpt lat="43.1747290" lon="-1.3543170">
        <ele>232.8</ele>
        <time>2019-07-15T13:39:38Z</time>
      </trkpt>
      <trkpt lat="43.1748140" lon="-1.3541780">
        <ele>232.1</ele>
        <time>2019-07-15T13:39:40Z</time>
      </trkpt>
      <trkpt lat="43.1749030" lon="-1.3540490">
        <ele>231.4</ele>
        <time>2019-07-15T13:39:42Z</time>
      </trkpt>
      <trkpt lat="43.1750080" lon="-1.3539350">
        <ele>230.7</ele>
        <time>2019-07-15T13:39:44Z</time>
      </trkpt>
      <trkpt lat="43.1751240" lon="-1.3538510">
        <ele>229.9</ele>
        <time>2019-07-15T13:39:46Z</time>
      </trkpt>
      <trkpt lat="43.1752440" lon="-1.3538170">
        <ele>229.4</ele>
        <time>2019-07-15T13:39:48Z</time>
      </trkpt>
      <trkpt lat="43.1753630" lon="-1.3537990">
        <ele>228.7</ele>
        <time>2019-07-15T13:39:50Z</time>
      </trkpt>
      <trkpt lat="43.1754940" lon="-1.3537740">
        <ele>228.0</ele>
        <time>2019-07-15T13:39:52Z</time>
      </trkpt>
      <trkpt lat="43.1756130" lon="-1.3537300">
        <ele>227.3</ele>
        <time>2019-07-15T13:39:54Z</time>
      </trkpt>
      <trkpt lat="43.1757130" lon="-1.3536520">
        <ele>226.6</ele>
        <time>2019-07-15T13:39:56Z</time>
      </trkpt>
      <trkpt lat="43.1757940" lon="-1.3535280">
        <ele>225.8</ele>
        <time>2019-07-15T13:39:58Z</time>
      </trkpt>
      <trkpt lat="43.1758300" lon="-1.3533740">
        <ele>224.8</ele>
        <time>2019-07-15T13:40:00Z</time>
      </trkpt>
      <trkpt lat="43.1758360" lon="-1.3532090">
        <ele>223.8</ele>
        <time>2019-07-15T13:40:02Z</time>
      </trkpt>
      <trkpt lat="43.1758370" lon="-1.3530360">
        <ele>223.0</ele>
        <time>2019-07-15T13:40:04Z</time>
      </trkpt>
      <trkpt lat="43.1758370" lon="-1.3528550">
        <ele>222.3</ele>
        <time>2019-07-15T13:40:06Z</time>
      </trkpt>
      <trkpt lat="43.1758330" lon="-1.3526920">
        <ele>221.7</ele>
        <time>2019-07-15T13:40:08Z</time>
      </trkpt>
      <trkpt lat="43.1758350" lon="-1.3525120">
        <ele>220.8</ele>
        <time>2019-07-15T13:40:10Z</time>
      </trkpt>
      <trkpt lat="43.1758400" lon="-1.3523430">
        <ele>219.9</ele>
        <time>2019-07-15T13:40:12Z</time>
      </trkpt>
      <trkpt lat="43.1758540" lon="-1.3521510">
        <ele>218.9</ele>
        <time>2019-07-15T13:40:14Z</time>
      </trkpt>
      <trkpt lat="43.1758860" lon="-1.3519520">
        <ele>217.4</ele>
        <time>2019-07-15T13:40:16Z</time>
      </trkpt>
      <trkpt lat="43.1759340" lon="-1.3517580">
        <ele>215.9</ele>
        <time>2019-07-15T13:40:18Z</time>
      </trkpt>
      <trkpt lat="43.1759950" lon="-1.3515850">
        <ele>214.8</ele>
        <time>2019-07-15T13:40:20Z</time>
      </trkpt>
      <trkpt lat="43.1760580" lon="-1.3514320">
        <ele>213.8</ele>
        <time>2019-07-15T13:40:22Z</time>
      </trkpt>
      <trkpt lat="43.1761470" lon="-1.3512880">
        <ele>212.5</ele>
        <time>2019-07-15T13:40:24Z</time>
      </trkpt>
      <trkpt lat="43.1762640" lon="-1.3511680">
        <ele>211.3</ele>
        <time>2019-07-15T13:40:26Z</time>
      </trkpt>
      <trkpt lat="43.1763800" lon="-1.3510580">
        <ele>210.4</ele>
        <time>2019-07-15T13:40:28Z</time>
      </trkpt>
      <trkpt lat="43.1764960" lon="-1.3509550">
        <ele>209.5</ele>
        <time>2019-07-15T13:40:30Z</time>
      </trkpt>
      <trkpt lat="43.1766130" lon="-1.3508490">
        <ele>208.7</ele>
        <time>2019-07-15T13:40:32Z</time>
      </trkpt>
      <trkpt lat="43.1767300" lon="-1.3507580">
        <ele>208.1</ele>
        <time>2019-07-15T13:40:34Z</time>
      </trkpt>
      <trkpt lat="43.1768470" lon="-1.3506990">
        <ele>207.6</ele>
        <time>2019-07-15T13:40:36Z</time>
      </trkpt>
      <trkpt lat="43.1769760" lon="-1.3507190">
        <ele>207.1</ele>
        <time>2019-07-15T13:40:38Z</time>
      </trkpt>
      <trkpt lat="43.1771070" lon="-1.3507780">
        <ele>206.5</ele>
        <time>2019-07-15T13:40:40Z</time>
      </trkpt>
      <trkpt lat="43.1772280" lon="-1.3508560">
        <ele>205.9</ele>
        <time>2019-07-15T13:40:42Z</time>
      </trkpt>
      <trkpt lat="43.1773170" lon="-1.3509570">
        <ele>205.2</ele>
        <time>2019-07-15T13:40:44Z</time>
      </trkpt>
      <trkpt lat="43.1774340" lon="-1.3510600">
        <ele>204.0</ele>
        <time>2019-07-15T13:40:46Z</time>
      </trkpt>
      <trkpt lat="43.1775620" lon="-1.3511250">
        <ele>202.7</ele>
        <time>2019-07-15T13:40:48Z</time>
      </trkpt>
      <trkpt lat="43.1776860" lon="-1.3511220">
        <ele>201.8</ele>
        <time>2019-07-15T13:40:50Z</time>
      </trkpt>
      <trkpt lat="43.1777890" lon="-1.3510390">
        <ele>201.2</ele>
        <time>2019-07-15T13:40:52Z</time>
      </trkpt>
      <trkpt lat="43.1778400" lon="-1.3508980">
        <ele>200.7</ele>
        <time>2019-07-15T13:40:54Z</time>
      </trkpt>
      <trkpt lat="43.1778160" lon="-1.3507360">
        <ele>200.3</ele>
        <time>2019-07-15T13:40:56Z</time>
      </trkpt>
      <trkpt lat="43.1778060" lon="-1.3505880">
        <ele>199.7</ele>
        <time>2019-07-15T13:40:58Z</time>
      </trkpt>
      <trkpt lat="43.1777110" lon="-1.3504810">
        <ele>198.9</ele>
        <time>2019-07-15T13:41:00Z</time>
      </trkpt>
      <trkpt lat="43.1776420" lon="-1.3503910">
        <ele>198.2</ele>
        <time>2019-07-15T13:41:02Z</time>
      </trkpt>
      <trkpt lat="43.1775320" lon="-1.3503590">
        <ele>197.3</ele>
        <time>2019-07-15T13:41:04Z</time>
      </trkpt>
      <trkpt lat="43.1774050" lon="-1.3503670">
        <ele>196.3</ele>
        <time>2019-07-15T13:41:06Z</time>
      </trkpt>
      <trkpt lat="43.1772940" lon="-1.3504000">
        <ele>195.4</ele>
        <time>2019-07-15T13:41:08Z</time>
      </trkpt>
      <trkpt lat="43.1771880" lon="-1.3503850">
        <ele>194.6</ele>
        <time>2019-07-15T13:41:10Z</time>
      </trkpt>
      <trkpt lat="43.1771060" lon="-1.3502920">
        <ele>194.0</ele>
        <time>2019-07-15T13:41:12Z</time>
      </trkpt>
      <trkpt lat="43.1770410" lon="-1.3501750">
        <ele>193.4</ele>
        <time>2019-07-15T13:41:14Z</time>
      </trkpt>
      <trkpt lat="43.1769910" lon="-1.3500190">
        <ele>192.7</ele>
        <time>2019-07-15T13:41:16Z</time>
      </trkpt>
      <trkpt lat="43.1769330" lon="-1.3498480">
        <ele>192.0</ele>
        <time>2019-07-15T13:41:18Z</time>
      </trkpt>
      <trkpt lat="43.1768700" lon="-1.3496870">
        <ele>191.0</ele>
        <time>2019-07-15T13:41:20Z</time>
      </trkpt>
      <trkpt lat="43.1767910" lon="-1.3495350">
        <ele>189.7</ele>
        <time>2019-07-15T13:41:22Z</time>
      </trkpt>
      <trkpt lat="43.1766930" lon="-1.3494010">
        <ele>188.2</ele>
        <time>2019-07-15T13:41:24Z</time>
      </trkpt>
      <trkpt lat="43.1765890" lon="-1.3493220">
        <ele>186.4</ele>
        <time>2019-07-15T13:41:26Z</time>
      </trkpt>
      <trkpt lat="43.1764710" lon="-1.3492980">
        <ele>184.7</ele>
        <time>2019-07-15T13:41:28Z</time>
      </trkpt>
      <trkpt lat="43.1763590" lon="-1.3493190">
        <ele>183.1</ele>
        <time>2019-07-15T13:41:30Z</time>
      </trkpt>
      <trkpt lat="43.1762490" lon="-1.3493680">
        <ele>181.6</ele>
        <time>2019-07-15T13:41:32Z</time>
      </trkpt>
      <trkpt lat="43.1761450" lon="-1.3494190">
        <ele>180.6</ele>
        <time>2019-07-15T13:41:34Z</time>
      </trkpt>
      <trkpt lat="43.1760260" lon="-1.3494760">
        <ele>179.9</ele>
        <time>2019-07-15T13:41:36Z</time>
      </trkpt>
      <trkpt lat="43.1759070" lon="-1.3495400">
        <ele>179.4</ele>
        <time>2019-07-15T13:41:38Z</time>
      </trkpt>
      <trkpt lat="43.1758010" lon="-1.3496280">
        <ele>178.7</ele>
        <time>2019-07-15T13:41:40Z</time>
      </trkpt>
      <trkpt lat="43.1756970" lon="-1.3497440">
        <ele>178.1</ele>
        <time>2019-07-15T13:41:42Z</time>
      </trkpt>
      <trkpt lat="43.1755950" lon="-1.3498650">
        <ele>177.4</ele>
        <time>2019-07-15T13:41:44Z</time>
      </trkpt>
      <trkpt lat="43.1754940" lon="-1.3499880">
        <ele>176.9</ele>
        <time>2019-07-15T13:41:46Z</time>
      </trkpt>
      <trkpt lat="43.1753950" lon="-1.3500760">
        <ele>176.1</ele>
        <time>2019-07-15T13:41:48Z</time>
      </trkpt>
      <trkpt lat="43.1752900" lon="-1.3500970">
        <ele>174.9</ele>
        <time>2019-07-15T13:41:50Z</time>
      </trkpt>
      <trkpt lat="43.1751910" lon="-1.3500390">
        <ele>173.5</ele>
        <time>2019-07-15T13:41:52Z</time>
      </trkpt>
      <trkpt lat="43.1751230" lon="-1.3499300">
        <ele>172.4</ele>
        <time>2019-07-15T13:41:54Z</time>
      </trkpt>
      <trkpt lat="43.1751130" lon="-1.3498020">
        <ele>171.5</ele>
        <time>2019-07-15T13:41:56Z</time>
      </trkpt>
      <trkpt lat="43.1751650" lon="-1.3496820">
        <ele>171.3</ele>
        <time>2019-07-15T13:41:58Z</time>
      </trkpt>
      <trkpt lat="43.1752400" lon="-1.3495780">
        <ele>171.4</ele>
        <time>2019-07-15T13:42:00Z</time>
      </trkpt>
      <trkpt lat="43.1753230" lon="-1.3494810">
        <ele>171.4</ele>
        <time>2019-07-15T13:42:02Z</time>
      </trkpt>
      <trkpt lat="43.1754150" lon="-1.3493700">
        <ele>171.4</ele>
        <time>2019-07-15T13:42:04Z</time>
      </trkpt>
      <trkpt lat="43.1755100" lon="-1.3492600">
        <ele>171.4</ele>
        <time>2019-07-15T13:42:06Z</time>
      </trkpt>
      <trkpt lat="43.1756010" lon="-1.3491380">
        <ele>171.0</ele>
        <time>2019-07-15T13:42:08Z</time>
      </trkpt>
      <trkpt lat="43.1756830" lon="-1.3489960">
        <ele>170.1</ele>
        <time>2019-07-15T13:42:10Z</time>
      </trkpt>
      <trkpt lat="43.1757560" lon="-1.3488470">
        <ele>169.2</ele>
        <time>2019-07-15T13:42:12Z</time>
      </trkpt>
      <trkpt lat="43.1758240" lon="-1.3486860">
        <ele>168.5</ele>
        <time>2019-07-15T13:42:14Z</time>
      </trkpt>
      <trkpt lat="43.1758670" lon="-1.3485230">
        <ele>167.9</ele>
        <time>2019-07-15T13:42:16Z</time>
      </trkpt>
      <trkpt lat="43.1758670" lon="-1.3483690">
        <ele>167.3</ele>
        <time>2019-07-15T13:42:18Z</time>
      </trkpt>
      <trkpt lat="43.1758420" lon="-1.3482290">
        <ele>166.8</ele>
        <time>2019-07-15T13:42:20Z</time>
      </trkpt>
      <trkpt lat="43.1757710" lon="-1.3480900">
        <ele>166.3</ele>
        <time>2019-07-15T13:42:23Z</time>
      </trkpt>
      <trkpt lat="43.1756860" lon="-1.3479710">
        <ele>165.0</ele>
        <time>2019-07-15T13:42:26Z</time>
      </trkpt>
      <trkpt lat="43.1755970" lon="-1.3478730">
        <ele>163.2</ele>
        <time>2019-07-15T13:42:29Z</time>
      </trkpt>
      <trkpt lat="43.1755060" lon="-1.3477750">
        <ele>161.5</ele>
        <time>2019-07-15T13:42:32Z</time>
      </trkpt>
      <trkpt lat="43.1754140" lon="-1.3476670">
        <ele>160.1</ele>
        <time>2019-07-15T13:42:35Z</time>
      </trkpt>
      <trkpt lat="43.1753220" lon="-1.3475690">
        <ele>160.6</ele>
        <time>2019-07-15T13:42:38Z</time>
      </trkpt>
      <trkpt lat="43.1752300" lon="-1.3474960">
        <ele>161.0</ele>
        <time>2019-07-15T13:42:41Z</time>
      </trkpt>
      <trkpt lat="43.1751450" lon="-1.3474220">
        <ele>161.4</ele>
        <time>2019-07-15T13:42:45Z</time>
      </trkpt>
      <trkpt lat="43.1751160" lon="-1.3472900">
        <ele>161.8</ele>
        <time>2019-07-15T13:42:49Z</time>
      </trkpt>
      <trkpt lat="43.1751750" lon="-1.3471790">
        <ele>161.8</ele>
        <time>2019-07-15T13:42:53Z</time>
      </trkpt>
      <trkpt lat="43.1752540" lon="-1.3470690">
        <ele>161.7</ele>
        <time>2019-07-15T13:42:57Z</time>
      </trkpt>
      <trkpt lat="43.1753230" lon="-1.3469450">
        <ele>161.5</ele>
        <time>2019-07-15T13:43:01Z</time>
      </trkpt>
      <trkpt lat="43.1753930" lon="-1.3468160">
        <ele>161.3</ele>
        <time>2019-07-15T13:43:05Z</time>
      </trkpt>
      <trkpt lat="43.1754530" lon="-1.3467160">
        <ele>161.4</ele>
        <time>2019-07-15T13:43:08Z</time>
      </trkpt>
      <trkpt lat="43.1755140" lon="-1.3466070">
        <ele>161.5</ele>
        <time>2019-07-15T13:43:11Z</time>
      </trkpt>
      <trkpt lat="43.1755700" lon="-1.3464920">
        <ele>161.5</ele>
        <time>2019-07-15T13:43:14Z</time>
      </trkpt>
      <trkpt lat="43.1756250" lon="-1.3463890">
        <ele>161.3</ele>
        <time>2019-07-15T13:43:17Z</time>
      </trkpt>
      <trkpt lat="43.1756840" lon="-1.3462520">
        <ele>160.9</ele>
        <time>2019-07-15T13:43:21Z</time>
      </trkpt>
      <trkpt lat="43.1757340" lon="-1.3461110">
        <ele>160.4</ele>
        <time>2019-07-15T13:43:25Z</time>
      </trkpt>
      <trkpt lat="43.1757830" lon="-1.3459780">
        <ele>160.2</ele>
        <time>2019-07-15T13:43:29Z</time>
      </trkpt>
      <trkpt lat="43.1758520" lon="-1.3458460">
        <ele>160.0</ele>
        <time>2019-07-15T13:43:33Z</time>
      </trkpt>
      <trkpt lat="43.1759050" lon="-1.3457330">
        <ele>159.9</ele>
        <time>2019-07-15T13:43:36Z</time>
      </trkpt>
      <trkpt lat="43.1759600" lon="-1.3456000">
        <ele>159.7</ele>
        <time>2019-07-15T13:43:39Z</time>
      </trkpt>
      <trkpt lat="43.1760140" lon="-1.3454670">
        <ele>159.4</ele>
        <time>2019-07-15T13:43:42Z</time>
      </trkpt>
      <trkpt lat="43.1760550" lon="-1.3453240">
        <ele>159.3</ele>
        <time>2019-07-15T13:43:45Z</time>
      </trkpt>
      <trkpt lat="43.1760860" lon="-1.3451810">
        <ele>159.2</ele>
        <time>2019-07-15T13:43:48Z</time>
      </trkpt>
      <trkpt lat="43.1761100" lon="-1.3450370">
        <ele>159.1</ele>
        <time>2019-07-15T13:43:51Z</time>
      </trkpt>
      <trkpt lat="43.1761120" lon="-1.3448880">
        <ele>158.9</ele>
        <time>2019-07-15T13:43:54Z</time>
      </trkpt>
      <trkpt lat="43.1761120" lon="-1.3447300">
        <ele>158.6</ele>
        <time>2019-07-15T13:43:57Z</time>
      </trkpt>
      <trkpt lat="43.1761180" lon="-1.3445810">
        <ele>158.4</ele>
        <time>2019-07-15T13:44:00Z</time>
      </trkpt>
      <trkpt lat="43.1761220" lon="-1.3444220">
        <ele>158.3</ele>
        <time>2019-07-15T13:44:03Z</time>
      </trkpt>
      <trkpt lat="43.1761280" lon="-1.3442740">
        <ele>158.2</ele>
        <time>2019-07-15T13:44:06Z</time>
      </trkpt>
      <trkpt lat="43.1761340" lon="-1.3441410">
        <ele>158.2</ele>
        <time>2019-07-15T13:44:09Z</time>
      </trkpt>
      <trkpt lat="43.1761460" lon="-1.3439990">
        <ele>158.2</ele>
        <time>2019-07-15T13:44:12Z</time>
      </trkpt>
      <trkpt lat="43.1761470" lon="-1.3438530">
        <ele>158.2</ele>
        <time>2019-07-15T13:44:15Z</time>
      </trkpt>
      <trkpt lat="43.1761710" lon="-1.3437100">
        <ele>158.2</ele>
        <time>2019-07-15T13:44:18Z</time>
      </trkpt>
      <trkpt lat="43.1761910" lon="-1.3435660">
        <ele>158.3</ele>
        <time>2019-07-15T13:44:21Z</time>
      </trkpt>
      <trkpt lat="43.1762220" lon="-1.3434270">
        <ele>158.4</ele>
        <time>2019-07-15T13:44:24Z</time>
      </trkpt>
      <trkpt lat="43.1762750" lon="-1.3432930">
        <ele>158.3</ele>
        <time>2019-07-15T13:44:27Z</time>
      </trkpt>
      <trkpt lat="43.1763250" lon="-1.3431490">
        <ele>158.2</ele>
        <time>2019-07-15T13:44:30Z</time>
      </trkpt>
      <trkpt lat="43.1763730" lon="-1.3430000">
        <ele>158.1</ele>
        <time>2019-07-15T13:44:33Z</time>
      </trkpt>
      <trkpt lat="43.1764250" lon="-1.3428510">
        <ele>158.0</ele>
        <time>2019-07-15T13:44:36Z</time>
      </trkpt>
      <trkpt lat="43.1764820" lon="-1.3427070">
        <ele>157.8</ele>
        <time>2019-07-15T13:44:39Z</time>
      </trkpt>
      <trkpt lat="43.1765270" lon="-1.3425630">
        <ele>157.6</ele>
        <time>2019-07-15T13:44:42Z</time>
      </trkpt>
      <trkpt lat="43.1765610" lon="-1.3424310">
        <ele>157.5</ele>
        <time>2019-07-15T13:44:45Z</time>
      </trkpt>
      <trkpt lat="43.1765990" lon="-1.3423120">
        <ele>157.3</ele>
        <time>2019-07-15T13:44:48Z</time>
      </trkpt>
      <trkpt lat="43.1766250" lon="-1.3421850">
        <ele>157.2</ele>
        <time>2019-07-15T13:44:51Z</time>
      </trkpt>
      <trkpt lat="43.1766730" lon="-1.3420730">
        <ele>157.2</ele>
        <time>2019-07-15T13:44:54Z</time>
      </trkpt>
      <trkpt lat="43.1767480" lon="-1.3419880">
        <ele>157.2</ele>
        <time>2019-07-15T13:44:57Z</time>
      </trkpt>
      <trkpt lat="43.1768600" lon="-1.3419300">
        <ele>157.3</ele>
        <time>2019-07-15T13:45:01Z</time>
      </trkpt>
      <trkpt lat="43.1769510" lon="-1.3418980">
        <ele>157.5</ele>
        <time>2019-07-15T13:45:04Z</time>
      </trkpt>
      <trkpt lat="43.1770550" lon="-1.3419110">
        <ele>157.3</ele>
        <time>2019-07-15T13:45:07Z</time>
      </trkpt>
      <trkpt lat="43.1771440" lon="-1.3419320">
        <ele>157.1</ele>
        <time>2019-07-15T13:45:10Z</time>
      </trkpt>
      <trkpt lat="43.1772570" lon="-1.3419440">
        <ele>156.8</ele>
        <time>2019-07-15T13:45:14Z</time>
      </trkpt>
      <trkpt lat="43.1773480" lon="-1.3419660">
        <ele>156.6</ele>
        <time>2019-07-15T13:45:18Z</time>
      </trkpt>
      <trkpt lat="43.1774690" lon="-1.3419860">
        <ele>156.3</ele>
        <time>2019-07-15T13:45:22Z</time>
      </trkpt>
      <trkpt lat="43.1775860" lon="-1.3419830">
        <ele>156.1</ele>
        <time>2019-07-15T13:45:25Z</time>
      </trkpt>
      <trkpt lat="43.1777050" lon="-1.3419430">
        <ele>155.8</ele>
        <time>2019-07-15T13:45:28Z</time>
      </trkpt>
      <trkpt lat="43.1778000" lon="-1.3418630">
        <ele>155.7</ele>
        <time>2019-07-15T13:45:31Z</time>
      </trkpt>
      <trkpt lat="43.1778700" lon="-1.3417720">
        <ele>155.6</ele>
        <time>2019-07-15T13:45:34Z</time>
      </trkpt>
      <trkpt lat="43.1779560" lon="-1.3416690">
        <ele>155.5</ele>
        <time>2019-07-15T13:45:38Z</time>
      </trkpt>
      <trkpt lat="43.1780250" lon="-1.3415890">
        <ele>155.4</ele>
        <time>2019-07-15T13:45:41Z</time>
      </trkpt>
      <trkpt lat="43.1781040" lon="-1.3415040">
        <ele>155.3</ele>
        <time>2019-07-15T13:45:44Z</time>
      </trkpt>
      <trkpt lat="43.1781740" lon="-1.3414160">
        <ele>155.1</ele>
        <time>2019-07-15T13:45:47Z</time>
      </trkpt>
      <trkpt lat="43.1782470" lon="-1.3413270">
        <ele>155.0</ele>
        <time>2019-07-15T13:45:50Z</time>
      </trkpt>
      <trkpt lat="43.1783150" lon="-1.3412250">
        <ele>154.9</ele>
        <time>2019-07-15T13:45:53Z</time>
      </trkpt>
      <trkpt lat="43.1783890" lon="-1.3411280">
        <ele>154.8</ele>
        <time>2019-07-15T13:45:56Z</time>
      </trkpt>
      <trkpt lat="43.1784660" lon="-1.3410360">
        <ele>154.6</ele>
        <time>2019-07-15T13:45:59Z</time>
      </trkpt>
      <trkpt lat="43.1785430" lon="-1.3409330">
        <ele>154.7</ele>
        <time>2019-07-15T13:46:02Z</time>
      </trkpt>
      <trkpt lat="43.1786220" lon="-1.3408400">
        <ele>154.8</ele>
        <time>2019-07-15T13:46:05Z</time>
      </trkpt>
      <trkpt lat="43.1786970" lon="-1.3407580">
        <ele>155.4</ele>
        <time>2019-07-15T13:46:08Z</time>
      </trkpt>
      <trkpt lat="43.1787660" lon="-1.3406750">
        <ele>155.8</ele>
        <time>2019-07-15T13:46:11Z</time>
      </trkpt>
      <trkpt lat="43.1788320" lon="-1.3405890">
        <ele>156.1</ele>
        <time>2019-07-15T13:46:14Z</time>
      </trkpt>
      <trkpt lat="43.1789200" lon="-1.3404820">
        <ele>156.1</ele>
        <time>2019-07-15T13:46:18Z</time>
      </trkpt>
      <trkpt lat="43.1789710" lon="-1.3403670">
        <ele>155.9</ele>
        <time>2019-07-15T13:46:22Z</time>
      </trkpt>
      <trkpt lat="43.1789790" lon="-1.3403320">
        <ele>155.8</ele>
        <time>2019-07-15T13:46:28Z</time>
      </trkpt>
      <trkpt lat="43.1791040" lon="-1.3402770">
        <ele>155.6</ele>
        <time>2019-07-15T13:52:34Z</time>
      </trkpt>
      <trkpt lat="43.1791940" lon="-1.3402070">
        <ele>155.6</ele>
        <time>2019-07-15T13:52:38Z</time>
      </trkpt>
      <trkpt lat="43.1792790" lon="-1.3401610">
        <ele>155.5</ele>
        <time>2019-07-15T13:52:41Z</time>
      </trkpt>
      <trkpt lat="43.1793680" lon="-1.3400970">
        <ele>155.4</ele>
        <time>2019-07-15T13:52:44Z</time>
      </trkpt>
      <trkpt lat="43.1794470" lon="-1.3400220">
        <ele>155.3</ele>
        <time>2019-07-15T13:52:47Z</time>
      </trkpt>
      <trkpt lat="43.1795170" lon="-1.3399290">
        <ele>155.2</ele>
        <time>2019-07-15T13:52:51Z</time>
      </trkpt>
      <trkpt lat="43.1796180" lon="-1.3398510">
        <ele>155.1</ele>
        <time>2019-07-15T13:52:54Z</time>
      </trkpt>
      <trkpt lat="43.1797210" lon="-1.3397770">
        <ele>155.0</ele>
        <time>2019-07-15T13:52:57Z</time>
      </trkpt>
      <trkpt lat="43.1798240" lon="-1.3396990">
        <ele>154.9</ele>
        <time>2019-07-15T13:53:00Z</time>
      </trkpt>
      <trkpt lat="43.1799210" lon="-1.3396170">
        <ele>154.7</ele>
        <time>2019-07-15T13:53:03Z</time>
      </trkpt>
      <trkpt lat="43.1800210" lon="-1.3395200">
        <ele>154.5</ele>
        <time>2019-07-15T13:53:06Z</time>
      </trkpt>
      <trkpt lat="43.1801300" lon="-1.3394180">
        <ele>154.3</ele>
        <time>2019-07-15T13:53:09Z</time>
      </trkpt>
      <trkpt lat="43.1802080" lon="-1.3393470">
        <ele>154.2</ele>
        <time>2019-07-15T13:53:11Z</time>
      </trkpt>
      <trkpt lat="43.1802910" lon="-1.3392740">
        <ele>154.2</ele>
        <time>2019-07-15T13:53:13Z</time>
      </trkpt>
      <trkpt lat="43.1803740" lon="-1.3392190">
        <ele>154.1</ele>
        <time>2019-07-15T13:53:15Z</time>
      </trkpt>
      <trkpt lat="43.1804600" lon="-1.3391630">
        <ele>154.1</ele>
        <time>2019-07-15T13:53:17Z</time>
      </trkpt>
      <trkpt lat="43.1805460" lon="-1.3390960">
        <ele>154.1</ele>
        <time>2019-07-15T13:53:19Z</time>
      </trkpt>
      <trkpt lat="43.1806310" lon="-1.3390270">
        <ele>154.2</ele>
        <time>2019-07-15T13:53:21Z</time>
      </trkpt>
      <trkpt lat="43.1807370" lon="-1.3389150">
        <ele>154.2</ele>
        <time>2019-07-15T13:53:24Z</time>
      </trkpt>
      <trkpt lat="43.1808060" lon="-1.3387710">
        <ele>154.2</ele>
        <time>2019-07-15T13:53:27Z</time>
      </trkpt>
      <trkpt lat="43.1808730" lon="-1.3386320">
        <ele>154.3</ele>
        <time>2019-07-15T13:53:30Z</time>
      </trkpt>
      <trkpt lat="43.1809350" lon="-1.3384940">
        <ele>154.3</ele>
        <time>2019-07-15T13:53:33Z</time>
      </trkpt>
      <trkpt lat="43.1809970" lon="-1.3383640">
        <ele>154.3</ele>
        <time>2019-07-15T13:53:36Z</time>
      </trkpt>
      <trkpt lat="43.1810500" lon="-1.3382360">
        <ele>154.2</ele>
        <time>2019-07-15T13:53:39Z</time>
      </trkpt>
      <trkpt lat="43.1811070" lon="-1.3381290">
        <ele>154.1</ele>
        <time>2019-07-15T13:53:42Z</time>
      </trkpt>
      <trkpt lat="43.1811710" lon="-1.3380400">
        <ele>154.0</ele>
        <time>2019-07-15T13:53:45Z</time>
      </trkpt>
      <trkpt lat="43.1812400" lon="-1.3379440">
        <ele>153.9</ele>
        <time>2019-07-15T13:53:48Z</time>
      </trkpt>
      <trkpt lat="43.1813180" lon="-1.3378460">
        <ele>153.9</ele>
        <time>2019-07-15T13:53:51Z</time>
      </trkpt>
      <trkpt lat="43.1813940" lon="-1.3377740">
        <ele>153.8</ele>
        <time>2019-07-15T13:53:53Z</time>
      </trkpt>
      <trkpt lat="43.1814690" lon="-1.3376990">
        <ele>153.7</ele>
        <time>2019-07-15T13:53:55Z</time>
      </trkpt>
      <trkpt lat="43.1815510" lon="-1.3376240">
        <ele>153.6</ele>
        <time>2019-07-15T13:53:57Z</time>
      </trkpt>
      <trkpt lat="43.1816300" lon="-1.3375580">
        <ele>153.3</ele>
        <time>2019-07-15T13:53:59Z</time>
      </trkpt>
      <trkpt lat="43.1817150" lon="-1.3374560">
        <ele>152.9</ele>
        <time>2019-07-15T13:54:02Z</time>
      </trkpt>
      <trkpt lat="43.1818080" lon="-1.3373620">
        <ele>152.4</ele>
        <time>2019-07-15T13:54:05Z</time>
      </trkpt>
      <trkpt lat="43.1818970" lon="-1.3372730">
        <ele>152.0</ele>
        <time>2019-07-15T13:54:08Z</time>
      </trkpt>
      <trkpt lat="43.1819830" lon="-1.3371860">
        <ele>151.6</ele>
        <time>2019-07-15T13:54:11Z</time>
      </trkpt>
      <trkpt lat="43.1820760" lon="-1.3371120">
        <ele>151.2</ele>
        <time>2019-07-15T13:54:14Z</time>
      </trkpt>
      <trkpt lat="43.1821720" lon="-1.3370450">
        <ele>150.7</ele>
        <time>2019-07-15T13:54:17Z</time>
      </trkpt>
      <trkpt lat="43.1822640" lon="-1.3369840">
        <ele>150.3</ele>
        <time>2019-07-15T13:54:20Z</time>
      </trkpt>
      <trkpt lat="43.1823500" lon="-1.3369180">
        <ele>150.0</ele>
        <time>2019-07-15T13:54:23Z</time>
      </trkpt>
      <trkpt lat="43.1824180" lon="-1.3368280">
        <ele>150.0</ele>
        <time>2019-07-15T13:54:26Z</time>
      </trkpt>
      <trkpt lat="43.1824550" lon="-1.3367130">
        <ele>149.7</ele>
        <time>2019-07-15T13:54:29Z</time>
      </trkpt>
      <trkpt lat="43.1824670" lon="-1.3365900">
        <ele>149.5</ele>
        <time>2019-07-15T13:54:32Z</time>
      </trkpt>
      <trkpt lat="43.1824560" lon="-1.3364620">
        <ele>149.3</ele>
        <time>2019-07-15T13:54:35Z</time>
      </trkpt>
      <trkpt lat="43.1824510" lon="-1.3363320">
        <ele>149.3</ele>
        <time>2019-07-15T13:54:38Z</time>
      </trkpt>
      <trkpt lat="43.1824490" lon="-1.3362050">
        <ele>149.5</ele>
        <time>2019-07-15T13:54:41Z</time>
      </trkpt>
      <trkpt lat="43.1824400" lon="-1.3360690">
        <ele>149.7</ele>
        <time>2019-07-15T13:54:44Z</time>
      </trkpt>
      <trkpt lat="43.1824270" lon="-1.3359250">
        <ele>149.9</ele>
        <time>2019-07-15T13:54:47Z</time>
      </trkpt>
      <trkpt lat="43.1824290" lon="-1.3357790">
        <ele>150.1</ele>
        <time>2019-07-15T13:54:50Z</time>
      </trkpt>
      <trkpt lat="43.1824260" lon="-1.3356320">
        <ele>150.2</ele>
        <time>2019-07-15T13:54:53Z</time>
      </trkpt>
      <trkpt lat="43.1824300" lon="-1.3354840">
        <ele>150.3</ele>
        <time>2019-07-15T13:54:56Z</time>
      </trkpt>
      <trkpt lat="43.1824180" lon="-1.3353330">
        <ele>150.3</ele>
        <time>2019-07-15T13:54:59Z</time>
      </trkpt>
      <trkpt lat="43.1824630" lon="-1.3351820">
        <ele>150.0</ele>
        <time>2019-07-15T13:55:02Z</time>
      </trkpt>
      <trkpt lat="43.1825310" lon="-1.3350470">
        <ele>149.8</ele>
        <time>2019-07-15T13:55:05Z</time>
      </trkpt>
      <trkpt lat="43.1825960" lon="-1.3349160">
        <ele>149.6</ele>
        <time>2019-07-15T13:55:08Z</time>
      </trkpt>
      <trkpt lat="43.1826740" lon="-1.3348000">
        <ele>149.4</ele>
        <time>2019-07-15T13:55:11Z</time>
      </trkpt>
      <trkpt lat="43.1827550" lon="-1.3346830">
        <ele>149.3</ele>
        <time>2019-07-15T13:55:14Z</time>
      </trkpt>
      <trkpt lat="43.1828410" lon="-1.3345620">
        <ele>149.1</ele>
        <time>2019-07-15T13:55:17Z</time>
      </trkpt>
      <trkpt lat="43.1829280" lon="-1.3344380">
        <ele>148.8</ele>
        <time>2019-07-15T13:55:20Z</time>
      </trkpt>
      <trkpt lat="43.1830160" lon="-1.3343210">
        <ele>148.7</ele>
        <time>2019-07-15T13:55:23Z</time>
      </trkpt>
      <trkpt lat="43.1831040" lon="-1.3341990">
        <ele>148.6</ele>
        <time>2019-07-15T13:55:26Z</time>
      </trkpt>
      <trkpt lat="43.1831950" lon="-1.3340800">
        <ele>148.5</ele>
        <time>2019-07-15T13:55:29Z</time>
      </trkpt>
      <trkpt lat="43.1832790" lon="-1.3339670">
        <ele>148.4</ele>
        <time>2019-07-15T13:55:32Z</time>
      </trkpt>
      <trkpt lat="43.1833610" lon="-1.3338530">
        <ele>148.3</ele>
        <time>2019-07-15T13:55:35Z</time>
      </trkpt>
      <trkpt lat="43.1834390" lon="-1.3337370">
        <ele>148.3</ele>
        <time>2019-07-15T13:55:38Z</time>
      </trkpt>
      <trkpt lat="43.1835160" lon="-1.3336190">
        <ele>148.3</ele>
        <time>2019-07-15T13:55:41Z</time>
      </trkpt>
      <trkpt lat="43.1835920" lon="-1.3335010">
        <ele>148.4</ele>
        <time>2019-07-15T13:55:44Z</time>
      </trkpt>
      <trkpt lat="43.1836530" lon="-1.3333670">
        <ele>148.4</ele>
        <time>2019-07-15T13:55:47Z</time>
      </trkpt>
      <trkpt lat="43.1837000" lon="-1.3332170">
        <ele>148.4</ele>
        <time>2019-07-15T13:55:50Z</time>
      </trkpt>
      <trkpt lat="43.1837480" lon="-1.3330650">
        <ele>148.4</ele>
        <time>2019-07-15T13:55:53Z</time>
      </trkpt>
      <trkpt lat="43.1837960" lon="-1.3329100">
        <ele>148.4</ele>
        <time>2019-07-15T13:55:56Z</time>
      </trkpt>
      <trkpt lat="43.1838410" lon="-1.3327490">
        <ele>148.6</ele>
        <time>2019-07-15T13:55:59Z</time>
      </trkpt>
      <trkpt lat="43.1838870" lon="-1.3325920">
        <ele>148.9</ele>
        <time>2019-07-15T13:56:02Z</time>
      </trkpt>
      <trkpt lat="43.1839320" lon="-1.3324350">
        <ele>149.2</ele>
        <time>2019-07-15T13:56:05Z</time>
      </trkpt>
      <trkpt lat="43.1839710" lon="-1.3322840">
        <ele>149.6</ele>
        <time>2019-07-15T13:56:08Z</time>
      </trkpt>
      <trkpt lat="43.1840050" lon="-1.3321240">
        <ele>149.9</ele>
        <time>2019-07-15T13:56:11Z</time>
      </trkpt>
      <trkpt lat="43.1840300" lon="-1.3319600">
        <ele>150.2</ele>
        <time>2019-07-15T13:56:14Z</time>
      </trkpt>
      <trkpt lat="43.1840320" lon="-1.3318020">
        <ele>150.3</ele>
        <time>2019-07-15T13:56:17Z</time>
      </trkpt>
      <trkpt lat="43.1840230" lon="-1.3316520">
        <ele>150.4</ele>
        <time>2019-07-15T13:56:20Z</time>
      </trkpt>
      <trkpt lat="43.1840150" lon="-1.3315130">
        <ele>150.4</ele>
        <time>2019-07-15T13:56:23Z</time>
      </trkpt>
      <trkpt lat="43.1840060" lon="-1.3313880">
        <ele>150.4</ele>
        <time>2019-07-15T13:56:26Z</time>
      </trkpt>
      <trkpt lat="43.1839980" lon="-1.3312350">
        <ele>150.5</ele>
        <time>2019-07-15T13:56:30Z</time>
      </trkpt>
      <trkpt lat="43.1839850" lon="-1.3310870">
        <ele>150.7</ele>
        <time>2019-07-15T13:56:34Z</time>
      </trkpt>
      <trkpt lat="43.1839760" lon="-1.3309440">
        <ele>151.1</ele>
        <time>2019-07-15T13:56:38Z</time>
      </trkpt>
      <trkpt lat="43.1839730" lon="-1.3307940">
        <ele>151.7</ele>
        <time>2019-07-15T13:56:42Z</time>
      </trkpt>
      <trkpt lat="43.1839760" lon="-1.3306370">
        <ele>152.3</ele>
        <time>2019-07-15T13:56:46Z</time>
      </trkpt>
      <trkpt lat="43.1839810" lon="-1.3304950">
        <ele>153.1</ele>
        <time>2019-07-15T13:56:50Z</time>
      </trkpt>
      <trkpt lat="43.1839820" lon="-1.3303600">
        <ele>153.6</ele>
        <time>2019-07-15T13:56:55Z</time>
      </trkpt>
      <trkpt lat="43.1839900" lon="-1.3303060">
        <ele>153.9</ele>
        <time>2019-07-15T13:57:01Z</time>
      </trkpt>
      <trkpt lat="43.1840390" lon="-1.3301930">
        <ele>154.4</ele>
        <time>2019-07-15T13:57:08Z</time>
      </trkpt>
      <trkpt lat="43.1840890" lon="-1.3300670">
        <ele>155.0</ele>
        <time>2019-07-15T13:57:14Z</time>
      </trkpt>
      <trkpt lat="43.1841430" lon="-1.3299460">
        <ele>155.7</ele>
        <time>2019-07-15T13:57:20Z</time>
      </trkpt>
      <trkpt lat="43.1841860" lon="-1.3298360">
        <ele>156.1</ele>
        <time>2019-07-15T13:57:26Z</time>
      </trkpt>
      <trkpt lat="43.1842100" lon="-1.3297050">
        <ele>156.6</ele>
        <time>2019-07-15T13:57:33Z</time>
      </trkpt>
      <trkpt lat="43.1842190" lon="-1.3295620">
        <ele>157.3</ele>
        <time>2019-07-15T13:57:40Z</time>
      </trkpt>
      <trkpt lat="43.1842120" lon="-1.3294300">
        <ele>157.8</ele>
        <time>2019-07-15T13:57:47Z</time>
      </trkpt>
      <trkpt lat="43.1841840" lon="-1.3293050">
        <ele>158.4</ele>
        <time>2019-07-15T13:57:54Z</time>
      </trkpt>
      <trkpt lat="43.1841460" lon="-1.3291810">
        <ele>158.9</ele>
        <time>2019-07-15T13:58:01Z</time>
      </trkpt>
      <trkpt lat="43.1841100" lon="-1.3290620">
        <ele>159.5</ele>
        <time>2019-07-15T13:58:08Z</time>
      </trkpt>
      <trkpt lat="43.1840710" lon="-1.3289350">
        <ele>160.0</ele>
        <time>2019-07-15T13:58:15Z</time>
      </trkpt>
      <trkpt lat="43.1840370" lon="-1.3288080">
        <ele>160.4</ele>
        <time>2019-07-15T13:58:22Z</time>
      </trkpt>
      <trkpt lat="43.1839800" lon="-1.3286940">
        <ele>161.0</ele>
        <time>2019-07-15T13:58:29Z</time>
      </trkpt>
      <trkpt lat="43.1839220" lon="-1.3285800">
        <ele>161.5</ele>
        <time>2019-07-15T13:58:36Z</time>
      </trkpt>
      <trkpt lat="43.1838520" lon="-1.3284930">
        <ele>162.0</ele>
        <time>2019-07-15T13:58:42Z</time>
      </trkpt>
      <trkpt lat="43.1837700" lon="-1.3284210">
        <ele>162.5</ele>
        <time>2019-07-15T13:58:48Z</time>
      </trkpt>
      <trkpt lat="43.1836950" lon="-1.3283510">
        <ele>163.0</ele>
        <time>2019-07-15T13:58:53Z</time>
      </trkpt>
      <trkpt lat="43.1836110" lon="-1.3282650">
        <ele>163.5</ele>
        <time>2019-07-15T13:58:59Z</time>
      </trkpt>
      <trkpt lat="43.1835250" lon="-1.3281990">
        <ele>163.9</ele>
        <time>2019-07-15T13:59:05Z</time>
      </trkpt>
      <trkpt lat="43.1834350" lon="-1.3281170">
        <ele>164.4</ele>
        <time>2019-07-15T13:59:11Z</time>
      </trkpt>
      <trkpt lat="43.1833560" lon="-1.3280380">
        <ele>164.8</ele>
        <time>2019-07-15T13:59:16Z</time>
      </trkpt>
      <trkpt lat="43.1832730" lon="-1.3279550">
        <ele>165.2</ele>
        <time>2019-07-15T13:59:22Z</time>
      </trkpt>
      <trkpt lat="43.1831970" lon="-1.3278790">
        <ele>165.6</ele>
        <time>2019-07-15T13:59:28Z</time>
      </trkpt>
      <trkpt lat="43.1831060" lon="-1.3277990">
        <ele>166.0</ele>
        <time>2019-07-15T13:59:34Z</time>
      </trkpt>
      <trkpt lat="43.1830150" lon="-1.3277280">
        <ele>166.4</ele>
        <time>2019-07-15T13:59:40Z</time>
      </trkpt>
      <trkpt lat="43.1829390" lon="-1.3276570">
        <ele>166.8</ele>
        <time>2019-07-15T13:59:45Z</time>
      </trkpt>
      <trkpt lat="43.1828540" lon="-1.3275740">
        <ele>167.2</ele>
        <time>2019-07-15T13:59:51Z</time>
      </trkpt>
      <trkpt lat="43.1827780" lon="-1.3275000">
        <ele>167.5</ele>
        <time>2019-07-15T13:59:56Z</time>
      </trkpt>
      <trkpt lat="43.1826890" lon="-1.3274170">
        <ele>168.0</ele>
        <time>2019-07-15T14:00:02Z</time>
      </trkpt>
      <trkpt lat="43.1826060" lon="-1.3273460">
        <ele>168.4</ele>
        <time>2019-07-15T14:00:07Z</time>
      </trkpt>
      <trkpt lat="43.1825270" lon="-1.3272740">
        <ele>168.9</ele>
        <time>2019-07-15T14:00:12Z</time>
      </trkpt>
      <trkpt lat="43.1824440" lon="-1.3271990">
        <ele>169.4</ele>
        <time>2019-07-15T14:00:17Z</time>
      </trkpt>
      <trkpt lat="43.1823570" lon="-1.3271230">
        <ele>170.0</ele>
        <time>2019-07-15T14:00:22Z</time>
      </trkpt>
      <trkpt lat="43.1822800" lon="-1.3270490">
        <ele>170.5</ele>
        <time>2019-07-15T14:00:27Z</time>
      </trkpt>
      <trkpt lat="43.1822020" lon="-1.3269670">
        <ele>171.1</ele>
        <time>2019-07-15T14:00:32Z</time>
      </trkpt>
      <trkpt lat="43.1821370" lon="-1.3268580">
        <ele>171.7</ele>
        <time>2019-07-15T14:00:37Z</time>
      </trkpt>
      <trkpt lat="43.1820690" lon="-1.3267580">
        <ele>172.1</ele>
        <time>2019-07-15T14:00:42Z</time>
      </trkpt>
      <trkpt lat="43.1820160" lon="-1.3266200">
        <ele>172.7</ele>
        <time>2019-07-15T14:00:47Z</time>
      </trkpt>
      <trkpt lat="43.1819730" lon="-1.3264750">
        <ele>173.2</ele>
        <time>2019-07-15T14:00:51Z</time>
      </trkpt>
      <trkpt lat="43.1819410" lon="-1.3263230">
        <ele>173.7</ele>
        <time>2019-07-15T14:00:55Z</time>
      </trkpt>
      <trkpt lat="43.1819170" lon="-1.3261760">
        <ele>173.9</ele>
        <time>2019-07-15T14:00:58Z</time>
      </trkpt>
      <trkpt lat="43.1818910" lon="-1.3259980">
        <ele>174.1</ele>
        <time>2019-07-15T14:01:01Z</time>
      </trkpt>
      <trkpt lat="43.1818710" lon="-1.3258640">
        <ele>174.2</ele>
        <time>2019-07-15T14:01:03Z</time>
      </trkpt>
      <trkpt lat="43.1818450" lon="-1.3257110">
        <ele>174.2</ele>
        <time>2019-07-15T14:01:05Z</time>
      </trkpt>
      <trkpt lat="43.1818140" lon="-1.3255500">
        <ele>174.2</ele>
        <time>2019-07-15T14:01:07Z</time>
      </trkpt>
      <trkpt lat="43.1817820" lon="-1.3253910">
        <ele>174.1</ele>
        <time>2019-07-15T14:01:09Z</time>
      </trkpt>
      <trkpt lat="43.1817400" lon="-1.3252240">
        <ele>173.9</ele>
        <time>2019-07-15T14:01:11Z</time>
      </trkpt>
      <trkpt lat="43.1816850" lon="-1.3250500">
        <ele>173.6</ele>
        <time>2019-07-15T14:01:13Z</time>
      </trkpt>
      <trkpt lat="43.1816260" lon="-1.3248750">
        <ele>173.3</ele>
        <time>2019-07-15T14:01:15Z</time>
      </trkpt>
      <trkpt lat="43.1815580" lon="-1.3246950">
        <ele>172.8</ele>
        <time>2019-07-15T14:01:17Z</time>
      </trkpt>
      <trkpt lat="43.1814850" lon="-1.3244990">
        <ele>172.2</ele>
        <time>2019-07-15T14:01:19Z</time>
      </trkpt>
      <trkpt lat="43.1814070" lon="-1.3242940">
        <ele>171.5</ele>
        <time>2019-07-15T14:01:21Z</time>
      </trkpt>
      <trkpt lat="43.1813290" lon="-1.3240930">
        <ele>170.8</ele>
        <time>2019-07-15T14:01:23Z</time>
      </trkpt>
      <trkpt lat="43.1812510" lon="-1.3238940">
        <ele>170.1</ele>
        <time>2019-07-15T14:01:25Z</time>
      </trkpt>
      <trkpt lat="43.1811760" lon="-1.3236980">
        <ele>169.5</ele>
        <time>2019-07-15T14:01:27Z</time>
      </trkpt>
      <trkpt lat="43.1811040" lon="-1.3235080">
        <ele>168.9</ele>
        <time>2019-07-15T14:01:29Z</time>
      </trkpt>
      <trkpt lat="43.1810440" lon="-1.3233220">
        <ele>168.3</ele>
        <time>2019-07-15T14:01:31Z</time>
      </trkpt>
      <trkpt lat="43.1809980" lon="-1.3231460">
        <ele>167.8</ele>
        <time>2019-07-15T14:01:33Z</time>
      </trkpt>
      <trkpt lat="43.1809740" lon="-1.3229780">
        <ele>167.3</ele>
        <time>2019-07-15T14:01:35Z</time>
      </trkpt>
      <trkpt lat="43.1809710" lon="-1.3228230">
        <ele>167.0</ele>
        <time>2019-07-15T14:01:37Z</time>
      </trkpt>
      <trkpt lat="43.1809940" lon="-1.3226800">
        <ele>166.7</ele>
        <time>2019-07-15T14:01:39Z</time>
      </trkpt>
      <trkpt lat="43.1810430" lon="-1.3225560">
        <ele>166.5</ele>
        <time>2019-07-15T14:01:41Z</time>
      </trkpt>
      <trkpt lat="43.1811030" lon="-1.3224470">
        <ele>166.5</ele>
        <time>2019-07-15T14:01:43Z</time>
      </trkpt>
      <trkpt lat="43.1811740" lon="-1.3223600">
        <ele>166.7</ele>
        <time>2019-07-15T14:01:45Z</time>
      </trkpt>
      <trkpt lat="43.1812670" lon="-1.3222570">
        <ele>167.0</ele>
        <time>2019-07-15T14:01:48Z</time>
      </trkpt>
      <trkpt lat="43.1813440" lon="-1.3221860">
        <ele>167.4</ele>
        <time>2019-07-15T14:01:51Z</time>
      </trkpt>
      <trkpt lat="43.1814150" lon="-1.3220910">
        <ele>168.0</ele>
        <time>2019-07-15T14:01:55Z</time>
      </trkpt>
      <trkpt lat="43.1814920" lon="-1.3220120">
        <ele>168.6</ele>
        <time>2019-07-15T14:02:00Z</time>
      </trkpt>
      <trkpt lat="43.1815670" lon="-1.3219210">
        <ele>169.2</ele>
        <time>2019-07-15T14:02:07Z</time>
      </trkpt>
      <trkpt lat="43.1816300" lon="-1.3218320">
        <ele>169.8</ele>
        <time>2019-07-15T14:02:14Z</time>
      </trkpt>
      <trkpt lat="43.1816820" lon="-1.3217300">
        <ele>170.7</ele>
        <time>2019-07-15T14:02:21Z</time>
      </trkpt>
      <trkpt lat="43.1817290" lon="-1.3216180">
        <ele>171.8</ele>
        <time>2019-07-15T14:02:29Z</time>
      </trkpt>
      <trkpt lat="43.1817670" lon="-1.3214880">
        <ele>173.0</ele>
        <time>2019-07-15T14:02:38Z</time>
      </trkpt>
      <trkpt lat="43.1817900" lon="-1.3213650">
        <ele>174.2</ele>
        <time>2019-07-15T14:02:46Z</time>
      </trkpt>
      <trkpt lat="43.1818120" lon="-1.3212350">
        <ele>175.4</ele>
        <time>2019-07-15T14:02:54Z</time>
      </trkpt>
      <trkpt lat="43.1818260" lon="-1.3210960">
        <ele>176.7</ele>
        <time>2019-07-15T14:03:02Z</time>
      </trkpt>
      <trkpt lat="43.1818220" lon="-1.3209680">
        <ele>177.8</ele>
        <time>2019-07-15T14:03:09Z</time>
      </trkpt>
      <trkpt lat="43.1818080" lon="-1.3208380">
        <ele>178.9</ele>
        <time>2019-07-15T14:03:16Z</time>
      </trkpt>
      <trkpt lat="43.1817820" lon="-1.3206980">
        <ele>179.9</ele>
        <time>2019-07-15T14:03:23Z</time>
      </trkpt>
      <trkpt lat="43.1817330" lon="-1.3205700">
        <ele>180.8</ele>
        <time>2019-07-15T14:03:29Z</time>
      </trkpt>
      <trkpt lat="43.1816840" lon="-1.3204480">
        <ele>181.6</ele>
        <time>2019-07-15T14:03:34Z</time>
      </trkpt>
      <trkpt lat="43.1815980" lon="-1.3203530">
        <ele>182.2</ele>
        <time>2019-07-15T14:03:38Z</time>
      </trkpt>
      <trkpt lat="43.1815180" lon="-1.3202720">
        <ele>182.6</ele>
        <time>2019-07-15T14:03:41Z</time>
      </trkpt>
      <trkpt lat="43.1814220" lon="-1.3201760">
        <ele>182.8</ele>
        <time>2019-07-15T14:03:44Z</time>
      </trkpt>
      <trkpt lat="43.1813490" lon="-1.3201040">
        <ele>182.8</ele>
        <time>2019-07-15T14:03:46Z</time>
      </trkpt>
      <trkpt lat="43.1812700" lon="-1.3200340">
        <ele>182.8</ele>
        <time>2019-07-15T14:03:48Z</time>
      </trkpt>
      <trkpt lat="43.1811900" lon="-1.3199680">
        <ele>182.8</ele>
        <time>2019-07-15T14:03:50Z</time>
      </trkpt>
      <trkpt lat="43.1810760" lon="-1.3198670">
        <ele>182.8</ele>
        <time>2019-07-15T14:03:53Z</time>
      </trkpt>
      <trkpt lat="43.1809740" lon="-1.3197800">
        <ele>182.9</ele>
        <time>2019-07-15T14:03:56Z</time>
      </trkpt>
      <trkpt lat="43.1808840" lon="-1.3197010">
        <ele>182.9</ele>
        <time>2019-07-15T14:03:59Z</time>
      </trkpt>
      <trkpt lat="43.1808010" lon="-1.3195980">
        <ele>183.0</ele>
        <time>2019-07-15T14:04:03Z</time>
      </trkpt>
      <trkpt lat="43.1807330" lon="-1.3194790">
        <ele>183.1</ele>
        <time>2019-07-15T14:04:07Z</time>
      </trkpt>
      <trkpt lat="43.1806820" lon="-1.3193630">
        <ele>183.1</ele>
        <time>2019-07-15T14:04:11Z</time>
      </trkpt>
      <trkpt lat="43.1806430" lon="-1.3192500">
        <ele>183.2</ele>
        <time>2019-07-15T14:04:15Z</time>
      </trkpt>
      <trkpt lat="43.1806170" lon="-1.3191210">
        <ele>183.3</ele>
        <time>2019-07-15T14:04:19Z</time>
      </trkpt>
      <trkpt lat="43.1805940" lon="-1.3189910">
        <ele>183.4</ele>
        <time>2019-07-15T14:04:23Z</time>
      </trkpt>
      <trkpt lat="43.1805790" lon="-1.3188610">
        <ele>183.4</ele>
        <time>2019-07-15T14:04:27Z</time>
      </trkpt>
      <trkpt lat="43.1805530" lon="-1.3187400">
        <ele>183.5</ele>
        <time>2019-07-15T14:04:31Z</time>
      </trkpt>
      <trkpt lat="43.1805090" lon="-1.3186300">
        <ele>183.8</ele>
        <time>2019-07-15T14:04:35Z</time>
      </trkpt>
      <trkpt lat="43.1804260" lon="-1.3185350">
        <ele>184.4</ele>
        <time>2019-07-15T14:04:40Z</time>
      </trkpt>
      <trkpt lat="43.1803330" lon="-1.3184460">
        <ele>185.0</ele>
        <time>2019-07-15T14:04:45Z</time>
      </trkpt>
      <trkpt lat="43.1802420" lon="-1.3183680">
        <ele>185.7</ele>
        <time>2019-07-15T14:04:50Z</time>
      </trkpt>
      <trkpt lat="43.1801530" lon="-1.3183010">
        <ele>186.4</ele>
        <time>2019-07-15T14:04:55Z</time>
      </trkpt>
      <trkpt lat="43.1800700" lon="-1.3182340">
        <ele>187.2</ele>
        <time>2019-07-15T14:05:00Z</time>
      </trkpt>
      <trkpt lat="43.1799950" lon="-1.3181490">
        <ele>188.0</ele>
        <time>2019-07-15T14:05:06Z</time>
      </trkpt>
      <trkpt lat="43.1799280" lon="-1.3180640">
        <ele>188.9</ele>
        <time>2019-07-15T14:05:12Z</time>
      </trkpt>
      <trkpt lat="43.1798650" lon="-1.3179700">
        <ele>189.8</ele>
        <time>2019-07-15T14:05:18Z</time>
      </trkpt>
      <trkpt lat="43.1798010" lon="-1.3178620">
        <ele>191.0</ele>
        <time>2019-07-15T14:05:25Z</time>
      </trkpt>
      <trkpt lat="43.1797450" lon="-1.3177510">
        <ele>192.0</ele>
        <time>2019-07-15T14:05:32Z</time>
      </trkpt>
      <trkpt lat="43.1797000" lon="-1.3176280">
        <ele>193.1</ele>
        <time>2019-07-15T14:05:40Z</time>
      </trkpt>
      <trkpt lat="43.1796510" lon="-1.3175080">
        <ele>194.0</ele>
        <time>2019-07-15T14:05:47Z</time>
      </trkpt>
      <trkpt lat="43.1796020" lon="-1.3173950">
        <ele>194.8</ele>
        <time>2019-07-15T14:05:54Z</time>
      </trkpt>
      <trkpt lat="43.1795550" lon="-1.3172810">
        <ele>195.5</ele>
        <time>2019-07-15T14:06:01Z</time>
      </trkpt>
      <trkpt lat="43.1795030" lon="-1.3171670">
        <ele>196.2</ele>
        <time>2019-07-15T14:06:08Z</time>
      </trkpt>
      <trkpt lat="43.1794540" lon="-1.3170540">
        <ele>196.8</ele>
        <time>2019-07-15T14:06:15Z</time>
      </trkpt>
      <trkpt lat="43.1794080" lon="-1.3169460">
        <ele>197.3</ele>
        <time>2019-07-15T14:06:22Z</time>
      </trkpt>
      <trkpt lat="43.1793590" lon="-1.3168390">
        <ele>197.8</ele>
        <time>2019-07-15T14:06:29Z</time>
      </trkpt>
      <trkpt lat="43.1793140" lon="-1.3167210">
        <ele>198.3</ele>
        <time>2019-07-15T14:06:36Z</time>
      </trkpt>
      <trkpt lat="43.1792610" lon="-1.3166140">
        <ele>198.7</ele>
        <time>2019-07-15T14:06:43Z</time>
      </trkpt>
      <trkpt lat="43.1792090" lon="-1.3165070">
        <ele>199.1</ele>
        <time>2019-07-15T14:06:50Z</time>
      </trkpt>
      <trkpt lat="43.1791590" lon="-1.3163800">
        <ele>199.5</ele>
        <time>2019-07-15T14:06:57Z</time>
      </trkpt>
      <trkpt lat="43.1791170" lon="-1.3162590">
        <ele>199.9</ele>
        <time>2019-07-15T14:07:03Z</time>
      </trkpt>
      <trkpt lat="43.1790810" lon="-1.3161390">
        <ele>200.3</ele>
        <time>2019-07-15T14:07:09Z</time>
      </trkpt>
      <trkpt lat="43.1790570" lon="-1.3160090">
        <ele>200.7</ele>
        <time>2019-07-15T14:07:16Z</time>
      </trkpt>
      <trkpt lat="43.1790340" lon="-1.3158860">
        <ele>201.1</ele>
        <time>2019-07-15T14:07:23Z</time>
      </trkpt>
      <trkpt lat="43.1790160" lon="-1.3157500">
        <ele>201.7</ele>
        <time>2019-07-15T14:07:30Z</time>
      </trkpt>
      <trkpt lat="43.1789960" lon="-1.3156230">
        <ele>202.3</ele>
        <time>2019-07-15T14:07:36Z</time>
      </trkpt>
      <trkpt lat="43.1789840" lon="-1.3154830">
        <ele>203.0</ele>
        <time>2019-07-15T14:07:42Z</time>
      </trkpt>
      <trkpt lat="43.1789780" lon="-1.3153560">
        <ele>203.7</ele>
        <time>2019-07-15T14:07:47Z</time>
      </trkpt>
      <trkpt lat="43.1789630" lon="-1.3152160">
        <ele>204.6</ele>
        <time>2019-07-15T14:07:53Z</time>
      </trkpt>
      <trkpt lat="43.1789360" lon="-1.3150860">
        <ele>205.6</ele>
        <time>2019-07-15T14:07:59Z</time>
      </trkpt>
      <trkpt lat="43.1789230" lon="-1.3149410">
        <ele>206.8</ele>
        <time>2019-07-15T14:08:05Z</time>
      </trkpt>
      <trkpt lat="43.1788920" lon="-1.3148110">
        <ele>207.9</ele>
        <time>2019-07-15T14:08:11Z</time>
      </trkpt>
      <trkpt lat="43.1788550" lon="-1.3146800">
        <ele>209.0</ele>
        <time>2019-07-15T14:08:16Z</time>
      </trkpt>
      <trkpt lat="43.1788230" lon="-1.3145550">
        <ele>210.0</ele>
        <time>2019-07-15T14:08:21Z</time>
      </trkpt>
      <trkpt lat="43.1787910" lon="-1.3144250">
        <ele>210.9</ele>
        <time>2019-07-15T14:08:26Z</time>
      </trkpt>
      <trkpt lat="43.1787600" lon="-1.3143060">
        <ele>211.7</ele>
        <time>2019-07-15T14:08:31Z</time>
      </trkpt>
      <trkpt lat="43.1787010" lon="-1.3142050">
        <ele>212.5</ele>
        <time>2019-07-15T14:08:36Z</time>
      </trkpt>
      <trkpt lat="43.1786580" lon="-1.3140950">
        <ele>213.1</ele>
        <time>2019-07-15T14:08:41Z</time>
      </trkpt>
      <trkpt lat="43.1786110" lon="-1.3139770">
        <ele>213.8</ele>
        <time>2019-07-15T14:08:47Z</time>
      </trkpt>
      <trkpt lat="43.1785480" lon="-1.3138690">
        <ele>214.4</ele>
        <time>2019-07-15T14:08:53Z</time>
      </trkpt>
      <trkpt lat="43.1785140" lon="-1.3137310">
        <ele>215.1</ele>
        <time>2019-07-15T14:09:00Z</time>
      </trkpt>
      <trkpt lat="43.1784720" lon="-1.3136070">
        <ele>216.1</ele>
        <time>2019-07-15T14:09:07Z</time>
      </trkpt>
      <trkpt lat="43.1784280" lon="-1.3134880">
        <ele>216.8</ele>
        <time>2019-07-15T14:09:13Z</time>
      </trkpt>
      <trkpt lat="43.1783880" lon="-1.3133770">
        <ele>217.5</ele>
        <time>2019-07-15T14:09:20Z</time>
      </trkpt>
      <trkpt lat="43.1783580" lon="-1.3132560">
        <ele>218.3</ele>
        <time>2019-07-15T14:09:28Z</time>
      </trkpt>
      <trkpt lat="43.1783180" lon="-1.3131340">
        <ele>219.5</ele>
        <time>2019-07-15T14:09:36Z</time>
      </trkpt>
      <trkpt lat="43.1782940" lon="-1.3129980">
        <ele>220.7</ele>
        <time>2019-07-15T14:09:45Z</time>
      </trkpt>
      <trkpt lat="43.1782760" lon="-1.3128750">
        <ele>221.5</ele>
        <time>2019-07-15T14:09:52Z</time>
      </trkpt>
      <trkpt lat="43.1782430" lon="-1.3127510">
        <ele>222.6</ele>
        <time>2019-07-15T14:09:59Z</time>
      </trkpt>
      <trkpt lat="43.1782260" lon="-1.3126130">
        <ele>223.3</ele>
        <time>2019-07-15T14:10:06Z</time>
      </trkpt>
      <trkpt lat="43.1782030" lon="-1.3124740">
        <ele>224.0</ele>
        <time>2019-07-15T14:10:13Z</time>
      </trkpt>
      <trkpt lat="43.1781950" lon="-1.3123420">
        <ele>224.6</ele>
        <time>2019-07-15T14:10:19Z</time>
      </trkpt>
      <trkpt lat="43.1781890" lon="-1.3121990">
        <ele>225.1</ele>
        <time>2019-07-15T14:10:25Z</time>
      </trkpt>
      <trkpt lat="43.1781830" lon="-1.3120750">
        <ele>225.6</ele>
        <time>2019-07-15T14:10:30Z</time>
      </trkpt>
      <trkpt lat="43.1781840" lon="-1.3119390">
        <ele>226.0</ele>
        <time>2019-07-15T14:10:35Z</time>
      </trkpt>
      <trkpt lat="43.1781880" lon="-1.3118130">
        <ele>226.3</ele>
        <time>2019-07-15T14:10:40Z</time>
      </trkpt>
      <trkpt lat="43.1781960" lon="-1.3116730">
        <ele>226.7</ele>
        <time>2019-07-15T14:10:45Z</time>
      </trkpt>
      <trkpt lat="43.1781980" lon="-1.3115330">
        <ele>227.2</ele>
        <time>2019-07-15T14:10:51Z</time>
      </trkpt>
      <trkpt lat="43.1782110" lon="-1.3113910">
        <ele>227.8</ele>
        <time>2019-07-15T14:10:57Z</time>
      </trkpt>
      <trkpt lat="43.1782320" lon="-1.3112480">
        <ele>228.4</ele>
        <time>2019-07-15T14:11:03Z</time>
      </trkpt>
      <trkpt lat="43.1782500" lon="-1.3111120">
        <ele>228.9</ele>
        <time>2019-07-15T14:11:09Z</time>
      </trkpt>
      <trkpt lat="43.1782640" lon="-1.3109750">
        <ele>229.4</ele>
        <time>2019-07-15T14:11:16Z</time>
      </trkpt>
      <trkpt lat="43.1782930" lon="-1.3108510">
        <ele>230.1</ele>
        <time>2019-07-15T14:11:22Z</time>
      </trkpt>
      <trkpt lat="43.1783080" lon="-1.3107240">
        <ele>230.9</ele>
        <time>2019-07-15T14:11:28Z</time>
      </trkpt>
      <trkpt lat="43.1783280" lon="-1.3105950">
        <ele>231.7</ele>
        <time>2019-07-15T14:11:35Z</time>
      </trkpt>
      <trkpt lat="43.1783470" lon="-1.3104640">
        <ele>232.5</ele>
        <time>2019-07-15T14:11:42Z</time>
      </trkpt>
      <trkpt lat="43.1783780" lon="-1.3103370">
        <ele>233.2</ele>
        <time>2019-07-15T14:11:49Z</time>
      </trkpt>
      <trkpt lat="43.1784150" lon="-1.3102140">
        <ele>233.8</ele>
        <time>2019-07-15T14:11:55Z</time>
      </trkpt>
      <trkpt lat="43.1784500" lon="-1.3100920">
        <ele>234.4</ele>
        <time>2019-07-15T14:12:01Z</time>
      </trkpt>
      <trkpt lat="43.1784920" lon="-1.3099630">
        <ele>235.2</ele>
        <time>2019-07-15T14:12:08Z</time>
      </trkpt>
      <trkpt lat="43.1785290" lon="-1.3098370">
        <ele>235.9</ele>
        <time>2019-07-15T14:12:15Z</time>
      </trkpt>
      <trkpt lat="43.1785670" lon="-1.3097190">
        <ele>236.4</ele>
        <time>2019-07-15T14:12:21Z</time>
      </trkpt>
      <trkpt lat="43.1786010" lon="-1.3096010">
        <ele>236.9</ele>
        <time>2019-07-15T14:12:27Z</time>
      </trkpt>
      <trkpt lat="43.1786310" lon="-1.3094680">
        <ele>237.7</ele>
        <time>2019-07-15T14:12:34Z</time>
      </trkpt>
      <trkpt lat="43.1786560" lon="-1.3093300">
        <ele>238.4</ele>
        <time>2019-07-15T14:12:41Z</time>
      </trkpt>
      <trkpt lat="43.1786860" lon="-1.3091980">
        <ele>239.2</ele>
        <time>2019-07-15T14:12:48Z</time>
      </trkpt>
      <trkpt lat="43.1787110" lon="-1.3090680">
        <ele>240.0</ele>
        <time>2019-07-15T14:12:55Z</time>
      </trkpt>
      <trkpt lat="43.1787180" lon="-1.3089390">
        <ele>240.7</ele>
        <time>2019-07-15T14:13:02Z</time>
      </trkpt>
      <trkpt lat="43.1787350" lon="-1.3088030">
        <ele>241.5</ele>
        <time>2019-07-15T14:13:09Z</time>
      </trkpt>
      <trkpt lat="43.1787500" lon="-1.3086740">
        <ele>242.3</ele>
        <time>2019-07-15T14:13:16Z</time>
      </trkpt>
      <trkpt lat="43.1787690" lon="-1.3085370">
        <ele>243.4</ele>
        <time>2019-07-15T14:13:23Z</time>
      </trkpt>
      <trkpt lat="43.1787880" lon="-1.3084010">
        <ele>244.4</ele>
        <time>2019-07-15T14:13:30Z</time>
      </trkpt>
      <trkpt lat="43.1788090" lon="-1.3082640">
        <ele>245.4</ele>
        <time>2019-07-15T14:13:37Z</time>
      </trkpt>
      <trkpt lat="43.1788360" lon="-1.3081420">
        <ele>246.3</ele>
        <time>2019-07-15T14:13:43Z</time>
      </trkpt>
      <trkpt lat="43.1788730" lon="-1.3080030">
        <ele>247.2</ele>
        <time>2019-07-15T14:13:50Z</time>
      </trkpt>
      <trkpt lat="43.1789070" lon="-1.3078680">
        <ele>248.1</ele>
        <time>2019-07-15T14:13:57Z</time>
      </trkpt>
      <trkpt lat="43.1789480" lon="-1.3077410">
        <ele>249.0</ele>
        <time>2019-07-15T14:14:04Z</time>
      </trkpt>
      <trkpt lat="43.1789880" lon="-1.3076290">
        <ele>249.8</ele>
        <time>2019-07-15T14:14:10Z</time>
      </trkpt>
      <trkpt lat="43.1790260" lon="-1.3075080">
        <ele>250.6</ele>
        <time>2019-07-15T14:14:17Z</time>
      </trkpt>
      <trkpt lat="43.1790580" lon="-1.3073920">
        <ele>251.4</ele>
        <time>2019-07-15T14:14:23Z</time>
      </trkpt>
      <trkpt lat="43.1790910" lon="-1.3072710">
        <ele>252.2</ele>
        <time>2019-07-15T14:14:29Z</time>
      </trkpt>
      <trkpt lat="43.1791370" lon="-1.3071600">
        <ele>252.7</ele>
        <time>2019-07-15T14:14:35Z</time>
      </trkpt>
      <trkpt lat="43.1791810" lon="-1.3070370">
        <ele>253.1</ele>
        <time>2019-07-15T14:14:41Z</time>
      </trkpt>
      <trkpt lat="43.1791860" lon="-1.3068890">
        <ele>253.4</ele>
        <time>2019-07-15T14:14:47Z</time>
      </trkpt>
      <trkpt lat="43.1791820" lon="-1.3067440">
        <ele>253.3</ele>
        <time>2019-07-15T14:14:52Z</time>
      </trkpt>
      <trkpt lat="43.1791900" lon="-1.3066210">
        <ele>253.1</ele>
        <time>2019-07-15T14:14:56Z</time>
      </trkpt>
      <trkpt lat="43.1791900" lon="-1.3064930">
        <ele>252.8</ele>
        <time>2019-07-15T14:15:00Z</time>
      </trkpt>
      <trkpt lat="43.1791810" lon="-1.3063350">
        <ele>252.5</ele>
        <time>2019-07-15T14:15:04Z</time>
      </trkpt>
      <trkpt lat="43.1791610" lon="-1.3061790">
        <ele>252.1</ele>
        <time>2019-07-15T14:15:07Z</time>
      </trkpt>
      <trkpt lat="43.1791470" lon="-1.3060560">
        <ele>251.6</ele>
        <time>2019-07-15T14:15:09Z</time>
      </trkpt>
      <trkpt lat="43.1791260" lon="-1.3059250">
        <ele>250.9</ele>
        <time>2019-07-15T14:15:11Z</time>
      </trkpt>
      <trkpt lat="43.1791040" lon="-1.3057810">
        <ele>250.2</ele>
        <time>2019-07-15T14:15:13Z</time>
      </trkpt>
      <trkpt lat="43.1790760" lon="-1.3056180">
        <ele>249.4</ele>
        <time>2019-07-15T14:15:15Z</time>
      </trkpt>
      <trkpt lat="43.1790460" lon="-1.3054330">
        <ele>248.4</ele>
        <time>2019-07-15T14:15:17Z</time>
      </trkpt>
      <trkpt lat="43.1790080" lon="-1.3052330">
        <ele>247.0</ele>
        <time>2019-07-15T14:15:19Z</time>
      </trkpt>
      <trkpt lat="43.1789680" lon="-1.3050050">
        <ele>245.4</ele>
        <time>2019-07-15T14:15:21Z</time>
      </trkpt>
      <trkpt lat="43.1789250" lon="-1.3047680">
        <ele>244.0</ele>
        <time>2019-07-15T14:15:23Z</time>
      </trkpt>
      <trkpt lat="43.1788890" lon="-1.3045360">
        <ele>242.5</ele>
        <time>2019-07-15T14:15:25Z</time>
      </trkpt>
      <trkpt lat="43.1788510" lon="-1.3043010">
        <ele>241.0</ele>
        <time>2019-07-15T14:15:27Z</time>
      </trkpt>
      <trkpt lat="43.1788180" lon="-1.3040730">
        <ele>238.9</ele>
        <time>2019-07-15T14:15:29Z</time>
      </trkpt>
      <trkpt lat="43.1787780" lon="-1.3038430">
        <ele>237.0</ele>
        <time>2019-07-15T14:15:31Z</time>
      </trkpt>
      <trkpt lat="43.1787290" lon="-1.3036140">
        <ele>235.3</ele>
        <time>2019-07-15T14:15:33Z</time>
      </trkpt>
      <trkpt lat="43.1786760" lon="-1.3033910">
        <ele>233.4</ele>
        <time>2019-07-15T14:15:35Z</time>
      </trkpt>
      <trkpt lat="43.1786140" lon="-1.3031780">
        <ele>231.7</ele>
        <time>2019-07-15T14:15:37Z</time>
      </trkpt>
      <trkpt lat="43.1785480" lon="-1.3029740">
        <ele>230.6</ele>
        <time>2019-07-15T14:15:39Z</time>
      </trkpt>
      <trkpt lat="43.1784760" lon="-1.3027910">
        <ele>229.7</ele>
        <time>2019-07-15T14:15:41Z</time>
      </trkpt>
      <trkpt lat="43.1783980" lon="-1.3026160">
        <ele>228.7</ele>
        <time>2019-07-15T14:15:43Z</time>
      </trkpt>
      <trkpt lat="43.1783150" lon="-1.3024300">
        <ele>228.0</ele>
        <time>2019-07-15T14:15:45Z</time>
      </trkpt>
      <trkpt lat="43.1782370" lon="-1.3022500">
        <ele>227.4</ele>
        <time>2019-07-15T14:15:47Z</time>
      </trkpt>
      <trkpt lat="43.1781640" lon="-1.3020840">
        <ele>226.7</ele>
        <time>2019-07-15T14:15:49Z</time>
      </trkpt>
      <trkpt lat="43.1780810" lon="-1.3019250">
        <ele>225.8</ele>
        <time>2019-07-15T14:15:51Z</time>
      </trkpt>
      <trkpt lat="43.1779760" lon="-1.3017750">
        <ele>225.0</ele>
        <time>2019-07-15T14:15:53Z</time>
      </trkpt>
      <trkpt lat="43.1778420" lon="-1.3016480">
        <ele>224.3</ele>
        <time>2019-07-15T14:15:55Z</time>
      </trkpt>
      <trkpt lat="43.1776850" lon="-1.3015610">
        <ele>223.6</ele>
        <time>2019-07-15T14:15:57Z</time>
      </trkpt>
      <trkpt lat="43.1775250" lon="-1.3015040">
        <ele>222.9</ele>
        <time>2019-07-15T14:15:59Z</time>
      </trkpt>
      <trkpt lat="43.1773570" lon="-1.3014800">
        <ele>222.2</ele>
        <time>2019-07-15T14:16:01Z</time>
      </trkpt>
      <trkpt lat="43.1771870" lon="-1.3014970">
        <ele>221.6</ele>
        <time>2019-07-15T14:16:03Z</time>
      </trkpt>
      <trkpt lat="43.1770190" lon="-1.3015480">
        <ele>221.0</ele>
        <time>2019-07-15T14:16:05Z</time>
      </trkpt>
      <trkpt lat="43.1768640" lon="-1.3015530">
        <ele>220.4</ele>
        <time>2019-07-15T14:16:07Z</time>
      </trkpt>
      <trkpt lat="43.1767170" lon="-1.3014960">
        <ele>219.6</ele>
        <time>2019-07-15T14:16:09Z</time>
      </trkpt>
      <trkpt lat="43.1765800" lon="-1.3014000">
        <ele>218.7</ele>
        <time>2019-07-15T14:16:11Z</time>
      </trkpt>
      <trkpt lat="43.1764690" lon="-1.3012570">
        <ele>217.8</ele>
        <time>2019-07-15T14:16:13Z</time>
      </trkpt>
      <trkpt lat="43.1763940" lon="-1.3010930">
        <ele>217.0</ele>
        <time>2019-07-15T14:16:15Z</time>
      </trkpt>
      <trkpt lat="43.1763500" lon="-1.3009150">
        <ele>216.2</ele>
        <time>2019-07-15T14:16:17Z</time>
      </trkpt>
      <trkpt lat="43.1763240" lon="-1.3007200">
        <ele>215.4</ele>
        <time>2019-07-15T14:16:19Z</time>
      </trkpt>
      <trkpt lat="43.1763250" lon="-1.3005190">
        <ele>214.6</ele>
        <time>2019-07-15T14:16:21Z</time>
      </trkpt>
      <trkpt lat="43.1763460" lon="-1.3003140">
        <ele>213.8</ele>
        <time>2019-07-15T14:16:23Z</time>
      </trkpt>
      <trkpt lat="43.1763660" lon="-1.3001120">
        <ele>213.0</ele>
        <time>2019-07-15T14:16:25Z</time>
      </trkpt>
      <trkpt lat="43.1763990" lon="-1.2999110">
        <ele>212.3</ele>
        <time>2019-07-15T14:16:27Z</time>
      </trkpt>
      <trkpt lat="43.1764170" lon="-1.2997090">
        <ele>211.7</ele>
        <time>2019-07-15T14:16:29Z</time>
      </trkpt>
      <trkpt lat="43.1764420" lon="-1.2995140">
        <ele>211.1</ele>
        <time>2019-07-15T14:16:31Z</time>
      </trkpt>
      <trkpt lat="43.1764680" lon="-1.2993180">
        <ele>210.5</ele>
        <time>2019-07-15T14:16:33Z</time>
      </trkpt>
      <trkpt lat="43.1764910" lon="-1.2991200">
        <ele>209.9</ele>
        <time>2019-07-15T14:16:35Z</time>
      </trkpt>
      <trkpt lat="43.1765200" lon="-1.2989290">
        <ele>209.5</ele>
        <time>2019-07-15T14:16:37Z</time>
      </trkpt>
      <trkpt lat="43.1765440" lon="-1.2987440">
        <ele>209.0</ele>
        <time>2019-07-15T14:16:39Z</time>
      </trkpt>
      <trkpt lat="43.1765580" lon="-1.2985520">
        <ele>208.4</ele>
        <time>2019-07-15T14:16:41Z</time>
      </trkpt>
      <trkpt lat="43.1765640" lon="-1.2983500">
        <ele>207.7</ele>
        <time>2019-07-15T14:16:43Z</time>
      </trkpt>
      <trkpt lat="43.1765590" lon="-1.2981370">
        <ele>207.0</ele>
        <time>2019-07-15T14:16:45Z</time>
      </trkpt>
      <trkpt lat="43.1765440" lon="-1.2979180">
        <ele>206.3</ele>
        <time>2019-07-15T14:16:47Z</time>
      </trkpt>
      <trkpt lat="43.1765180" lon="-1.2976970">
        <ele>205.4</ele>
        <time>2019-07-15T14:16:49Z</time>
      </trkpt>
      <trkpt lat="43.1764730" lon="-1.2974780">
        <ele>204.4</ele>
        <time>2019-07-15T14:16:51Z</time>
      </trkpt>
      <trkpt lat="43.1764060" lon="-1.2972700">
        <ele>203.4</ele>
        <time>2019-07-15T14:16:53Z</time>
      </trkpt>
      <trkpt lat="43.1763310" lon="-1.2970730">
        <ele>202.4</ele>
        <time>2019-07-15T14:16:55Z</time>
      </trkpt>
      <trkpt lat="43.1762660" lon="-1.2968760">
        <ele>201.3</ele>
        <time>2019-07-15T14:16:57Z</time>
      </trkpt>
      <trkpt lat="43.1762130" lon="-1.2966740">
        <ele>200.4</ele>
        <time>2019-07-15T14:16:59Z</time>
      </trkpt>
      <trkpt lat="43.1761750" lon="-1.2964660">
        <ele>199.7</ele>
        <time>2019-07-15T14:17:01Z</time>
      </trkpt>
      <trkpt lat="43.1761420" lon="-1.2962520">
        <ele>199.1</ele>
        <time>2019-07-15T14:17:03Z</time>
      </trkpt>
      <trkpt lat="43.1761130" lon="-1.2960320">
        <ele>198.8</ele>
        <time>2019-07-15T14:17:05Z</time>
      </trkpt>
      <trkpt lat="43.1760930" lon="-1.2958210">
        <ele>198.6</ele>
        <time>2019-07-15T14:17:07Z</time>
      </trkpt>
      <trkpt lat="43.1760680" lon="-1.2956170">
        <ele>198.4</ele>
        <time>2019-07-15T14:17:09Z</time>
      </trkpt>
      <trkpt lat="43.1760420" lon="-1.2954130">
        <ele>198.2</ele>
        <time>2019-07-15T14:17:11Z</time>
      </trkpt>
      <trkpt lat="43.1760210" lon="-1.2952110">
        <ele>197.8</ele>
        <time>2019-07-15T14:17:13Z</time>
      </trkpt>
      <trkpt lat="43.1760000" lon="-1.2950220">
        <ele>197.4</ele>
        <time>2019-07-15T14:17:15Z</time>
      </trkpt>
      <trkpt lat="43.1759820" lon="-1.2948350">
        <ele>196.8</ele>
        <time>2019-07-15T14:17:17Z</time>
      </trkpt>
      <trkpt lat="43.1759670" lon="-1.2946770">
        <ele>196.3</ele>
        <time>2019-07-15T14:17:19Z</time>
      </trkpt>
      <trkpt lat="43.1759430" lon="-1.2945200">
        <ele>195.8</ele>
        <time>2019-07-15T14:17:22Z</time>
      </trkpt>
      <trkpt lat="43.1759320" lon="-1.2943740">
        <ele>195.3</ele>
        <time>2019-07-15T14:17:25Z</time>
      </trkpt>
      <trkpt lat="43.1759120" lon="-1.2942380">
        <ele>194.9</ele>
        <time>2019-07-15T14:17:28Z</time>
      </trkpt>
      <trkpt lat="43.1758900" lon="-1.2941820">
        <ele>194.8</ele>
        <time>2019-07-15T14:17:34Z</time>
      </trkpt>
      <trkpt lat="43.1758630" lon="-1.2940250">
        <ele>194.3</ele>
        <time>2019-07-15T14:18:29Z</time>
      </trkpt>
      <trkpt lat="43.1758440" lon="-1.2938620">
        <ele>193.8</ele>
        <time>2019-07-15T14:18:33Z</time>
      </trkpt>
      <trkpt lat="43.1758300" lon="-1.2937290">
        <ele>193.3</ele>
        <time>2019-07-15T14:18:36Z</time>
      </trkpt>
      <trkpt lat="43.1758160" lon="-1.2935900">
        <ele>192.9</ele>
        <time>2019-07-15T14:18:39Z</time>
      </trkpt>
      <trkpt lat="43.1758000" lon="-1.2934420">
        <ele>192.4</ele>
        <time>2019-07-15T14:18:42Z</time>
      </trkpt>
      <trkpt lat="43.1757880" lon="-1.2932880">
        <ele>192.0</ele>
        <time>2019-07-15T14:18:45Z</time>
      </trkpt>
      <trkpt lat="43.1757740" lon="-1.2931270">
        <ele>191.7</ele>
        <time>2019-07-15T14:18:48Z</time>
      </trkpt>
      <trkpt lat="43.1757560" lon="-1.2929640">
        <ele>191.4</ele>
        <time>2019-07-15T14:18:51Z</time>
      </trkpt>
      <trkpt lat="43.1757430" lon="-1.2927950">
        <ele>191.1</ele>
        <time>2019-07-15T14:18:54Z</time>
      </trkpt>
      <trkpt lat="43.1757170" lon="-1.2926180">
        <ele>190.9</ele>
        <time>2019-07-15T14:18:57Z</time>
      </trkpt>
      <trkpt lat="43.1757050" lon="-1.2924940">
        <ele>190.7</ele>
        <time>2019-07-15T14:18:59Z</time>
      </trkpt>
      <trkpt lat="43.1756940" lon="-1.2923690">
        <ele>190.5</ele>
        <time>2019-07-15T14:19:01Z</time>
      </trkpt>
      <trkpt lat="43.1756850" lon="-1.2922430">
        <ele>190.3</ele>
        <time>2019-07-15T14:19:03Z</time>
      </trkpt>
      <trkpt lat="43.1756770" lon="-1.2921150">
        <ele>190.2</ele>
        <time>2019-07-15T14:19:05Z</time>
      </trkpt>
      <trkpt lat="43.1756620" lon="-1.2919900">
        <ele>190.0</ele>
        <time>2019-07-15T14:19:07Z</time>
      </trkpt>
      <trkpt lat="43.1756470" lon="-1.2918620">
        <ele>189.7</ele>
        <time>2019-07-15T14:19:09Z</time>
      </trkpt>
      <trkpt lat="43.1756390" lon="-1.2917360">
        <ele>189.5</ele>
        <time>2019-07-15T14:19:11Z</time>
      </trkpt>
      <trkpt lat="43.1756220" lon="-1.2916080">
        <ele>189.3</ele>
        <time>2019-07-15T14:19:13Z</time>
      </trkpt>
      <trkpt lat="43.1756090" lon="-1.2914810">
        <ele>189.1</ele>
        <time>2019-07-15T14:19:15Z</time>
      </trkpt>
      <trkpt lat="43.1755950" lon="-1.2913530">
        <ele>189.0</ele>
        <time>2019-07-15T14:19:17Z</time>
      </trkpt>
      <trkpt lat="43.1755810" lon="-1.2912220">
        <ele>188.9</ele>
        <time>2019-07-15T14:19:19Z</time>
      </trkpt>
      <trkpt lat="43.1755680" lon="-1.2910870">
        <ele>188.8</ele>
        <time>2019-07-15T14:19:21Z</time>
      </trkpt>
      <trkpt lat="43.1755530" lon="-1.2909460">
        <ele>188.7</ele>
        <time>2019-07-15T14:19:23Z</time>
      </trkpt>
      <trkpt lat="43.1755340" lon="-1.2907980">
        <ele>188.6</ele>
        <time>2019-07-15T14:19:25Z</time>
      </trkpt>
      <trkpt lat="43.1755180" lon="-1.2906500">
        <ele>188.6</ele>
        <time>2019-07-15T14:19:27Z</time>
      </trkpt>
      <trkpt lat="43.1755020" lon="-1.2905040">
        <ele>188.5</ele>
        <time>2019-07-15T14:19:29Z</time>
      </trkpt>
      <trkpt lat="43.1754860" lon="-1.2903500">
        <ele>188.5</ele>
        <time>2019-07-15T14:19:31Z</time>
      </trkpt>
      <trkpt lat="43.1754700" lon="-1.2901950">
        <ele>188.4</ele>
        <time>2019-07-15T14:19:33Z</time>
      </trkpt>
      <trkpt lat="43.1754570" lon="-1.2900460">
        <ele>188.2</ele>
        <time>2019-07-15T14:19:35Z</time>
      </trkpt>
      <trkpt lat="43.1754450" lon="-1.2898970">
        <ele>188.1</ele>
        <time>2019-07-15T14:19:37Z</time>
      </trkpt>
      <trkpt lat="43.1754310" lon="-1.2897510">
        <ele>187.9</ele>
        <time>2019-07-15T14:19:39Z</time>
      </trkpt>
      <trkpt lat="43.1754140" lon="-1.2896030">
        <ele>187.7</ele>
        <time>2019-07-15T14:19:41Z</time>
      </trkpt>
      <trkpt lat="43.1753990" lon="-1.2894480">
        <ele>187.6</ele>
        <time>2019-07-15T14:19:43Z</time>
      </trkpt>
      <trkpt lat="43.1753820" lon="-1.2892940">
        <ele>187.5</ele>
        <time>2019-07-15T14:19:45Z</time>
      </trkpt>
      <trkpt lat="43.1753660" lon="-1.2891380">
        <ele>187.4</ele>
        <time>2019-07-15T14:19:47Z</time>
      </trkpt>
      <trkpt lat="43.1753490" lon="-1.2889860">
        <ele>187.4</ele>
        <time>2019-07-15T14:19:49Z</time>
      </trkpt>
      <trkpt lat="43.1753330" lon="-1.2888370">
        <ele>187.4</ele>
        <time>2019-07-15T14:19:51Z</time>
      </trkpt>
      <trkpt lat="43.1753150" lon="-1.2886940">
        <ele>187.4</ele>
        <time>2019-07-15T14:19:53Z</time>
      </trkpt>
      <trkpt lat="43.1752950" lon="-1.2885490">
        <ele>187.4</ele>
        <time>2019-07-15T14:19:55Z</time>
      </trkpt>
      <trkpt lat="43.1752790" lon="-1.2884040">
        <ele>187.5</ele>
        <time>2019-07-15T14:19:57Z</time>
      </trkpt>
      <trkpt lat="43.1752640" lon="-1.2882630">
        <ele>187.8</ele>
        <time>2019-07-15T14:19:59Z</time>
      </trkpt>
      <trkpt lat="43.1752510" lon="-1.2881170">
        <ele>188.0</ele>
        <time>2019-07-15T14:20:01Z</time>
      </trkpt>
      <trkpt lat="43.1752360" lon="-1.2879670">
        <ele>188.3</ele>
        <time>2019-07-15T14:20:03Z</time>
      </trkpt>
      <trkpt lat="43.1752240" lon="-1.2878120">
        <ele>188.6</ele>
        <time>2019-07-15T14:20:05Z</time>
      </trkpt>
      <trkpt lat="43.1752050" lon="-1.2876580">
        <ele>188.9</ele>
        <time>2019-07-15T14:20:07Z</time>
      </trkpt>
      <trkpt lat="43.1751910" lon="-1.2875020">
        <ele>189.2</ele>
        <time>2019-07-15T14:20:09Z</time>
      </trkpt>
      <trkpt lat="43.1751770" lon="-1.2873530">
        <ele>189.5</ele>
        <time>2019-07-15T14:20:11Z</time>
      </trkpt>
      <trkpt lat="43.1751610" lon="-1.2872080">
        <ele>189.6</ele>
        <time>2019-07-15T14:20:13Z</time>
      </trkpt>
      <trkpt lat="43.1751490" lon="-1.2870640">
        <ele>189.3</ele>
        <time>2019-07-15T14:20:15Z</time>
      </trkpt>
      <trkpt lat="43.1751330" lon="-1.2869240">
        <ele>189.1</ele>
        <time>2019-07-15T14:20:17Z</time>
      </trkpt>
      <trkpt lat="43.1751180" lon="-1.2867850">
        <ele>188.8</ele>
        <time>2019-07-15T14:20:19Z</time>
      </trkpt>
      <trkpt lat="43.1751010" lon="-1.2866440">
        <ele>188.5</ele>
        <time>2019-07-15T14:20:21Z</time>
      </trkpt>
      <trkpt lat="43.1750850" lon="-1.2864930">
        <ele>188.2</ele>
        <time>2019-07-15T14:20:23Z</time>
      </trkpt>
      <trkpt lat="43.1750720" lon="-1.2863390">
        <ele>187.9</ele>
        <time>2019-07-15T14:20:25Z</time>
      </trkpt>
      <trkpt lat="43.1750560" lon="-1.2861910">
        <ele>187.6</ele>
        <time>2019-07-15T14:20:27Z</time>
      </trkpt>
      <trkpt lat="43.1750430" lon="-1.2860370">
        <ele>187.3</ele>
        <time>2019-07-15T14:20:29Z</time>
      </trkpt>
      <trkpt lat="43.1750280" lon="-1.2858830">
        <ele>187.0</ele>
        <time>2019-07-15T14:20:31Z</time>
      </trkpt>
      <trkpt lat="43.1750090" lon="-1.2857270">
        <ele>186.7</ele>
        <time>2019-07-15T14:20:33Z</time>
      </trkpt>
      <trkpt lat="43.1749920" lon="-1.2855720">
        <ele>186.4</ele>
        <time>2019-07-15T14:20:35Z</time>
      </trkpt>
      <trkpt lat="43.1749780" lon="-1.2854120">
        <ele>186.1</ele>
        <time>2019-07-15T14:20:37Z</time>
      </trkpt>
      <trkpt lat="43.1749610" lon="-1.2852530">
        <ele>185.8</ele>
        <time>2019-07-15T14:20:39Z</time>
      </trkpt>
      <trkpt lat="43.1749440" lon="-1.2850950">
        <ele>185.5</ele>
        <time>2019-07-15T14:20:41Z</time>
      </trkpt>
      <trkpt lat="43.1749270" lon="-1.2849400">
        <ele>185.2</ele>
        <time>2019-07-15T14:20:43Z</time>
      </trkpt>
      <trkpt lat="43.1749150" lon="-1.2847870">
        <ele>184.9</ele>
        <time>2019-07-15T14:20:45Z</time>
      </trkpt>
      <trkpt lat="43.1749040" lon="-1.2846380">
        <ele>184.6</ele>
        <time>2019-07-15T14:20:47Z</time>
      </trkpt>
      <trkpt lat="43.1748900" lon="-1.2844860">
        <ele>184.4</ele>
        <time>2019-07-15T14:20:49Z</time>
      </trkpt>
      <trkpt lat="43.1748780" lon="-1.2843360">
        <ele>184.2</ele>
        <time>2019-07-15T14:20:51Z</time>
      </trkpt>
      <trkpt lat="43.1748610" lon="-1.2841870">
        <ele>183.9</ele>
        <time>2019-07-15T14:20:53Z</time>
      </trkpt>
      <trkpt lat="43.1748420" lon="-1.2840320">
        <ele>183.6</ele>
        <time>2019-07-15T14:20:55Z</time>
      </trkpt>
      <trkpt lat="43.1748250" lon="-1.2838780">
        <ele>183.3</ele>
        <time>2019-07-15T14:20:57Z</time>
      </trkpt>
      <trkpt lat="43.1748060" lon="-1.2837310">
        <ele>183.1</ele>
        <time>2019-07-15T14:20:59Z</time>
      </trkpt>
      <trkpt lat="43.1747880" lon="-1.2835850">
        <ele>182.8</ele>
        <time>2019-07-15T14:21:01Z</time>
      </trkpt>
      <trkpt lat="43.1747700" lon="-1.2834340">
        <ele>182.5</ele>
        <time>2019-07-15T14:21:03Z</time>
      </trkpt>
      <trkpt lat="43.1747480" lon="-1.2832860">
        <ele>182.2</ele>
        <time>2019-07-15T14:21:05Z</time>
      </trkpt>
      <trkpt lat="43.1747320" lon="-1.2831340">
        <ele>182.0</ele>
        <time>2019-07-15T14:21:07Z</time>
      </trkpt>
      <trkpt lat="43.1747110" lon="-1.2829850">
        <ele>181.7</ele>
        <time>2019-07-15T14:21:09Z</time>
      </trkpt>
      <trkpt lat="43.1746930" lon="-1.2828380">
        <ele>181.5</ele>
        <time>2019-07-15T14:21:11Z</time>
      </trkpt>
      <trkpt lat="43.1746760" lon="-1.2826880">
        <ele>181.2</ele>
        <time>2019-07-15T14:21:13Z</time>
      </trkpt>
      <trkpt lat="43.1746580" lon="-1.2825410">
        <ele>181.0</ele>
        <time>2019-07-15T14:21:15Z</time>
      </trkpt>
      <trkpt lat="43.1746400" lon="-1.2823940">
        <ele>180.7</ele>
        <time>2019-07-15T14:21:17Z</time>
      </trkpt>
      <trkpt lat="43.1746250" lon="-1.2822450">
        <ele>180.4</ele>
        <time>2019-07-15T14:21:19Z</time>
      </trkpt>
      <trkpt lat="43.1746070" lon="-1.2820950">
        <ele>180.1</ele>
        <time>2019-07-15T14:21:21Z</time>
      </trkpt>
      <trkpt lat="43.1745920" lon="-1.2819450">
        <ele>179.9</ele>
        <time>2019-07-15T14:21:23Z</time>
      </trkpt>
      <trkpt lat="43.1745770" lon="-1.2818000">
        <ele>179.6</ele>
        <time>2019-07-15T14:21:25Z</time>
      </trkpt>
      <trkpt lat="43.1745610" lon="-1.2816590">
        <ele>179.4</ele>
        <time>2019-07-15T14:21:27Z</time>
      </trkpt>
      <trkpt lat="43.1745450" lon="-1.2815120">
        <ele>179.2</ele>
        <time>2019-07-15T14:21:29Z</time>
      </trkpt>
      <trkpt lat="43.1745330" lon="-1.2813650">
        <ele>179.1</ele>
        <time>2019-07-15T14:21:31Z</time>
      </trkpt>
      <trkpt lat="43.1745170" lon="-1.2812260">
        <ele>179.0</ele>
        <time>2019-07-15T14:21:33Z</time>
      </trkpt>
      <trkpt lat="43.1745000" lon="-1.2810860">
        <ele>178.9</ele>
        <time>2019-07-15T14:21:35Z</time>
      </trkpt>
      <trkpt lat="43.1744830" lon="-1.2809460">
        <ele>178.8</ele>
        <time>2019-07-15T14:21:37Z</time>
      </trkpt>
      <trkpt lat="43.1744700" lon="-1.2808010">
        <ele>178.6</ele>
        <time>2019-07-15T14:21:39Z</time>
      </trkpt>
      <trkpt lat="43.1744560" lon="-1.2806620">
        <ele>178.4</ele>
        <time>2019-07-15T14:21:41Z</time>
      </trkpt>
      <trkpt lat="43.1744450" lon="-1.2805230">
        <ele>178.3</ele>
        <time>2019-07-15T14:21:43Z</time>
      </trkpt>
      <trkpt lat="43.1744270" lon="-1.2803890">
        <ele>178.1</ele>
        <time>2019-07-15T14:21:45Z</time>
      </trkpt>
      <trkpt lat="43.1744140" lon="-1.2802600">
        <ele>178.0</ele>
        <time>2019-07-15T14:21:47Z</time>
      </trkpt>
      <trkpt lat="43.1744010" lon="-1.2801330">
        <ele>177.8</ele>
        <time>2019-07-15T14:21:49Z</time>
      </trkpt>
      <trkpt lat="43.1743860" lon="-1.2800090">
        <ele>177.8</ele>
        <time>2019-07-15T14:21:51Z</time>
      </trkpt>
      <trkpt lat="43.1743700" lon="-1.2798860">
        <ele>177.7</ele>
        <time>2019-07-15T14:21:53Z</time>
      </trkpt>
      <trkpt lat="43.1743530" lon="-1.2797630">
        <ele>177.6</ele>
        <time>2019-07-15T14:21:55Z</time>
      </trkpt>
      <trkpt lat="43.1743320" lon="-1.2796280">
        <ele>177.6</ele>
        <time>2019-07-15T14:21:57Z</time>
      </trkpt>
      <trkpt lat="43.1743070" lon="-1.2794850">
        <ele>177.5</ele>
        <time>2019-07-15T14:21:59Z</time>
      </trkpt>
      <trkpt lat="43.1742720" lon="-1.2793440">
        <ele>177.4</ele>
        <time>2019-07-15T14:22:01Z</time>
      </trkpt>
      <trkpt lat="43.1742200" lon="-1.2792140">
        <ele>177.2</ele>
        <time>2019-07-15T14:22:03Z</time>
      </trkpt>
      <trkpt lat="43.1741650" lon="-1.2790900">
        <ele>177.1</ele>
        <time>2019-07-15T14:22:05Z</time>
      </trkpt>
      <trkpt lat="43.1741010" lon="-1.2789670">
        <ele>177.0</ele>
        <time>2019-07-15T14:22:07Z</time>
      </trkpt>
      <trkpt lat="43.1740210" lon="-1.2788520">
        <ele>177.0</ele>
        <time>2019-07-15T14:22:09Z</time>
      </trkpt>
      <trkpt lat="43.1739290" lon="-1.2787540">
        <ele>176.9</ele>
        <time>2019-07-15T14:22:11Z</time>
      </trkpt>
      <trkpt lat="43.1738300" lon="-1.2786780">
        <ele>176.9</ele>
        <time>2019-07-15T14:22:13Z</time>
      </trkpt>
      <trkpt lat="43.1737190" lon="-1.2786170">
        <ele>177.3</ele>
        <time>2019-07-15T14:22:15Z</time>
      </trkpt>
      <trkpt lat="43.1736090" lon="-1.2785810">
        <ele>177.9</ele>
        <time>2019-07-15T14:22:17Z</time>
      </trkpt>
      <trkpt lat="43.1735040" lon="-1.2785560">
        <ele>178.7</ele>
        <time>2019-07-15T14:22:19Z</time>
      </trkpt>
      <trkpt lat="43.1733970" lon="-1.2785250">
        <ele>179.5</ele>
        <time>2019-07-15T14:22:21Z</time>
      </trkpt>
      <trkpt lat="43.1732960" lon="-1.2784810">
        <ele>180.5</ele>
        <time>2019-07-15T14:22:23Z</time>
      </trkpt>
      <trkpt lat="43.1732060" lon="-1.2784140">
        <ele>181.7</ele>
        <time>2019-07-15T14:22:25Z</time>
      </trkpt>
      <trkpt lat="43.1731320" lon="-1.2783400">
        <ele>182.9</ele>
        <time>2019-07-15T14:22:27Z</time>
      </trkpt>
      <trkpt lat="43.1730360" lon="-1.2782080">
        <ele>183.6</ele>
        <time>2019-07-15T14:22:30Z</time>
      </trkpt>
      <trkpt lat="43.1729850" lon="-1.2781050">
        <ele>183.5</ele>
        <time>2019-07-15T14:22:32Z</time>
      </trkpt>
      <trkpt lat="43.1729460" lon="-1.2779890">
        <ele>183.5</ele>
        <time>2019-07-15T14:22:34Z</time>
      </trkpt>
      <trkpt lat="43.1729130" lon="-1.2778720">
        <ele>183.4</ele>
        <time>2019-07-15T14:22:36Z</time>
      </trkpt>
      <trkpt lat="43.1728780" lon="-1.2777000">
        <ele>183.0</ele>
        <time>2019-07-15T14:22:39Z</time>
      </trkpt>
      <trkpt lat="43.1728710" lon="-1.2775770">
        <ele>182.6</ele>
        <time>2019-07-15T14:22:41Z</time>
      </trkpt>
      <trkpt lat="43.1728740" lon="-1.2774520">
        <ele>182.3</ele>
        <time>2019-07-15T14:22:43Z</time>
      </trkpt>
      <trkpt lat="43.1728770" lon="-1.2773280">
        <ele>181.9</ele>
        <time>2019-07-15T14:22:45Z</time>
      </trkpt>
      <trkpt lat="43.1728840" lon="-1.2771440">
        <ele>181.1</ele>
        <time>2019-07-15T14:22:48Z</time>
      </trkpt>
      <trkpt lat="43.1728960" lon="-1.2769620">
        <ele>180.4</ele>
        <time>2019-07-15T14:22:51Z</time>
      </trkpt>
      <trkpt lat="43.1728990" lon="-1.2767820">
        <ele>180.2</ele>
        <time>2019-07-15T14:22:54Z</time>
      </trkpt>
      <trkpt lat="43.1729030" lon="-1.2765970">
        <ele>180.4</ele>
        <time>2019-07-15T14:22:57Z</time>
      </trkpt>
      <trkpt lat="43.1729130" lon="-1.2764100">
        <ele>180.6</ele>
        <time>2019-07-15T14:23:00Z</time>
      </trkpt>
      <trkpt lat="43.1729170" lon="-1.2762800">
        <ele>180.5</ele>
        <time>2019-07-15T14:23:02Z</time>
      </trkpt>
      <trkpt lat="43.1729160" lon="-1.2761530">
        <ele>180.3</ele>
        <time>2019-07-15T14:23:04Z</time>
      </trkpt>
      <trkpt lat="43.1729180" lon="-1.2760270">
        <ele>180.2</ele>
        <time>2019-07-15T14:23:06Z</time>
      </trkpt>
      <trkpt lat="43.1729240" lon="-1.2758960">
        <ele>180.1</ele>
        <time>2019-07-15T14:23:08Z</time>
      </trkpt>
      <trkpt lat="43.1729230" lon="-1.2757690">
        <ele>180.0</ele>
        <time>2019-07-15T14:23:10Z</time>
      </trkpt>
      <trkpt lat="43.1729270" lon="-1.2756460">
        <ele>179.8</ele>
        <time>2019-07-15T14:23:12Z</time>
      </trkpt>
      <trkpt lat="43.1729300" lon="-1.2755200">
        <ele>179.6</ele>
        <time>2019-07-15T14:23:14Z</time>
      </trkpt>
      <trkpt lat="43.1729320" lon="-1.2753880">
        <ele>179.3</ele>
        <time>2019-07-15T14:23:16Z</time>
      </trkpt>
      <trkpt lat="43.1729350" lon="-1.2752540">
        <ele>179.0</ele>
        <time>2019-07-15T14:23:18Z</time>
      </trkpt>
      <trkpt lat="43.1729310" lon="-1.2751200">
        <ele>178.7</ele>
        <time>2019-07-15T14:23:20Z</time>
      </trkpt>
      <trkpt lat="43.1729310" lon="-1.2749810">
        <ele>178.5</ele>
        <time>2019-07-15T14:23:22Z</time>
      </trkpt>
      <trkpt lat="43.1729380" lon="-1.2748330">
        <ele>178.2</ele>
        <time>2019-07-15T14:23:24Z</time>
      </trkpt>
      <trkpt lat="43.1729400" lon="-1.2746880">
        <ele>177.9</ele>
        <time>2019-07-15T14:23:26Z</time>
      </trkpt>
      <trkpt lat="43.1729430" lon="-1.2745430">
        <ele>177.7</ele>
        <time>2019-07-15T14:23:28Z</time>
      </trkpt>
      <trkpt lat="43.1729430" lon="-1.2744040">
        <ele>177.4</ele>
        <time>2019-07-15T14:23:30Z</time>
      </trkpt>
      <trkpt lat="43.1729470" lon="-1.2742620">
        <ele>177.0</ele>
        <time>2019-07-15T14:23:32Z</time>
      </trkpt>
      <trkpt lat="43.1729520" lon="-1.2741170">
        <ele>176.6</ele>
        <time>2019-07-15T14:23:34Z</time>
      </trkpt>
      <trkpt lat="43.1729580" lon="-1.2739740">
        <ele>176.2</ele>
        <time>2019-07-15T14:23:36Z</time>
      </trkpt>
      <trkpt lat="43.1729630" lon="-1.2738300">
        <ele>175.7</ele>
        <time>2019-07-15T14:23:38Z</time>
      </trkpt>
      <trkpt lat="43.1729620" lon="-1.2736870">
        <ele>175.4</ele>
        <time>2019-07-15T14:23:40Z</time>
      </trkpt>
      <trkpt lat="43.1729640" lon="-1.2735440">
        <ele>175.0</ele>
        <time>2019-07-15T14:23:42Z</time>
      </trkpt>
      <trkpt lat="43.1729710" lon="-1.2733950">
        <ele>174.8</ele>
        <time>2019-07-15T14:23:44Z</time>
      </trkpt>
      <trkpt lat="43.1729740" lon="-1.2732500">
        <ele>174.7</ele>
        <time>2019-07-15T14:23:46Z</time>
      </trkpt>
      <trkpt lat="43.1729760" lon="-1.2731020">
        <ele>174.6</ele>
        <time>2019-07-15T14:23:48Z</time>
      </trkpt>
      <trkpt lat="43.1729800" lon="-1.2729610">
        <ele>174.4</ele>
        <time>2019-07-15T14:23:50Z</time>
      </trkpt>
      <trkpt lat="43.1729830" lon="-1.2728170">
        <ele>174.3</ele>
        <time>2019-07-15T14:23:52Z</time>
      </trkpt>
      <trkpt lat="43.1729890" lon="-1.2726730">
        <ele>174.2</ele>
        <time>2019-07-15T14:23:54Z</time>
      </trkpt>
      <trkpt lat="43.1729930" lon="-1.2725310">
        <ele>174.1</ele>
        <time>2019-07-15T14:23:56Z</time>
      </trkpt>
      <trkpt lat="43.1729950" lon="-1.2723910">
        <ele>174.0</ele>
        <time>2019-07-15T14:23:58Z</time>
      </trkpt>
      <trkpt lat="43.1729990" lon="-1.2722550">
        <ele>173.9</ele>
        <time>2019-07-15T14:24:00Z</time>
      </trkpt>
      <trkpt lat="43.1730030" lon="-1.2721270">
        <ele>173.7</ele>
        <time>2019-07-15T14:24:02Z</time>
      </trkpt>
      <trkpt lat="43.1730080" lon="-1.2720010">
        <ele>173.6</ele>
        <time>2019-07-15T14:24:04Z</time>
      </trkpt>
      <trkpt lat="43.1730170" lon="-1.2718250">
        <ele>173.4</ele>
        <time>2019-07-15T14:24:07Z</time>
      </trkpt>
      <trkpt lat="43.1730230" lon="-1.2716640">
        <ele>173.2</ele>
        <time>2019-07-15T14:24:10Z</time>
      </trkpt>
      <trkpt lat="43.1730230" lon="-1.2715280">
        <ele>173.0</ele>
        <time>2019-07-15T14:24:13Z</time>
      </trkpt>
      <trkpt lat="43.1730230" lon="-1.2714000">
        <ele>172.9</ele>
        <time>2019-07-15T14:24:16Z</time>
      </trkpt>
      <trkpt lat="43.1730230" lon="-1.2712660">
        <ele>172.9</ele>
        <time>2019-07-15T14:24:19Z</time>
      </trkpt>
      <trkpt lat="43.1730320" lon="-1.2711290">
        <ele>172.8</ele>
        <time>2019-07-15T14:24:22Z</time>
      </trkpt>
      <trkpt lat="43.1730410" lon="-1.2709960">
        <ele>172.8</ele>
        <time>2019-07-15T14:24:25Z</time>
      </trkpt>
      <trkpt lat="43.1730410" lon="-1.2708630">
        <ele>172.8</ele>
        <time>2019-07-15T14:24:28Z</time>
      </trkpt>
      <trkpt lat="43.1730400" lon="-1.2707320">
        <ele>172.7</ele>
        <time>2019-07-15T14:24:31Z</time>
      </trkpt>
      <trkpt lat="43.1730480" lon="-1.2706040">
        <ele>172.8</ele>
        <time>2019-07-15T14:24:34Z</time>
      </trkpt>
      <trkpt lat="43.1730600" lon="-1.2704560">
        <ele>172.9</ele>
        <time>2019-07-15T14:24:38Z</time>
      </trkpt>
      <trkpt lat="43.1730510" lon="-1.2703230">
        <ele>173.0</ele>
        <time>2019-07-15T14:24:42Z</time>
      </trkpt>
      <trkpt lat="43.1730510" lon="-1.2701910">
        <ele>173.2</ele>
        <time>2019-07-15T14:24:46Z</time>
      </trkpt>
      <trkpt lat="43.1730620" lon="-1.2700590">
        <ele>173.4</ele>
        <time>2019-07-15T14:24:50Z</time>
      </trkpt>
      <trkpt lat="43.1730550" lon="-1.2699100">
        <ele>173.7</ele>
        <time>2019-07-15T14:24:55Z</time>
      </trkpt>
      <trkpt lat="43.1730560" lon="-1.2697810">
        <ele>173.9</ele>
        <time>2019-07-15T14:24:59Z</time>
      </trkpt>
      <trkpt lat="43.1730520" lon="-1.2696220">
        <ele>174.2</ele>
        <time>2019-07-15T14:25:04Z</time>
      </trkpt>
      <trkpt lat="43.1730420" lon="-1.2694720">
        <ele>174.4</ele>
        <time>2019-07-15T14:25:09Z</time>
      </trkpt>
      <trkpt lat="43.1730240" lon="-1.2693430">
        <ele>174.5</ele>
        <time>2019-07-15T14:25:13Z</time>
      </trkpt>
      <trkpt lat="43.1729920" lon="-1.2692200">
        <ele>174.7</ele>
        <time>2019-07-15T14:25:17Z</time>
      </trkpt>
      <trkpt lat="43.1729500" lon="-1.2691100">
        <ele>174.9</ele>
        <time>2019-07-15T14:25:21Z</time>
      </trkpt>
      <trkpt lat="43.1729040" lon="-1.2689870">
        <ele>175.1</ele>
        <time>2019-07-15T14:25:25Z</time>
      </trkpt>
      <trkpt lat="43.1728450" lon="-1.2688650">
        <ele>175.4</ele>
        <time>2019-07-15T14:25:29Z</time>
      </trkpt>
      <trkpt lat="43.1727680" lon="-1.2687450">
        <ele>175.7</ele>
        <time>2019-07-15T14:25:33Z</time>
      </trkpt>
      <trkpt lat="43.1726980" lon="-1.2686580">
        <ele>175.9</ele>
        <time>2019-07-15T14:25:36Z</time>
      </trkpt>
      <trkpt lat="43.1726250" lon="-1.2685760">
        <ele>176.1</ele>
        <time>2019-07-15T14:25:39Z</time>
      </trkpt>
      <trkpt lat="43.1725430" lon="-1.2685040">
        <ele>176.4</ele>
        <time>2019-07-15T14:25:42Z</time>
      </trkpt>
      <trkpt lat="43.1724630" lon="-1.2684340">
        <ele>176.6</ele>
        <time>2019-07-15T14:25:45Z</time>
      </trkpt>
      <trkpt lat="43.1723620" lon="-1.2683570">
        <ele>176.9</ele>
        <time>2019-07-15T14:25:49Z</time>
      </trkpt>
      <trkpt lat="43.1722480" lon="-1.2682900">
        <ele>177.2</ele>
        <time>2019-07-15T14:25:53Z</time>
      </trkpt>
      <trkpt lat="43.1721560" lon="-1.2682320">
        <ele>177.3</ele>
        <time>2019-07-15T14:25:56Z</time>
      </trkpt>
      <trkpt lat="43.1720650" lon="-1.2681730">
        <ele>177.5</ele>
        <time>2019-07-15T14:25:59Z</time>
      </trkpt>
      <trkpt lat="43.1719750" lon="-1.2681150">
        <ele>177.6</ele>
        <time>2019-07-15T14:26:02Z</time>
      </trkpt>
      <trkpt lat="43.1718890" lon="-1.2680450">
        <ele>177.7</ele>
        <time>2019-07-15T14:26:05Z</time>
      </trkpt>
      <trkpt lat="43.1717850" lon="-1.2679840">
        <ele>177.9</ele>
        <time>2019-07-15T14:26:08Z</time>
      </trkpt>
      <trkpt lat="43.1716590" lon="-1.2679270">
        <ele>178.0</ele>
        <time>2019-07-15T14:26:11Z</time>
      </trkpt>
      <trkpt lat="43.1715610" lon="-1.2678930">
        <ele>178.1</ele>
        <time>2019-07-15T14:26:13Z</time>
      </trkpt>
      <trkpt lat="43.1714750" lon="-1.2678520">
        <ele>178.2</ele>
        <time>2019-07-15T14:26:15Z</time>
      </trkpt>
      <trkpt lat="43.1713590" lon="-1.2677880">
        <ele>178.3</ele>
        <time>2019-07-15T14:26:18Z</time>
      </trkpt>
      <trkpt lat="43.1712370" lon="-1.2677330">
        <ele>178.4</ele>
        <time>2019-07-15T14:26:21Z</time>
      </trkpt>
      <trkpt lat="43.1711150" lon="-1.2676800">
        <ele>178.4</ele>
        <time>2019-07-15T14:26:24Z</time>
      </trkpt>
      <trkpt lat="43.1710030" lon="-1.2676090">
        <ele>178.5</ele>
        <time>2019-07-15T14:26:27Z</time>
      </trkpt>
      <trkpt lat="43.1708860" lon="-1.2675600">
        <ele>178.5</ele>
        <time>2019-07-15T14:26:30Z</time>
      </trkpt>
      <trkpt lat="43.1708070" lon="-1.2674710">
        <ele>178.5</ele>
        <time>2019-07-15T14:26:33Z</time>
      </trkpt>
      <trkpt lat="43.1707540" lon="-1.2673680">
        <ele>178.5</ele>
        <time>2019-07-15T14:26:36Z</time>
      </trkpt>
      <trkpt lat="43.1706520" lon="-1.2672900">
        <ele>178.4</ele>
        <time>2019-07-15T14:26:39Z</time>
      </trkpt>
      <trkpt lat="43.1705440" lon="-1.2672080">
        <ele>178.4</ele>
        <time>2019-07-15T14:26:42Z</time>
      </trkpt>
      <trkpt lat="43.1704420" lon="-1.2671240">
        <ele>178.3</ele>
        <time>2019-07-15T14:26:45Z</time>
      </trkpt>
      <trkpt lat="43.1703560" lon="-1.2670010">
        <ele>178.2</ele>
        <time>2019-07-15T14:26:48Z</time>
      </trkpt>
      <trkpt lat="43.1702460" lon="-1.2668580">
        <ele>178.1</ele>
        <time>2019-07-15T14:26:51Z</time>
      </trkpt>
      <trkpt lat="43.1701840" lon="-1.2667460">
        <ele>178.1</ele>
        <time>2019-07-15T14:26:53Z</time>
      </trkpt>
      <trkpt lat="43.1701480" lon="-1.2666120">
        <ele>178.1</ele>
        <time>2019-07-15T14:26:56Z</time>
      </trkpt>
      <trkpt lat="43.1701260" lon="-1.2664840">
        <ele>178.2</ele>
        <time>2019-07-15T14:26:59Z</time>
      </trkpt>
      <trkpt lat="43.1701110" lon="-1.2663340">
        <ele>178.2</ele>
        <time>2019-07-15T14:27:03Z</time>
      </trkpt>
      <trkpt lat="43.1700890" lon="-1.2661980">
        <ele>178.2</ele>
        <time>2019-07-15T14:27:07Z</time>
      </trkpt>
      <trkpt lat="43.1700760" lon="-1.2660710">
        <ele>178.2</ele>
        <time>2019-07-15T14:27:11Z</time>
      </trkpt>
      <trkpt lat="43.1700760" lon="-1.2659370">
        <ele>178.3</ele>
        <time>2019-07-15T14:27:15Z</time>
      </trkpt>
      <trkpt lat="43.1700730" lon="-1.2657960">
        <ele>178.3</ele>
        <time>2019-07-15T14:27:20Z</time>
      </trkpt>
      <trkpt lat="43.1700650" lon="-1.2656680">
        <ele>178.4</ele>
        <time>2019-07-15T14:27:25Z</time>
      </trkpt>
      <trkpt lat="43.1700560" lon="-1.2655430">
        <ele>178.5</ele>
        <time>2019-07-15T14:27:30Z</time>
      </trkpt>
      <trkpt lat="43.1700400" lon="-1.2654160">
        <ele>178.6</ele>
        <time>2019-07-15T14:27:35Z</time>
      </trkpt>
      <trkpt lat="43.1700190" lon="-1.2652950">
        <ele>178.8</ele>
        <time>2019-07-15T14:27:40Z</time>
      </trkpt>
      <trkpt lat="43.1699980" lon="-1.2651740">
        <ele>179.1</ele>
        <time>2019-07-15T14:27:45Z</time>
      </trkpt>
      <trkpt lat="43.1699670" lon="-1.2650330">
        <ele>179.5</ele>
        <time>2019-07-15T14:27:51Z</time>
      </trkpt>
      <trkpt lat="43.1699250" lon="-1.2649120">
        <ele>180.0</ele>
        <time>2019-07-15T14:27:57Z</time>
      </trkpt>
      <trkpt lat="43.1698740" lon="-1.2648010">
        <ele>180.5</ele>
        <time>2019-07-15T14:28:02Z</time>
      </trkpt>
      <trkpt lat="43.1698170" lon="-1.2646950">
        <ele>181.0</ele>
        <time>2019-07-15T14:28:07Z</time>
      </trkpt>
      <trkpt lat="43.1697640" lon="-1.2645760">
        <ele>181.6</ele>
        <time>2019-07-15T14:28:13Z</time>
      </trkpt>
      <trkpt lat="43.1697020" lon="-1.2644500">
        <ele>182.3</ele>
        <time>2019-07-15T14:28:18Z</time>
      </trkpt>
      <trkpt lat="43.1696490" lon="-1.2643500">
        <ele>182.8</ele>
        <time>2019-07-15T14:28:22Z</time>
      </trkpt>
      <trkpt lat="43.1695920" lon="-1.2642430">
        <ele>183.4</ele>
        <time>2019-07-15T14:28:26Z</time>
      </trkpt>
      <trkpt lat="43.1695200" lon="-1.2641250">
        <ele>184.1</ele>
        <time>2019-07-15T14:28:30Z</time>
      </trkpt>
      <trkpt lat="43.1694540" lon="-1.2640100">
        <ele>184.6</ele>
        <time>2019-07-15T14:28:34Z</time>
      </trkpt>
      <trkpt lat="43.1693830" lon="-1.2638840">
        <ele>185.1</ele>
        <time>2019-07-15T14:28:38Z</time>
      </trkpt>
      <trkpt lat="43.1693120" lon="-1.2637530">
        <ele>185.6</ele>
        <time>2019-07-15T14:28:42Z</time>
      </trkpt>
      <trkpt lat="43.1692380" lon="-1.2636280">
        <ele>186.0</ele>
        <time>2019-07-15T14:28:46Z</time>
      </trkpt>
      <trkpt lat="43.1691840" lon="-1.2635270">
        <ele>186.4</ele>
        <time>2019-07-15T14:28:49Z</time>
      </trkpt>
      <trkpt lat="43.1691290" lon="-1.2634230">
        <ele>186.7</ele>
        <time>2019-07-15T14:28:52Z</time>
      </trkpt>
      <trkpt lat="43.1690590" lon="-1.2632970">
        <ele>187.1</ele>
        <time>2019-07-15T14:28:56Z</time>
      </trkpt>
      <trkpt lat="43.1689830" lon="-1.2631650">
        <ele>187.4</ele>
        <time>2019-07-15T14:29:00Z</time>
      </trkpt>
      <trkpt lat="43.1689230" lon="-1.2630630">
        <ele>187.6</ele>
        <time>2019-07-15T14:29:03Z</time>
      </trkpt>
      <trkpt lat="43.1688660" lon="-1.2629630">
        <ele>187.8</ele>
        <time>2019-07-15T14:29:06Z</time>
      </trkpt>
      <trkpt lat="43.1688070" lon="-1.2628650">
        <ele>187.9</ele>
        <time>2019-07-15T14:29:09Z</time>
      </trkpt>
      <trkpt lat="43.1687350" lon="-1.2627340">
        <ele>188.1</ele>
        <time>2019-07-15T14:29:13Z</time>
      </trkpt>
      <trkpt lat="43.1686640" lon="-1.2626030">
        <ele>188.3</ele>
        <time>2019-07-15T14:29:17Z</time>
      </trkpt>
      <trkpt lat="43.1686100" lon="-1.2624780">
        <ele>188.4</ele>
        <time>2019-07-15T14:29:21Z</time>
      </trkpt>
      <trkpt lat="43.1685630" lon="-1.2623710">
        <ele>188.5</ele>
        <time>2019-07-15T14:29:24Z</time>
      </trkpt>
      <trkpt lat="43.1685130" lon="-1.2622610">
        <ele>188.6</ele>
        <time>2019-07-15T14:29:27Z</time>
      </trkpt>
      <trkpt lat="43.1684640" lon="-1.2621200">
        <ele>188.8</ele>
        <time>2019-07-15T14:29:31Z</time>
      </trkpt>
      <trkpt lat="43.1684230" lon="-1.2619680">
        <ele>189.1</ele>
        <time>2019-07-15T14:29:35Z</time>
      </trkpt>
      <trkpt lat="43.1684000" lon="-1.2618380">
        <ele>189.3</ele>
        <time>2019-07-15T14:29:38Z</time>
      </trkpt>
      <trkpt lat="43.1683740" lon="-1.2616830">
        <ele>189.0</ele>
        <time>2019-07-15T14:29:41Z</time>
      </trkpt>
      <trkpt lat="43.1683420" lon="-1.2615110">
        <ele>188.5</ele>
        <time>2019-07-15T14:29:44Z</time>
      </trkpt>
      <trkpt lat="43.1683080" lon="-1.2613880">
        <ele>188.2</ele>
        <time>2019-07-15T14:29:46Z</time>
      </trkpt>
      <trkpt lat="43.1682840" lon="-1.2612450">
        <ele>187.8</ele>
        <time>2019-07-15T14:29:48Z</time>
      </trkpt>
      <trkpt lat="43.1682580" lon="-1.2610980">
        <ele>187.3</ele>
        <time>2019-07-15T14:29:50Z</time>
      </trkpt>
      <trkpt lat="43.1682240" lon="-1.2609420">
        <ele>186.8</ele>
        <time>2019-07-15T14:29:52Z</time>
      </trkpt>
      <trkpt lat="43.1681870" lon="-1.2607780">
        <ele>186.3</ele>
        <time>2019-07-15T14:29:54Z</time>
      </trkpt>
      <trkpt lat="43.1681480" lon="-1.2606080">
        <ele>185.7</ele>
        <time>2019-07-15T14:29:56Z</time>
      </trkpt>
      <trkpt lat="43.1681150" lon="-1.2604360">
        <ele>185.1</ele>
        <time>2019-07-15T14:29:58Z</time>
      </trkpt>
      <trkpt lat="43.1680830" lon="-1.2602730">
        <ele>184.5</ele>
        <time>2019-07-15T14:30:00Z</time>
      </trkpt>
      <trkpt lat="43.1680530" lon="-1.2600980">
        <ele>184.0</ele>
        <time>2019-07-15T14:30:02Z</time>
      </trkpt>
      <trkpt lat="43.1680320" lon="-1.2599140">
        <ele>183.3</ele>
        <time>2019-07-15T14:30:04Z</time>
      </trkpt>
      <trkpt lat="43.1680200" lon="-1.2597150">
        <ele>182.7</ele>
        <time>2019-07-15T14:30:06Z</time>
      </trkpt>
      <trkpt lat="43.1680230" lon="-1.2595070">
        <ele>182.0</ele>
        <time>2019-07-15T14:30:08Z</time>
      </trkpt>
      <trkpt lat="43.1680310" lon="-1.2592970">
        <ele>181.3</ele>
        <time>2019-07-15T14:30:10Z</time>
      </trkpt>
      <trkpt lat="43.1680420" lon="-1.2590750">
        <ele>180.5</ele>
        <time>2019-07-15T14:30:12Z</time>
      </trkpt>
      <trkpt lat="43.1680580" lon="-1.2588440">
        <ele>179.6</ele>
        <time>2019-07-15T14:30:14Z</time>
      </trkpt>
      <trkpt lat="43.1680810" lon="-1.2586050">
        <ele>178.6</ele>
        <time>2019-07-15T14:30:16Z</time>
      </trkpt>
      <trkpt lat="43.1681000" lon="-1.2583640">
        <ele>177.5</ele>
        <time>2019-07-15T14:30:18Z</time>
      </trkpt>
      <trkpt lat="43.1681080" lon="-1.2582400">
        <ele>176.8</ele>
        <time>2019-07-15T14:30:19Z</time>
      </trkpt>
      <trkpt lat="43.1681120" lon="-1.2579950">
        <ele>175.5</ele>
        <time>2019-07-15T14:30:21Z</time>
      </trkpt>
      <trkpt lat="43.1681150" lon="-1.2577520">
        <ele>174.4</ele>
        <time>2019-07-15T14:30:23Z</time>
      </trkpt>
      <trkpt lat="43.1681160" lon="-1.2576270">
        <ele>174.0</ele>
        <time>2019-07-15T14:30:24Z</time>
      </trkpt>
      <trkpt lat="43.1681190" lon="-1.2574990">
        <ele>173.6</ele>
        <time>2019-07-15T14:30:25Z</time>
      </trkpt>
      <trkpt lat="43.1681200" lon="-1.2573700">
        <ele>173.2</ele>
        <time>2019-07-15T14:30:26Z</time>
      </trkpt>
      <trkpt lat="43.1681160" lon="-1.2572400">
        <ele>172.8</ele>
        <time>2019-07-15T14:30:27Z</time>
      </trkpt>
      <trkpt lat="43.1681180" lon="-1.2571050">
        <ele>172.3</ele>
        <time>2019-07-15T14:30:28Z</time>
      </trkpt>
      <trkpt lat="43.1681180" lon="-1.2569710">
        <ele>171.9</ele>
        <time>2019-07-15T14:30:29Z</time>
      </trkpt>
      <trkpt lat="43.1681160" lon="-1.2568420">
        <ele>171.5</ele>
        <time>2019-07-15T14:30:30Z</time>
      </trkpt>
      <trkpt lat="43.1681140" lon="-1.2567160">
        <ele>171.2</ele>
        <time>2019-07-15T14:30:31Z</time>
      </trkpt>
      <trkpt lat="43.1681230" lon="-1.2564720">
        <ele>170.6</ele>
        <time>2019-07-15T14:30:33Z</time>
      </trkpt>
      <trkpt lat="43.1681240" lon="-1.2562420">
        <ele>170.3</ele>
        <time>2019-07-15T14:30:35Z</time>
      </trkpt>
      <trkpt lat="43.1681240" lon="-1.2560210">
        <ele>170.2</ele>
        <time>2019-07-15T14:30:37Z</time>
      </trkpt>
      <trkpt lat="43.1681220" lon="-1.2558080">
        <ele>170.0</ele>
        <time>2019-07-15T14:30:39Z</time>
      </trkpt>
      <trkpt lat="43.1681180" lon="-1.2556140">
        <ele>170.0</ele>
        <time>2019-07-15T14:30:41Z</time>
      </trkpt>
      <trkpt lat="43.1681180" lon="-1.2554530">
        <ele>170.0</ele>
        <time>2019-07-15T14:30:43Z</time>
      </trkpt>
      <trkpt lat="43.1681320" lon="-1.2553280">
        <ele>170.0</ele>
        <time>2019-07-15T14:30:45Z</time>
      </trkpt>
      <trkpt lat="43.1682140" lon="-1.2552530">
        <ele>170.1</ele>
        <time>2019-07-15T14:30:49Z</time>
      </trkpt>
      <trkpt lat="43.1681830" lon="-1.2552760">
        <ele>170.2</ele>
        <time>2019-07-15T14:30:56Z</time>
      </trkpt>
      <trkpt lat="43.1680990" lon="-1.2551890">
        <ele>170.4</ele>
        <time>2019-07-15T14:31:15Z</time>
      </trkpt>
      <trkpt lat="43.1681000" lon="-1.2550320">
        <ele>170.8</ele>
        <time>2019-07-15T14:31:19Z</time>
      </trkpt>
      <trkpt lat="43.1680970" lon="-1.2549000">
        <ele>171.2</ele>
        <time>2019-07-15T14:31:22Z</time>
      </trkpt>
      <trkpt lat="43.1680970" lon="-1.2547340">
        <ele>171.7</ele>
        <time>2019-07-15T14:31:26Z</time>
      </trkpt>
      <trkpt lat="43.1681100" lon="-1.2545980">
        <ele>172.0</ele>
        <time>2019-07-15T14:31:29Z</time>
      </trkpt>
      <trkpt lat="43.1681080" lon="-1.2544650">
        <ele>172.4</ele>
        <time>2019-07-15T14:31:32Z</time>
      </trkpt>
      <trkpt lat="43.1681020" lon="-1.2543410">
        <ele>172.8</ele>
        <time>2019-07-15T14:31:35Z</time>
      </trkpt>
      <trkpt lat="43.1680810" lon="-1.2541840">
        <ele>173.3</ele>
        <time>2019-07-15T14:31:39Z</time>
      </trkpt>
      <trkpt lat="43.1680600" lon="-1.2540510">
        <ele>173.9</ele>
        <time>2019-07-15T14:31:43Z</time>
      </trkpt>
      <trkpt lat="43.1680410" lon="-1.2539050">
        <ele>174.8</ele>
        <time>2019-07-15T14:31:48Z</time>
      </trkpt>
      <trkpt lat="43.1680180" lon="-1.2537580">
        <ele>176.0</ele>
        <time>2019-07-15T14:31:53Z</time>
      </trkpt>
      <trkpt lat="43.1679900" lon="-1.2536290">
        <ele>177.3</ele>
        <time>2019-07-15T14:31:58Z</time>
      </trkpt>
      <trkpt lat="43.1679320" lon="-1.2535030">
        <ele>178.6</ele>
        <time>2019-07-15T14:32:03Z</time>
      </trkpt>
      <trkpt lat="43.1679160" lon="-1.2533510">
        <ele>180.0</ele>
        <time>2019-07-15T14:32:08Z</time>
      </trkpt>
      <trkpt lat="43.1678780" lon="-1.2532170">
        <ele>181.3</ele>
        <time>2019-07-15T14:32:13Z</time>
      </trkpt>
      <trkpt lat="43.1678660" lon="-1.2530730">
        <ele>182.6</ele>
        <time>2019-07-15T14:32:18Z</time>
      </trkpt>
      <trkpt lat="43.1678330" lon="-1.2529360">
        <ele>183.9</ele>
        <time>2019-07-15T14:32:23Z</time>
      </trkpt>
      <trkpt lat="43.1678000" lon="-1.2528150">
        <ele>184.9</ele>
        <time>2019-07-15T14:32:28Z</time>
      </trkpt>
      <trkpt lat="43.1677620" lon="-1.2526840">
        <ele>185.9</ele>
        <time>2019-07-15T14:32:33Z</time>
      </trkpt>
      <trkpt lat="43.1676990" lon="-1.2525720">
        <ele>186.5</ele>
        <time>2019-07-15T14:32:39Z</time>
      </trkpt>
      <trkpt lat="43.1676720" lon="-1.2525020">
        <ele>186.4</ele>
        <time>2019-07-15T14:32:47Z</time>
      </trkpt>
      <trkpt lat="43.1676990" lon="-1.2524570">
        <ele>186.4</ele>
        <time>2019-07-15T14:32:56Z</time>
      </trkpt>
      <trkpt lat="43.1677910" lon="-1.2524030">
        <ele>185.5</ele>
        <time>2019-07-15T14:33:02Z</time>
      </trkpt>
      <trkpt lat="43.1678800" lon="-1.2524640">
        <ele>185.0</ele>
        <time>2019-07-15T14:33:07Z</time>
      </trkpt>
      <trkpt lat="43.1679820" lon="-1.2525190">
        <ele>184.4</ele>
        <time>2019-07-15T14:33:12Z</time>
      </trkpt>
      <trkpt lat="43.1680780" lon="-1.2525330">
        <ele>183.7</ele>
        <time>2019-07-15T14:33:16Z</time>
      </trkpt>
      <trkpt lat="43.1681740" lon="-1.2525310">
        <ele>183.0</ele>
        <time>2019-07-15T14:33:19Z</time>
      </trkpt>
      <trkpt lat="43.1682970" lon="-1.2525100">
        <ele>182.0</ele>
        <time>2019-07-15T14:33:22Z</time>
      </trkpt>
      <trkpt lat="43.1683910" lon="-1.2525100">
        <ele>181.3</ele>
        <time>2019-07-15T14:33:24Z</time>
      </trkpt>
      <trkpt lat="43.1684860" lon="-1.2525140">
        <ele>180.6</ele>
        <time>2019-07-15T14:33:26Z</time>
      </trkpt>
      <trkpt lat="43.1686100" lon="-1.2525710">
        <ele>179.7</ele>
        <time>2019-07-15T14:33:29Z</time>
      </trkpt>
      <trkpt lat="43.1686830" lon="-1.2526450">
        <ele>179.0</ele>
        <time>2019-07-15T14:33:31Z</time>
      </trkpt>
      <trkpt lat="43.1687650" lon="-1.2527790">
        <ele>178.1</ele>
        <time>2019-07-15T14:33:34Z</time>
      </trkpt>
      <trkpt lat="43.1687780" lon="-1.2529440">
        <ele>177.1</ele>
        <time>2019-07-15T14:33:37Z</time>
      </trkpt>
      <trkpt lat="43.1687570" lon="-1.2530920">
        <ele>176.6</ele>
        <time>2019-07-15T14:33:40Z</time>
      </trkpt>
      <trkpt lat="43.1687260" lon="-1.2532130">
        <ele>176.1</ele>
        <time>2019-07-15T14:33:43Z</time>
      </trkpt>
      <trkpt lat="43.1687030" lon="-1.2533550">
        <ele>175.6</ele>
        <time>2019-07-15T14:33:47Z</time>
      </trkpt>
      <trkpt lat="43.1687280" lon="-1.2534550">
        <ele>175.3</ele>
        <time>2019-07-15T14:33:55Z</time>
      </trkpt>
      <trkpt lat="43.1686330" lon="-1.2534250">
        <ele>174.9</ele>
        <time>2019-07-15T14:34:02Z</time>
      </trkpt>
      <trkpt lat="43.1685680" lon="-1.2533240">
        <ele>174.4</ele>
        <time>2019-07-15T14:34:06Z</time>
      </trkpt>
      <trkpt lat="43.1685830" lon="-1.2533050">
        <ele>174.3</ele>
        <time>2019-07-15T14:34:12Z</time>
      </trkpt>
      <trkpt lat="43.1686570" lon="-1.2534080">
        <ele>173.9</ele>
        <time>2019-07-15T14:34:37Z</time>
      </trkpt>
      <trkpt lat="43.1687490" lon="-1.2534870">
        <ele>173.4</ele>
        <time>2019-07-15T14:34:41Z</time>
      </trkpt>
      <trkpt lat="43.1688280" lon="-1.2536210">
        <ele>172.9</ele>
        <time>2019-07-15T14:34:44Z</time>
      </trkpt>
      <trkpt lat="43.1688840" lon="-1.2537290">
        <ele>172.6</ele>
        <time>2019-07-15T14:34:46Z</time>
      </trkpt>
      <trkpt lat="43.1689490" lon="-1.2538510">
        <ele>172.2</ele>
        <time>2019-07-15T14:34:48Z</time>
      </trkpt>
      <trkpt lat="43.1690130" lon="-1.2539870">
        <ele>171.9</ele>
        <time>2019-07-15T14:34:50Z</time>
      </trkpt>
      <trkpt lat="43.1690740" lon="-1.2541360">
        <ele>171.6</ele>
        <time>2019-07-15T14:34:52Z</time>
      </trkpt>
      <trkpt lat="43.1691360" lon="-1.2542880">
        <ele>171.2</ele>
        <time>2019-07-15T14:34:54Z</time>
      </trkpt>
      <trkpt lat="43.1691900" lon="-1.2544400">
        <ele>170.9</ele>
        <time>2019-07-15T14:34:56Z</time>
      </trkpt>
      <trkpt lat="43.1692480" lon="-1.2545880">
        <ele>170.5</ele>
        <time>2019-07-15T14:34:58Z</time>
      </trkpt>
      <trkpt lat="43.1692980" lon="-1.2547450">
        <ele>170.1</ele>
        <time>2019-07-15T14:35:00Z</time>
      </trkpt>
      <trkpt lat="43.1693400" lon="-1.2548880">
        <ele>169.8</ele>
        <time>2019-07-15T14:35:02Z</time>
      </trkpt>
      <trkpt lat="43.1693790" lon="-1.2550020">
        <ele>169.6</ele>
        <time>2019-07-15T14:35:04Z</time>
      </trkpt>
      <trkpt lat="43.1694280" lon="-1.2551130">
        <ele>169.6</ele>
        <time>2019-07-15T14:35:06Z</time>
      </trkpt>
      <trkpt lat="43.1694850" lon="-1.2552110">
        <ele>169.7</ele>
        <time>2019-07-15T14:35:08Z</time>
      </trkpt>
      <trkpt lat="43.1695530" lon="-1.2552950">
        <ele>169.6</ele>
        <time>2019-07-15T14:35:10Z</time>
      </trkpt>
      <trkpt lat="43.1696330" lon="-1.2553700">
        <ele>169.5</ele>
        <time>2019-07-15T14:35:12Z</time>
      </trkpt>
      <trkpt lat="43.1697260" lon="-1.2554340">
        <ele>169.2</ele>
        <time>2019-07-15T14:35:14Z</time>
      </trkpt>
      <trkpt lat="43.1698240" lon="-1.2554760">
        <ele>168.9</ele>
        <time>2019-07-15T14:35:16Z</time>
      </trkpt>
      <trkpt lat="43.1699190" lon="-1.2554960">
        <ele>168.6</ele>
        <time>2019-07-15T14:35:18Z</time>
      </trkpt>
      <trkpt lat="43.1700410" lon="-1.2555280">
        <ele>168.3</ele>
        <time>2019-07-15T14:35:21Z</time>
      </trkpt>
      <trkpt lat="43.1701440" lon="-1.2555470">
        <ele>168.1</ele>
        <time>2019-07-15T14:35:24Z</time>
      </trkpt>
      <trkpt lat="43.1702490" lon="-1.2555640">
        <ele>168.0</ele>
        <time>2019-07-15T14:35:28Z</time>
      </trkpt>
      <trkpt lat="43.1703450" lon="-1.2555290">
        <ele>167.8</ele>
        <time>2019-07-15T14:35:32Z</time>
      </trkpt>
      <trkpt lat="43.1704400" lon="-1.2554670">
        <ele>167.8</ele>
        <time>2019-07-15T14:35:36Z</time>
      </trkpt>
      <trkpt lat="43.1705380" lon="-1.2553950">
        <ele>167.7</ele>
        <time>2019-07-15T14:35:40Z</time>
      </trkpt>
      <trkpt lat="43.1706530" lon="-1.2553790">
        <ele>167.3</ele>
        <time>2019-07-15T14:35:44Z</time>
      </trkpt>
      <trkpt lat="43.1707530" lon="-1.2554070">
        <ele>166.4</ele>
        <time>2019-07-15T14:35:47Z</time>
      </trkpt>
      <trkpt lat="43.1708540" lon="-1.2554420">
        <ele>165.7</ele>
        <time>2019-07-15T14:35:50Z</time>
      </trkpt>
      <trkpt lat="43.1709580" lon="-1.2554750">
        <ele>164.7</ele>
        <time>2019-07-15T14:35:53Z</time>
      </trkpt>
      <trkpt lat="43.1710590" lon="-1.2554990">
        <ele>163.8</ele>
        <time>2019-07-15T14:35:56Z</time>
      </trkpt>
      <trkpt lat="43.1711660" lon="-1.2555210">
        <ele>162.9</ele>
        <time>2019-07-15T14:35:59Z</time>
      </trkpt>
      <trkpt lat="43.1712760" lon="-1.2555760">
        <ele>162.4</ele>
        <time>2019-07-15T14:36:02Z</time>
      </trkpt>
      <trkpt lat="43.1713910" lon="-1.2556550">
        <ele>161.8</ele>
        <time>2019-07-15T14:36:05Z</time>
      </trkpt>
      <trkpt lat="43.1715170" lon="-1.2557100">
        <ele>161.2</ele>
        <time>2019-07-15T14:36:08Z</time>
      </trkpt>
      <trkpt lat="43.1716470" lon="-1.2556920">
        <ele>160.7</ele>
        <time>2019-07-15T14:36:11Z</time>
      </trkpt>
      <trkpt lat="43.1717330" lon="-1.2556530">
        <ele>160.4</ele>
        <time>2019-07-15T14:36:13Z</time>
      </trkpt>
      <trkpt lat="43.1718160" lon="-1.2556040">
        <ele>160.1</ele>
        <time>2019-07-15T14:36:15Z</time>
      </trkpt>
      <trkpt lat="43.1718970" lon="-1.2555470">
        <ele>159.7</ele>
        <time>2019-07-15T14:36:17Z</time>
      </trkpt>
      <trkpt lat="43.1719780" lon="-1.2554790">
        <ele>159.5</ele>
        <time>2019-07-15T14:36:19Z</time>
      </trkpt>
      <trkpt lat="43.1720910" lon="-1.2553790">
        <ele>159.5</ele>
        <time>2019-07-15T14:36:22Z</time>
      </trkpt>
      <trkpt lat="43.1722000" lon="-1.2552710">
        <ele>159.5</ele>
        <time>2019-07-15T14:36:25Z</time>
      </trkpt>
      <trkpt lat="43.1723040" lon="-1.2551560">
        <ele>159.5</ele>
        <time>2019-07-15T14:36:28Z</time>
      </trkpt>
      <trkpt lat="43.1724040" lon="-1.2550470">
        <ele>159.5</ele>
        <time>2019-07-15T14:36:31Z</time>
      </trkpt>
      <trkpt lat="43.1725160" lon="-1.2549570">
        <ele>159.4</ele>
        <time>2019-07-15T14:36:34Z</time>
      </trkpt>
      <trkpt lat="43.1726320" lon="-1.2548880">
        <ele>159.3</ele>
        <time>2019-07-15T14:36:37Z</time>
      </trkpt>
      <trkpt lat="43.1727420" lon="-1.2548220">
        <ele>159.2</ele>
        <time>2019-07-15T14:36:40Z</time>
      </trkpt>
      <trkpt lat="43.1728460" lon="-1.2547620">
        <ele>159.1</ele>
        <time>2019-07-15T14:36:43Z</time>
      </trkpt>
      <trkpt lat="43.1729460" lon="-1.2547010">
        <ele>159.0</ele>
        <time>2019-07-15T14:36:46Z</time>
      </trkpt>
      <trkpt lat="43.1730410" lon="-1.2546410">
        <ele>158.9</ele>
        <time>2019-07-15T14:36:49Z</time>
      </trkpt>
      <trkpt lat="43.1731170" lon="-1.2545670">
        <ele>158.8</ele>
        <time>2019-07-15T14:36:52Z</time>
      </trkpt>
      <trkpt lat="43.1731610" lon="-1.2544290">
        <ele>158.6</ele>
        <time>2019-07-15T14:36:56Z</time>
      </trkpt>
      <trkpt lat="43.1731340" lon="-1.2542780">
        <ele>158.7</ele>
        <time>2019-07-15T14:37:00Z</time>
      </trkpt>
      <trkpt lat="43.1730670" lon="-1.2541670">
        <ele>158.8</ele>
        <time>2019-07-15T14:37:04Z</time>
      </trkpt>
      <trkpt lat="43.1729790" lon="-1.2541030">
        <ele>158.8</ele>
        <time>2019-07-15T14:37:08Z</time>
      </trkpt>
      <trkpt lat="43.1728920" lon="-1.2540220">
        <ele>158.9</ele>
        <time>2019-07-15T14:37:13Z</time>
      </trkpt>
      <trkpt lat="43.1728170" lon="-1.2539270">
        <ele>158.9</ele>
        <time>2019-07-15T14:37:19Z</time>
      </trkpt>
      <trkpt lat="43.1727420" lon="-1.2538310">
        <ele>158.9</ele>
        <time>2019-07-15T14:37:25Z</time>
      </trkpt>
      <trkpt lat="43.1726500" lon="-1.2537940">
        <ele>158.9</ele>
        <time>2019-07-15T14:37:30Z</time>
      </trkpt>
      <trkpt lat="43.1725960" lon="-1.2536870">
        <ele>158.9</ele>
        <time>2019-07-15T14:37:36Z</time>
      </trkpt>
      <trkpt lat="43.1726040" lon="-1.2536820">
        <ele>158.9</ele>
        <time>2019-07-15T14:37:41Z</time>
      </trkpt>
      <trkpt lat="43.1725530" lon="-1.2535650">
        <ele>158.9</ele>
        <time>2019-07-16T07:54:55Z</time>
      </trkpt>
      <trkpt lat="43.1725320" lon="-1.2536280">
        <ele>158.9</ele>
        <time>2019-07-16T07:55:36Z</time>
      </trkpt>
      <trkpt lat="43.1726050" lon="-1.2537240">
        <ele>158.9</ele>
        <time>2019-07-16T07:55:48Z</time>
      </trkpt>
      <trkpt lat="43.1726850" lon="-1.2538080">
        <ele>158.9</ele>
        <time>2019-07-16T07:55:54Z</time>
      </trkpt>
      <trkpt lat="43.1727800" lon="-1.2538950">
        <ele>158.9</ele>
        <time>2019-07-16T07:56:01Z</time>
      </trkpt>
      <trkpt lat="43.1728560" lon="-1.2539680">
        <ele>158.9</ele>
        <time>2019-07-16T07:56:09Z</time>
      </trkpt>
      <trkpt lat="43.1729410" lon="-1.2540260">
        <ele>158.9</ele>
        <time>2019-07-16T07:56:16Z</time>
      </trkpt>
      <trkpt lat="43.1729730" lon="-1.2539720">
        <ele>158.9</ele>
        <time>2019-07-16T07:56:27Z</time>
      </trkpt>
      <trkpt lat="43.1729530" lon="-1.2539400">
        <ele>158.9</ele>
        <time>2019-07-16T07:56:56Z</time>
      </trkpt>
      <trkpt lat="43.1730280" lon="-1.2540560">
        <ele>158.8</ele>
        <time>2019-07-16T08:00:30Z</time>
      </trkpt>
      <trkpt lat="43.1729520" lon="-1.2539870">
        <ele>158.8</ele>
        <time>2019-07-16T08:00:42Z</time>
      </trkpt>
      <trkpt lat="43.1729180" lon="-1.2539720">
        <ele>158.8</ele>
        <time>2019-07-16T08:00:49Z</time>
      </trkpt>
      <trkpt lat="43.1729920" lon="-1.2540720">
        <ele>158.8</ele>
        <time>2019-07-16T08:00:58Z</time>
      </trkpt>
      <trkpt lat="43.1729560" lon="-1.2540630">
        <ele>158.8</ele>
        <time>2019-07-16T08:01:15Z</time>
      </trkpt>
      <trkpt lat="43.1730110" lon="-1.2541840">
        <ele>158.7</ele>
        <time>2019-07-16T08:02:05Z</time>
      </trkpt>
      <trkpt lat="43.1731030" lon="-1.2542680">
        <ele>158.6</ele>
        <time>2019-07-16T08:02:09Z</time>
      </trkpt>
      <trkpt lat="43.1731780" lon="-1.2543560">
        <ele>158.5</ele>
        <time>2019-07-16T08:02:13Z</time>
      </trkpt>
      <trkpt lat="43.1732880" lon="-1.2543300">
        <ele>158.3</ele>
        <time>2019-07-16T08:02:18Z</time>
      </trkpt>
      <trkpt lat="43.1733710" lon="-1.2542260">
        <ele>158.0</ele>
        <time>2019-07-16T08:02:22Z</time>
      </trkpt>
      <trkpt lat="43.1734410" lon="-1.2541340">
        <ele>157.8</ele>
        <time>2019-07-16T08:02:25Z</time>
      </trkpt>
      <trkpt lat="43.1735110" lon="-1.2540390">
        <ele>157.5</ele>
        <time>2019-07-16T08:02:28Z</time>
      </trkpt>
      <trkpt lat="43.1735960" lon="-1.2539780">
        <ele>157.2</ele>
        <time>2019-07-16T08:02:31Z</time>
      </trkpt>
      <trkpt lat="43.1736830" lon="-1.2539420">
        <ele>156.9</ele>
        <time>2019-07-16T08:02:34Z</time>
      </trkpt>
      <trkpt lat="43.1737930" lon="-1.2539140">
        <ele>156.6</ele>
        <time>2019-07-16T08:02:38Z</time>
      </trkpt>
      <trkpt lat="43.1738850" lon="-1.2538890">
        <ele>156.3</ele>
        <time>2019-07-16T08:02:41Z</time>
      </trkpt>
      <trkpt lat="43.1739940" lon="-1.2538700">
        <ele>156.1</ele>
        <time>2019-07-16T08:02:44Z</time>
      </trkpt>
      <trkpt lat="43.1741170" lon="-1.2538480">
        <ele>155.6</ele>
        <time>2019-07-16T08:02:47Z</time>
      </trkpt>
      <trkpt lat="43.1742150" lon="-1.2538290">
        <ele>155.4</ele>
        <time>2019-07-16T08:02:49Z</time>
      </trkpt>
      <trkpt lat="43.1743230" lon="-1.2538180">
        <ele>155.2</ele>
        <time>2019-07-16T08:02:51Z</time>
      </trkpt>
      <trkpt lat="43.1744490" lon="-1.2538150">
        <ele>154.9</ele>
        <time>2019-07-16T08:02:53Z</time>
      </trkpt>
      <trkpt lat="43.1745860" lon="-1.2538070">
        <ele>154.6</ele>
        <time>2019-07-16T08:02:55Z</time>
      </trkpt>
      <trkpt lat="43.1747220" lon="-1.2538000">
        <ele>154.3</ele>
        <time>2019-07-16T08:02:57Z</time>
      </trkpt>
      <trkpt lat="43.1748510" lon="-1.2537950">
        <ele>154.0</ele>
        <time>2019-07-16T08:02:59Z</time>
      </trkpt>
      <trkpt lat="43.1749750" lon="-1.2537890">
        <ele>153.7</ele>
        <time>2019-07-16T08:03:01Z</time>
      </trkpt>
      <trkpt lat="43.1750870" lon="-1.2537810">
        <ele>153.4</ele>
        <time>2019-07-16T08:03:03Z</time>
      </trkpt>
      <trkpt lat="43.1751770" lon="-1.2537710">
        <ele>153.2</ele>
        <time>2019-07-16T08:03:05Z</time>
      </trkpt>
      <trkpt lat="43.1752990" lon="-1.2537030">
        <ele>153.0</ele>
        <time>2019-07-16T08:03:11Z</time>
      </trkpt>
      <trkpt lat="43.1753100" lon="-1.2536840">
        <ele>152.9</ele>
        <time>2019-07-16T08:03:16Z</time>
      </trkpt>
      <trkpt lat="43.1752600" lon="-1.2535570">
        <ele>152.8</ele>
        <time>2019-07-16T08:03:21Z</time>
      </trkpt>
      <trkpt lat="43.1752100" lon="-1.2534150">
        <ele>152.7</ele>
        <time>2019-07-16T08:03:25Z</time>
      </trkpt>
      <trkpt lat="43.1751640" lon="-1.2533040">
        <ele>152.7</ele>
        <time>2019-07-16T08:03:28Z</time>
      </trkpt>
      <trkpt lat="43.1751160" lon="-1.2531980">
        <ele>152.7</ele>
        <time>2019-07-16T08:03:31Z</time>
      </trkpt>
      <trkpt lat="43.1750670" lon="-1.2530520">
        <ele>152.7</ele>
        <time>2019-07-16T08:03:35Z</time>
      </trkpt>
      <trkpt lat="43.1750060" lon="-1.2529400">
        <ele>152.7</ele>
        <time>2019-07-16T08:03:38Z</time>
      </trkpt>
      <trkpt lat="43.1749750" lon="-1.2528210">
        <ele>152.7</ele>
        <time>2019-07-16T08:03:41Z</time>
      </trkpt>
      <trkpt lat="43.1749380" lon="-1.2526990">
        <ele>152.8</ele>
        <time>2019-07-16T08:03:44Z</time>
      </trkpt>
      <trkpt lat="43.1748830" lon="-1.2525770">
        <ele>152.9</ele>
        <time>2019-07-16T08:03:47Z</time>
      </trkpt>
      <trkpt lat="43.1748230" lon="-1.2524490">
        <ele>152.7</ele>
        <time>2019-07-16T08:03:50Z</time>
      </trkpt>
      <trkpt lat="43.1747700" lon="-1.2523200">
        <ele>152.5</ele>
        <time>2019-07-16T08:03:53Z</time>
      </trkpt>
      <trkpt lat="43.1747130" lon="-1.2521960">
        <ele>152.3</ele>
        <time>2019-07-16T08:03:56Z</time>
      </trkpt>
      <trkpt lat="43.1746530" lon="-1.2520710">
        <ele>152.2</ele>
        <time>2019-07-16T08:03:59Z</time>
      </trkpt>
      <trkpt lat="43.1745960" lon="-1.2519500">
        <ele>152.1</ele>
        <time>2019-07-16T08:04:02Z</time>
      </trkpt>
      <trkpt lat="43.1745360" lon="-1.2518290">
        <ele>152.0</ele>
        <time>2019-07-16T08:04:05Z</time>
      </trkpt>
      <trkpt lat="43.1744740" lon="-1.2517160">
        <ele>151.9</ele>
        <time>2019-07-16T08:04:08Z</time>
      </trkpt>
      <trkpt lat="43.1744280" lon="-1.2516080">
        <ele>151.8</ele>
        <time>2019-07-16T08:04:11Z</time>
      </trkpt>
      <trkpt lat="43.1743650" lon="-1.2515010">
        <ele>151.8</ele>
        <time>2019-07-16T08:04:14Z</time>
      </trkpt>
      <trkpt lat="43.1742780" lon="-1.2514120">
        <ele>151.8</ele>
        <time>2019-07-16T08:04:17Z</time>
      </trkpt>
      <trkpt lat="43.1741730" lon="-1.2513320">
        <ele>151.8</ele>
        <time>2019-07-16T08:04:21Z</time>
      </trkpt>
      <trkpt lat="43.1740650" lon="-1.2512920">
        <ele>151.9</ele>
        <time>2019-07-16T08:04:25Z</time>
      </trkpt>
      <trkpt lat="43.1739650" lon="-1.2512580">
        <ele>152.0</ele>
        <time>2019-07-16T08:04:30Z</time>
      </trkpt>
      <trkpt lat="43.1738690" lon="-1.2512380">
        <ele>152.1</ele>
        <time>2019-07-16T08:04:36Z</time>
      </trkpt>
      <trkpt lat="43.1737620" lon="-1.2512330">
        <ele>152.2</ele>
        <time>2019-07-16T08:04:41Z</time>
      </trkpt>
      <trkpt lat="43.1736700" lon="-1.2512260">
        <ele>152.2</ele>
        <time>2019-07-16T08:04:44Z</time>
      </trkpt>
      <trkpt lat="43.1735690" lon="-1.2512090">
        <ele>152.3</ele>
        <time>2019-07-16T08:04:47Z</time>
      </trkpt>
      <trkpt lat="43.1734760" lon="-1.2511690">
        <ele>152.3</ele>
        <time>2019-07-16T08:04:51Z</time>
      </trkpt>
      <trkpt lat="43.1733910" lon="-1.2511110">
        <ele>152.3</ele>
        <time>2019-07-16T08:04:54Z</time>
      </trkpt>
      <trkpt lat="43.1732710" lon="-1.2510310">
        <ele>152.4</ele>
        <time>2019-07-16T08:04:57Z</time>
      </trkpt>
      <trkpt lat="43.1731920" lon="-1.2509610">
        <ele>152.5</ele>
        <time>2019-07-16T08:04:59Z</time>
      </trkpt>
      <trkpt lat="43.1731000" lon="-1.2508610">
        <ele>152.5</ele>
        <time>2019-07-16T08:05:02Z</time>
      </trkpt>
      <trkpt lat="43.1730210" lon="-1.2507840">
        <ele>152.6</ele>
        <time>2019-07-16T08:05:04Z</time>
      </trkpt>
      <trkpt lat="43.1729480" lon="-1.2507080">
        <ele>152.7</ele>
        <time>2019-07-16T08:05:06Z</time>
      </trkpt>
      <trkpt lat="43.1728770" lon="-1.2506260">
        <ele>152.8</ele>
        <time>2019-07-16T08:05:08Z</time>
      </trkpt>
      <trkpt lat="43.1728010" lon="-1.2505430">
        <ele>152.9</ele>
        <time>2019-07-16T08:05:10Z</time>
      </trkpt>
      <trkpt lat="43.1727050" lon="-1.2504570">
        <ele>153.1</ele>
        <time>2019-07-16T08:05:12Z</time>
      </trkpt>
      <trkpt lat="43.1726140" lon="-1.2503180">
        <ele>153.4</ele>
        <time>2019-07-16T08:05:15Z</time>
      </trkpt>
      <trkpt lat="43.1725540" lon="-1.2502180">
        <ele>153.7</ele>
        <time>2019-07-16T08:05:17Z</time>
      </trkpt>
      <trkpt lat="43.1724840" lon="-1.2500710">
        <ele>154.0</ele>
        <time>2019-07-16T08:05:20Z</time>
      </trkpt>
      <trkpt lat="43.1724440" lon="-1.2499230">
        <ele>154.4</ele>
        <time>2019-07-16T08:05:23Z</time>
      </trkpt>
      <trkpt lat="43.1724170" lon="-1.2497850">
        <ele>154.9</ele>
        <time>2019-07-16T08:05:26Z</time>
      </trkpt>
      <trkpt lat="43.1723620" lon="-1.2496460">
        <ele>155.4</ele>
        <time>2019-07-16T08:05:29Z</time>
      </trkpt>
      <trkpt lat="43.1723200" lon="-1.2494980">
        <ele>155.9</ele>
        <time>2019-07-16T08:05:32Z</time>
      </trkpt>
      <trkpt lat="43.1722390" lon="-1.2493560">
        <ele>156.5</ele>
        <time>2019-07-16T08:05:35Z</time>
      </trkpt>
      <trkpt lat="43.1721590" lon="-1.2492160">
        <ele>157.2</ele>
        <time>2019-07-16T08:05:38Z</time>
      </trkpt>
      <trkpt lat="43.1720650" lon="-1.2491280">
        <ele>157.8</ele>
        <time>2019-07-16T08:05:40Z</time>
      </trkpt>
      <trkpt lat="43.1719820" lon="-1.2490370">
        <ele>158.3</ele>
        <time>2019-07-16T08:05:42Z</time>
      </trkpt>
      <trkpt lat="43.1718940" lon="-1.2489560">
        <ele>158.8</ele>
        <time>2019-07-16T08:05:44Z</time>
      </trkpt>
      <trkpt lat="43.1718130" lon="-1.2488680">
        <ele>159.3</ele>
        <time>2019-07-16T08:05:46Z</time>
      </trkpt>
      <trkpt lat="43.1717110" lon="-1.2487450">
        <ele>159.9</ele>
        <time>2019-07-16T08:05:49Z</time>
      </trkpt>
      <trkpt lat="43.1716100" lon="-1.2486430">
        <ele>160.3</ele>
        <time>2019-07-16T08:05:52Z</time>
      </trkpt>
      <trkpt lat="43.1715270" lon="-1.2485780">
        <ele>160.6</ele>
        <time>2019-07-16T08:05:54Z</time>
      </trkpt>
      <trkpt lat="43.1714280" lon="-1.2484830">
        <ele>161.1</ele>
        <time>2019-07-16T08:05:57Z</time>
      </trkpt>
      <trkpt lat="43.1713590" lon="-1.2483750">
        <ele>161.5</ele>
        <time>2019-07-16T08:06:00Z</time>
      </trkpt>
      <trkpt lat="43.1712470" lon="-1.2482860">
        <ele>162.0</ele>
        <time>2019-07-16T08:06:03Z</time>
      </trkpt>
      <trkpt lat="43.1710890" lon="-1.2482070">
        <ele>162.3</ele>
        <time>2019-07-16T08:06:06Z</time>
      </trkpt>
      <trkpt lat="43.1709790" lon="-1.2481420">
        <ele>162.3</ele>
        <time>2019-07-16T08:06:09Z</time>
      </trkpt>
      <trkpt lat="43.1708610" lon="-1.2480840">
        <ele>161.3</ele>
        <time>2019-07-16T08:06:12Z</time>
      </trkpt>
      <trkpt lat="43.1707480" lon="-1.2480300">
        <ele>160.3</ele>
        <time>2019-07-16T08:06:15Z</time>
      </trkpt>
      <trkpt lat="43.1706300" lon="-1.2479710">
        <ele>159.3</ele>
        <time>2019-07-16T08:06:18Z</time>
      </trkpt>
      <trkpt lat="43.1705220" lon="-1.2479160">
        <ele>158.2</ele>
        <time>2019-07-16T08:06:21Z</time>
      </trkpt>
      <trkpt lat="43.1704090" lon="-1.2478570">
        <ele>157.3</ele>
        <time>2019-07-16T08:06:24Z</time>
      </trkpt>
      <trkpt lat="43.1702960" lon="-1.2478000">
        <ele>156.3</ele>
        <time>2019-07-16T08:06:27Z</time>
      </trkpt>
      <trkpt lat="43.1701890" lon="-1.2477460">
        <ele>155.3</ele>
        <time>2019-07-16T08:06:30Z</time>
      </trkpt>
      <trkpt lat="43.1700710" lon="-1.2476860">
        <ele>154.3</ele>
        <time>2019-07-16T08:06:33Z</time>
      </trkpt>
      <trkpt lat="43.1699680" lon="-1.2476350">
        <ele>153.6</ele>
        <time>2019-07-16T08:06:36Z</time>
      </trkpt>
      <trkpt lat="43.1698720" lon="-1.2475860">
        <ele>153.6</ele>
        <time>2019-07-16T08:06:39Z</time>
      </trkpt>
      <trkpt lat="43.1697500" lon="-1.2475300">
        <ele>153.6</ele>
        <time>2019-07-16T08:06:42Z</time>
      </trkpt>
      <trkpt lat="43.1696510" lon="-1.2474790">
        <ele>153.7</ele>
        <time>2019-07-16T08:06:45Z</time>
      </trkpt>
      <trkpt lat="43.1695520" lon="-1.2474300">
        <ele>153.9</ele>
        <time>2019-07-16T08:06:48Z</time>
      </trkpt>
      <trkpt lat="43.1694640" lon="-1.2473810">
        <ele>154.1</ele>
        <time>2019-07-16T08:06:51Z</time>
      </trkpt>
      <trkpt lat="43.1693430" lon="-1.2473410">
        <ele>154.4</ele>
        <time>2019-07-16T08:06:53Z</time>
      </trkpt>
      <trkpt lat="43.1692530" lon="-1.2473000">
        <ele>154.7</ele>
        <time>2019-07-16T08:06:55Z</time>
      </trkpt>
      <trkpt lat="43.1691380" lon="-1.2472410">
        <ele>154.8</ele>
        <time>2019-07-16T08:06:58Z</time>
      </trkpt>
      <trkpt lat="43.1690240" lon="-1.2471870">
        <ele>154.7</ele>
        <time>2019-07-16T08:07:01Z</time>
      </trkpt>
      <trkpt lat="43.1689170" lon="-1.2471310">
        <ele>154.6</ele>
        <time>2019-07-16T08:07:04Z</time>
      </trkpt>
      <trkpt lat="43.1688040" lon="-1.2470670">
        <ele>154.5</ele>
        <time>2019-07-16T08:07:07Z</time>
      </trkpt>
      <trkpt lat="43.1686930" lon="-1.2470100">
        <ele>154.4</ele>
        <time>2019-07-16T08:07:10Z</time>
      </trkpt>
      <trkpt lat="43.1685850" lon="-1.2469550">
        <ele>154.3</ele>
        <time>2019-07-16T08:07:13Z</time>
      </trkpt>
      <trkpt lat="43.1684740" lon="-1.2469010">
        <ele>154.2</ele>
        <time>2019-07-16T08:07:16Z</time>
      </trkpt>
      <trkpt lat="43.1683640" lon="-1.2468440">
        <ele>154.0</ele>
        <time>2019-07-16T08:07:19Z</time>
      </trkpt>
      <trkpt lat="43.1682550" lon="-1.2467910">
        <ele>154.0</ele>
        <time>2019-07-16T08:07:22Z</time>
      </trkpt>
      <trkpt lat="43.1681420" lon="-1.2467410">
        <ele>154.1</ele>
        <time>2019-07-16T08:07:25Z</time>
      </trkpt>
      <trkpt lat="43.1680280" lon="-1.2466860">
        <ele>154.2</ele>
        <time>2019-07-16T08:07:28Z</time>
      </trkpt>
      <trkpt lat="43.1679130" lon="-1.2466300">
        <ele>154.4</ele>
        <time>2019-07-16T08:07:31Z</time>
      </trkpt>
      <trkpt lat="43.1678030" lon="-1.2465740">
        <ele>154.5</ele>
        <time>2019-07-16T08:07:34Z</time>
      </trkpt>
      <trkpt lat="43.1676950" lon="-1.2465120">
        <ele>154.6</ele>
        <time>2019-07-16T08:07:37Z</time>
      </trkpt>
      <trkpt lat="43.1675760" lon="-1.2464480">
        <ele>154.7</ele>
        <time>2019-07-16T08:07:40Z</time>
      </trkpt>
      <trkpt lat="43.1674600" lon="-1.2463970">
        <ele>154.8</ele>
        <time>2019-07-16T08:07:43Z</time>
      </trkpt>
      <trkpt lat="43.1673410" lon="-1.2463390">
        <ele>154.9</ele>
        <time>2019-07-16T08:07:46Z</time>
      </trkpt>
      <trkpt lat="43.1672280" lon="-1.2462830">
        <ele>155.0</ele>
        <time>2019-07-16T08:07:49Z</time>
      </trkpt>
      <trkpt lat="43.1671180" lon="-1.2462250">
        <ele>155.1</ele>
        <time>2019-07-16T08:07:52Z</time>
      </trkpt>
      <trkpt lat="43.1670150" lon="-1.2461710">
        <ele>155.2</ele>
        <time>2019-07-16T08:07:55Z</time>
      </trkpt>
      <trkpt lat="43.1669130" lon="-1.2461300">
        <ele>155.3</ele>
        <time>2019-07-16T08:07:58Z</time>
      </trkpt>
      <trkpt lat="43.1668100" lon="-1.2460850">
        <ele>155.3</ele>
        <time>2019-07-16T08:08:01Z</time>
      </trkpt>
      <trkpt lat="43.1667040" lon="-1.2460060">
        <ele>155.4</ele>
        <time>2019-07-16T08:08:04Z</time>
      </trkpt>
      <trkpt lat="43.1666030" lon="-1.2459020">
        <ele>155.6</ele>
        <time>2019-07-16T08:08:07Z</time>
      </trkpt>
      <trkpt lat="43.1665180" lon="-1.2457870">
        <ele>155.7</ele>
        <time>2019-07-16T08:08:10Z</time>
      </trkpt>
      <trkpt lat="43.1664450" lon="-1.2456710">
        <ele>155.9</ele>
        <time>2019-07-16T08:08:13Z</time>
      </trkpt>
      <trkpt lat="43.1663710" lon="-1.2455520">
        <ele>156.1</ele>
        <time>2019-07-16T08:08:16Z</time>
      </trkpt>
      <trkpt lat="43.1662960" lon="-1.2454360">
        <ele>156.3</ele>
        <time>2019-07-16T08:08:19Z</time>
      </trkpt>
      <trkpt lat="43.1662150" lon="-1.2453250">
        <ele>156.5</ele>
        <time>2019-07-16T08:08:22Z</time>
      </trkpt>
      <trkpt lat="43.1661290" lon="-1.2452120">
        <ele>156.8</ele>
        <time>2019-07-16T08:08:25Z</time>
      </trkpt>
      <trkpt lat="43.1660410" lon="-1.2450980">
        <ele>157.0</ele>
        <time>2019-07-16T08:08:28Z</time>
      </trkpt>
      <trkpt lat="43.1659630" lon="-1.2449830">
        <ele>157.4</ele>
        <time>2019-07-16T08:08:31Z</time>
      </trkpt>
      <trkpt lat="43.1658780" lon="-1.2448650">
        <ele>157.7</ele>
        <time>2019-07-16T08:08:34Z</time>
      </trkpt>
      <trkpt lat="43.1657800" lon="-1.2447590">
        <ele>158.2</ele>
        <time>2019-07-16T08:08:37Z</time>
      </trkpt>
      <trkpt lat="43.1657010" lon="-1.2446500">
        <ele>158.6</ele>
        <time>2019-07-16T08:08:40Z</time>
      </trkpt>
      <trkpt lat="43.1656190" lon="-1.2445430">
        <ele>159.2</ele>
        <time>2019-07-16T08:08:43Z</time>
      </trkpt>
      <trkpt lat="43.1655490" lon="-1.2444450">
        <ele>159.7</ele>
        <time>2019-07-16T08:08:46Z</time>
      </trkpt>
      <trkpt lat="43.1654590" lon="-1.2443320">
        <ele>160.4</ele>
        <time>2019-07-16T08:08:50Z</time>
      </trkpt>
      <trkpt lat="43.1653910" lon="-1.2442430">
        <ele>160.9</ele>
        <time>2019-07-16T08:08:53Z</time>
      </trkpt>
      <trkpt lat="43.1653040" lon="-1.2441330">
        <ele>161.4</ele>
        <time>2019-07-16T08:08:57Z</time>
      </trkpt>
      <trkpt lat="43.1652320" lon="-1.2440280">
        <ele>161.9</ele>
        <time>2019-07-16T08:09:01Z</time>
      </trkpt>
      <trkpt lat="43.1651630" lon="-1.2439040">
        <ele>162.3</ele>
        <time>2019-07-16T08:09:05Z</time>
      </trkpt>
      <trkpt lat="43.1650860" lon="-1.2438270">
        <ele>162.6</ele>
        <time>2019-07-16T08:09:08Z</time>
      </trkpt>
      <trkpt lat="43.1650070" lon="-1.2437050">
        <ele>162.9</ele>
        <time>2019-07-16T08:09:12Z</time>
      </trkpt>
      <trkpt lat="43.1649200" lon="-1.2436140">
        <ele>163.2</ele>
        <time>2019-07-16T08:09:15Z</time>
      </trkpt>
      <trkpt lat="43.1648470" lon="-1.2435250">
        <ele>163.4</ele>
        <time>2019-07-16T08:09:18Z</time>
      </trkpt>
      <trkpt lat="43.1647850" lon="-1.2434160">
        <ele>163.8</ele>
        <time>2019-07-16T08:09:21Z</time>
      </trkpt>
      <trkpt lat="43.1647490" lon="-1.2432780">
        <ele>164.7</ele>
        <time>2019-07-16T08:09:24Z</time>
      </trkpt>
      <trkpt lat="43.1646620" lon="-1.2431710">
        <ele>166.2</ele>
        <time>2019-07-16T08:09:27Z</time>
      </trkpt>
      <trkpt lat="43.1645710" lon="-1.2430490">
        <ele>168.0</ele>
        <time>2019-07-16T08:09:30Z</time>
      </trkpt>
      <trkpt lat="43.1645090" lon="-1.2429590">
        <ele>169.2</ele>
        <time>2019-07-16T08:09:32Z</time>
      </trkpt>
      <trkpt lat="43.1644460" lon="-1.2428700">
        <ele>170.5</ele>
        <time>2019-07-16T08:09:34Z</time>
      </trkpt>
      <trkpt lat="43.1643640" lon="-1.2427460">
        <ele>171.2</ele>
        <time>2019-07-16T08:09:37Z</time>
      </trkpt>
      <trkpt lat="43.1642750" lon="-1.2426200">
        <ele>171.3</ele>
        <time>2019-07-16T08:09:40Z</time>
      </trkpt>
      <trkpt lat="43.1641930" lon="-1.2425010">
        <ele>171.5</ele>
        <time>2019-07-16T08:09:43Z</time>
      </trkpt>
      <trkpt lat="43.1641470" lon="-1.2423660">
        <ele>171.6</ele>
        <time>2019-07-16T08:09:46Z</time>
      </trkpt>
      <trkpt lat="43.1641010" lon="-1.2422100">
        <ele>171.4</ele>
        <time>2019-07-16T08:09:49Z</time>
      </trkpt>
      <trkpt lat="43.1640500" lon="-1.2420490">
        <ele>170.7</ele>
        <time>2019-07-16T08:09:52Z</time>
      </trkpt>
      <trkpt lat="43.1639930" lon="-1.2419360">
        <ele>170.1</ele>
        <time>2019-07-16T08:09:54Z</time>
      </trkpt>
      <trkpt lat="43.1639550" lon="-1.2418120">
        <ele>169.4</ele>
        <time>2019-07-16T08:09:56Z</time>
      </trkpt>
      <trkpt lat="43.1639290" lon="-1.2416820">
        <ele>168.7</ele>
        <time>2019-07-16T08:09:58Z</time>
      </trkpt>
      <trkpt lat="43.1639130" lon="-1.2415560">
        <ele>167.9</ele>
        <time>2019-07-16T08:10:00Z</time>
      </trkpt>
      <trkpt lat="43.1638940" lon="-1.2413770">
        <ele>166.7</ele>
        <time>2019-07-16T08:10:03Z</time>
      </trkpt>
      <trkpt lat="43.1638310" lon="-1.2412790">
        <ele>165.9</ele>
        <time>2019-07-16T08:10:05Z</time>
      </trkpt>
      <trkpt lat="43.1637290" lon="-1.2411670">
        <ele>164.8</ele>
        <time>2019-07-16T08:10:08Z</time>
      </trkpt>
      <trkpt lat="43.1636350" lon="-1.2410590">
        <ele>163.9</ele>
        <time>2019-07-16T08:10:11Z</time>
      </trkpt>
      <trkpt lat="43.1635470" lon="-1.2409510">
        <ele>163.8</ele>
        <time>2019-07-16T08:10:14Z</time>
      </trkpt>
      <trkpt lat="43.1634870" lon="-1.2408300">
        <ele>163.7</ele>
        <time>2019-07-16T08:10:17Z</time>
      </trkpt>
      <trkpt lat="43.1634210" lon="-1.2407190">
        <ele>163.7</ele>
        <time>2019-07-16T08:10:20Z</time>
      </trkpt>
      <trkpt lat="43.1633310" lon="-1.2406190">
        <ele>163.6</ele>
        <time>2019-07-16T08:10:23Z</time>
      </trkpt>
      <trkpt lat="43.1632480" lon="-1.2405270">
        <ele>163.5</ele>
        <time>2019-07-16T08:10:26Z</time>
      </trkpt>
      <trkpt lat="43.1631630" lon="-1.2404360">
        <ele>163.4</ele>
        <time>2019-07-16T08:10:29Z</time>
      </trkpt>
      <trkpt lat="43.1631000" lon="-1.2403420">
        <ele>163.4</ele>
        <time>2019-07-16T08:10:32Z</time>
      </trkpt>
      <trkpt lat="43.1630250" lon="-1.2402550">
        <ele>163.3</ele>
        <time>2019-07-16T08:10:35Z</time>
      </trkpt>
      <trkpt lat="43.1629420" lon="-1.2401550">
        <ele>163.4</ele>
        <time>2019-07-16T08:10:39Z</time>
      </trkpt>
      <trkpt lat="43.1628760" lon="-1.2400630">
        <ele>163.7</ele>
        <time>2019-07-16T08:10:43Z</time>
      </trkpt>
      <trkpt lat="43.1628000" lon="-1.2399670">
        <ele>164.1</ele>
        <time>2019-07-16T08:10:47Z</time>
      </trkpt>
      <trkpt lat="43.1627250" lon="-1.2398520">
        <ele>164.2</ele>
        <time>2019-07-16T08:10:51Z</time>
      </trkpt>
      <trkpt lat="43.1626630" lon="-1.2397820">
        <ele>164.4</ele>
        <time>2019-07-16T08:10:59Z</time>
      </trkpt>
      <trkpt lat="43.1627650" lon="-1.2397850">
        <ele>164.5</ele>
        <time>2019-07-16T08:11:28Z</time>
      </trkpt>
      <trkpt lat="43.1628500" lon="-1.2398840">
        <ele>164.1</ele>
        <time>2019-07-16T08:11:32Z</time>
      </trkpt>
      <trkpt lat="43.1629300" lon="-1.2399730">
        <ele>163.8</ele>
        <time>2019-07-16T08:11:35Z</time>
      </trkpt>
      <trkpt lat="43.1630090" lon="-1.2400660">
        <ele>163.4</ele>
        <time>2019-07-16T08:11:38Z</time>
      </trkpt>
      <trkpt lat="43.1630730" lon="-1.2401860">
        <ele>163.3</ele>
        <time>2019-07-16T08:11:43Z</time>
      </trkpt>
      <trkpt lat="43.1630880" lon="-1.2402040">
        <ele>163.3</ele>
        <time>2019-07-16T08:11:48Z</time>
      </trkpt>
      <trkpt lat="43.1629950" lon="-1.2401920">
        <ele>163.4</ele>
        <time>2019-07-16T08:15:53Z</time>
      </trkpt>
      <trkpt lat="43.1629340" lon="-1.2400950">
        <ele>163.6</ele>
        <time>2019-07-16T08:15:58Z</time>
      </trkpt>
      <trkpt lat="43.1628480" lon="-1.2399830">
        <ele>163.9</ele>
        <time>2019-07-16T08:16:02Z</time>
      </trkpt>
      <trkpt lat="43.1627710" lon="-1.2398880">
        <ele>164.3</ele>
        <time>2019-07-16T08:16:05Z</time>
      </trkpt>
      <trkpt lat="43.1627020" lon="-1.2397830">
        <ele>164.6</ele>
        <time>2019-07-16T08:16:08Z</time>
      </trkpt>
      <trkpt lat="43.1626300" lon="-1.2396810">
        <ele>164.9</ele>
        <time>2019-07-16T08:16:11Z</time>
      </trkpt>
      <trkpt lat="43.1625660" lon="-1.2395840">
        <ele>165.3</ele>
        <time>2019-07-16T08:16:14Z</time>
      </trkpt>
      <trkpt lat="43.1625020" lon="-1.2394850">
        <ele>166.1</ele>
        <time>2019-07-16T08:16:17Z</time>
      </trkpt>
      <trkpt lat="43.1624210" lon="-1.2393950">
        <ele>167.7</ele>
        <time>2019-07-16T08:16:20Z</time>
      </trkpt>
      <trkpt lat="43.1623300" lon="-1.2393090">
        <ele>169.1</ele>
        <time>2019-07-16T08:16:23Z</time>
      </trkpt>
      <trkpt lat="43.1622320" lon="-1.2392140">
        <ele>170.2</ele>
        <time>2019-07-16T08:16:26Z</time>
      </trkpt>
      <trkpt lat="43.1621320" lon="-1.2391190">
        <ele>171.1</ele>
        <time>2019-07-16T08:16:29Z</time>
      </trkpt>
      <trkpt lat="43.1620490" lon="-1.2390230">
        <ele>171.9</ele>
        <time>2019-07-16T08:16:32Z</time>
      </trkpt>
      <trkpt lat="43.1619720" lon="-1.2389260">
        <ele>172.6</ele>
        <time>2019-07-16T08:16:35Z</time>
      </trkpt>
      <trkpt lat="43.1619160" lon="-1.2388110">
        <ele>173.2</ele>
        <time>2019-07-16T08:16:38Z</time>
      </trkpt>
      <trkpt lat="43.1619730" lon="-1.2386940">
        <ele>173.8</ele>
        <time>2019-07-16T08:16:42Z</time>
      </trkpt>
      <trkpt lat="43.1620200" lon="-1.2386870">
        <ele>174.0</ele>
        <time>2019-07-16T08:16:50Z</time>
      </trkpt>
      <trkpt lat="43.1620780" lon="-1.2386900">
        <ele>174.3</ele>
        <time>2019-07-16T08:17:11Z</time>
      </trkpt>
      <trkpt lat="43.1619850" lon="-1.2386980">
        <ele>174.8</ele>
        <time>2019-07-16T08:17:27Z</time>
      </trkpt>
      <trkpt lat="43.1618930" lon="-1.2387230">
        <ele>174.8</ele>
        <time>2019-07-16T08:17:36Z</time>
      </trkpt>
      <trkpt lat="43.1617970" lon="-1.2387370">
        <ele>174.8</ele>
        <time>2019-07-16T08:17:49Z</time>
      </trkpt>
      <trkpt lat="43.1617530" lon="-1.2386240">
        <ele>173.7</ele>
        <time>2019-07-16T08:17:58Z</time>
      </trkpt>
      <trkpt lat="43.1617080" lon="-1.2385140">
        <ele>173.1</ele>
        <time>2019-07-16T08:18:07Z</time>
      </trkpt>
      <trkpt lat="43.1616810" lon="-1.2383930">
        <ele>172.5</ele>
        <time>2019-07-16T08:18:14Z</time>
      </trkpt>
      <trkpt lat="43.1616720" lon="-1.2383380">
        <ele>172.2</ele>
        <time>2019-07-16T08:18:21Z</time>
      </trkpt>
      <trkpt lat="43.1616310" lon="-1.2382120">
        <ele>171.6</ele>
        <time>2019-07-16T08:18:26Z</time>
      </trkpt>
      <trkpt lat="43.1615610" lon="-1.2379860">
        <ele>170.6</ele>
        <time>2019-07-16T08:18:32Z</time>
      </trkpt>
      <trkpt lat="43.1615230" lon="-1.2378100">
        <ele>169.6</ele>
        <time>2019-07-16T08:18:37Z</time>
      </trkpt>
      <trkpt lat="43.1615660" lon="-1.2376950">
        <ele>168.7</ele>
        <time>2019-07-16T08:18:43Z</time>
      </trkpt>
      <trkpt lat="43.1616430" lon="-1.2376010">
        <ele>168.7</ele>
        <time>2019-07-16T08:18:51Z</time>
      </trkpt>
      <trkpt lat="43.1617230" lon="-1.2375140">
        <ele>168.6</ele>
        <time>2019-07-16T08:19:08Z</time>
      </trkpt>
      <trkpt lat="43.1617610" lon="-1.2373640">
        <ele>168.6</ele>
        <time>2019-07-16T08:19:21Z</time>
      </trkpt>
      <trkpt lat="43.1617220" lon="-1.2374250">
        <ele>168.6</ele>
        <time>2019-07-16T08:19:35Z</time>
      </trkpt>
      <trkpt lat="43.1615650" lon="-1.2375720">
        <ele>168.5</ele>
        <time>2019-07-16T08:19:55Z</time>
      </trkpt>
      <trkpt lat="43.1614040" lon="-1.2376550">
        <ele>168.4</ele>
        <time>2019-07-16T08:20:04Z</time>
      </trkpt>
      <trkpt lat="43.1612960" lon="-1.2376630">
        <ele>168.3</ele>
        <time>2019-07-16T08:20:07Z</time>
      </trkpt>
      <trkpt lat="43.1613590" lon="-1.2375610">
        <ele>168.3</ele>
        <time>2019-07-16T08:20:13Z</time>
      </trkpt>
      <trkpt lat="43.1614420" lon="-1.2374910">
        <ele>168.2</ele>
        <time>2019-07-16T08:20:16Z</time>
      </trkpt>
      <trkpt lat="43.1615400" lon="-1.2374760">
        <ele>168.2</ele>
        <time>2019-07-16T08:20:20Z</time>
      </trkpt>
      <trkpt lat="43.1616120" lon="-1.2374000">
        <ele>168.2</ele>
        <time>2019-07-16T08:20:25Z</time>
      </trkpt>
      <trkpt lat="43.1616630" lon="-1.2372650">
        <ele>168.1</ele>
        <time>2019-07-16T08:20:36Z</time>
      </trkpt>
      <trkpt lat="43.1617170" lon="-1.2372380">
        <ele>168.1</ele>
        <time>2019-07-16T08:20:44Z</time>
      </trkpt>
      <trkpt lat="43.1617950" lon="-1.2373900">
        <ele>168.0</ele>
        <time>2019-07-16T08:21:10Z</time>
      </trkpt>
      <trkpt lat="43.1618830" lon="-1.2374420">
        <ele>168.0</ele>
        <time>2019-07-16T08:21:15Z</time>
      </trkpt>
      <trkpt lat="43.1619730" lon="-1.2374610">
        <ele>167.9</ele>
        <time>2019-07-16T08:21:17Z</time>
      </trkpt>
      <trkpt lat="43.1620610" lon="-1.2374980">
        <ele>167.9</ele>
        <time>2019-07-16T08:21:19Z</time>
      </trkpt>
      <trkpt lat="43.1621590" lon="-1.2375520">
        <ele>167.8</ele>
        <time>2019-07-16T08:21:22Z</time>
      </trkpt>
      <trkpt lat="43.1620620" lon="-1.2375610">
        <ele>168.0</ele>
        <time>2019-07-16T08:21:27Z</time>
      </trkpt>
      <trkpt lat="43.1619810" lon="-1.2376140">
        <ele>168.0</ele>
        <time>2019-07-16T08:21:30Z</time>
      </trkpt>
      <trkpt lat="43.1618850" lon="-1.2376240">
        <ele>168.0</ele>
        <time>2019-07-16T08:21:38Z</time>
      </trkpt>
      <trkpt lat="43.1617910" lon="-1.2376070">
        <ele>168.0</ele>
        <time>2019-07-16T08:21:49Z</time>
      </trkpt>
      <trkpt lat="43.1617750" lon="-1.2376030">
        <ele>168.1</ele>
        <time>2019-07-16T08:21:52Z</time>
      </trkpt>
      <trkpt lat="43.1617830" lon="-1.2376560">
        <ele>168.1</ele>
        <time>2019-07-16T08:22:13Z</time>
      </trkpt>
      <trkpt lat="43.1617520" lon="-1.2376010">
        <ele>168.1</ele>
        <time>2019-07-16T08:22:25Z</time>
      </trkpt>
      <trkpt lat="43.1617070" lon="-1.2375220">
        <ele>168.1</ele>
        <time>2019-07-16T08:22:43Z</time>
      </trkpt>
      <trkpt lat="43.1617170" lon="-1.2376890">
        <ele>168.1</ele>
        <time>2019-07-16T08:23:05Z</time>
      </trkpt>
      <trkpt lat="43.1617070" lon="-1.2376660">
        <ele>168.1</ele>
        <time>2019-07-16T08:23:09Z</time>
      </trkpt>
      <trkpt lat="43.1617130" lon="-1.2375530">
        <ele>168.1</ele>
        <time>2019-07-16T08:23:14Z</time>
      </trkpt>
      <trkpt lat="43.1617130" lon="-1.2375340">
        <ele>168.2</ele>
        <time>2019-07-16T08:23:24Z</time>
      </trkpt>
      <trkpt lat="43.1617600" lon="-1.2375520">
        <ele>168.2</ele>
        <time>2019-07-16T08:23:33Z</time>
      </trkpt>
      <trkpt lat="43.1617660" lon="-1.2377050">
        <ele>168.2</ele>
        <time>2019-07-16T08:23:58Z</time>
      </trkpt>
      <trkpt lat="43.1617690" lon="-1.2375790">
        <ele>168.2</ele>
        <time>2019-07-16T08:24:06Z</time>
      </trkpt>
      <trkpt lat="43.1617730" lon="-1.2375450">
        <ele>168.2</ele>
        <time>2019-07-16T08:24:13Z</time>
      </trkpt>
      <trkpt lat="43.1617690" lon="-1.2375500">
        <ele>168.2</ele>
        <time>2019-07-16T08:24:25Z</time>
      </trkpt>
      <trkpt lat="43.1618040" lon="-1.2374350">
        <ele>168.2</ele>
        <time>2019-07-16T08:24:37Z</time>
      </trkpt>
      <trkpt lat="43.1618060" lon="-1.2372240">
        <ele>168.3</ele>
        <time>2019-07-16T08:24:43Z</time>
      </trkpt>
      <trkpt lat="43.1617980" lon="-1.2373520">
        <ele>168.3</ele>
        <time>2019-07-16T08:24:48Z</time>
      </trkpt>
      <trkpt lat="43.1617890" lon="-1.2374810">
        <ele>168.3</ele>
        <time>2019-07-16T08:24:56Z</time>
      </trkpt>
      <trkpt lat="43.1617930" lon="-1.2374770">
        <ele>168.3</ele>
        <time>2019-07-16T08:24:58Z</time>
      </trkpt>
      <trkpt lat="43.1618010" lon="-1.2376380">
        <ele>168.4</ele>
        <time>2019-07-16T08:25:07Z</time>
      </trkpt>
      <trkpt lat="43.1616830" lon="-1.2376260">
        <ele>168.4</ele>
        <time>2019-07-16T08:25:20Z</time>
      </trkpt>
      <trkpt lat="43.1615790" lon="-1.2376750">
        <ele>168.4</ele>
        <time>2019-07-16T08:25:36Z</time>
      </trkpt>
      <trkpt lat="43.1616690" lon="-1.2376440">
        <ele>168.5</ele>
        <time>2019-07-16T08:25:46Z</time>
      </trkpt>
      <trkpt lat="43.1616050" lon="-1.2377570">
        <ele>168.5</ele>
        <time>2019-07-16T08:26:08Z</time>
      </trkpt>
      <trkpt lat="43.1618440" lon="-1.2376720">
        <ele>168.6</ele>
        <time>2019-07-16T08:26:34Z</time>
      </trkpt>
      <trkpt lat="43.1618210" lon="-1.2375390">
        <ele>168.6</ele>
        <time>2019-07-16T08:26:42Z</time>
      </trkpt>
      <trkpt lat="43.1616880" lon="-1.2376310">
        <ele>168.6</ele>
        <time>2019-07-16T08:26:57Z</time>
      </trkpt>
      <trkpt lat="43.1615730" lon="-1.2375790">
        <ele>168.7</ele>
        <time>2019-07-16T08:27:17Z</time>
      </trkpt>
      <trkpt lat="43.1616560" lon="-1.2375250">
        <ele>168.7</ele>
        <time>2019-07-16T08:27:33Z</time>
      </trkpt>
      <trkpt lat="43.1615740" lon="-1.2376260">
        <ele>168.7</ele>
        <time>2019-07-16T08:27:44Z</time>
      </trkpt>
      <trkpt lat="43.1614780" lon="-1.2375590">
        <ele>168.7</ele>
        <time>2019-07-16T08:27:49Z</time>
      </trkpt>
      <trkpt lat="43.1615990" lon="-1.2375750">
        <ele>168.8</ele>
        <time>2019-07-16T08:27:54Z</time>
      </trkpt>
      <trkpt lat="43.1616870" lon="-1.2375390">
        <ele>168.8</ele>
        <time>2019-07-16T08:27:59Z</time>
      </trkpt>
      <trkpt lat="43.1616960" lon="-1.2375150">
        <ele>168.8</ele>
        <time>2019-07-16T08:28:03Z</time>
      </trkpt>
      <trkpt lat="43.1617520" lon="-1.2376170">
        <ele>168.8</ele>
        <time>2019-07-16T08:28:39Z</time>
      </trkpt>
      <trkpt lat="43.1616350" lon="-1.2375940">
        <ele>168.8</ele>
        <time>2019-07-16T08:28:55Z</time>
      </trkpt>
      <trkpt lat="43.1615540" lon="-1.2376720">
        <ele>168.9</ele>
        <time>2019-07-16T08:29:04Z</time>
      </trkpt>
      <trkpt lat="43.1614650" lon="-1.2377310">
        <ele>168.9</ele>
        <time>2019-07-16T08:29:15Z</time>
      </trkpt>
      <trkpt lat="43.1613780" lon="-1.2378010">
        <ele>169.5</ele>
        <time>2019-07-16T08:29:25Z</time>
      </trkpt>
      <trkpt lat="43.1613080" lon="-1.2378850">
        <ele>170.2</ele>
        <time>2019-07-16T08:29:38Z</time>
      </trkpt>
      <trkpt lat="43.1613110" lon="-1.2378820">
        <ele>170.2</ele>
        <time>2019-07-16T08:29:40Z</time>
      </trkpt>
      <trkpt lat="43.1612140" lon="-1.2379260">
        <ele>171.0</ele>
        <time>2019-07-16T08:29:48Z</time>
      </trkpt>
      <trkpt lat="43.1611250" lon="-1.2379600">
        <ele>171.7</ele>
        <time>2019-07-16T08:29:56Z</time>
      </trkpt>
      <trkpt lat="43.1610370" lon="-1.2380060">
        <ele>172.3</ele>
        <time>2019-07-16T08:30:04Z</time>
      </trkpt>
      <trkpt lat="43.1609490" lon="-1.2380460">
        <ele>173.2</ele>
        <time>2019-07-16T08:30:13Z</time>
      </trkpt>
      <trkpt lat="43.1608630" lon="-1.2380960">
        <ele>174.0</ele>
        <time>2019-07-16T08:30:24Z</time>
      </trkpt>
      <trkpt lat="43.1607710" lon="-1.2381360">
        <ele>174.8</ele>
        <time>2019-07-16T08:30:35Z</time>
      </trkpt>
      <trkpt lat="43.1606710" lon="-1.2381610">
        <ele>175.4</ele>
        <time>2019-07-16T08:30:43Z</time>
      </trkpt>
      <trkpt lat="43.1606030" lon="-1.2382580">
        <ele>176.0</ele>
        <time>2019-07-16T08:30:52Z</time>
      </trkpt>
      <trkpt lat="43.1605190" lon="-1.2383080">
        <ele>176.5</ele>
        <time>2019-07-16T08:31:01Z</time>
      </trkpt>
      <trkpt lat="43.1604770" lon="-1.2382970">
        <ele>176.8</ele>
        <time>2019-07-16T08:31:08Z</time>
      </trkpt>
      <trkpt lat="43.1603830" lon="-1.2383350">
        <ele>177.3</ele>
        <time>2019-07-16T08:31:28Z</time>
      </trkpt>
      <trkpt lat="43.1602890" lon="-1.2383780">
        <ele>178.0</ele>
        <time>2019-07-16T08:31:32Z</time>
      </trkpt>
      <trkpt lat="43.1601950" lon="-1.2384410">
        <ele>178.6</ele>
        <time>2019-07-16T08:31:36Z</time>
      </trkpt>
      <trkpt lat="43.1601150" lon="-1.2385000">
        <ele>179.3</ele>
        <time>2019-07-16T08:31:40Z</time>
      </trkpt>
      <trkpt lat="43.1600270" lon="-1.2385600">
        <ele>180.0</ele>
        <time>2019-07-16T08:31:45Z</time>
      </trkpt>
      <trkpt lat="43.1599420" lon="-1.2386240">
        <ele>180.7</ele>
        <time>2019-07-16T08:31:50Z</time>
      </trkpt>
      <trkpt lat="43.1598550" lon="-1.2386810">
        <ele>181.5</ele>
        <time>2019-07-16T08:31:55Z</time>
      </trkpt>
      <trkpt lat="43.1597600" lon="-1.2387410">
        <ele>182.3</ele>
        <time>2019-07-16T08:32:00Z</time>
      </trkpt>
      <trkpt lat="43.1596760" lon="-1.2388090">
        <ele>183.1</ele>
        <time>2019-07-16T08:32:05Z</time>
      </trkpt>
      <trkpt lat="43.1595770" lon="-1.2388560">
        <ele>184.1</ele>
        <time>2019-07-16T08:32:11Z</time>
      </trkpt>
      <trkpt lat="43.1594850" lon="-1.2388670">
        <ele>184.7</ele>
        <time>2019-07-16T08:32:16Z</time>
      </trkpt>
      <trkpt lat="43.1593910" lon="-1.2388570">
        <ele>185.4</ele>
        <time>2019-07-16T08:32:21Z</time>
      </trkpt>
      <trkpt lat="43.1592950" lon="-1.2388400">
        <ele>186.4</ele>
        <time>2019-07-16T08:32:26Z</time>
      </trkpt>
      <trkpt lat="43.1592040" lon="-1.2388280">
        <ele>187.4</ele>
        <time>2019-07-16T08:32:31Z</time>
      </trkpt>
      <trkpt lat="43.1591110" lon="-1.2388190">
        <ele>188.6</ele>
        <time>2019-07-16T08:32:36Z</time>
      </trkpt>
      <trkpt lat="43.1590180" lon="-1.2387900">
        <ele>189.4</ele>
        <time>2019-07-16T08:32:41Z</time>
      </trkpt>
      <trkpt lat="43.1589360" lon="-1.2387200">
        <ele>190.1</ele>
        <time>2019-07-16T08:32:45Z</time>
      </trkpt>
      <trkpt lat="43.1588680" lon="-1.2386350">
        <ele>190.8</ele>
        <time>2019-07-16T08:32:49Z</time>
      </trkpt>
      <trkpt lat="43.1587940" lon="-1.2385470">
        <ele>191.5</ele>
        <time>2019-07-16T08:32:54Z</time>
      </trkpt>
      <trkpt lat="43.1587180" lon="-1.2384630">
        <ele>191.6</ele>
        <time>2019-07-16T08:32:59Z</time>
      </trkpt>
      <trkpt lat="43.1586480" lon="-1.2383830">
        <ele>191.7</ele>
        <time>2019-07-16T08:33:03Z</time>
      </trkpt>
      <trkpt lat="43.1585800" lon="-1.2382760">
        <ele>191.7</ele>
        <time>2019-07-16T08:33:08Z</time>
      </trkpt>
      <trkpt lat="43.1585130" lon="-1.2381900">
        <ele>191.8</ele>
        <time>2019-07-16T08:33:13Z</time>
      </trkpt>
      <trkpt lat="43.1584200" lon="-1.2381080">
        <ele>191.8</ele>
        <time>2019-07-16T08:33:18Z</time>
      </trkpt>
      <trkpt lat="43.1583410" lon="-1.2380380">
        <ele>191.8</ele>
        <time>2019-07-16T08:33:22Z</time>
      </trkpt>
      <trkpt lat="43.1582430" lon="-1.2379760">
        <ele>191.9</ele>
        <time>2019-07-16T08:33:26Z</time>
      </trkpt>
      <trkpt lat="43.1581630" lon="-1.2379060">
        <ele>191.9</ele>
        <time>2019-07-16T08:33:30Z</time>
      </trkpt>
      <trkpt lat="43.1580790" lon="-1.2378220">
        <ele>192.0</ele>
        <time>2019-07-16T08:33:35Z</time>
      </trkpt>
      <trkpt lat="43.1579950" lon="-1.2377470">
        <ele>192.1</ele>
        <time>2019-07-16T08:33:40Z</time>
      </trkpt>
      <trkpt lat="43.1579120" lon="-1.2376530">
        <ele>192.3</ele>
        <time>2019-07-16T08:33:45Z</time>
      </trkpt>
      <trkpt lat="43.1578260" lon="-1.2375740">
        <ele>192.5</ele>
        <time>2019-07-16T08:33:50Z</time>
      </trkpt>
      <trkpt lat="43.1577390" lon="-1.2374900">
        <ele>192.6</ele>
        <time>2019-07-16T08:33:55Z</time>
      </trkpt>
      <trkpt lat="43.1576600" lon="-1.2373960">
        <ele>192.8</ele>
        <time>2019-07-16T08:34:01Z</time>
      </trkpt>
      <trkpt lat="43.1575690" lon="-1.2373310">
        <ele>193.0</ele>
        <time>2019-07-16T08:34:07Z</time>
      </trkpt>
      <trkpt lat="43.1574890" lon="-1.2372660">
        <ele>193.1</ele>
        <time>2019-07-16T08:34:12Z</time>
      </trkpt>
      <trkpt lat="43.1574030" lon="-1.2372040">
        <ele>193.1</ele>
        <time>2019-07-16T08:34:17Z</time>
      </trkpt>
      <trkpt lat="43.1573010" lon="-1.2371880">
        <ele>193.2</ele>
        <time>2019-07-16T08:34:24Z</time>
      </trkpt>
      <trkpt lat="43.1572120" lon="-1.2371260">
        <ele>193.7</ele>
        <time>2019-07-16T08:34:29Z</time>
      </trkpt>
      <trkpt lat="43.1571080" lon="-1.2370980">
        <ele>194.9</ele>
        <time>2019-07-16T08:34:34Z</time>
      </trkpt>
      <trkpt lat="43.1570050" lon="-1.2370560">
        <ele>196.2</ele>
        <time>2019-07-16T08:34:39Z</time>
      </trkpt>
      <trkpt lat="43.1569110" lon="-1.2370510">
        <ele>196.6</ele>
        <time>2019-07-16T08:34:44Z</time>
      </trkpt>
      <trkpt lat="43.1568010" lon="-1.2370350">
        <ele>196.9</ele>
        <time>2019-07-16T08:34:49Z</time>
      </trkpt>
      <trkpt lat="43.1567110" lon="-1.2370160">
        <ele>197.0</ele>
        <time>2019-07-16T08:34:52Z</time>
      </trkpt>
      <trkpt lat="43.1565890" lon="-1.2369570">
        <ele>197.0</ele>
        <time>2019-07-16T08:34:55Z</time>
      </trkpt>
      <trkpt lat="43.1564940" lon="-1.2368930">
        <ele>197.0</ele>
        <time>2019-07-16T08:34:58Z</time>
      </trkpt>
      <trkpt lat="43.1564020" lon="-1.2368270">
        <ele>197.0</ele>
        <time>2019-07-16T08:35:01Z</time>
      </trkpt>
      <trkpt lat="43.1563040" lon="-1.2367510">
        <ele>197.0</ele>
        <time>2019-07-16T08:35:04Z</time>
      </trkpt>
      <trkpt lat="43.1561930" lon="-1.2366710">
        <ele>196.9</ele>
        <time>2019-07-16T08:35:07Z</time>
      </trkpt>
      <trkpt lat="43.1561060" lon="-1.2366220">
        <ele>196.7</ele>
        <time>2019-07-16T08:35:09Z</time>
      </trkpt>
      <trkpt lat="43.1560200" lon="-1.2365810">
        <ele>196.5</ele>
        <time>2019-07-16T08:35:11Z</time>
      </trkpt>
      <trkpt lat="43.1559280" lon="-1.2365340">
        <ele>196.1</ele>
        <time>2019-07-16T08:35:13Z</time>
      </trkpt>
      <trkpt lat="43.1558350" lon="-1.2364830">
        <ele>195.7</ele>
        <time>2019-07-16T08:35:15Z</time>
      </trkpt>
      <trkpt lat="43.1557440" lon="-1.2364490">
        <ele>195.4</ele>
        <time>2019-07-16T08:35:17Z</time>
      </trkpt>
      <trkpt lat="43.1556180" lon="-1.2363960">
        <ele>195.2</ele>
        <time>2019-07-16T08:35:20Z</time>
      </trkpt>
      <trkpt lat="43.1555300" lon="-1.2363580">
        <ele>195.1</ele>
        <time>2019-07-16T08:35:22Z</time>
      </trkpt>
      <trkpt lat="43.1554050" lon="-1.2363130">
        <ele>195.1</ele>
        <time>2019-07-16T08:35:25Z</time>
      </trkpt>
      <trkpt lat="43.1552870" lon="-1.2362620">
        <ele>195.0</ele>
        <time>2019-07-16T08:35:28Z</time>
      </trkpt>
      <trkpt lat="43.1551680" lon="-1.2362290">
        <ele>195.0</ele>
        <time>2019-07-16T08:35:31Z</time>
      </trkpt>
      <trkpt lat="43.1550540" lon="-1.2361960">
        <ele>194.9</ele>
        <time>2019-07-16T08:35:34Z</time>
      </trkpt>
      <trkpt lat="43.1549360" lon="-1.2361630">
        <ele>194.6</ele>
        <time>2019-07-16T08:35:37Z</time>
      </trkpt>
      <trkpt lat="43.1548160" lon="-1.2361360">
        <ele>194.2</ele>
        <time>2019-07-16T08:35:40Z</time>
      </trkpt>
      <trkpt lat="43.1546990" lon="-1.2361200">
        <ele>193.8</ele>
        <time>2019-07-16T08:35:43Z</time>
      </trkpt>
      <trkpt lat="43.1545730" lon="-1.2360920">
        <ele>193.4</ele>
        <time>2019-07-16T08:35:46Z</time>
      </trkpt>
      <trkpt lat="43.1544510" lon="-1.2360630">
        <ele>193.1</ele>
        <time>2019-07-16T08:35:49Z</time>
      </trkpt>
      <trkpt lat="43.1543250" lon="-1.2360300">
        <ele>192.9</ele>
        <time>2019-07-16T08:35:52Z</time>
      </trkpt>
      <trkpt lat="43.1542000" lon="-1.2359930">
        <ele>192.9</ele>
        <time>2019-07-16T08:35:55Z</time>
      </trkpt>
      <trkpt lat="43.1540820" lon="-1.2359590">
        <ele>192.8</ele>
        <time>2019-07-16T08:35:58Z</time>
      </trkpt>
      <trkpt lat="43.1539600" lon="-1.2359120">
        <ele>192.9</ele>
        <time>2019-07-16T08:36:01Z</time>
      </trkpt>
      <trkpt lat="43.1538460" lon="-1.2358710">
        <ele>193.0</ele>
        <time>2019-07-16T08:36:04Z</time>
      </trkpt>
      <trkpt lat="43.1537360" lon="-1.2358260">
        <ele>193.1</ele>
        <time>2019-07-16T08:36:07Z</time>
      </trkpt>
      <trkpt lat="43.1536240" lon="-1.2357640">
        <ele>193.2</ele>
        <time>2019-07-16T08:36:10Z</time>
      </trkpt>
      <trkpt lat="43.1535150" lon="-1.2357000">
        <ele>193.3</ele>
        <time>2019-07-16T08:36:13Z</time>
      </trkpt>
      <trkpt lat="43.1534090" lon="-1.2356250">
        <ele>193.4</ele>
        <time>2019-07-16T08:36:16Z</time>
      </trkpt>
      <trkpt lat="43.1533240" lon="-1.2355640">
        <ele>193.5</ele>
        <time>2019-07-16T08:36:19Z</time>
      </trkpt>
      <trkpt lat="43.1532350" lon="-1.2355050">
        <ele>193.6</ele>
        <time>2019-07-16T08:36:22Z</time>
      </trkpt>
      <trkpt lat="43.1531470" lon="-1.2354410">
        <ele>193.6</ele>
        <time>2019-07-16T08:36:25Z</time>
      </trkpt>
      <trkpt lat="43.1530610" lon="-1.2353890">
        <ele>193.7</ele>
        <time>2019-07-16T08:36:28Z</time>
      </trkpt>
      <trkpt lat="43.1529760" lon="-1.2353200">
        <ele>193.7</ele>
        <time>2019-07-16T08:36:31Z</time>
      </trkpt>
      <trkpt lat="43.1528810" lon="-1.2352480">
        <ele>193.7</ele>
        <time>2019-07-16T08:36:34Z</time>
      </trkpt>
      <trkpt lat="43.1527850" lon="-1.2351690">
        <ele>193.6</ele>
        <time>2019-07-16T08:36:37Z</time>
      </trkpt>
      <trkpt lat="43.1526760" lon="-1.2350790">
        <ele>193.4</ele>
        <time>2019-07-16T08:36:40Z</time>
      </trkpt>
      <trkpt lat="43.1525910" lon="-1.2350190">
        <ele>193.2</ele>
        <time>2019-07-16T08:36:42Z</time>
      </trkpt>
      <trkpt lat="43.1524920" lon="-1.2349780">
        <ele>192.9</ele>
        <time>2019-07-16T08:36:44Z</time>
      </trkpt>
      <trkpt lat="43.1523780" lon="-1.2349490">
        <ele>192.6</ele>
        <time>2019-07-16T08:36:46Z</time>
      </trkpt>
      <trkpt lat="43.1522740" lon="-1.2349300">
        <ele>192.3</ele>
        <time>2019-07-16T08:36:48Z</time>
      </trkpt>
      <trkpt lat="43.1521800" lon="-1.2349110">
        <ele>192.2</ele>
        <time>2019-07-16T08:36:50Z</time>
      </trkpt>
      <trkpt lat="43.1520600" lon="-1.2348600">
        <ele>192.8</ele>
        <time>2019-07-16T08:36:53Z</time>
      </trkpt>
      <trkpt lat="43.1519690" lon="-1.2347930">
        <ele>193.2</ele>
        <time>2019-07-16T08:36:56Z</time>
      </trkpt>
      <trkpt lat="43.1518900" lon="-1.2347230">
        <ele>193.6</ele>
        <time>2019-07-16T08:36:59Z</time>
      </trkpt>
      <trkpt lat="43.1518070" lon="-1.2346510">
        <ele>194.0</ele>
        <time>2019-07-16T08:37:03Z</time>
      </trkpt>
      <trkpt lat="43.1517260" lon="-1.2345690">
        <ele>194.4</ele>
        <time>2019-07-16T08:37:07Z</time>
      </trkpt>
      <trkpt lat="43.1516290" lon="-1.2344930">
        <ele>194.7</ele>
        <time>2019-07-16T08:37:12Z</time>
      </trkpt>
      <trkpt lat="43.1515500" lon="-1.2344170">
        <ele>194.9</ele>
        <time>2019-07-16T08:37:17Z</time>
      </trkpt>
      <trkpt lat="43.1514610" lon="-1.2343470">
        <ele>194.9</ele>
        <time>2019-07-16T08:37:21Z</time>
      </trkpt>
      <trkpt lat="43.1513740" lon="-1.2342690">
        <ele>195.0</ele>
        <time>2019-07-16T08:37:25Z</time>
      </trkpt>
      <trkpt lat="43.1512820" lon="-1.2341810">
        <ele>195.0</ele>
        <time>2019-07-16T08:37:29Z</time>
      </trkpt>
      <trkpt lat="43.1512030" lon="-1.2341070">
        <ele>195.0</ele>
        <time>2019-07-16T08:37:32Z</time>
      </trkpt>
      <trkpt lat="43.1511150" lon="-1.2340300">
        <ele>195.1</ele>
        <time>2019-07-16T08:37:35Z</time>
      </trkpt>
      <trkpt lat="43.1510360" lon="-1.2339530">
        <ele>195.1</ele>
        <time>2019-07-16T08:37:38Z</time>
      </trkpt>
      <trkpt lat="43.1509440" lon="-1.2338520">
        <ele>195.2</ele>
        <time>2019-07-16T08:37:42Z</time>
      </trkpt>
      <trkpt lat="43.1508690" lon="-1.2337690">
        <ele>195.2</ele>
        <time>2019-07-16T08:37:45Z</time>
      </trkpt>
      <trkpt lat="43.1507830" lon="-1.2336840">
        <ele>195.2</ele>
        <time>2019-07-16T08:37:48Z</time>
      </trkpt>
      <trkpt lat="43.1506990" lon="-1.2336230">
        <ele>195.3</ele>
        <time>2019-07-16T08:37:51Z</time>
      </trkpt>
      <trkpt lat="43.1506090" lon="-1.2335390">
        <ele>195.3</ele>
        <time>2019-07-16T08:37:54Z</time>
      </trkpt>
      <trkpt lat="43.1505240" lon="-1.2334520">
        <ele>195.4</ele>
        <time>2019-07-16T08:37:57Z</time>
      </trkpt>
      <trkpt lat="43.1504360" lon="-1.2333600">
        <ele>195.4</ele>
        <time>2019-07-16T08:38:00Z</time>
      </trkpt>
      <trkpt lat="43.1503490" lon="-1.2332630">
        <ele>195.5</ele>
        <time>2019-07-16T08:38:03Z</time>
      </trkpt>
      <trkpt lat="43.1502450" lon="-1.2331650">
        <ele>195.5</ele>
        <time>2019-07-16T08:38:06Z</time>
      </trkpt>
      <trkpt lat="43.1501380" lon="-1.2330590">
        <ele>195.5</ele>
        <time>2019-07-16T08:38:09Z</time>
      </trkpt>
      <trkpt lat="43.1500630" lon="-1.2329900">
        <ele>195.5</ele>
        <time>2019-07-16T08:38:11Z</time>
      </trkpt>
      <trkpt lat="43.1499580" lon="-1.2328800">
        <ele>195.4</ele>
        <time>2019-07-16T08:38:14Z</time>
      </trkpt>
      <trkpt lat="43.1498590" lon="-1.2327920">
        <ele>195.3</ele>
        <time>2019-07-16T08:38:17Z</time>
      </trkpt>
      <trkpt lat="43.1497570" lon="-1.2327020">
        <ele>195.2</ele>
        <time>2019-07-16T08:38:20Z</time>
      </trkpt>
      <trkpt lat="43.1496650" lon="-1.2326230">
        <ele>195.2</ele>
        <time>2019-07-16T08:38:23Z</time>
      </trkpt>
      <trkpt lat="43.1495630" lon="-1.2325380">
        <ele>195.1</ele>
        <time>2019-07-16T08:38:26Z</time>
      </trkpt>
      <trkpt lat="43.1494540" lon="-1.2324830">
        <ele>195.1</ele>
        <time>2019-07-16T08:38:29Z</time>
      </trkpt>
      <trkpt lat="43.1493350" lon="-1.2324470">
        <ele>195.1</ele>
        <time>2019-07-16T08:38:32Z</time>
      </trkpt>
      <trkpt lat="43.1492250" lon="-1.2324410">
        <ele>195.1</ele>
        <time>2019-07-16T08:38:35Z</time>
      </trkpt>
      <trkpt lat="43.1491220" lon="-1.2324130">
        <ele>195.1</ele>
        <time>2019-07-16T08:38:38Z</time>
      </trkpt>
      <trkpt lat="43.1490290" lon="-1.2323720">
        <ele>195.0</ele>
        <time>2019-07-16T08:38:41Z</time>
      </trkpt>
      <trkpt lat="43.1489370" lon="-1.2323180">
        <ele>194.9</ele>
        <time>2019-07-16T08:38:44Z</time>
      </trkpt>
      <trkpt lat="43.1488430" lon="-1.2322540">
        <ele>194.8</ele>
        <time>2019-07-16T08:38:47Z</time>
      </trkpt>
      <trkpt lat="43.1487470" lon="-1.2321910">
        <ele>194.7</ele>
        <time>2019-07-16T08:38:50Z</time>
      </trkpt>
      <trkpt lat="43.1486510" lon="-1.2321210">
        <ele>194.7</ele>
        <time>2019-07-16T08:38:53Z</time>
      </trkpt>
      <trkpt lat="43.1485610" lon="-1.2320480">
        <ele>194.7</ele>
        <time>2019-07-16T08:38:56Z</time>
      </trkpt>
      <trkpt lat="43.1484660" lon="-1.2319780">
        <ele>194.6</ele>
        <time>2019-07-16T08:38:59Z</time>
      </trkpt>
      <trkpt lat="43.1483710" lon="-1.2319080">
        <ele>194.6</ele>
        <time>2019-07-16T08:39:02Z</time>
      </trkpt>
      <trkpt lat="43.1482700" lon="-1.2318330">
        <ele>194.5</ele>
        <time>2019-07-16T08:39:05Z</time>
      </trkpt>
      <trkpt lat="43.1481620" lon="-1.2317490">
        <ele>194.5</ele>
        <time>2019-07-16T08:39:08Z</time>
      </trkpt>
      <trkpt lat="43.1480520" lon="-1.2316540">
        <ele>194.4</ele>
        <time>2019-07-16T08:39:11Z</time>
      </trkpt>
      <trkpt lat="43.1479530" lon="-1.2315580">
        <ele>194.4</ele>
        <time>2019-07-16T08:39:14Z</time>
      </trkpt>
      <trkpt lat="43.1478750" lon="-1.2314820">
        <ele>194.3</ele>
        <time>2019-07-16T08:39:17Z</time>
      </trkpt>
      <trkpt lat="43.1477950" lon="-1.2314100">
        <ele>194.3</ele>
        <time>2019-07-16T08:39:20Z</time>
      </trkpt>
      <trkpt lat="43.1477100" lon="-1.2313340">
        <ele>194.2</ele>
        <time>2019-07-16T08:39:23Z</time>
      </trkpt>
      <trkpt lat="43.1476060" lon="-1.2312460">
        <ele>194.2</ele>
        <time>2019-07-16T08:39:26Z</time>
      </trkpt>
      <trkpt lat="43.1475030" lon="-1.2311530">
        <ele>194.1</ele>
        <time>2019-07-16T08:39:29Z</time>
      </trkpt>
      <trkpt lat="43.1473990" lon="-1.2310730">
        <ele>194.1</ele>
        <time>2019-07-16T08:39:32Z</time>
      </trkpt>
      <trkpt lat="43.1472820" lon="-1.2309880">
        <ele>194.0</ele>
        <time>2019-07-16T08:39:35Z</time>
      </trkpt>
      <trkpt lat="43.1471800" lon="-1.2309210">
        <ele>194.0</ele>
        <time>2019-07-16T08:39:38Z</time>
      </trkpt>
      <trkpt lat="43.1470730" lon="-1.2308620">
        <ele>193.9</ele>
        <time>2019-07-16T08:39:41Z</time>
      </trkpt>
      <trkpt lat="43.1469750" lon="-1.2308000">
        <ele>193.9</ele>
        <time>2019-07-16T08:39:44Z</time>
      </trkpt>
      <trkpt lat="43.1468800" lon="-1.2307360">
        <ele>193.8</ele>
        <time>2019-07-16T08:39:47Z</time>
      </trkpt>
      <trkpt lat="43.1467890" lon="-1.2306810">
        <ele>193.8</ele>
        <time>2019-07-16T08:39:50Z</time>
      </trkpt>
      <trkpt lat="43.1466930" lon="-1.2306360">
        <ele>193.7</ele>
        <time>2019-07-16T08:39:53Z</time>
      </trkpt>
      <trkpt lat="43.1465970" lon="-1.2305920">
        <ele>193.7</ele>
        <time>2019-07-16T08:39:56Z</time>
      </trkpt>
      <trkpt lat="43.1465000" lon="-1.2305600">
        <ele>193.6</ele>
        <time>2019-07-16T08:39:59Z</time>
      </trkpt>
      <trkpt lat="43.1464060" lon="-1.2305310">
        <ele>193.6</ele>
        <time>2019-07-16T08:40:02Z</time>
      </trkpt>
      <trkpt lat="43.1463130" lon="-1.2305130">
        <ele>193.6</ele>
        <time>2019-07-16T08:40:05Z</time>
      </trkpt>
      <trkpt lat="43.1462170" lon="-1.2305050">
        <ele>193.5</ele>
        <time>2019-07-16T08:40:08Z</time>
      </trkpt>
      <trkpt lat="43.1461230" lon="-1.2304910">
        <ele>193.5</ele>
        <time>2019-07-16T08:40:11Z</time>
      </trkpt>
      <trkpt lat="43.1460300" lon="-1.2304860">
        <ele>193.4</ele>
        <time>2019-07-16T08:40:14Z</time>
      </trkpt>
      <trkpt lat="43.1459290" lon="-1.2304920">
        <ele>193.4</ele>
        <time>2019-07-16T08:40:17Z</time>
      </trkpt>
      <trkpt lat="43.1458280" lon="-1.2304910">
        <ele>193.4</ele>
        <time>2019-07-16T08:40:20Z</time>
      </trkpt>
      <trkpt lat="43.1457020" lon="-1.2304850">
        <ele>193.3</ele>
        <time>2019-07-16T08:40:23Z</time>
      </trkpt>
      <trkpt lat="43.1456070" lon="-1.2304840">
        <ele>193.3</ele>
        <time>2019-07-16T08:40:25Z</time>
      </trkpt>
      <trkpt lat="43.1455080" lon="-1.2304750">
        <ele>193.2</ele>
        <time>2019-07-16T08:40:27Z</time>
      </trkpt>
      <trkpt lat="43.1454140" lon="-1.2304540">
        <ele>193.2</ele>
        <time>2019-07-16T08:40:29Z</time>
      </trkpt>
      <trkpt lat="43.1453070" lon="-1.2304260">
        <ele>193.3</ele>
        <time>2019-07-16T08:40:31Z</time>
      </trkpt>
      <trkpt lat="43.1452000" lon="-1.2303940">
        <ele>193.5</ele>
        <time>2019-07-16T08:40:33Z</time>
      </trkpt>
      <trkpt lat="43.1450960" lon="-1.2303590">
        <ele>193.8</ele>
        <time>2019-07-16T08:40:35Z</time>
      </trkpt>
      <trkpt lat="43.1449950" lon="-1.2303250">
        <ele>194.0</ele>
        <time>2019-07-16T08:40:37Z</time>
      </trkpt>
      <trkpt lat="43.1449000" lon="-1.2302980">
        <ele>194.2</ele>
        <time>2019-07-16T08:40:39Z</time>
      </trkpt>
      <trkpt lat="43.1448080" lon="-1.2302680">
        <ele>194.3</ele>
        <time>2019-07-16T08:40:41Z</time>
      </trkpt>
      <trkpt lat="43.1446860" lon="-1.2302300">
        <ele>194.4</ele>
        <time>2019-07-16T08:40:44Z</time>
      </trkpt>
      <trkpt lat="43.1445830" lon="-1.2301980">
        <ele>194.5</ele>
        <time>2019-07-16T08:40:47Z</time>
      </trkpt>
      <trkpt lat="43.1444780" lon="-1.2301620">
        <ele>194.5</ele>
        <time>2019-07-16T08:40:50Z</time>
      </trkpt>
      <trkpt lat="43.1443740" lon="-1.2301080">
        <ele>194.6</ele>
        <time>2019-07-16T08:40:53Z</time>
      </trkpt>
      <trkpt lat="43.1442640" lon="-1.2300540">
        <ele>194.8</ele>
        <time>2019-07-16T08:40:56Z</time>
      </trkpt>
      <trkpt lat="43.1441520" lon="-1.2299810">
        <ele>195.0</ele>
        <time>2019-07-16T08:40:59Z</time>
      </trkpt>
      <trkpt lat="43.1440590" lon="-1.2298990">
        <ele>195.2</ele>
        <time>2019-07-16T08:41:02Z</time>
      </trkpt>
      <trkpt lat="43.1439670" lon="-1.2298070">
        <ele>195.3</ele>
        <time>2019-07-16T08:41:05Z</time>
      </trkpt>
      <trkpt lat="43.1438730" lon="-1.2297070">
        <ele>195.4</ele>
        <time>2019-07-16T08:41:08Z</time>
      </trkpt>
      <trkpt lat="43.1437830" lon="-1.2296100">
        <ele>195.5</ele>
        <time>2019-07-16T08:41:11Z</time>
      </trkpt>
      <trkpt lat="43.1437000" lon="-1.2295290">
        <ele>195.6</ele>
        <time>2019-07-16T08:41:14Z</time>
      </trkpt>
      <trkpt lat="43.1436140" lon="-1.2294290">
        <ele>195.7</ele>
        <time>2019-07-16T08:41:17Z</time>
      </trkpt>
      <trkpt lat="43.1435240" lon="-1.2293420">
        <ele>195.8</ele>
        <time>2019-07-16T08:41:20Z</time>
      </trkpt>
      <trkpt lat="43.1434370" lon="-1.2292600">
        <ele>195.9</ele>
        <time>2019-07-16T08:41:23Z</time>
      </trkpt>
      <trkpt lat="43.1433380" lon="-1.2291880">
        <ele>196.1</ele>
        <time>2019-07-16T08:41:26Z</time>
      </trkpt>
      <trkpt lat="43.1432460" lon="-1.2291180">
        <ele>196.2</ele>
        <time>2019-07-16T08:41:29Z</time>
      </trkpt>
      <trkpt lat="43.1431530" lon="-1.2290500">
        <ele>196.2</ele>
        <time>2019-07-16T08:41:32Z</time>
      </trkpt>
      <trkpt lat="43.1430680" lon="-1.2289940">
        <ele>196.2</ele>
        <time>2019-07-16T08:41:35Z</time>
      </trkpt>
      <trkpt lat="43.1429600" lon="-1.2289250">
        <ele>196.2</ele>
        <time>2019-07-16T08:41:39Z</time>
      </trkpt>
      <trkpt lat="43.1428470" lon="-1.2288750">
        <ele>196.1</ele>
        <time>2019-07-16T08:41:43Z</time>
      </trkpt>
      <trkpt lat="43.1427500" lon="-1.2288220">
        <ele>196.0</ele>
        <time>2019-07-16T08:41:46Z</time>
      </trkpt>
      <trkpt lat="43.1426580" lon="-1.2287660">
        <ele>195.9</ele>
        <time>2019-07-16T08:41:49Z</time>
      </trkpt>
      <trkpt lat="43.1425600" lon="-1.2287100">
        <ele>195.7</ele>
        <time>2019-07-16T08:41:52Z</time>
      </trkpt>
      <trkpt lat="43.1424530" lon="-1.2286410">
        <ele>195.5</ele>
        <time>2019-07-16T08:41:55Z</time>
      </trkpt>
      <trkpt lat="43.1423350" lon="-1.2285660">
        <ele>195.3</ele>
        <time>2019-07-16T08:41:58Z</time>
      </trkpt>
      <trkpt lat="43.1422160" lon="-1.2284940">
        <ele>194.9</ele>
        <time>2019-07-16T08:42:01Z</time>
      </trkpt>
      <trkpt lat="43.1420960" lon="-1.2284410">
        <ele>194.6</ele>
        <time>2019-07-16T08:42:04Z</time>
      </trkpt>
      <trkpt lat="43.1419670" lon="-1.2283860">
        <ele>194.3</ele>
        <time>2019-07-16T08:42:07Z</time>
      </trkpt>
      <trkpt lat="43.1418760" lon="-1.2283620">
        <ele>194.2</ele>
        <time>2019-07-16T08:42:09Z</time>
      </trkpt>
      <trkpt lat="43.1417760" lon="-1.2283380">
        <ele>194.3</ele>
        <time>2019-07-16T08:42:11Z</time>
      </trkpt>
      <trkpt lat="43.1416750" lon="-1.2283220">
        <ele>194.4</ele>
        <time>2019-07-16T08:42:13Z</time>
      </trkpt>
      <trkpt lat="43.1415660" lon="-1.2282890">
        <ele>194.6</ele>
        <time>2019-07-16T08:42:15Z</time>
      </trkpt>
      <trkpt lat="43.1414530" lon="-1.2282620">
        <ele>194.7</ele>
        <time>2019-07-16T08:42:17Z</time>
      </trkpt>
      <trkpt lat="43.1413430" lon="-1.2282260">
        <ele>194.9</ele>
        <time>2019-07-16T08:42:19Z</time>
      </trkpt>
      <trkpt lat="43.1412460" lon="-1.2281880">
        <ele>195.1</ele>
        <time>2019-07-16T08:42:21Z</time>
      </trkpt>
      <trkpt lat="43.1411360" lon="-1.2280980">
        <ele>195.2</ele>
        <time>2019-07-16T08:42:24Z</time>
      </trkpt>
      <trkpt lat="43.1410520" lon="-1.2279790">
        <ele>195.3</ele>
        <time>2019-07-16T08:42:27Z</time>
      </trkpt>
      <trkpt lat="43.1409720" lon="-1.2278400">
        <ele>195.4</ele>
        <time>2019-07-16T08:42:30Z</time>
      </trkpt>
      <trkpt lat="43.1408940" lon="-1.2277110">
        <ele>195.5</ele>
        <time>2019-07-16T08:42:33Z</time>
      </trkpt>
      <trkpt lat="43.1408170" lon="-1.2275880">
        <ele>195.4</ele>
        <time>2019-07-16T08:42:36Z</time>
      </trkpt>
      <trkpt lat="43.1407380" lon="-1.2274730">
        <ele>195.2</ele>
        <time>2019-07-16T08:42:39Z</time>
      </trkpt>
      <trkpt lat="43.1406500" lon="-1.2273730">
        <ele>195.0</ele>
        <time>2019-07-16T08:42:42Z</time>
      </trkpt>
      <trkpt lat="43.1405450" lon="-1.2272880">
        <ele>194.6</ele>
        <time>2019-07-16T08:42:45Z</time>
      </trkpt>
      <trkpt lat="43.1404310" lon="-1.2272030">
        <ele>194.2</ele>
        <time>2019-07-16T08:42:48Z</time>
      </trkpt>
      <trkpt lat="43.1403090" lon="-1.2271430">
        <ele>194.0</ele>
        <time>2019-07-16T08:42:51Z</time>
      </trkpt>
      <trkpt lat="43.1402180" lon="-1.2271010">
        <ele>193.9</ele>
        <time>2019-07-16T08:42:53Z</time>
      </trkpt>
      <trkpt lat="43.1401190" lon="-1.2270470">
        <ele>193.8</ele>
        <time>2019-07-16T08:42:55Z</time>
      </trkpt>
      <trkpt lat="43.1400230" lon="-1.2269660">
        <ele>193.9</ele>
        <time>2019-07-16T08:42:57Z</time>
      </trkpt>
      <trkpt lat="43.1399330" lon="-1.2268600">
        <ele>193.9</ele>
        <time>2019-07-16T08:42:59Z</time>
      </trkpt>
      <trkpt lat="43.1398560" lon="-1.2267470">
        <ele>194.1</ele>
        <time>2019-07-16T08:43:01Z</time>
      </trkpt>
      <trkpt lat="43.1397970" lon="-1.2266260">
        <ele>194.2</ele>
        <time>2019-07-16T08:43:03Z</time>
      </trkpt>
      <trkpt lat="43.1397480" lon="-1.2265110">
        <ele>194.4</ele>
        <time>2019-07-16T08:43:05Z</time>
      </trkpt>
      <trkpt lat="43.1396680" lon="-1.2263670">
        <ele>194.7</ele>
        <time>2019-07-16T08:43:08Z</time>
      </trkpt>
      <trkpt lat="43.1395780" lon="-1.2262470">
        <ele>195.1</ele>
        <time>2019-07-16T08:43:11Z</time>
      </trkpt>
      <trkpt lat="43.1394810" lon="-1.2261240">
        <ele>195.5</ele>
        <time>2019-07-16T08:43:14Z</time>
      </trkpt>
      <trkpt lat="43.1393820" lon="-1.2260060">
        <ele>195.8</ele>
        <time>2019-07-16T08:43:17Z</time>
      </trkpt>
      <trkpt lat="43.1392840" lon="-1.2258890">
        <ele>196.1</ele>
        <time>2019-07-16T08:43:20Z</time>
      </trkpt>
      <trkpt lat="43.1391960" lon="-1.2257730">
        <ele>196.4</ele>
        <time>2019-07-16T08:43:23Z</time>
      </trkpt>
      <trkpt lat="43.1391150" lon="-1.2256550">
        <ele>196.5</ele>
        <time>2019-07-16T08:43:26Z</time>
      </trkpt>
      <trkpt lat="43.1390220" lon="-1.2255450">
        <ele>196.6</ele>
        <time>2019-07-16T08:43:29Z</time>
      </trkpt>
      <trkpt lat="43.1389530" lon="-1.2254500">
        <ele>196.6</ele>
        <time>2019-07-16T08:43:31Z</time>
      </trkpt>
      <trkpt lat="43.1388630" lon="-1.2253370">
        <ele>196.6</ele>
        <time>2019-07-16T08:43:34Z</time>
      </trkpt>
      <trkpt lat="43.1387970" lon="-1.2252480">
        <ele>196.7</ele>
        <time>2019-07-16T08:43:36Z</time>
      </trkpt>
      <trkpt lat="43.1387320" lon="-1.2251530">
        <ele>196.7</ele>
        <time>2019-07-16T08:43:38Z</time>
      </trkpt>
      <trkpt lat="43.1386490" lon="-1.2250210">
        <ele>196.8</ele>
        <time>2019-07-16T08:43:41Z</time>
      </trkpt>
      <trkpt lat="43.1385650" lon="-1.2248880">
        <ele>196.9</ele>
        <time>2019-07-16T08:43:44Z</time>
      </trkpt>
      <trkpt lat="43.1384770" lon="-1.2247580">
        <ele>196.9</ele>
        <time>2019-07-16T08:43:47Z</time>
      </trkpt>
      <trkpt lat="43.1383930" lon="-1.2246250">
        <ele>196.9</ele>
        <time>2019-07-16T08:43:50Z</time>
      </trkpt>
      <trkpt lat="43.1383180" lon="-1.2245100">
        <ele>197.0</ele>
        <time>2019-07-16T08:43:53Z</time>
      </trkpt>
      <trkpt lat="43.1382310" lon="-1.2244160">
        <ele>197.0</ele>
        <time>2019-07-16T08:43:56Z</time>
      </trkpt>
      <trkpt lat="43.1381390" lon="-1.2243290">
        <ele>197.0</ele>
        <time>2019-07-16T08:43:59Z</time>
      </trkpt>
      <trkpt lat="43.1380430" lon="-1.2242560">
        <ele>197.0</ele>
        <time>2019-07-16T08:44:02Z</time>
      </trkpt>
      <trkpt lat="43.1379500" lon="-1.2242040">
        <ele>196.9</ele>
        <time>2019-07-16T08:44:05Z</time>
      </trkpt>
      <trkpt lat="43.1378470" lon="-1.2241490">
        <ele>196.9</ele>
        <time>2019-07-16T08:44:08Z</time>
      </trkpt>
      <trkpt lat="43.1377470" lon="-1.2240830">
        <ele>196.9</ele>
        <time>2019-07-16T08:44:11Z</time>
      </trkpt>
      <trkpt lat="43.1376410" lon="-1.2240150">
        <ele>196.9</ele>
        <time>2019-07-16T08:44:14Z</time>
      </trkpt>
      <trkpt lat="43.1375410" lon="-1.2239400">
        <ele>196.7</ele>
        <time>2019-07-16T08:44:17Z</time>
      </trkpt>
      <trkpt lat="43.1374280" lon="-1.2238530">
        <ele>196.4</ele>
        <time>2019-07-16T08:44:20Z</time>
      </trkpt>
      <trkpt lat="43.1373110" lon="-1.2237820">
        <ele>196.1</ele>
        <time>2019-07-16T08:44:23Z</time>
      </trkpt>
      <trkpt lat="43.1371890" lon="-1.2237220">
        <ele>195.7</ele>
        <time>2019-07-16T08:44:26Z</time>
      </trkpt>
      <trkpt lat="43.1370940" lon="-1.2236750">
        <ele>195.4</ele>
        <time>2019-07-16T08:44:28Z</time>
      </trkpt>
      <trkpt lat="43.1369920" lon="-1.2236200">
        <ele>194.9</ele>
        <time>2019-07-16T08:44:30Z</time>
      </trkpt>
      <trkpt lat="43.1368970" lon="-1.2235520">
        <ele>194.4</ele>
        <time>2019-07-16T08:44:32Z</time>
      </trkpt>
      <trkpt lat="43.1368010" lon="-1.2234730">
        <ele>193.6</ele>
        <time>2019-07-16T08:44:34Z</time>
      </trkpt>
      <trkpt lat="43.1367060" lon="-1.2233850">
        <ele>192.7</ele>
        <time>2019-07-16T08:44:36Z</time>
      </trkpt>
      <trkpt lat="43.1366080" lon="-1.2232920">
        <ele>191.6</ele>
        <time>2019-07-16T08:44:38Z</time>
      </trkpt>
      <trkpt lat="43.1365160" lon="-1.2232110">
        <ele>190.7</ele>
        <time>2019-07-16T08:44:40Z</time>
      </trkpt>
      <trkpt lat="43.1364110" lon="-1.2231230">
        <ele>189.9</ele>
        <time>2019-07-16T08:44:43Z</time>
      </trkpt>
      <trkpt lat="43.1363110" lon="-1.2230410">
        <ele>189.7</ele>
        <time>2019-07-16T08:44:46Z</time>
      </trkpt>
      <trkpt lat="43.1362300" lon="-1.2229640">
        <ele>189.5</ele>
        <time>2019-07-16T08:44:48Z</time>
      </trkpt>
      <trkpt lat="43.1361550" lon="-1.2228810">
        <ele>189.2</ele>
        <time>2019-07-16T08:44:50Z</time>
      </trkpt>
      <trkpt lat="43.1360870" lon="-1.2227400">
        <ele>188.8</ele>
        <time>2019-07-16T08:44:53Z</time>
      </trkpt>
      <trkpt lat="43.1360840" lon="-1.2225800">
        <ele>188.4</ele>
        <time>2019-07-16T08:44:56Z</time>
      </trkpt>
      <trkpt lat="43.1360940" lon="-1.2224490">
        <ele>188.3</ele>
        <time>2019-07-16T08:44:59Z</time>
      </trkpt>
      <trkpt lat="43.1360880" lon="-1.2223050">
        <ele>188.2</ele>
        <time>2019-07-16T08:45:03Z</time>
      </trkpt>
      <trkpt lat="43.1360300" lon="-1.2221900">
        <ele>188.0</ele>
        <time>2019-07-16T08:45:06Z</time>
      </trkpt>
      <trkpt lat="43.1359570" lon="-1.2220870">
        <ele>187.9</ele>
        <time>2019-07-16T08:45:09Z</time>
      </trkpt>
      <trkpt lat="43.1359050" lon="-1.2219500">
        <ele>188.1</ele>
        <time>2019-07-16T08:45:12Z</time>
      </trkpt>
      <trkpt lat="43.1358520" lon="-1.2218330">
        <ele>188.4</ele>
        <time>2019-07-16T08:45:15Z</time>
      </trkpt>
      <trkpt lat="43.1357920" lon="-1.2217000">
        <ele>188.9</ele>
        <time>2019-07-16T08:45:19Z</time>
      </trkpt>
      <trkpt lat="43.1357360" lon="-1.2215960">
        <ele>189.2</ele>
        <time>2019-07-16T08:45:23Z</time>
      </trkpt>
      <trkpt lat="43.1356700" lon="-1.2215100">
        <ele>189.5</ele>
        <time>2019-07-16T08:45:26Z</time>
      </trkpt>
      <trkpt lat="43.1356020" lon="-1.2214150">
        <ele>189.8</ele>
        <time>2019-07-16T08:45:29Z</time>
      </trkpt>
      <trkpt lat="43.1355490" lon="-1.2213010">
        <ele>190.1</ele>
        <time>2019-07-16T08:45:32Z</time>
      </trkpt>
      <trkpt lat="43.1355010" lon="-1.2211940">
        <ele>190.4</ele>
        <time>2019-07-16T08:45:35Z</time>
      </trkpt>
      <trkpt lat="43.1354490" lon="-1.2210920">
        <ele>190.5</ele>
        <time>2019-07-16T08:45:38Z</time>
      </trkpt>
      <trkpt lat="43.1353960" lon="-1.2209800">
        <ele>190.8</ele>
        <time>2019-07-16T08:45:41Z</time>
      </trkpt>
      <trkpt lat="43.1353320" lon="-1.2208180">
        <ele>191.2</ele>
        <time>2019-07-16T08:45:46Z</time>
      </trkpt>
      <trkpt lat="43.1352770" lon="-1.2207190">
        <ele>191.4</ele>
        <time>2019-07-16T08:45:49Z</time>
      </trkpt>
      <trkpt lat="43.1352090" lon="-1.2206280">
        <ele>191.4</ele>
        <time>2019-07-16T08:45:52Z</time>
      </trkpt>
      <trkpt lat="43.1351410" lon="-1.2205140">
        <ele>191.5</ele>
        <time>2019-07-16T08:45:56Z</time>
      </trkpt>
      <trkpt lat="43.1350860" lon="-1.2204000">
        <ele>191.5</ele>
        <time>2019-07-16T08:46:00Z</time>
      </trkpt>
      <trkpt lat="43.1350320" lon="-1.2202830">
        <ele>191.6</ele>
        <time>2019-07-16T08:46:04Z</time>
      </trkpt>
      <trkpt lat="43.1349840" lon="-1.2201490">
        <ele>192.3</ele>
        <time>2019-07-16T08:46:08Z</time>
      </trkpt>
      <trkpt lat="43.1349340" lon="-1.2200190">
        <ele>192.9</ele>
        <time>2019-07-16T08:46:11Z</time>
      </trkpt>
      <trkpt lat="43.1348840" lon="-1.2199110">
        <ele>193.5</ele>
        <time>2019-07-16T08:46:14Z</time>
      </trkpt>
      <trkpt lat="43.1348280" lon="-1.2197690">
        <ele>193.7</ele>
        <time>2019-07-16T08:46:18Z</time>
      </trkpt>
      <trkpt lat="43.1347840" lon="-1.2196610">
        <ele>193.7</ele>
        <time>2019-07-16T08:46:21Z</time>
      </trkpt>
      <trkpt lat="43.1347390" lon="-1.2195480">
        <ele>193.7</ele>
        <time>2019-07-16T08:46:24Z</time>
      </trkpt>
      <trkpt lat="43.1346490" lon="-1.2193710">
        <ele>193.7</ele>
        <time>2019-07-16T08:46:29Z</time>
      </trkpt>
      <trkpt lat="43.1345680" lon="-1.2192360">
        <ele>193.8</ele>
        <time>2019-07-16T08:46:32Z</time>
      </trkpt>
      <trkpt lat="43.1344950" lon="-1.2191490">
        <ele>193.9</ele>
        <time>2019-07-16T08:46:34Z</time>
      </trkpt>
      <trkpt lat="43.1344120" lon="-1.2190620">
        <ele>194.1</ele>
        <time>2019-07-16T08:46:36Z</time>
      </trkpt>
      <trkpt lat="43.1343240" lon="-1.2189850">
        <ele>194.4</ele>
        <time>2019-07-16T08:46:38Z</time>
      </trkpt>
      <trkpt lat="43.1342320" lon="-1.2189280">
        <ele>194.8</ele>
        <time>2019-07-16T08:46:40Z</time>
      </trkpt>
      <trkpt lat="43.1341470" lon="-1.2188820">
        <ele>195.3</ele>
        <time>2019-07-16T08:46:42Z</time>
      </trkpt>
      <trkpt lat="43.1340350" lon="-1.2188200">
        <ele>196.2</ele>
        <time>2019-07-16T08:46:45Z</time>
      </trkpt>
      <trkpt lat="43.1339510" lon="-1.2187450">
        <ele>197.0</ele>
        <time>2019-07-16T08:46:48Z</time>
      </trkpt>
      <trkpt lat="43.1338180" lon="-1.2185810">
        <ele>198.4</ele>
        <time>2019-07-16T08:46:53Z</time>
      </trkpt>
      <trkpt lat="43.1337370" lon="-1.2184800">
        <ele>199.0</ele>
        <time>2019-07-16T08:46:56Z</time>
      </trkpt>
      <trkpt lat="43.1336590" lon="-1.2183790">
        <ele>199.5</ele>
        <time>2019-07-16T08:46:59Z</time>
      </trkpt>
      <trkpt lat="43.1335680" lon="-1.2182660">
        <ele>200.2</ele>
        <time>2019-07-16T08:47:02Z</time>
      </trkpt>
      <trkpt lat="43.1334880" lon="-1.2181800">
        <ele>201.0</ele>
        <time>2019-07-16T08:47:05Z</time>
      </trkpt>
      <trkpt lat="43.1334140" lon="-1.2180780">
        <ele>201.9</ele>
        <time>2019-07-16T08:47:08Z</time>
      </trkpt>
      <trkpt lat="43.1333450" lon="-1.2179960">
        <ele>202.8</ele>
        <time>2019-07-16T08:47:11Z</time>
      </trkpt>
      <trkpt lat="43.1332760" lon="-1.2179010">
        <ele>203.7</ele>
        <time>2019-07-16T08:47:15Z</time>
      </trkpt>
      <trkpt lat="43.1332030" lon="-1.2178090">
        <ele>204.6</ele>
        <time>2019-07-16T08:47:20Z</time>
      </trkpt>
      <trkpt lat="43.1331550" lon="-1.2176910">
        <ele>205.3</ele>
        <time>2019-07-16T08:47:26Z</time>
      </trkpt>
      <trkpt lat="43.1331140" lon="-1.2175570">
        <ele>206.0</ele>
        <time>2019-07-16T08:47:31Z</time>
      </trkpt>
      <trkpt lat="43.1330240" lon="-1.2174600">
        <ele>206.5</ele>
        <time>2019-07-16T08:47:36Z</time>
      </trkpt>
      <trkpt lat="43.1329360" lon="-1.2173820">
        <ele>206.7</ele>
        <time>2019-07-16T08:47:40Z</time>
      </trkpt>
      <trkpt lat="43.1328690" lon="-1.2172690">
        <ele>206.9</ele>
        <time>2019-07-16T08:47:44Z</time>
      </trkpt>
      <trkpt lat="43.1327790" lon="-1.2172070">
        <ele>207.0</ele>
        <time>2019-07-16T08:47:48Z</time>
      </trkpt>
      <trkpt lat="43.1326790" lon="-1.2171510">
        <ele>207.2</ele>
        <time>2019-07-16T08:47:52Z</time>
      </trkpt>
      <trkpt lat="43.1325910" lon="-1.2171200">
        <ele>207.4</ele>
        <time>2019-07-16T08:47:55Z</time>
      </trkpt>
      <trkpt lat="43.1325060" lon="-1.2170220">
        <ele>207.7</ele>
        <time>2019-07-16T08:47:59Z</time>
      </trkpt>
      <trkpt lat="43.1324350" lon="-1.2169160">
        <ele>208.1</ele>
        <time>2019-07-16T08:48:03Z</time>
      </trkpt>
      <trkpt lat="43.1322540" lon="-1.2168710">
        <ele>208.7</ele>
        <time>2019-07-16T08:48:09Z</time>
      </trkpt>
      <trkpt lat="43.1321480" lon="-1.2168020">
        <ele>209.2</ele>
        <time>2019-07-16T08:48:13Z</time>
      </trkpt>
      <trkpt lat="43.1320230" lon="-1.2167260">
        <ele>209.7</ele>
        <time>2019-07-16T08:48:18Z</time>
      </trkpt>
      <trkpt lat="43.1319220" lon="-1.2166760">
        <ele>210.0</ele>
        <time>2019-07-16T08:48:22Z</time>
      </trkpt>
      <trkpt lat="43.1318150" lon="-1.2166380">
        <ele>210.4</ele>
        <time>2019-07-16T08:48:26Z</time>
      </trkpt>
      <trkpt lat="43.1317080" lon="-1.2165940">
        <ele>210.8</ele>
        <time>2019-07-16T08:48:30Z</time>
      </trkpt>
      <trkpt lat="43.1316010" lon="-1.2165320">
        <ele>211.3</ele>
        <time>2019-07-16T08:48:34Z</time>
      </trkpt>
      <trkpt lat="43.1315050" lon="-1.2164610">
        <ele>211.8</ele>
        <time>2019-07-16T08:48:38Z</time>
      </trkpt>
      <trkpt lat="43.1314000" lon="-1.2164190">
        <ele>212.3</ele>
        <time>2019-07-16T08:48:42Z</time>
      </trkpt>
      <trkpt lat="43.1313100" lon="-1.2163580">
        <ele>212.7</ele>
        <time>2019-07-16T08:48:46Z</time>
      </trkpt>
      <trkpt lat="43.1312150" lon="-1.2163160">
        <ele>213.1</ele>
        <time>2019-07-16T08:48:50Z</time>
      </trkpt>
      <trkpt lat="43.1311040" lon="-1.2162270">
        <ele>213.6</ele>
        <time>2019-07-16T08:48:55Z</time>
      </trkpt>
      <trkpt lat="43.1310140" lon="-1.2161670">
        <ele>214.0</ele>
        <time>2019-07-16T08:48:59Z</time>
      </trkpt>
      <trkpt lat="43.1309220" lon="-1.2161060">
        <ele>214.4</ele>
        <time>2019-07-16T08:49:03Z</time>
      </trkpt>
      <trkpt lat="43.1308200" lon="-1.2160340">
        <ele>215.0</ele>
        <time>2019-07-16T08:49:07Z</time>
      </trkpt>
      <trkpt lat="43.1307170" lon="-1.2159690">
        <ele>215.5</ele>
        <time>2019-07-16T08:49:11Z</time>
      </trkpt>
      <trkpt lat="43.1306140" lon="-1.2159000">
        <ele>216.0</ele>
        <time>2019-07-16T08:49:15Z</time>
      </trkpt>
      <trkpt lat="43.1305140" lon="-1.2158270">
        <ele>216.3</ele>
        <time>2019-07-16T08:49:19Z</time>
      </trkpt>
      <trkpt lat="43.1304110" lon="-1.2157490">
        <ele>216.3</ele>
        <time>2019-07-16T08:49:23Z</time>
      </trkpt>
      <trkpt lat="43.1303240" lon="-1.2156970">
        <ele>216.4</ele>
        <time>2019-07-16T08:49:26Z</time>
      </trkpt>
      <trkpt lat="43.1302360" lon="-1.2156450">
        <ele>216.4</ele>
        <time>2019-07-16T08:49:29Z</time>
      </trkpt>
      <trkpt lat="43.1301470" lon="-1.2155950">
        <ele>216.5</ele>
        <time>2019-07-16T08:49:32Z</time>
      </trkpt>
      <trkpt lat="43.1300590" lon="-1.2155490">
        <ele>216.6</ele>
        <time>2019-07-16T08:49:35Z</time>
      </trkpt>
      <trkpt lat="43.1299740" lon="-1.2154890">
        <ele>216.9</ele>
        <time>2019-07-16T08:49:38Z</time>
      </trkpt>
      <trkpt lat="43.1298920" lon="-1.2154270">
        <ele>217.1</ele>
        <time>2019-07-16T08:49:41Z</time>
      </trkpt>
      <trkpt lat="43.1298070" lon="-1.2153710">
        <ele>217.3</ele>
        <time>2019-07-16T08:49:44Z</time>
      </trkpt>
      <trkpt lat="43.1297210" lon="-1.2153010">
        <ele>217.4</ele>
        <time>2019-07-16T08:49:47Z</time>
      </trkpt>
      <trkpt lat="43.1296040" lon="-1.2151930">
        <ele>217.5</ele>
        <time>2019-07-16T08:49:51Z</time>
      </trkpt>
      <trkpt lat="43.1295210" lon="-1.2151060">
        <ele>217.6</ele>
        <time>2019-07-16T08:49:54Z</time>
      </trkpt>
      <trkpt lat="43.1294320" lon="-1.2150220">
        <ele>217.8</ele>
        <time>2019-07-16T08:49:57Z</time>
      </trkpt>
      <trkpt lat="43.1293460" lon="-1.2149370">
        <ele>218.0</ele>
        <time>2019-07-16T08:50:00Z</time>
      </trkpt>
      <trkpt lat="43.1292660" lon="-1.2148500">
        <ele>218.4</ele>
        <time>2019-07-16T08:50:03Z</time>
      </trkpt>
      <trkpt lat="43.1291860" lon="-1.2147600">
        <ele>218.9</ele>
        <time>2019-07-16T08:50:06Z</time>
      </trkpt>
      <trkpt lat="43.1291050" lon="-1.2146740">
        <ele>219.7</ele>
        <time>2019-07-16T08:50:09Z</time>
      </trkpt>
      <trkpt lat="43.1290230" lon="-1.2146160">
        <ele>220.6</ele>
        <time>2019-07-16T08:50:12Z</time>
      </trkpt>
      <trkpt lat="43.1288910" lon="-1.2145390">
        <ele>219.1</ele>
        <time>2019-07-16T08:50:17Z</time>
      </trkpt>
      <trkpt lat="43.1287950" lon="-1.2145130">
        <ele>218.0</ele>
        <time>2019-07-16T08:50:21Z</time>
      </trkpt>
      <trkpt lat="43.1287060" lon="-1.2144800">
        <ele>216.8</ele>
        <time>2019-07-16T08:50:25Z</time>
      </trkpt>
      <trkpt lat="43.1286160" lon="-1.2144410">
        <ele>215.4</ele>
        <time>2019-07-16T08:50:28Z</time>
      </trkpt>
      <trkpt lat="43.1285390" lon="-1.2143440">
        <ele>213.9</ele>
        <time>2019-07-16T08:50:31Z</time>
      </trkpt>
      <trkpt lat="43.1284250" lon="-1.2142500">
        <ele>212.7</ele>
        <time>2019-07-16T08:50:34Z</time>
      </trkpt>
      <trkpt lat="43.1282760" lon="-1.2141970">
        <ele>212.0</ele>
        <time>2019-07-16T08:50:36Z</time>
      </trkpt>
      <trkpt lat="43.1280540" lon="-1.2141750">
        <ele>211.6</ele>
        <time>2019-07-16T08:50:39Z</time>
      </trkpt>
      <trkpt lat="43.1278000" lon="-1.2141360">
        <ele>211.2</ele>
        <time>2019-07-16T08:50:42Z</time>
      </trkpt>
      <trkpt lat="43.1276340" lon="-1.2140860">
        <ele>211.0</ele>
        <time>2019-07-16T08:50:44Z</time>
      </trkpt>
      <trkpt lat="43.1274800" lon="-1.2140300">
        <ele>210.8</ele>
        <time>2019-07-16T08:50:46Z</time>
      </trkpt>
      <trkpt lat="43.1273340" lon="-1.2139740">
        <ele>210.7</ele>
        <time>2019-07-16T08:50:48Z</time>
      </trkpt>
      <trkpt lat="43.1272050" lon="-1.2139060">
        <ele>210.6</ele>
        <time>2019-07-16T08:50:50Z</time>
      </trkpt>
      <trkpt lat="43.1270830" lon="-1.2138270">
        <ele>210.5</ele>
        <time>2019-07-16T08:50:52Z</time>
      </trkpt>
      <trkpt lat="43.1269690" lon="-1.2137430">
        <ele>210.4</ele>
        <time>2019-07-16T08:50:54Z</time>
      </trkpt>
      <trkpt lat="43.1268650" lon="-1.2136550">
        <ele>210.5</ele>
        <time>2019-07-16T08:50:56Z</time>
      </trkpt>
      <trkpt lat="43.1267680" lon="-1.2135710">
        <ele>210.6</ele>
        <time>2019-07-16T08:50:58Z</time>
      </trkpt>
      <trkpt lat="43.1266710" lon="-1.2134940">
        <ele>210.7</ele>
        <time>2019-07-16T08:51:00Z</time>
      </trkpt>
      <trkpt lat="43.1265730" lon="-1.2134250">
        <ele>210.8</ele>
        <time>2019-07-16T08:51:02Z</time>
      </trkpt>
      <trkpt lat="43.1264750" lon="-1.2133820">
        <ele>211.0</ele>
        <time>2019-07-16T08:51:04Z</time>
      </trkpt>
      <trkpt lat="43.1263730" lon="-1.2133530">
        <ele>211.2</ele>
        <time>2019-07-16T08:51:06Z</time>
      </trkpt>
      <trkpt lat="43.1262710" lon="-1.2133340">
        <ele>211.4</ele>
        <time>2019-07-16T08:51:08Z</time>
      </trkpt>
      <trkpt lat="43.1261820" lon="-1.2133100">
        <ele>211.5</ele>
        <time>2019-07-16T08:51:10Z</time>
      </trkpt>
      <trkpt lat="43.1260820" lon="-1.2133060">
        <ele>211.7</ele>
        <time>2019-07-16T08:51:12Z</time>
      </trkpt>
      <trkpt lat="43.1259850" lon="-1.2133110">
        <ele>211.8</ele>
        <time>2019-07-16T08:51:14Z</time>
      </trkpt>
      <trkpt lat="43.1258520" lon="-1.2133010">
        <ele>211.9</ele>
        <time>2019-07-16T08:51:17Z</time>
      </trkpt>
      <trkpt lat="43.1256890" lon="-1.2133070">
        <ele>211.9</ele>
        <time>2019-07-16T08:51:21Z</time>
      </trkpt>
      <trkpt lat="43.1255780" lon="-1.2133050">
        <ele>211.9</ele>
        <time>2019-07-16T08:51:24Z</time>
      </trkpt>
      <trkpt lat="43.1254710" lon="-1.2133100">
        <ele>211.9</ele>
        <time>2019-07-16T08:51:27Z</time>
      </trkpt>
      <trkpt lat="43.1253610" lon="-1.2133330">
        <ele>211.8</ele>
        <time>2019-07-16T08:51:30Z</time>
      </trkpt>
      <trkpt lat="43.1251860" lon="-1.2133930">
        <ele>211.5</ele>
        <time>2019-07-16T08:51:35Z</time>
      </trkpt>
      <trkpt lat="43.1250920" lon="-1.2134280">
        <ele>211.4</ele>
        <time>2019-07-16T08:51:38Z</time>
      </trkpt>
      <trkpt lat="43.1249980" lon="-1.2134620">
        <ele>211.2</ele>
        <time>2019-07-16T08:51:41Z</time>
      </trkpt>
      <trkpt lat="43.1249070" lon="-1.2135060">
        <ele>211.0</ele>
        <time>2019-07-16T08:51:44Z</time>
      </trkpt>
      <trkpt lat="43.1248200" lon="-1.2135690">
        <ele>210.5</ele>
        <time>2019-07-16T08:51:47Z</time>
      </trkpt>
      <trkpt lat="43.1247250" lon="-1.2136560">
        <ele>210.1</ele>
        <time>2019-07-16T08:51:51Z</time>
      </trkpt>
      <trkpt lat="43.1246340" lon="-1.2137360">
        <ele>209.9</ele>
        <time>2019-07-16T08:51:55Z</time>
      </trkpt>
      <trkpt lat="43.1245360" lon="-1.2138150">
        <ele>209.8</ele>
        <time>2019-07-16T08:51:59Z</time>
      </trkpt>
      <trkpt lat="43.1244470" lon="-1.2138630">
        <ele>209.8</ele>
        <time>2019-07-16T08:52:02Z</time>
      </trkpt>
      <trkpt lat="43.1243440" lon="-1.2139290">
        <ele>210.0</ele>
        <time>2019-07-16T08:52:05Z</time>
      </trkpt>
      <trkpt lat="43.1242550" lon="-1.2139600">
        <ele>210.1</ele>
        <time>2019-07-16T08:52:07Z</time>
      </trkpt>
      <trkpt lat="43.1241530" lon="-1.2140090">
        <ele>210.2</ele>
        <time>2019-07-16T08:52:09Z</time>
      </trkpt>
      <trkpt lat="43.1240580" lon="-1.2140810">
        <ele>210.4</ele>
        <time>2019-07-16T08:52:11Z</time>
      </trkpt>
      <trkpt lat="43.1239750" lon="-1.2141580">
        <ele>210.5</ele>
        <time>2019-07-16T08:52:13Z</time>
      </trkpt>
      <trkpt lat="43.1238990" lon="-1.2142310">
        <ele>210.6</ele>
        <time>2019-07-16T08:52:15Z</time>
      </trkpt>
      <trkpt lat="43.1238290" lon="-1.2143110">
        <ele>210.7</ele>
        <time>2019-07-16T08:52:17Z</time>
      </trkpt>
      <trkpt lat="43.1237250" lon="-1.2144060">
        <ele>210.8</ele>
        <time>2019-07-16T08:52:20Z</time>
      </trkpt>
      <trkpt lat="43.1236340" lon="-1.2144740">
        <ele>210.9</ele>
        <time>2019-07-16T08:52:23Z</time>
      </trkpt>
      <trkpt lat="43.1235320" lon="-1.2145570">
        <ele>211.0</ele>
        <time>2019-07-16T08:52:27Z</time>
      </trkpt>
      <trkpt lat="43.1234480" lon="-1.2146230">
        <ele>211.2</ele>
        <time>2019-07-16T08:52:30Z</time>
      </trkpt>
      <trkpt lat="43.1233700" lon="-1.2147060">
        <ele>211.3</ele>
        <time>2019-07-16T08:52:33Z</time>
      </trkpt>
      <trkpt lat="43.1232780" lon="-1.2147960">
        <ele>211.6</ele>
        <time>2019-07-16T08:52:36Z</time>
      </trkpt>
      <trkpt lat="43.1231910" lon="-1.2148740">
        <ele>211.8</ele>
        <time>2019-07-16T08:52:39Z</time>
      </trkpt>
      <trkpt lat="43.1230860" lon="-1.2149350">
        <ele>212.1</ele>
        <time>2019-07-16T08:52:42Z</time>
      </trkpt>
      <trkpt lat="43.1229870" lon="-1.2150000">
        <ele>212.4</ele>
        <time>2019-07-16T08:52:45Z</time>
      </trkpt>
      <trkpt lat="43.1228800" lon="-1.2150500">
        <ele>212.7</ele>
        <time>2019-07-16T08:52:48Z</time>
      </trkpt>
      <trkpt lat="43.1227680" lon="-1.2151040">
        <ele>213.1</ele>
        <time>2019-07-16T08:52:51Z</time>
      </trkpt>
      <trkpt lat="43.1226650" lon="-1.2151550">
        <ele>213.4</ele>
        <time>2019-07-16T08:52:54Z</time>
      </trkpt>
      <trkpt lat="43.1225670" lon="-1.2151950">
        <ele>213.7</ele>
        <time>2019-07-16T08:52:57Z</time>
      </trkpt>
      <trkpt lat="43.1224680" lon="-1.2152290">
        <ele>214.0</ele>
        <time>2019-07-16T08:53:00Z</time>
      </trkpt>
      <trkpt lat="43.1223640" lon="-1.2152470">
        <ele>214.3</ele>
        <time>2019-07-16T08:53:03Z</time>
      </trkpt>
      <trkpt lat="43.1222660" lon="-1.2152650">
        <ele>214.5</ele>
        <time>2019-07-16T08:53:06Z</time>
      </trkpt>
      <trkpt lat="43.1221680" lon="-1.2152810">
        <ele>214.7</ele>
        <time>2019-07-16T08:53:09Z</time>
      </trkpt>
      <trkpt lat="43.1220750" lon="-1.2153010">
        <ele>214.8</ele>
        <time>2019-07-16T08:53:12Z</time>
      </trkpt>
      <trkpt lat="43.1219840" lon="-1.2153340">
        <ele>214.9</ele>
        <time>2019-07-16T08:53:15Z</time>
      </trkpt>
      <trkpt lat="43.1218910" lon="-1.2153680">
        <ele>215.0</ele>
        <time>2019-07-16T08:53:18Z</time>
      </trkpt>
      <trkpt lat="43.1217820" lon="-1.2153980">
        <ele>215.1</ele>
        <time>2019-07-16T08:53:22Z</time>
      </trkpt>
      <trkpt lat="43.1216700" lon="-1.2154310">
        <ele>215.2</ele>
        <time>2019-07-16T08:53:26Z</time>
      </trkpt>
      <trkpt lat="43.1215600" lon="-1.2154700">
        <ele>215.3</ele>
        <time>2019-07-16T08:53:30Z</time>
      </trkpt>
      <trkpt lat="43.1214440" lon="-1.2154970">
        <ele>215.4</ele>
        <time>2019-07-16T08:53:34Z</time>
      </trkpt>
      <trkpt lat="43.1213300" lon="-1.2155270">
        <ele>215.4</ele>
        <time>2019-07-16T08:53:38Z</time>
      </trkpt>
      <trkpt lat="43.1212400" lon="-1.2155500">
        <ele>215.5</ele>
        <time>2019-07-16T08:53:41Z</time>
      </trkpt>
      <trkpt lat="43.1211210" lon="-1.2155780">
        <ele>215.5</ele>
        <time>2019-07-16T08:53:45Z</time>
      </trkpt>
      <trkpt lat="43.1210290" lon="-1.2155910">
        <ele>215.6</ele>
        <time>2019-07-16T08:53:48Z</time>
      </trkpt>
      <trkpt lat="43.1209350" lon="-1.2156030">
        <ele>215.6</ele>
        <time>2019-07-16T08:53:51Z</time>
      </trkpt>
      <trkpt lat="43.1208380" lon="-1.2156170">
        <ele>215.7</ele>
        <time>2019-07-16T08:53:54Z</time>
      </trkpt>
      <trkpt lat="43.1207400" lon="-1.2156230">
        <ele>215.8</ele>
        <time>2019-07-16T08:53:57Z</time>
      </trkpt>
      <trkpt lat="43.1206430" lon="-1.2156390">
        <ele>216.0</ele>
        <time>2019-07-16T08:54:00Z</time>
      </trkpt>
      <trkpt lat="43.1205530" lon="-1.2156600">
        <ele>216.1</ele>
        <time>2019-07-16T08:54:03Z</time>
      </trkpt>
      <trkpt lat="43.1204570" lon="-1.2156750">
        <ele>216.4</ele>
        <time>2019-07-16T08:54:06Z</time>
      </trkpt>
      <trkpt lat="43.1203550" lon="-1.2156970">
        <ele>216.6</ele>
        <time>2019-07-16T08:54:09Z</time>
      </trkpt>
      <trkpt lat="43.1202590" lon="-1.2157130">
        <ele>216.9</ele>
        <time>2019-07-16T08:54:12Z</time>
      </trkpt>
      <trkpt lat="43.1201620" lon="-1.2157310">
        <ele>217.3</ele>
        <time>2019-07-16T08:54:15Z</time>
      </trkpt>
      <trkpt lat="43.1200640" lon="-1.2157490">
        <ele>217.6</ele>
        <time>2019-07-16T08:54:18Z</time>
      </trkpt>
      <trkpt lat="43.1199700" lon="-1.2157670">
        <ele>218.0</ele>
        <time>2019-07-16T08:54:21Z</time>
      </trkpt>
      <trkpt lat="43.1198770" lon="-1.2157880">
        <ele>218.4</ele>
        <time>2019-07-16T08:54:24Z</time>
      </trkpt>
      <trkpt lat="43.1197860" lon="-1.2158080">
        <ele>218.7</ele>
        <time>2019-07-16T08:54:27Z</time>
      </trkpt>
      <trkpt lat="43.1196750" lon="-1.2158330">
        <ele>219.3</ele>
        <time>2019-07-16T08:54:31Z</time>
      </trkpt>
      <trkpt lat="43.1195750" lon="-1.2158550">
        <ele>219.7</ele>
        <time>2019-07-16T08:54:35Z</time>
      </trkpt>
      <trkpt lat="43.1194710" lon="-1.2158760">
        <ele>220.0</ele>
        <time>2019-07-16T08:54:39Z</time>
      </trkpt>
      <trkpt lat="43.1193770" lon="-1.2158770">
        <ele>220.2</ele>
        <time>2019-07-16T08:54:43Z</time>
      </trkpt>
      <trkpt lat="43.1192710" lon="-1.2158770">
        <ele>220.4</ele>
        <time>2019-07-16T08:54:48Z</time>
      </trkpt>
      <trkpt lat="43.1191800" lon="-1.2158580">
        <ele>220.5</ele>
        <time>2019-07-16T08:54:52Z</time>
      </trkpt>
      <trkpt lat="43.1190880" lon="-1.2158560">
        <ele>220.6</ele>
        <time>2019-07-16T08:54:56Z</time>
      </trkpt>
      <trkpt lat="43.1189860" lon="-1.2158310">
        <ele>220.6</ele>
        <time>2019-07-16T08:55:01Z</time>
      </trkpt>
      <trkpt lat="43.1188770" lon="-1.2158010">
        <ele>220.5</ele>
        <time>2019-07-16T08:55:06Z</time>
      </trkpt>
      <trkpt lat="43.1187690" lon="-1.2157830">
        <ele>220.3</ele>
        <time>2019-07-16T08:55:11Z</time>
      </trkpt>
      <trkpt lat="43.1186680" lon="-1.2157380">
        <ele>220.0</ele>
        <time>2019-07-16T08:55:16Z</time>
      </trkpt>
      <trkpt lat="43.1185730" lon="-1.2157090">
        <ele>219.6</ele>
        <time>2019-07-16T08:55:20Z</time>
      </trkpt>
      <trkpt lat="43.1184650" lon="-1.2156640">
        <ele>218.9</ele>
        <time>2019-07-16T08:55:25Z</time>
      </trkpt>
      <trkpt lat="43.1183700" lon="-1.2156230">
        <ele>218.2</ele>
        <time>2019-07-16T08:55:30Z</time>
      </trkpt>
      <trkpt lat="43.1182640" lon="-1.2155550">
        <ele>217.2</ele>
        <time>2019-07-16T08:55:35Z</time>
      </trkpt>
      <trkpt lat="43.1181610" lon="-1.2154760">
        <ele>216.4</ele>
        <time>2019-07-16T08:55:38Z</time>
      </trkpt>
      <trkpt lat="43.1180760" lon="-1.2153930">
        <ele>215.8</ele>
        <time>2019-07-16T08:55:40Z</time>
      </trkpt>
      <trkpt lat="43.1179740" lon="-1.2152950">
        <ele>215.4</ele>
        <time>2019-07-16T08:55:42Z</time>
      </trkpt>
      <trkpt lat="43.1178600" lon="-1.2151850">
        <ele>215.5</ele>
        <time>2019-07-16T08:55:44Z</time>
      </trkpt>
      <trkpt lat="43.1177350" lon="-1.2150620">
        <ele>216.0</ele>
        <time>2019-07-16T08:55:46Z</time>
      </trkpt>
      <trkpt lat="43.1176040" lon="-1.2149160">
        <ele>216.8</ele>
        <time>2019-07-16T08:55:48Z</time>
      </trkpt>
      <trkpt lat="43.1174750" lon="-1.2147600">
        <ele>217.7</ele>
        <time>2019-07-16T08:55:50Z</time>
      </trkpt>
      <trkpt lat="43.1173660" lon="-1.2145960">
        <ele>218.4</ele>
        <time>2019-07-16T08:55:52Z</time>
      </trkpt>
      <trkpt lat="43.1172800" lon="-1.2144220">
        <ele>219.0</ele>
        <time>2019-07-16T08:55:54Z</time>
      </trkpt>
      <trkpt lat="43.1172260" lon="-1.2142540">
        <ele>219.5</ele>
        <time>2019-07-16T08:55:56Z</time>
      </trkpt>
      <trkpt lat="43.1171870" lon="-1.2141120">
        <ele>219.9</ele>
        <time>2019-07-16T08:55:58Z</time>
      </trkpt>
      <trkpt lat="43.1171480" lon="-1.2140010">
        <ele>220.1</ele>
        <time>2019-07-16T08:56:00Z</time>
      </trkpt>
      <trkpt lat="43.1170820" lon="-1.2138820">
        <ele>220.4</ele>
        <time>2019-07-16T08:56:03Z</time>
      </trkpt>
      <trkpt lat="43.1170050" lon="-1.2137630">
        <ele>220.7</ele>
        <time>2019-07-16T08:56:07Z</time>
      </trkpt>
      <trkpt lat="43.1169470" lon="-1.2136680">
        <ele>220.7</ele>
        <time>2019-07-16T08:56:11Z</time>
      </trkpt>
      <trkpt lat="43.1168800" lon="-1.2135780">
        <ele>220.8</ele>
        <time>2019-07-16T08:56:15Z</time>
      </trkpt>
      <trkpt lat="43.1167970" lon="-1.2135100">
        <ele>220.8</ele>
        <time>2019-07-16T08:56:19Z</time>
      </trkpt>
      <trkpt lat="43.1166970" lon="-1.2134530">
        <ele>220.7</ele>
        <time>2019-07-16T08:56:23Z</time>
      </trkpt>
      <trkpt lat="43.1165930" lon="-1.2134210">
        <ele>220.6</ele>
        <time>2019-07-16T08:56:27Z</time>
      </trkpt>
      <trkpt lat="43.1165010" lon="-1.2133880">
        <ele>220.4</ele>
        <time>2019-07-16T08:56:30Z</time>
      </trkpt>
      <trkpt lat="43.1163860" lon="-1.2133400">
        <ele>220.1</ele>
        <time>2019-07-16T08:56:34Z</time>
      </trkpt>
      <trkpt lat="43.1162790" lon="-1.2133020">
        <ele>219.7</ele>
        <time>2019-07-16T08:56:38Z</time>
      </trkpt>
      <trkpt lat="43.1161710" lon="-1.2132730">
        <ele>219.5</ele>
        <time>2019-07-16T08:56:42Z</time>
      </trkpt>
      <trkpt lat="43.1160680" lon="-1.2132590">
        <ele>219.3</ele>
        <time>2019-07-16T08:56:46Z</time>
      </trkpt>
      <trkpt lat="43.1159700" lon="-1.2132540">
        <ele>219.2</ele>
        <time>2019-07-16T08:56:50Z</time>
      </trkpt>
      <trkpt lat="43.1158800" lon="-1.2132560">
        <ele>219.3</ele>
        <time>2019-07-16T08:56:53Z</time>
      </trkpt>
      <trkpt lat="43.1157630" lon="-1.2132080">
        <ele>219.5</ele>
        <time>2019-07-16T08:56:56Z</time>
      </trkpt>
      <trkpt lat="43.1156540" lon="-1.2131180">
        <ele>220.2</ele>
        <time>2019-07-16T08:56:59Z</time>
      </trkpt>
      <trkpt lat="43.1155420" lon="-1.2130250">
        <ele>220.9</ele>
        <time>2019-07-16T08:57:02Z</time>
      </trkpt>
      <trkpt lat="43.1154300" lon="-1.2129280">
        <ele>221.7</ele>
        <time>2019-07-16T08:57:05Z</time>
      </trkpt>
      <trkpt lat="43.1153240" lon="-1.2128380">
        <ele>222.6</ele>
        <time>2019-07-16T08:57:08Z</time>
      </trkpt>
      <trkpt lat="43.1152300" lon="-1.2127620">
        <ele>223.4</ele>
        <time>2019-07-16T08:57:11Z</time>
      </trkpt>
      <trkpt lat="43.1151400" lon="-1.2126610">
        <ele>224.2</ele>
        <time>2019-07-16T08:57:14Z</time>
      </trkpt>
      <trkpt lat="43.1150570" lon="-1.2125710">
        <ele>225.0</ele>
        <time>2019-07-16T08:57:17Z</time>
      </trkpt>
      <trkpt lat="43.1149870" lon="-1.2124790">
        <ele>225.6</ele>
        <time>2019-07-16T08:57:20Z</time>
      </trkpt>
      <trkpt lat="43.1149160" lon="-1.2123600">
        <ele>226.4</ele>
        <time>2019-07-16T08:57:24Z</time>
      </trkpt>
      <trkpt lat="43.1148460" lon="-1.2122620">
        <ele>227.2</ele>
        <time>2019-07-16T08:57:28Z</time>
      </trkpt>
      <trkpt lat="43.1147720" lon="-1.2121610">
        <ele>228.1</ele>
        <time>2019-07-16T08:57:33Z</time>
      </trkpt>
      <trkpt lat="43.1147100" lon="-1.2120710">
        <ele>228.9</ele>
        <time>2019-07-16T08:57:37Z</time>
      </trkpt>
      <trkpt lat="43.1146410" lon="-1.2119910">
        <ele>229.6</ele>
        <time>2019-07-16T08:57:42Z</time>
      </trkpt>
      <trkpt lat="43.1145780" lon="-1.2118970">
        <ele>230.1</ele>
        <time>2019-07-16T08:57:47Z</time>
      </trkpt>
      <trkpt lat="43.1145130" lon="-1.2117790">
        <ele>230.4</ele>
        <time>2019-07-16T08:57:52Z</time>
      </trkpt>
      <trkpt lat="43.1144770" lon="-1.2116550">
        <ele>230.6</ele>
        <time>2019-07-16T08:57:57Z</time>
      </trkpt>
      <trkpt lat="43.1144330" lon="-1.2115340">
        <ele>230.7</ele>
        <time>2019-07-16T08:58:02Z</time>
      </trkpt>
      <trkpt lat="43.1144050" lon="-1.2114060">
        <ele>230.9</ele>
        <time>2019-07-16T08:58:07Z</time>
      </trkpt>
      <trkpt lat="43.1143800" lon="-1.2112780">
        <ele>231.1</ele>
        <time>2019-07-16T08:58:13Z</time>
      </trkpt>
      <trkpt lat="43.1143380" lon="-1.2111660">
        <ele>231.3</ele>
        <time>2019-07-16T08:58:18Z</time>
      </trkpt>
      <trkpt lat="43.1143200" lon="-1.2110410">
        <ele>231.6</ele>
        <time>2019-07-16T08:58:23Z</time>
      </trkpt>
      <trkpt lat="43.1143170" lon="-1.2108970">
        <ele>231.9</ele>
        <time>2019-07-16T08:58:28Z</time>
      </trkpt>
      <trkpt lat="43.1143350" lon="-1.2107580">
        <ele>232.2</ele>
        <time>2019-07-16T08:58:33Z</time>
      </trkpt>
      <trkpt lat="43.1143550" lon="-1.2106380">
        <ele>232.3</ele>
        <time>2019-07-16T08:58:37Z</time>
      </trkpt>
      <trkpt lat="43.1143750" lon="-1.2105130">
        <ele>232.5</ele>
        <time>2019-07-16T08:58:41Z</time>
      </trkpt>
      <trkpt lat="43.1143830" lon="-1.2103850">
        <ele>232.5</ele>
        <time>2019-07-16T08:58:45Z</time>
      </trkpt>
      <trkpt lat="43.1143880" lon="-1.2102600">
        <ele>232.6</ele>
        <time>2019-07-16T08:58:49Z</time>
      </trkpt>
      <trkpt lat="43.1143950" lon="-1.2101350">
        <ele>232.6</ele>
        <time>2019-07-16T08:58:53Z</time>
      </trkpt>
      <trkpt lat="43.1143890" lon="-1.2100070">
        <ele>232.5</ele>
        <time>2019-07-16T08:58:57Z</time>
      </trkpt>
      <trkpt lat="43.1143910" lon="-1.2098530">
        <ele>232.3</ele>
        <time>2019-07-16T08:59:01Z</time>
      </trkpt>
      <trkpt lat="43.1143930" lon="-1.2097000">
        <ele>232.1</ele>
        <time>2019-07-16T08:59:05Z</time>
      </trkpt>
      <trkpt lat="43.1143990" lon="-1.2095710">
        <ele>231.7</ele>
        <time>2019-07-16T08:59:09Z</time>
      </trkpt>
      <trkpt lat="43.1144080" lon="-1.2094290">
        <ele>231.3</ele>
        <time>2019-07-16T08:59:14Z</time>
      </trkpt>
      <trkpt lat="43.1144120" lon="-1.2092560">
        <ele>230.9</ele>
        <time>2019-07-16T08:59:18Z</time>
      </trkpt>
      <trkpt lat="43.1144160" lon="-1.2090780">
        <ele>230.5</ele>
        <time>2019-07-16T08:59:21Z</time>
      </trkpt>
      <trkpt lat="43.1144200" lon="-1.2089330">
        <ele>230.0</ele>
        <time>2019-07-16T08:59:23Z</time>
      </trkpt>
      <trkpt lat="43.1144120" lon="-1.2087690">
        <ele>229.7</ele>
        <time>2019-07-16T08:59:25Z</time>
      </trkpt>
      <trkpt lat="43.1143820" lon="-1.2085940">
        <ele>229.3</ele>
        <time>2019-07-16T08:59:27Z</time>
      </trkpt>
      <trkpt lat="43.1143210" lon="-1.2084300">
        <ele>228.7</ele>
        <time>2019-07-16T08:59:29Z</time>
      </trkpt>
      <trkpt lat="43.1142530" lon="-1.2082670">
        <ele>228.2</ele>
        <time>2019-07-16T08:59:31Z</time>
      </trkpt>
      <trkpt lat="43.1141840" lon="-1.2081080">
        <ele>227.8</ele>
        <time>2019-07-16T08:59:33Z</time>
      </trkpt>
      <trkpt lat="43.1141030" lon="-1.2079570">
        <ele>227.5</ele>
        <time>2019-07-16T08:59:35Z</time>
      </trkpt>
      <trkpt lat="43.1140170" lon="-1.2078220">
        <ele>227.4</ele>
        <time>2019-07-16T08:59:37Z</time>
      </trkpt>
      <trkpt lat="43.1139300" lon="-1.2076920">
        <ele>227.5</ele>
        <time>2019-07-16T08:59:39Z</time>
      </trkpt>
      <trkpt lat="43.1138370" lon="-1.2075630">
        <ele>226.8</ele>
        <time>2019-07-16T08:59:41Z</time>
      </trkpt>
      <trkpt lat="43.1137320" lon="-1.2074380">
        <ele>226.2</ele>
        <time>2019-07-16T08:59:43Z</time>
      </trkpt>
      <trkpt lat="43.1136100" lon="-1.2073360">
        <ele>225.7</ele>
        <time>2019-07-16T08:59:45Z</time>
      </trkpt>
      <trkpt lat="43.1134940" lon="-1.2072480">
        <ele>225.3</ele>
        <time>2019-07-16T08:59:47Z</time>
      </trkpt>
      <trkpt lat="43.1133740" lon="-1.2071680">
        <ele>224.7</ele>
        <time>2019-07-16T08:59:49Z</time>
      </trkpt>
      <trkpt lat="43.1132770" lon="-1.2070710">
        <ele>224.2</ele>
        <time>2019-07-16T08:59:51Z</time>
      </trkpt>
      <trkpt lat="43.1131910" lon="-1.2069810">
        <ele>224.1</ele>
        <time>2019-07-16T08:59:53Z</time>
      </trkpt>
      <trkpt lat="43.1131230" lon="-1.2069000">
        <ele>224.1</ele>
        <time>2019-07-16T08:59:55Z</time>
      </trkpt>
      <trkpt lat="43.1130560" lon="-1.2067990">
        <ele>224.0</ele>
        <time>2019-07-16T08:59:58Z</time>
      </trkpt>
      <trkpt lat="43.1129990" lon="-1.2066780">
        <ele>223.8</ele>
        <time>2019-07-16T09:00:02Z</time>
      </trkpt>
      <trkpt lat="43.1129480" lon="-1.2065520">
        <ele>223.5</ele>
        <time>2019-07-16T09:00:07Z</time>
      </trkpt>
      <trkpt lat="43.1128950" lon="-1.2064190">
        <ele>223.1</ele>
        <time>2019-07-16T09:00:12Z</time>
      </trkpt>
      <trkpt lat="43.1128700" lon="-1.2063010">
        <ele>222.6</ele>
        <time>2019-07-16T09:00:16Z</time>
      </trkpt>
      <trkpt lat="43.1128450" lon="-1.2061810">
        <ele>222.0</ele>
        <time>2019-07-16T09:00:20Z</time>
      </trkpt>
      <trkpt lat="43.1128300" lon="-1.2060490">
        <ele>221.4</ele>
        <time>2019-07-16T09:00:25Z</time>
      </trkpt>
      <trkpt lat="43.1127990" lon="-1.2058920">
        <ele>220.8</ele>
        <time>2019-07-16T09:00:30Z</time>
      </trkpt>
      <trkpt lat="43.1127830" lon="-1.2057220">
        <ele>220.4</ele>
        <time>2019-07-16T09:00:34Z</time>
      </trkpt>
      <trkpt lat="43.1127560" lon="-1.2055720">
        <ele>220.1</ele>
        <time>2019-07-16T09:00:37Z</time>
      </trkpt>
      <trkpt lat="43.1127230" lon="-1.2054330">
        <ele>219.9</ele>
        <time>2019-07-16T09:00:39Z</time>
      </trkpt>
      <trkpt lat="43.1126780" lon="-1.2052920">
        <ele>219.7</ele>
        <time>2019-07-16T09:00:41Z</time>
      </trkpt>
      <trkpt lat="43.1126180" lon="-1.2051480">
        <ele>219.6</ele>
        <time>2019-07-16T09:00:43Z</time>
      </trkpt>
      <trkpt lat="43.1125510" lon="-1.2050000">
        <ele>219.5</ele>
        <time>2019-07-16T09:00:45Z</time>
      </trkpt>
      <trkpt lat="43.1124720" lon="-1.2048670">
        <ele>219.6</ele>
        <time>2019-07-16T09:00:47Z</time>
      </trkpt>
      <trkpt lat="43.1123990" lon="-1.2047250">
        <ele>219.8</ele>
        <time>2019-07-16T09:00:49Z</time>
      </trkpt>
      <trkpt lat="43.1123340" lon="-1.2045900">
        <ele>220.2</ele>
        <time>2019-07-16T09:00:51Z</time>
      </trkpt>
      <trkpt lat="43.1122550" lon="-1.2044790">
        <ele>220.7</ele>
        <time>2019-07-16T09:00:53Z</time>
      </trkpt>
      <trkpt lat="43.1121740" lon="-1.2043700">
        <ele>221.4</ele>
        <time>2019-07-16T09:00:55Z</time>
      </trkpt>
      <trkpt lat="43.1120940" lon="-1.2042600">
        <ele>222.1</ele>
        <time>2019-07-16T09:00:57Z</time>
      </trkpt>
      <trkpt lat="43.1120100" lon="-1.2041700">
        <ele>222.7</ele>
        <time>2019-07-16T09:00:59Z</time>
      </trkpt>
      <trkpt lat="43.1119200" lon="-1.2040920">
        <ele>223.2</ele>
        <time>2019-07-16T09:01:01Z</time>
      </trkpt>
      <trkpt lat="43.1118310" lon="-1.2040270">
        <ele>223.6</ele>
        <time>2019-07-16T09:01:03Z</time>
      </trkpt>
      <trkpt lat="43.1117510" lon="-1.2039660">
        <ele>224.0</ele>
        <time>2019-07-16T09:01:05Z</time>
      </trkpt>
      <trkpt lat="43.1116720" lon="-1.2038470">
        <ele>224.4</ele>
        <time>2019-07-16T09:01:08Z</time>
      </trkpt>
      <trkpt lat="43.1115870" lon="-1.2037390">
        <ele>225.0</ele>
        <time>2019-07-16T09:01:11Z</time>
      </trkpt>
      <trkpt lat="43.1115040" lon="-1.2036470">
        <ele>225.5</ele>
        <time>2019-07-16T09:01:14Z</time>
      </trkpt>
      <trkpt lat="43.1114220" lon="-1.2035610">
        <ele>226.1</ele>
        <time>2019-07-16T09:01:17Z</time>
      </trkpt>
      <trkpt lat="43.1113500" lon="-1.2034840">
        <ele>226.7</ele>
        <time>2019-07-16T09:01:20Z</time>
      </trkpt>
      <trkpt lat="43.1112680" lon="-1.2034100">
        <ele>227.4</ele>
        <time>2019-07-16T09:01:24Z</time>
      </trkpt>
      <trkpt lat="43.1111810" lon="-1.2033440">
        <ele>228.1</ele>
        <time>2019-07-16T09:01:28Z</time>
      </trkpt>
      <trkpt lat="43.1111040" lon="-1.2032260">
        <ele>229.0</ele>
        <time>2019-07-16T09:01:32Z</time>
      </trkpt>
      <trkpt lat="43.1110200" lon="-1.2031240">
        <ele>229.8</ele>
        <time>2019-07-16T09:01:36Z</time>
      </trkpt>
      <trkpt lat="43.1109340" lon="-1.2030380">
        <ele>230.4</ele>
        <time>2019-07-16T09:01:40Z</time>
      </trkpt>
      <trkpt lat="43.1108480" lon="-1.2029420">
        <ele>231.1</ele>
        <time>2019-07-16T09:01:44Z</time>
      </trkpt>
      <trkpt lat="43.1107710" lon="-1.2028620">
        <ele>231.5</ele>
        <time>2019-07-16T09:01:48Z</time>
      </trkpt>
      <trkpt lat="43.1106810" lon="-1.2027780">
        <ele>232.0</ele>
        <time>2019-07-16T09:01:53Z</time>
      </trkpt>
      <trkpt lat="43.1105940" lon="-1.2027310">
        <ele>232.3</ele>
        <time>2019-07-16T09:01:57Z</time>
      </trkpt>
      <trkpt lat="43.1105080" lon="-1.2026670">
        <ele>232.5</ele>
        <time>2019-07-16T09:02:01Z</time>
      </trkpt>
      <trkpt lat="43.1104300" lon="-1.2025910">
        <ele>232.7</ele>
        <time>2019-07-16T09:02:05Z</time>
      </trkpt>
      <trkpt lat="43.1103450" lon="-1.2025410">
        <ele>232.7</ele>
        <time>2019-07-16T09:02:09Z</time>
      </trkpt>
      <trkpt lat="43.1102510" lon="-1.2024830">
        <ele>232.8</ele>
        <time>2019-07-16T09:02:14Z</time>
      </trkpt>
      <trkpt lat="43.1101770" lon="-1.2023930">
        <ele>232.8</ele>
        <time>2019-07-16T09:02:19Z</time>
      </trkpt>
      <trkpt lat="43.1101130" lon="-1.2023040">
        <ele>232.9</ele>
        <time>2019-07-16T09:02:23Z</time>
      </trkpt>
      <trkpt lat="43.1100370" lon="-1.2022140">
        <ele>232.9</ele>
        <time>2019-07-16T09:02:27Z</time>
      </trkpt>
      <trkpt lat="43.1099680" lon="-1.2021030">
        <ele>233.1</ele>
        <time>2019-07-16T09:02:32Z</time>
      </trkpt>
      <trkpt lat="43.1098910" lon="-1.2020040">
        <ele>233.2</ele>
        <time>2019-07-16T09:02:37Z</time>
      </trkpt>
      <trkpt lat="43.1098100" lon="-1.2019020">
        <ele>233.3</ele>
        <time>2019-07-16T09:02:42Z</time>
      </trkpt>
      <trkpt lat="43.1097310" lon="-1.2017990">
        <ele>233.4</ele>
        <time>2019-07-16T09:02:47Z</time>
      </trkpt>
      <trkpt lat="43.1096380" lon="-1.2017050">
        <ele>233.6</ele>
        <time>2019-07-16T09:02:52Z</time>
      </trkpt>
      <trkpt lat="43.1095680" lon="-1.2016160">
        <ele>233.8</ele>
        <time>2019-07-16T09:02:56Z</time>
      </trkpt>
      <trkpt lat="43.1095020" lon="-1.2015270">
        <ele>234.2</ele>
        <time>2019-07-16T09:03:00Z</time>
      </trkpt>
      <trkpt lat="43.1094340" lon="-1.2014180">
        <ele>234.9</ele>
        <time>2019-07-16T09:03:04Z</time>
      </trkpt>
      <trkpt lat="43.1093750" lon="-1.2012710">
        <ele>236.1</ele>
        <time>2019-07-16T09:03:07Z</time>
      </trkpt>
      <trkpt lat="43.1093430" lon="-1.2011330">
        <ele>237.0</ele>
        <time>2019-07-16T09:03:09Z</time>
      </trkpt>
      <trkpt lat="43.1093040" lon="-1.2009720">
        <ele>237.9</ele>
        <time>2019-07-16T09:03:11Z</time>
      </trkpt>
      <trkpt lat="43.1092460" lon="-1.2008100">
        <ele>238.4</ele>
        <time>2019-07-16T09:03:13Z</time>
      </trkpt>
      <trkpt lat="43.1091680" lon="-1.2006820">
        <ele>238.7</ele>
        <time>2019-07-16T09:03:15Z</time>
      </trkpt>
      <trkpt lat="43.1090830" lon="-1.2005850">
        <ele>238.8</ele>
        <time>2019-07-16T09:03:17Z</time>
      </trkpt>
      <trkpt lat="43.1089810" lon="-1.2004880">
        <ele>238.9</ele>
        <time>2019-07-16T09:03:20Z</time>
      </trkpt>
      <trkpt lat="43.1088930" lon="-1.2004290">
        <ele>239.0</ele>
        <time>2019-07-16T09:03:23Z</time>
      </trkpt>
      <trkpt lat="43.1088080" lon="-1.2003680">
        <ele>239.0</ele>
        <time>2019-07-16T09:03:27Z</time>
      </trkpt>
      <trkpt lat="43.1087290" lon="-1.2002990">
        <ele>239.1</ele>
        <time>2019-07-16T09:03:31Z</time>
      </trkpt>
      <trkpt lat="43.1086460" lon="-1.2002510">
        <ele>239.1</ele>
        <time>2019-07-16T09:03:35Z</time>
      </trkpt>
      <trkpt lat="43.1085770" lon="-1.2001550">
        <ele>239.2</ele>
        <time>2019-07-16T09:03:40Z</time>
      </trkpt>
      <trkpt lat="43.1085130" lon="-1.2000500">
        <ele>239.3</ele>
        <time>2019-07-16T09:03:44Z</time>
      </trkpt>
      <trkpt lat="43.1084630" lon="-1.1999430">
        <ele>239.3</ele>
        <time>2019-07-16T09:03:48Z</time>
      </trkpt>
      <trkpt lat="43.1083960" lon="-1.1998400">
        <ele>239.4</ele>
        <time>2019-07-16T09:03:52Z</time>
      </trkpt>
      <trkpt lat="43.1083300" lon="-1.1997140">
        <ele>239.5</ele>
        <time>2019-07-16T09:03:56Z</time>
      </trkpt>
      <trkpt lat="43.1082550" lon="-1.1995980">
        <ele>239.5</ele>
        <time>2019-07-16T09:04:00Z</time>
      </trkpt>
      <trkpt lat="43.1081910" lon="-1.1994910">
        <ele>239.4</ele>
        <time>2019-07-16T09:04:04Z</time>
      </trkpt>
      <trkpt lat="43.1081170" lon="-1.1993980">
        <ele>239.4</ele>
        <time>2019-07-16T09:04:08Z</time>
      </trkpt>
      <trkpt lat="43.1080380" lon="-1.1992810">
        <ele>239.4</ele>
        <time>2019-07-16T09:04:12Z</time>
      </trkpt>
      <trkpt lat="43.1079740" lon="-1.1991820">
        <ele>239.4</ele>
        <time>2019-07-16T09:04:15Z</time>
      </trkpt>
      <trkpt lat="43.1079140" lon="-1.1990860">
        <ele>239.4</ele>
        <time>2019-07-16T09:04:18Z</time>
      </trkpt>
      <trkpt lat="43.1078520" lon="-1.1989890">
        <ele>239.4</ele>
        <time>2019-07-16T09:04:21Z</time>
      </trkpt>
      <trkpt lat="43.1077850" lon="-1.1988910">
        <ele>239.3</ele>
        <time>2019-07-16T09:04:24Z</time>
      </trkpt>
      <trkpt lat="43.1077180" lon="-1.1987870">
        <ele>239.2</ele>
        <time>2019-07-16T09:04:27Z</time>
      </trkpt>
      <trkpt lat="43.1076480" lon="-1.1986840">
        <ele>239.2</ele>
        <time>2019-07-16T09:04:30Z</time>
      </trkpt>
      <trkpt lat="43.1075730" lon="-1.1985840">
        <ele>239.2</ele>
        <time>2019-07-16T09:04:33Z</time>
      </trkpt>
      <trkpt lat="43.1074980" lon="-1.1984750">
        <ele>239.2</ele>
        <time>2019-07-16T09:04:36Z</time>
      </trkpt>
      <trkpt lat="43.1074220" lon="-1.1983660">
        <ele>239.2</ele>
        <time>2019-07-16T09:04:39Z</time>
      </trkpt>
      <trkpt lat="43.1073380" lon="-1.1982610">
        <ele>239.2</ele>
        <time>2019-07-16T09:04:42Z</time>
      </trkpt>
      <trkpt lat="43.1072570" lon="-1.1981570">
        <ele>239.4</ele>
        <time>2019-07-16T09:04:45Z</time>
      </trkpt>
      <trkpt lat="43.1071800" lon="-1.1980490">
        <ele>239.6</ele>
        <time>2019-07-16T09:04:48Z</time>
      </trkpt>
      <trkpt lat="43.1070930" lon="-1.1979410">
        <ele>240.0</ele>
        <time>2019-07-16T09:04:51Z</time>
      </trkpt>
      <trkpt lat="43.1070050" lon="-1.1978370">
        <ele>240.3</ele>
        <time>2019-07-16T09:04:54Z</time>
      </trkpt>
      <trkpt lat="43.1069250" lon="-1.1977190">
        <ele>240.6</ele>
        <time>2019-07-16T09:04:57Z</time>
      </trkpt>
      <trkpt lat="43.1068500" lon="-1.1976070">
        <ele>240.7</ele>
        <time>2019-07-16T09:05:00Z</time>
      </trkpt>
      <trkpt lat="43.1067750" lon="-1.1974940">
        <ele>240.8</ele>
        <time>2019-07-16T09:05:03Z</time>
      </trkpt>
      <trkpt lat="43.1066930" lon="-1.1973830">
        <ele>240.7</ele>
        <time>2019-07-16T09:05:06Z</time>
      </trkpt>
      <trkpt lat="43.1066160" lon="-1.1972640">
        <ele>240.7</ele>
        <time>2019-07-16T09:05:09Z</time>
      </trkpt>
      <trkpt lat="43.1065440" lon="-1.1971620">
        <ele>240.6</ele>
        <time>2019-07-16T09:05:12Z</time>
      </trkpt>
      <trkpt lat="43.1064760" lon="-1.1970560">
        <ele>240.2</ele>
        <time>2019-07-16T09:05:15Z</time>
      </trkpt>
      <trkpt lat="43.1064120" lon="-1.1969570">
        <ele>239.6</ele>
        <time>2019-07-16T09:05:18Z</time>
      </trkpt>
      <trkpt lat="43.1063500" lon="-1.1968550">
        <ele>238.7</ele>
        <time>2019-07-16T09:05:22Z</time>
      </trkpt>
      <trkpt lat="43.1063000" lon="-1.1967220">
        <ele>237.8</ele>
        <time>2019-07-16T09:05:27Z</time>
      </trkpt>
      <trkpt lat="43.1062150" lon="-1.1966190">
        <ele>238.5</ele>
        <time>2019-07-16T09:05:31Z</time>
      </trkpt>
      <trkpt lat="43.1061080" lon="-1.1965520">
        <ele>237.0</ele>
        <time>2019-07-16T09:05:34Z</time>
      </trkpt>
      <trkpt lat="43.1060120" lon="-1.1964910">
        <ele>235.9</ele>
        <time>2019-07-16T09:05:38Z</time>
      </trkpt>
      <trkpt lat="43.1058980" lon="-1.1964130">
        <ele>234.7</ele>
        <time>2019-07-16T09:05:41Z</time>
      </trkpt>
      <trkpt lat="43.1058080" lon="-1.1963410">
        <ele>234.1</ele>
        <time>2019-07-16T09:05:43Z</time>
      </trkpt>
      <trkpt lat="43.1057120" lon="-1.1962720">
        <ele>233.7</ele>
        <time>2019-07-16T09:05:45Z</time>
      </trkpt>
      <trkpt lat="43.1056010" lon="-1.1961960">
        <ele>233.3</ele>
        <time>2019-07-16T09:05:47Z</time>
      </trkpt>
      <trkpt lat="43.1054850" lon="-1.1961340">
        <ele>233.0</ele>
        <time>2019-07-16T09:05:49Z</time>
      </trkpt>
      <trkpt lat="43.1053710" lon="-1.1960800">
        <ele>232.7</ele>
        <time>2019-07-16T09:05:51Z</time>
      </trkpt>
      <trkpt lat="43.1052730" lon="-1.1960420">
        <ele>232.6</ele>
        <time>2019-07-16T09:05:53Z</time>
      </trkpt>
      <trkpt lat="43.1051590" lon="-1.1960070">
        <ele>232.6</ele>
        <time>2019-07-16T09:05:56Z</time>
      </trkpt>
      <trkpt lat="43.1050470" lon="-1.1959750">
        <ele>232.5</ele>
        <time>2019-07-16T09:05:59Z</time>
      </trkpt>
      <trkpt lat="43.1049250" lon="-1.1959370">
        <ele>232.9</ele>
        <time>2019-07-16T09:06:02Z</time>
      </trkpt>
      <trkpt lat="43.1048310" lon="-1.1959040">
        <ele>233.1</ele>
        <time>2019-07-16T09:06:04Z</time>
      </trkpt>
      <trkpt lat="43.1047420" lon="-1.1958470">
        <ele>233.3</ele>
        <time>2019-07-16T09:06:06Z</time>
      </trkpt>
      <trkpt lat="43.1046240" lon="-1.1957820">
        <ele>233.6</ele>
        <time>2019-07-16T09:06:09Z</time>
      </trkpt>
      <trkpt lat="43.1045340" lon="-1.1957420">
        <ele>233.8</ele>
        <time>2019-07-16T09:06:12Z</time>
      </trkpt>
      <trkpt lat="43.1044640" lon="-1.1957000">
        <ele>234.0</ele>
        <time>2019-07-16T09:06:22Z</time>
      </trkpt>
      <trkpt lat="43.1043730" lon="-1.1957220">
        <ele>234.2</ele>
        <time>2019-07-16T09:06:38Z</time>
      </trkpt>
      <trkpt lat="43.1042870" lon="-1.1956450">
        <ele>234.8</ele>
        <time>2019-07-16T09:06:48Z</time>
      </trkpt>
      <trkpt lat="43.1042830" lon="-1.1956220">
        <ele>234.8</ele>
        <time>2019-07-16T09:06:53Z</time>
      </trkpt>
      <trkpt lat="43.1042760" lon="-1.1956760">
        <ele>234.8</ele>
        <time>2019-07-16T09:07:01Z</time>
      </trkpt>
      <trkpt lat="43.1042470" lon="-1.1956770">
        <ele>234.8</ele>
        <time>2019-07-16T09:07:16Z</time>
      </trkpt>
      <trkpt lat="43.1042390" lon="-1.1955320">
        <ele>235.4</ele>
        <time>2019-07-16T09:07:44Z</time>
      </trkpt>
      <trkpt lat="43.1042440" lon="-1.1955190">
        <ele>235.5</ele>
        <time>2019-07-16T09:07:47Z</time>
      </trkpt>
      <trkpt lat="43.1043340" lon="-1.1958180">
        <ele>234.3</ele>
        <time>2019-07-16T09:36:06Z</time>
      </trkpt>
      <trkpt lat="43.1043220" lon="-1.1958130">
        <ele>234.3</ele>
        <time>2019-07-16T09:36:09Z</time>
      </trkpt>
      <trkpt lat="43.1042250" lon="-1.1958270">
        <ele>234.3</ele>
        <time>2019-07-16T09:37:45Z</time>
      </trkpt>
      <trkpt lat="43.1041260" lon="-1.1958460">
        <ele>234.4</ele>
        <time>2019-07-16T09:37:49Z</time>
      </trkpt>
      <trkpt lat="43.1040090" lon="-1.1958730">
        <ele>234.6</ele>
        <time>2019-07-16T09:37:54Z</time>
      </trkpt>
      <trkpt lat="43.1038970" lon="-1.1959120">
        <ele>235.2</ele>
        <time>2019-07-16T09:37:58Z</time>
      </trkpt>
      <trkpt lat="43.1038120" lon="-1.1959730">
        <ele>235.9</ele>
        <time>2019-07-16T09:38:02Z</time>
      </trkpt>
      <trkpt lat="43.1037100" lon="-1.1959650">
        <ele>237.1</ele>
        <time>2019-07-16T09:38:05Z</time>
      </trkpt>
      <trkpt lat="43.1036040" lon="-1.1959300">
        <ele>238.2</ele>
        <time>2019-07-16T09:38:08Z</time>
      </trkpt>
      <trkpt lat="43.1035040" lon="-1.1959000">
        <ele>239.3</ele>
        <time>2019-07-16T09:38:11Z</time>
      </trkpt>
      <trkpt lat="43.1034170" lon="-1.1958510">
        <ele>240.3</ele>
        <time>2019-07-16T09:38:14Z</time>
      </trkpt>
      <trkpt lat="43.1033160" lon="-1.1957880">
        <ele>241.5</ele>
        <time>2019-07-16T09:38:18Z</time>
      </trkpt>
      <trkpt lat="43.1032120" lon="-1.1957170">
        <ele>242.7</ele>
        <time>2019-07-16T09:38:22Z</time>
      </trkpt>
      <trkpt lat="43.1031110" lon="-1.1956780">
        <ele>243.7</ele>
        <time>2019-07-16T09:38:26Z</time>
      </trkpt>
      <trkpt lat="43.1030250" lon="-1.1956350">
        <ele>244.6</ele>
        <time>2019-07-16T09:38:30Z</time>
      </trkpt>
      <trkpt lat="43.1029340" lon="-1.1955910">
        <ele>245.5</ele>
        <time>2019-07-16T09:38:35Z</time>
      </trkpt>
      <trkpt lat="43.1028410" lon="-1.1955560">
        <ele>246.5</ele>
        <time>2019-07-16T09:38:40Z</time>
      </trkpt>
      <trkpt lat="43.1027420" lon="-1.1955100">
        <ele>247.3</ele>
        <time>2019-07-16T09:38:46Z</time>
      </trkpt>
      <trkpt lat="43.1026260" lon="-1.1955080">
        <ele>248.2</ele>
        <time>2019-07-16T09:38:52Z</time>
      </trkpt>
      <trkpt lat="43.1024910" lon="-1.1955110">
        <ele>248.9</ele>
        <time>2019-07-16T09:39:00Z</time>
      </trkpt>
      <trkpt lat="43.1023700" lon="-1.1955570">
        <ele>249.7</ele>
        <time>2019-07-16T09:39:07Z</time>
      </trkpt>
      <trkpt lat="43.1022740" lon="-1.1955900">
        <ele>250.3</ele>
        <time>2019-07-16T09:39:13Z</time>
      </trkpt>
      <trkpt lat="43.1021770" lon="-1.1956560">
        <ele>249.6</ele>
        <time>2019-07-16T09:39:19Z</time>
      </trkpt>
      <trkpt lat="43.1020930" lon="-1.1957200">
        <ele>249.0</ele>
        <time>2019-07-16T09:39:23Z</time>
      </trkpt>
      <trkpt lat="43.1019980" lon="-1.1957950">
        <ele>248.3</ele>
        <time>2019-07-16T09:39:27Z</time>
      </trkpt>
      <trkpt lat="43.1019010" lon="-1.1958770">
        <ele>247.7</ele>
        <time>2019-07-16T09:39:31Z</time>
      </trkpt>
      <trkpt lat="43.1018010" lon="-1.1959750">
        <ele>246.8</ele>
        <time>2019-07-16T09:39:35Z</time>
      </trkpt>
      <trkpt lat="43.1017210" lon="-1.1960700">
        <ele>245.9</ele>
        <time>2019-07-16T09:39:38Z</time>
      </trkpt>
      <trkpt lat="43.1015740" lon="-1.1962850">
        <ele>244.2</ele>
        <time>2019-07-16T09:39:43Z</time>
      </trkpt>
      <trkpt lat="43.1014980" lon="-1.1964020">
        <ele>243.1</ele>
        <time>2019-07-16T09:39:45Z</time>
      </trkpt>
      <trkpt lat="43.1014090" lon="-1.1965350">
        <ele>241.3</ele>
        <time>2019-07-16T09:39:47Z</time>
      </trkpt>
      <trkpt lat="43.1013090" lon="-1.1966520">
        <ele>240.3</ele>
        <time>2019-07-16T09:39:49Z</time>
      </trkpt>
      <trkpt lat="43.1012000" lon="-1.1967430">
        <ele>240.3</ele>
        <time>2019-07-16T09:39:51Z</time>
      </trkpt>
      <trkpt lat="43.1010910" lon="-1.1968190">
        <ele>240.2</ele>
        <time>2019-07-16T09:39:53Z</time>
      </trkpt>
      <trkpt lat="43.1009870" lon="-1.1968850">
        <ele>240.2</ele>
        <time>2019-07-16T09:39:55Z</time>
      </trkpt>
      <trkpt lat="43.1008910" lon="-1.1969510">
        <ele>240.2</ele>
        <time>2019-07-16T09:39:57Z</time>
      </trkpt>
      <trkpt lat="43.1008020" lon="-1.1970090">
        <ele>240.2</ele>
        <time>2019-07-16T09:39:59Z</time>
      </trkpt>
      <trkpt lat="43.1007130" lon="-1.1970700">
        <ele>240.2</ele>
        <time>2019-07-16T09:40:01Z</time>
      </trkpt>
      <trkpt lat="43.1006270" lon="-1.1971220">
        <ele>240.3</ele>
        <time>2019-07-16T09:40:03Z</time>
      </trkpt>
      <trkpt lat="43.1005430" lon="-1.1971710">
        <ele>240.3</ele>
        <time>2019-07-16T09:40:05Z</time>
      </trkpt>
      <trkpt lat="43.1004280" lon="-1.1972360">
        <ele>240.3</ele>
        <time>2019-07-16T09:40:08Z</time>
      </trkpt>
      <trkpt lat="43.1003190" lon="-1.1973090">
        <ele>240.6</ele>
        <time>2019-07-16T09:40:11Z</time>
      </trkpt>
      <trkpt lat="43.1002280" lon="-1.1973530">
        <ele>241.1</ele>
        <time>2019-07-16T09:40:14Z</time>
      </trkpt>
      <trkpt lat="43.1001280" lon="-1.1973990">
        <ele>241.7</ele>
        <time>2019-07-16T09:40:19Z</time>
      </trkpt>
      <trkpt lat="43.1000340" lon="-1.1974810">
        <ele>242.4</ele>
        <time>2019-07-16T09:40:24Z</time>
      </trkpt>
      <trkpt lat="43.0999470" lon="-1.1975240">
        <ele>242.8</ele>
        <time>2019-07-16T09:40:28Z</time>
      </trkpt>
      <trkpt lat="43.0998400" lon="-1.1975670">
        <ele>243.1</ele>
        <time>2019-07-16T09:40:33Z</time>
      </trkpt>
      <trkpt lat="43.0997430" lon="-1.1976020">
        <ele>243.3</ele>
        <time>2019-07-16T09:40:37Z</time>
      </trkpt>
      <trkpt lat="43.0996450" lon="-1.1976450">
        <ele>243.4</ele>
        <time>2019-07-16T09:40:41Z</time>
      </trkpt>
      <trkpt lat="43.0995480" lon="-1.1976990">
        <ele>243.6</ele>
        <time>2019-07-16T09:40:45Z</time>
      </trkpt>
      <trkpt lat="43.0994380" lon="-1.1977670">
        <ele>243.7</ele>
        <time>2019-07-16T09:40:49Z</time>
      </trkpt>
      <trkpt lat="43.0993430" lon="-1.1978370">
        <ele>243.7</ele>
        <time>2019-07-16T09:40:52Z</time>
      </trkpt>
      <trkpt lat="43.0992420" lon="-1.1978940">
        <ele>243.6</ele>
        <time>2019-07-16T09:40:55Z</time>
      </trkpt>
      <trkpt lat="43.0991500" lon="-1.1979740">
        <ele>243.4</ele>
        <time>2019-07-16T09:40:58Z</time>
      </trkpt>
      <trkpt lat="43.0990580" lon="-1.1980500">
        <ele>243.5</ele>
        <time>2019-07-16T09:41:01Z</time>
      </trkpt>
      <trkpt lat="43.0989680" lon="-1.1981340">
        <ele>243.8</ele>
        <time>2019-07-16T09:41:04Z</time>
      </trkpt>
      <trkpt lat="43.0988850" lon="-1.1981970">
        <ele>244.1</ele>
        <time>2019-07-16T09:41:07Z</time>
      </trkpt>
      <trkpt lat="43.0987970" lon="-1.1982700">
        <ele>244.3</ele>
        <time>2019-07-16T09:41:10Z</time>
      </trkpt>
      <trkpt lat="43.0987000" lon="-1.1983330">
        <ele>244.3</ele>
        <time>2019-07-16T09:41:13Z</time>
      </trkpt>
      <trkpt lat="43.0985990" lon="-1.1983900">
        <ele>244.3</ele>
        <time>2019-07-16T09:41:16Z</time>
      </trkpt>
      <trkpt lat="43.0984930" lon="-1.1984290">
        <ele>244.3</ele>
        <time>2019-07-16T09:41:19Z</time>
      </trkpt>
      <trkpt lat="43.0983880" lon="-1.1984590">
        <ele>244.4</ele>
        <time>2019-07-16T09:41:22Z</time>
      </trkpt>
      <trkpt lat="43.0982780" lon="-1.1984750">
        <ele>244.4</ele>
        <time>2019-07-16T09:41:25Z</time>
      </trkpt>
      <trkpt lat="43.0981650" lon="-1.1984780">
        <ele>244.6</ele>
        <time>2019-07-16T09:41:28Z</time>
      </trkpt>
      <trkpt lat="43.0980590" lon="-1.1984740">
        <ele>245.0</ele>
        <time>2019-07-16T09:41:31Z</time>
      </trkpt>
      <trkpt lat="43.0979580" lon="-1.1984620">
        <ele>245.3</ele>
        <time>2019-07-16T09:41:34Z</time>
      </trkpt>
      <trkpt lat="43.0978580" lon="-1.1984450">
        <ele>245.5</ele>
        <time>2019-07-16T09:41:37Z</time>
      </trkpt>
      <trkpt lat="43.0977610" lon="-1.1984310">
        <ele>245.9</ele>
        <time>2019-07-16T09:41:40Z</time>
      </trkpt>
      <trkpt lat="43.0976710" lon="-1.1984150">
        <ele>246.4</ele>
        <time>2019-07-16T09:41:43Z</time>
      </trkpt>
      <trkpt lat="43.0975570" lon="-1.1983840">
        <ele>247.1</ele>
        <time>2019-07-16T09:41:47Z</time>
      </trkpt>
      <trkpt lat="43.0974550" lon="-1.1983670">
        <ele>247.6</ele>
        <time>2019-07-16T09:41:51Z</time>
      </trkpt>
      <trkpt lat="43.0973550" lon="-1.1983390">
        <ele>248.0</ele>
        <time>2019-07-16T09:41:56Z</time>
      </trkpt>
      <trkpt lat="43.0972470" lon="-1.1983000">
        <ele>248.3</ele>
        <time>2019-07-16T09:42:00Z</time>
      </trkpt>
      <trkpt lat="43.0971520" lon="-1.1982540">
        <ele>248.4</ele>
        <time>2019-07-16T09:42:03Z</time>
      </trkpt>
      <trkpt lat="43.0970560" lon="-1.1982220">
        <ele>248.4</ele>
        <time>2019-07-16T09:42:06Z</time>
      </trkpt>
      <trkpt lat="43.0969620" lon="-1.1981790">
        <ele>248.6</ele>
        <time>2019-07-16T09:42:09Z</time>
      </trkpt>
      <trkpt lat="43.0968700" lon="-1.1981380">
        <ele>248.9</ele>
        <time>2019-07-16T09:42:12Z</time>
      </trkpt>
      <trkpt lat="43.0967680" lon="-1.1980910">
        <ele>249.5</ele>
        <time>2019-07-16T09:42:16Z</time>
      </trkpt>
      <trkpt lat="43.0966670" lon="-1.1980530">
        <ele>250.0</ele>
        <time>2019-07-16T09:42:20Z</time>
      </trkpt>
      <trkpt lat="43.0965690" lon="-1.1980040">
        <ele>250.6</ele>
        <time>2019-07-16T09:42:24Z</time>
      </trkpt>
      <trkpt lat="43.0964670" lon="-1.1979640">
        <ele>251.2</ele>
        <time>2019-07-16T09:42:28Z</time>
      </trkpt>
      <trkpt lat="43.0963630" lon="-1.1979220">
        <ele>251.7</ele>
        <time>2019-07-16T09:42:32Z</time>
      </trkpt>
      <trkpt lat="43.0962590" lon="-1.1978940">
        <ele>252.1</ele>
        <time>2019-07-16T09:42:36Z</time>
      </trkpt>
      <trkpt lat="43.0961520" lon="-1.1978510">
        <ele>252.5</ele>
        <time>2019-07-16T09:42:40Z</time>
      </trkpt>
      <trkpt lat="43.0960450" lon="-1.1978190">
        <ele>252.8</ele>
        <time>2019-07-16T09:42:44Z</time>
      </trkpt>
      <trkpt lat="43.0959060" lon="-1.1977820">
        <ele>253.2</ele>
        <time>2019-07-16T09:42:49Z</time>
      </trkpt>
      <trkpt lat="43.0957930" lon="-1.1977520">
        <ele>253.4</ele>
        <time>2019-07-16T09:42:53Z</time>
      </trkpt>
      <trkpt lat="43.0956750" lon="-1.1977360">
        <ele>253.5</ele>
        <time>2019-07-16T09:42:57Z</time>
      </trkpt>
      <trkpt lat="43.0955590" lon="-1.1977250">
        <ele>253.7</ele>
        <time>2019-07-16T09:43:01Z</time>
      </trkpt>
      <trkpt lat="43.0954490" lon="-1.1976920">
        <ele>254.0</ele>
        <time>2019-07-16T09:43:05Z</time>
      </trkpt>
      <trkpt lat="43.0953560" lon="-1.1976930">
        <ele>254.2</ele>
        <time>2019-07-16T09:43:08Z</time>
      </trkpt>
      <trkpt lat="43.0952660" lon="-1.1976710">
        <ele>254.4</ele>
        <time>2019-07-16T09:43:11Z</time>
      </trkpt>
      <trkpt lat="43.0951760" lon="-1.1976290">
        <ele>254.4</ele>
        <time>2019-07-16T09:43:14Z</time>
      </trkpt>
      <trkpt lat="43.0950310" lon="-1.1975610">
        <ele>254.1</ele>
        <time>2019-07-16T09:43:18Z</time>
      </trkpt>
      <trkpt lat="43.0949180" lon="-1.1974720">
        <ele>253.7</ele>
        <time>2019-07-16T09:43:21Z</time>
      </trkpt>
      <trkpt lat="43.0948420" lon="-1.1974020">
        <ele>253.4</ele>
        <time>2019-07-16T09:43:23Z</time>
      </trkpt>
      <trkpt lat="43.0947760" lon="-1.1973160">
        <ele>253.1</ele>
        <time>2019-07-16T09:43:25Z</time>
      </trkpt>
      <trkpt lat="43.0946850" lon="-1.1971960">
        <ele>252.8</ele>
        <time>2019-07-16T09:43:28Z</time>
      </trkpt>
      <trkpt lat="43.0945870" lon="-1.1970990">
        <ele>252.6</ele>
        <time>2019-07-16T09:43:31Z</time>
      </trkpt>
      <trkpt lat="43.0944840" lon="-1.1969810">
        <ele>252.5</ele>
        <time>2019-07-16T09:43:34Z</time>
      </trkpt>
      <trkpt lat="43.0943360" lon="-1.1968320">
        <ele>252.4</ele>
        <time>2019-07-16T09:43:38Z</time>
      </trkpt>
      <trkpt lat="43.0942220" lon="-1.1967270">
        <ele>252.3</ele>
        <time>2019-07-16T09:43:41Z</time>
      </trkpt>
      <trkpt lat="43.0941420" lon="-1.1966650">
        <ele>252.4</ele>
        <time>2019-07-16T09:43:43Z</time>
      </trkpt>
      <trkpt lat="43.0940350" lon="-1.1965690">
        <ele>252.5</ele>
        <time>2019-07-16T09:43:46Z</time>
      </trkpt>
      <trkpt lat="43.0939500" lon="-1.1964780">
        <ele>252.6</ele>
        <time>2019-07-16T09:43:49Z</time>
      </trkpt>
      <trkpt lat="43.0938840" lon="-1.1963900">
        <ele>252.8</ele>
        <time>2019-07-16T09:43:52Z</time>
      </trkpt>
      <trkpt lat="43.0938300" lon="-1.1962800">
        <ele>253.2</ele>
        <time>2019-07-16T09:43:55Z</time>
      </trkpt>
      <trkpt lat="43.0937330" lon="-1.1962440">
        <ele>253.6</ele>
        <time>2019-07-16T09:43:58Z</time>
      </trkpt>
      <trkpt lat="43.0936480" lon="-1.1962010">
        <ele>254.0</ele>
        <time>2019-07-16T09:44:01Z</time>
      </trkpt>
      <trkpt lat="43.0935600" lon="-1.1961570">
        <ele>254.5</ele>
        <time>2019-07-16T09:44:04Z</time>
      </trkpt>
      <trkpt lat="43.0934440" lon="-1.1961200">
        <ele>255.0</ele>
        <time>2019-07-16T09:44:08Z</time>
      </trkpt>
      <trkpt lat="43.0933500" lon="-1.1960880">
        <ele>255.3</ele>
        <time>2019-07-16T09:44:11Z</time>
      </trkpt>
      <trkpt lat="43.0932570" lon="-1.1960580">
        <ele>255.5</ele>
        <time>2019-07-16T09:44:14Z</time>
      </trkpt>
      <trkpt lat="43.0931700" lon="-1.1960190">
        <ele>255.6</ele>
        <time>2019-07-16T09:44:17Z</time>
      </trkpt>
      <trkpt lat="43.0930770" lon="-1.1959810">
        <ele>255.5</ele>
        <time>2019-07-16T09:44:21Z</time>
      </trkpt>
      <trkpt lat="43.0929560" lon="-1.1959440">
        <ele>255.5</ele>
        <time>2019-07-16T09:44:26Z</time>
      </trkpt>
      <trkpt lat="43.0928650" lon="-1.1959080">
        <ele>255.5</ele>
        <time>2019-07-16T09:44:30Z</time>
      </trkpt>
      <trkpt lat="43.0927560" lon="-1.1958960">
        <ele>255.4</ele>
        <time>2019-07-16T09:44:35Z</time>
      </trkpt>
      <trkpt lat="43.0926470" lon="-1.1958860">
        <ele>255.2</ele>
        <time>2019-07-16T09:44:40Z</time>
      </trkpt>
      <trkpt lat="43.0925430" lon="-1.1958850">
        <ele>255.1</ele>
        <time>2019-07-16T09:44:45Z</time>
      </trkpt>
      <trkpt lat="43.0924450" lon="-1.1958770">
        <ele>255.0</ele>
        <time>2019-07-16T09:44:50Z</time>
      </trkpt>
      <trkpt lat="43.0923480" lon="-1.1958680">
        <ele>255.4</ele>
        <time>2019-07-16T09:44:55Z</time>
      </trkpt>
      <trkpt lat="43.0922430" lon="-1.1958800">
        <ele>256.1</ele>
        <time>2019-07-16T09:45:00Z</time>
      </trkpt>
      <trkpt lat="43.0921460" lon="-1.1958940">
        <ele>256.9</ele>
        <time>2019-07-16T09:45:05Z</time>
      </trkpt>
      <trkpt lat="43.0920470" lon="-1.1958980">
        <ele>257.7</ele>
        <time>2019-07-16T09:45:10Z</time>
      </trkpt>
      <trkpt lat="43.0919540" lon="-1.1958610">
        <ele>258.2</ele>
        <time>2019-07-16T09:45:15Z</time>
      </trkpt>
      <trkpt lat="43.0918600" lon="-1.1958360">
        <ele>258.7</ele>
        <time>2019-07-16T09:45:21Z</time>
      </trkpt>
      <trkpt lat="43.0917630" lon="-1.1957960">
        <ele>259.3</ele>
        <time>2019-07-16T09:45:28Z</time>
      </trkpt>
      <trkpt lat="43.0916780" lon="-1.1957440">
        <ele>260.0</ele>
        <time>2019-07-16T09:45:35Z</time>
      </trkpt>
      <trkpt lat="43.0915880" lon="-1.1956880">
        <ele>260.6</ele>
        <time>2019-07-16T09:45:43Z</time>
      </trkpt>
      <trkpt lat="43.0915050" lon="-1.1956190">
        <ele>261.1</ele>
        <time>2019-07-16T09:45:49Z</time>
      </trkpt>
      <trkpt lat="43.0914160" lon="-1.1955310">
        <ele>261.7</ele>
        <time>2019-07-16T09:45:56Z</time>
      </trkpt>
      <trkpt lat="43.0913400" lon="-1.1954600">
        <ele>262.3</ele>
        <time>2019-07-16T09:46:02Z</time>
      </trkpt>
      <trkpt lat="43.0912560" lon="-1.1953820">
        <ele>263.4</ele>
        <time>2019-07-16T09:46:08Z</time>
      </trkpt>
      <trkpt lat="43.0911780" lon="-1.1953090">
        <ele>264.7</ele>
        <time>2019-07-16T09:46:14Z</time>
      </trkpt>
      <trkpt lat="43.0910880" lon="-1.1952380">
        <ele>266.1</ele>
        <time>2019-07-16T09:46:21Z</time>
      </trkpt>
      <trkpt lat="43.0909950" lon="-1.1951890">
        <ele>267.5</ele>
        <time>2019-07-16T09:46:28Z</time>
      </trkpt>
      <trkpt lat="43.0908960" lon="-1.1951240">
        <ele>269.0</ele>
        <time>2019-07-16T09:46:35Z</time>
      </trkpt>
      <trkpt lat="43.0907860" lon="-1.1950420">
        <ele>270.8</ele>
        <time>2019-07-16T09:46:44Z</time>
      </trkpt>
      <trkpt lat="43.0906590" lon="-1.1950020">
        <ele>272.6</ele>
        <time>2019-07-16T09:46:53Z</time>
      </trkpt>
      <trkpt lat="43.0905430" lon="-1.1949560">
        <ele>273.9</ele>
        <time>2019-07-16T09:47:02Z</time>
      </trkpt>
      <trkpt lat="43.0904440" lon="-1.1949270">
        <ele>274.9</ele>
        <time>2019-07-16T09:47:09Z</time>
      </trkpt>
      <trkpt lat="43.0903470" lon="-1.1948780">
        <ele>276.2</ele>
        <time>2019-07-16T09:47:16Z</time>
      </trkpt>
      <trkpt lat="43.0902240" lon="-1.1948160">
        <ele>277.6</ele>
        <time>2019-07-16T09:47:25Z</time>
      </trkpt>
      <trkpt lat="43.0901230" lon="-1.1947410">
        <ele>278.7</ele>
        <time>2019-07-16T09:47:33Z</time>
      </trkpt>
      <trkpt lat="43.0900250" lon="-1.1946420">
        <ele>279.8</ele>
        <time>2019-07-16T09:47:41Z</time>
      </trkpt>
      <trkpt lat="43.0899390" lon="-1.1945730">
        <ele>280.4</ele>
        <time>2019-07-16T09:47:47Z</time>
      </trkpt>
      <trkpt lat="43.0898470" lon="-1.1945200">
        <ele>280.9</ele>
        <time>2019-07-16T09:47:53Z</time>
      </trkpt>
      <trkpt lat="43.0897500" lon="-1.1944810">
        <ele>281.7</ele>
        <time>2019-07-16T09:47:59Z</time>
      </trkpt>
      <trkpt lat="43.0896570" lon="-1.1944490">
        <ele>282.1</ele>
        <time>2019-07-16T09:48:05Z</time>
      </trkpt>
      <trkpt lat="43.0895570" lon="-1.1944450">
        <ele>282.4</ele>
        <time>2019-07-16T09:48:11Z</time>
      </trkpt>
      <trkpt lat="43.0894660" lon="-1.1944320">
        <ele>282.8</ele>
        <time>2019-07-16T09:48:17Z</time>
      </trkpt>
      <trkpt lat="43.0893720" lon="-1.1944190">
        <ele>283.1</ele>
        <time>2019-07-16T09:48:23Z</time>
      </trkpt>
      <trkpt lat="43.0892740" lon="-1.1943990">
        <ele>283.2</ele>
        <time>2019-07-16T09:48:29Z</time>
      </trkpt>
      <trkpt lat="43.0891700" lon="-1.1943880">
        <ele>283.3</ele>
        <time>2019-07-16T09:48:35Z</time>
      </trkpt>
      <trkpt lat="43.0890730" lon="-1.1943740">
        <ele>283.4</ele>
        <time>2019-07-16T09:48:40Z</time>
      </trkpt>
      <trkpt lat="43.0889810" lon="-1.1943690">
        <ele>283.5</ele>
        <time>2019-07-16T09:48:44Z</time>
      </trkpt>
      <trkpt lat="43.0888790" lon="-1.1943620">
        <ele>283.5</ele>
        <time>2019-07-16T09:48:48Z</time>
      </trkpt>
      <trkpt lat="43.0886640" lon="-1.1943610">
        <ele>283.5</ele>
        <time>2019-07-16T09:48:55Z</time>
      </trkpt>
      <trkpt lat="43.0885530" lon="-1.1943710">
        <ele>283.5</ele>
        <time>2019-07-16T09:48:58Z</time>
      </trkpt>
      <trkpt lat="43.0883600" lon="-1.1944310">
        <ele>283.4</ele>
        <time>2019-07-16T09:49:03Z</time>
      </trkpt>
      <trkpt lat="43.0882290" lon="-1.1944820">
        <ele>283.3</ele>
        <time>2019-07-16T09:49:06Z</time>
      </trkpt>
      <trkpt lat="43.0881310" lon="-1.1945190">
        <ele>283.3</ele>
        <time>2019-07-16T09:49:08Z</time>
      </trkpt>
      <trkpt lat="43.0880240" lon="-1.1945440">
        <ele>283.1</ele>
        <time>2019-07-16T09:49:10Z</time>
      </trkpt>
      <trkpt lat="43.0879050" lon="-1.1945650">
        <ele>283.0</ele>
        <time>2019-07-16T09:49:12Z</time>
      </trkpt>
      <trkpt lat="43.0877720" lon="-1.1945840">
        <ele>282.6</ele>
        <time>2019-07-16T09:49:14Z</time>
      </trkpt>
      <trkpt lat="43.0875400" lon="-1.1945480">
        <ele>281.3</ele>
        <time>2019-07-16T09:49:17Z</time>
      </trkpt>
      <trkpt lat="43.0872220" lon="-1.1944020">
        <ele>279.0</ele>
        <time>2019-07-16T09:49:21Z</time>
      </trkpt>
      <trkpt lat="43.0868670" lon="-1.1941810">
        <ele>276.5</ele>
        <time>2019-07-16T09:49:25Z</time>
      </trkpt>
      <trkpt lat="43.0864870" lon="-1.1939110">
        <ele>273.8</ele>
        <time>2019-07-16T09:49:29Z</time>
      </trkpt>
      <trkpt lat="43.0862270" lon="-1.1936830">
        <ele>270.9</ele>
        <time>2019-07-16T09:49:32Z</time>
      </trkpt>
      <trkpt lat="43.0861500" lon="-1.1936140">
        <ele>270.1</ele>
        <time>2019-07-16T09:49:33Z</time>
      </trkpt>
      <trkpt lat="43.0859760" lon="-1.1934400">
        <ele>268.8</ele>
        <time>2019-07-16T09:49:36Z</time>
      </trkpt>
      <trkpt lat="43.0858590" lon="-1.1933000">
        <ele>268.4</ele>
        <time>2019-07-16T09:49:39Z</time>
      </trkpt>
      <trkpt lat="43.0857730" lon="-1.1932190">
        <ele>268.4</ele>
        <time>2019-07-16T09:49:43Z</time>
      </trkpt>
      <trkpt lat="43.0856910" lon="-1.1931030">
        <ele>268.6</ele>
        <time>2019-07-16T09:49:48Z</time>
      </trkpt>
      <trkpt lat="43.0856250" lon="-1.1930060">
        <ele>269.0</ele>
        <time>2019-07-16T09:49:53Z</time>
      </trkpt>
      <trkpt lat="43.0854830" lon="-1.1928790">
        <ele>270.6</ele>
        <time>2019-07-16T09:50:01Z</time>
      </trkpt>
      <trkpt lat="43.0853350" lon="-1.1927450">
        <ele>272.8</ele>
        <time>2019-07-16T09:50:09Z</time>
      </trkpt>
      <trkpt lat="43.0852190" lon="-1.1926450">
        <ele>274.2</ele>
        <time>2019-07-16T09:50:16Z</time>
      </trkpt>
      <trkpt lat="43.0851490" lon="-1.1925430">
        <ele>275.4</ele>
        <time>2019-07-16T09:50:21Z</time>
      </trkpt>
      <trkpt lat="43.0850730" lon="-1.1924320">
        <ele>276.5</ele>
        <time>2019-07-16T09:50:26Z</time>
      </trkpt>
      <trkpt lat="43.0849850" lon="-1.1923710">
        <ele>277.5</ele>
        <time>2019-07-16T09:50:31Z</time>
      </trkpt>
      <trkpt lat="43.0848900" lon="-1.1923580">
        <ele>278.1</ele>
        <time>2019-07-16T09:50:36Z</time>
      </trkpt>
      <trkpt lat="43.0847990" lon="-1.1923410">
        <ele>278.1</ele>
        <time>2019-07-16T09:50:40Z</time>
      </trkpt>
      <trkpt lat="43.0847140" lon="-1.1922950">
        <ele>278.1</ele>
        <time>2019-07-16T09:50:44Z</time>
      </trkpt>
      <trkpt lat="43.0846290" lon="-1.1922370">
        <ele>278.1</ele>
        <time>2019-07-16T09:50:49Z</time>
      </trkpt>
      <trkpt lat="43.0845350" lon="-1.1921790">
        <ele>278.1</ele>
        <time>2019-07-16T09:50:54Z</time>
      </trkpt>
      <trkpt lat="43.0844290" lon="-1.1921510">
        <ele>278.1</ele>
        <time>2019-07-16T09:50:59Z</time>
      </trkpt>
      <trkpt lat="43.0843380" lon="-1.1921420">
        <ele>278.0</ele>
        <time>2019-07-16T09:51:03Z</time>
      </trkpt>
      <trkpt lat="43.0842300" lon="-1.1921380">
        <ele>277.8</ele>
        <time>2019-07-16T09:51:08Z</time>
      </trkpt>
      <trkpt lat="43.0841410" lon="-1.1921070">
        <ele>277.6</ele>
        <time>2019-07-16T09:51:12Z</time>
      </trkpt>
      <trkpt lat="43.0840300" lon="-1.1920880">
        <ele>277.3</ele>
        <time>2019-07-16T09:51:17Z</time>
      </trkpt>
      <trkpt lat="43.0839340" lon="-1.1920790">
        <ele>277.0</ele>
        <time>2019-07-16T09:51:21Z</time>
      </trkpt>
      <trkpt lat="43.0838210" lon="-1.1920880">
        <ele>276.7</ele>
        <time>2019-07-16T09:51:26Z</time>
      </trkpt>
      <trkpt lat="43.0837210" lon="-1.1920920">
        <ele>276.3</ele>
        <time>2019-07-16T09:51:30Z</time>
      </trkpt>
      <trkpt lat="43.0836070" lon="-1.1920870">
        <ele>276.0</ele>
        <time>2019-07-16T09:51:34Z</time>
      </trkpt>
      <trkpt lat="43.0835070" lon="-1.1920670">
        <ele>275.6</ele>
        <time>2019-07-16T09:51:37Z</time>
      </trkpt>
      <trkpt lat="43.0833950" lon="-1.1920450">
        <ele>275.1</ele>
        <time>2019-07-16T09:51:40Z</time>
      </trkpt>
      <trkpt lat="43.0832590" lon="-1.1920200">
        <ele>274.6</ele>
        <time>2019-07-16T09:51:43Z</time>
      </trkpt>
      <trkpt lat="43.0831620" lon="-1.1919930">
        <ele>274.2</ele>
        <time>2019-07-16T09:51:45Z</time>
      </trkpt>
      <trkpt lat="43.0830770" lon="-1.1919430">
        <ele>273.8</ele>
        <time>2019-07-16T09:51:47Z</time>
      </trkpt>
      <trkpt lat="43.0829680" lon="-1.1918540">
        <ele>273.1</ele>
        <time>2019-07-16T09:51:50Z</time>
      </trkpt>
      <trkpt lat="43.0828820" lon="-1.1918030">
        <ele>272.5</ele>
        <time>2019-07-16T09:51:52Z</time>
      </trkpt>
      <trkpt lat="43.0827880" lon="-1.1917510">
        <ele>271.8</ele>
        <time>2019-07-16T09:51:54Z</time>
      </trkpt>
      <trkpt lat="43.0826850" lon="-1.1916890">
        <ele>271.2</ele>
        <time>2019-07-16T09:51:56Z</time>
      </trkpt>
      <trkpt lat="43.0825710" lon="-1.1916190">
        <ele>270.7</ele>
        <time>2019-07-16T09:51:58Z</time>
      </trkpt>
      <trkpt lat="43.0824440" lon="-1.1915460">
        <ele>270.3</ele>
        <time>2019-07-16T09:52:00Z</time>
      </trkpt>
      <trkpt lat="43.0823090" lon="-1.1914610">
        <ele>270.2</ele>
        <time>2019-07-16T09:52:02Z</time>
      </trkpt>
      <trkpt lat="43.0820450" lon="-1.1912530">
        <ele>270.5</ele>
        <time>2019-07-16T09:52:06Z</time>
      </trkpt>
      <trkpt lat="43.0817850" lon="-1.1910510">
        <ele>271.6</ele>
        <time>2019-07-16T09:52:10Z</time>
      </trkpt>
      <trkpt lat="43.0815410" lon="-1.1908710">
        <ele>272.6</ele>
        <time>2019-07-16T09:52:14Z</time>
      </trkpt>
      <trkpt lat="43.0813480" lon="-1.1907720">
        <ele>273.4</ele>
        <time>2019-07-16T09:52:18Z</time>
      </trkpt>
      <trkpt lat="43.0811970" lon="-1.1907110">
        <ele>273.8</ele>
        <time>2019-07-16T09:52:22Z</time>
      </trkpt>
      <trkpt lat="43.0809950" lon="-1.1906630">
        <ele>274.4</ele>
        <time>2019-07-16T09:52:28Z</time>
      </trkpt>
      <trkpt lat="43.0808010" lon="-1.1906530">
        <ele>275.1</ele>
        <time>2019-07-16T09:52:34Z</time>
      </trkpt>
      <trkpt lat="43.0806800" lon="-1.1906460">
        <ele>275.6</ele>
        <time>2019-07-16T09:52:38Z</time>
      </trkpt>
      <trkpt lat="43.0805620" lon="-1.1906550">
        <ele>276.0</ele>
        <time>2019-07-16T09:52:42Z</time>
      </trkpt>
      <trkpt lat="43.0804460" lon="-1.1906900">
        <ele>276.4</ele>
        <time>2019-07-16T09:52:46Z</time>
      </trkpt>
      <trkpt lat="43.0803350" lon="-1.1907400">
        <ele>276.7</ele>
        <time>2019-07-16T09:52:50Z</time>
      </trkpt>
      <trkpt lat="43.0802310" lon="-1.1908010">
        <ele>277.1</ele>
        <time>2019-07-16T09:52:54Z</time>
      </trkpt>
      <trkpt lat="43.0801470" lon="-1.1908710">
        <ele>277.5</ele>
        <time>2019-07-16T09:52:58Z</time>
      </trkpt>
      <trkpt lat="43.0800640" lon="-1.1909430">
        <ele>278.0</ele>
        <time>2019-07-16T09:53:02Z</time>
      </trkpt>
      <trkpt lat="43.0799700" lon="-1.1909620">
        <ele>278.7</ele>
        <time>2019-07-16T09:53:06Z</time>
      </trkpt>
      <trkpt lat="43.0798670" lon="-1.1909790">
        <ele>279.9</ele>
        <time>2019-07-16T09:53:10Z</time>
      </trkpt>
      <trkpt lat="43.0797660" lon="-1.1909910">
        <ele>281.2</ele>
        <time>2019-07-16T09:53:14Z</time>
      </trkpt>
      <trkpt lat="43.0796570" lon="-1.1909910">
        <ele>282.0</ele>
        <time>2019-07-16T09:53:18Z</time>
      </trkpt>
      <trkpt lat="43.0795430" lon="-1.1909990">
        <ele>283.0</ele>
        <time>2019-07-16T09:53:22Z</time>
      </trkpt>
      <trkpt lat="43.0794460" lon="-1.1910260">
        <ele>284.0</ele>
        <time>2019-07-16T09:53:26Z</time>
      </trkpt>
      <trkpt lat="43.0793560" lon="-1.1910500">
        <ele>285.0</ele>
        <time>2019-07-16T09:53:31Z</time>
      </trkpt>
      <trkpt lat="43.0792540" lon="-1.1910530">
        <ele>286.0</ele>
        <time>2019-07-16T09:53:37Z</time>
      </trkpt>
      <trkpt lat="43.0791720" lon="-1.1909830">
        <ele>286.9</ele>
        <time>2019-07-16T09:53:43Z</time>
      </trkpt>
      <trkpt lat="43.0790840" lon="-1.1909340">
        <ele>287.8</ele>
        <time>2019-07-16T09:53:49Z</time>
      </trkpt>
      <trkpt lat="43.0789900" lon="-1.1908890">
        <ele>288.6</ele>
        <time>2019-07-16T09:53:56Z</time>
      </trkpt>
      <trkpt lat="43.0789060" lon="-1.1908140">
        <ele>289.4</ele>
        <time>2019-07-16T09:54:03Z</time>
      </trkpt>
      <trkpt lat="43.0788250" lon="-1.1907510">
        <ele>290.0</ele>
        <time>2019-07-16T09:54:09Z</time>
      </trkpt>
      <trkpt lat="43.0787430" lon="-1.1906890">
        <ele>290.6</ele>
        <time>2019-07-16T09:54:15Z</time>
      </trkpt>
      <trkpt lat="43.0786550" lon="-1.1906330">
        <ele>291.1</ele>
        <time>2019-07-16T09:54:22Z</time>
      </trkpt>
      <trkpt lat="43.0785630" lon="-1.1905790">
        <ele>291.7</ele>
        <time>2019-07-16T09:54:30Z</time>
      </trkpt>
      <trkpt lat="43.0784820" lon="-1.1905020">
        <ele>292.2</ele>
        <time>2019-07-16T09:54:37Z</time>
      </trkpt>
      <trkpt lat="43.0784060" lon="-1.1904260">
        <ele>292.8</ele>
        <time>2019-07-16T09:54:44Z</time>
      </trkpt>
      <trkpt lat="43.0783200" lon="-1.1903390">
        <ele>293.4</ele>
        <time>2019-07-16T09:54:50Z</time>
      </trkpt>
      <trkpt lat="43.0782270" lon="-1.1902840">
        <ele>293.9</ele>
        <time>2019-07-16T09:54:56Z</time>
      </trkpt>
      <trkpt lat="43.0781290" lon="-1.1902400">
        <ele>293.8</ele>
        <time>2019-07-16T09:55:02Z</time>
      </trkpt>
      <trkpt lat="43.0780010" lon="-1.1901920">
        <ele>293.8</ele>
        <time>2019-07-16T09:55:10Z</time>
      </trkpt>
      <trkpt lat="43.0779150" lon="-1.1901450">
        <ele>293.7</ele>
        <time>2019-07-16T09:55:16Z</time>
      </trkpt>
      <trkpt lat="43.0778250" lon="-1.1901020">
        <ele>293.7</ele>
        <time>2019-07-16T09:55:21Z</time>
      </trkpt>
      <trkpt lat="43.0777360" lon="-1.1900640">
        <ele>293.8</ele>
        <time>2019-07-16T09:55:26Z</time>
      </trkpt>
      <trkpt lat="43.0776330" lon="-1.1900390">
        <ele>294.1</ele>
        <time>2019-07-16T09:55:32Z</time>
      </trkpt>
      <trkpt lat="43.0775290" lon="-1.1900170">
        <ele>294.6</ele>
        <time>2019-07-16T09:55:38Z</time>
      </trkpt>
      <trkpt lat="43.0774300" lon="-1.1899930">
        <ele>295.4</ele>
        <time>2019-07-16T09:55:44Z</time>
      </trkpt>
      <trkpt lat="43.0773180" lon="-1.1899820">
        <ele>296.4</ele>
        <time>2019-07-16T09:55:51Z</time>
      </trkpt>
      <trkpt lat="43.0772220" lon="-1.1899930">
        <ele>296.7</ele>
        <time>2019-07-16T09:55:57Z</time>
      </trkpt>
      <trkpt lat="43.0771200" lon="-1.1899850">
        <ele>296.9</ele>
        <time>2019-07-16T09:56:03Z</time>
      </trkpt>
      <trkpt lat="43.0770160" lon="-1.1899810">
        <ele>297.0</ele>
        <time>2019-07-16T09:56:10Z</time>
      </trkpt>
      <trkpt lat="43.0769480" lon="-1.1899770">
        <ele>297.1</ele>
        <time>2019-07-16T09:56:19Z</time>
      </trkpt>
      <trkpt lat="43.0769270" lon="-1.1899500">
        <ele>297.2</ele>
        <time>2019-07-16T09:56:29Z</time>
      </trkpt>
      <trkpt lat="43.0768990" lon="-1.1900880">
        <ele>297.4</ele>
        <time>2019-07-16T09:56:45Z</time>
      </trkpt>
      <trkpt lat="43.0767760" lon="-1.1901420">
        <ele>297.9</ele>
        <time>2019-07-16T09:56:51Z</time>
      </trkpt>
      <trkpt lat="43.0766630" lon="-1.1901330">
        <ele>298.2</ele>
        <time>2019-07-16T09:56:55Z</time>
      </trkpt>
      <trkpt lat="43.0765930" lon="-1.1900190">
        <ele>298.5</ele>
        <time>2019-07-16T09:57:00Z</time>
      </trkpt>
      <trkpt lat="43.0764500" lon="-1.1898800">
        <ele>299.1</ele>
        <time>2019-07-16T09:57:07Z</time>
      </trkpt>
      <trkpt lat="43.0763640" lon="-1.1897730">
        <ele>299.7</ele>
        <time>2019-07-16T09:57:11Z</time>
      </trkpt>
      <trkpt lat="43.0762990" lon="-1.1896860">
        <ele>300.0</ele>
        <time>2019-07-16T09:57:14Z</time>
      </trkpt>
      <trkpt lat="43.0762140" lon="-1.1895900">
        <ele>300.3</ele>
        <time>2019-07-16T09:57:18Z</time>
      </trkpt>
      <trkpt lat="43.0761240" lon="-1.1895160">
        <ele>300.7</ele>
        <time>2019-07-16T09:57:22Z</time>
      </trkpt>
      <trkpt lat="43.0760110" lon="-1.1894370">
        <ele>301.3</ele>
        <time>2019-07-16T09:57:26Z</time>
      </trkpt>
      <trkpt lat="43.0759220" lon="-1.1894040">
        <ele>301.7</ele>
        <time>2019-07-16T09:57:28Z</time>
      </trkpt>
      <trkpt lat="43.0758200" lon="-1.1893760">
        <ele>302.1</ele>
        <time>2019-07-16T09:57:30Z</time>
      </trkpt>
      <trkpt lat="43.0757110" lon="-1.1893560">
        <ele>302.6</ele>
        <time>2019-07-16T09:57:32Z</time>
      </trkpt>
      <trkpt lat="43.0755980" lon="-1.1893280">
        <ele>303.2</ele>
        <time>2019-07-16T09:57:34Z</time>
      </trkpt>
      <trkpt lat="43.0754770" lon="-1.1893020">
        <ele>303.8</ele>
        <time>2019-07-16T09:57:36Z</time>
      </trkpt>
      <trkpt lat="43.0753540" lon="-1.1892820">
        <ele>304.3</ele>
        <time>2019-07-16T09:57:38Z</time>
      </trkpt>
      <trkpt lat="43.0752300" lon="-1.1892750">
        <ele>305.0</ele>
        <time>2019-07-16T09:57:40Z</time>
      </trkpt>
      <trkpt lat="43.0751140" lon="-1.1892480">
        <ele>305.6</ele>
        <time>2019-07-16T09:57:42Z</time>
      </trkpt>
      <trkpt lat="43.0749940" lon="-1.1892440">
        <ele>306.1</ele>
        <time>2019-07-16T09:57:44Z</time>
      </trkpt>
      <trkpt lat="43.0748830" lon="-1.1892490">
        <ele>306.6</ele>
        <time>2019-07-16T09:57:46Z</time>
      </trkpt>
      <trkpt lat="43.0747920" lon="-1.1892610">
        <ele>307.1</ele>
        <time>2019-07-16T09:57:47Z</time>
      </trkpt>
      <trkpt lat="43.0746620" lon="-1.1892210">
        <ele>307.6</ele>
        <time>2019-07-16T09:57:49Z</time>
      </trkpt>
      <trkpt lat="43.0745500" lon="-1.1891590">
        <ele>308.2</ele>
        <time>2019-07-16T09:57:51Z</time>
      </trkpt>
      <trkpt lat="43.0744550" lon="-1.1890690">
        <ele>308.8</ele>
        <time>2019-07-16T09:57:53Z</time>
      </trkpt>
      <trkpt lat="43.0743880" lon="-1.1889720">
        <ele>309.3</ele>
        <time>2019-07-16T09:57:55Z</time>
      </trkpt>
      <trkpt lat="43.0743400" lon="-1.1888160">
        <ele>309.8</ele>
        <time>2019-07-16T09:57:57Z</time>
      </trkpt>
      <trkpt lat="43.0743130" lon="-1.1886680">
        <ele>310.1</ele>
        <time>2019-07-16T09:57:59Z</time>
      </trkpt>
      <trkpt lat="43.0742780" lon="-1.1885050">
        <ele>310.4</ele>
        <time>2019-07-16T09:58:01Z</time>
      </trkpt>
      <trkpt lat="43.0742250" lon="-1.1883630">
        <ele>310.9</ele>
        <time>2019-07-16T09:58:03Z</time>
      </trkpt>
      <trkpt lat="43.0741620" lon="-1.1882380">
        <ele>311.2</ele>
        <time>2019-07-16T09:58:05Z</time>
      </trkpt>
      <trkpt lat="43.0740850" lon="-1.1881670">
        <ele>311.6</ele>
        <time>2019-07-16T09:58:08Z</time>
      </trkpt>
      <trkpt lat="43.0739740" lon="-1.1881340">
        <ele>312.0</ele>
        <time>2019-07-16T09:58:13Z</time>
      </trkpt>
      <trkpt lat="43.0738630" lon="-1.1880640">
        <ele>312.6</ele>
        <time>2019-07-16T09:58:17Z</time>
      </trkpt>
      <trkpt lat="43.0737520" lon="-1.1880570">
        <ele>313.3</ele>
        <time>2019-07-16T09:58:21Z</time>
      </trkpt>
      <trkpt lat="43.0736500" lon="-1.1880480">
        <ele>314.0</ele>
        <time>2019-07-16T09:58:25Z</time>
      </trkpt>
      <trkpt lat="43.0735610" lon="-1.1880650">
        <ele>314.6</ele>
        <time>2019-07-16T09:58:30Z</time>
      </trkpt>
      <trkpt lat="43.0734610" lon="-1.1881370">
        <ele>315.2</ele>
        <time>2019-07-16T09:58:37Z</time>
      </trkpt>
      <trkpt lat="43.0733630" lon="-1.1882330">
        <ele>316.0</ele>
        <time>2019-07-16T09:58:41Z</time>
      </trkpt>
      <trkpt lat="43.0732720" lon="-1.1883520">
        <ele>316.6</ele>
        <time>2019-07-16T09:58:44Z</time>
      </trkpt>
      <trkpt lat="43.0732140" lon="-1.1884750">
        <ele>317.2</ele>
        <time>2019-07-16T09:58:47Z</time>
      </trkpt>
      <trkpt lat="43.0731550" lon="-1.1885990">
        <ele>317.8</ele>
        <time>2019-07-16T09:58:50Z</time>
      </trkpt>
      <trkpt lat="43.0731070" lon="-1.1887060">
        <ele>318.5</ele>
        <time>2019-07-16T09:58:53Z</time>
      </trkpt>
      <trkpt lat="43.0730540" lon="-1.1888380">
        <ele>319.1</ele>
        <time>2019-07-16T09:58:56Z</time>
      </trkpt>
      <trkpt lat="43.0730000" lon="-1.1889430">
        <ele>319.6</ele>
        <time>2019-07-16T09:58:58Z</time>
      </trkpt>
      <trkpt lat="43.0729490" lon="-1.1890810">
        <ele>320.2</ele>
        <time>2019-07-16T09:59:00Z</time>
      </trkpt>
      <trkpt lat="43.0729170" lon="-1.1892370">
        <ele>321.0</ele>
        <time>2019-07-16T09:59:03Z</time>
      </trkpt>
      <trkpt lat="43.0728550" lon="-1.1895280">
        <ele>322.1</ele>
        <time>2019-07-16T09:59:08Z</time>
      </trkpt>
      <trkpt lat="43.0728300" lon="-1.1896470">
        <ele>322.5</ele>
        <time>2019-07-16T09:59:10Z</time>
      </trkpt>
      <trkpt lat="43.0727970" lon="-1.1897780">
        <ele>323.0</ele>
        <time>2019-07-16T09:59:12Z</time>
      </trkpt>
      <trkpt lat="43.0727510" lon="-1.1899470">
        <ele>323.9</ele>
        <time>2019-07-16T09:59:15Z</time>
      </trkpt>
      <trkpt lat="43.0726960" lon="-1.1900780">
        <ele>324.5</ele>
        <time>2019-07-16T09:59:17Z</time>
      </trkpt>
      <trkpt lat="43.0726150" lon="-1.1902420">
        <ele>325.3</ele>
        <time>2019-07-16T09:59:20Z</time>
      </trkpt>
      <trkpt lat="43.0725330" lon="-1.1903720">
        <ele>326.2</ele>
        <time>2019-07-16T09:59:23Z</time>
      </trkpt>
      <trkpt lat="43.0724430" lon="-1.1904870">
        <ele>327.0</ele>
        <time>2019-07-16T09:59:26Z</time>
      </trkpt>
      <trkpt lat="43.0723920" lon="-1.1906140">
        <ele>327.5</ele>
        <time>2019-07-16T09:59:29Z</time>
      </trkpt>
      <trkpt lat="43.0723660" lon="-1.1907440">
        <ele>328.0</ele>
        <time>2019-07-16T09:59:32Z</time>
      </trkpt>
      <trkpt lat="43.0724120" lon="-1.1908630">
        <ele>328.4</ele>
        <time>2019-07-16T09:59:38Z</time>
      </trkpt>
      <trkpt lat="43.0724400" lon="-1.1909930">
        <ele>328.7</ele>
        <time>2019-07-16T09:59:44Z</time>
      </trkpt>
      <trkpt lat="43.0724680" lon="-1.1911120">
        <ele>329.0</ele>
        <time>2019-07-16T09:59:50Z</time>
      </trkpt>
      <trkpt lat="43.0725220" lon="-1.1912190">
        <ele>329.4</ele>
        <time>2019-07-16T09:59:57Z</time>
      </trkpt>
      <trkpt lat="43.0725970" lon="-1.1913020">
        <ele>329.8</ele>
        <time>2019-07-16T10:00:04Z</time>
      </trkpt>
      <trkpt lat="43.0726830" lon="-1.1913710">
        <ele>330.3</ele>
        <time>2019-07-16T10:00:11Z</time>
      </trkpt>
      <trkpt lat="43.0727730" lon="-1.1914420">
        <ele>330.7</ele>
        <time>2019-07-16T10:00:18Z</time>
      </trkpt>
      <trkpt lat="43.0728560" lon="-1.1915320">
        <ele>331.3</ele>
        <time>2019-07-16T10:00:25Z</time>
      </trkpt>
      <trkpt lat="43.0729380" lon="-1.1915870">
        <ele>331.9</ele>
        <time>2019-07-16T10:00:31Z</time>
      </trkpt>
      <trkpt lat="43.0730190" lon="-1.1916640">
        <ele>332.5</ele>
        <time>2019-07-16T10:00:38Z</time>
      </trkpt>
      <trkpt lat="43.0730880" lon="-1.1917610">
        <ele>333.1</ele>
        <time>2019-07-16T10:00:45Z</time>
      </trkpt>
      <trkpt lat="43.0731130" lon="-1.1918810">
        <ele>333.5</ele>
        <time>2019-07-16T10:00:52Z</time>
      </trkpt>
      <trkpt lat="43.0730680" lon="-1.1920060">
        <ele>334.0</ele>
        <time>2019-07-16T10:00:59Z</time>
      </trkpt>
      <trkpt lat="43.0730170" lon="-1.1921160">
        <ele>334.7</ele>
        <time>2019-07-16T10:01:05Z</time>
      </trkpt>
      <trkpt lat="43.0729480" lon="-1.1922040">
        <ele>335.3</ele>
        <time>2019-07-16T10:01:11Z</time>
      </trkpt>
      <trkpt lat="43.0728380" lon="-1.1922050">
        <ele>336.0</ele>
        <time>2019-07-16T10:01:18Z</time>
      </trkpt>
      <trkpt lat="43.0727260" lon="-1.1921900">
        <ele>336.9</ele>
        <time>2019-07-16T10:01:22Z</time>
      </trkpt>
      <trkpt lat="43.0726250" lon="-1.1921510">
        <ele>337.5</ele>
        <time>2019-07-16T10:01:25Z</time>
      </trkpt>
      <trkpt lat="43.0725210" lon="-1.1921070">
        <ele>338.2</ele>
        <time>2019-07-16T10:01:28Z</time>
      </trkpt>
      <trkpt lat="43.0724010" lon="-1.1920710">
        <ele>338.9</ele>
        <time>2019-07-16T10:01:31Z</time>
      </trkpt>
      <trkpt lat="43.0723010" lon="-1.1920710">
        <ele>339.4</ele>
        <time>2019-07-16T10:01:33Z</time>
      </trkpt>
      <trkpt lat="43.0722010" lon="-1.1921090">
        <ele>340.0</ele>
        <time>2019-07-16T10:01:35Z</time>
      </trkpt>
      <trkpt lat="43.0720950" lon="-1.1921620">
        <ele>340.6</ele>
        <time>2019-07-16T10:01:37Z</time>
      </trkpt>
      <trkpt lat="43.0719910" lon="-1.1922090">
        <ele>341.1</ele>
        <time>2019-07-16T10:01:39Z</time>
      </trkpt>
      <trkpt lat="43.0718900" lon="-1.1922590">
        <ele>341.7</ele>
        <time>2019-07-16T10:01:41Z</time>
      </trkpt>
      <trkpt lat="43.0717800" lon="-1.1923050">
        <ele>342.4</ele>
        <time>2019-07-16T10:01:43Z</time>
      </trkpt>
      <trkpt lat="43.0716780" lon="-1.1923600">
        <ele>343.0</ele>
        <time>2019-07-16T10:01:45Z</time>
      </trkpt>
      <trkpt lat="43.0715940" lon="-1.1924210">
        <ele>343.6</ele>
        <time>2019-07-16T10:01:47Z</time>
      </trkpt>
      <trkpt lat="43.0715170" lon="-1.1925030">
        <ele>344.1</ele>
        <time>2019-07-16T10:01:50Z</time>
      </trkpt>
      <trkpt lat="43.0714520" lon="-1.1926230">
        <ele>344.6</ele>
        <time>2019-07-16T10:01:53Z</time>
      </trkpt>
      <trkpt lat="43.0714140" lon="-1.1927540">
        <ele>345.0</ele>
        <time>2019-07-16T10:01:57Z</time>
      </trkpt>
      <trkpt lat="43.0713680" lon="-1.1929070">
        <ele>345.7</ele>
        <time>2019-07-16T10:02:00Z</time>
      </trkpt>
      <trkpt lat="43.0713320" lon="-1.1930490">
        <ele>346.4</ele>
        <time>2019-07-16T10:02:03Z</time>
      </trkpt>
      <trkpt lat="43.0712970" lon="-1.1931690">
        <ele>346.8</ele>
        <time>2019-07-16T10:02:06Z</time>
      </trkpt>
      <trkpt lat="43.0712480" lon="-1.1933100">
        <ele>347.3</ele>
        <time>2019-07-16T10:02:10Z</time>
      </trkpt>
      <trkpt lat="43.0712160" lon="-1.1934270">
        <ele>347.7</ele>
        <time>2019-07-16T10:02:14Z</time>
      </trkpt>
      <trkpt lat="43.0711490" lon="-1.1935330">
        <ele>348.1</ele>
        <time>2019-07-16T10:02:18Z</time>
      </trkpt>
      <trkpt lat="43.0710810" lon="-1.1936290">
        <ele>348.6</ele>
        <time>2019-07-16T10:02:22Z</time>
      </trkpt>
      <trkpt lat="43.0710050" lon="-1.1937060">
        <ele>349.2</ele>
        <time>2019-07-16T10:02:26Z</time>
      </trkpt>
      <trkpt lat="43.0709210" lon="-1.1937710">
        <ele>349.8</ele>
        <time>2019-07-16T10:02:30Z</time>
      </trkpt>
      <trkpt lat="43.0708200" lon="-1.1938050">
        <ele>350.4</ele>
        <time>2019-07-16T10:02:35Z</time>
      </trkpt>
      <trkpt lat="43.0707220" lon="-1.1938210">
        <ele>351.1</ele>
        <time>2019-07-16T10:02:40Z</time>
      </trkpt>
      <trkpt lat="43.0706290" lon="-1.1937930">
        <ele>351.5</ele>
        <time>2019-07-16T10:02:45Z</time>
      </trkpt>
      <trkpt lat="43.0705250" lon="-1.1937510">
        <ele>352.2</ele>
        <time>2019-07-16T10:02:51Z</time>
      </trkpt>
      <trkpt lat="43.0704240" lon="-1.1937070">
        <ele>353.0</ele>
        <time>2019-07-16T10:02:56Z</time>
      </trkpt>
      <trkpt lat="43.0703460" lon="-1.1936450">
        <ele>353.6</ele>
        <time>2019-07-16T10:03:01Z</time>
      </trkpt>
      <trkpt lat="43.0702610" lon="-1.1935720">
        <ele>354.1</ele>
        <time>2019-07-16T10:03:07Z</time>
      </trkpt>
      <trkpt lat="43.0701700" lon="-1.1935230">
        <ele>354.9</ele>
        <time>2019-07-16T10:03:12Z</time>
      </trkpt>
      <trkpt lat="43.0700810" lon="-1.1935050">
        <ele>355.5</ele>
        <time>2019-07-16T10:03:16Z</time>
      </trkpt>
      <trkpt lat="43.0699730" lon="-1.1934860">
        <ele>356.4</ele>
        <time>2019-07-16T10:03:21Z</time>
      </trkpt>
      <trkpt lat="43.0698720" lon="-1.1934760">
        <ele>357.1</ele>
        <time>2019-07-16T10:03:27Z</time>
      </trkpt>
      <trkpt lat="43.0697760" lon="-1.1934890">
        <ele>357.7</ele>
        <time>2019-07-16T10:03:32Z</time>
      </trkpt>
      <trkpt lat="43.0696700" lon="-1.1935270">
        <ele>358.3</ele>
        <time>2019-07-16T10:03:37Z</time>
      </trkpt>
      <trkpt lat="43.0695690" lon="-1.1935790">
        <ele>359.0</ele>
        <time>2019-07-16T10:03:42Z</time>
      </trkpt>
      <trkpt lat="43.0694820" lon="-1.1936470">
        <ele>359.7</ele>
        <time>2019-07-16T10:03:47Z</time>
      </trkpt>
      <trkpt lat="43.0693620" lon="-1.1937280">
        <ele>359.8</ele>
        <time>2019-07-16T10:03:54Z</time>
      </trkpt>
      <trkpt lat="43.0692640" lon="-1.1938170">
        <ele>358.5</ele>
        <time>2019-07-16T10:04:00Z</time>
      </trkpt>
      <trkpt lat="43.0691450" lon="-1.1939190">
        <ele>355.6</ele>
        <time>2019-07-16T10:04:07Z</time>
      </trkpt>
      <trkpt lat="43.0690690" lon="-1.1940220">
        <ele>353.7</ele>
        <time>2019-07-16T10:04:12Z</time>
      </trkpt>
      <trkpt lat="43.0690270" lon="-1.1941320">
        <ele>353.8</ele>
        <time>2019-07-16T10:04:16Z</time>
      </trkpt>
      <trkpt lat="43.0689880" lon="-1.1942670">
        <ele>354.7</ele>
        <time>2019-07-16T10:04:21Z</time>
      </trkpt>
      <trkpt lat="43.0689360" lon="-1.1943920">
        <ele>355.5</ele>
        <time>2019-07-16T10:04:26Z</time>
      </trkpt>
      <trkpt lat="43.0688750" lon="-1.1945010">
        <ele>356.4</ele>
        <time>2019-07-16T10:04:31Z</time>
      </trkpt>
      <trkpt lat="43.0688210" lon="-1.1946060">
        <ele>357.3</ele>
        <time>2019-07-16T10:04:36Z</time>
      </trkpt>
      <trkpt lat="43.0687960" lon="-1.1947270">
        <ele>358.1</ele>
        <time>2019-07-16T10:04:42Z</time>
      </trkpt>
      <trkpt lat="43.0687590" lon="-1.1948410">
        <ele>358.8</ele>
        <time>2019-07-16T10:04:47Z</time>
      </trkpt>
      <trkpt lat="43.0687230" lon="-1.1949760">
        <ele>359.5</ele>
        <time>2019-07-16T10:04:52Z</time>
      </trkpt>
      <trkpt lat="43.0686850" lon="-1.1950930">
        <ele>360.2</ele>
        <time>2019-07-16T10:04:56Z</time>
      </trkpt>
      <trkpt lat="43.0686320" lon="-1.1951990">
        <ele>360.8</ele>
        <time>2019-07-16T10:05:00Z</time>
      </trkpt>
      <trkpt lat="43.0685780" lon="-1.1953070">
        <ele>361.5</ele>
        <time>2019-07-16T10:05:04Z</time>
      </trkpt>
      <trkpt lat="43.0685090" lon="-1.1954210">
        <ele>362.3</ele>
        <time>2019-07-16T10:05:09Z</time>
      </trkpt>
      <trkpt lat="43.0684480" lon="-1.1955320">
        <ele>363.0</ele>
        <time>2019-07-16T10:05:14Z</time>
      </trkpt>
      <trkpt lat="43.0683920" lon="-1.1956550">
        <ele>363.8</ele>
        <time>2019-07-16T10:05:19Z</time>
      </trkpt>
      <trkpt lat="43.0683620" lon="-1.1958010">
        <ele>364.6</ele>
        <time>2019-07-16T10:05:24Z</time>
      </trkpt>
      <trkpt lat="43.0683550" lon="-1.1959270">
        <ele>365.2</ele>
        <time>2019-07-16T10:05:29Z</time>
      </trkpt>
      <trkpt lat="43.0683720" lon="-1.1960520">
        <ele>365.7</ele>
        <time>2019-07-16T10:05:36Z</time>
      </trkpt>
      <trkpt lat="43.0683890" lon="-1.1961820">
        <ele>366.3</ele>
        <time>2019-07-16T10:05:43Z</time>
      </trkpt>
      <trkpt lat="43.0683830" lon="-1.1963130">
        <ele>366.6</ele>
        <time>2019-07-16T10:05:49Z</time>
      </trkpt>
      <trkpt lat="43.0683780" lon="-1.1964480">
        <ele>367.0</ele>
        <time>2019-07-16T10:05:55Z</time>
      </trkpt>
      <trkpt lat="43.0683610" lon="-1.1966110">
        <ele>367.5</ele>
        <time>2019-07-16T10:06:02Z</time>
      </trkpt>
      <trkpt lat="43.0683390" lon="-1.1967360">
        <ele>367.9</ele>
        <time>2019-07-16T10:06:08Z</time>
      </trkpt>
      <trkpt lat="43.0683130" lon="-1.1968580">
        <ele>368.3</ele>
        <time>2019-07-16T10:06:14Z</time>
      </trkpt>
      <trkpt lat="43.0682740" lon="-1.1969770">
        <ele>368.7</ele>
        <time>2019-07-16T10:06:20Z</time>
      </trkpt>
      <trkpt lat="43.0682320" lon="-1.1971100">
        <ele>369.1</ele>
        <time>2019-07-16T10:06:26Z</time>
      </trkpt>
      <trkpt lat="43.0681960" lon="-1.1972340">
        <ele>369.6</ele>
        <time>2019-07-16T10:06:34Z</time>
      </trkpt>
      <trkpt lat="43.0681360" lon="-1.1973470">
        <ele>370.3</ele>
        <time>2019-07-16T10:06:41Z</time>
      </trkpt>
      <trkpt lat="43.0681090" lon="-1.1974650">
        <ele>371.0</ele>
        <time>2019-07-16T10:06:47Z</time>
      </trkpt>
      <trkpt lat="43.0680980" lon="-1.1975920">
        <ele>371.8</ele>
        <time>2019-07-16T10:06:53Z</time>
      </trkpt>
      <trkpt lat="43.0681350" lon="-1.1977200">
        <ele>372.6</ele>
        <time>2019-07-16T10:07:00Z</time>
      </trkpt>
      <trkpt lat="43.0682120" lon="-1.1978060">
        <ele>373.4</ele>
        <time>2019-07-16T10:07:07Z</time>
      </trkpt>
      <trkpt lat="43.0682980" lon="-1.1978580">
        <ele>374.0</ele>
        <time>2019-07-16T10:07:13Z</time>
      </trkpt>
      <trkpt lat="43.0683740" lon="-1.1979620">
        <ele>374.6</ele>
        <time>2019-07-16T10:07:21Z</time>
      </trkpt>
      <trkpt lat="43.0684540" lon="-1.1980630">
        <ele>375.2</ele>
        <time>2019-07-16T10:07:29Z</time>
      </trkpt>
      <trkpt lat="43.0685040" lon="-1.1981940">
        <ele>375.9</ele>
        <time>2019-07-16T10:07:37Z</time>
      </trkpt>
      <trkpt lat="43.0685030" lon="-1.1983530">
        <ele>376.7</ele>
        <time>2019-07-16T10:07:44Z</time>
      </trkpt>
      <trkpt lat="43.0684750" lon="-1.1984790">
        <ele>377.4</ele>
        <time>2019-07-16T10:07:50Z</time>
      </trkpt>
      <trkpt lat="43.0684460" lon="-1.1986150">
        <ele>378.2</ele>
        <time>2019-07-16T10:07:57Z</time>
      </trkpt>
      <trkpt lat="43.0684000" lon="-1.1987340">
        <ele>379.2</ele>
        <time>2019-07-16T10:08:04Z</time>
      </trkpt>
      <trkpt lat="43.0683560" lon="-1.1988620">
        <ele>379.8</ele>
        <time>2019-07-16T10:08:11Z</time>
      </trkpt>
      <trkpt lat="43.0683110" lon="-1.1989860">
        <ele>380.5</ele>
        <time>2019-07-16T10:08:18Z</time>
      </trkpt>
      <trkpt lat="43.0682580" lon="-1.1990870">
        <ele>381.3</ele>
        <time>2019-07-16T10:08:24Z</time>
      </trkpt>
      <trkpt lat="43.0682120" lon="-1.1992090">
        <ele>382.1</ele>
        <time>2019-07-16T10:08:31Z</time>
      </trkpt>
      <trkpt lat="43.0682470" lon="-1.1993490">
        <ele>383.0</ele>
        <time>2019-07-16T10:08:39Z</time>
      </trkpt>
      <trkpt lat="43.0683290" lon="-1.1994750">
        <ele>384.1</ele>
        <time>2019-07-16T10:08:49Z</time>
      </trkpt>
      <trkpt lat="43.0684270" lon="-1.1995610">
        <ele>385.1</ele>
        <time>2019-07-16T10:08:58Z</time>
      </trkpt>
      <trkpt lat="43.0684860" lon="-1.1996580">
        <ele>385.7</ele>
        <time>2019-07-16T10:09:04Z</time>
      </trkpt>
      <trkpt lat="43.0684950" lon="-1.1997850">
        <ele>386.4</ele>
        <time>2019-07-16T10:09:11Z</time>
      </trkpt>
      <trkpt lat="43.0684530" lon="-1.1999230">
        <ele>387.1</ele>
        <time>2019-07-16T10:09:19Z</time>
      </trkpt>
      <trkpt lat="43.0684070" lon="-1.2000400">
        <ele>387.8</ele>
        <time>2019-07-16T10:09:27Z</time>
      </trkpt>
      <trkpt lat="43.0683740" lon="-1.2001710">
        <ele>388.5</ele>
        <time>2019-07-16T10:09:34Z</time>
      </trkpt>
      <trkpt lat="43.0683420" lon="-1.2002960">
        <ele>389.1</ele>
        <time>2019-07-16T10:09:41Z</time>
      </trkpt>
      <trkpt lat="43.0683160" lon="-1.2004230">
        <ele>389.7</ele>
        <time>2019-07-16T10:09:48Z</time>
      </trkpt>
      <trkpt lat="43.0682810" lon="-1.2005640">
        <ele>390.4</ele>
        <time>2019-07-16T10:09:56Z</time>
      </trkpt>
      <trkpt lat="43.0682460" lon="-1.2006920">
        <ele>391.0</ele>
        <time>2019-07-16T10:10:03Z</time>
      </trkpt>
      <trkpt lat="43.0681830" lon="-1.2008430">
        <ele>391.9</ele>
        <time>2019-07-16T10:10:12Z</time>
      </trkpt>
      <trkpt lat="43.0681320" lon="-1.2009450">
        <ele>392.4</ele>
        <time>2019-07-16T10:10:19Z</time>
      </trkpt>
      <trkpt lat="43.0680920" lon="-1.2010630">
        <ele>393.2</ele>
        <time>2019-07-16T10:10:26Z</time>
      </trkpt>
      <trkpt lat="43.0680410" lon="-1.2011690">
        <ele>393.7</ele>
        <time>2019-07-16T10:10:33Z</time>
      </trkpt>
      <trkpt lat="43.0680060" lon="-1.2013010">
        <ele>394.2</ele>
        <time>2019-07-16T10:10:41Z</time>
      </trkpt>
      <trkpt lat="43.0679720" lon="-1.2014190">
        <ele>394.8</ele>
        <time>2019-07-16T10:10:48Z</time>
      </trkpt>
      <trkpt lat="43.0679690" lon="-1.2016020">
        <ele>395.7</ele>
        <time>2019-07-16T10:10:59Z</time>
      </trkpt>
      <trkpt lat="43.0679770" lon="-1.2017280">
        <ele>396.4</ele>
        <time>2019-07-16T10:11:06Z</time>
      </trkpt>
      <trkpt lat="43.0679770" lon="-1.2018680">
        <ele>397.1</ele>
        <time>2019-07-16T10:11:13Z</time>
      </trkpt>
      <trkpt lat="43.0679710" lon="-1.2020000">
        <ele>397.8</ele>
        <time>2019-07-16T10:11:20Z</time>
      </trkpt>
      <trkpt lat="43.0679890" lon="-1.2021270">
        <ele>398.5</ele>
        <time>2019-07-16T10:11:27Z</time>
      </trkpt>
      <trkpt lat="43.0680130" lon="-1.2022610">
        <ele>399.3</ele>
        <time>2019-07-16T10:11:34Z</time>
      </trkpt>
      <trkpt lat="43.0680420" lon="-1.2023950">
        <ele>400.3</ele>
        <time>2019-07-16T10:11:41Z</time>
      </trkpt>
      <trkpt lat="43.0681130" lon="-1.2024930">
        <ele>401.2</ele>
        <time>2019-07-16T10:11:48Z</time>
      </trkpt>
      <trkpt lat="43.0681900" lon="-1.2025620">
        <ele>401.6</ele>
        <time>2019-07-16T10:11:54Z</time>
      </trkpt>
      <trkpt lat="43.0682770" lon="-1.2026380">
        <ele>401.9</ele>
        <time>2019-07-16T10:12:01Z</time>
      </trkpt>
      <trkpt lat="43.0683230" lon="-1.2027210">
        <ele>402.1</ele>
        <time>2019-07-16T10:12:12Z</time>
      </trkpt>
      <trkpt lat="43.0682350" lon="-1.2027510">
        <ele>402.3</ele>
        <time>2019-07-16T10:12:27Z</time>
      </trkpt>
      <trkpt lat="43.0682860" lon="-1.2027290">
        <ele>402.4</ele>
        <time>2019-07-16T10:12:45Z</time>
      </trkpt>
      <trkpt lat="43.0683820" lon="-1.2028610">
        <ele>402.8</ele>
        <time>2019-07-16T10:13:32Z</time>
      </trkpt>
      <trkpt lat="43.0684930" lon="-1.2029100">
        <ele>403.2</ele>
        <time>2019-07-16T10:13:40Z</time>
      </trkpt>
      <trkpt lat="43.0685960" lon="-1.2029170">
        <ele>403.7</ele>
        <time>2019-07-16T10:13:44Z</time>
      </trkpt>
      <trkpt lat="43.0687490" lon="-1.2029070">
        <ele>404.5</ele>
        <time>2019-07-16T10:13:52Z</time>
      </trkpt>
      <trkpt lat="43.0688870" lon="-1.2029460">
        <ele>405.5</ele>
        <time>2019-07-16T10:14:00Z</time>
      </trkpt>
      <trkpt lat="43.0689950" lon="-1.2029210">
        <ele>406.7</ele>
        <time>2019-07-16T10:14:04Z</time>
      </trkpt>
      <trkpt lat="43.0690880" lon="-1.2029880">
        <ele>407.9</ele>
        <time>2019-07-16T10:14:12Z</time>
      </trkpt>
      <trkpt lat="43.0690240" lon="-1.2030810">
        <ele>408.9</ele>
        <time>2019-07-16T10:14:20Z</time>
      </trkpt>
      <trkpt lat="43.0689480" lon="-1.2031610">
        <ele>409.8</ele>
        <time>2019-07-16T10:14:27Z</time>
      </trkpt>
      <trkpt lat="43.0688490" lon="-1.2031580">
        <ele>410.3</ele>
        <time>2019-07-16T10:14:38Z</time>
      </trkpt>
      <trkpt lat="43.0687580" lon="-1.2031990">
        <ele>410.8</ele>
        <time>2019-07-16T10:14:46Z</time>
      </trkpt>
      <trkpt lat="43.0686720" lon="-1.2032420">
        <ele>411.3</ele>
        <time>2019-07-16T10:14:53Z</time>
      </trkpt>
      <trkpt lat="43.0685800" lon="-1.2032920">
        <ele>412.0</ele>
        <time>2019-07-16T10:15:00Z</time>
      </trkpt>
      <trkpt lat="43.0684880" lon="-1.2033330">
        <ele>412.6</ele>
        <time>2019-07-16T10:15:07Z</time>
      </trkpt>
      <trkpt lat="43.0684030" lon="-1.2033800">
        <ele>413.6</ele>
        <time>2019-07-16T10:15:14Z</time>
      </trkpt>
      <trkpt lat="43.0683190" lon="-1.2034290">
        <ele>414.5</ele>
        <time>2019-07-16T10:15:21Z</time>
      </trkpt>
      <trkpt lat="43.0682580" lon="-1.2035530">
        <ele>415.5</ele>
        <time>2019-07-16T10:15:28Z</time>
      </trkpt>
      <trkpt lat="43.0682400" lon="-1.2036830">
        <ele>416.3</ele>
        <time>2019-07-16T10:15:34Z</time>
      </trkpt>
      <trkpt lat="43.0682460" lon="-1.2038130">
        <ele>417.2</ele>
        <time>2019-07-16T10:15:40Z</time>
      </trkpt>
      <trkpt lat="43.0682570" lon="-1.2039390">
        <ele>417.9</ele>
        <time>2019-07-16T10:15:46Z</time>
      </trkpt>
      <trkpt lat="43.0682480" lon="-1.2040720">
        <ele>418.5</ele>
        <time>2019-07-16T10:15:53Z</time>
      </trkpt>
      <trkpt lat="43.0682410" lon="-1.2042080">
        <ele>419.3</ele>
        <time>2019-07-16T10:16:00Z</time>
      </trkpt>
      <trkpt lat="43.0682380" lon="-1.2043390">
        <ele>419.9</ele>
        <time>2019-07-16T10:16:07Z</time>
      </trkpt>
      <trkpt lat="43.0682310" lon="-1.2044700">
        <ele>420.4</ele>
        <time>2019-07-16T10:16:14Z</time>
      </trkpt>
      <trkpt lat="43.0682680" lon="-1.2046010">
        <ele>421.1</ele>
        <time>2019-07-16T10:16:21Z</time>
      </trkpt>
      <trkpt lat="43.0682990" lon="-1.2047310">
        <ele>421.9</ele>
        <time>2019-07-16T10:16:28Z</time>
      </trkpt>
      <trkpt lat="43.0683230" lon="-1.2048630">
        <ele>422.8</ele>
        <time>2019-07-16T10:16:35Z</time>
      </trkpt>
      <trkpt lat="43.0683490" lon="-1.2049890">
        <ele>423.8</ele>
        <time>2019-07-16T10:16:41Z</time>
      </trkpt>
      <trkpt lat="43.0683530" lon="-1.2051200">
        <ele>424.8</ele>
        <time>2019-07-16T10:16:49Z</time>
      </trkpt>
      <trkpt lat="43.0683830" lon="-1.2052370">
        <ele>425.7</ele>
        <time>2019-07-16T10:16:57Z</time>
      </trkpt>
      <trkpt lat="43.0684030" lon="-1.2053720">
        <ele>426.8</ele>
        <time>2019-07-16T10:17:05Z</time>
      </trkpt>
      <trkpt lat="43.0684460" lon="-1.2054810">
        <ele>427.7</ele>
        <time>2019-07-16T10:17:13Z</time>
      </trkpt>
      <trkpt lat="43.0684640" lon="-1.2056090">
        <ele>428.5</ele>
        <time>2019-07-16T10:17:21Z</time>
      </trkpt>
      <trkpt lat="43.0684820" lon="-1.2057430">
        <ele>429.2</ele>
        <time>2019-07-16T10:17:29Z</time>
      </trkpt>
      <trkpt lat="43.0685130" lon="-1.2058730">
        <ele>429.9</ele>
        <time>2019-07-16T10:17:37Z</time>
      </trkpt>
      <trkpt lat="43.0685660" lon="-1.2059770">
        <ele>430.8</ele>
        <time>2019-07-16T10:17:44Z</time>
      </trkpt>
      <trkpt lat="43.0686110" lon="-1.2060960">
        <ele>431.8</ele>
        <time>2019-07-16T10:17:51Z</time>
      </trkpt>
      <trkpt lat="43.0686530" lon="-1.2062200">
        <ele>432.6</ele>
        <time>2019-07-16T10:17:58Z</time>
      </trkpt>
      <trkpt lat="43.0686910" lon="-1.2063400">
        <ele>433.4</ele>
        <time>2019-07-16T10:18:05Z</time>
      </trkpt>
      <trkpt lat="43.0687110" lon="-1.2064600">
        <ele>434.0</ele>
        <time>2019-07-16T10:18:11Z</time>
      </trkpt>
      <trkpt lat="43.0687290" lon="-1.2065880">
        <ele>434.4</ele>
        <time>2019-07-16T10:18:18Z</time>
      </trkpt>
      <trkpt lat="43.0687600" lon="-1.2067190">
        <ele>434.7</ele>
        <time>2019-07-16T10:18:26Z</time>
      </trkpt>
      <trkpt lat="43.0687670" lon="-1.2068490">
        <ele>435.0</ele>
        <time>2019-07-16T10:18:33Z</time>
      </trkpt>
      <trkpt lat="43.0688120" lon="-1.2069670">
        <ele>435.5</ele>
        <time>2019-07-16T10:18:40Z</time>
      </trkpt>
      <trkpt lat="43.0688590" lon="-1.2070800">
        <ele>436.0</ele>
        <time>2019-07-16T10:18:47Z</time>
      </trkpt>
      <trkpt lat="43.0688890" lon="-1.2071990">
        <ele>436.6</ele>
        <time>2019-07-16T10:18:54Z</time>
      </trkpt>
      <trkpt lat="43.0689250" lon="-1.2073250">
        <ele>437.2</ele>
        <time>2019-07-16T10:19:02Z</time>
      </trkpt>
      <trkpt lat="43.0689830" lon="-1.2074430">
        <ele>437.7</ele>
        <time>2019-07-16T10:19:09Z</time>
      </trkpt>
      <trkpt lat="43.0690320" lon="-1.2075480">
        <ele>438.5</ele>
        <time>2019-07-16T10:19:15Z</time>
      </trkpt>
      <trkpt lat="43.0690780" lon="-1.2076790">
        <ele>439.3</ele>
        <time>2019-07-16T10:19:21Z</time>
      </trkpt>
      <trkpt lat="43.0691350" lon="-1.2077970">
        <ele>440.0</ele>
        <time>2019-07-16T10:19:28Z</time>
      </trkpt>
      <trkpt lat="43.0691730" lon="-1.2079320">
        <ele>440.6</ele>
        <time>2019-07-16T10:19:36Z</time>
      </trkpt>
      <trkpt lat="43.0691990" lon="-1.2080640">
        <ele>441.3</ele>
        <time>2019-07-16T10:19:44Z</time>
      </trkpt>
      <trkpt lat="43.0692150" lon="-1.2081960">
        <ele>442.1</ele>
        <time>2019-07-16T10:19:52Z</time>
      </trkpt>
      <trkpt lat="43.0692660" lon="-1.2083010">
        <ele>442.9</ele>
        <time>2019-07-16T10:20:00Z</time>
      </trkpt>
      <trkpt lat="43.0692840" lon="-1.2084350">
        <ele>443.7</ele>
        <time>2019-07-16T10:20:07Z</time>
      </trkpt>
      <trkpt lat="43.0693120" lon="-1.2085640">
        <ele>444.5</ele>
        <time>2019-07-16T10:20:13Z</time>
      </trkpt>
      <trkpt lat="43.0693230" lon="-1.2086950">
        <ele>445.4</ele>
        <time>2019-07-16T10:20:19Z</time>
      </trkpt>
      <trkpt lat="43.0693420" lon="-1.2088180">
        <ele>446.2</ele>
        <time>2019-07-16T10:20:25Z</time>
      </trkpt>
      <trkpt lat="43.0693540" lon="-1.2089440">
        <ele>447.0</ele>
        <time>2019-07-16T10:20:31Z</time>
      </trkpt>
      <trkpt lat="43.0693570" lon="-1.2090690">
        <ele>447.6</ele>
        <time>2019-07-16T10:20:38Z</time>
      </trkpt>
      <trkpt lat="43.0693280" lon="-1.2091940">
        <ele>448.3</ele>
        <time>2019-07-16T10:20:45Z</time>
      </trkpt>
      <trkpt lat="43.0693330" lon="-1.2093270">
        <ele>449.3</ele>
        <time>2019-07-16T10:20:53Z</time>
      </trkpt>
      <trkpt lat="43.0693360" lon="-1.2094550">
        <ele>450.2</ele>
        <time>2019-07-16T10:20:59Z</time>
      </trkpt>
      <trkpt lat="43.0693720" lon="-1.2095830">
        <ele>451.1</ele>
        <time>2019-07-16T10:21:06Z</time>
      </trkpt>
      <trkpt lat="43.0694170" lon="-1.2097110">
        <ele>452.0</ele>
        <time>2019-07-16T10:21:13Z</time>
      </trkpt>
      <trkpt lat="43.0694360" lon="-1.2098470">
        <ele>452.7</ele>
        <time>2019-07-16T10:21:20Z</time>
      </trkpt>
      <trkpt lat="43.0694990" lon="-1.2099630">
        <ele>453.1</ele>
        <time>2019-07-16T10:21:27Z</time>
      </trkpt>
      <trkpt lat="43.0695710" lon="-1.2099830">
        <ele>453.4</ele>
        <time>2019-07-16T10:21:38Z</time>
      </trkpt>
      <trkpt lat="43.0694780" lon="-1.2101040">
        <ele>453.9</ele>
        <time>2019-07-16T10:22:23Z</time>
      </trkpt>
      <trkpt lat="43.0694690" lon="-1.2101130">
        <ele>454.0</ele>
        <time>2019-07-16T10:22:25Z</time>
      </trkpt>
      <trkpt lat="43.0695660" lon="-1.2100940">
        <ele>454.4</ele>
        <time>2019-07-16T10:22:42Z</time>
      </trkpt>
      <trkpt lat="43.0696700" lon="-1.2101330">
        <ele>455.0</ele>
        <time>2019-07-16T10:22:50Z</time>
      </trkpt>
      <trkpt lat="43.0697650" lon="-1.2101660">
        <ele>455.7</ele>
        <time>2019-07-16T10:22:57Z</time>
      </trkpt>
      <trkpt lat="43.0697360" lon="-1.2103010">
        <ele>456.5</ele>
        <time>2019-07-16T10:23:05Z</time>
      </trkpt>
      <trkpt lat="43.0697020" lon="-1.2104620">
        <ele>457.4</ele>
        <time>2019-07-16T10:23:13Z</time>
      </trkpt>
      <trkpt lat="43.0696940" lon="-1.2106380">
        <ele>458.5</ele>
        <time>2019-07-16T10:23:20Z</time>
      </trkpt>
      <trkpt lat="43.0698160" lon="-1.2107340">
        <ele>459.7</ele>
        <time>2019-07-16T10:23:29Z</time>
      </trkpt>
      <trkpt lat="43.0699110" lon="-1.2107970">
        <ele>460.6</ele>
        <time>2019-07-16T10:23:35Z</time>
      </trkpt>
      <trkpt lat="43.0700030" lon="-1.2107990">
        <ele>461.3</ele>
        <time>2019-07-16T10:23:38Z</time>
      </trkpt>
      <trkpt lat="43.0701090" lon="-1.2108340">
        <ele>462.1</ele>
        <time>2019-07-16T10:23:44Z</time>
      </trkpt>
      <trkpt lat="43.0700950" lon="-1.2110110">
        <ele>462.9</ele>
        <time>2019-07-16T10:23:52Z</time>
      </trkpt>
      <trkpt lat="43.0700050" lon="-1.2111750">
        <ele>463.9</ele>
        <time>2019-07-16T10:23:56Z</time>
      </trkpt>
      <trkpt lat="43.0700010" lon="-1.2113390">
        <ele>464.8</ele>
        <time>2019-07-16T10:24:07Z</time>
      </trkpt>
      <trkpt lat="43.0699600" lon="-1.2115070">
        <ele>465.9</ele>
        <time>2019-07-16T10:24:16Z</time>
      </trkpt>
      <trkpt lat="43.0699270" lon="-1.2116330">
        <ele>466.9</ele>
        <time>2019-07-16T10:24:22Z</time>
      </trkpt>
      <trkpt lat="43.0698880" lon="-1.2118290">
        <ele>468.6</ele>
        <time>2019-07-16T10:24:30Z</time>
      </trkpt>
      <trkpt lat="43.0698900" lon="-1.2119800">
        <ele>469.2</ele>
        <time>2019-07-16T10:24:38Z</time>
      </trkpt>
      <trkpt lat="43.0699100" lon="-1.2121140">
        <ele>469.9</ele>
        <time>2019-07-16T10:24:45Z</time>
      </trkpt>
      <trkpt lat="43.0699200" lon="-1.2123250">
        <ele>470.8</ele>
        <time>2019-07-16T10:24:55Z</time>
      </trkpt>
      <trkpt lat="43.0699220" lon="-1.2125250">
        <ele>471.4</ele>
        <time>2019-07-16T10:25:03Z</time>
      </trkpt>
      <trkpt lat="43.0699640" lon="-1.2126840">
        <ele>471.9</ele>
        <time>2019-07-16T10:25:10Z</time>
      </trkpt>
      <trkpt lat="43.0700030" lon="-1.2127990">
        <ele>472.2</ele>
        <time>2019-07-16T10:25:15Z</time>
      </trkpt>
      <trkpt lat="43.0700410" lon="-1.2129260">
        <ele>472.4</ele>
        <time>2019-07-16T10:25:21Z</time>
      </trkpt>
      <trkpt lat="43.0700350" lon="-1.2130710">
        <ele>472.5</ele>
        <time>2019-07-16T10:25:29Z</time>
      </trkpt>
      <trkpt lat="43.0700330" lon="-1.2130900">
        <ele>472.6</ele>
        <time>2019-07-16T10:25:33Z</time>
      </trkpt>
      <trkpt lat="43.0700550" lon="-1.2131530">
        <ele>472.6</ele>
        <time>2019-07-16T10:26:58Z</time>
      </trkpt>
      <trkpt lat="43.0700180" lon="-1.2131900">
        <ele>472.7</ele>
        <time>2019-07-16T10:27:19Z</time>
      </trkpt>
      <trkpt lat="43.0699890" lon="-1.2132320">
        <ele>472.8</ele>
        <time>2019-07-16T10:27:28Z</time>
      </trkpt>
      <trkpt lat="43.0699310" lon="-1.2133170">
        <ele>473.0</ele>
        <time>2019-07-16T10:27:43Z</time>
      </trkpt>
      <trkpt lat="43.0698380" lon="-1.2133130">
        <ele>473.1</ele>
        <time>2019-07-16T10:28:13Z</time>
      </trkpt>
      <trkpt lat="43.0697660" lon="-1.2132100">
        <ele>473.3</ele>
        <time>2019-07-16T10:28:21Z</time>
      </trkpt>
      <trkpt lat="43.0697590" lon="-1.2130790">
        <ele>473.6</ele>
        <time>2019-07-16T10:28:26Z</time>
      </trkpt>
      <trkpt lat="43.0697690" lon="-1.2129310">
        <ele>471.4</ele>
        <time>2019-07-16T10:28:34Z</time>
      </trkpt>
      <trkpt lat="43.0699010" lon="-1.2127410">
        <ele>468.3</ele>
        <time>2019-07-16T10:28:41Z</time>
      </trkpt>
      <trkpt lat="43.0698950" lon="-1.2125890">
        <ele>468.0</ele>
        <time>2019-07-16T10:28:45Z</time>
      </trkpt>
      <trkpt lat="43.0698140" lon="-1.2124050">
        <ele>467.4</ele>
        <time>2019-07-16T10:28:52Z</time>
      </trkpt>
      <trkpt lat="43.0696810" lon="-1.2122340">
        <ele>470.3</ele>
        <time>2019-07-16T10:29:00Z</time>
      </trkpt>
      <trkpt lat="43.0695610" lon="-1.2120870">
        <ele>474.2</ele>
        <time>2019-07-16T10:29:08Z</time>
      </trkpt>
      <trkpt lat="43.0694550" lon="-1.2120410">
        <ele>477.9</ele>
        <time>2019-07-16T10:29:12Z</time>
      </trkpt>
      <trkpt lat="43.0693620" lon="-1.2119350">
        <ele>479.4</ele>
        <time>2019-07-16T10:29:18Z</time>
      </trkpt>
      <trkpt lat="43.0693240" lon="-1.2118130">
        <ele>480.3</ele>
        <time>2019-07-16T10:29:23Z</time>
      </trkpt>
      <trkpt lat="43.0692700" lon="-1.2116740">
        <ele>481.4</ele>
        <time>2019-07-16T10:29:30Z</time>
      </trkpt>
      <trkpt lat="43.0692400" lon="-1.2114820">
        <ele>483.4</ele>
        <time>2019-07-16T10:29:38Z</time>
      </trkpt>
      <trkpt lat="43.0692240" lon="-1.2113550">
        <ele>484.6</ele>
        <time>2019-07-16T10:29:46Z</time>
      </trkpt>
      <trkpt lat="43.0691410" lon="-1.2112580">
        <ele>485.7</ele>
        <time>2019-07-16T10:29:52Z</time>
      </trkpt>
      <trkpt lat="43.0690430" lon="-1.2111710">
        <ele>486.9</ele>
        <time>2019-07-16T10:29:59Z</time>
      </trkpt>
      <trkpt lat="43.0689580" lon="-1.2111230">
        <ele>487.8</ele>
        <time>2019-07-16T10:30:04Z</time>
      </trkpt>
      <trkpt lat="43.0688820" lon="-1.2110550">
        <ele>488.8</ele>
        <time>2019-07-16T10:30:10Z</time>
      </trkpt>
      <trkpt lat="43.0687910" lon="-1.2109900">
        <ele>490.2</ele>
        <time>2019-07-16T10:30:17Z</time>
      </trkpt>
      <trkpt lat="43.0687090" lon="-1.2109240">
        <ele>491.5</ele>
        <time>2019-07-16T10:30:24Z</time>
      </trkpt>
      <trkpt lat="43.0686290" lon="-1.2108460">
        <ele>493.0</ele>
        <time>2019-07-16T10:30:31Z</time>
      </trkpt>
      <trkpt lat="43.0685480" lon="-1.2107850">
        <ele>494.4</ele>
        <time>2019-07-16T10:30:37Z</time>
      </trkpt>
      <trkpt lat="43.0684750" lon="-1.2106420">
        <ele>496.4</ele>
        <time>2019-07-16T10:30:58Z</time>
      </trkpt>
      <trkpt lat="43.0683540" lon="-1.2105400">
        <ele>498.4</ele>
        <time>2019-07-16T10:31:06Z</time>
      </trkpt>
      <trkpt lat="43.0682680" lon="-1.2104120">
        <ele>500.0</ele>
        <time>2019-07-16T10:31:14Z</time>
      </trkpt>
      <trkpt lat="43.0681930" lon="-1.2102810">
        <ele>501.4</ele>
        <time>2019-07-16T10:31:22Z</time>
      </trkpt>
      <trkpt lat="43.0681570" lon="-1.2101460">
        <ele>502.6</ele>
        <time>2019-07-16T10:31:30Z</time>
      </trkpt>
      <trkpt lat="43.0680660" lon="-1.2100660">
        <ele>504.0</ele>
        <time>2019-07-16T10:31:36Z</time>
      </trkpt>
      <trkpt lat="43.0679820" lon="-1.2099920">
        <ele>504.9</ele>
        <time>2019-07-16T10:31:41Z</time>
      </trkpt>
      <trkpt lat="43.0679140" lon="-1.2098920">
        <ele>505.7</ele>
        <time>2019-07-16T10:31:48Z</time>
      </trkpt>
      <trkpt lat="43.0678220" lon="-1.2098260">
        <ele>506.8</ele>
        <time>2019-07-16T10:31:55Z</time>
      </trkpt>
      <trkpt lat="43.0677320" lon="-1.2097810">
        <ele>507.9</ele>
        <time>2019-07-16T10:32:03Z</time>
      </trkpt>
      <trkpt lat="43.0676720" lon="-1.2096870">
        <ele>508.8</ele>
        <time>2019-07-16T10:32:10Z</time>
      </trkpt>
      <trkpt lat="43.0675970" lon="-1.2096060">
        <ele>509.8</ele>
        <time>2019-07-16T10:32:17Z</time>
      </trkpt>
      <trkpt lat="43.0675180" lon="-1.2095170">
        <ele>510.8</ele>
        <time>2019-07-16T10:32:25Z</time>
      </trkpt>
      <trkpt lat="43.0674560" lon="-1.2094210">
        <ele>511.6</ele>
        <time>2019-07-16T10:32:33Z</time>
      </trkpt>
      <trkpt lat="43.0673860" lon="-1.2093360">
        <ele>512.3</ele>
        <time>2019-07-16T10:32:39Z</time>
      </trkpt>
      <trkpt lat="43.0673200" lon="-1.2092170">
        <ele>513.2</ele>
        <time>2019-07-16T10:32:50Z</time>
      </trkpt>
      <trkpt lat="43.0672580" lon="-1.2091170">
        <ele>514.0</ele>
        <time>2019-07-16T10:32:57Z</time>
      </trkpt>
      <trkpt lat="43.0671850" lon="-1.2089730">
        <ele>515.1</ele>
        <time>2019-07-16T10:33:06Z</time>
      </trkpt>
      <trkpt lat="43.0671360" lon="-1.2088670">
        <ele>516.0</ele>
        <time>2019-07-16T10:33:13Z</time>
      </trkpt>
      <trkpt lat="43.0670960" lon="-1.2087450">
        <ele>517.0</ele>
        <time>2019-07-16T10:33:22Z</time>
      </trkpt>
      <trkpt lat="43.0670230" lon="-1.2086130">
        <ele>518.2</ele>
        <time>2019-07-16T10:33:30Z</time>
      </trkpt>
      <trkpt lat="43.0669430" lon="-1.2084600">
        <ele>519.3</ele>
        <time>2019-07-16T10:33:39Z</time>
      </trkpt>
      <trkpt lat="43.0668480" lon="-1.2084350">
        <ele>520.1</ele>
        <time>2019-07-16T10:33:43Z</time>
      </trkpt>
      <trkpt lat="43.0667470" lon="-1.2083650">
        <ele>521.0</ele>
        <time>2019-07-16T10:33:49Z</time>
      </trkpt>
      <trkpt lat="43.0666810" lon="-1.2082620">
        <ele>521.9</ele>
        <time>2019-07-16T10:33:57Z</time>
      </trkpt>
      <trkpt lat="43.0666160" lon="-1.2081600">
        <ele>523.0</ele>
        <time>2019-07-16T10:34:03Z</time>
      </trkpt>
      <trkpt lat="43.0665500" lon="-1.2080660">
        <ele>524.1</ele>
        <time>2019-07-16T10:34:09Z</time>
      </trkpt>
      <trkpt lat="43.0664830" lon="-1.2079720">
        <ele>525.1</ele>
        <time>2019-07-16T10:34:17Z</time>
      </trkpt>
      <trkpt lat="43.0663830" lon="-1.2079270">
        <ele>526.4</ele>
        <time>2019-07-16T10:34:23Z</time>
      </trkpt>
      <trkpt lat="43.0662940" lon="-1.2078620">
        <ele>527.3</ele>
        <time>2019-07-16T10:34:29Z</time>
      </trkpt>
      <trkpt lat="43.0662100" lon="-1.2078030">
        <ele>528.2</ele>
        <time>2019-07-16T10:34:36Z</time>
      </trkpt>
      <trkpt lat="43.0661450" lon="-1.2077150">
        <ele>528.8</ele>
        <time>2019-07-16T10:34:43Z</time>
      </trkpt>
      <trkpt lat="43.0660810" lon="-1.2076150">
        <ele>529.5</ele>
        <time>2019-07-16T10:34:52Z</time>
      </trkpt>
      <trkpt lat="43.0660600" lon="-1.2075730">
        <ele>529.8</ele>
        <time>2019-07-16T10:34:58Z</time>
      </trkpt>
      <trkpt lat="43.0660560" lon="-1.2075680">
        <ele>529.8</ele>
        <time>2019-07-16T10:36:31Z</time>
      </trkpt>
      <trkpt lat="43.0660530" lon="-1.2075640">
        <ele>529.9</ele>
        <time>2019-07-16T10:36:36Z</time>
      </trkpt>
      <trkpt lat="43.0660490" lon="-1.2075590">
        <ele>529.9</ele>
        <time>2019-07-16T10:36:45Z</time>
      </trkpt>
      <trkpt lat="43.0660460" lon="-1.2075540">
        <ele>529.9</ele>
        <time>2019-07-16T10:36:53Z</time>
      </trkpt>
      <trkpt lat="43.0660430" lon="-1.2075490">
        <ele>530.0</ele>
        <time>2019-07-16T10:37:08Z</time>
      </trkpt>
      <trkpt lat="43.0660390" lon="-1.2075450">
        <ele>530.0</ele>
        <time>2019-07-16T10:37:22Z</time>
      </trkpt>
      <trkpt lat="43.0660360" lon="-1.2075400">
        <ele>530.0</ele>
        <time>2019-07-16T10:37:32Z</time>
      </trkpt>
      <trkpt lat="43.0660320" lon="-1.2075350">
        <ele>530.1</ele>
        <time>2019-07-16T10:37:33Z</time>
      </trkpt>
      <trkpt lat="43.0660290" lon="-1.2075300">
        <ele>530.1</ele>
        <time>2019-07-16T10:37:39Z</time>
      </trkpt>
      <trkpt lat="43.0660250" lon="-1.2075260">
        <ele>530.1</ele>
        <time>2019-07-16T10:37:49Z</time>
      </trkpt>
      <trkpt lat="43.0660220" lon="-1.2075210">
        <ele>530.2</ele>
        <time>2019-07-16T10:38:16Z</time>
      </trkpt>
      <trkpt lat="43.0660190" lon="-1.2075160">
        <ele>530.2</ele>
        <time>2019-07-16T10:39:18Z</time>
      </trkpt>
      <trkpt lat="43.0660150" lon="-1.2075110">
        <ele>530.2</ele>
        <time>2019-07-16T10:39:19Z</time>
      </trkpt>
      <trkpt lat="43.0660120" lon="-1.2075070">
        <ele>530.3</ele>
        <time>2019-07-16T10:39:32Z</time>
      </trkpt>
      <trkpt lat="43.0660080" lon="-1.2075020">
        <ele>530.3</ele>
        <time>2019-07-16T10:39:40Z</time>
      </trkpt>
      <trkpt lat="43.0660050" lon="-1.2074970">
        <ele>530.4</ele>
        <time>2019-07-16T10:39:40Z</time>
      </trkpt>
      <trkpt lat="43.0660050" lon="-1.2074970">
        <ele>530.4</ele>
        <time>2019-07-16T10:39:40Z</time>
      </trkpt>
      <trkpt lat="43.0660870" lon="-1.2074120">
        <ele>531.6</ele>
        <time>2019-07-16T10:39:57Z</time>
      </trkpt>
      <trkpt lat="43.0660510" lon="-1.2072680">
        <ele>532.8</ele>
        <time>2019-07-16T10:40:13Z</time>
      </trkpt>
      <trkpt lat="43.0659430" lon="-1.2071610">
        <ele>534.2</ele>
        <time>2019-07-16T10:40:19Z</time>
      </trkpt>
      <trkpt lat="43.0658460" lon="-1.2070770">
        <ele>535.4</ele>
        <time>2019-07-16T10:40:23Z</time>
      </trkpt>
      <trkpt lat="43.0657580" lon="-1.2069970">
        <ele>536.5</ele>
        <time>2019-07-16T10:40:30Z</time>
      </trkpt>
      <trkpt lat="43.0656800" lon="-1.2069120">
        <ele>537.5</ele>
        <time>2019-07-16T10:40:38Z</time>
      </trkpt>
      <trkpt lat="43.0656110" lon="-1.2068280">
        <ele>538.6</ele>
        <time>2019-07-16T10:40:46Z</time>
      </trkpt>
      <trkpt lat="43.0655360" lon="-1.2067440">
        <ele>539.8</ele>
        <time>2019-07-16T10:40:54Z</time>
      </trkpt>
      <trkpt lat="43.0654720" lon="-1.2066530">
        <ele>540.9</ele>
        <time>2019-07-16T10:41:01Z</time>
      </trkpt>
      <trkpt lat="43.0654050" lon="-1.2065590">
        <ele>542.2</ele>
        <time>2019-07-16T10:41:08Z</time>
      </trkpt>
      <trkpt lat="43.0653320" lon="-1.2064800">
        <ele>543.3</ele>
        <time>2019-07-16T10:41:15Z</time>
      </trkpt>
      <trkpt lat="43.0652580" lon="-1.2063960">
        <ele>544.4</ele>
        <time>2019-07-16T10:41:22Z</time>
      </trkpt>
      <trkpt lat="43.0651880" lon="-1.2063010">
        <ele>545.5</ele>
        <time>2019-07-16T10:41:30Z</time>
      </trkpt>
      <trkpt lat="43.0651440" lon="-1.2061780">
        <ele>546.6</ele>
        <time>2019-07-16T10:41:42Z</time>
      </trkpt>
      <trkpt lat="43.0650800" lon="-1.2060500">
        <ele>547.8</ele>
        <time>2019-07-16T10:41:51Z</time>
      </trkpt>
      <trkpt lat="43.0649900" lon="-1.2059920">
        <ele>548.6</ele>
        <time>2019-07-16T10:41:55Z</time>
      </trkpt>
      <trkpt lat="43.0649790" lon="-1.2058570">
        <ele>549.4</ele>
        <time>2019-07-16T10:42:03Z</time>
      </trkpt>
      <trkpt lat="43.0649330" lon="-1.2057110">
        <ele>550.5</ele>
        <time>2019-07-16T10:42:11Z</time>
      </trkpt>
      <trkpt lat="43.0648950" lon="-1.2055620">
        <ele>551.7</ele>
        <time>2019-07-16T10:42:19Z</time>
      </trkpt>
      <trkpt lat="43.0648540" lon="-1.2054320">
        <ele>552.8</ele>
        <time>2019-07-16T10:42:26Z</time>
      </trkpt>
      <trkpt lat="43.0648170" lon="-1.2052810">
        <ele>554.1</ele>
        <time>2019-07-16T10:42:33Z</time>
      </trkpt>
      <trkpt lat="43.0647690" lon="-1.2051150">
        <ele>555.1</ele>
        <time>2019-07-16T10:42:42Z</time>
      </trkpt>
      <trkpt lat="43.0647220" lon="-1.2050050">
        <ele>555.9</ele>
        <time>2019-07-16T10:42:50Z</time>
      </trkpt>
      <trkpt lat="43.0646710" lon="-1.2048930">
        <ele>556.6</ele>
        <time>2019-07-16T10:42:58Z</time>
      </trkpt>
      <trkpt lat="43.0646200" lon="-1.2047900">
        <ele>557.3</ele>
        <time>2019-07-16T10:43:05Z</time>
      </trkpt>
      <trkpt lat="43.0645450" lon="-1.2047210">
        <ele>558.1</ele>
        <time>2019-07-16T10:43:11Z</time>
      </trkpt>
      <trkpt lat="43.0644790" lon="-1.2046300">
        <ele>559.0</ele>
        <time>2019-07-16T10:43:17Z</time>
      </trkpt>
      <trkpt lat="43.0644270" lon="-1.2045300">
        <ele>559.9</ele>
        <time>2019-07-16T10:43:24Z</time>
      </trkpt>
      <trkpt lat="43.0643760" lon="-1.2044200">
        <ele>560.6</ele>
        <time>2019-07-16T10:43:31Z</time>
      </trkpt>
      <trkpt lat="43.0643210" lon="-1.2043140">
        <ele>561.3</ele>
        <time>2019-07-16T10:43:38Z</time>
      </trkpt>
      <trkpt lat="43.0642750" lon="-1.2042010">
        <ele>562.1</ele>
        <time>2019-07-16T10:43:45Z</time>
      </trkpt>
      <trkpt lat="43.0642150" lon="-1.2040960">
        <ele>563.2</ele>
        <time>2019-07-16T10:43:52Z</time>
      </trkpt>
      <trkpt lat="43.0641490" lon="-1.2039950">
        <ele>564.0</ele>
        <time>2019-07-16T10:44:01Z</time>
      </trkpt>
      <trkpt lat="43.0641490" lon="-1.2039500">
        <ele>564.3</ele>
        <time>2019-07-16T10:44:06Z</time>
      </trkpt>
      <trkpt lat="43.0640470" lon="-1.2038990">
        <ele>565.2</ele>
        <time>2019-07-16T10:44:14Z</time>
      </trkpt>
      <trkpt lat="43.0639570" lon="-1.2038390">
        <ele>566.1</ele>
        <time>2019-07-16T10:44:17Z</time>
      </trkpt>
      <trkpt lat="43.0639110" lon="-1.2037130">
        <ele>567.0</ele>
        <time>2019-07-16T10:44:25Z</time>
      </trkpt>
      <trkpt lat="43.0638580" lon="-1.2035870">
        <ele>568.4</ele>
        <time>2019-07-16T10:44:31Z</time>
      </trkpt>
      <trkpt lat="43.0638020" lon="-1.2034830">
        <ele>569.6</ele>
        <time>2019-07-16T10:44:37Z</time>
      </trkpt>
      <trkpt lat="43.0637330" lon="-1.2033990">
        <ele>570.8</ele>
        <time>2019-07-16T10:44:45Z</time>
      </trkpt>
      <trkpt lat="43.0636810" lon="-1.2032690">
        <ele>571.8</ele>
        <time>2019-07-16T10:44:55Z</time>
      </trkpt>
      <trkpt lat="43.0636570" lon="-1.2031440">
        <ele>572.6</ele>
        <time>2019-07-16T10:45:02Z</time>
      </trkpt>
      <trkpt lat="43.0636100" lon="-1.2030330">
        <ele>573.7</ele>
        <time>2019-07-16T10:45:09Z</time>
      </trkpt>
      <trkpt lat="43.0635820" lon="-1.2029100">
        <ele>574.6</ele>
        <time>2019-07-16T10:45:16Z</time>
      </trkpt>
      <trkpt lat="43.0635080" lon="-1.2028360">
        <ele>575.3</ele>
        <time>2019-07-16T10:45:22Z</time>
      </trkpt>
      <trkpt lat="43.0634510" lon="-1.2027380">
        <ele>575.8</ele>
        <time>2019-07-16T10:45:28Z</time>
      </trkpt>
      <trkpt lat="43.0634070" lon="-1.2026210">
        <ele>576.4</ele>
        <time>2019-07-16T10:45:35Z</time>
      </trkpt>
      <trkpt lat="43.0633990" lon="-1.2024820">
        <ele>576.7</ele>
        <time>2019-07-16T10:45:42Z</time>
      </trkpt>
      <trkpt lat="43.0633640" lon="-1.2023530">
        <ele>577.0</ele>
        <time>2019-07-16T10:45:49Z</time>
      </trkpt>
      <trkpt lat="43.0633400" lon="-1.2022190">
        <ele>577.2</ele>
        <time>2019-07-16T10:45:57Z</time>
      </trkpt>
      <trkpt lat="43.0633210" lon="-1.2020980">
        <ele>577.4</ele>
        <time>2019-07-16T10:46:04Z</time>
      </trkpt>
      <trkpt lat="43.0633020" lon="-1.2019750">
        <ele>577.5</ele>
        <time>2019-07-16T10:46:11Z</time>
      </trkpt>
      <trkpt lat="43.0632900" lon="-1.2018530">
        <ele>577.6</ele>
        <time>2019-07-16T10:46:16Z</time>
      </trkpt>
      <trkpt lat="43.0632400" lon="-1.2017470">
        <ele>577.8</ele>
        <time>2019-07-16T10:46:23Z</time>
      </trkpt>
      <trkpt lat="43.0631660" lon="-1.2016630">
        <ele>578.3</ele>
        <time>2019-07-16T10:46:29Z</time>
      </trkpt>
      <trkpt lat="43.0630880" lon="-1.2017400">
        <ele>579.5</ele>
        <time>2019-07-16T10:46:37Z</time>
      </trkpt>
      <trkpt lat="43.0631200" lon="-1.2018700">
        <ele>581.1</ele>
        <time>2019-07-16T10:46:43Z</time>
      </trkpt>
      <trkpt lat="43.0631470" lon="-1.2020500">
        <ele>582.8</ele>
        <time>2019-07-16T10:46:52Z</time>
      </trkpt>
      <trkpt lat="43.0631990" lon="-1.2021560">
        <ele>584.0</ele>
        <time>2019-07-16T10:46:59Z</time>
      </trkpt>
      <trkpt lat="43.0631870" lon="-1.2022950">
        <ele>585.1</ele>
        <time>2019-07-16T10:47:06Z</time>
      </trkpt>
      <trkpt lat="43.0632160" lon="-1.2024190">
        <ele>586.1</ele>
        <time>2019-07-16T10:47:14Z</time>
      </trkpt>
      <trkpt lat="43.0632100" lon="-1.2025540">
        <ele>587.2</ele>
        <time>2019-07-16T10:47:21Z</time>
      </trkpt>
      <trkpt lat="43.0632460" lon="-1.2026690">
        <ele>588.2</ele>
        <time>2019-07-16T10:47:27Z</time>
      </trkpt>
      <trkpt lat="43.0632690" lon="-1.2028130">
        <ele>589.4</ele>
        <time>2019-07-16T10:47:35Z</time>
      </trkpt>
      <trkpt lat="43.0632700" lon="-1.2029370">
        <ele>590.4</ele>
        <time>2019-07-16T10:47:42Z</time>
      </trkpt>
      <trkpt lat="43.0632910" lon="-1.2029390">
        <ele>590.7</ele>
        <time>2019-07-16T10:47:47Z</time>
      </trkpt>
      <trkpt lat="43.0632510" lon="-1.2029710">
        <ele>591.2</ele>
        <time>2019-07-16T10:48:14Z</time>
      </trkpt>
      <trkpt lat="43.0633620" lon="-1.2029250">
        <ele>592.5</ele>
        <time>2019-07-16T10:48:20Z</time>
      </trkpt>
      <trkpt lat="43.0633770" lon="-1.2029280">
        <ele>592.7</ele>
        <time>2019-07-16T10:48:24Z</time>
      </trkpt>
      <trkpt lat="43.0633640" lon="-1.2029360">
        <ele>592.9</ele>
        <time>2019-07-16T10:48:34Z</time>
      </trkpt>
      <trkpt lat="43.0633500" lon="-1.2029430">
        <ele>593.0</ele>
        <time>2019-07-16T10:48:43Z</time>
      </trkpt>
      <trkpt lat="43.0633370" lon="-1.2029510">
        <ele>593.2</ele>
        <time>2019-07-16T10:48:58Z</time>
      </trkpt>
      <trkpt lat="43.0633240" lon="-1.2029580">
        <ele>593.3</ele>
        <time>2019-07-16T10:49:06Z</time>
      </trkpt>
      <trkpt lat="43.0633110" lon="-1.2029660">
        <ele>593.5</ele>
        <time>2019-07-16T10:49:14Z</time>
      </trkpt>
      <trkpt lat="43.0632980" lon="-1.2029730">
        <ele>593.7</ele>
        <time>2019-07-16T10:49:43Z</time>
      </trkpt>
      <trkpt lat="43.0632850" lon="-1.2029810">
        <ele>593.8</ele>
        <time>2019-07-16T10:51:56Z</time>
      </trkpt>
      <trkpt lat="43.0632710" lon="-1.2029880">
        <ele>594.0</ele>
        <time>2019-07-16T10:52:04Z</time>
      </trkpt>
      <trkpt lat="43.0632580" lon="-1.2029960">
        <ele>594.2</ele>
        <time>2019-07-16T10:53:07Z</time>
      </trkpt>
      <trkpt lat="43.0632450" lon="-1.2030030">
        <ele>594.3</ele>
        <time>2019-07-16T10:53:07Z</time>
      </trkpt>
      <trkpt lat="43.0632450" lon="-1.2030030">
        <ele>594.3</ele>
        <time>2019-07-16T10:53:07Z</time>
      </trkpt>
      <trkpt lat="43.0632560" lon="-1.2031340">
        <ele>595.4</ele>
        <time>2019-07-16T10:53:25Z</time>
      </trkpt>
      <trkpt lat="43.0632500" lon="-1.2032730">
        <ele>596.6</ele>
        <time>2019-07-16T10:53:31Z</time>
      </trkpt>
      <trkpt lat="43.0631910" lon="-1.2034230">
        <ele>598.0</ele>
        <time>2019-07-16T10:53:39Z</time>
      </trkpt>
      <trkpt lat="43.0630980" lon="-1.2035460">
        <ele>599.5</ele>
        <time>2019-07-16T10:53:42Z</time>
      </trkpt>
      <trkpt lat="43.0631380" lon="-1.2036930">
        <ele>600.8</ele>
        <time>2019-07-16T10:53:51Z</time>
      </trkpt>
      <trkpt lat="43.0632380" lon="-1.2037510">
        <ele>602.2</ele>
        <time>2019-07-16T10:53:55Z</time>
      </trkpt>
      <trkpt lat="43.0633220" lon="-1.2037940">
        <ele>603.3</ele>
        <time>2019-07-16T10:53:59Z</time>
      </trkpt>
      <trkpt lat="43.0634020" lon="-1.2038730">
        <ele>604.6</ele>
        <time>2019-07-16T10:54:05Z</time>
      </trkpt>
      <trkpt lat="43.0634590" lon="-1.2039770">
        <ele>605.7</ele>
        <time>2019-07-16T10:54:12Z</time>
      </trkpt>
      <trkpt lat="43.0635360" lon="-1.2040930">
        <ele>607.1</ele>
        <time>2019-07-16T10:54:21Z</time>
      </trkpt>
      <trkpt lat="43.0635770" lon="-1.2042550">
        <ele>608.5</ele>
        <time>2019-07-16T10:54:29Z</time>
      </trkpt>
      <trkpt lat="43.0636130" lon="-1.2043680">
        <ele>609.6</ele>
        <time>2019-07-16T10:54:35Z</time>
      </trkpt>
      <trkpt lat="43.0636420" lon="-1.2045080">
        <ele>610.8</ele>
        <time>2019-07-16T10:54:43Z</time>
      </trkpt>
      <trkpt lat="43.0636770" lon="-1.2046340">
        <ele>611.9</ele>
        <time>2019-07-16T10:54:50Z</time>
      </trkpt>
      <trkpt lat="43.0637100" lon="-1.2047600">
        <ele>613.0</ele>
        <time>2019-07-16T10:54:57Z</time>
      </trkpt>
      <trkpt lat="43.0637340" lon="-1.2048950">
        <ele>614.2</ele>
        <time>2019-07-16T10:55:05Z</time>
      </trkpt>
      <trkpt lat="43.0637420" lon="-1.2050240">
        <ele>615.2</ele>
        <time>2019-07-16T10:55:13Z</time>
      </trkpt>
      <trkpt lat="43.0637950" lon="-1.2051480">
        <ele>616.3</ele>
        <time>2019-07-16T10:55:22Z</time>
      </trkpt>
      <trkpt lat="43.0638100" lon="-1.2052810">
        <ele>617.2</ele>
        <time>2019-07-16T10:55:29Z</time>
      </trkpt>
      <trkpt lat="43.0638130" lon="-1.2054180">
        <ele>618.1</ele>
        <time>2019-07-16T10:55:35Z</time>
      </trkpt>
      <trkpt lat="43.0638370" lon="-1.2055410">
        <ele>618.9</ele>
        <time>2019-07-16T10:55:41Z</time>
      </trkpt>
      <trkpt lat="43.0639010" lon="-1.2056380">
        <ele>619.6</ele>
        <time>2019-07-16T10:55:48Z</time>
      </trkpt>
      <trkpt lat="43.0639070" lon="-1.2057750">
        <ele>620.3</ele>
        <time>2019-07-16T10:55:55Z</time>
      </trkpt>
      <trkpt lat="43.0639570" lon="-1.2058910">
        <ele>621.1</ele>
        <time>2019-07-16T10:56:03Z</time>
      </trkpt>
      <trkpt lat="43.0639710" lon="-1.2060160">
        <ele>621.8</ele>
        <time>2019-07-16T10:56:10Z</time>
      </trkpt>
      <trkpt lat="43.0640270" lon="-1.2061340">
        <ele>622.6</ele>
        <time>2019-07-16T10:56:15Z</time>
      </trkpt>
      <trkpt lat="43.0640630" lon="-1.2062540">
        <ele>623.4</ele>
        <time>2019-07-16T10:56:21Z</time>
      </trkpt>
      <trkpt lat="43.0640860" lon="-1.2063770">
        <ele>624.2</ele>
        <time>2019-07-16T10:56:29Z</time>
      </trkpt>
      <trkpt lat="43.0640850" lon="-1.2065100">
        <ele>625.0</ele>
        <time>2019-07-16T10:56:37Z</time>
      </trkpt>
      <trkpt lat="43.0641220" lon="-1.2066370">
        <ele>625.9</ele>
        <time>2019-07-16T10:56:45Z</time>
      </trkpt>
      <trkpt lat="43.0641760" lon="-1.2067510">
        <ele>626.8</ele>
        <time>2019-07-16T10:56:53Z</time>
      </trkpt>
      <trkpt lat="43.0642010" lon="-1.2068700">
        <ele>627.6</ele>
        <time>2019-07-16T10:57:00Z</time>
      </trkpt>
      <trkpt lat="43.0642350" lon="-1.2070050">
        <ele>628.6</ele>
        <time>2019-07-16T10:57:07Z</time>
      </trkpt>
      <trkpt lat="43.0642740" lon="-1.2071210">
        <ele>629.5</ele>
        <time>2019-07-16T10:57:14Z</time>
      </trkpt>
      <trkpt lat="43.0642920" lon="-1.2072530">
        <ele>630.4</ele>
        <time>2019-07-16T10:57:23Z</time>
      </trkpt>
      <trkpt lat="43.0643360" lon="-1.2073800">
        <ele>631.3</ele>
        <time>2019-07-16T10:57:31Z</time>
      </trkpt>
      <trkpt lat="43.0643640" lon="-1.2075150">
        <ele>632.2</ele>
        <time>2019-07-16T10:57:38Z</time>
      </trkpt>
      <trkpt lat="43.0644010" lon="-1.2076310">
        <ele>633.0</ele>
        <time>2019-07-16T10:57:44Z</time>
      </trkpt>
      <trkpt lat="43.0644250" lon="-1.2077640">
        <ele>633.8</ele>
        <time>2019-07-16T10:57:51Z</time>
      </trkpt>
      <trkpt lat="43.0644350" lon="-1.2078950">
        <ele>634.5</ele>
        <time>2019-07-16T10:57:58Z</time>
      </trkpt>
      <trkpt lat="43.0643990" lon="-1.2080110">
        <ele>635.2</ele>
        <time>2019-07-16T10:58:04Z</time>
      </trkpt>
      <trkpt lat="43.0644100" lon="-1.2081390">
        <ele>635.9</ele>
        <time>2019-07-16T10:58:11Z</time>
      </trkpt>
      <trkpt lat="43.0643890" lon="-1.2082760">
        <ele>636.6</ele>
        <time>2019-07-16T10:58:18Z</time>
      </trkpt>
      <trkpt lat="43.0644070" lon="-1.2084020">
        <ele>637.2</ele>
        <time>2019-07-16T10:58:24Z</time>
      </trkpt>
      <trkpt lat="43.0644300" lon="-1.2085250">
        <ele>637.9</ele>
        <time>2019-07-16T10:58:30Z</time>
      </trkpt>
      <trkpt lat="43.0644650" lon="-1.2086420">
        <ele>638.7</ele>
        <time>2019-07-16T10:58:36Z</time>
      </trkpt>
      <trkpt lat="43.0644860" lon="-1.2087760">
        <ele>639.6</ele>
        <time>2019-07-16T10:58:44Z</time>
      </trkpt>
      <trkpt lat="43.0644820" lon="-1.2089040">
        <ele>640.6</ele>
        <time>2019-07-16T10:58:51Z</time>
      </trkpt>
      <trkpt lat="43.0644850" lon="-1.2090460">
        <ele>641.8</ele>
        <time>2019-07-16T10:58:59Z</time>
      </trkpt>
      <trkpt lat="43.0644730" lon="-1.2091820">
        <ele>643.3</ele>
        <time>2019-07-16T10:59:07Z</time>
      </trkpt>
      <trkpt lat="43.0645100" lon="-1.2092960">
        <ele>644.8</ele>
        <time>2019-07-16T10:59:14Z</time>
      </trkpt>
      <trkpt lat="43.0645540" lon="-1.2094050">
        <ele>646.1</ele>
        <time>2019-07-16T10:59:21Z</time>
      </trkpt>
      <trkpt lat="43.0646190" lon="-1.2094930">
        <ele>647.3</ele>
        <time>2019-07-16T10:59:28Z</time>
      </trkpt>
      <trkpt lat="43.0646860" lon="-1.2095800">
        <ele>648.4</ele>
        <time>2019-07-16T10:59:36Z</time>
      </trkpt>
      <trkpt lat="43.0647680" lon="-1.2096470">
        <ele>649.4</ele>
        <time>2019-07-16T10:59:43Z</time>
      </trkpt>
      <trkpt lat="43.0648380" lon="-1.2097500">
        <ele>650.5</ele>
        <time>2019-07-16T10:59:50Z</time>
      </trkpt>
      <trkpt lat="43.0649070" lon="-1.2098530">
        <ele>651.5</ele>
        <time>2019-07-16T10:59:57Z</time>
      </trkpt>
      <trkpt lat="43.0649780" lon="-1.2099460">
        <ele>652.5</ele>
        <time>2019-07-16T11:00:05Z</time>
      </trkpt>
      <trkpt lat="43.0650280" lon="-1.2100590">
        <ele>653.4</ele>
        <time>2019-07-16T11:00:14Z</time>
      </trkpt>
      <trkpt lat="43.0650410" lon="-1.2101830">
        <ele>654.4</ele>
        <time>2019-07-16T11:00:20Z</time>
      </trkpt>
      <trkpt lat="43.0650650" lon="-1.2103030">
        <ele>655.2</ele>
        <time>2019-07-16T11:00:26Z</time>
      </trkpt>
      <trkpt lat="43.0651240" lon="-1.2104040">
        <ele>656.1</ele>
        <time>2019-07-16T11:00:33Z</time>
      </trkpt>
      <trkpt lat="43.0651640" lon="-1.2105180">
        <ele>657.0</ele>
        <time>2019-07-16T11:00:40Z</time>
      </trkpt>
      <trkpt lat="43.0651920" lon="-1.2106480">
        <ele>657.8</ele>
        <time>2019-07-16T11:00:48Z</time>
      </trkpt>
      <trkpt lat="43.0652250" lon="-1.2107700">
        <ele>658.6</ele>
        <time>2019-07-16T11:00:55Z</time>
      </trkpt>
      <trkpt lat="43.0652410" lon="-1.2108980">
        <ele>659.4</ele>
        <time>2019-07-16T11:01:01Z</time>
      </trkpt>
      <trkpt lat="43.0652760" lon="-1.2110260">
        <ele>660.2</ele>
        <time>2019-07-16T11:01:09Z</time>
      </trkpt>
      <trkpt lat="43.0653340" lon="-1.2111260">
        <ele>661.1</ele>
        <time>2019-07-16T11:01:16Z</time>
      </trkpt>
      <trkpt lat="43.0653810" lon="-1.2112350">
        <ele>661.9</ele>
        <time>2019-07-16T11:01:27Z</time>
      </trkpt>
      <trkpt lat="43.0654620" lon="-1.2113210">
        <ele>662.9</ele>
        <time>2019-07-16T11:01:36Z</time>
      </trkpt>
      <trkpt lat="43.0655340" lon="-1.2114140">
        <ele>663.9</ele>
        <time>2019-07-16T11:01:40Z</time>
      </trkpt>
      <trkpt lat="43.0656200" lon="-1.2114690">
        <ele>664.8</ele>
        <time>2019-07-16T11:01:46Z</time>
      </trkpt>
      <trkpt lat="43.0656950" lon="-1.2115640">
        <ele>665.9</ele>
        <time>2019-07-16T11:01:54Z</time>
      </trkpt>
      <trkpt lat="43.0657490" lon="-1.2116660">
        <ele>666.7</ele>
        <time>2019-07-16T11:02:02Z</time>
      </trkpt>
      <trkpt lat="43.0657950" lon="-1.2117780">
        <ele>667.6</ele>
        <time>2019-07-16T11:02:08Z</time>
      </trkpt>
      <trkpt lat="43.0658270" lon="-1.2118990">
        <ele>668.4</ele>
        <time>2019-07-16T11:02:16Z</time>
      </trkpt>
      <trkpt lat="43.0658940" lon="-1.2119980">
        <ele>669.3</ele>
        <time>2019-07-16T11:02:23Z</time>
      </trkpt>
      <trkpt lat="43.0659270" lon="-1.2121310">
        <ele>670.2</ele>
        <time>2019-07-16T11:02:30Z</time>
      </trkpt>
      <trkpt lat="43.0659750" lon="-1.2122440">
        <ele>671.0</ele>
        <time>2019-07-16T11:02:36Z</time>
      </trkpt>
      <trkpt lat="43.0660080" lon="-1.2123720">
        <ele>671.9</ele>
        <time>2019-07-16T11:02:42Z</time>
      </trkpt>
      <trkpt lat="43.0660510" lon="-1.2124830">
        <ele>672.7</ele>
        <time>2019-07-16T11:02:48Z</time>
      </trkpt>
      <trkpt lat="43.0661100" lon="-1.2125840">
        <ele>673.5</ele>
        <time>2019-07-16T11:02:55Z</time>
      </trkpt>
      <trkpt lat="43.0661480" lon="-1.2127040">
        <ele>674.4</ele>
        <time>2019-07-16T11:03:02Z</time>
      </trkpt>
      <trkpt lat="43.0661830" lon="-1.2128250">
        <ele>675.3</ele>
        <time>2019-07-16T11:03:09Z</time>
      </trkpt>
      <trkpt lat="43.0662260" lon="-1.2129490">
        <ele>676.3</ele>
        <time>2019-07-16T11:03:16Z</time>
      </trkpt>
      <trkpt lat="43.0662310" lon="-1.2130790">
        <ele>677.2</ele>
        <time>2019-07-16T11:03:24Z</time>
      </trkpt>
      <trkpt lat="43.0662270" lon="-1.2132070">
        <ele>678.1</ele>
        <time>2019-07-16T11:03:31Z</time>
      </trkpt>
      <trkpt lat="43.0662230" lon="-1.2133450">
        <ele>679.2</ele>
        <time>2019-07-16T11:03:40Z</time>
      </trkpt>
      <trkpt lat="43.0662080" lon="-1.2134830">
        <ele>680.4</ele>
        <time>2019-07-16T11:03:47Z</time>
      </trkpt>
      <trkpt lat="43.0661710" lon="-1.2136030">
        <ele>681.4</ele>
        <time>2019-07-16T11:03:58Z</time>
      </trkpt>
      <trkpt lat="43.0661280" lon="-1.2137220">
        <ele>682.5</ele>
        <time>2019-07-16T11:04:07Z</time>
      </trkpt>
      <trkpt lat="43.0661450" lon="-1.2137720">
        <ele>682.9</ele>
        <time>2019-07-16T11:04:16Z</time>
      </trkpt>
      <trkpt lat="43.0661490" lon="-1.2138070">
        <ele>683.2</ele>
        <time>2019-07-16T11:04:24Z</time>
      </trkpt>
      <trkpt lat="43.0661240" lon="-1.2137920">
        <ele>683.4</ele>
        <time>2019-07-16T11:04:50Z</time>
      </trkpt>
      <trkpt lat="43.0661060" lon="-1.2137560">
        <ele>683.8</ele>
        <time>2019-07-16T11:05:13Z</time>
      </trkpt>
      <trkpt lat="43.0661830" lon="-1.2137330">
        <ele>684.6</ele>
        <time>2019-07-16T11:06:27Z</time>
      </trkpt>
      <trkpt lat="43.0661610" lon="-1.2137630">
        <ele>684.9</ele>
        <time>2019-07-16T11:06:40Z</time>
      </trkpt>
      <trkpt lat="43.0660850" lon="-1.2138520">
        <ele>685.8</ele>
        <time>2019-07-16T11:06:45Z</time>
      </trkpt>
      <trkpt lat="43.0660860" lon="-1.2138490">
        <ele>685.9</ele>
        <time>2019-07-16T11:06:48Z</time>
      </trkpt>
      <trkpt lat="43.0661050" lon="-1.2138100">
        <ele>686.2</ele>
        <time>2019-07-16T11:06:54Z</time>
      </trkpt>
      <trkpt lat="43.0661810" lon="-1.2137430">
        <ele>687.1</ele>
        <time>2019-07-16T11:07:10Z</time>
      </trkpt>
      <trkpt lat="43.0661600" lon="-1.2137840">
        <ele>687.5</ele>
        <time>2019-07-16T11:07:11Z</time>
      </trkpt>
      <trkpt lat="43.0661500" lon="-1.2138020">
        <ele>687.6</ele>
        <time>2019-07-16T11:07:17Z</time>
      </trkpt>
      <trkpt lat="43.0661530" lon="-1.2138040">
        <ele>687.7</ele>
        <time>2019-07-16T11:07:43Z</time>
      </trkpt>
      <trkpt lat="43.0661570" lon="-1.2138060">
        <ele>687.7</ele>
        <time>2019-07-16T11:07:58Z</time>
      </trkpt>
      <trkpt lat="43.0661610" lon="-1.2138080">
        <ele>687.8</ele>
        <time>2019-07-16T11:08:06Z</time>
      </trkpt>
      <trkpt lat="43.0661640" lon="-1.2138100">
        <ele>687.8</ele>
        <time>2019-07-16T11:08:13Z</time>
      </trkpt>
      <trkpt lat="43.0661680" lon="-1.2138120">
        <ele>687.8</ele>
        <time>2019-07-16T11:08:29Z</time>
      </trkpt>
      <trkpt lat="43.0661710" lon="-1.2138140">
        <ele>687.9</ele>
        <time>2019-07-16T11:08:30Z</time>
      </trkpt>
      <trkpt lat="43.0661750" lon="-1.2138160">
        <ele>687.9</ele>
        <time>2019-07-16T11:08:30Z</time>
      </trkpt>
      <trkpt lat="43.0662350" lon="-1.2139530">
        <ele>689.1</ele>
        <time>2019-07-16T11:08:43Z</time>
      </trkpt>
      <trkpt lat="43.0662330" lon="-1.2139340">
        <ele>689.3</ele>
        <time>2019-07-16T11:08:48Z</time>
      </trkpt>
      <trkpt lat="43.0662310" lon="-1.2139140">
        <ele>689.4</ele>
        <time>2019-07-16T11:09:13Z</time>
      </trkpt>
      <trkpt lat="43.0662280" lon="-1.2138950">
        <ele>689.6</ele>
        <time>2019-07-16T11:09:23Z</time>
      </trkpt>
      <trkpt lat="43.0662260" lon="-1.2138750">
        <ele>689.7</ele>
        <time>2019-07-16T11:11:08Z</time>
      </trkpt>
      <trkpt lat="43.0662240" lon="-1.2138560">
        <ele>689.9</ele>
        <time>2019-07-16T11:11:11Z</time>
      </trkpt>
      <trkpt lat="43.0662220" lon="-1.2138360">
        <ele>690.1</ele>
        <time>2019-07-16T11:11:18Z</time>
      </trkpt>
      <trkpt lat="43.0662200" lon="-1.2138170">
        <ele>690.2</ele>
        <time>2019-07-16T11:11:38Z</time>
      </trkpt>
      <trkpt lat="43.0662180" lon="-1.2137970">
        <ele>690.4</ele>
        <time>2019-07-16T11:11:55Z</time>
      </trkpt>
      <trkpt lat="43.0662160" lon="-1.2137770">
        <ele>690.5</ele>
        <time>2019-07-16T11:12:01Z</time>
      </trkpt>
      <trkpt lat="43.0662130" lon="-1.2137580">
        <ele>690.7</ele>
        <time>2019-07-16T11:12:09Z</time>
      </trkpt>
      <trkpt lat="43.0662110" lon="-1.2137380">
        <ele>690.9</ele>
        <time>2019-07-16T11:12:26Z</time>
      </trkpt>
      <trkpt lat="43.0662090" lon="-1.2137190">
        <ele>691.0</ele>
        <time>2019-07-16T11:12:32Z</time>
      </trkpt>
      <trkpt lat="43.0662070" lon="-1.2136990">
        <ele>691.2</ele>
        <time>2019-07-16T11:12:39Z</time>
      </trkpt>
      <trkpt lat="43.0662050" lon="-1.2136800">
        <ele>691.3</ele>
        <time>2019-07-16T11:12:40Z</time>
      </trkpt>
      <trkpt lat="43.0662030" lon="-1.2136600">
        <ele>691.5</ele>
        <time>2019-07-16T11:12:52Z</time>
      </trkpt>
      <trkpt lat="43.0662000" lon="-1.2136410">
        <ele>691.7</ele>
        <time>2019-07-16T11:13:00Z</time>
      </trkpt>
      <trkpt lat="43.0661980" lon="-1.2136210">
        <ele>691.8</ele>
        <time>2019-07-16T11:13:07Z</time>
      </trkpt>
      <trkpt lat="43.0661960" lon="-1.2136020">
        <ele>692.0</ele>
        <time>2019-07-16T11:13:25Z</time>
      </trkpt>
      <trkpt lat="43.0661940" lon="-1.2135820">
        <ele>692.2</ele>
        <time>2019-07-16T11:13:25Z</time>
      </trkpt>
      <trkpt lat="43.0661940" lon="-1.2135820">
        <ele>692.2</ele>
        <time>2019-07-16T11:13:25Z</time>
      </trkpt>
      <trkpt lat="43.0662380" lon="-1.2135640">
        <ele>692.7</ele>
        <time>2019-07-16T11:13:31Z</time>
      </trkpt>
      <trkpt lat="43.0662270" lon="-1.2136960">
        <ele>693.8</ele>
        <time>2019-07-16T11:13:43Z</time>
      </trkpt>
      <trkpt lat="43.0661550" lon="-1.2137320">
        <ele>694.7</ele>
        <time>2019-07-16T11:13:58Z</time>
      </trkpt>
      <trkpt lat="43.0660100" lon="-1.2136510">
        <ele>696.4</ele>
        <time>2019-07-16T11:15:02Z</time>
      </trkpt>
      <trkpt lat="43.0660320" lon="-1.2136360">
        <ele>696.7</ele>
        <time>2019-07-16T11:15:07Z</time>
      </trkpt>
      <trkpt lat="43.0661090" lon="-1.2135700">
        <ele>697.7</ele>
        <time>2019-07-16T11:15:37Z</time>
      </trkpt>
      <trkpt lat="43.0661000" lon="-1.2134810">
        <ele>698.4</ele>
        <time>2019-07-16T11:15:47Z</time>
      </trkpt>
      <trkpt lat="43.0661040" lon="-1.2134490">
        <ele>698.6</ele>
        <time>2019-07-16T11:15:51Z</time>
      </trkpt>
      <trkpt lat="43.0661040" lon="-1.2135070">
        <ele>699.1</ele>
        <time>2019-07-16T11:16:16Z</time>
      </trkpt>
      <trkpt lat="43.0660770" lon="-1.2135280">
        <ele>699.4</ele>
        <time>2019-07-16T11:16:22Z</time>
      </trkpt>
      <trkpt lat="43.0660820" lon="-1.2135720">
        <ele>699.8</ele>
        <time>2019-07-16T11:16:37Z</time>
      </trkpt>
      <trkpt lat="43.0660900" lon="-1.2136130">
        <ele>700.2</ele>
        <time>2019-07-16T11:16:43Z</time>
      </trkpt>
      <trkpt lat="43.0660880" lon="-1.2136740">
        <ele>700.7</ele>
        <time>2019-07-16T11:16:51Z</time>
      </trkpt>
      <trkpt lat="43.0660540" lon="-1.2136470">
        <ele>701.2</ele>
        <time>2019-07-16T11:17:01Z</time>
      </trkpt>
      <trkpt lat="43.0660180" lon="-1.2135930">
        <ele>701.8</ele>
        <time>2019-07-16T11:17:10Z</time>
      </trkpt>
      <trkpt lat="43.0661220" lon="-1.2137560">
        <ele>703.8</ele>
        <time>2019-07-16T11:18:02Z</time>
      </trkpt>
      <trkpt lat="43.0661240" lon="-1.2137540">
        <ele>703.8</ele>
        <time>2019-07-16T11:18:03Z</time>
      </trkpt>
      <trkpt lat="43.0661510" lon="-1.2137670">
        <ele>704.1</ele>
        <time>2019-07-16T11:18:08Z</time>
      </trkpt>
      <trkpt lat="43.0662070" lon="-1.2138190">
        <ele>704.9</ele>
        <time>2019-07-16T11:18:21Z</time>
      </trkpt>
      <trkpt lat="43.0661740" lon="-1.2139280">
        <ele>705.8</ele>
        <time>2019-07-16T11:18:57Z</time>
      </trkpt>
      <trkpt lat="43.0661060" lon="-1.2140190">
        <ele>706.7</ele>
        <time>2019-07-16T11:19:36Z</time>
      </trkpt>
      <trkpt lat="43.0660790" lon="-1.2141500">
        <ele>707.6</ele>
        <time>2019-07-16T11:19:42Z</time>
      </trkpt>
      <trkpt lat="43.0660360" lon="-1.2142750">
        <ele>708.4</ele>
        <time>2019-07-16T11:19:49Z</time>
      </trkpt>
      <trkpt lat="43.0660240" lon="-1.2144280">
        <ele>709.4</ele>
        <time>2019-07-16T11:19:57Z</time>
      </trkpt>
      <trkpt lat="43.0660080" lon="-1.2145590">
        <ele>710.2</ele>
        <time>2019-07-16T11:20:04Z</time>
      </trkpt>
      <trkpt lat="43.0660140" lon="-1.2147060">
        <ele>711.1</ele>
        <time>2019-07-16T11:20:12Z</time>
      </trkpt>
      <trkpt lat="43.0660150" lon="-1.2148380">
        <ele>712.0</ele>
        <time>2019-07-16T11:20:19Z</time>
      </trkpt>
      <trkpt lat="43.0660120" lon="-1.2149720">
        <ele>712.9</ele>
        <time>2019-07-16T11:20:26Z</time>
      </trkpt>
      <trkpt lat="43.0659930" lon="-1.2150970">
        <ele>713.7</ele>
        <time>2019-07-16T11:20:32Z</time>
      </trkpt>
      <trkpt lat="43.0660040" lon="-1.2152310">
        <ele>714.6</ele>
        <time>2019-07-16T11:20:39Z</time>
      </trkpt>
      <trkpt lat="43.0660310" lon="-1.2153980">
        <ele>715.8</ele>
        <time>2019-07-16T11:20:48Z</time>
      </trkpt>
      <trkpt lat="43.0660630" lon="-1.2155260">
        <ele>716.7</ele>
        <time>2019-07-16T11:20:56Z</time>
      </trkpt>
      <trkpt lat="43.0661210" lon="-1.2156560">
        <ele>717.8</ele>
        <time>2019-07-16T11:21:05Z</time>
      </trkpt>
      <trkpt lat="43.0661700" lon="-1.2157690">
        <ele>718.8</ele>
        <time>2019-07-16T11:21:13Z</time>
      </trkpt>
      <trkpt lat="43.0661850" lon="-1.2159050">
        <ele>719.7</ele>
        <time>2019-07-16T11:21:21Z</time>
      </trkpt>
      <trkpt lat="43.0661920" lon="-1.2160290">
        <ele>720.6</ele>
        <time>2019-07-16T11:21:30Z</time>
      </trkpt>
      <trkpt lat="43.0662010" lon="-1.2161630">
        <ele>721.5</ele>
        <time>2019-07-16T11:21:39Z</time>
      </trkpt>
      <trkpt lat="43.0661980" lon="-1.2162910">
        <ele>722.4</ele>
        <time>2019-07-16T11:21:47Z</time>
      </trkpt>
      <trkpt lat="43.0661960" lon="-1.2164220">
        <ele>723.3</ele>
        <time>2019-07-16T11:21:54Z</time>
      </trkpt>
      <trkpt lat="43.0662360" lon="-1.2165400">
        <ele>724.1</ele>
        <time>2019-07-16T11:22:02Z</time>
      </trkpt>
      <trkpt lat="43.0662630" lon="-1.2166620">
        <ele>724.9</ele>
        <time>2019-07-16T11:22:10Z</time>
      </trkpt>
      <trkpt lat="43.0662320" lon="-1.2167970">
        <ele>725.9</ele>
        <time>2019-07-16T11:22:14Z</time>
      </trkpt>
      <trkpt lat="43.0662200" lon="-1.2169370">
        <ele>726.8</ele>
        <time>2019-07-16T11:22:20Z</time>
      </trkpt>
      <trkpt lat="43.0662130" lon="-1.2170630">
        <ele>727.6</ele>
        <time>2019-07-16T11:22:26Z</time>
      </trkpt>
      <trkpt lat="43.0662310" lon="-1.2171890">
        <ele>728.4</ele>
        <time>2019-07-16T11:22:35Z</time>
      </trkpt>
      <trkpt lat="43.0662400" lon="-1.2173610">
        <ele>729.5</ele>
        <time>2019-07-16T11:22:45Z</time>
      </trkpt>
      <trkpt lat="43.0662450" lon="-1.2174900">
        <ele>730.3</ele>
        <time>2019-07-16T11:22:54Z</time>
      </trkpt>
      <trkpt lat="43.0662670" lon="-1.2176200">
        <ele>731.2</ele>
        <time>2019-07-16T11:23:03Z</time>
      </trkpt>
      <trkpt lat="43.0662920" lon="-1.2177610">
        <ele>732.2</ele>
        <time>2019-07-16T11:23:13Z</time>
      </trkpt>
      <trkpt lat="43.0662820" lon="-1.2178860">
        <ele>733.1</ele>
        <time>2019-07-16T11:23:20Z</time>
      </trkpt>
      <trkpt lat="43.0663340" lon="-1.2180000">
        <ele>733.9</ele>
        <time>2019-07-16T11:23:30Z</time>
      </trkpt>
      <trkpt lat="43.0663720" lon="-1.2181130">
        <ele>734.6</ele>
        <time>2019-07-16T11:23:35Z</time>
      </trkpt>
      <trkpt lat="43.0663950" lon="-1.2182510">
        <ele>735.4</ele>
        <time>2019-07-16T11:23:43Z</time>
      </trkpt>
      <trkpt lat="43.0664360" lon="-1.2183710">
        <ele>736.1</ele>
        <time>2019-07-16T11:23:49Z</time>
      </trkpt>
      <trkpt lat="43.0664680" lon="-1.2184890">
        <ele>736.7</ele>
        <time>2019-07-16T11:23:56Z</time>
      </trkpt>
      <trkpt lat="43.0665040" lon="-1.2186050">
        <ele>737.4</ele>
        <time>2019-07-16T11:24:04Z</time>
      </trkpt>
      <trkpt lat="43.0665300" lon="-1.2187440">
        <ele>738.1</ele>
        <time>2019-07-16T11:24:12Z</time>
      </trkpt>
      <trkpt lat="43.0665560" lon="-1.2188700">
        <ele>738.8</ele>
        <time>2019-07-16T11:24:21Z</time>
      </trkpt>
      <trkpt lat="43.0665730" lon="-1.2190000">
        <ele>739.5</ele>
        <time>2019-07-16T11:24:29Z</time>
      </trkpt>
      <trkpt lat="43.0665660" lon="-1.2191350">
        <ele>740.1</ele>
        <time>2019-07-16T11:24:35Z</time>
      </trkpt>
      <trkpt lat="43.0665820" lon="-1.2192640">
        <ele>740.7</ele>
        <time>2019-07-16T11:24:42Z</time>
      </trkpt>
      <trkpt lat="43.0666680" lon="-1.2193490">
        <ele>741.4</ele>
        <time>2019-07-16T11:24:50Z</time>
      </trkpt>
      <trkpt lat="43.0667190" lon="-1.2194560">
        <ele>742.0</ele>
        <time>2019-07-16T11:24:56Z</time>
      </trkpt>
      <trkpt lat="43.0667490" lon="-1.2195810">
        <ele>742.5</ele>
        <time>2019-07-16T11:25:04Z</time>
      </trkpt>
      <trkpt lat="43.0667710" lon="-1.2197150">
        <ele>743.1</ele>
        <time>2019-07-16T11:25:11Z</time>
      </trkpt>
      <trkpt lat="43.0667710" lon="-1.2198620">
        <ele>743.7</ele>
        <time>2019-07-16T11:25:19Z</time>
      </trkpt>
      <trkpt lat="43.0667720" lon="-1.2199970">
        <ele>744.3</ele>
        <time>2019-07-16T11:25:26Z</time>
      </trkpt>
      <trkpt lat="43.0667700" lon="-1.2201360">
        <ele>744.8</ele>
        <time>2019-07-16T11:25:33Z</time>
      </trkpt>
      <trkpt lat="43.0668050" lon="-1.2202600">
        <ele>745.5</ele>
        <time>2019-07-16T11:25:40Z</time>
      </trkpt>
      <trkpt lat="43.0668080" lon="-1.2203950">
        <ele>746.3</ele>
        <time>2019-07-16T11:25:47Z</time>
      </trkpt>
      <trkpt lat="43.0668770" lon="-1.2204800">
        <ele>747.4</ele>
        <time>2019-07-16T11:25:55Z</time>
      </trkpt>
      <trkpt lat="43.0668980" lon="-1.2206070">
        <ele>749.0</ele>
        <time>2019-07-16T11:26:01Z</time>
      </trkpt>
      <trkpt lat="43.0668920" lon="-1.2207370">
        <ele>750.7</ele>
        <time>2019-07-16T11:26:06Z</time>
      </trkpt>
      <trkpt lat="43.0668950" lon="-1.2208700">
        <ele>752.4</ele>
        <time>2019-07-16T11:26:13Z</time>
      </trkpt>
      <trkpt lat="43.0669280" lon="-1.2209970">
        <ele>753.9</ele>
        <time>2019-07-16T11:26:20Z</time>
      </trkpt>
      <trkpt lat="43.0669190" lon="-1.2211310">
        <ele>755.2</ele>
        <time>2019-07-16T11:26:27Z</time>
      </trkpt>
      <trkpt lat="43.0669530" lon="-1.2212520">
        <ele>756.4</ele>
        <time>2019-07-16T11:26:34Z</time>
      </trkpt>
      <trkpt lat="43.0669960" lon="-1.2213760">
        <ele>757.7</ele>
        <time>2019-07-16T11:26:42Z</time>
      </trkpt>
      <trkpt lat="43.0670110" lon="-1.2214970">
        <ele>758.8</ele>
        <time>2019-07-16T11:26:48Z</time>
      </trkpt>
      <trkpt lat="43.0670290" lon="-1.2216280">
        <ele>759.9</ele>
        <time>2019-07-16T11:26:55Z</time>
      </trkpt>
      <trkpt lat="43.0670640" lon="-1.2217480">
        <ele>761.0</ele>
        <time>2019-07-16T11:27:01Z</time>
      </trkpt>
      <trkpt lat="43.0670830" lon="-1.2218770">
        <ele>762.1</ele>
        <time>2019-07-16T11:27:07Z</time>
      </trkpt>
      <trkpt lat="43.0671040" lon="-1.2220120">
        <ele>763.1</ele>
        <time>2019-07-16T11:27:15Z</time>
      </trkpt>
      <trkpt lat="43.0671270" lon="-1.2221320">
        <ele>764.1</ele>
        <time>2019-07-16T11:27:21Z</time>
      </trkpt>
      <trkpt lat="43.0671380" lon="-1.2222560">
        <ele>764.9</ele>
        <time>2019-07-16T11:27:27Z</time>
      </trkpt>
      <trkpt lat="43.0670480" lon="-1.2222510">
        <ele>765.8</ele>
        <time>2019-07-16T11:27:38Z</time>
      </trkpt>
      <trkpt lat="43.0670360" lon="-1.2221210">
        <ele>766.8</ele>
        <time>2019-07-16T11:27:46Z</time>
      </trkpt>
      <trkpt lat="43.0670270" lon="-1.2219810">
        <ele>767.8</ele>
        <time>2019-07-16T11:27:54Z</time>
      </trkpt>
      <trkpt lat="43.0670050" lon="-1.2218590">
        <ele>768.7</ele>
        <time>2019-07-16T11:28:01Z</time>
      </trkpt>
      <trkpt lat="43.0669770" lon="-1.2217410">
        <ele>769.6</ele>
        <time>2019-07-16T11:28:07Z</time>
      </trkpt>
      <trkpt lat="43.0669410" lon="-1.2216210">
        <ele>770.5</ele>
        <time>2019-07-16T11:28:14Z</time>
      </trkpt>
      <trkpt lat="43.0669010" lon="-1.2215000">
        <ele>771.4</ele>
        <time>2019-07-16T11:28:21Z</time>
      </trkpt>
      <trkpt lat="43.0668540" lon="-1.2213910">
        <ele>772.3</ele>
        <time>2019-07-16T11:28:28Z</time>
      </trkpt>
      <trkpt lat="43.0668090" lon="-1.2212730">
        <ele>773.2</ele>
        <time>2019-07-16T11:28:35Z</time>
      </trkpt>
      <trkpt lat="43.0667690" lon="-1.2211610">
        <ele>774.2</ele>
        <time>2019-07-16T11:28:42Z</time>
      </trkpt>
      <trkpt lat="43.0667180" lon="-1.2210470">
        <ele>775.1</ele>
        <time>2019-07-16T11:28:50Z</time>
      </trkpt>
      <trkpt lat="43.0666720" lon="-1.2209290">
        <ele>776.1</ele>
        <time>2019-07-16T11:28:59Z</time>
      </trkpt>
      <trkpt lat="43.0666240" lon="-1.2208040">
        <ele>777.2</ele>
        <time>2019-07-16T11:29:06Z</time>
      </trkpt>
      <trkpt lat="43.0665850" lon="-1.2206750">
        <ele>778.2</ele>
        <time>2019-07-16T11:29:14Z</time>
      </trkpt>
      <trkpt lat="43.0665390" lon="-1.2205560">
        <ele>779.1</ele>
        <time>2019-07-16T11:29:22Z</time>
      </trkpt>
      <trkpt lat="43.0664740" lon="-1.2204710">
        <ele>780.0</ele>
        <time>2019-07-16T11:29:28Z</time>
      </trkpt>
      <trkpt lat="43.0664230" lon="-1.2203610">
        <ele>780.9</ele>
        <time>2019-07-16T11:29:35Z</time>
      </trkpt>
      <trkpt lat="43.0663440" lon="-1.2202800">
        <ele>781.8</ele>
        <time>2019-07-16T11:29:41Z</time>
      </trkpt>
      <trkpt lat="43.0662830" lon="-1.2201810">
        <ele>782.6</ele>
        <time>2019-07-16T11:29:48Z</time>
      </trkpt>
      <trkpt lat="43.0662190" lon="-1.2200780">
        <ele>783.5</ele>
        <time>2019-07-16T11:29:56Z</time>
      </trkpt>
      <trkpt lat="43.0661700" lon="-1.2199730">
        <ele>784.2</ele>
        <time>2019-07-16T11:30:05Z</time>
      </trkpt>
      <trkpt lat="43.0660800" lon="-1.2199060">
        <ele>785.1</ele>
        <time>2019-07-16T11:30:14Z</time>
      </trkpt>
      <trkpt lat="43.0660520" lon="-1.2197730">
        <ele>785.8</ele>
        <time>2019-07-16T11:30:22Z</time>
      </trkpt>
      <trkpt lat="43.0660050" lon="-1.2196530">
        <ele>786.6</ele>
        <time>2019-07-16T11:30:29Z</time>
      </trkpt>
      <trkpt lat="43.0659150" lon="-1.2195930">
        <ele>787.4</ele>
        <time>2019-07-16T11:30:34Z</time>
      </trkpt>
      <trkpt lat="43.0658300" lon="-1.2195120">
        <ele>788.3</ele>
        <time>2019-07-16T11:30:41Z</time>
      </trkpt>
      <trkpt lat="43.0657890" lon="-1.2193910">
        <ele>789.2</ele>
        <time>2019-07-16T11:30:49Z</time>
      </trkpt>
      <trkpt lat="43.0657480" lon="-1.2192730">
        <ele>790.1</ele>
        <time>2019-07-16T11:30:56Z</time>
      </trkpt>
      <trkpt lat="43.0657320" lon="-1.2191430">
        <ele>790.9</ele>
        <time>2019-07-16T11:31:03Z</time>
      </trkpt>
      <trkpt lat="43.0656970" lon="-1.2190290">
        <ele>791.7</ele>
        <time>2019-07-16T11:31:09Z</time>
      </trkpt>
      <trkpt lat="43.0656250" lon="-1.2189340">
        <ele>792.6</ele>
        <time>2019-07-16T11:31:16Z</time>
      </trkpt>
      <trkpt lat="43.0656160" lon="-1.2187950">
        <ele>793.6</ele>
        <time>2019-07-16T11:31:23Z</time>
      </trkpt>
      <trkpt lat="43.0655740" lon="-1.2186800">
        <ele>794.5</ele>
        <time>2019-07-16T11:31:30Z</time>
      </trkpt>
      <trkpt lat="43.0655380" lon="-1.2185590">
        <ele>795.4</ele>
        <time>2019-07-16T11:31:37Z</time>
      </trkpt>
      <trkpt lat="43.0654980" lon="-1.2184460">
        <ele>796.3</ele>
        <time>2019-07-16T11:31:44Z</time>
      </trkpt>
      <trkpt lat="43.0654490" lon="-1.2183290">
        <ele>797.3</ele>
        <time>2019-07-16T11:31:51Z</time>
      </trkpt>
      <trkpt lat="43.0653920" lon="-1.2182270">
        <ele>798.2</ele>
        <time>2019-07-16T11:31:58Z</time>
      </trkpt>
      <trkpt lat="43.0653120" lon="-1.2181560">
        <ele>799.2</ele>
        <time>2019-07-16T11:32:04Z</time>
      </trkpt>
      <trkpt lat="43.0652640" lon="-1.2180360">
        <ele>800.1</ele>
        <time>2019-07-16T11:32:12Z</time>
      </trkpt>
      <trkpt lat="43.0652480" lon="-1.2179000">
        <ele>801.0</ele>
        <time>2019-07-16T11:32:20Z</time>
      </trkpt>
      <trkpt lat="43.0651810" lon="-1.2178020">
        <ele>802.0</ele>
        <time>2019-07-16T11:32:29Z</time>
      </trkpt>
      <trkpt lat="43.0651110" lon="-1.2177050">
        <ele>802.9</ele>
        <time>2019-07-16T11:32:36Z</time>
      </trkpt>
      <trkpt lat="43.0650590" lon="-1.2175970">
        <ele>803.7</ele>
        <time>2019-07-16T11:32:45Z</time>
      </trkpt>
      <trkpt lat="43.0650320" lon="-1.2174740">
        <ele>804.5</ele>
        <time>2019-07-16T11:32:53Z</time>
      </trkpt>
      <trkpt lat="43.0649770" lon="-1.2173670">
        <ele>805.4</ele>
        <time>2019-07-16T11:33:01Z</time>
      </trkpt>
      <trkpt lat="43.0649220" lon="-1.2172540">
        <ele>806.2</ele>
        <time>2019-07-16T11:33:08Z</time>
      </trkpt>
      <trkpt lat="43.0648430" lon="-1.2171740">
        <ele>807.0</ele>
        <time>2019-07-16T11:33:15Z</time>
      </trkpt>
      <trkpt lat="43.0647510" lon="-1.2170930">
        <ele>807.8</ele>
        <time>2019-07-16T11:33:22Z</time>
      </trkpt>
      <trkpt lat="43.0647120" lon="-1.2169690">
        <ele>808.5</ele>
        <time>2019-07-16T11:33:29Z</time>
      </trkpt>
      <trkpt lat="43.0646610" lon="-1.2168510">
        <ele>809.2</ele>
        <time>2019-07-16T11:33:36Z</time>
      </trkpt>
      <trkpt lat="43.0646020" lon="-1.2167360">
        <ele>809.9</ele>
        <time>2019-07-16T11:33:44Z</time>
      </trkpt>
      <trkpt lat="43.0645460" lon="-1.2166400">
        <ele>810.4</ele>
        <time>2019-07-16T11:33:51Z</time>
      </trkpt>
      <trkpt lat="43.0644760" lon="-1.2165400">
        <ele>811.0</ele>
        <time>2019-07-16T11:33:58Z</time>
      </trkpt>
      <trkpt lat="43.0644170" lon="-1.2164350">
        <ele>811.5</ele>
        <time>2019-07-16T11:34:07Z</time>
      </trkpt>
      <trkpt lat="43.0643540" lon="-1.2163260">
        <ele>812.1</ele>
        <time>2019-07-16T11:34:15Z</time>
      </trkpt>
      <trkpt lat="43.0643010" lon="-1.2162240">
        <ele>812.6</ele>
        <time>2019-07-16T11:34:22Z</time>
      </trkpt>
      <trkpt lat="43.0642530" lon="-1.2161090">
        <ele>813.1</ele>
        <time>2019-07-16T11:34:30Z</time>
      </trkpt>
      <trkpt lat="43.0641980" lon="-1.2160010">
        <ele>813.7</ele>
        <time>2019-07-16T11:34:37Z</time>
      </trkpt>
      <trkpt lat="43.0641360" lon="-1.2158870">
        <ele>814.3</ele>
        <time>2019-07-16T11:34:45Z</time>
      </trkpt>
      <trkpt lat="43.0640760" lon="-1.2157910">
        <ele>815.0</ele>
        <time>2019-07-16T11:34:51Z</time>
      </trkpt>
      <trkpt lat="43.0640100" lon="-1.2156840">
        <ele>815.7</ele>
        <time>2019-07-16T11:34:58Z</time>
      </trkpt>
      <trkpt lat="43.0639460" lon="-1.2155750">
        <ele>816.5</ele>
        <time>2019-07-16T11:35:05Z</time>
      </trkpt>
      <trkpt lat="43.0639020" lon="-1.2154510">
        <ele>817.2</ele>
        <time>2019-07-16T11:35:12Z</time>
      </trkpt>
      <trkpt lat="43.0638450" lon="-1.2153540">
        <ele>817.9</ele>
        <time>2019-07-16T11:35:19Z</time>
      </trkpt>
      <trkpt lat="43.0637870" lon="-1.2152480">
        <ele>818.7</ele>
        <time>2019-07-16T11:35:26Z</time>
      </trkpt>
      <trkpt lat="43.0637300" lon="-1.2151410">
        <ele>819.5</ele>
        <time>2019-07-16T11:35:33Z</time>
      </trkpt>
      <trkpt lat="43.0636730" lon="-1.2150440">
        <ele>820.3</ele>
        <time>2019-07-16T11:35:42Z</time>
      </trkpt>
      <trkpt lat="43.0636690" lon="-1.2150360">
        <ele>820.3</ele>
        <time>2019-07-16T11:35:46Z</time>
      </trkpt>
      <trkpt lat="43.0636870" lon="-1.2149640">
        <ele>820.8</ele>
        <time>2019-07-16T11:37:12Z</time>
      </trkpt>
      <trkpt lat="43.0636000" lon="-1.2149010">
        <ele>821.8</ele>
        <time>2019-07-16T11:37:22Z</time>
      </trkpt>
      <trkpt lat="43.0635160" lon="-1.2148530">
        <ele>822.8</ele>
        <time>2019-07-16T11:37:27Z</time>
      </trkpt>
      <trkpt lat="43.0634010" lon="-1.2148390">
        <ele>824.2</ele>
        <time>2019-07-16T11:37:34Z</time>
      </trkpt>
      <trkpt lat="43.0633090" lon="-1.2148450">
        <ele>825.2</ele>
        <time>2019-07-16T11:37:40Z</time>
      </trkpt>
      <trkpt lat="43.0632150" lon="-1.2148640">
        <ele>826.1</ele>
        <time>2019-07-16T11:37:46Z</time>
      </trkpt>
      <trkpt lat="43.0631200" lon="-1.2148880">
        <ele>827.0</ele>
        <time>2019-07-16T11:37:53Z</time>
      </trkpt>
      <trkpt lat="43.0630250" lon="-1.2149250">
        <ele>827.8</ele>
        <time>2019-07-16T11:38:00Z</time>
      </trkpt>
      <trkpt lat="43.0629340" lon="-1.2149890">
        <ele>828.5</ele>
        <time>2019-07-16T11:38:07Z</time>
      </trkpt>
      <trkpt lat="43.0628420" lon="-1.2150320">
        <ele>829.2</ele>
        <time>2019-07-16T11:38:15Z</time>
      </trkpt>
      <trkpt lat="43.0627430" lon="-1.2150660">
        <ele>829.9</ele>
        <time>2019-07-16T11:38:23Z</time>
      </trkpt>
      <trkpt lat="43.0626590" lon="-1.2151230">
        <ele>830.6</ele>
        <time>2019-07-16T11:38:29Z</time>
      </trkpt>
      <trkpt lat="43.0625730" lon="-1.2151730">
        <ele>831.4</ele>
        <time>2019-07-16T11:38:36Z</time>
      </trkpt>
      <trkpt lat="43.0624810" lon="-1.2151900">
        <ele>832.4</ele>
        <time>2019-07-16T11:38:45Z</time>
      </trkpt>
      <trkpt lat="43.0623870" lon="-1.2152250">
        <ele>833.6</ele>
        <time>2019-07-16T11:38:52Z</time>
      </trkpt>
      <trkpt lat="43.0622970" lon="-1.2152520">
        <ele>834.9</ele>
        <time>2019-07-16T11:38:59Z</time>
      </trkpt>
      <trkpt lat="43.0622080" lon="-1.2152970">
        <ele>836.3</ele>
        <time>2019-07-16T11:39:08Z</time>
      </trkpt>
      <trkpt lat="43.0621210" lon="-1.2153550">
        <ele>837.9</ele>
        <time>2019-07-16T11:39:17Z</time>
      </trkpt>
      <trkpt lat="43.0620880" lon="-1.2153880">
        <ele>838.4</ele>
        <time>2019-07-16T11:39:23Z</time>
      </trkpt>
      <trkpt lat="43.0619940" lon="-1.2154720">
        <ele>839.6</ele>
        <time>2019-07-16T11:39:31Z</time>
      </trkpt>
      <trkpt lat="43.0619060" lon="-1.2155510">
        <ele>840.6</ele>
        <time>2019-07-16T11:39:36Z</time>
      </trkpt>
      <trkpt lat="43.0618200" lon="-1.2155900">
        <ele>841.4</ele>
        <time>2019-07-16T11:39:45Z</time>
      </trkpt>
      <trkpt lat="43.0617310" lon="-1.2156110">
        <ele>842.2</ele>
        <time>2019-07-16T11:39:52Z</time>
      </trkpt>
      <trkpt lat="43.0616470" lon="-1.2155620">
        <ele>843.0</ele>
        <time>2019-07-16T11:40:00Z</time>
      </trkpt>
      <trkpt lat="43.0616110" lon="-1.2154110">
        <ele>844.1</ele>
        <time>2019-07-16T11:40:08Z</time>
      </trkpt>
      <trkpt lat="43.0615680" lon="-1.2152910">
        <ele>845.1</ele>
        <time>2019-07-16T11:40:15Z</time>
      </trkpt>
      <trkpt lat="43.0615250" lon="-1.2151780">
        <ele>846.1</ele>
        <time>2019-07-16T11:40:22Z</time>
      </trkpt>
      <trkpt lat="43.0614370" lon="-1.2151020">
        <ele>847.3</ele>
        <time>2019-07-16T11:40:30Z</time>
      </trkpt>
      <trkpt lat="43.0613790" lon="-1.2149980">
        <ele>848.5</ele>
        <time>2019-07-16T11:40:37Z</time>
      </trkpt>
      <trkpt lat="43.0613110" lon="-1.2149170">
        <ele>849.6</ele>
        <time>2019-07-16T11:40:44Z</time>
      </trkpt>
      <trkpt lat="43.0612320" lon="-1.2148400">
        <ele>850.7</ele>
        <time>2019-07-16T11:40:51Z</time>
      </trkpt>
      <trkpt lat="43.0611570" lon="-1.2147660">
        <ele>851.7</ele>
        <time>2019-07-16T11:40:58Z</time>
      </trkpt>
      <trkpt lat="43.0610810" lon="-1.2146880">
        <ele>852.6</ele>
        <time>2019-07-16T11:41:05Z</time>
      </trkpt>
      <trkpt lat="43.0610050" lon="-1.2146020">
        <ele>853.4</ele>
        <time>2019-07-16T11:41:13Z</time>
      </trkpt>
      <trkpt lat="43.0609560" lon="-1.2144840">
        <ele>854.1</ele>
        <time>2019-07-16T11:41:21Z</time>
      </trkpt>
      <trkpt lat="43.0609190" lon="-1.2143660">
        <ele>854.6</ele>
        <time>2019-07-16T11:41:29Z</time>
      </trkpt>
      <trkpt lat="43.0609340" lon="-1.2142000">
        <ele>855.3</ele>
        <time>2019-07-16T11:41:37Z</time>
      </trkpt>
      <trkpt lat="43.0609560" lon="-1.2140630">
        <ele>855.8</ele>
        <time>2019-07-16T11:41:43Z</time>
      </trkpt>
      <trkpt lat="43.0609830" lon="-1.2139230">
        <ele>856.4</ele>
        <time>2019-07-16T11:41:50Z</time>
      </trkpt>
      <trkpt lat="43.0610110" lon="-1.2137930">
        <ele>857.0</ele>
        <time>2019-07-16T11:41:57Z</time>
      </trkpt>
      <trkpt lat="43.0610370" lon="-1.2136690">
        <ele>857.6</ele>
        <time>2019-07-16T11:42:04Z</time>
      </trkpt>
      <trkpt lat="43.0610710" lon="-1.2135340">
        <ele>858.3</ele>
        <time>2019-07-16T11:42:11Z</time>
      </trkpt>
      <trkpt lat="43.0611010" lon="-1.2134060">
        <ele>859.2</ele>
        <time>2019-07-16T11:42:19Z</time>
      </trkpt>
      <trkpt lat="43.0611080" lon="-1.2132820">
        <ele>860.1</ele>
        <time>2019-07-16T11:42:26Z</time>
      </trkpt>
      <trkpt lat="43.0611000" lon="-1.2131550">
        <ele>861.0</ele>
        <time>2019-07-16T11:42:33Z</time>
      </trkpt>
      <trkpt lat="43.0610890" lon="-1.2130290">
        <ele>861.9</ele>
        <time>2019-07-16T11:42:40Z</time>
      </trkpt>
      <trkpt lat="43.0610970" lon="-1.2129010">
        <ele>862.9</ele>
        <time>2019-07-16T11:42:48Z</time>
      </trkpt>
      <trkpt lat="43.0611370" lon="-1.2127860">
        <ele>864.0</ele>
        <time>2019-07-16T11:42:55Z</time>
      </trkpt>
      <trkpt lat="43.0611900" lon="-1.2126800">
        <ele>864.9</ele>
        <time>2019-07-16T11:43:02Z</time>
      </trkpt>
      <trkpt lat="43.0612290" lon="-1.2125650">
        <ele>865.8</ele>
        <time>2019-07-16T11:43:09Z</time>
      </trkpt>
      <trkpt lat="43.0612280" lon="-1.2124330">
        <ele>866.7</ele>
        <time>2019-07-16T11:43:16Z</time>
      </trkpt>
      <trkpt lat="43.0612070" lon="-1.2122970">
        <ele>867.6</ele>
        <time>2019-07-16T11:43:24Z</time>
      </trkpt>
      <trkpt lat="43.0611820" lon="-1.2121590">
        <ele>868.5</ele>
        <time>2019-07-16T11:43:31Z</time>
      </trkpt>
      <trkpt lat="43.0611290" lon="-1.2120530">
        <ele>869.3</ele>
        <time>2019-07-16T11:43:38Z</time>
      </trkpt>
      <trkpt lat="43.0610690" lon="-1.2119520">
        <ele>870.2</ele>
        <time>2019-07-16T11:43:45Z</time>
      </trkpt>
      <trkpt lat="43.0610070" lon="-1.2118600">
        <ele>871.0</ele>
        <time>2019-07-16T11:43:52Z</time>
      </trkpt>
      <trkpt lat="43.0609360" lon="-1.2117690">
        <ele>871.8</ele>
        <time>2019-07-16T11:43:59Z</time>
      </trkpt>
      <trkpt lat="43.0608660" lon="-1.2116730">
        <ele>872.7</ele>
        <time>2019-07-16T11:44:06Z</time>
      </trkpt>
      <trkpt lat="43.0607790" lon="-1.2116150">
        <ele>873.6</ele>
        <time>2019-07-16T11:44:13Z</time>
      </trkpt>
      <trkpt lat="43.0606900" lon="-1.2115700">
        <ele>874.6</ele>
        <time>2019-07-16T11:44:20Z</time>
      </trkpt>
      <trkpt lat="43.0605980" lon="-1.2115440">
        <ele>875.5</ele>
        <time>2019-07-16T11:44:26Z</time>
      </trkpt>
      <trkpt lat="43.0605020" lon="-1.2115260">
        <ele>876.5</ele>
        <time>2019-07-16T11:44:33Z</time>
      </trkpt>
      <trkpt lat="43.0604010" lon="-1.2115050">
        <ele>877.5</ele>
        <time>2019-07-16T11:44:40Z</time>
      </trkpt>
      <trkpt lat="43.0603070" lon="-1.2114880">
        <ele>878.5</ele>
        <time>2019-07-16T11:44:47Z</time>
      </trkpt>
      <trkpt lat="43.0602250" lon="-1.2114180">
        <ele>879.5</ele>
        <time>2019-07-16T11:44:54Z</time>
      </trkpt>
      <trkpt lat="43.0601630" lon="-1.2113250">
        <ele>880.4</ele>
        <time>2019-07-16T11:45:01Z</time>
      </trkpt>
      <trkpt lat="43.0601220" lon="-1.2112120">
        <ele>881.2</ele>
        <time>2019-07-16T11:45:08Z</time>
      </trkpt>
      <trkpt lat="43.0600920" lon="-1.2110800">
        <ele>882.0</ele>
        <time>2019-07-16T11:45:16Z</time>
      </trkpt>
      <trkpt lat="43.0600630" lon="-1.2109470">
        <ele>882.7</ele>
        <time>2019-07-16T11:45:23Z</time>
      </trkpt>
      <trkpt lat="43.0600460" lon="-1.2108180">
        <ele>883.2</ele>
        <time>2019-07-16T11:45:31Z</time>
      </trkpt>
      <trkpt lat="43.0600370" lon="-1.2106800">
        <ele>883.8</ele>
        <time>2019-07-16T11:45:38Z</time>
      </trkpt>
      <trkpt lat="43.0600340" lon="-1.2105530">
        <ele>884.3</ele>
        <time>2019-07-16T11:45:48Z</time>
      </trkpt>
      <trkpt lat="43.0600090" lon="-1.2104300">
        <ele>884.8</ele>
        <time>2019-07-16T11:45:55Z</time>
      </trkpt>
      <trkpt lat="43.0599790" lon="-1.2102900">
        <ele>885.5</ele>
        <time>2019-07-16T11:46:02Z</time>
      </trkpt>
      <trkpt lat="43.0599320" lon="-1.2101650">
        <ele>886.1</ele>
        <time>2019-07-16T11:46:10Z</time>
      </trkpt>
      <trkpt lat="43.0599040" lon="-1.2100400">
        <ele>886.7</ele>
        <time>2019-07-16T11:46:17Z</time>
      </trkpt>
      <trkpt lat="43.0598820" lon="-1.2099180">
        <ele>887.3</ele>
        <time>2019-07-16T11:46:24Z</time>
      </trkpt>
      <trkpt lat="43.0598710" lon="-1.2097840">
        <ele>888.0</ele>
        <time>2019-07-16T11:46:31Z</time>
      </trkpt>
      <trkpt lat="43.0598450" lon="-1.2096440">
        <ele>888.6</ele>
        <time>2019-07-16T11:46:38Z</time>
      </trkpt>
      <trkpt lat="43.0598440" lon="-1.2095150">
        <ele>889.2</ele>
        <time>2019-07-16T11:46:45Z</time>
      </trkpt>
      <trkpt lat="43.0598300" lon="-1.2093810">
        <ele>889.9</ele>
        <time>2019-07-16T11:46:52Z</time>
      </trkpt>
      <trkpt lat="43.0598030" lon="-1.2092510">
        <ele>890.6</ele>
        <time>2019-07-16T11:46:59Z</time>
      </trkpt>
      <trkpt lat="43.0597450" lon="-1.2091540">
        <ele>891.3</ele>
        <time>2019-07-16T11:47:05Z</time>
      </trkpt>
      <trkpt lat="43.0596770" lon="-1.2090540">
        <ele>892.2</ele>
        <time>2019-07-16T11:47:11Z</time>
      </trkpt>
      <trkpt lat="43.0596020" lon="-1.2089850">
        <ele>893.1</ele>
        <time>2019-07-16T11:47:16Z</time>
      </trkpt>
      <trkpt lat="43.0594870" lon="-1.2089880">
        <ele>894.3</ele>
        <time>2019-07-16T11:47:23Z</time>
      </trkpt>
      <trkpt lat="43.0594710" lon="-1.2090100">
        <ele>894.6</ele>
        <time>2019-07-16T11:47:30Z</time>
      </trkpt>
      <trkpt lat="43.0594540" lon="-1.2090310">
        <ele>894.8</ele>
        <time>2019-07-16T11:47:46Z</time>
      </trkpt>
      <trkpt lat="43.0594380" lon="-1.2090520">
        <ele>895.1</ele>
        <time>2019-07-16T11:47:46Z</time>
      </trkpt>
      <trkpt lat="43.0594380" lon="-1.2090520">
        <ele>895.1</ele>
        <time>2019-07-16T11:47:46Z</time>
      </trkpt>
      <trkpt lat="43.0593530" lon="-1.2091230">
        <ele>896.1</ele>
        <time>2019-07-16T11:56:49Z</time>
      </trkpt>
      <trkpt lat="43.0592810" lon="-1.2092130">
        <ele>897.0</ele>
        <time>2019-07-16T11:56:55Z</time>
      </trkpt>
      <trkpt lat="43.0592040" lon="-1.2092860">
        <ele>897.8</ele>
        <time>2019-07-16T11:57:02Z</time>
      </trkpt>
      <trkpt lat="43.0591170" lon="-1.2093540">
        <ele>898.7</ele>
        <time>2019-07-16T11:57:10Z</time>
      </trkpt>
      <trkpt lat="43.0590360" lon="-1.2094110">
        <ele>899.5</ele>
        <time>2019-07-16T11:57:17Z</time>
      </trkpt>
      <trkpt lat="43.0589420" lon="-1.2094660">
        <ele>900.2</ele>
        <time>2019-07-16T11:57:25Z</time>
      </trkpt>
      <trkpt lat="43.0588570" lon="-1.2095400">
        <ele>901.0</ele>
        <time>2019-07-16T11:57:31Z</time>
      </trkpt>
      <trkpt lat="43.0587820" lon="-1.2096400">
        <ele>901.8</ele>
        <time>2019-07-16T11:57:37Z</time>
      </trkpt>
      <trkpt lat="43.0587110" lon="-1.2097350">
        <ele>902.5</ele>
        <time>2019-07-16T11:57:43Z</time>
      </trkpt>
      <trkpt lat="43.0586380" lon="-1.2098130">
        <ele>903.2</ele>
        <time>2019-07-16T11:57:49Z</time>
      </trkpt>
      <trkpt lat="43.0585740" lon="-1.2099110">
        <ele>903.9</ele>
        <time>2019-07-16T11:57:55Z</time>
      </trkpt>
      <trkpt lat="43.0585350" lon="-1.2100270">
        <ele>904.7</ele>
        <time>2019-07-16T11:58:01Z</time>
      </trkpt>
      <trkpt lat="43.0585290" lon="-1.2101650">
        <ele>905.6</ele>
        <time>2019-07-16T11:58:08Z</time>
      </trkpt>
      <trkpt lat="43.0585660" lon="-1.2102790">
        <ele>906.5</ele>
        <time>2019-07-16T11:58:16Z</time>
      </trkpt>
      <trkpt lat="43.0585660" lon="-1.2104130">
        <ele>907.5</ele>
        <time>2019-07-16T11:58:24Z</time>
      </trkpt>
      <trkpt lat="43.0585840" lon="-1.2105360">
        <ele>908.4</ele>
        <time>2019-07-16T11:58:31Z</time>
      </trkpt>
      <trkpt lat="43.0585750" lon="-1.2106740">
        <ele>909.5</ele>
        <time>2019-07-16T11:58:38Z</time>
      </trkpt>
      <trkpt lat="43.0585530" lon="-1.2108040">
        <ele>910.7</ele>
        <time>2019-07-16T11:58:45Z</time>
      </trkpt>
      <trkpt lat="43.0585320" lon="-1.2109240">
        <ele>911.8</ele>
        <time>2019-07-16T11:58:52Z</time>
      </trkpt>
      <trkpt lat="43.0585330" lon="-1.2110540">
        <ele>912.9</ele>
        <time>2019-07-16T11:58:59Z</time>
      </trkpt>
      <trkpt lat="43.0585500" lon="-1.2111810">
        <ele>914.1</ele>
        <time>2019-07-16T11:59:06Z</time>
      </trkpt>
      <trkpt lat="43.0585560" lon="-1.2113140">
        <ele>915.2</ele>
        <time>2019-07-16T11:59:13Z</time>
      </trkpt>
      <trkpt lat="43.0585680" lon="-1.2114420">
        <ele>916.1</ele>
        <time>2019-07-16T11:59:20Z</time>
      </trkpt>
      <trkpt lat="43.0586010" lon="-1.2115560">
        <ele>917.2</ele>
        <time>2019-07-16T11:59:27Z</time>
      </trkpt>
      <trkpt lat="43.0586260" lon="-1.2116860">
        <ele>918.1</ele>
        <time>2019-07-16T11:59:34Z</time>
      </trkpt>
      <trkpt lat="43.0586740" lon="-1.2118020">
        <ele>918.8</ele>
        <time>2019-07-16T11:59:41Z</time>
      </trkpt>
      <trkpt lat="43.0587340" lon="-1.2119140">
        <ele>919.6</ele>
        <time>2019-07-16T11:59:48Z</time>
      </trkpt>
      <trkpt lat="43.0587850" lon="-1.2120230">
        <ele>920.4</ele>
        <time>2019-07-16T11:59:55Z</time>
      </trkpt>
      <trkpt lat="43.0588160" lon="-1.2121400">
        <ele>921.2</ele>
        <time>2019-07-16T12:00:02Z</time>
      </trkpt>
      <trkpt lat="43.0588200" lon="-1.2122760">
        <ele>922.2</ele>
        <time>2019-07-16T12:00:09Z</time>
      </trkpt>
      <trkpt lat="43.0588220" lon="-1.2124110">
        <ele>923.3</ele>
        <time>2019-07-16T12:00:16Z</time>
      </trkpt>
      <trkpt lat="43.0587780" lon="-1.2125260">
        <ele>924.2</ele>
        <time>2019-07-16T12:00:22Z</time>
      </trkpt>
      <trkpt lat="43.0586930" lon="-1.2126070">
        <ele>925.2</ele>
        <time>2019-07-16T12:00:31Z</time>
      </trkpt>
      <trkpt lat="43.0586310" lon="-1.2127010">
        <ele>926.0</ele>
        <time>2019-07-16T12:00:37Z</time>
      </trkpt>
      <trkpt lat="43.0585770" lon="-1.2128010">
        <ele>926.5</ele>
        <time>2019-07-16T12:00:43Z</time>
      </trkpt>
      <trkpt lat="43.0585150" lon="-1.2129100">
        <ele>927.3</ele>
        <time>2019-07-16T12:00:50Z</time>
      </trkpt>
      <trkpt lat="43.0584420" lon="-1.2130170">
        <ele>928.2</ele>
        <time>2019-07-16T12:00:58Z</time>
      </trkpt>
      <trkpt lat="43.0583790" lon="-1.2131210">
        <ele>929.0</ele>
        <time>2019-07-16T12:01:05Z</time>
      </trkpt>
      <trkpt lat="43.0583000" lon="-1.2132110">
        <ele>929.8</ele>
        <time>2019-07-16T12:01:13Z</time>
      </trkpt>
      <trkpt lat="43.0582310" lon="-1.2133000">
        <ele>930.6</ele>
        <time>2019-07-16T12:01:20Z</time>
      </trkpt>
      <trkpt lat="43.0581530" lon="-1.2133690">
        <ele>931.2</ele>
        <time>2019-07-16T12:01:27Z</time>
      </trkpt>
      <trkpt lat="43.0580990" lon="-1.2134790">
        <ele>931.9</ele>
        <time>2019-07-16T12:01:34Z</time>
      </trkpt>
      <trkpt lat="43.0580570" lon="-1.2135910">
        <ele>932.6</ele>
        <time>2019-07-16T12:01:40Z</time>
      </trkpt>
      <trkpt lat="43.0580500" lon="-1.2137240">
        <ele>933.5</ele>
        <time>2019-07-16T12:01:47Z</time>
      </trkpt>
      <trkpt lat="43.0580790" lon="-1.2138470">
        <ele>934.4</ele>
        <time>2019-07-16T12:01:54Z</time>
      </trkpt>
      <trkpt lat="43.0580920" lon="-1.2139840">
        <ele>935.4</ele>
        <time>2019-07-16T12:02:02Z</time>
      </trkpt>
      <trkpt lat="43.0580850" lon="-1.2141180">
        <ele>936.2</ele>
        <time>2019-07-16T12:02:09Z</time>
      </trkpt>
      <trkpt lat="43.0580260" lon="-1.2142320">
        <ele>936.9</ele>
        <time>2019-07-16T12:02:16Z</time>
      </trkpt>
      <trkpt lat="43.0579420" lon="-1.2142830">
        <ele>937.7</ele>
        <time>2019-07-16T12:02:24Z</time>
      </trkpt>
      <trkpt lat="43.0578470" lon="-1.2142910">
        <ele>938.3</ele>
        <time>2019-07-16T12:02:31Z</time>
      </trkpt>
      <trkpt lat="43.0577530" lon="-1.2142690">
        <ele>939.0</ele>
        <time>2019-07-16T12:02:38Z</time>
      </trkpt>
      <trkpt lat="43.0576500" lon="-1.2142450">
        <ele>939.8</ele>
        <time>2019-07-16T12:02:45Z</time>
      </trkpt>
      <trkpt lat="43.0575580" lon="-1.2142140">
        <ele>940.5</ele>
        <time>2019-07-16T12:02:52Z</time>
      </trkpt>
      <trkpt lat="43.0574550" lon="-1.2141950">
        <ele>941.2</ele>
        <time>2019-07-16T12:02:59Z</time>
      </trkpt>
      <trkpt lat="43.0573550" lon="-1.2141790">
        <ele>941.9</ele>
        <time>2019-07-16T12:03:07Z</time>
      </trkpt>
      <trkpt lat="43.0572550" lon="-1.2141750">
        <ele>942.7</ele>
        <time>2019-07-16T12:03:14Z</time>
      </trkpt>
      <trkpt lat="43.0571540" lon="-1.2141590">
        <ele>943.7</ele>
        <time>2019-07-16T12:03:22Z</time>
      </trkpt>
      <trkpt lat="43.0570530" lon="-1.2141480">
        <ele>944.7</ele>
        <time>2019-07-16T12:03:30Z</time>
      </trkpt>
      <trkpt lat="43.0569540" lon="-1.2141240">
        <ele>945.6</ele>
        <time>2019-07-16T12:03:38Z</time>
      </trkpt>
      <trkpt lat="43.0568640" lon="-1.2141070">
        <ele>946.4</ele>
        <time>2019-07-16T12:03:46Z</time>
      </trkpt>
      <trkpt lat="43.0567680" lon="-1.2140860">
        <ele>947.4</ele>
        <time>2019-07-16T12:03:54Z</time>
      </trkpt>
      <trkpt lat="43.0566770" lon="-1.2140700">
        <ele>948.3</ele>
        <time>2019-07-16T12:04:01Z</time>
      </trkpt>
      <trkpt lat="43.0565880" lon="-1.2140390">
        <ele>949.1</ele>
        <time>2019-07-16T12:04:08Z</time>
      </trkpt>
      <trkpt lat="43.0564990" lon="-1.2140140">
        <ele>950.1</ele>
        <time>2019-07-16T12:04:15Z</time>
      </trkpt>
      <trkpt lat="43.0564030" lon="-1.2140040">
        <ele>950.9</ele>
        <time>2019-07-16T12:04:22Z</time>
      </trkpt>
      <trkpt lat="43.0563160" lon="-1.2139640">
        <ele>951.7</ele>
        <time>2019-07-16T12:04:29Z</time>
      </trkpt>
      <trkpt lat="43.0562190" lon="-1.2139490">
        <ele>952.7</ele>
        <time>2019-07-16T12:04:36Z</time>
      </trkpt>
      <trkpt lat="43.0561260" lon="-1.2139340">
        <ele>953.8</ele>
        <time>2019-07-16T12:04:43Z</time>
      </trkpt>
      <trkpt lat="43.0560320" lon="-1.2139180">
        <ele>954.6</ele>
        <time>2019-07-16T12:04:50Z</time>
      </trkpt>
      <trkpt lat="43.0559300" lon="-1.2139040">
        <ele>955.8</ele>
        <time>2019-07-16T12:04:58Z</time>
      </trkpt>
      <trkpt lat="43.0558390" lon="-1.2138870">
        <ele>956.7</ele>
        <time>2019-07-16T12:05:05Z</time>
      </trkpt>
      <trkpt lat="43.0557420" lon="-1.2138950">
        <ele>957.5</ele>
        <time>2019-07-16T12:05:12Z</time>
      </trkpt>
      <trkpt lat="43.0556480" lon="-1.2138710">
        <ele>958.5</ele>
        <time>2019-07-16T12:05:19Z</time>
      </trkpt>
      <trkpt lat="43.0555580" lon="-1.2138520">
        <ele>959.4</ele>
        <time>2019-07-16T12:05:26Z</time>
      </trkpt>
      <trkpt lat="43.0554660" lon="-1.2138290">
        <ele>960.3</ele>
        <time>2019-07-16T12:05:33Z</time>
      </trkpt>
      <trkpt lat="43.0553760" lon="-1.2137910">
        <ele>961.1</ele>
        <time>2019-07-16T12:05:40Z</time>
      </trkpt>
      <trkpt lat="43.0552860" lon="-1.2137530">
        <ele>962.0</ele>
        <time>2019-07-16T12:05:47Z</time>
      </trkpt>
      <trkpt lat="43.0551970" lon="-1.2137140">
        <ele>963.2</ele>
        <time>2019-07-16T12:05:54Z</time>
      </trkpt>
      <trkpt lat="43.0550980" lon="-1.2136960">
        <ele>964.6</ele>
        <time>2019-07-16T12:06:01Z</time>
      </trkpt>
      <trkpt lat="43.0549980" lon="-1.2137390">
        <ele>965.8</ele>
        <time>2019-07-16T12:06:08Z</time>
      </trkpt>
      <trkpt lat="43.0549120" lon="-1.2138050">
        <ele>967.2</ele>
        <time>2019-07-16T12:06:15Z</time>
      </trkpt>
      <trkpt lat="43.0548200" lon="-1.2138780">
        <ele>968.8</ele>
        <time>2019-07-16T12:06:22Z</time>
      </trkpt>
      <trkpt lat="43.0547350" lon="-1.2139480">
        <ele>970.1</ele>
        <time>2019-07-16T12:06:28Z</time>
      </trkpt>
      <trkpt lat="43.0546630" lon="-1.2140240">
        <ele>971.5</ele>
        <time>2019-07-16T12:06:34Z</time>
      </trkpt>
      <trkpt lat="43.0545900" lon="-1.2141060">
        <ele>972.4</ele>
        <time>2019-07-16T12:06:40Z</time>
      </trkpt>
      <trkpt lat="43.0545120" lon="-1.2141990">
        <ele>973.6</ele>
        <time>2019-07-16T12:06:46Z</time>
      </trkpt>
      <trkpt lat="43.0544350" lon="-1.2142820">
        <ele>974.4</ele>
        <time>2019-07-16T12:06:52Z</time>
      </trkpt>
      <trkpt lat="43.0543590" lon="-1.2143640">
        <ele>975.1</ele>
        <time>2019-07-16T12:06:58Z</time>
      </trkpt>
      <trkpt lat="43.0542810" lon="-1.2144440">
        <ele>976.1</ele>
        <time>2019-07-16T12:07:04Z</time>
      </trkpt>
      <trkpt lat="43.0542070" lon="-1.2145430">
        <ele>977.4</ele>
        <time>2019-07-16T12:07:11Z</time>
      </trkpt>
      <trkpt lat="43.0541310" lon="-1.2145810">
        <ele>978.0</ele>
        <time>2019-07-16T12:07:25Z</time>
      </trkpt>
      <trkpt lat="43.0541990" lon="-1.2146840">
        <ele>980.0</ele>
        <time>2019-07-16T12:12:32Z</time>
      </trkpt>
      <trkpt lat="43.0542670" lon="-1.2147720">
        <ele>981.2</ele>
        <time>2019-07-16T12:12:37Z</time>
      </trkpt>
      <trkpt lat="43.0543150" lon="-1.2148860">
        <ele>982.3</ele>
        <time>2019-07-16T12:12:42Z</time>
      </trkpt>
      <trkpt lat="43.0543910" lon="-1.2149540">
        <ele>983.0</ele>
        <time>2019-07-16T12:12:47Z</time>
      </trkpt>
      <trkpt lat="43.0544800" lon="-1.2150020">
        <ele>983.6</ele>
        <time>2019-07-16T12:12:52Z</time>
      </trkpt>
      <trkpt lat="43.0545710" lon="-1.2150760">
        <ele>984.3</ele>
        <time>2019-07-16T12:12:58Z</time>
      </trkpt>
      <trkpt lat="43.0546580" lon="-1.2151340">
        <ele>984.9</ele>
        <time>2019-07-16T12:13:04Z</time>
      </trkpt>
      <trkpt lat="43.0547460" lon="-1.2151850">
        <ele>985.7</ele>
        <time>2019-07-16T12:13:10Z</time>
      </trkpt>
      <trkpt lat="43.0548370" lon="-1.2152450">
        <ele>987.0</ele>
        <time>2019-07-16T12:13:18Z</time>
      </trkpt>
      <trkpt lat="43.0549220" lon="-1.2152850">
        <ele>988.2</ele>
        <time>2019-07-16T12:13:24Z</time>
      </trkpt>
      <trkpt lat="43.0550000" lon="-1.2153540">
        <ele>989.6</ele>
        <time>2019-07-16T12:13:31Z</time>
      </trkpt>
      <trkpt lat="43.0549940" lon="-1.2154780">
        <ele>990.8</ele>
        <time>2019-07-16T12:13:39Z</time>
      </trkpt>
      <trkpt lat="43.0549020" lon="-1.2155230">
        <ele>992.3</ele>
        <time>2019-07-16T12:13:48Z</time>
      </trkpt>
      <trkpt lat="43.0548140" lon="-1.2155740">
        <ele>993.4</ele>
        <time>2019-07-16T12:13:55Z</time>
      </trkpt>
      <trkpt lat="43.0547340" lon="-1.2156460">
        <ele>994.4</ele>
        <time>2019-07-16T12:14:02Z</time>
      </trkpt>
      <trkpt lat="43.0546650" lon="-1.2157410">
        <ele>995.4</ele>
        <time>2019-07-16T12:14:09Z</time>
      </trkpt>
      <trkpt lat="43.0546020" lon="-1.2158520">
        <ele>996.5</ele>
        <time>2019-07-16T12:14:17Z</time>
      </trkpt>
      <trkpt lat="43.0545630" lon="-1.2159720">
        <ele>997.7</ele>
        <time>2019-07-16T12:14:25Z</time>
      </trkpt>
      <trkpt lat="43.0545290" lon="-1.2161030">
        <ele>998.8</ele>
        <time>2019-07-16T12:14:33Z</time>
      </trkpt>
      <trkpt lat="43.0545090" lon="-1.2162290">
        <ele>999.7</ele>
        <time>2019-07-16T12:14:40Z</time>
      </trkpt>
      <trkpt lat="43.0544880" lon="-1.2163540">
        <ele>1000.5</ele>
        <time>2019-07-16T12:14:47Z</time>
      </trkpt>
      <trkpt lat="43.0544530" lon="-1.2164680">
        <ele>1001.2</ele>
        <time>2019-07-16T12:14:54Z</time>
      </trkpt>
      <trkpt lat="43.0544440" lon="-1.2165920">
        <ele>1001.9</ele>
        <time>2019-07-16T12:15:01Z</time>
      </trkpt>
      <trkpt lat="43.0544300" lon="-1.2167150">
        <ele>1002.9</ele>
        <time>2019-07-16T12:15:08Z</time>
      </trkpt>
      <trkpt lat="43.0544200" lon="-1.2168490">
        <ele>1003.8</ele>
        <time>2019-07-16T12:15:16Z</time>
      </trkpt>
      <trkpt lat="43.0543890" lon="-1.2169800">
        <ele>1004.8</ele>
        <time>2019-07-16T12:15:24Z</time>
      </trkpt>
      <trkpt lat="43.0543610" lon="-1.2171050">
        <ele>1005.7</ele>
        <time>2019-07-16T12:15:31Z</time>
      </trkpt>
      <trkpt lat="43.0543420" lon="-1.2172350">
        <ele>1006.6</ele>
        <time>2019-07-16T12:15:38Z</time>
      </trkpt>
      <trkpt lat="43.0543660" lon="-1.2173580">
        <ele>1007.3</ele>
        <time>2019-07-16T12:15:45Z</time>
      </trkpt>
      <trkpt lat="43.0544700" lon="-1.2173800">
        <ele>1008.3</ele>
        <time>2019-07-16T12:15:52Z</time>
      </trkpt>
      <trkpt lat="43.0545560" lon="-1.2173390">
        <ele>1009.2</ele>
        <time>2019-07-16T12:15:58Z</time>
      </trkpt>
      <trkpt lat="43.0546470" lon="-1.2172950">
        <ele>1010.1</ele>
        <time>2019-07-16T12:16:05Z</time>
      </trkpt>
      <trkpt lat="43.0547430" lon="-1.2172560">
        <ele>1011.0</ele>
        <time>2019-07-16T12:16:12Z</time>
      </trkpt>
      <trkpt lat="43.0548360" lon="-1.2172140">
        <ele>1012.0</ele>
        <time>2019-07-16T12:16:19Z</time>
      </trkpt>
      <trkpt lat="43.0549290" lon="-1.2171640">
        <ele>1013.3</ele>
        <time>2019-07-16T12:16:26Z</time>
      </trkpt>
      <trkpt lat="43.0550200" lon="-1.2171070">
        <ele>1014.6</ele>
        <time>2019-07-16T12:16:33Z</time>
      </trkpt>
      <trkpt lat="43.0551090" lon="-1.2171250">
        <ele>1015.6</ele>
        <time>2019-07-16T12:16:40Z</time>
      </trkpt>
      <trkpt lat="43.0551950" lon="-1.2171700">
        <ele>1016.3</ele>
        <time>2019-07-16T12:16:46Z</time>
      </trkpt>
      <trkpt lat="43.0552810" lon="-1.2172110">
        <ele>1017.2</ele>
        <time>2019-07-16T12:16:53Z</time>
      </trkpt>
      <trkpt lat="43.0553680" lon="-1.2172490">
        <ele>1018.1</ele>
        <time>2019-07-16T12:17:00Z</time>
      </trkpt>
      <trkpt lat="43.0554600" lon="-1.2172860">
        <ele>1019.2</ele>
        <time>2019-07-16T12:17:07Z</time>
      </trkpt>
      <trkpt lat="43.0555570" lon="-1.2172830">
        <ele>1020.5</ele>
        <time>2019-07-16T12:17:14Z</time>
      </trkpt>
      <trkpt lat="43.0556580" lon="-1.2173080">
        <ele>1021.9</ele>
        <time>2019-07-16T12:17:22Z</time>
      </trkpt>
      <trkpt lat="43.0557490" lon="-1.2173750">
        <ele>1023.0</ele>
        <time>2019-07-16T12:17:30Z</time>
      </trkpt>
      <trkpt lat="43.0558270" lon="-1.2174520">
        <ele>1024.1</ele>
        <time>2019-07-16T12:17:37Z</time>
      </trkpt>
      <trkpt lat="43.0559060" lon="-1.2175330">
        <ele>1025.2</ele>
        <time>2019-07-16T12:17:44Z</time>
      </trkpt>
      <trkpt lat="43.0559730" lon="-1.2176180">
        <ele>1026.1</ele>
        <time>2019-07-16T12:17:51Z</time>
      </trkpt>
      <trkpt lat="43.0560710" lon="-1.2176620">
        <ele>1027.0</ele>
        <time>2019-07-16T12:17:58Z</time>
      </trkpt>
      <trkpt lat="43.0561530" lon="-1.2177370">
        <ele>1027.9</ele>
        <time>2019-07-16T12:18:05Z</time>
      </trkpt>
      <trkpt lat="43.0562380" lon="-1.2178160">
        <ele>1028.8</ele>
        <time>2019-07-16T12:18:12Z</time>
      </trkpt>
      <trkpt lat="43.0563270" lon="-1.2178840">
        <ele>1029.9</ele>
        <time>2019-07-16T12:18:19Z</time>
      </trkpt>
      <trkpt lat="43.0564120" lon="-1.2179570">
        <ele>1030.5</ele>
        <time>2019-07-16T12:18:26Z</time>
      </trkpt>
      <trkpt lat="43.0564930" lon="-1.2180380">
        <ele>1031.1</ele>
        <time>2019-07-16T12:18:33Z</time>
      </trkpt>
      <trkpt lat="43.0565700" lon="-1.2181050">
        <ele>1031.6</ele>
        <time>2019-07-16T12:18:40Z</time>
      </trkpt>
      <trkpt lat="43.0566470" lon="-1.2181980">
        <ele>1032.2</ele>
        <time>2019-07-16T12:18:49Z</time>
      </trkpt>
      <trkpt lat="43.0567150" lon="-1.2183070">
        <ele>1032.9</ele>
        <time>2019-07-16T12:18:56Z</time>
      </trkpt>
      <trkpt lat="43.0567600" lon="-1.2184260">
        <ele>1033.6</ele>
        <time>2019-07-16T12:19:02Z</time>
      </trkpt>
      <trkpt lat="43.0568140" lon="-1.2185320">
        <ele>1034.3</ele>
        <time>2019-07-16T12:19:08Z</time>
      </trkpt>
      <trkpt lat="43.0568560" lon="-1.2186560">
        <ele>1035.2</ele>
        <time>2019-07-16T12:19:15Z</time>
      </trkpt>
      <trkpt lat="43.0568850" lon="-1.2187770">
        <ele>1035.8</ele>
        <time>2019-07-16T12:19:21Z</time>
      </trkpt>
      <trkpt lat="43.0569240" lon="-1.2188980">
        <ele>1036.6</ele>
        <time>2019-07-16T12:19:28Z</time>
      </trkpt>
      <trkpt lat="43.0569480" lon="-1.2190340">
        <ele>1037.6</ele>
        <time>2019-07-16T12:19:35Z</time>
      </trkpt>
      <trkpt lat="43.0569920" lon="-1.2191580">
        <ele>1038.3</ele>
        <time>2019-07-16T12:19:43Z</time>
      </trkpt>
      <trkpt lat="43.0570330" lon="-1.2192810">
        <ele>1039.0</ele>
        <time>2019-07-16T12:19:50Z</time>
      </trkpt>
      <trkpt lat="43.0570770" lon="-1.2194000">
        <ele>1039.8</ele>
        <time>2019-07-16T12:19:57Z</time>
      </trkpt>
      <trkpt lat="43.0571250" lon="-1.2195140">
        <ele>1040.3</ele>
        <time>2019-07-16T12:20:04Z</time>
      </trkpt>
      <trkpt lat="43.0571680" lon="-1.2196270">
        <ele>1040.9</ele>
        <time>2019-07-16T12:20:11Z</time>
      </trkpt>
      <trkpt lat="43.0572110" lon="-1.2197360">
        <ele>1041.4</ele>
        <time>2019-07-16T12:20:17Z</time>
      </trkpt>
      <trkpt lat="43.0572600" lon="-1.2198510">
        <ele>1042.0</ele>
        <time>2019-07-16T12:20:23Z</time>
      </trkpt>
      <trkpt lat="43.0573330" lon="-1.2199510">
        <ele>1042.6</ele>
        <time>2019-07-16T12:20:30Z</time>
      </trkpt>
      <trkpt lat="43.0574000" lon="-1.2200600">
        <ele>1043.0</ele>
        <time>2019-07-16T12:20:36Z</time>
      </trkpt>
      <trkpt lat="43.0574510" lon="-1.2201770">
        <ele>1043.4</ele>
        <time>2019-07-16T12:20:44Z</time>
      </trkpt>
      <trkpt lat="43.0575250" lon="-1.2202750">
        <ele>1043.8</ele>
        <time>2019-07-16T12:20:50Z</time>
      </trkpt>
      <trkpt lat="43.0575460" lon="-1.2203410">
        <ele>1043.9</ele>
        <time>2019-07-16T12:20:57Z</time>
      </trkpt>
      <trkpt lat="43.0575850" lon="-1.2204660">
        <ele>1044.1</ele>
        <time>2019-07-16T12:21:27Z</time>
      </trkpt>
      <trkpt lat="43.0576450" lon="-1.2205720">
        <ele>1044.4</ele>
        <time>2019-07-16T12:21:32Z</time>
      </trkpt>
      <trkpt lat="43.0577120" lon="-1.2206940">
        <ele>1044.7</ele>
        <time>2019-07-16T12:21:38Z</time>
      </trkpt>
      <trkpt lat="43.0577690" lon="-1.2207960">
        <ele>1044.9</ele>
        <time>2019-07-16T12:21:42Z</time>
      </trkpt>
      <trkpt lat="43.0578270" lon="-1.2209310">
        <ele>1044.2</ele>
        <time>2019-07-16T12:21:46Z</time>
      </trkpt>
      <trkpt lat="43.0578700" lon="-1.2210610">
        <ele>1043.5</ele>
        <time>2019-07-16T12:21:49Z</time>
      </trkpt>
      <trkpt lat="43.0579190" lon="-1.2212020">
        <ele>1042.7</ele>
        <time>2019-07-16T12:21:52Z</time>
      </trkpt>
      <trkpt lat="43.0579340" lon="-1.2213720">
        <ele>1041.8</ele>
        <time>2019-07-16T12:21:55Z</time>
      </trkpt>
      <trkpt lat="43.0579480" lon="-1.2215400">
        <ele>1041.1</ele>
        <time>2019-07-16T12:21:58Z</time>
      </trkpt>
      <trkpt lat="43.0579390" lon="-1.2216730">
        <ele>1040.5</ele>
        <time>2019-07-16T12:22:01Z</time>
      </trkpt>
      <trkpt lat="43.0579600" lon="-1.2217930">
        <ele>1040.1</ele>
        <time>2019-07-16T12:22:04Z</time>
      </trkpt>
      <trkpt lat="43.0580260" lon="-1.2219220">
        <ele>1039.7</ele>
        <time>2019-07-16T12:22:08Z</time>
      </trkpt>
      <trkpt lat="43.0581070" lon="-1.2220140">
        <ele>1039.1</ele>
        <time>2019-07-16T12:22:11Z</time>
      </trkpt>
      <trkpt lat="43.0581870" lon="-1.2221260">
        <ele>1038.4</ele>
        <time>2019-07-16T12:22:14Z</time>
      </trkpt>
      <trkpt lat="43.0582980" lon="-1.2221820">
        <ele>1037.9</ele>
        <time>2019-07-16T12:22:17Z</time>
      </trkpt>
      <trkpt lat="43.0584090" lon="-1.2222330">
        <ele>1037.4</ele>
        <time>2019-07-16T12:22:20Z</time>
      </trkpt>
      <trkpt lat="43.0585110" lon="-1.2222300">
        <ele>1036.9</ele>
        <time>2019-07-16T12:22:24Z</time>
      </trkpt>
      <trkpt lat="43.0586020" lon="-1.2221970">
        <ele>1036.4</ele>
        <time>2019-07-16T12:22:27Z</time>
      </trkpt>
      <trkpt lat="43.0587050" lon="-1.2221430">
        <ele>1035.9</ele>
        <time>2019-07-16T12:22:30Z</time>
      </trkpt>
      <trkpt lat="43.0588320" lon="-1.2220810">
        <ele>1034.9</ele>
        <time>2019-07-16T12:22:33Z</time>
      </trkpt>
      <trkpt lat="43.0589310" lon="-1.2220560">
        <ele>1034.0</ele>
        <time>2019-07-16T12:22:35Z</time>
      </trkpt>
      <trkpt lat="43.0590470" lon="-1.2220590">
        <ele>1032.9</ele>
        <time>2019-07-16T12:22:37Z</time>
      </trkpt>
      <trkpt lat="43.0591560" lon="-1.2221200">
        <ele>1031.7</ele>
        <time>2019-07-16T12:22:39Z</time>
      </trkpt>
      <trkpt lat="43.0592220" lon="-1.2222070">
        <ele>1030.7</ele>
        <time>2019-07-16T12:22:41Z</time>
      </trkpt>
      <trkpt lat="43.0593050" lon="-1.2223130">
        <ele>1030.3</ele>
        <time>2019-07-16T12:22:44Z</time>
      </trkpt>
      <trkpt lat="43.0593730" lon="-1.2224340">
        <ele>1030.2</ele>
        <time>2019-07-16T12:22:48Z</time>
      </trkpt>
      <trkpt lat="43.0594290" lon="-1.2225510">
        <ele>1030.0</ele>
        <time>2019-07-16T12:22:51Z</time>
      </trkpt>
      <trkpt lat="43.0594880" lon="-1.2226470">
        <ele>1029.6</ele>
        <time>2019-07-16T12:22:55Z</time>
      </trkpt>
      <trkpt lat="43.0595780" lon="-1.2226610">
        <ele>1029.0</ele>
        <time>2019-07-16T12:23:08Z</time>
      </trkpt>
      <trkpt lat="43.0595720" lon="-1.2226630">
        <ele>1029.0</ele>
        <time>2019-07-16T12:23:10Z</time>
      </trkpt>
      <trkpt lat="43.0595540" lon="-1.2226870">
        <ele>1028.8</ele>
        <time>2019-07-16T12:23:50Z</time>
      </trkpt>
      <trkpt lat="43.0596440" lon="-1.2228150">
        <ele>1027.9</ele>
        <time>2019-07-16T12:23:55Z</time>
      </trkpt>
      <trkpt lat="43.0597390" lon="-1.2228810">
        <ele>1026.8</ele>
        <time>2019-07-16T12:23:57Z</time>
      </trkpt>
      <trkpt lat="43.0598340" lon="-1.2229960">
        <ele>1025.6</ele>
        <time>2019-07-16T12:24:00Z</time>
      </trkpt>
      <trkpt lat="43.0599170" lon="-1.2230830">
        <ele>1024.6</ele>
        <time>2019-07-16T12:24:02Z</time>
      </trkpt>
      <trkpt lat="43.0599980" lon="-1.2231630">
        <ele>1023.3</ele>
        <time>2019-07-16T12:24:04Z</time>
      </trkpt>
      <trkpt lat="43.0600860" lon="-1.2232280">
        <ele>1022.3</ele>
        <time>2019-07-16T12:24:06Z</time>
      </trkpt>
      <trkpt lat="43.0601830" lon="-1.2232920">
        <ele>1021.2</ele>
        <time>2019-07-16T12:24:08Z</time>
      </trkpt>
      <trkpt lat="43.0602750" lon="-1.2233660">
        <ele>1019.7</ele>
        <time>2019-07-16T12:24:10Z</time>
      </trkpt>
      <trkpt lat="43.0603680" lon="-1.2234390">
        <ele>1018.5</ele>
        <time>2019-07-16T12:24:12Z</time>
      </trkpt>
      <trkpt lat="43.0604590" lon="-1.2235090">
        <ele>1017.5</ele>
        <time>2019-07-16T12:24:14Z</time>
      </trkpt>
      <trkpt lat="43.0605510" lon="-1.2235760">
        <ele>1016.5</ele>
        <time>2019-07-16T12:24:16Z</time>
      </trkpt>
      <trkpt lat="43.0606450" lon="-1.2236530">
        <ele>1015.4</ele>
        <time>2019-07-16T12:24:18Z</time>
      </trkpt>
      <trkpt lat="43.0607370" lon="-1.2237240">
        <ele>1014.4</ele>
        <time>2019-07-16T12:24:20Z</time>
      </trkpt>
      <trkpt lat="43.0608260" lon="-1.2237950">
        <ele>1013.0</ele>
        <time>2019-07-16T12:24:22Z</time>
      </trkpt>
      <trkpt lat="43.0609200" lon="-1.2238680">
        <ele>1011.9</ele>
        <time>2019-07-16T12:24:24Z</time>
      </trkpt>
      <trkpt lat="43.0610160" lon="-1.2239460">
        <ele>1010.7</ele>
        <time>2019-07-16T12:24:26Z</time>
      </trkpt>
      <trkpt lat="43.0611150" lon="-1.2240230">
        <ele>1009.5</ele>
        <time>2019-07-16T12:24:28Z</time>
      </trkpt>
      <trkpt lat="43.0612200" lon="-1.2240930">
        <ele>1008.2</ele>
        <time>2019-07-16T12:24:30Z</time>
      </trkpt>
      <trkpt lat="43.0613190" lon="-1.2241650">
        <ele>1006.8</ele>
        <time>2019-07-16T12:24:32Z</time>
      </trkpt>
      <trkpt lat="43.0614150" lon="-1.2242500">
        <ele>1005.4</ele>
        <time>2019-07-16T12:24:34Z</time>
      </trkpt>
      <trkpt lat="43.0615000" lon="-1.2243210">
        <ele>1003.7</ele>
        <time>2019-07-16T12:24:36Z</time>
      </trkpt>
      <trkpt lat="43.0615890" lon="-1.2243750">
        <ele>1002.2</ele>
        <time>2019-07-16T12:24:38Z</time>
      </trkpt>
      <trkpt lat="43.0616810" lon="-1.2244150">
        <ele>1001.3</ele>
        <time>2019-07-16T12:24:40Z</time>
      </trkpt>
      <trkpt lat="43.0618170" lon="-1.2244400">
        <ele>1000.1</ele>
        <time>2019-07-16T12:24:43Z</time>
      </trkpt>
      <trkpt lat="43.0619160" lon="-1.2244420">
        <ele>999.2</ele>
        <time>2019-07-16T12:24:45Z</time>
      </trkpt>
      <trkpt lat="43.0620120" lon="-1.2244330">
        <ele>998.4</ele>
        <time>2019-07-16T12:24:47Z</time>
      </trkpt>
      <trkpt lat="43.0621430" lon="-1.2244470">
        <ele>997.4</ele>
        <time>2019-07-16T12:24:50Z</time>
      </trkpt>
      <trkpt lat="43.0622320" lon="-1.2244970">
        <ele>996.6</ele>
        <time>2019-07-16T12:24:52Z</time>
      </trkpt>
      <trkpt lat="43.0623190" lon="-1.2245840">
        <ele>995.8</ele>
        <time>2019-07-16T12:24:54Z</time>
      </trkpt>
      <trkpt lat="43.0623890" lon="-1.2246910">
        <ele>995.1</ele>
        <time>2019-07-16T12:24:56Z</time>
      </trkpt>
      <trkpt lat="43.0624500" lon="-1.2248020">
        <ele>994.2</ele>
        <time>2019-07-16T12:24:58Z</time>
      </trkpt>
      <trkpt lat="43.0625330" lon="-1.2249190">
        <ele>993.3</ele>
        <time>2019-07-16T12:25:00Z</time>
      </trkpt>
      <trkpt lat="43.0626110" lon="-1.2250370">
        <ele>992.4</ele>
        <time>2019-07-16T12:25:02Z</time>
      </trkpt>
      <trkpt lat="43.0626930" lon="-1.2251600">
        <ele>991.4</ele>
        <time>2019-07-16T12:25:04Z</time>
      </trkpt>
      <trkpt lat="43.0627590" lon="-1.2252980">
        <ele>990.5</ele>
        <time>2019-07-16T12:25:06Z</time>
      </trkpt>
      <trkpt lat="43.0628070" lon="-1.2254290">
        <ele>989.7</ele>
        <time>2019-07-16T12:25:08Z</time>
      </trkpt>
      <trkpt lat="43.0628530" lon="-1.2255640">
        <ele>989.0</ele>
        <time>2019-07-16T12:25:10Z</time>
      </trkpt>
      <trkpt lat="43.0629000" lon="-1.2257140">
        <ele>988.2</ele>
        <time>2019-07-16T12:25:12Z</time>
      </trkpt>
      <trkpt lat="43.0629420" lon="-1.2258810">
        <ele>987.5</ele>
        <time>2019-07-16T12:25:14Z</time>
      </trkpt>
      <trkpt lat="43.0629780" lon="-1.2260700">
        <ele>986.8</ele>
        <time>2019-07-16T12:25:16Z</time>
      </trkpt>
      <trkpt lat="43.0630120" lon="-1.2262480">
        <ele>986.4</ele>
        <time>2019-07-16T12:25:18Z</time>
      </trkpt>
      <trkpt lat="43.0630360" lon="-1.2263860">
        <ele>986.2</ele>
        <time>2019-07-16T12:25:20Z</time>
      </trkpt>
      <trkpt lat="43.0630550" lon="-1.2265080">
        <ele>986.3</ele>
        <time>2019-07-16T12:25:23Z</time>
      </trkpt>
      <trkpt lat="43.0630820" lon="-1.2266400">
        <ele>986.4</ele>
        <time>2019-07-16T12:25:28Z</time>
      </trkpt>
      <trkpt lat="43.0630980" lon="-1.2267800">
        <ele>986.9</ele>
        <time>2019-07-16T12:25:34Z</time>
      </trkpt>
      <trkpt lat="43.0631210" lon="-1.2269180">
        <ele>987.6</ele>
        <time>2019-07-16T12:25:41Z</time>
      </trkpt>
      <trkpt lat="43.0631350" lon="-1.2270600">
        <ele>988.5</ele>
        <time>2019-07-16T12:25:48Z</time>
      </trkpt>
      <trkpt lat="43.0631730" lon="-1.2271910">
        <ele>989.5</ele>
        <time>2019-07-16T12:25:55Z</time>
      </trkpt>
      <trkpt lat="43.0632180" lon="-1.2273090">
        <ele>990.7</ele>
        <time>2019-07-16T12:26:02Z</time>
      </trkpt>
      <trkpt lat="43.0632230" lon="-1.2274440">
        <ele>992.1</ele>
        <time>2019-07-16T12:26:09Z</time>
      </trkpt>
      <trkpt lat="43.0632090" lon="-1.2275770">
        <ele>993.4</ele>
        <time>2019-07-16T12:26:14Z</time>
      </trkpt>
      <trkpt lat="43.0632440" lon="-1.2277070">
        <ele>994.5</ele>
        <time>2019-07-16T12:26:20Z</time>
      </trkpt>
      <trkpt lat="43.0632560" lon="-1.2278380">
        <ele>995.5</ele>
        <time>2019-07-16T12:26:26Z</time>
      </trkpt>
      <trkpt lat="43.0633290" lon="-1.2279410">
        <ele>996.4</ele>
        <time>2019-07-16T12:26:30Z</time>
      </trkpt>
      <trkpt lat="43.0634020" lon="-1.2280170">
        <ele>997.1</ele>
        <time>2019-07-16T12:26:36Z</time>
      </trkpt>
      <trkpt lat="43.0634640" lon="-1.2281150">
        <ele>997.9</ele>
        <time>2019-07-16T12:26:45Z</time>
      </trkpt>
      <trkpt lat="43.0635080" lon="-1.2282300">
        <ele>998.7</ele>
        <time>2019-07-16T12:26:52Z</time>
      </trkpt>
      <trkpt lat="43.0635690" lon="-1.2283230">
        <ele>999.7</ele>
        <time>2019-07-16T12:26:59Z</time>
      </trkpt>
      <trkpt lat="43.0636270" lon="-1.2284170">
        <ele>1000.7</ele>
        <time>2019-07-16T12:27:06Z</time>
      </trkpt>
      <trkpt lat="43.0636860" lon="-1.2285170">
        <ele>1001.8</ele>
        <time>2019-07-16T12:27:14Z</time>
      </trkpt>
      <trkpt lat="43.0637450" lon="-1.2286130">
        <ele>1002.8</ele>
        <time>2019-07-16T12:27:19Z</time>
      </trkpt>
      <trkpt lat="43.0637890" lon="-1.2287210">
        <ele>1003.6</ele>
        <time>2019-07-16T12:27:27Z</time>
      </trkpt>
      <trkpt lat="43.0638280" lon="-1.2288370">
        <ele>1004.8</ele>
        <time>2019-07-16T12:27:35Z</time>
      </trkpt>
      <trkpt lat="43.0638660" lon="-1.2289600">
        <ele>1006.2</ele>
        <time>2019-07-16T12:27:45Z</time>
      </trkpt>
      <trkpt lat="43.0639050" lon="-1.2290780">
        <ele>1007.4</ele>
        <time>2019-07-16T12:27:51Z</time>
      </trkpt>
      <trkpt lat="43.0639320" lon="-1.2292030">
        <ele>1008.4</ele>
        <time>2019-07-16T12:27:58Z</time>
      </trkpt>
      <trkpt lat="43.0639310" lon="-1.2293480">
        <ele>1009.4</ele>
        <time>2019-07-16T12:28:05Z</time>
      </trkpt>
      <trkpt lat="43.0639410" lon="-1.2294760">
        <ele>1010.2</ele>
        <time>2019-07-16T12:28:09Z</time>
      </trkpt>
      <trkpt lat="43.0639550" lon="-1.2296000">
        <ele>1011.0</ele>
        <time>2019-07-16T12:28:15Z</time>
      </trkpt>
      <trkpt lat="43.0639640" lon="-1.2297270">
        <ele>1011.7</ele>
        <time>2019-07-16T12:28:22Z</time>
      </trkpt>
      <trkpt lat="43.0639610" lon="-1.2298620">
        <ele>1012.4</ele>
        <time>2019-07-16T12:28:30Z</time>
      </trkpt>
      <trkpt lat="43.0639630" lon="-1.2299990">
        <ele>1013.2</ele>
        <time>2019-07-16T12:28:38Z</time>
      </trkpt>
      <trkpt lat="43.0639230" lon="-1.2301280">
        <ele>1013.9</ele>
        <time>2019-07-16T12:28:45Z</time>
      </trkpt>
      <trkpt lat="43.0639330" lon="-1.2302640">
        <ele>1014.8</ele>
        <time>2019-07-16T12:28:53Z</time>
      </trkpt>
      <trkpt lat="43.0639160" lon="-1.2303970">
        <ele>1015.5</ele>
        <time>2019-07-16T12:29:00Z</time>
      </trkpt>
      <trkpt lat="43.0639050" lon="-1.2305270">
        <ele>1016.3</ele>
        <time>2019-07-16T12:29:07Z</time>
      </trkpt>
      <trkpt lat="43.0638720" lon="-1.2306510">
        <ele>1017.3</ele>
        <time>2019-07-16T12:29:13Z</time>
      </trkpt>
      <trkpt lat="43.0638370" lon="-1.2307680">
        <ele>1018.2</ele>
        <time>2019-07-16T12:29:20Z</time>
      </trkpt>
      <trkpt lat="43.0637970" lon="-1.2308840">
        <ele>1019.3</ele>
        <time>2019-07-16T12:29:27Z</time>
      </trkpt>
      <trkpt lat="43.0637790" lon="-1.2310080">
        <ele>1020.4</ele>
        <time>2019-07-16T12:29:34Z</time>
      </trkpt>
      <trkpt lat="43.0637600" lon="-1.2311390">
        <ele>1021.6</ele>
        <time>2019-07-16T12:29:41Z</time>
      </trkpt>
      <trkpt lat="43.0637440" lon="-1.2312700">
        <ele>1022.7</ele>
        <time>2019-07-16T12:29:47Z</time>
      </trkpt>
      <trkpt lat="43.0637710" lon="-1.2313950">
        <ele>1023.4</ele>
        <time>2019-07-16T12:29:56Z</time>
      </trkpt>
      <trkpt lat="43.0638520" lon="-1.2314530">
        <ele>1024.3</ele>
        <time>2019-07-16T12:30:04Z</time>
      </trkpt>
      <trkpt lat="43.0639200" lon="-1.2315440">
        <ele>1025.1</ele>
        <time>2019-07-16T12:30:09Z</time>
      </trkpt>
      <trkpt lat="43.0639580" lon="-1.2316620">
        <ele>1025.6</ele>
        <time>2019-07-16T12:30:15Z</time>
      </trkpt>
      <trkpt lat="43.0640060" lon="-1.2317770">
        <ele>1026.5</ele>
        <time>2019-07-16T12:30:21Z</time>
      </trkpt>
      <trkpt lat="43.0640350" lon="-1.2319050">
        <ele>1027.6</ele>
        <time>2019-07-16T12:30:28Z</time>
      </trkpt>
      <trkpt lat="43.0640170" lon="-1.2320390">
        <ele>1028.7</ele>
        <time>2019-07-16T12:30:35Z</time>
      </trkpt>
      <trkpt lat="43.0640210" lon="-1.2321670">
        <ele>1030.2</ele>
        <time>2019-07-16T12:30:41Z</time>
      </trkpt>
      <trkpt lat="43.0640240" lon="-1.2322940">
        <ele>1031.2</ele>
        <time>2019-07-16T12:30:47Z</time>
      </trkpt>
      <trkpt lat="43.0640600" lon="-1.2324210">
        <ele>1032.4</ele>
        <time>2019-07-16T12:30:54Z</time>
      </trkpt>
      <trkpt lat="43.0641120" lon="-1.2325380">
        <ele>1033.5</ele>
        <time>2019-07-16T12:31:01Z</time>
      </trkpt>
      <trkpt lat="43.0641730" lon="-1.2326450">
        <ele>1034.6</ele>
        <time>2019-07-16T12:31:08Z</time>
      </trkpt>
      <trkpt lat="43.0642200" lon="-1.2327640">
        <ele>1035.6</ele>
        <time>2019-07-16T12:31:15Z</time>
      </trkpt>
      <trkpt lat="43.0642560" lon="-1.2328890">
        <ele>1036.4</ele>
        <time>2019-07-16T12:31:22Z</time>
      </trkpt>
      <trkpt lat="43.0642750" lon="-1.2330250">
        <ele>1037.5</ele>
        <time>2019-07-16T12:31:29Z</time>
      </trkpt>
      <trkpt lat="43.0642830" lon="-1.2331620">
        <ele>1038.4</ele>
        <time>2019-07-16T12:31:36Z</time>
      </trkpt>
      <trkpt lat="43.0642820" lon="-1.2332990">
        <ele>1039.4</ele>
        <time>2019-07-16T12:31:43Z</time>
      </trkpt>
      <trkpt lat="43.0642540" lon="-1.2334330">
        <ele>1040.3</ele>
        <time>2019-07-16T12:31:51Z</time>
      </trkpt>
      <trkpt lat="43.0642220" lon="-1.2335580">
        <ele>1041.3</ele>
        <time>2019-07-16T12:31:58Z</time>
      </trkpt>
      <trkpt lat="43.0641570" lon="-1.2336580">
        <ele>1042.0</ele>
        <time>2019-07-16T12:32:05Z</time>
      </trkpt>
      <trkpt lat="43.0640990" lon="-1.2337570">
        <ele>1042.7</ele>
        <time>2019-07-16T12:32:12Z</time>
      </trkpt>
      <trkpt lat="43.0640480" lon="-1.2338650">
        <ele>1043.4</ele>
        <time>2019-07-16T12:32:19Z</time>
      </trkpt>
      <trkpt lat="43.0639880" lon="-1.2339590">
        <ele>1044.4</ele>
        <time>2019-07-16T12:32:26Z</time>
      </trkpt>
      <trkpt lat="43.0639300" lon="-1.2340540">
        <ele>1045.5</ele>
        <time>2019-07-16T12:32:33Z</time>
      </trkpt>
      <trkpt lat="43.0638690" lon="-1.2341450">
        <ele>1046.4</ele>
        <time>2019-07-16T12:32:40Z</time>
      </trkpt>
      <trkpt lat="43.0638090" lon="-1.2342470">
        <ele>1047.4</ele>
        <time>2019-07-16T12:32:47Z</time>
      </trkpt>
      <trkpt lat="43.0637350" lon="-1.2343420">
        <ele>1048.5</ele>
        <time>2019-07-16T12:32:54Z</time>
      </trkpt>
      <trkpt lat="43.0636550" lon="-1.2344170">
        <ele>1049.4</ele>
        <time>2019-07-16T12:33:01Z</time>
      </trkpt>
      <trkpt lat="43.0635640" lon="-1.2344750">
        <ele>1050.3</ele>
        <time>2019-07-16T12:33:08Z</time>
      </trkpt>
      <trkpt lat="43.0634750" lon="-1.2345490">
        <ele>1051.1</ele>
        <time>2019-07-16T12:33:15Z</time>
      </trkpt>
      <trkpt lat="43.0633970" lon="-1.2346380">
        <ele>1052.2</ele>
        <time>2019-07-16T12:33:22Z</time>
      </trkpt>
      <trkpt lat="43.0633340" lon="-1.2347290">
        <ele>1053.4</ele>
        <time>2019-07-16T12:33:28Z</time>
      </trkpt>
      <trkpt lat="43.0632790" lon="-1.2348410">
        <ele>1054.7</ele>
        <time>2019-07-16T12:33:34Z</time>
      </trkpt>
      <trkpt lat="43.0632260" lon="-1.2349500">
        <ele>1055.8</ele>
        <time>2019-07-16T12:33:39Z</time>
      </trkpt>
      <trkpt lat="43.0631610" lon="-1.2350500">
        <ele>1056.9</ele>
        <time>2019-07-16T12:33:44Z</time>
      </trkpt>
      <trkpt lat="43.0630730" lon="-1.2351070">
        <ele>1058.0</ele>
        <time>2019-07-16T12:33:51Z</time>
      </trkpt>
      <trkpt lat="43.0629790" lon="-1.2351440">
        <ele>1059.0</ele>
        <time>2019-07-16T12:33:59Z</time>
      </trkpt>
      <trkpt lat="43.0628940" lon="-1.2351870">
        <ele>1059.8</ele>
        <time>2019-07-16T12:34:06Z</time>
      </trkpt>
      <trkpt lat="43.0628050" lon="-1.2352290">
        <ele>1060.6</ele>
        <time>2019-07-16T12:34:13Z</time>
      </trkpt>
      <trkpt lat="43.0627150" lon="-1.2352770">
        <ele>1061.5</ele>
        <time>2019-07-16T12:34:20Z</time>
      </trkpt>
      <trkpt lat="43.0626300" lon="-1.2353510">
        <ele>1062.6</ele>
        <time>2019-07-16T12:34:27Z</time>
      </trkpt>
      <trkpt lat="43.0625520" lon="-1.2354410">
        <ele>1063.7</ele>
        <time>2019-07-16T12:34:34Z</time>
      </trkpt>
      <trkpt lat="43.0625120" lon="-1.2355700">
        <ele>1064.7</ele>
        <time>2019-07-16T12:34:41Z</time>
      </trkpt>
      <trkpt lat="43.0625500" lon="-1.2357080">
        <ele>1066.1</ele>
        <time>2019-07-16T12:34:48Z</time>
      </trkpt>
      <trkpt lat="43.0625880" lon="-1.2358230">
        <ele>1067.2</ele>
        <time>2019-07-16T12:34:54Z</time>
      </trkpt>
      <trkpt lat="43.0626370" lon="-1.2359360">
        <ele>1068.2</ele>
        <time>2019-07-16T12:35:01Z</time>
      </trkpt>
      <trkpt lat="43.0626860" lon="-1.2360480">
        <ele>1069.4</ele>
        <time>2019-07-16T12:35:08Z</time>
      </trkpt>
      <trkpt lat="43.0627500" lon="-1.2361480">
        <ele>1070.6</ele>
        <time>2019-07-16T12:35:15Z</time>
      </trkpt>
      <trkpt lat="43.0628130" lon="-1.2362460">
        <ele>1071.5</ele>
        <time>2019-07-16T12:35:22Z</time>
      </trkpt>
      <trkpt lat="43.0628820" lon="-1.2363330">
        <ele>1072.3</ele>
        <time>2019-07-16T12:35:28Z</time>
      </trkpt>
      <trkpt lat="43.0629540" lon="-1.2364350">
        <ele>1073.1</ele>
        <time>2019-07-16T12:35:35Z</time>
      </trkpt>
      <trkpt lat="43.0630290" lon="-1.2365340">
        <ele>1074.0</ele>
        <time>2019-07-16T12:35:42Z</time>
      </trkpt>
      <trkpt lat="43.0630820" lon="-1.2366410">
        <ele>1074.8</ele>
        <time>2019-07-16T12:35:49Z</time>
      </trkpt>
      <trkpt lat="43.0631230" lon="-1.2367550">
        <ele>1075.6</ele>
        <time>2019-07-16T12:35:56Z</time>
      </trkpt>
      <trkpt lat="43.0631520" lon="-1.2368810">
        <ele>1076.4</ele>
        <time>2019-07-16T12:36:03Z</time>
      </trkpt>
      <trkpt lat="43.0631700" lon="-1.2370180">
        <ele>1077.4</ele>
        <time>2019-07-16T12:36:10Z</time>
      </trkpt>
      <trkpt lat="43.0631810" lon="-1.2371470">
        <ele>1078.6</ele>
        <time>2019-07-16T12:36:17Z</time>
      </trkpt>
      <trkpt lat="43.0631970" lon="-1.2372800">
        <ele>1079.8</ele>
        <time>2019-07-16T12:36:24Z</time>
      </trkpt>
      <trkpt lat="43.0632000" lon="-1.2374120">
        <ele>1081.0</ele>
        <time>2019-07-16T12:36:31Z</time>
      </trkpt>
      <trkpt lat="43.0631930" lon="-1.2375450">
        <ele>1082.4</ele>
        <time>2019-07-16T12:36:38Z</time>
      </trkpt>
      <trkpt lat="43.0631770" lon="-1.2376740">
        <ele>1083.9</ele>
        <time>2019-07-16T12:36:45Z</time>
      </trkpt>
      <trkpt lat="43.0631440" lon="-1.2377930">
        <ele>1085.3</ele>
        <time>2019-07-16T12:36:52Z</time>
      </trkpt>
      <trkpt lat="43.0630940" lon="-1.2379030">
        <ele>1086.5</ele>
        <time>2019-07-16T12:36:59Z</time>
      </trkpt>
      <trkpt lat="43.0630350" lon="-1.2380060">
        <ele>1087.8</ele>
        <time>2019-07-16T12:37:06Z</time>
      </trkpt>
      <trkpt lat="43.0629850" lon="-1.2381130">
        <ele>1089.0</ele>
        <time>2019-07-16T12:37:13Z</time>
      </trkpt>
      <trkpt lat="43.0629300" lon="-1.2382150">
        <ele>1090.3</ele>
        <time>2019-07-16T12:37:20Z</time>
      </trkpt>
      <trkpt lat="43.0628910" lon="-1.2383310">
        <ele>1091.4</ele>
        <time>2019-07-16T12:37:26Z</time>
      </trkpt>
      <trkpt lat="43.0628850" lon="-1.2384670">
        <ele>1092.7</ele>
        <time>2019-07-16T12:37:33Z</time>
      </trkpt>
      <trkpt lat="43.0628590" lon="-1.2385870">
        <ele>1093.8</ele>
        <time>2019-07-16T12:37:40Z</time>
      </trkpt>
      <trkpt lat="43.0628390" lon="-1.2387160">
        <ele>1094.6</ele>
        <time>2019-07-16T12:37:47Z</time>
      </trkpt>
      <trkpt lat="43.0628090" lon="-1.2388410">
        <ele>1095.2</ele>
        <time>2019-07-16T12:37:53Z</time>
      </trkpt>
      <trkpt lat="43.0627610" lon="-1.2389590">
        <ele>1095.8</ele>
        <time>2019-07-16T12:38:00Z</time>
      </trkpt>
      <trkpt lat="43.0627180" lon="-1.2390820">
        <ele>1096.5</ele>
        <time>2019-07-16T12:38:07Z</time>
      </trkpt>
      <trkpt lat="43.0626640" lon="-1.2391880">
        <ele>1097.3</ele>
        <time>2019-07-16T12:38:14Z</time>
      </trkpt>
      <trkpt lat="43.0626140" lon="-1.2392900">
        <ele>1098.2</ele>
        <time>2019-07-16T12:38:21Z</time>
      </trkpt>
      <trkpt lat="43.0625670" lon="-1.2394040">
        <ele>1098.9</ele>
        <time>2019-07-16T12:38:28Z</time>
      </trkpt>
      <trkpt lat="43.0624950" lon="-1.2394900">
        <ele>1099.9</ele>
        <time>2019-07-16T12:38:35Z</time>
      </trkpt>
      <trkpt lat="43.0624370" lon="-1.2395860">
        <ele>1100.8</ele>
        <time>2019-07-16T12:38:42Z</time>
      </trkpt>
      <trkpt lat="43.0623550" lon="-1.2396560">
        <ele>1101.9</ele>
        <time>2019-07-16T12:38:49Z</time>
      </trkpt>
      <trkpt lat="43.0622950" lon="-1.2397600">
        <ele>1103.0</ele>
        <time>2019-07-16T12:38:56Z</time>
      </trkpt>
      <trkpt lat="43.0622330" lon="-1.2398530">
        <ele>1104.3</ele>
        <time>2019-07-16T12:39:03Z</time>
      </trkpt>
      <trkpt lat="43.0621760" lon="-1.2399570">
        <ele>1105.6</ele>
        <time>2019-07-16T12:39:10Z</time>
      </trkpt>
      <trkpt lat="43.0621220" lon="-1.2400730">
        <ele>1107.0</ele>
        <time>2019-07-16T12:39:16Z</time>
      </trkpt>
      <trkpt lat="43.0620310" lon="-1.2401330">
        <ele>1108.4</ele>
        <time>2019-07-16T12:39:24Z</time>
      </trkpt>
      <trkpt lat="43.0619370" lon="-1.2401710">
        <ele>1109.5</ele>
        <time>2019-07-16T12:39:32Z</time>
      </trkpt>
      <trkpt lat="43.0618990" lon="-1.2401810">
        <ele>1109.8</ele>
        <time>2019-07-16T12:39:39Z</time>
      </trkpt>
      <trkpt lat="43.0617750" lon="-1.2401650">
        <ele>1110.8</ele>
        <time>2019-07-16T13:05:55Z</time>
      </trkpt>
      <trkpt lat="43.0616870" lon="-1.2402260">
        <ele>1111.6</ele>
        <time>2019-07-16T13:06:02Z</time>
      </trkpt>
      <trkpt lat="43.0616270" lon="-1.2403190">
        <ele>1112.4</ele>
        <time>2019-07-16T13:06:08Z</time>
      </trkpt>
      <trkpt lat="43.0615870" lon="-1.2404420">
        <ele>1113.1</ele>
        <time>2019-07-16T13:06:15Z</time>
      </trkpt>
      <trkpt lat="43.0615730" lon="-1.2405670">
        <ele>1114.0</ele>
        <time>2019-07-16T13:06:21Z</time>
      </trkpt>
      <trkpt lat="43.0615760" lon="-1.2406930">
        <ele>1115.1</ele>
        <time>2019-07-16T13:06:28Z</time>
      </trkpt>
      <trkpt lat="43.0615770" lon="-1.2408310">
        <ele>1116.3</ele>
        <time>2019-07-16T13:06:36Z</time>
      </trkpt>
      <trkpt lat="43.0615940" lon="-1.2409640">
        <ele>1117.6</ele>
        <time>2019-07-16T13:06:44Z</time>
      </trkpt>
      <trkpt lat="43.0616050" lon="-1.2410950">
        <ele>1119.0</ele>
        <time>2019-07-16T13:06:52Z</time>
      </trkpt>
      <trkpt lat="43.0616150" lon="-1.2412210">
        <ele>1120.1</ele>
        <time>2019-07-16T13:06:59Z</time>
      </trkpt>
      <trkpt lat="43.0616420" lon="-1.2413450">
        <ele>1121.1</ele>
        <time>2019-07-16T13:07:06Z</time>
      </trkpt>
      <trkpt lat="43.0616660" lon="-1.2414700">
        <ele>1122.0</ele>
        <time>2019-07-16T13:07:13Z</time>
      </trkpt>
      <trkpt lat="43.0616970" lon="-1.2415900">
        <ele>1122.8</ele>
        <time>2019-07-16T13:07:20Z</time>
      </trkpt>
      <trkpt lat="43.0617200" lon="-1.2417220">
        <ele>1123.7</ele>
        <time>2019-07-16T13:07:28Z</time>
      </trkpt>
      <trkpt lat="43.0617370" lon="-1.2418590">
        <ele>1124.5</ele>
        <time>2019-07-16T13:07:36Z</time>
      </trkpt>
      <trkpt lat="43.0617290" lon="-1.2419850">
        <ele>1125.3</ele>
        <time>2019-07-16T13:07:44Z</time>
      </trkpt>
      <trkpt lat="43.0617360" lon="-1.2421110">
        <ele>1126.0</ele>
        <time>2019-07-16T13:07:52Z</time>
      </trkpt>
      <trkpt lat="43.0617330" lon="-1.2422480">
        <ele>1127.0</ele>
        <time>2019-07-16T13:08:00Z</time>
      </trkpt>
      <trkpt lat="43.0617310" lon="-1.2423790">
        <ele>1128.0</ele>
        <time>2019-07-16T13:08:08Z</time>
      </trkpt>
      <trkpt lat="43.0617430" lon="-1.2425200">
        <ele>1128.9</ele>
        <time>2019-07-16T13:08:16Z</time>
      </trkpt>
      <trkpt lat="43.0617500" lon="-1.2426460">
        <ele>1129.9</ele>
        <time>2019-07-16T13:08:23Z</time>
      </trkpt>
      <trkpt lat="43.0617290" lon="-1.2427810">
        <ele>1130.8</ele>
        <time>2019-07-16T13:08:31Z</time>
      </trkpt>
      <trkpt lat="43.0617310" lon="-1.2429070">
        <ele>1131.6</ele>
        <time>2019-07-16T13:08:37Z</time>
      </trkpt>
      <trkpt lat="43.0617400" lon="-1.2430420">
        <ele>1132.4</ele>
        <time>2019-07-16T13:08:44Z</time>
      </trkpt>
      <trkpt lat="43.0617460" lon="-1.2431710">
        <ele>1133.3</ele>
        <time>2019-07-16T13:08:51Z</time>
      </trkpt>
      <trkpt lat="43.0617280" lon="-1.2433100">
        <ele>1134.3</ele>
        <time>2019-07-16T13:08:59Z</time>
      </trkpt>
      <trkpt lat="43.0616910" lon="-1.2434310">
        <ele>1135.2</ele>
        <time>2019-07-16T13:09:07Z</time>
      </trkpt>
      <trkpt lat="43.0616620" lon="-1.2435500">
        <ele>1136.0</ele>
        <time>2019-07-16T13:09:15Z</time>
      </trkpt>
      <trkpt lat="43.0616370" lon="-1.2436840">
        <ele>1136.8</ele>
        <time>2019-07-16T13:09:24Z</time>
      </trkpt>
      <trkpt lat="43.0615990" lon="-1.2438050">
        <ele>1137.7</ele>
        <time>2019-07-16T13:09:31Z</time>
      </trkpt>
      <trkpt lat="43.0615720" lon="-1.2439240">
        <ele>1138.4</ele>
        <time>2019-07-16T13:09:38Z</time>
      </trkpt>
      <trkpt lat="43.0615480" lon="-1.2440540">
        <ele>1139.2</ele>
        <time>2019-07-16T13:09:46Z</time>
      </trkpt>
      <trkpt lat="43.0615200" lon="-1.2441780">
        <ele>1140.1</ele>
        <time>2019-07-16T13:09:54Z</time>
      </trkpt>
      <trkpt lat="43.0614730" lon="-1.2443040">
        <ele>1141.2</ele>
        <time>2019-07-16T13:10:01Z</time>
      </trkpt>
      <trkpt lat="43.0614210" lon="-1.2444110">
        <ele>1142.1</ele>
        <time>2019-07-16T13:10:08Z</time>
      </trkpt>
      <trkpt lat="43.0613360" lon="-1.2444820">
        <ele>1143.2</ele>
        <time>2019-07-16T13:10:15Z</time>
      </trkpt>
      <trkpt lat="43.0612500" lon="-1.2445560">
        <ele>1144.2</ele>
        <time>2019-07-16T13:10:23Z</time>
      </trkpt>
      <trkpt lat="43.0611650" lon="-1.2446120">
        <ele>1145.2</ele>
        <time>2019-07-16T13:10:30Z</time>
      </trkpt>
      <trkpt lat="43.0610710" lon="-1.2446500">
        <ele>1146.5</ele>
        <time>2019-07-16T13:10:38Z</time>
      </trkpt>
      <trkpt lat="43.0609790" lon="-1.2446860">
        <ele>1147.7</ele>
        <time>2019-07-16T13:10:46Z</time>
      </trkpt>
      <trkpt lat="43.0608810" lon="-1.2447120">
        <ele>1149.2</ele>
        <time>2019-07-16T13:10:53Z</time>
      </trkpt>
      <trkpt lat="43.0607840" lon="-1.2446960">
        <ele>1150.6</ele>
        <time>2019-07-16T13:11:01Z</time>
      </trkpt>
      <trkpt lat="43.0606890" lon="-1.2446560">
        <ele>1152.0</ele>
        <time>2019-07-16T13:11:09Z</time>
      </trkpt>
      <trkpt lat="43.0606010" lon="-1.2446260">
        <ele>1153.0</ele>
        <time>2019-07-16T13:11:16Z</time>
      </trkpt>
      <trkpt lat="43.0605150" lon="-1.2445840">
        <ele>1153.8</ele>
        <time>2019-07-16T13:11:23Z</time>
      </trkpt>
      <trkpt lat="43.0604280" lon="-1.2445420">
        <ele>1154.5</ele>
        <time>2019-07-16T13:11:30Z</time>
      </trkpt>
      <trkpt lat="43.0603310" lon="-1.2444940">
        <ele>1155.2</ele>
        <time>2019-07-16T13:11:37Z</time>
      </trkpt>
      <trkpt lat="43.0602390" lon="-1.2444360">
        <ele>1156.0</ele>
        <time>2019-07-16T13:11:45Z</time>
      </trkpt>
      <trkpt lat="43.0601430" lon="-1.2443920">
        <ele>1156.7</ele>
        <time>2019-07-16T13:11:53Z</time>
      </trkpt>
      <trkpt lat="43.0600460" lon="-1.2443770">
        <ele>1157.5</ele>
        <time>2019-07-16T13:12:00Z</time>
      </trkpt>
      <trkpt lat="43.0599580" lon="-1.2443420">
        <ele>1158.2</ele>
        <time>2019-07-16T13:12:08Z</time>
      </trkpt>
      <trkpt lat="43.0598670" lon="-1.2442910">
        <ele>1159.1</ele>
        <time>2019-07-16T13:12:16Z</time>
      </trkpt>
      <trkpt lat="43.0597770" lon="-1.2442530">
        <ele>1160.1</ele>
        <time>2019-07-16T13:12:24Z</time>
      </trkpt>
      <trkpt lat="43.0596820" lon="-1.2442290">
        <ele>1161.1</ele>
        <time>2019-07-16T13:12:32Z</time>
      </trkpt>
      <trkpt lat="43.0595940" lon="-1.2441800">
        <ele>1162.1</ele>
        <time>2019-07-16T13:12:39Z</time>
      </trkpt>
      <trkpt lat="43.0595000" lon="-1.2441440">
        <ele>1163.1</ele>
        <time>2019-07-16T13:12:47Z</time>
      </trkpt>
      <trkpt lat="43.0594050" lon="-1.2441000">
        <ele>1164.1</ele>
        <time>2019-07-16T13:12:55Z</time>
      </trkpt>
      <trkpt lat="43.0593180" lon="-1.2440630">
        <ele>1165.2</ele>
        <time>2019-07-16T13:13:02Z</time>
      </trkpt>
      <trkpt lat="43.0592230" lon="-1.2440430">
        <ele>1166.3</ele>
        <time>2019-07-16T13:13:09Z</time>
      </trkpt>
      <trkpt lat="43.0591300" lon="-1.2439950">
        <ele>1167.5</ele>
        <time>2019-07-16T13:13:17Z</time>
      </trkpt>
      <trkpt lat="43.0590310" lon="-1.2439850">
        <ele>1168.9</ele>
        <time>2019-07-16T13:13:25Z</time>
      </trkpt>
      <trkpt lat="43.0589300" lon="-1.2439820">
        <ele>1170.5</ele>
        <time>2019-07-16T13:13:33Z</time>
      </trkpt>
      <trkpt lat="43.0588380" lon="-1.2439940">
        <ele>1171.8</ele>
        <time>2019-07-16T13:13:40Z</time>
      </trkpt>
      <trkpt lat="43.0587470" lon="-1.2440220">
        <ele>1173.1</ele>
        <time>2019-07-16T13:13:46Z</time>
      </trkpt>
      <trkpt lat="43.0586550" lon="-1.2440390">
        <ele>1174.4</ele>
        <time>2019-07-16T13:13:53Z</time>
      </trkpt>
      <trkpt lat="43.0585610" lon="-1.2440340">
        <ele>1175.6</ele>
        <time>2019-07-16T13:14:00Z</time>
      </trkpt>
      <trkpt lat="43.0584690" lon="-1.2440360">
        <ele>1176.5</ele>
        <time>2019-07-16T13:14:07Z</time>
      </trkpt>
      <trkpt lat="43.0583730" lon="-1.2440780">
        <ele>1177.6</ele>
        <time>2019-07-16T13:14:15Z</time>
      </trkpt>
      <trkpt lat="43.0582940" lon="-1.2441480">
        <ele>1178.6</ele>
        <time>2019-07-16T13:14:22Z</time>
      </trkpt>
      <trkpt lat="43.0582260" lon="-1.2442420">
        <ele>1179.4</ele>
        <time>2019-07-16T13:14:29Z</time>
      </trkpt>
      <trkpt lat="43.0581600" lon="-1.2443420">
        <ele>1180.1</ele>
        <time>2019-07-16T13:14:36Z</time>
      </trkpt>
      <trkpt lat="43.0581320" lon="-1.2444310">
        <ele>1180.6</ele>
        <time>2019-07-16T13:14:45Z</time>
      </trkpt>
      <trkpt lat="43.0581050" lon="-1.2444380">
        <ele>1180.7</ele>
        <time>2019-07-16T13:15:44Z</time>
      </trkpt>
      <trkpt lat="43.0580620" lon="-1.2445620">
        <ele>1181.2</ele>
        <time>2019-07-16T13:16:00Z</time>
      </trkpt>
      <trkpt lat="43.0580280" lon="-1.2446990">
        <ele>1181.7</ele>
        <time>2019-07-16T13:16:05Z</time>
      </trkpt>
      <trkpt lat="43.0580420" lon="-1.2448320">
        <ele>1182.2</ele>
        <time>2019-07-16T13:16:10Z</time>
      </trkpt>
      <trkpt lat="43.0580000" lon="-1.2449530">
        <ele>1182.9</ele>
        <time>2019-07-16T13:16:15Z</time>
      </trkpt>
      <trkpt lat="43.0579550" lon="-1.2450640">
        <ele>1183.7</ele>
        <time>2019-07-16T13:16:22Z</time>
      </trkpt>
      <trkpt lat="43.0578660" lon="-1.2451030">
        <ele>1184.8</ele>
        <time>2019-07-16T13:16:29Z</time>
      </trkpt>
      <trkpt lat="43.0577750" lon="-1.2451150">
        <ele>1185.6</ele>
        <time>2019-07-16T13:16:35Z</time>
      </trkpt>
      <trkpt lat="43.0576730" lon="-1.2451170">
        <ele>1186.3</ele>
        <time>2019-07-16T13:16:43Z</time>
      </trkpt>
      <trkpt lat="43.0575730" lon="-1.2451290">
        <ele>1186.9</ele>
        <time>2019-07-16T13:16:51Z</time>
      </trkpt>
      <trkpt lat="43.0574770" lon="-1.2451230">
        <ele>1187.4</ele>
        <time>2019-07-16T13:16:58Z</time>
      </trkpt>
      <trkpt lat="43.0573750" lon="-1.2451430">
        <ele>1187.9</ele>
        <time>2019-07-16T13:17:05Z</time>
      </trkpt>
      <trkpt lat="43.0572790" lon="-1.2451630">
        <ele>1188.4</ele>
        <time>2019-07-16T13:17:12Z</time>
      </trkpt>
      <trkpt lat="43.0571870" lon="-1.2451960">
        <ele>1189.1</ele>
        <time>2019-07-16T13:17:19Z</time>
      </trkpt>
      <trkpt lat="43.0570930" lon="-1.2452180">
        <ele>1189.9</ele>
        <time>2019-07-16T13:17:26Z</time>
      </trkpt>
      <trkpt lat="43.0569910" lon="-1.2452180">
        <ele>1190.9</ele>
        <time>2019-07-16T13:17:34Z</time>
      </trkpt>
      <trkpt lat="43.0568960" lon="-1.2452300">
        <ele>1191.8</ele>
        <time>2019-07-16T13:17:41Z</time>
      </trkpt>
      <trkpt lat="43.0568050" lon="-1.2452330">
        <ele>1192.5</ele>
        <time>2019-07-16T13:17:48Z</time>
      </trkpt>
      <trkpt lat="43.0567160" lon="-1.2452540">
        <ele>1193.0</ele>
        <time>2019-07-16T13:17:55Z</time>
      </trkpt>
      <trkpt lat="43.0566250" lon="-1.2452950">
        <ele>1193.5</ele>
        <time>2019-07-16T13:18:02Z</time>
      </trkpt>
      <trkpt lat="43.0565430" lon="-1.2453840">
        <ele>1194.2</ele>
        <time>2019-07-16T13:18:09Z</time>
      </trkpt>
      <trkpt lat="43.0564620" lon="-1.2454650">
        <ele>1194.8</ele>
        <time>2019-07-16T13:18:15Z</time>
      </trkpt>
      <trkpt lat="43.0563940" lon="-1.2455530">
        <ele>1195.4</ele>
        <time>2019-07-16T13:18:21Z</time>
      </trkpt>
      <trkpt lat="43.0563210" lon="-1.2456510">
        <ele>1196.0</ele>
        <time>2019-07-16T13:18:27Z</time>
      </trkpt>
      <trkpt lat="43.0562590" lon="-1.2457520">
        <ele>1196.5</ele>
        <time>2019-07-16T13:18:33Z</time>
      </trkpt>
      <trkpt lat="43.0562020" lon="-1.2458540">
        <ele>1197.0</ele>
        <time>2019-07-16T13:18:40Z</time>
      </trkpt>
      <trkpt lat="43.0561760" lon="-1.2459740">
        <ele>1197.3</ele>
        <time>2019-07-16T13:18:47Z</time>
      </trkpt>
      <trkpt lat="43.0561370" lon="-1.2460870">
        <ele>1197.7</ele>
        <time>2019-07-16T13:18:53Z</time>
      </trkpt>
      <trkpt lat="43.0560970" lon="-1.2462080">
        <ele>1198.1</ele>
        <time>2019-07-16T13:19:00Z</time>
      </trkpt>
      <trkpt lat="43.0560570" lon="-1.2463220">
        <ele>1198.5</ele>
        <time>2019-07-16T13:19:06Z</time>
      </trkpt>
      <trkpt lat="43.0559970" lon="-1.2464320">
        <ele>1198.9</ele>
        <time>2019-07-16T13:19:12Z</time>
      </trkpt>
      <trkpt lat="43.0559400" lon="-1.2465300">
        <ele>1199.2</ele>
        <time>2019-07-16T13:19:17Z</time>
      </trkpt>
      <trkpt lat="43.0558630" lon="-1.2466280">
        <ele>1199.6</ele>
        <time>2019-07-16T13:19:24Z</time>
      </trkpt>
      <trkpt lat="43.0557950" lon="-1.2467250">
        <ele>1199.9</ele>
        <time>2019-07-16T13:19:31Z</time>
      </trkpt>
      <trkpt lat="43.0557150" lon="-1.2468080">
        <ele>1200.2</ele>
        <time>2019-07-16T13:19:38Z</time>
      </trkpt>
      <trkpt lat="43.0556380" lon="-1.2468810">
        <ele>1200.5</ele>
        <time>2019-07-16T13:19:44Z</time>
      </trkpt>
      <trkpt lat="43.0555610" lon="-1.2469620">
        <ele>1200.8</ele>
        <time>2019-07-16T13:19:50Z</time>
      </trkpt>
      <trkpt lat="43.0554720" lon="-1.2470120">
        <ele>1201.4</ele>
        <time>2019-07-16T13:19:56Z</time>
      </trkpt>
      <trkpt lat="43.0553880" lon="-1.2470750">
        <ele>1202.0</ele>
        <time>2019-07-16T13:20:02Z</time>
      </trkpt>
      <trkpt lat="43.0553010" lon="-1.2471440">
        <ele>1202.6</ele>
        <time>2019-07-16T13:20:08Z</time>
      </trkpt>
      <trkpt lat="43.0552150" lon="-1.2471970">
        <ele>1203.3</ele>
        <time>2019-07-16T13:20:14Z</time>
      </trkpt>
      <trkpt lat="43.0551220" lon="-1.2472460">
        <ele>1204.0</ele>
        <time>2019-07-16T13:20:20Z</time>
      </trkpt>
      <trkpt lat="43.0550270" lon="-1.2473040">
        <ele>1204.8</ele>
        <time>2019-07-16T13:20:26Z</time>
      </trkpt>
      <trkpt lat="43.0549330" lon="-1.2473490">
        <ele>1205.5</ele>
        <time>2019-07-16T13:20:32Z</time>
      </trkpt>
      <trkpt lat="43.0548370" lon="-1.2473990">
        <ele>1206.1</ele>
        <time>2019-07-16T13:20:38Z</time>
      </trkpt>
      <trkpt lat="43.0547390" lon="-1.2474510">
        <ele>1206.7</ele>
        <time>2019-07-16T13:20:44Z</time>
      </trkpt>
      <trkpt lat="43.0546540" lon="-1.2474940">
        <ele>1207.2</ele>
        <time>2019-07-16T13:20:49Z</time>
      </trkpt>
      <trkpt lat="43.0545650" lon="-1.2475210">
        <ele>1207.7</ele>
        <time>2019-07-16T13:20:54Z</time>
      </trkpt>
      <trkpt lat="43.0544760" lon="-1.2475500">
        <ele>1208.0</ele>
        <time>2019-07-16T13:20:59Z</time>
      </trkpt>
      <trkpt lat="43.0543800" lon="-1.2475680">
        <ele>1208.3</ele>
        <time>2019-07-16T13:21:04Z</time>
      </trkpt>
      <trkpt lat="43.0542830" lon="-1.2475880">
        <ele>1208.5</ele>
        <time>2019-07-16T13:21:09Z</time>
      </trkpt>
      <trkpt lat="43.0541840" lon="-1.2476000">
        <ele>1208.8</ele>
        <time>2019-07-16T13:21:14Z</time>
      </trkpt>
      <trkpt lat="43.0540790" lon="-1.2475990">
        <ele>1209.0</ele>
        <time>2019-07-16T13:21:19Z</time>
      </trkpt>
      <trkpt lat="43.0539690" lon="-1.2475990">
        <ele>1209.1</ele>
        <time>2019-07-16T13:21:25Z</time>
      </trkpt>
      <trkpt lat="43.0538670" lon="-1.2475960">
        <ele>1209.2</ele>
        <time>2019-07-16T13:21:30Z</time>
      </trkpt>
      <trkpt lat="43.0537620" lon="-1.2475840">
        <ele>1209.2</ele>
        <time>2019-07-16T13:21:35Z</time>
      </trkpt>
      <trkpt lat="43.0536690" lon="-1.2475750">
        <ele>1209.2</ele>
        <time>2019-07-16T13:21:40Z</time>
      </trkpt>
      <trkpt lat="43.0536260" lon="-1.2475540">
        <ele>1209.2</ele>
        <time>2019-07-16T13:21:46Z</time>
      </trkpt>
      <trkpt lat="43.0535210" lon="-1.2475700">
        <ele>1209.2</ele>
        <time>2019-07-16T13:22:25Z</time>
      </trkpt>
      <trkpt lat="43.0534170" lon="-1.2475610">
        <ele>1209.3</ele>
        <time>2019-07-16T13:22:29Z</time>
      </trkpt>
      <trkpt lat="43.0532990" lon="-1.2475160">
        <ele>1209.3</ele>
        <time>2019-07-16T13:22:33Z</time>
      </trkpt>
      <trkpt lat="43.0532070" lon="-1.2474950">
        <ele>1209.3</ele>
        <time>2019-07-16T13:22:36Z</time>
      </trkpt>
      <trkpt lat="43.0531090" lon="-1.2474710">
        <ele>1209.3</ele>
        <time>2019-07-16T13:22:39Z</time>
      </trkpt>
      <trkpt lat="43.0530130" lon="-1.2474340">
        <ele>1209.3</ele>
        <time>2019-07-16T13:22:42Z</time>
      </trkpt>
      <trkpt lat="43.0529260" lon="-1.2473930">
        <ele>1209.3</ele>
        <time>2019-07-16T13:22:45Z</time>
      </trkpt>
      <trkpt lat="43.0528340" lon="-1.2473540">
        <ele>1209.3</ele>
        <time>2019-07-16T13:22:48Z</time>
      </trkpt>
      <trkpt lat="43.0527290" lon="-1.2473060">
        <ele>1209.3</ele>
        <time>2019-07-16T13:22:51Z</time>
      </trkpt>
      <trkpt lat="43.0526220" lon="-1.2472500">
        <ele>1209.3</ele>
        <time>2019-07-16T13:22:54Z</time>
      </trkpt>
      <trkpt lat="43.0525190" lon="-1.2471940">
        <ele>1209.3</ele>
        <time>2019-07-16T13:22:57Z</time>
      </trkpt>
      <trkpt lat="43.0524220" lon="-1.2471230">
        <ele>1209.3</ele>
        <time>2019-07-16T13:23:00Z</time>
      </trkpt>
      <trkpt lat="43.0523220" lon="-1.2470450">
        <ele>1209.3</ele>
        <time>2019-07-16T13:23:03Z</time>
      </trkpt>
      <trkpt lat="43.0522160" lon="-1.2469600">
        <ele>1209.3</ele>
        <time>2019-07-16T13:23:06Z</time>
      </trkpt>
      <trkpt lat="43.0521120" lon="-1.2468680">
        <ele>1209.2</ele>
        <time>2019-07-16T13:23:09Z</time>
      </trkpt>
      <trkpt lat="43.0520230" lon="-1.2467820">
        <ele>1209.1</ele>
        <time>2019-07-16T13:23:12Z</time>
      </trkpt>
      <trkpt lat="43.0519550" lon="-1.2466640">
        <ele>1208.9</ele>
        <time>2019-07-16T13:23:15Z</time>
      </trkpt>
      <trkpt lat="43.0519140" lon="-1.2465350">
        <ele>1208.7</ele>
        <time>2019-07-16T13:23:18Z</time>
      </trkpt>
      <trkpt lat="43.0518670" lon="-1.2463730">
        <ele>1208.5</ele>
        <time>2019-07-16T13:23:21Z</time>
      </trkpt>
      <trkpt lat="43.0518170" lon="-1.2462420">
        <ele>1208.3</ele>
        <time>2019-07-16T13:23:23Z</time>
      </trkpt>
      <trkpt lat="43.0517870" lon="-1.2461130">
        <ele>1208.1</ele>
        <time>2019-07-16T13:23:25Z</time>
      </trkpt>
      <trkpt lat="43.0517190" lon="-1.2459940">
        <ele>1207.9</ele>
        <time>2019-07-16T13:23:27Z</time>
      </trkpt>
      <trkpt lat="43.0516660" lon="-1.2458640">
        <ele>1207.6</ele>
        <time>2019-07-16T13:23:29Z</time>
      </trkpt>
      <trkpt lat="43.0516020" lon="-1.2457150">
        <ele>1207.2</ele>
        <time>2019-07-16T13:23:31Z</time>
      </trkpt>
      <trkpt lat="43.0515400" lon="-1.2455740">
        <ele>1206.9</ele>
        <time>2019-07-16T13:23:33Z</time>
      </trkpt>
      <trkpt lat="43.0514750" lon="-1.2454370">
        <ele>1206.7</ele>
        <time>2019-07-16T13:23:35Z</time>
      </trkpt>
      <trkpt lat="43.0514140" lon="-1.2453090">
        <ele>1206.6</ele>
        <time>2019-07-16T13:23:37Z</time>
      </trkpt>
      <trkpt lat="43.0513520" lon="-1.2451920">
        <ele>1206.6</ele>
        <time>2019-07-16T13:23:39Z</time>
      </trkpt>
      <trkpt lat="43.0512930" lon="-1.2450850">
        <ele>1206.6</ele>
        <time>2019-07-16T13:23:41Z</time>
      </trkpt>
      <trkpt lat="43.0512140" lon="-1.2449500">
        <ele>1206.6</ele>
        <time>2019-07-16T13:23:44Z</time>
      </trkpt>
      <trkpt lat="43.0511300" lon="-1.2448570">
        <ele>1206.6</ele>
        <time>2019-07-16T13:23:47Z</time>
      </trkpt>
      <trkpt lat="43.0510280" lon="-1.2447980">
        <ele>1206.6</ele>
        <time>2019-07-16T13:23:51Z</time>
      </trkpt>
      <trkpt lat="43.0509420" lon="-1.2447550">
        <ele>1206.7</ele>
        <time>2019-07-16T13:23:55Z</time>
      </trkpt>
      <trkpt lat="43.0508390" lon="-1.2447150">
        <ele>1206.8</ele>
        <time>2019-07-16T13:24:00Z</time>
      </trkpt>
      <trkpt lat="43.0507430" lon="-1.2447020">
        <ele>1207.2</ele>
        <time>2019-07-16T13:24:05Z</time>
      </trkpt>
      <trkpt lat="43.0506580" lon="-1.2447430">
        <ele>1207.6</ele>
        <time>2019-07-16T13:24:10Z</time>
      </trkpt>
      <trkpt lat="43.0505630" lon="-1.2448070">
        <ele>1208.1</ele>
        <time>2019-07-16T13:24:15Z</time>
      </trkpt>
      <trkpt lat="43.0504820" lon="-1.2448640">
        <ele>1208.6</ele>
        <time>2019-07-16T13:24:20Z</time>
      </trkpt>
      <trkpt lat="43.0503960" lon="-1.2449470">
        <ele>1209.2</ele>
        <time>2019-07-16T13:24:26Z</time>
      </trkpt>
      <trkpt lat="43.0503140" lon="-1.2450000">
        <ele>1209.7</ele>
        <time>2019-07-16T13:24:31Z</time>
      </trkpt>
      <trkpt lat="43.0502370" lon="-1.2450700">
        <ele>1210.1</ele>
        <time>2019-07-16T13:24:36Z</time>
      </trkpt>
      <trkpt lat="43.0501590" lon="-1.2451300">
        <ele>1210.6</ele>
        <time>2019-07-16T13:24:42Z</time>
      </trkpt>
      <trkpt lat="43.0500850" lon="-1.2452090">
        <ele>1211.2</ele>
        <time>2019-07-16T13:24:48Z</time>
      </trkpt>
      <trkpt lat="43.0500110" lon="-1.2452830">
        <ele>1212.0</ele>
        <time>2019-07-16T13:24:54Z</time>
      </trkpt>
      <trkpt lat="43.0499410" lon="-1.2453670">
        <ele>1212.8</ele>
        <time>2019-07-16T13:25:00Z</time>
      </trkpt>
      <trkpt lat="43.0498610" lon="-1.2454560">
        <ele>1213.7</ele>
        <time>2019-07-16T13:25:07Z</time>
      </trkpt>
      <trkpt lat="43.0497900" lon="-1.2455320">
        <ele>1214.7</ele>
        <time>2019-07-16T13:25:13Z</time>
      </trkpt>
      <trkpt lat="43.0497120" lon="-1.2456000">
        <ele>1215.7</ele>
        <time>2019-07-16T13:25:19Z</time>
      </trkpt>
      <trkpt lat="43.0496350" lon="-1.2456710">
        <ele>1216.5</ele>
        <time>2019-07-16T13:25:25Z</time>
      </trkpt>
      <trkpt lat="43.0495680" lon="-1.2457560">
        <ele>1217.2</ele>
        <time>2019-07-16T13:25:31Z</time>
      </trkpt>
      <trkpt lat="43.0494970" lon="-1.2458370">
        <ele>1217.8</ele>
        <time>2019-07-16T13:25:37Z</time>
      </trkpt>
      <trkpt lat="43.0494280" lon="-1.2459180">
        <ele>1218.5</ele>
        <time>2019-07-16T13:25:43Z</time>
      </trkpt>
      <trkpt lat="43.0493540" lon="-1.2459970">
        <ele>1219.2</ele>
        <time>2019-07-16T13:25:49Z</time>
      </trkpt>
      <trkpt lat="43.0492810" lon="-1.2460750">
        <ele>1219.9</ele>
        <time>2019-07-16T13:25:55Z</time>
      </trkpt>
      <trkpt lat="43.0491980" lon="-1.2461520">
        <ele>1220.6</ele>
        <time>2019-07-16T13:26:01Z</time>
      </trkpt>
      <trkpt lat="43.0491030" lon="-1.2462120">
        <ele>1221.3</ele>
        <time>2019-07-16T13:26:07Z</time>
      </trkpt>
      <trkpt lat="43.0490080" lon="-1.2462570">
        <ele>1221.9</ele>
        <time>2019-07-16T13:26:13Z</time>
      </trkpt>
      <trkpt lat="43.0489140" lon="-1.2462920">
        <ele>1222.4</ele>
        <time>2019-07-16T13:26:19Z</time>
      </trkpt>
      <trkpt lat="43.0488150" lon="-1.2463240">
        <ele>1223.0</ele>
        <time>2019-07-16T13:26:26Z</time>
      </trkpt>
      <trkpt lat="43.0487260" lon="-1.2463490">
        <ele>1223.5</ele>
        <time>2019-07-16T13:26:32Z</time>
      </trkpt>
      <trkpt lat="43.0486300" lon="-1.2463840">
        <ele>1224.1</ele>
        <time>2019-07-16T13:26:38Z</time>
      </trkpt>
      <trkpt lat="43.0485290" lon="-1.2464050">
        <ele>1224.6</ele>
        <time>2019-07-16T13:26:44Z</time>
      </trkpt>
      <trkpt lat="43.0484300" lon="-1.2464290">
        <ele>1225.2</ele>
        <time>2019-07-16T13:26:50Z</time>
      </trkpt>
      <trkpt lat="43.0483270" lon="-1.2464470">
        <ele>1225.9</ele>
        <time>2019-07-16T13:26:56Z</time>
      </trkpt>
      <trkpt lat="43.0482270" lon="-1.2464470">
        <ele>1226.6</ele>
        <time>2019-07-16T13:27:02Z</time>
      </trkpt>
      <trkpt lat="43.0481220" lon="-1.2464430">
        <ele>1227.3</ele>
        <time>2019-07-16T13:27:08Z</time>
      </trkpt>
      <trkpt lat="43.0480290" lon="-1.2464350">
        <ele>1227.8</ele>
        <time>2019-07-16T13:27:14Z</time>
      </trkpt>
      <trkpt lat="43.0479330" lon="-1.2464330">
        <ele>1228.2</ele>
        <time>2019-07-16T13:27:20Z</time>
      </trkpt>
      <trkpt lat="43.0478310" lon="-1.2464250">
        <ele>1228.6</ele>
        <time>2019-07-16T13:27:26Z</time>
      </trkpt>
      <trkpt lat="43.0477260" lon="-1.2464040">
        <ele>1228.9</ele>
        <time>2019-07-16T13:27:32Z</time>
      </trkpt>
      <trkpt lat="43.0476230" lon="-1.2464000">
        <ele>1229.1</ele>
        <time>2019-07-16T13:27:37Z</time>
      </trkpt>
      <trkpt lat="43.0475220" lon="-1.2463850">
        <ele>1229.4</ele>
        <time>2019-07-16T13:27:42Z</time>
      </trkpt>
      <trkpt lat="43.0474110" lon="-1.2463660">
        <ele>1229.6</ele>
        <time>2019-07-16T13:27:47Z</time>
      </trkpt>
      <trkpt lat="43.0473130" lon="-1.2463570">
        <ele>1229.8</ele>
        <time>2019-07-16T13:27:51Z</time>
      </trkpt>
      <trkpt lat="43.0471980" lon="-1.2463440">
        <ele>1229.9</ele>
        <time>2019-07-16T13:27:55Z</time>
      </trkpt>
      <trkpt lat="43.0470980" lon="-1.2463280">
        <ele>1230.0</ele>
        <time>2019-07-16T13:27:58Z</time>
      </trkpt>
      <trkpt lat="43.0470010" lon="-1.2463110">
        <ele>1229.9</ele>
        <time>2019-07-16T13:28:01Z</time>
      </trkpt>
      <trkpt lat="43.0469090" lon="-1.2462890">
        <ele>1229.8</ele>
        <time>2019-07-16T13:28:04Z</time>
      </trkpt>
      <trkpt lat="43.0468170" lon="-1.2462750">
        <ele>1229.7</ele>
        <time>2019-07-16T13:28:07Z</time>
      </trkpt>
      <trkpt lat="43.0467170" lon="-1.2462450">
        <ele>1229.4</ele>
        <time>2019-07-16T13:28:10Z</time>
      </trkpt>
      <trkpt lat="43.0466110" lon="-1.2462200">
        <ele>1229.2</ele>
        <time>2019-07-16T13:28:13Z</time>
      </trkpt>
      <trkpt lat="43.0465030" lon="-1.2461870">
        <ele>1228.8</ele>
        <time>2019-07-16T13:28:16Z</time>
      </trkpt>
      <trkpt lat="43.0464000" lon="-1.2461350">
        <ele>1228.6</ele>
        <time>2019-07-16T13:28:19Z</time>
      </trkpt>
      <trkpt lat="43.0463000" lon="-1.2460780">
        <ele>1228.3</ele>
        <time>2019-07-16T13:28:22Z</time>
      </trkpt>
      <trkpt lat="43.0462210" lon="-1.2460030">
        <ele>1228.2</ele>
        <time>2019-07-16T13:28:25Z</time>
      </trkpt>
      <trkpt lat="43.0461290" lon="-1.2459120">
        <ele>1228.1</ele>
        <time>2019-07-16T13:28:29Z</time>
      </trkpt>
      <trkpt lat="43.0460260" lon="-1.2458350">
        <ele>1227.9</ele>
        <time>2019-07-16T13:28:33Z</time>
      </trkpt>
      <trkpt lat="43.0459350" lon="-1.2458150">
        <ele>1227.7</ele>
        <time>2019-07-16T13:28:36Z</time>
      </trkpt>
      <trkpt lat="43.0458390" lon="-1.2458320">
        <ele>1227.6</ele>
        <time>2019-07-16T13:28:39Z</time>
      </trkpt>
      <trkpt lat="43.0457520" lon="-1.2458840">
        <ele>1227.3</ele>
        <time>2019-07-16T13:28:42Z</time>
      </trkpt>
      <trkpt lat="43.0456690" lon="-1.2459430">
        <ele>1227.3</ele>
        <time>2019-07-16T13:28:45Z</time>
      </trkpt>
      <trkpt lat="43.0455840" lon="-1.2459910">
        <ele>1227.2</ele>
        <time>2019-07-16T13:28:48Z</time>
      </trkpt>
      <trkpt lat="43.0454780" lon="-1.2460670">
        <ele>1227.2</ele>
        <time>2019-07-16T13:28:52Z</time>
      </trkpt>
      <trkpt lat="43.0453930" lon="-1.2461110">
        <ele>1227.3</ele>
        <time>2019-07-16T13:28:55Z</time>
      </trkpt>
      <trkpt lat="43.0452820" lon="-1.2461670">
        <ele>1227.4</ele>
        <time>2019-07-16T13:28:59Z</time>
      </trkpt>
      <trkpt lat="43.0451710" lon="-1.2462180">
        <ele>1227.6</ele>
        <time>2019-07-16T13:29:03Z</time>
      </trkpt>
      <trkpt lat="43.0450620" lon="-1.2462820">
        <ele>1228.0</ele>
        <time>2019-07-16T13:29:07Z</time>
      </trkpt>
      <trkpt lat="43.0449630" lon="-1.2463350">
        <ele>1228.3</ele>
        <time>2019-07-16T13:29:11Z</time>
      </trkpt>
      <trkpt lat="43.0448680" lon="-1.2463970">
        <ele>1228.6</ele>
        <time>2019-07-16T13:29:15Z</time>
      </trkpt>
      <trkpt lat="43.0447680" lon="-1.2464650">
        <ele>1228.9</ele>
        <time>2019-07-16T13:29:19Z</time>
      </trkpt>
      <trkpt lat="43.0446700" lon="-1.2465320">
        <ele>1229.2</ele>
        <time>2019-07-16T13:29:23Z</time>
      </trkpt>
      <trkpt lat="43.0445760" lon="-1.2466110">
        <ele>1229.4</ele>
        <time>2019-07-16T13:29:27Z</time>
      </trkpt>
      <trkpt lat="43.0444840" lon="-1.2466830">
        <ele>1229.6</ele>
        <time>2019-07-16T13:29:31Z</time>
      </trkpt>
      <trkpt lat="43.0443970" lon="-1.2467680">
        <ele>1229.8</ele>
        <time>2019-07-16T13:29:35Z</time>
      </trkpt>
      <trkpt lat="43.0443070" lon="-1.2468420">
        <ele>1230.1</ele>
        <time>2019-07-16T13:29:39Z</time>
      </trkpt>
      <trkpt lat="43.0442270" lon="-1.2469270">
        <ele>1230.3</ele>
        <time>2019-07-16T13:29:43Z</time>
      </trkpt>
      <trkpt lat="43.0441390" lon="-1.2469940">
        <ele>1230.5</ele>
        <time>2019-07-16T13:29:47Z</time>
      </trkpt>
      <trkpt lat="43.0440530" lon="-1.2470630">
        <ele>1230.8</ele>
        <time>2019-07-16T13:29:51Z</time>
      </trkpt>
      <trkpt lat="43.0439750" lon="-1.2471420">
        <ele>1231.1</ele>
        <time>2019-07-16T13:29:55Z</time>
      </trkpt>
      <trkpt lat="43.0438890" lon="-1.2472340">
        <ele>1231.3</ele>
        <time>2019-07-16T13:29:59Z</time>
      </trkpt>
      <trkpt lat="43.0438200" lon="-1.2473230">
        <ele>1231.4</ele>
        <time>2019-07-16T13:30:03Z</time>
      </trkpt>
      <trkpt lat="43.0437450" lon="-1.2474090">
        <ele>1231.4</ele>
        <time>2019-07-16T13:30:07Z</time>
      </trkpt>
      <trkpt lat="43.0436730" lon="-1.2474910">
        <ele>1231.6</ele>
        <time>2019-07-16T13:30:11Z</time>
      </trkpt>
      <trkpt lat="43.0435950" lon="-1.2475750">
        <ele>1231.7</ele>
        <time>2019-07-16T13:30:15Z</time>
      </trkpt>
      <trkpt lat="43.0435150" lon="-1.2476670">
        <ele>1231.9</ele>
        <time>2019-07-16T13:30:19Z</time>
      </trkpt>
      <trkpt lat="43.0434320" lon="-1.2477600">
        <ele>1232.1</ele>
        <time>2019-07-16T13:30:23Z</time>
      </trkpt>
      <trkpt lat="43.0433500" lon="-1.2478590">
        <ele>1232.2</ele>
        <time>2019-07-16T13:30:27Z</time>
      </trkpt>
      <trkpt lat="43.0432780" lon="-1.2479740">
        <ele>1232.3</ele>
        <time>2019-07-16T13:30:31Z</time>
      </trkpt>
      <trkpt lat="43.0432280" lon="-1.2481040">
        <ele>1232.2</ele>
        <time>2019-07-16T13:30:35Z</time>
      </trkpt>
      <trkpt lat="43.0432000" lon="-1.2482550">
        <ele>1231.8</ele>
        <time>2019-07-16T13:30:39Z</time>
      </trkpt>
      <trkpt lat="43.0431830" lon="-1.2484080">
        <ele>1231.7</ele>
        <time>2019-07-16T13:30:43Z</time>
      </trkpt>
      <trkpt lat="43.0431690" lon="-1.2485470">
        <ele>1232.4</ele>
        <time>2019-07-16T13:30:47Z</time>
      </trkpt>
      <trkpt lat="43.0430880" lon="-1.2486270">
        <ele>1233.5</ele>
        <time>2019-07-16T13:30:52Z</time>
      </trkpt>
      <trkpt lat="43.0430370" lon="-1.2484950">
        <ele>1233.8</ele>
        <time>2019-07-16T13:30:58Z</time>
      </trkpt>
      <trkpt lat="43.0430140" lon="-1.2483680">
        <ele>1234.0</ele>
        <time>2019-07-16T13:31:03Z</time>
      </trkpt>
      <trkpt lat="43.0429530" lon="-1.2482540">
        <ele>1234.3</ele>
        <time>2019-07-16T13:31:08Z</time>
      </trkpt>
      <trkpt lat="43.0429030" lon="-1.2481260">
        <ele>1234.6</ele>
        <time>2019-07-16T13:31:14Z</time>
      </trkpt>
      <trkpt lat="43.0428520" lon="-1.2480160">
        <ele>1234.7</ele>
        <time>2019-07-16T13:31:19Z</time>
      </trkpt>
      <trkpt lat="43.0428090" lon="-1.2478950">
        <ele>1234.9</ele>
        <time>2019-07-16T13:31:24Z</time>
      </trkpt>
      <trkpt lat="43.0427480" lon="-1.2477900">
        <ele>1235.1</ele>
        <time>2019-07-16T13:31:29Z</time>
      </trkpt>
      <trkpt lat="43.0426940" lon="-1.2476750">
        <ele>1235.2</ele>
        <time>2019-07-16T13:31:35Z</time>
      </trkpt>
      <trkpt lat="43.0426680" lon="-1.2476380">
        <ele>1235.3</ele>
        <time>2019-07-16T13:31:42Z</time>
      </trkpt>
      <trkpt lat="43.0426070" lon="-1.2475950">
        <ele>1235.3</ele>
        <time>2019-07-16T13:31:55Z</time>
      </trkpt>
      <trkpt lat="43.0426690" lon="-1.2477000">
        <ele>1235.3</ele>
        <time>2019-07-16T13:41:16Z</time>
      </trkpt>
      <trkpt lat="43.0427240" lon="-1.2478060">
        <ele>1235.1</ele>
        <time>2019-07-16T13:41:21Z</time>
      </trkpt>
      <trkpt lat="43.0427720" lon="-1.2479370">
        <ele>1234.9</ele>
        <time>2019-07-16T13:41:27Z</time>
      </trkpt>
      <trkpt lat="43.0428230" lon="-1.2480560">
        <ele>1234.7</ele>
        <time>2019-07-16T13:41:32Z</time>
      </trkpt>
      <trkpt lat="43.0428800" lon="-1.2481770">
        <ele>1234.5</ele>
        <time>2019-07-16T13:41:37Z</time>
      </trkpt>
      <trkpt lat="43.0429280" lon="-1.2482850">
        <ele>1234.3</ele>
        <time>2019-07-16T13:41:41Z</time>
      </trkpt>
      <trkpt lat="43.0429750" lon="-1.2483950">
        <ele>1234.1</ele>
        <time>2019-07-16T13:41:46Z</time>
      </trkpt>
      <trkpt lat="43.0430220" lon="-1.2485110">
        <ele>1233.8</ele>
        <time>2019-07-16T13:41:51Z</time>
      </trkpt>
      <trkpt lat="43.0430530" lon="-1.2486290">
        <ele>1233.6</ele>
        <time>2019-07-16T13:41:57Z</time>
      </trkpt>
      <trkpt lat="43.0431230" lon="-1.2487080">
        <ele>1233.3</ele>
        <time>2019-07-16T13:42:02Z</time>
      </trkpt>
      <trkpt lat="43.0431740" lon="-1.2488220">
        <ele>1233.4</ele>
        <time>2019-07-16T13:42:06Z</time>
      </trkpt>
      <trkpt lat="43.0432380" lon="-1.2489530">
        <ele>1233.6</ele>
        <time>2019-07-16T13:42:10Z</time>
      </trkpt>
      <trkpt lat="43.0433070" lon="-1.2490870">
        <ele>1233.8</ele>
        <time>2019-07-16T13:42:14Z</time>
      </trkpt>
      <trkpt lat="43.0433600" lon="-1.2491970">
        <ele>1234.0</ele>
        <time>2019-07-16T13:42:17Z</time>
      </trkpt>
      <trkpt lat="43.0434140" lon="-1.2493110">
        <ele>1234.1</ele>
        <time>2019-07-16T13:42:20Z</time>
      </trkpt>
      <trkpt lat="43.0434650" lon="-1.2494350">
        <ele>1234.3</ele>
        <time>2019-07-16T13:42:23Z</time>
      </trkpt>
      <trkpt lat="43.0435140" lon="-1.2495560">
        <ele>1234.4</ele>
        <time>2019-07-16T13:42:26Z</time>
      </trkpt>
      <trkpt lat="43.0435580" lon="-1.2496780">
        <ele>1234.5</ele>
        <time>2019-07-16T13:42:29Z</time>
      </trkpt>
      <trkpt lat="43.0436040" lon="-1.2498050">
        <ele>1234.6</ele>
        <time>2019-07-16T13:42:32Z</time>
      </trkpt>
      <trkpt lat="43.0436520" lon="-1.2499340">
        <ele>1234.8</ele>
        <time>2019-07-16T13:42:35Z</time>
      </trkpt>
      <trkpt lat="43.0436970" lon="-1.2500630">
        <ele>1234.9</ele>
        <time>2019-07-16T13:42:38Z</time>
      </trkpt>
      <trkpt lat="43.0437390" lon="-1.2501880">
        <ele>1235.0</ele>
        <time>2019-07-16T13:42:41Z</time>
      </trkpt>
      <trkpt lat="43.0437630" lon="-1.2503140">
        <ele>1235.1</ele>
        <time>2019-07-16T13:42:44Z</time>
      </trkpt>
      <trkpt lat="43.0437960" lon="-1.2504370">
        <ele>1235.2</ele>
        <time>2019-07-16T13:42:47Z</time>
      </trkpt>
      <trkpt lat="43.0438350" lon="-1.2505530">
        <ele>1235.3</ele>
        <time>2019-07-16T13:42:50Z</time>
      </trkpt>
      <trkpt lat="43.0438720" lon="-1.2506790">
        <ele>1235.4</ele>
        <time>2019-07-16T13:42:53Z</time>
      </trkpt>
      <trkpt lat="43.0439090" lon="-1.2508150">
        <ele>1235.5</ele>
        <time>2019-07-16T13:42:56Z</time>
      </trkpt>
      <trkpt lat="43.0439450" lon="-1.2509560">
        <ele>1235.6</ele>
        <time>2019-07-16T13:42:59Z</time>
      </trkpt>
      <trkpt lat="43.0439800" lon="-1.2511110">
        <ele>1235.7</ele>
        <time>2019-07-16T13:43:02Z</time>
      </trkpt>
      <trkpt lat="43.0440250" lon="-1.2512630">
        <ele>1235.8</ele>
        <time>2019-07-16T13:43:05Z</time>
      </trkpt>
      <trkpt lat="43.0440710" lon="-1.2514180">
        <ele>1235.9</ele>
        <time>2019-07-16T13:43:08Z</time>
      </trkpt>
      <trkpt lat="43.0441130" lon="-1.2515820">
        <ele>1236.0</ele>
        <time>2019-07-16T13:43:11Z</time>
      </trkpt>
      <trkpt lat="43.0441610" lon="-1.2517540">
        <ele>1236.1</ele>
        <time>2019-07-16T13:43:14Z</time>
      </trkpt>
      <trkpt lat="43.0441980" lon="-1.2518670">
        <ele>1236.2</ele>
        <time>2019-07-16T13:43:16Z</time>
      </trkpt>
      <trkpt lat="43.0442500" lon="-1.2520250">
        <ele>1236.2</ele>
        <time>2019-07-16T13:43:19Z</time>
      </trkpt>
      <trkpt lat="43.0443110" lon="-1.2521730">
        <ele>1236.3</ele>
        <time>2019-07-16T13:43:22Z</time>
      </trkpt>
      <trkpt lat="43.0443740" lon="-1.2523120">
        <ele>1236.4</ele>
        <time>2019-07-16T13:43:25Z</time>
      </trkpt>
      <trkpt lat="43.0444470" lon="-1.2524390">
        <ele>1236.5</ele>
        <time>2019-07-16T13:43:28Z</time>
      </trkpt>
      <trkpt lat="43.0445120" lon="-1.2525600">
        <ele>1236.6</ele>
        <time>2019-07-16T13:43:31Z</time>
      </trkpt>
      <trkpt lat="43.0445740" lon="-1.2526780">
        <ele>1236.7</ele>
        <time>2019-07-16T13:43:34Z</time>
      </trkpt>
      <trkpt lat="43.0446270" lon="-1.2528000">
        <ele>1236.7</ele>
        <time>2019-07-16T13:43:37Z</time>
      </trkpt>
      <trkpt lat="43.0446870" lon="-1.2529230">
        <ele>1236.8</ele>
        <time>2019-07-16T13:43:40Z</time>
      </trkpt>
      <trkpt lat="43.0447410" lon="-1.2530460">
        <ele>1236.9</ele>
        <time>2019-07-16T13:43:43Z</time>
      </trkpt>
      <trkpt lat="43.0448020" lon="-1.2531710">
        <ele>1237.0</ele>
        <time>2019-07-16T13:43:46Z</time>
      </trkpt>
      <trkpt lat="43.0448590" lon="-1.2533000">
        <ele>1237.1</ele>
        <time>2019-07-16T13:43:49Z</time>
      </trkpt>
      <trkpt lat="43.0449080" lon="-1.2534330">
        <ele>1237.1</ele>
        <time>2019-07-16T13:43:52Z</time>
      </trkpt>
      <trkpt lat="43.0449440" lon="-1.2535520">
        <ele>1237.2</ele>
        <time>2019-07-16T13:43:55Z</time>
      </trkpt>
      <trkpt lat="43.0449850" lon="-1.2536820">
        <ele>1237.3</ele>
        <time>2019-07-16T13:43:58Z</time>
      </trkpt>
      <trkpt lat="43.0450240" lon="-1.2538230">
        <ele>1237.3</ele>
        <time>2019-07-16T13:44:01Z</time>
      </trkpt>
      <trkpt lat="43.0450620" lon="-1.2539680">
        <ele>1237.4</ele>
        <time>2019-07-16T13:44:04Z</time>
      </trkpt>
      <trkpt lat="43.0451030" lon="-1.2541230">
        <ele>1237.5</ele>
        <time>2019-07-16T13:44:07Z</time>
      </trkpt>
      <trkpt lat="43.0451510" lon="-1.2542900">
        <ele>1237.6</ele>
        <time>2019-07-16T13:44:10Z</time>
      </trkpt>
      <trkpt lat="43.0451940" lon="-1.2544000">
        <ele>1237.6</ele>
        <time>2019-07-16T13:44:12Z</time>
      </trkpt>
      <trkpt lat="43.0452390" lon="-1.2545140">
        <ele>1237.7</ele>
        <time>2019-07-16T13:44:14Z</time>
      </trkpt>
      <trkpt lat="43.0452940" lon="-1.2546250">
        <ele>1237.7</ele>
        <time>2019-07-16T13:44:16Z</time>
      </trkpt>
      <trkpt lat="43.0453540" lon="-1.2547300">
        <ele>1237.7</ele>
        <time>2019-07-16T13:44:18Z</time>
      </trkpt>
      <trkpt lat="43.0454170" lon="-1.2548350">
        <ele>1237.8</ele>
        <time>2019-07-16T13:44:20Z</time>
      </trkpt>
      <trkpt lat="43.0454820" lon="-1.2549320">
        <ele>1237.8</ele>
        <time>2019-07-16T13:44:22Z</time>
      </trkpt>
      <trkpt lat="43.0455450" lon="-1.2550360">
        <ele>1237.8</ele>
        <time>2019-07-16T13:44:24Z</time>
      </trkpt>
      <trkpt lat="43.0456020" lon="-1.2551970">
        <ele>1237.9</ele>
        <time>2019-07-16T13:44:27Z</time>
      </trkpt>
      <trkpt lat="43.0456430" lon="-1.2553520">
        <ele>1237.9</ele>
        <time>2019-07-16T13:44:30Z</time>
      </trkpt>
      <trkpt lat="43.0456740" lon="-1.2554810">
        <ele>1237.9</ele>
        <time>2019-07-16T13:44:33Z</time>
      </trkpt>
      <trkpt lat="43.0457130" lon="-1.2556100">
        <ele>1238.0</ele>
        <time>2019-07-16T13:44:37Z</time>
      </trkpt>
      <trkpt lat="43.0457280" lon="-1.2557540">
        <ele>1238.0</ele>
        <time>2019-07-16T13:44:42Z</time>
      </trkpt>
      <trkpt lat="43.0457420" lon="-1.2558890">
        <ele>1238.0</ele>
        <time>2019-07-16T13:44:47Z</time>
      </trkpt>
      <trkpt lat="43.0457700" lon="-1.2560210">
        <ele>1238.1</ele>
        <time>2019-07-16T13:44:52Z</time>
      </trkpt>
      <trkpt lat="43.0458130" lon="-1.2561500">
        <ele>1238.1</ele>
        <time>2019-07-16T13:44:57Z</time>
      </trkpt>
      <trkpt lat="43.0458270" lon="-1.2561790">
        <ele>1238.1</ele>
        <time>2019-07-16T13:45:04Z</time>
      </trkpt>
      <trkpt lat="43.0458620" lon="-1.2562980">
        <ele>1238.2</ele>
        <time>2019-07-16T13:45:22Z</time>
      </trkpt>
      <trkpt lat="43.0458580" lon="-1.2563680">
        <ele>1238.2</ele>
        <time>2019-07-16T13:45:33Z</time>
      </trkpt>
      <trkpt lat="43.0458890" lon="-1.2564850">
        <ele>1238.3</ele>
        <time>2019-07-16T13:45:39Z</time>
      </trkpt>
      <trkpt lat="43.0459460" lon="-1.2566140">
        <ele>1238.4</ele>
        <time>2019-07-16T13:45:44Z</time>
      </trkpt>
      <trkpt lat="43.0460070" lon="-1.2567130">
        <ele>1238.5</ele>
        <time>2019-07-16T13:45:48Z</time>
      </trkpt>
      <trkpt lat="43.0460960" lon="-1.2567780">
        <ele>1238.6</ele>
        <time>2019-07-16T13:45:52Z</time>
      </trkpt>
      <trkpt lat="43.0461910" lon="-1.2568060">
        <ele>1238.7</ele>
        <time>2019-07-16T13:45:56Z</time>
      </trkpt>
      <trkpt lat="43.0462830" lon="-1.2568370">
        <ele>1238.8</ele>
        <time>2019-07-16T13:46:00Z</time>
      </trkpt>
      <trkpt lat="43.0463720" lon="-1.2568820">
        <ele>1239.0</ele>
        <time>2019-07-16T13:46:04Z</time>
      </trkpt>
      <trkpt lat="43.0464690" lon="-1.2569590">
        <ele>1239.1</ele>
        <time>2019-07-16T13:46:08Z</time>
      </trkpt>
      <trkpt lat="43.0465520" lon="-1.2570420">
        <ele>1239.2</ele>
        <time>2019-07-16T13:46:11Z</time>
      </trkpt>
      <trkpt lat="43.0466530" lon="-1.2571460">
        <ele>1239.3</ele>
        <time>2019-07-16T13:46:14Z</time>
      </trkpt>
      <trkpt lat="43.0467270" lon="-1.2572240">
        <ele>1239.4</ele>
        <time>2019-07-16T13:46:16Z</time>
      </trkpt>
      <trkpt lat="43.0468090" lon="-1.2573230">
        <ele>1239.5</ele>
        <time>2019-07-16T13:46:18Z</time>
      </trkpt>
      <trkpt lat="43.0468840" lon="-1.2574520">
        <ele>1239.6</ele>
        <time>2019-07-16T13:46:20Z</time>
      </trkpt>
      <trkpt lat="43.0469570" lon="-1.2576130">
        <ele>1239.7</ele>
        <time>2019-07-16T13:46:22Z</time>
      </trkpt>
      <trkpt lat="43.0470440" lon="-1.2577780">
        <ele>1239.8</ele>
        <time>2019-07-16T13:46:24Z</time>
      </trkpt>
      <trkpt lat="43.0471740" lon="-1.2579110">
        <ele>1239.9</ele>
        <time>2019-07-16T13:46:26Z</time>
      </trkpt>
      <trkpt lat="43.0473430" lon="-1.2579910">
        <ele>1239.9</ele>
        <time>2019-07-16T13:46:28Z</time>
      </trkpt>
      <trkpt lat="43.0474380" lon="-1.2580130">
        <ele>1239.9</ele>
        <time>2019-07-16T13:46:29Z</time>
      </trkpt>
      <trkpt lat="43.0475340" lon="-1.2580320">
        <ele>1240.0</ele>
        <time>2019-07-16T13:46:30Z</time>
      </trkpt>
      <trkpt lat="43.0476310" lon="-1.2580510">
        <ele>1240.0</ele>
        <time>2019-07-16T13:46:31Z</time>
      </trkpt>
      <trkpt lat="43.0477230" lon="-1.2580800">
        <ele>1240.0</ele>
        <time>2019-07-16T13:46:32Z</time>
      </trkpt>
      <trkpt lat="43.0478120" lon="-1.2581010">
        <ele>1239.9</ele>
        <time>2019-07-16T13:46:33Z</time>
      </trkpt>
      <trkpt lat="43.0479810" lon="-1.2581360">
        <ele>1239.9</ele>
        <time>2019-07-16T13:46:35Z</time>
      </trkpt>
      <trkpt lat="43.0481320" lon="-1.2581800">
        <ele>1239.9</ele>
        <time>2019-07-16T13:46:37Z</time>
      </trkpt>
      <trkpt lat="43.0482490" lon="-1.2582590">
        <ele>1239.9</ele>
        <time>2019-07-16T13:46:39Z</time>
      </trkpt>
      <trkpt lat="43.0483490" lon="-1.2583810">
        <ele>1239.8</ele>
        <time>2019-07-16T13:46:41Z</time>
      </trkpt>
      <trkpt lat="43.0484180" lon="-1.2585190">
        <ele>1239.8</ele>
        <time>2019-07-16T13:46:43Z</time>
      </trkpt>
      <trkpt lat="43.0484540" lon="-1.2586620">
        <ele>1239.8</ele>
        <time>2019-07-16T13:46:45Z</time>
      </trkpt>
      <trkpt lat="43.0484850" lon="-1.2588010">
        <ele>1239.7</ele>
        <time>2019-07-16T13:46:47Z</time>
      </trkpt>
      <trkpt lat="43.0485120" lon="-1.2589440">
        <ele>1239.7</ele>
        <time>2019-07-16T13:46:49Z</time>
      </trkpt>
      <trkpt lat="43.0485370" lon="-1.2590850">
        <ele>1239.6</ele>
        <time>2019-07-16T13:46:51Z</time>
      </trkpt>
      <trkpt lat="43.0485670" lon="-1.2592290">
        <ele>1239.6</ele>
        <time>2019-07-16T13:46:53Z</time>
      </trkpt>
      <trkpt lat="43.0486190" lon="-1.2593500">
        <ele>1239.6</ele>
        <time>2019-07-16T13:46:55Z</time>
      </trkpt>
      <trkpt lat="43.0487310" lon="-1.2594270">
        <ele>1239.6</ele>
        <time>2019-07-16T13:46:58Z</time>
      </trkpt>
      <trkpt lat="43.0488560" lon="-1.2593960">
        <ele>1239.6</ele>
        <time>2019-07-16T13:47:01Z</time>
      </trkpt>
      <trkpt lat="43.0489410" lon="-1.2593490">
        <ele>1239.6</ele>
        <time>2019-07-16T13:47:03Z</time>
      </trkpt>
      <trkpt lat="43.0490560" lon="-1.2592680">
        <ele>1239.7</ele>
        <time>2019-07-16T13:47:06Z</time>
      </trkpt>
      <trkpt lat="43.0491680" lon="-1.2592130">
        <ele>1239.6</ele>
        <time>2019-07-16T13:47:09Z</time>
      </trkpt>
      <trkpt lat="43.0492950" lon="-1.2591840">
        <ele>1239.5</ele>
        <time>2019-07-16T13:47:12Z</time>
      </trkpt>
      <trkpt lat="43.0493880" lon="-1.2591180">
        <ele>1239.4</ele>
        <time>2019-07-16T13:47:15Z</time>
      </trkpt>
      <trkpt lat="43.0494710" lon="-1.2590510">
        <ele>1239.3</ele>
        <time>2019-07-16T13:47:18Z</time>
      </trkpt>
      <trkpt lat="43.0495570" lon="-1.2589850">
        <ele>1239.2</ele>
        <time>2019-07-16T13:47:21Z</time>
      </trkpt>
      <trkpt lat="43.0496540" lon="-1.2589070">
        <ele>1239.1</ele>
        <time>2019-07-16T13:47:25Z</time>
      </trkpt>
      <trkpt lat="43.0497390" lon="-1.2588550">
        <ele>1239.1</ele>
        <time>2019-07-16T13:47:29Z</time>
      </trkpt>
      <trkpt lat="43.0498230" lon="-1.2588040">
        <ele>1239.1</ele>
        <time>2019-07-16T13:47:33Z</time>
      </trkpt>
      <trkpt lat="43.0499160" lon="-1.2587670">
        <ele>1239.3</ele>
        <time>2019-07-16T13:47:37Z</time>
      </trkpt>
      <trkpt lat="43.0500140" lon="-1.2587510">
        <ele>1239.4</ele>
        <time>2019-07-16T13:47:41Z</time>
      </trkpt>
      <trkpt lat="43.0501230" lon="-1.2587410">
        <ele>1239.5</ele>
        <time>2019-07-16T13:47:45Z</time>
      </trkpt>
      <trkpt lat="43.0502410" lon="-1.2587470">
        <ele>1239.5</ele>
        <time>2019-07-16T13:47:49Z</time>
      </trkpt>
      <trkpt lat="43.0503360" lon="-1.2587230">
        <ele>1239.3</ele>
        <time>2019-07-16T13:47:52Z</time>
      </trkpt>
      <trkpt lat="43.0504340" lon="-1.2586450">
        <ele>1238.9</ele>
        <time>2019-07-16T13:47:56Z</time>
      </trkpt>
      <trkpt lat="43.0505110" lon="-1.2585440">
        <ele>1238.6</ele>
        <time>2019-07-16T13:48:00Z</time>
      </trkpt>
      <trkpt lat="43.0505930" lon="-1.2584430">
        <ele>1238.4</ele>
        <time>2019-07-16T13:48:04Z</time>
      </trkpt>
      <trkpt lat="43.0506950" lon="-1.2583710">
        <ele>1238.1</ele>
        <time>2019-07-16T13:48:08Z</time>
      </trkpt>
      <trkpt lat="43.0507980" lon="-1.2583230">
        <ele>1237.9</ele>
        <time>2019-07-16T13:48:12Z</time>
      </trkpt>
      <trkpt lat="43.0509160" lon="-1.2582890">
        <ele>1237.8</ele>
        <time>2019-07-16T13:48:16Z</time>
      </trkpt>
      <trkpt lat="43.0510120" lon="-1.2582720">
        <ele>1237.7</ele>
        <time>2019-07-16T13:48:19Z</time>
      </trkpt>
      <trkpt lat="43.0511290" lon="-1.2582730">
        <ele>1237.6</ele>
        <time>2019-07-16T13:48:23Z</time>
      </trkpt>
      <trkpt lat="43.0512380" lon="-1.2582730">
        <ele>1237.5</ele>
        <time>2019-07-16T13:48:27Z</time>
      </trkpt>
      <trkpt lat="43.0513470" lon="-1.2582670">
        <ele>1237.5</ele>
        <time>2019-07-16T13:48:31Z</time>
      </trkpt>
      <trkpt lat="43.0514580" lon="-1.2582650">
        <ele>1237.5</ele>
        <time>2019-07-16T13:48:35Z</time>
      </trkpt>
      <trkpt lat="43.0515600" lon="-1.2582810">
        <ele>1237.5</ele>
        <time>2019-07-16T13:48:39Z</time>
      </trkpt>
      <trkpt lat="43.0516630" lon="-1.2582950">
        <ele>1237.4</ele>
        <time>2019-07-16T13:48:43Z</time>
      </trkpt>
      <trkpt lat="43.0517690" lon="-1.2583180">
        <ele>1237.4</ele>
        <time>2019-07-16T13:48:47Z</time>
      </trkpt>
      <trkpt lat="43.0518670" lon="-1.2583440">
        <ele>1237.4</ele>
        <time>2019-07-16T13:48:51Z</time>
      </trkpt>
      <trkpt lat="43.0519650" lon="-1.2583750">
        <ele>1237.3</ele>
        <time>2019-07-16T13:48:55Z</time>
      </trkpt>
      <trkpt lat="43.0520570" lon="-1.2584010">
        <ele>1237.2</ele>
        <time>2019-07-16T13:48:59Z</time>
      </trkpt>
      <trkpt lat="43.0521700" lon="-1.2584280">
        <ele>1237.2</ele>
        <time>2019-07-16T13:49:03Z</time>
      </trkpt>
      <trkpt lat="43.0522740" lon="-1.2584580">
        <ele>1237.0</ele>
        <time>2019-07-16T13:49:07Z</time>
      </trkpt>
      <trkpt lat="43.0523830" lon="-1.2584930">
        <ele>1236.9</ele>
        <time>2019-07-16T13:49:11Z</time>
      </trkpt>
      <trkpt lat="43.0524710" lon="-1.2585200">
        <ele>1236.8</ele>
        <time>2019-07-16T13:49:14Z</time>
      </trkpt>
      <trkpt lat="43.0525740" lon="-1.2585460">
        <ele>1236.7</ele>
        <time>2019-07-16T13:49:17Z</time>
      </trkpt>
      <trkpt lat="43.0526810" lon="-1.2585750">
        <ele>1236.7</ele>
        <time>2019-07-16T13:49:20Z</time>
      </trkpt>
      <trkpt lat="43.0527830" lon="-1.2585980">
        <ele>1236.8</ele>
        <time>2019-07-16T13:49:23Z</time>
      </trkpt>
      <trkpt lat="43.0528830" lon="-1.2586200">
        <ele>1236.9</ele>
        <time>2019-07-16T13:49:26Z</time>
      </trkpt>
      <trkpt lat="43.0529770" lon="-1.2586500">
        <ele>1237.1</ele>
        <time>2019-07-16T13:49:29Z</time>
      </trkpt>
      <trkpt lat="43.0530640" lon="-1.2586940">
        <ele>1237.2</ele>
        <time>2019-07-16T13:49:32Z</time>
      </trkpt>
      <trkpt lat="43.0531660" lon="-1.2587720">
        <ele>1237.3</ele>
        <time>2019-07-16T13:49:36Z</time>
      </trkpt>
      <trkpt lat="43.0532420" lon="-1.2588480">
        <ele>1237.4</ele>
        <time>2019-07-16T13:49:40Z</time>
      </trkpt>
      <trkpt lat="43.0533050" lon="-1.2589360">
        <ele>1237.5</ele>
        <time>2019-07-16T13:49:44Z</time>
      </trkpt>
      <trkpt lat="43.0533730" lon="-1.2590230">
        <ele>1237.5</ele>
        <time>2019-07-16T13:49:48Z</time>
      </trkpt>
      <trkpt lat="43.0534350" lon="-1.2591280">
        <ele>1237.4</ele>
        <time>2019-07-16T13:49:52Z</time>
      </trkpt>
      <trkpt lat="43.0534920" lon="-1.2592390">
        <ele>1237.4</ele>
        <time>2019-07-16T13:49:56Z</time>
      </trkpt>
      <trkpt lat="43.0535440" lon="-1.2593660">
        <ele>1237.2</ele>
        <time>2019-07-16T13:50:00Z</time>
      </trkpt>
      <trkpt lat="43.0535920" lon="-1.2594880">
        <ele>1237.0</ele>
        <time>2019-07-16T13:50:04Z</time>
      </trkpt>
      <trkpt lat="43.0536480" lon="-1.2596120">
        <ele>1236.8</ele>
        <time>2019-07-16T13:50:08Z</time>
      </trkpt>
      <trkpt lat="43.0536960" lon="-1.2597320">
        <ele>1236.7</ele>
        <time>2019-07-16T13:50:12Z</time>
      </trkpt>
      <trkpt lat="43.0537410" lon="-1.2598480">
        <ele>1236.6</ele>
        <time>2019-07-16T13:50:16Z</time>
      </trkpt>
      <trkpt lat="43.0537860" lon="-1.2599570">
        <ele>1236.5</ele>
        <time>2019-07-16T13:50:20Z</time>
      </trkpt>
      <trkpt lat="43.0538430" lon="-1.2600880">
        <ele>1236.4</ele>
        <time>2019-07-16T13:50:25Z</time>
      </trkpt>
      <trkpt lat="43.0538920" lon="-1.2602070">
        <ele>1236.3</ele>
        <time>2019-07-16T13:50:30Z</time>
      </trkpt>
      <trkpt lat="43.0539480" lon="-1.2603360">
        <ele>1236.3</ele>
        <time>2019-07-16T13:50:35Z</time>
      </trkpt>
      <trkpt lat="43.0539990" lon="-1.2604560">
        <ele>1236.2</ele>
        <time>2019-07-16T13:50:39Z</time>
      </trkpt>
      <trkpt lat="43.0540430" lon="-1.2605970">
        <ele>1236.1</ele>
        <time>2019-07-16T13:50:44Z</time>
      </trkpt>
      <trkpt lat="43.0540760" lon="-1.2607310">
        <ele>1235.9</ele>
        <time>2019-07-16T13:50:49Z</time>
      </trkpt>
      <trkpt lat="43.0541110" lon="-1.2608650">
        <ele>1235.7</ele>
        <time>2019-07-16T13:50:54Z</time>
      </trkpt>
      <trkpt lat="43.0541430" lon="-1.2609920">
        <ele>1235.5</ele>
        <time>2019-07-16T13:50:59Z</time>
      </trkpt>
      <trkpt lat="43.0541730" lon="-1.2611190">
        <ele>1235.3</ele>
        <time>2019-07-16T13:51:04Z</time>
      </trkpt>
      <trkpt lat="43.0542260" lon="-1.2612450">
        <ele>1235.3</ele>
        <time>2019-07-16T13:51:09Z</time>
      </trkpt>
      <trkpt lat="43.0542790" lon="-1.2613760">
        <ele>1235.4</ele>
        <time>2019-07-16T13:51:14Z</time>
      </trkpt>
      <trkpt lat="43.0543410" lon="-1.2615050">
        <ele>1235.5</ele>
        <time>2019-07-16T13:51:19Z</time>
      </trkpt>
      <trkpt lat="43.0544050" lon="-1.2616260">
        <ele>1235.5</ele>
        <time>2019-07-16T13:51:24Z</time>
      </trkpt>
      <trkpt lat="43.0544650" lon="-1.2617310">
        <ele>1235.5</ele>
        <time>2019-07-16T13:51:28Z</time>
      </trkpt>
      <trkpt lat="43.0545310" lon="-1.2618440">
        <ele>1235.4</ele>
        <time>2019-07-16T13:51:32Z</time>
      </trkpt>
      <trkpt lat="43.0545900" lon="-1.2619560">
        <ele>1235.3</ele>
        <time>2019-07-16T13:51:36Z</time>
      </trkpt>
      <trkpt lat="43.0546500" lon="-1.2620670">
        <ele>1235.2</ele>
        <time>2019-07-16T13:51:40Z</time>
      </trkpt>
      <trkpt lat="43.0547170" lon="-1.2621640">
        <ele>1235.0</ele>
        <time>2019-07-16T13:51:44Z</time>
      </trkpt>
      <trkpt lat="43.0547780" lon="-1.2622710">
        <ele>1234.8</ele>
        <time>2019-07-16T13:51:48Z</time>
      </trkpt>
      <trkpt lat="43.0548430" lon="-1.2623890">
        <ele>1234.5</ele>
        <time>2019-07-16T13:51:52Z</time>
      </trkpt>
      <trkpt lat="43.0549030" lon="-1.2625100">
        <ele>1234.3</ele>
        <time>2019-07-16T13:51:56Z</time>
      </trkpt>
      <trkpt lat="43.0549690" lon="-1.2626480">
        <ele>1234.0</ele>
        <time>2019-07-16T13:52:00Z</time>
      </trkpt>
      <trkpt lat="43.0550350" lon="-1.2627890">
        <ele>1233.7</ele>
        <time>2019-07-16T13:52:04Z</time>
      </trkpt>
      <trkpt lat="43.0550930" lon="-1.2629060">
        <ele>1233.5</ele>
        <time>2019-07-16T13:52:07Z</time>
      </trkpt>
      <trkpt lat="43.0551430" lon="-1.2630340">
        <ele>1233.4</ele>
        <time>2019-07-16T13:52:10Z</time>
      </trkpt>
      <trkpt lat="43.0551810" lon="-1.2631710">
        <ele>1233.2</ele>
        <time>2019-07-16T13:52:13Z</time>
      </trkpt>
      <trkpt lat="43.0552290" lon="-1.2633020">
        <ele>1233.0</ele>
        <time>2019-07-16T13:52:16Z</time>
      </trkpt>
      <trkpt lat="43.0552840" lon="-1.2634230">
        <ele>1232.8</ele>
        <time>2019-07-16T13:52:19Z</time>
      </trkpt>
      <trkpt lat="43.0553560" lon="-1.2635460">
        <ele>1232.6</ele>
        <time>2019-07-16T13:52:22Z</time>
      </trkpt>
      <trkpt lat="43.0554300" lon="-1.2636660">
        <ele>1232.4</ele>
        <time>2019-07-16T13:52:25Z</time>
      </trkpt>
      <trkpt lat="43.0555140" lon="-1.2637830">
        <ele>1232.1</ele>
        <time>2019-07-16T13:52:28Z</time>
      </trkpt>
      <trkpt lat="43.0555930" lon="-1.2638840">
        <ele>1231.8</ele>
        <time>2019-07-16T13:52:31Z</time>
      </trkpt>
      <trkpt lat="43.0556740" lon="-1.2639780">
        <ele>1231.7</ele>
        <time>2019-07-16T13:52:34Z</time>
      </trkpt>
      <trkpt lat="43.0557560" lon="-1.2640880">
        <ele>1231.4</ele>
        <time>2019-07-16T13:52:37Z</time>
      </trkpt>
      <trkpt lat="43.0558310" lon="-1.2641800">
        <ele>1231.2</ele>
        <time>2019-07-16T13:52:40Z</time>
      </trkpt>
      <trkpt lat="43.0559070" lon="-1.2642770">
        <ele>1231.0</ele>
        <time>2019-07-16T13:52:43Z</time>
      </trkpt>
      <trkpt lat="43.0559880" lon="-1.2643790">
        <ele>1230.9</ele>
        <time>2019-07-16T13:52:46Z</time>
      </trkpt>
      <trkpt lat="43.0560700" lon="-1.2644940">
        <ele>1230.7</ele>
        <time>2019-07-16T13:52:49Z</time>
      </trkpt>
      <trkpt lat="43.0561540" lon="-1.2646130">
        <ele>1230.5</ele>
        <time>2019-07-16T13:52:52Z</time>
      </trkpt>
      <trkpt lat="43.0562280" lon="-1.2647300">
        <ele>1230.3</ele>
        <time>2019-07-16T13:52:55Z</time>
      </trkpt>
      <trkpt lat="43.0563050" lon="-1.2648470">
        <ele>1230.1</ele>
        <time>2019-07-16T13:52:58Z</time>
      </trkpt>
      <trkpt lat="43.0563900" lon="-1.2649500">
        <ele>1230.0</ele>
        <time>2019-07-16T13:53:01Z</time>
      </trkpt>
      <trkpt lat="43.0564770" lon="-1.2650470">
        <ele>1229.8</ele>
        <time>2019-07-16T13:53:04Z</time>
      </trkpt>
      <trkpt lat="43.0565570" lon="-1.2651580">
        <ele>1229.5</ele>
        <time>2019-07-16T13:53:07Z</time>
      </trkpt>
      <trkpt lat="43.0566310" lon="-1.2652660">
        <ele>1229.4</ele>
        <time>2019-07-16T13:53:10Z</time>
      </trkpt>
      <trkpt lat="43.0566990" lon="-1.2653510">
        <ele>1229.3</ele>
        <time>2019-07-16T13:53:13Z</time>
      </trkpt>
      <trkpt lat="43.0567760" lon="-1.2654560">
        <ele>1229.2</ele>
        <time>2019-07-16T13:53:17Z</time>
      </trkpt>
      <trkpt lat="43.0568560" lon="-1.2655650">
        <ele>1229.1</ele>
        <time>2019-07-16T13:53:21Z</time>
      </trkpt>
      <trkpt lat="43.0569330" lon="-1.2656530">
        <ele>1229.1</ele>
        <time>2019-07-16T13:53:24Z</time>
      </trkpt>
      <trkpt lat="43.0570180" lon="-1.2657400">
        <ele>1229.0</ele>
        <time>2019-07-16T13:53:27Z</time>
      </trkpt>
      <trkpt lat="43.0571050" lon="-1.2658260">
        <ele>1228.9</ele>
        <time>2019-07-16T13:53:30Z</time>
      </trkpt>
      <trkpt lat="43.0571960" lon="-1.2659150">
        <ele>1228.5</ele>
        <time>2019-07-16T13:53:33Z</time>
      </trkpt>
      <trkpt lat="43.0572870" lon="-1.2660010">
        <ele>1228.1</ele>
        <time>2019-07-16T13:53:36Z</time>
      </trkpt>
      <trkpt lat="43.0573760" lon="-1.2660860">
        <ele>1227.8</ele>
        <time>2019-07-16T13:53:39Z</time>
      </trkpt>
      <trkpt lat="43.0574640" lon="-1.2661740">
        <ele>1227.5</ele>
        <time>2019-07-16T13:53:42Z</time>
      </trkpt>
      <trkpt lat="43.0575550" lon="-1.2662490">
        <ele>1227.2</ele>
        <time>2019-07-16T13:53:45Z</time>
      </trkpt>
      <trkpt lat="43.0576400" lon="-1.2663320">
        <ele>1227.0</ele>
        <time>2019-07-16T13:53:48Z</time>
      </trkpt>
      <trkpt lat="43.0577210" lon="-1.2664100">
        <ele>1226.8</ele>
        <time>2019-07-16T13:53:51Z</time>
      </trkpt>
      <trkpt lat="43.0578030" lon="-1.2664970">
        <ele>1226.4</ele>
        <time>2019-07-16T13:53:54Z</time>
      </trkpt>
      <trkpt lat="43.0579040" lon="-1.2665990">
        <ele>1226.1</ele>
        <time>2019-07-16T13:53:57Z</time>
      </trkpt>
      <trkpt lat="43.0579820" lon="-1.2666710">
        <ele>1225.8</ele>
        <time>2019-07-16T13:53:59Z</time>
      </trkpt>
      <trkpt lat="43.0580590" lon="-1.2667390">
        <ele>1225.5</ele>
        <time>2019-07-16T13:54:01Z</time>
      </trkpt>
      <trkpt lat="43.0581530" lon="-1.2668280">
        <ele>1225.2</ele>
        <time>2019-07-16T13:54:04Z</time>
      </trkpt>
      <trkpt lat="43.0582450" lon="-1.2669020">
        <ele>1224.9</ele>
        <time>2019-07-16T13:54:09Z</time>
      </trkpt>
      <trkpt lat="43.0583390" lon="-1.2669860">
        <ele>1224.7</ele>
        <time>2019-07-16T13:54:13Z</time>
      </trkpt>
      <trkpt lat="43.0584220" lon="-1.2670550">
        <ele>1224.6</ele>
        <time>2019-07-16T13:54:17Z</time>
      </trkpt>
      <trkpt lat="43.0585030" lon="-1.2671340">
        <ele>1224.4</ele>
        <time>2019-07-16T13:54:21Z</time>
      </trkpt>
      <trkpt lat="43.0586040" lon="-1.2672150">
        <ele>1224.1</ele>
        <time>2019-07-16T13:54:25Z</time>
      </trkpt>
      <trkpt lat="43.0586860" lon="-1.2672790">
        <ele>1223.9</ele>
        <time>2019-07-16T13:54:28Z</time>
      </trkpt>
      <trkpt lat="43.0587770" lon="-1.2673610">
        <ele>1223.7</ele>
        <time>2019-07-16T13:54:32Z</time>
      </trkpt>
      <trkpt lat="43.0588580" lon="-1.2674290">
        <ele>1223.6</ele>
        <time>2019-07-16T13:54:37Z</time>
      </trkpt>
      <trkpt lat="43.0588640" lon="-1.2674260">
        <ele>1223.5</ele>
        <time>2019-07-16T13:54:43Z</time>
      </trkpt>
      <trkpt lat="43.0589590" lon="-1.2674680">
        <ele>1223.2</ele>
        <time>2019-07-16T13:55:10Z</time>
      </trkpt>
      <trkpt lat="43.0590580" lon="-1.2675510">
        <ele>1222.6</ele>
        <time>2019-07-16T13:55:14Z</time>
      </trkpt>
      <trkpt lat="43.0591420" lon="-1.2676090">
        <ele>1222.2</ele>
        <time>2019-07-16T13:55:17Z</time>
      </trkpt>
      <trkpt lat="43.0592400" lon="-1.2676840">
        <ele>1221.6</ele>
        <time>2019-07-16T13:55:20Z</time>
      </trkpt>
      <trkpt lat="43.0593240" lon="-1.2677570">
        <ele>1221.1</ele>
        <time>2019-07-16T13:55:23Z</time>
      </trkpt>
      <trkpt lat="43.0593980" lon="-1.2678320">
        <ele>1220.5</ele>
        <time>2019-07-16T13:55:26Z</time>
      </trkpt>
      <trkpt lat="43.0594810" lon="-1.2678830">
        <ele>1219.9</ele>
        <time>2019-07-16T13:55:30Z</time>
      </trkpt>
      <trkpt lat="43.0594960" lon="-1.2678920">
        <ele>1219.8</ele>
        <time>2019-07-16T13:55:36Z</time>
      </trkpt>
      <trkpt lat="43.0595840" lon="-1.2679560">
        <ele>1219.1</ele>
        <time>2019-07-16T13:57:11Z</time>
      </trkpt>
      <trkpt lat="43.0596710" lon="-1.2680320">
        <ele>1218.4</ele>
        <time>2019-07-16T13:57:14Z</time>
      </trkpt>
      <trkpt lat="43.0597820" lon="-1.2681170">
        <ele>1217.4</ele>
        <time>2019-07-16T13:57:17Z</time>
      </trkpt>
      <trkpt lat="43.0598730" lon="-1.2681590">
        <ele>1216.7</ele>
        <time>2019-07-16T13:57:19Z</time>
      </trkpt>
      <trkpt lat="43.0599620" lon="-1.2681820">
        <ele>1216.0</ele>
        <time>2019-07-16T13:57:21Z</time>
      </trkpt>
      <trkpt lat="43.0600820" lon="-1.2682110">
        <ele>1215.0</ele>
        <time>2019-07-16T13:57:24Z</time>
      </trkpt>
      <trkpt lat="43.0602070" lon="-1.2682250">
        <ele>1214.0</ele>
        <time>2019-07-16T13:57:27Z</time>
      </trkpt>
      <trkpt lat="43.0603270" lon="-1.2682480">
        <ele>1212.9</ele>
        <time>2019-07-16T13:57:30Z</time>
      </trkpt>
      <trkpt lat="43.0604600" lon="-1.2682720">
        <ele>1211.7</ele>
        <time>2019-07-16T13:57:33Z</time>
      </trkpt>
      <trkpt lat="43.0605630" lon="-1.2682920">
        <ele>1210.8</ele>
        <time>2019-07-16T13:57:35Z</time>
      </trkpt>
      <trkpt lat="43.0606630" lon="-1.2683100">
        <ele>1210.1</ele>
        <time>2019-07-16T13:57:37Z</time>
      </trkpt>
      <trkpt lat="43.0607550" lon="-1.2683260">
        <ele>1208.9</ele>
        <time>2019-07-16T13:57:39Z</time>
      </trkpt>
      <trkpt lat="43.0608590" lon="-1.2683450">
        <ele>1207.7</ele>
        <time>2019-07-16T13:57:41Z</time>
      </trkpt>
      <trkpt lat="43.0609590" lon="-1.2683660">
        <ele>1206.8</ele>
        <time>2019-07-16T13:57:43Z</time>
      </trkpt>
      <trkpt lat="43.0610520" lon="-1.2683760">
        <ele>1205.9</ele>
        <time>2019-07-16T13:57:45Z</time>
      </trkpt>
      <trkpt lat="43.0611420" lon="-1.2683680">
        <ele>1205.1</ele>
        <time>2019-07-16T13:57:47Z</time>
      </trkpt>
      <trkpt lat="43.0612610" lon="-1.2683130">
        <ele>1204.1</ele>
        <time>2019-07-16T13:57:50Z</time>
      </trkpt>
      <trkpt lat="43.0613670" lon="-1.2681920">
        <ele>1203.0</ele>
        <time>2019-07-16T13:57:53Z</time>
      </trkpt>
      <trkpt lat="43.0614250" lon="-1.2680840">
        <ele>1202.2</ele>
        <time>2019-07-16T13:57:55Z</time>
      </trkpt>
      <trkpt lat="43.0614680" lon="-1.2679680">
        <ele>1201.3</ele>
        <time>2019-07-16T13:57:57Z</time>
      </trkpt>
      <trkpt lat="43.0614950" lon="-1.2678470">
        <ele>1200.5</ele>
        <time>2019-07-16T13:57:59Z</time>
      </trkpt>
      <trkpt lat="43.0615190" lon="-1.2677240">
        <ele>1199.6</ele>
        <time>2019-07-16T13:58:01Z</time>
      </trkpt>
      <trkpt lat="43.0615490" lon="-1.2675910">
        <ele>1198.6</ele>
        <time>2019-07-16T13:58:03Z</time>
      </trkpt>
      <trkpt lat="43.0615820" lon="-1.2674530">
        <ele>1197.5</ele>
        <time>2019-07-16T13:58:05Z</time>
      </trkpt>
      <trkpt lat="43.0616230" lon="-1.2673190">
        <ele>1196.5</ele>
        <time>2019-07-16T13:58:07Z</time>
      </trkpt>
      <trkpt lat="43.0616780" lon="-1.2671920">
        <ele>1195.6</ele>
        <time>2019-07-16T13:58:09Z</time>
      </trkpt>
      <trkpt lat="43.0617490" lon="-1.2670760">
        <ele>1194.6</ele>
        <time>2019-07-16T13:58:11Z</time>
      </trkpt>
      <trkpt lat="43.0618380" lon="-1.2669880">
        <ele>1193.8</ele>
        <time>2019-07-16T13:58:13Z</time>
      </trkpt>
      <trkpt lat="43.0619500" lon="-1.2669270">
        <ele>1193.2</ele>
        <time>2019-07-16T13:58:15Z</time>
      </trkpt>
      <trkpt lat="43.0620650" lon="-1.2668890">
        <ele>1193.2</ele>
        <time>2019-07-16T13:58:17Z</time>
      </trkpt>
      <trkpt lat="43.0621810" lon="-1.2668550">
        <ele>1193.2</ele>
        <time>2019-07-16T13:58:19Z</time>
      </trkpt>
      <trkpt lat="43.0622980" lon="-1.2668210">
        <ele>1193.3</ele>
        <time>2019-07-16T13:58:21Z</time>
      </trkpt>
      <trkpt lat="43.0624180" lon="-1.2667890">
        <ele>1193.4</ele>
        <time>2019-07-16T13:58:23Z</time>
      </trkpt>
      <trkpt lat="43.0625320" lon="-1.2667580">
        <ele>1193.5</ele>
        <time>2019-07-16T13:58:25Z</time>
      </trkpt>
      <trkpt lat="43.0626330" lon="-1.2667260">
        <ele>1193.6</ele>
        <time>2019-07-16T13:58:27Z</time>
      </trkpt>
      <trkpt lat="43.0627260" lon="-1.2666930">
        <ele>1193.9</ele>
        <time>2019-07-16T13:58:29Z</time>
      </trkpt>
      <trkpt lat="43.0628420" lon="-1.2666430">
        <ele>1194.2</ele>
        <time>2019-07-16T13:58:32Z</time>
      </trkpt>
      <trkpt lat="43.0629510" lon="-1.2665990">
        <ele>1194.5</ele>
        <time>2019-07-16T13:58:35Z</time>
      </trkpt>
      <trkpt lat="43.0630590" lon="-1.2665520">
        <ele>1194.8</ele>
        <time>2019-07-16T13:58:38Z</time>
      </trkpt>
      <trkpt lat="43.0631580" lon="-1.2665170">
        <ele>1195.1</ele>
        <time>2019-07-16T13:58:41Z</time>
      </trkpt>
      <trkpt lat="43.0632600" lon="-1.2664890">
        <ele>1195.4</ele>
        <time>2019-07-16T13:58:44Z</time>
      </trkpt>
      <trkpt lat="43.0633610" lon="-1.2664770">
        <ele>1195.5</ele>
        <time>2019-07-16T13:58:47Z</time>
      </trkpt>
      <trkpt lat="43.0634620" lon="-1.2664720">
        <ele>1195.7</ele>
        <time>2019-07-16T13:58:50Z</time>
      </trkpt>
      <trkpt lat="43.0635590" lon="-1.2664920">
        <ele>1195.8</ele>
        <time>2019-07-16T13:58:53Z</time>
      </trkpt>
      <trkpt lat="43.0636600" lon="-1.2665110">
        <ele>1195.8</ele>
        <time>2019-07-16T13:58:56Z</time>
      </trkpt>
      <trkpt lat="43.0637570" lon="-1.2665300">
        <ele>1195.7</ele>
        <time>2019-07-16T13:58:59Z</time>
      </trkpt>
      <trkpt lat="43.0638580" lon="-1.2665590">
        <ele>1195.5</ele>
        <time>2019-07-16T13:59:02Z</time>
      </trkpt>
      <trkpt lat="43.0639500" lon="-1.2665910">
        <ele>1195.3</ele>
        <time>2019-07-16T13:59:05Z</time>
      </trkpt>
      <trkpt lat="43.0640380" lon="-1.2666210">
        <ele>1195.0</ele>
        <time>2019-07-16T13:59:08Z</time>
      </trkpt>
      <trkpt lat="43.0641360" lon="-1.2666570">
        <ele>1194.7</ele>
        <time>2019-07-16T13:59:12Z</time>
      </trkpt>
      <trkpt lat="43.0641600" lon="-1.2666600">
        <ele>1194.6</ele>
        <time>2019-07-16T13:59:18Z</time>
      </trkpt>
      <trkpt lat="43.0642420" lon="-1.2667120">
        <ele>1194.3</ele>
        <time>2019-07-16T13:59:51Z</time>
      </trkpt>
      <trkpt lat="43.0643490" lon="-1.2667600">
        <ele>1194.0</ele>
        <time>2019-07-16T13:59:55Z</time>
      </trkpt>
      <trkpt lat="43.0644360" lon="-1.2668000">
        <ele>1193.8</ele>
        <time>2019-07-16T13:59:58Z</time>
      </trkpt>
      <trkpt lat="43.0645260" lon="-1.2668430">
        <ele>1193.6</ele>
        <time>2019-07-16T14:00:01Z</time>
      </trkpt>
      <trkpt lat="43.0646200" lon="-1.2668800">
        <ele>1193.5</ele>
        <time>2019-07-16T14:00:04Z</time>
      </trkpt>
      <trkpt lat="43.0647170" lon="-1.2669260">
        <ele>1193.3</ele>
        <time>2019-07-16T14:00:07Z</time>
      </trkpt>
      <trkpt lat="43.0648180" lon="-1.2669630">
        <ele>1193.2</ele>
        <time>2019-07-16T14:00:10Z</time>
      </trkpt>
      <trkpt lat="43.0649140" lon="-1.2670070">
        <ele>1193.2</ele>
        <time>2019-07-16T14:00:13Z</time>
      </trkpt>
      <trkpt lat="43.0650180" lon="-1.2670430">
        <ele>1193.2</ele>
        <time>2019-07-16T14:00:16Z</time>
      </trkpt>
      <trkpt lat="43.0651240" lon="-1.2670730">
        <ele>1193.3</ele>
        <time>2019-07-16T14:00:19Z</time>
      </trkpt>
      <trkpt lat="43.0652280" lon="-1.2671110">
        <ele>1193.5</ele>
        <time>2019-07-16T14:00:22Z</time>
      </trkpt>
      <trkpt lat="43.0653320" lon="-1.2671450">
        <ele>1193.6</ele>
        <time>2019-07-16T14:00:25Z</time>
      </trkpt>
      <trkpt lat="43.0654400" lon="-1.2671770">
        <ele>1193.7</ele>
        <time>2019-07-16T14:00:28Z</time>
      </trkpt>
      <trkpt lat="43.0655450" lon="-1.2672110">
        <ele>1193.7</ele>
        <time>2019-07-16T14:00:31Z</time>
      </trkpt>
      <trkpt lat="43.0656500" lon="-1.2672480">
        <ele>1193.7</ele>
        <time>2019-07-16T14:00:34Z</time>
      </trkpt>
      <trkpt lat="43.0657620" lon="-1.2672850">
        <ele>1193.7</ele>
        <time>2019-07-16T14:00:37Z</time>
      </trkpt>
      <trkpt lat="43.0658680" lon="-1.2673190">
        <ele>1193.6</ele>
        <time>2019-07-16T14:00:40Z</time>
      </trkpt>
      <trkpt lat="43.0659660" lon="-1.2673460">
        <ele>1193.4</ele>
        <time>2019-07-16T14:00:43Z</time>
      </trkpt>
      <trkpt lat="43.0660670" lon="-1.2673710">
        <ele>1193.3</ele>
        <time>2019-07-16T14:00:46Z</time>
      </trkpt>
      <trkpt lat="43.0661720" lon="-1.2674000">
        <ele>1193.1</ele>
        <time>2019-07-16T14:00:49Z</time>
      </trkpt>
      <trkpt lat="43.0662780" lon="-1.2674240">
        <ele>1192.7</ele>
        <time>2019-07-16T14:00:52Z</time>
      </trkpt>
      <trkpt lat="43.0663810" lon="-1.2674470">
        <ele>1192.4</ele>
        <time>2019-07-16T14:00:55Z</time>
      </trkpt>
      <trkpt lat="43.0664780" lon="-1.2674720">
        <ele>1192.0</ele>
        <time>2019-07-16T14:00:58Z</time>
      </trkpt>
      <trkpt lat="43.0665820" lon="-1.2675030">
        <ele>1191.7</ele>
        <time>2019-07-16T14:01:01Z</time>
      </trkpt>
      <trkpt lat="43.0666910" lon="-1.2675370">
        <ele>1191.4</ele>
        <time>2019-07-16T14:01:04Z</time>
      </trkpt>
      <trkpt lat="43.0667980" lon="-1.2675690">
        <ele>1191.1</ele>
        <time>2019-07-16T14:01:07Z</time>
      </trkpt>
      <trkpt lat="43.0669090" lon="-1.2676100">
        <ele>1190.9</ele>
        <time>2019-07-16T14:01:10Z</time>
      </trkpt>
      <trkpt lat="43.0670200" lon="-1.2676450">
        <ele>1190.8</ele>
        <time>2019-07-16T14:01:13Z</time>
      </trkpt>
      <trkpt lat="43.0671110" lon="-1.2676810">
        <ele>1190.7</ele>
        <time>2019-07-16T14:01:16Z</time>
      </trkpt>
      <trkpt lat="43.0672010" lon="-1.2677260">
        <ele>1190.6</ele>
        <time>2019-07-16T14:01:19Z</time>
      </trkpt>
      <trkpt lat="43.0673040" lon="-1.2677930">
        <ele>1190.5</ele>
        <time>2019-07-16T14:01:23Z</time>
      </trkpt>
      <trkpt lat="43.0673980" lon="-1.2678700">
        <ele>1190.4</ele>
        <time>2019-07-16T14:01:27Z</time>
      </trkpt>
      <trkpt lat="43.0674920" lon="-1.2679510">
        <ele>1190.3</ele>
        <time>2019-07-16T14:01:31Z</time>
      </trkpt>
      <trkpt lat="43.0675760" lon="-1.2680440">
        <ele>1190.1</ele>
        <time>2019-07-16T14:01:35Z</time>
      </trkpt>
      <trkpt lat="43.0676450" lon="-1.2681370">
        <ele>1190.0</ele>
        <time>2019-07-16T14:01:39Z</time>
      </trkpt>
      <trkpt lat="43.0677000" lon="-1.2682420">
        <ele>1189.8</ele>
        <time>2019-07-16T14:01:43Z</time>
      </trkpt>
      <trkpt lat="43.0677550" lon="-1.2683610">
        <ele>1189.5</ele>
        <time>2019-07-16T14:01:47Z</time>
      </trkpt>
      <trkpt lat="43.0678050" lon="-1.2684830">
        <ele>1189.1</ele>
        <time>2019-07-16T14:01:51Z</time>
      </trkpt>
      <trkpt lat="43.0678580" lon="-1.2686090">
        <ele>1188.6</ele>
        <time>2019-07-16T14:01:55Z</time>
      </trkpt>
      <trkpt lat="43.0679090" lon="-1.2687290">
        <ele>1187.9</ele>
        <time>2019-07-16T14:01:59Z</time>
      </trkpt>
      <trkpt lat="43.0679820" lon="-1.2688390">
        <ele>1187.3</ele>
        <time>2019-07-16T14:02:04Z</time>
      </trkpt>
      <trkpt lat="43.0680560" lon="-1.2689200">
        <ele>1186.8</ele>
        <time>2019-07-16T14:02:08Z</time>
      </trkpt>
      <trkpt lat="43.0681470" lon="-1.2689980">
        <ele>1186.1</ele>
        <time>2019-07-16T14:02:12Z</time>
      </trkpt>
      <trkpt lat="43.0682480" lon="-1.2690570">
        <ele>1185.4</ele>
        <time>2019-07-16T14:02:15Z</time>
      </trkpt>
      <trkpt lat="43.0683380" lon="-1.2690780">
        <ele>1184.7</ele>
        <time>2019-07-16T14:02:17Z</time>
      </trkpt>
      <trkpt lat="43.0684300" lon="-1.2691060">
        <ele>1184.2</ele>
        <time>2019-07-16T14:02:19Z</time>
      </trkpt>
      <trkpt lat="43.0685540" lon="-1.2691340">
        <ele>1183.4</ele>
        <time>2019-07-16T14:02:22Z</time>
      </trkpt>
      <trkpt lat="43.0686430" lon="-1.2691530">
        <ele>1183.0</ele>
        <time>2019-07-16T14:02:24Z</time>
      </trkpt>
      <trkpt lat="43.0687360" lon="-1.2691740">
        <ele>1182.6</ele>
        <time>2019-07-16T14:02:26Z</time>
      </trkpt>
      <trkpt lat="43.0688320" lon="-1.2691950">
        <ele>1182.2</ele>
        <time>2019-07-16T14:02:28Z</time>
      </trkpt>
      <trkpt lat="43.0689300" lon="-1.2692180">
        <ele>1181.9</ele>
        <time>2019-07-16T14:02:30Z</time>
      </trkpt>
      <trkpt lat="43.0690240" lon="-1.2692410">
        <ele>1181.5</ele>
        <time>2019-07-16T14:02:32Z</time>
      </trkpt>
      <trkpt lat="43.0691490" lon="-1.2692710">
        <ele>1180.9</ele>
        <time>2019-07-16T14:02:35Z</time>
      </trkpt>
      <trkpt lat="43.0692780" lon="-1.2693020">
        <ele>1180.0</ele>
        <time>2019-07-16T14:02:38Z</time>
      </trkpt>
      <trkpt lat="43.0694050" lon="-1.2693350">
        <ele>1179.0</ele>
        <time>2019-07-16T14:02:41Z</time>
      </trkpt>
      <trkpt lat="43.0695270" lon="-1.2693640">
        <ele>1178.1</ele>
        <time>2019-07-16T14:02:44Z</time>
      </trkpt>
      <trkpt lat="43.0696430" lon="-1.2693920">
        <ele>1177.1</ele>
        <time>2019-07-16T14:02:47Z</time>
      </trkpt>
      <trkpt lat="43.0697640" lon="-1.2694120">
        <ele>1176.2</ele>
        <time>2019-07-16T14:02:50Z</time>
      </trkpt>
      <trkpt lat="43.0698880" lon="-1.2694090">
        <ele>1175.0</ele>
        <time>2019-07-16T14:02:53Z</time>
      </trkpt>
      <trkpt lat="43.0700130" lon="-1.2694010">
        <ele>1173.8</ele>
        <time>2019-07-16T14:02:56Z</time>
      </trkpt>
      <trkpt lat="43.0701420" lon="-1.2693930">
        <ele>1172.4</ele>
        <time>2019-07-16T14:02:59Z</time>
      </trkpt>
      <trkpt lat="43.0702370" lon="-1.2693790">
        <ele>1171.5</ele>
        <time>2019-07-16T14:03:01Z</time>
      </trkpt>
      <trkpt lat="43.0703320" lon="-1.2693570">
        <ele>1170.6</ele>
        <time>2019-07-16T14:03:03Z</time>
      </trkpt>
      <trkpt lat="43.0704260" lon="-1.2693300">
        <ele>1169.9</ele>
        <time>2019-07-16T14:03:05Z</time>
      </trkpt>
      <trkpt lat="43.0705170" lon="-1.2692920">
        <ele>1168.9</ele>
        <time>2019-07-16T14:03:07Z</time>
      </trkpt>
      <trkpt lat="43.0706090" lon="-1.2692430">
        <ele>1168.0</ele>
        <time>2019-07-16T14:03:09Z</time>
      </trkpt>
      <trkpt lat="43.0707020" lon="-1.2691930">
        <ele>1167.0</ele>
        <time>2019-07-16T14:03:11Z</time>
      </trkpt>
      <trkpt lat="43.0707870" lon="-1.2691470">
        <ele>1166.2</ele>
        <time>2019-07-16T14:03:13Z</time>
      </trkpt>
      <trkpt lat="43.0708870" lon="-1.2690800">
        <ele>1165.4</ele>
        <time>2019-07-16T14:03:16Z</time>
      </trkpt>
      <trkpt lat="43.0709600" lon="-1.2690040">
        <ele>1164.7</ele>
        <time>2019-07-16T14:03:20Z</time>
      </trkpt>
      <trkpt lat="43.0710320" lon="-1.2688950">
        <ele>1163.7</ele>
        <time>2019-07-16T14:03:25Z</time>
      </trkpt>
      <trkpt lat="43.0710720" lon="-1.2687710">
        <ele>1162.6</ele>
        <time>2019-07-16T14:03:29Z</time>
      </trkpt>
      <trkpt lat="43.0711130" lon="-1.2686230">
        <ele>1161.4</ele>
        <time>2019-07-16T14:03:33Z</time>
      </trkpt>
      <trkpt lat="43.0711530" lon="-1.2684730">
        <ele>1160.3</ele>
        <time>2019-07-16T14:03:37Z</time>
      </trkpt>
      <trkpt lat="43.0711760" lon="-1.2683120">
        <ele>1159.0</ele>
        <time>2019-07-16T14:03:41Z</time>
      </trkpt>
      <trkpt lat="43.0711890" lon="-1.2681830">
        <ele>1158.2</ele>
        <time>2019-07-16T14:03:44Z</time>
      </trkpt>
      <trkpt lat="43.0711960" lon="-1.2680490">
        <ele>1157.3</ele>
        <time>2019-07-16T14:03:47Z</time>
      </trkpt>
      <trkpt lat="43.0711910" lon="-1.2679000">
        <ele>1156.2</ele>
        <time>2019-07-16T14:03:51Z</time>
      </trkpt>
      <trkpt lat="43.0711920" lon="-1.2678680">
        <ele>1155.9</ele>
        <time>2019-07-16T14:03:56Z</time>
      </trkpt>
      <trkpt lat="43.0711990" lon="-1.2677240">
        <ele>1154.7</ele>
        <time>2019-07-16T14:04:35Z</time>
      </trkpt>
      <trkpt lat="43.0711730" lon="-1.2675700">
        <ele>1153.4</ele>
        <time>2019-07-16T14:04:38Z</time>
      </trkpt>
      <trkpt lat="43.0711610" lon="-1.2674480">
        <ele>1152.5</ele>
        <time>2019-07-16T14:04:40Z</time>
      </trkpt>
      <trkpt lat="43.0711360" lon="-1.2672960">
        <ele>1151.2</ele>
        <time>2019-07-16T14:04:43Z</time>
      </trkpt>
      <trkpt lat="43.0711230" lon="-1.2671380">
        <ele>1150.0</ele>
        <time>2019-07-16T14:04:46Z</time>
      </trkpt>
      <trkpt lat="43.0711340" lon="-1.2669690">
        <ele>1148.6</ele>
        <time>2019-07-16T14:04:49Z</time>
      </trkpt>
      <trkpt lat="43.0711970" lon="-1.2668270">
        <ele>1147.5</ele>
        <time>2019-07-16T14:04:52Z</time>
      </trkpt>
      <trkpt lat="43.0712960" lon="-1.2667380">
        <ele>1146.3</ele>
        <time>2019-07-16T14:04:55Z</time>
      </trkpt>
      <trkpt lat="43.0713980" lon="-1.2666780">
        <ele>1145.4</ele>
        <time>2019-07-16T14:04:58Z</time>
      </trkpt>
      <trkpt lat="43.0715360" lon="-1.2666300">
        <ele>1144.4</ele>
        <time>2019-07-16T14:05:01Z</time>
      </trkpt>
      <trkpt lat="43.0716510" lon="-1.2666090">
        <ele>1143.4</ele>
        <time>2019-07-16T14:05:03Z</time>
      </trkpt>
      <trkpt lat="43.0717800" lon="-1.2666020">
        <ele>1142.3</ele>
        <time>2019-07-16T14:05:05Z</time>
      </trkpt>
      <trkpt lat="43.0718930" lon="-1.2666150">
        <ele>1141.4</ele>
        <time>2019-07-16T14:05:07Z</time>
      </trkpt>
      <trkpt lat="43.0719860" lon="-1.2666280">
        <ele>1140.8</ele>
        <time>2019-07-16T14:05:09Z</time>
      </trkpt>
      <trkpt lat="43.0720750" lon="-1.2666470">
        <ele>1140.1</ele>
        <time>2019-07-16T14:05:11Z</time>
      </trkpt>
      <trkpt lat="43.0721990" lon="-1.2666760">
        <ele>1139.3</ele>
        <time>2019-07-16T14:05:14Z</time>
      </trkpt>
      <trkpt lat="43.0723130" lon="-1.2667060">
        <ele>1138.6</ele>
        <time>2019-07-16T14:05:17Z</time>
      </trkpt>
      <trkpt lat="43.0724060" lon="-1.2667260">
        <ele>1138.1</ele>
        <time>2019-07-16T14:05:20Z</time>
      </trkpt>
      <trkpt lat="43.0724930" lon="-1.2667530">
        <ele>1137.4</ele>
        <time>2019-07-16T14:05:30Z</time>
      </trkpt>
      <trkpt lat="43.0725880" lon="-1.2667660">
        <ele>1136.9</ele>
        <time>2019-07-16T14:05:38Z</time>
      </trkpt>
      <trkpt lat="43.0726780" lon="-1.2667740">
        <ele>1136.6</ele>
        <time>2019-07-16T14:05:41Z</time>
      </trkpt>
      <trkpt lat="43.0727820" lon="-1.2667890">
        <ele>1136.2</ele>
        <time>2019-07-16T14:05:44Z</time>
      </trkpt>
      <trkpt lat="43.0729040" lon="-1.2667820">
        <ele>1135.6</ele>
        <time>2019-07-16T14:05:47Z</time>
      </trkpt>
      <trkpt lat="43.0730250" lon="-1.2667690">
        <ele>1134.9</ele>
        <time>2019-07-16T14:05:50Z</time>
      </trkpt>
      <trkpt lat="43.0731450" lon="-1.2667300">
        <ele>1133.8</ele>
        <time>2019-07-16T14:05:53Z</time>
      </trkpt>
      <trkpt lat="43.0732660" lon="-1.2667000">
        <ele>1132.6</ele>
        <time>2019-07-16T14:05:56Z</time>
      </trkpt>
      <trkpt lat="43.0733740" lon="-1.2666650">
        <ele>1131.1</ele>
        <time>2019-07-16T14:05:59Z</time>
      </trkpt>
      <trkpt lat="43.0734790" lon="-1.2666310">
        <ele>1129.8</ele>
        <time>2019-07-16T14:06:02Z</time>
      </trkpt>
      <trkpt lat="43.0735830" lon="-1.2666000">
        <ele>1128.6</ele>
        <time>2019-07-16T14:06:05Z</time>
      </trkpt>
      <trkpt lat="43.0736800" lon="-1.2665580">
        <ele>1127.4</ele>
        <time>2019-07-16T14:06:08Z</time>
      </trkpt>
      <trkpt lat="43.0737670" lon="-1.2665240">
        <ele>1126.1</ele>
        <time>2019-07-16T14:06:11Z</time>
      </trkpt>
      <trkpt lat="43.0738740" lon="-1.2664660">
        <ele>1124.6</ele>
        <time>2019-07-16T14:06:15Z</time>
      </trkpt>
      <trkpt lat="43.0739380" lon="-1.2664330">
        <ele>1123.8</ele>
        <time>2019-07-16T14:06:23Z</time>
      </trkpt>
      <trkpt lat="43.0739890" lon="-1.2663230">
        <ele>1122.8</ele>
        <time>2019-07-16T14:07:11Z</time>
      </trkpt>
      <trkpt lat="43.0740550" lon="-1.2662290">
        <ele>1121.8</ele>
        <time>2019-07-16T14:07:14Z</time>
      </trkpt>
      <trkpt lat="43.0741220" lon="-1.2661240">
        <ele>1120.7</ele>
        <time>2019-07-16T14:07:17Z</time>
      </trkpt>
      <trkpt lat="43.0741880" lon="-1.2659850">
        <ele>1119.8</ele>
        <time>2019-07-16T14:07:20Z</time>
      </trkpt>
      <trkpt lat="43.0742400" lon="-1.2658750">
        <ele>1119.2</ele>
        <time>2019-07-16T14:07:22Z</time>
      </trkpt>
      <trkpt lat="43.0743020" lon="-1.2657580">
        <ele>1118.5</ele>
        <time>2019-07-16T14:07:24Z</time>
      </trkpt>
      <trkpt lat="43.0743690" lon="-1.2656320">
        <ele>1117.9</ele>
        <time>2019-07-16T14:07:26Z</time>
      </trkpt>
      <trkpt lat="43.0744400" lon="-1.2654900">
        <ele>1117.3</ele>
        <time>2019-07-16T14:07:28Z</time>
      </trkpt>
      <trkpt lat="43.0745150" lon="-1.2653470">
        <ele>1116.8</ele>
        <time>2019-07-16T14:07:30Z</time>
      </trkpt>
      <trkpt lat="43.0745920" lon="-1.2651970">
        <ele>1116.4</ele>
        <time>2019-07-16T14:07:32Z</time>
      </trkpt>
      <trkpt lat="43.0746760" lon="-1.2650390">
        <ele>1116.0</ele>
        <time>2019-07-16T14:07:34Z</time>
      </trkpt>
      <trkpt lat="43.0747580" lon="-1.2648740">
        <ele>1115.7</ele>
        <time>2019-07-16T14:07:36Z</time>
      </trkpt>
      <trkpt lat="43.0748470" lon="-1.2647100">
        <ele>1115.3</ele>
        <time>2019-07-16T14:07:38Z</time>
      </trkpt>
      <trkpt lat="43.0749380" lon="-1.2645540">
        <ele>1114.8</ele>
        <time>2019-07-16T14:07:40Z</time>
      </trkpt>
      <trkpt lat="43.0750300" lon="-1.2644040">
        <ele>1114.4</ele>
        <time>2019-07-16T14:07:42Z</time>
      </trkpt>
      <trkpt lat="43.0751220" lon="-1.2642590">
        <ele>1113.9</ele>
        <time>2019-07-16T14:07:44Z</time>
      </trkpt>
      <trkpt lat="43.0752140" lon="-1.2641190">
        <ele>1113.4</ele>
        <time>2019-07-16T14:07:46Z</time>
      </trkpt>
      <trkpt lat="43.0753050" lon="-1.2639810">
        <ele>1113.0</ele>
        <time>2019-07-16T14:07:48Z</time>
      </trkpt>
      <trkpt lat="43.0754020" lon="-1.2638410">
        <ele>1112.9</ele>
        <time>2019-07-16T14:07:50Z</time>
      </trkpt>
      <trkpt lat="43.0755000" lon="-1.2637000">
        <ele>1113.0</ele>
        <time>2019-07-16T14:07:52Z</time>
      </trkpt>
      <trkpt lat="43.0756010" lon="-1.2635580">
        <ele>1113.2</ele>
        <time>2019-07-16T14:07:54Z</time>
      </trkpt>
      <trkpt lat="43.0757090" lon="-1.2634270">
        <ele>1112.9</ele>
        <time>2019-07-16T14:07:56Z</time>
      </trkpt>
      <trkpt lat="43.0758250" lon="-1.2633300">
        <ele>1112.7</ele>
        <time>2019-07-16T14:07:58Z</time>
      </trkpt>
      <trkpt lat="43.0759470" lon="-1.2632750">
        <ele>1112.6</ele>
        <time>2019-07-16T14:08:00Z</time>
      </trkpt>
      <trkpt lat="43.0760640" lon="-1.2632460">
        <ele>1112.4</ele>
        <time>2019-07-16T14:08:02Z</time>
      </trkpt>
      <trkpt lat="43.0761720" lon="-1.2632270">
        <ele>1112.4</ele>
        <time>2019-07-16T14:08:04Z</time>
      </trkpt>
      <trkpt lat="43.0762680" lon="-1.2632140">
        <ele>1112.4</ele>
        <time>2019-07-16T14:08:06Z</time>
      </trkpt>
      <trkpt lat="43.0763970" lon="-1.2631880">
        <ele>1112.4</ele>
        <time>2019-07-16T14:08:09Z</time>
      </trkpt>
      <trkpt lat="43.0765110" lon="-1.2631570">
        <ele>1112.6</ele>
        <time>2019-07-16T14:08:12Z</time>
      </trkpt>
      <trkpt lat="43.0766100" lon="-1.2631190">
        <ele>1112.8</ele>
        <time>2019-07-16T14:08:15Z</time>
      </trkpt>
      <trkpt lat="43.0767120" lon="-1.2630850">
        <ele>1113.2</ele>
        <time>2019-07-16T14:08:18Z</time>
      </trkpt>
      <trkpt lat="43.0768110" lon="-1.2630440">
        <ele>1113.5</ele>
        <time>2019-07-16T14:08:21Z</time>
      </trkpt>
      <trkpt lat="43.0769070" lon="-1.2629990">
        <ele>1113.7</ele>
        <time>2019-07-16T14:08:24Z</time>
      </trkpt>
      <trkpt lat="43.0770030" lon="-1.2629550">
        <ele>1113.7</ele>
        <time>2019-07-16T14:08:27Z</time>
      </trkpt>
      <trkpt lat="43.0770940" lon="-1.2629100">
        <ele>1113.5</ele>
        <time>2019-07-16T14:08:30Z</time>
      </trkpt>
      <trkpt lat="43.0772070" lon="-1.2628620">
        <ele>1113.2</ele>
        <time>2019-07-16T14:08:34Z</time>
      </trkpt>
      <trkpt lat="43.0773090" lon="-1.2628070">
        <ele>1112.7</ele>
        <time>2019-07-16T14:08:38Z</time>
      </trkpt>
      <trkpt lat="43.0773890" lon="-1.2627460">
        <ele>1112.2</ele>
        <time>2019-07-16T14:08:42Z</time>
      </trkpt>
      <trkpt lat="43.0774780" lon="-1.2626700">
        <ele>1111.6</ele>
        <time>2019-07-16T14:08:46Z</time>
      </trkpt>
      <trkpt lat="43.0775750" lon="-1.2625940">
        <ele>1111.0</ele>
        <time>2019-07-16T14:08:50Z</time>
      </trkpt>
      <trkpt lat="43.0776740" lon="-1.2625000">
        <ele>1110.5</ele>
        <time>2019-07-16T14:08:54Z</time>
      </trkpt>
      <trkpt lat="43.0777580" lon="-1.2623960">
        <ele>1110.1</ele>
        <time>2019-07-16T14:08:57Z</time>
      </trkpt>
      <trkpt lat="43.0778500" lon="-1.2622680">
        <ele>1109.9</ele>
        <time>2019-07-16T14:09:00Z</time>
      </trkpt>
      <trkpt lat="43.0779160" lon="-1.2621770">
        <ele>1109.9</ele>
        <time>2019-07-16T14:09:02Z</time>
      </trkpt>
      <trkpt lat="43.0779780" lon="-1.2620850">
        <ele>1110.1</ele>
        <time>2019-07-16T14:09:04Z</time>
      </trkpt>
      <trkpt lat="43.0780360" lon="-1.2619840">
        <ele>1110.3</ele>
        <time>2019-07-16T14:09:06Z</time>
      </trkpt>
      <trkpt lat="43.0780930" lon="-1.2618850">
        <ele>1110.6</ele>
        <time>2019-07-16T14:09:08Z</time>
      </trkpt>
      <trkpt lat="43.0781700" lon="-1.2617520">
        <ele>1111.3</ele>
        <time>2019-07-16T14:09:11Z</time>
      </trkpt>
      <trkpt lat="43.0782330" lon="-1.2616500">
        <ele>1112.0</ele>
        <time>2019-07-16T14:09:14Z</time>
      </trkpt>
      <trkpt lat="43.0783120" lon="-1.2615350">
        <ele>1112.8</ele>
        <time>2019-07-16T14:09:18Z</time>
      </trkpt>
      <trkpt lat="43.0783700" lon="-1.2614350">
        <ele>1113.7</ele>
        <time>2019-07-16T14:09:22Z</time>
      </trkpt>
      <trkpt lat="43.0784480" lon="-1.2613290">
        <ele>1114.7</ele>
        <time>2019-07-16T14:09:28Z</time>
      </trkpt>
      <trkpt lat="43.0785200" lon="-1.2612540">
        <ele>1115.6</ele>
        <time>2019-07-16T14:09:33Z</time>
      </trkpt>
      <trkpt lat="43.0785930" lon="-1.2611510">
        <ele>1116.6</ele>
        <time>2019-07-16T14:09:39Z</time>
      </trkpt>
      <trkpt lat="43.0786620" lon="-1.2610560">
        <ele>1117.4</ele>
        <time>2019-07-16T14:09:45Z</time>
      </trkpt>
      <trkpt lat="43.0787190" lon="-1.2609520">
        <ele>1118.0</ele>
        <time>2019-07-16T14:09:51Z</time>
      </trkpt>
      <trkpt lat="43.0787800" lon="-1.2608610">
        <ele>1118.6</ele>
        <time>2019-07-16T14:09:57Z</time>
      </trkpt>
      <trkpt lat="43.0788350" lon="-1.2607610">
        <ele>1119.2</ele>
        <time>2019-07-16T14:10:03Z</time>
      </trkpt>
      <trkpt lat="43.0789100" lon="-1.2606680">
        <ele>1119.8</ele>
        <time>2019-07-16T14:10:10Z</time>
      </trkpt>
      <trkpt lat="43.0789590" lon="-1.2605520">
        <ele>1120.4</ele>
        <time>2019-07-16T14:10:17Z</time>
      </trkpt>
      <trkpt lat="43.0790290" lon="-1.2604530">
        <ele>1120.9</ele>
        <time>2019-07-16T14:10:24Z</time>
      </trkpt>
      <trkpt lat="43.0790890" lon="-1.2603360">
        <ele>1121.6</ele>
        <time>2019-07-16T14:10:31Z</time>
      </trkpt>
      <trkpt lat="43.0791510" lon="-1.2602400">
        <ele>1122.1</ele>
        <time>2019-07-16T14:10:37Z</time>
      </trkpt>
      <trkpt lat="43.0792130" lon="-1.2601450">
        <ele>1122.7</ele>
        <time>2019-07-16T14:10:43Z</time>
      </trkpt>
      <trkpt lat="43.0792790" lon="-1.2600540">
        <ele>1123.3</ele>
        <time>2019-07-16T14:10:49Z</time>
      </trkpt>
      <trkpt lat="43.0793490" lon="-1.2599760">
        <ele>1123.9</ele>
        <time>2019-07-16T14:10:55Z</time>
      </trkpt>
      <trkpt lat="43.0794210" lon="-1.2598890">
        <ele>1124.8</ele>
        <time>2019-07-16T14:11:01Z</time>
      </trkpt>
      <trkpt lat="43.0794980" lon="-1.2598090">
        <ele>1125.7</ele>
        <time>2019-07-16T14:11:07Z</time>
      </trkpt>
      <trkpt lat="43.0795740" lon="-1.2597120">
        <ele>1126.7</ele>
        <time>2019-07-16T14:11:14Z</time>
      </trkpt>
      <trkpt lat="43.0796510" lon="-1.2596260">
        <ele>1127.6</ele>
        <time>2019-07-16T14:11:21Z</time>
      </trkpt>
      <trkpt lat="43.0797150" lon="-1.2595260">
        <ele>1128.4</ele>
        <time>2019-07-16T14:11:28Z</time>
      </trkpt>
      <trkpt lat="43.0797750" lon="-1.2594140">
        <ele>1129.2</ele>
        <time>2019-07-16T14:11:35Z</time>
      </trkpt>
      <trkpt lat="43.0798280" lon="-1.2593130">
        <ele>1129.7</ele>
        <time>2019-07-16T14:11:42Z</time>
      </trkpt>
      <trkpt lat="43.0798790" lon="-1.2591910">
        <ele>1130.1</ele>
        <time>2019-07-16T14:11:49Z</time>
      </trkpt>
      <trkpt lat="43.0799270" lon="-1.2590850">
        <ele>1130.5</ele>
        <time>2019-07-16T14:11:55Z</time>
      </trkpt>
      <trkpt lat="43.0799710" lon="-1.2589750">
        <ele>1131.0</ele>
        <time>2019-07-16T14:12:01Z</time>
      </trkpt>
      <trkpt lat="43.0800200" lon="-1.2588710">
        <ele>1131.7</ele>
        <time>2019-07-16T14:12:07Z</time>
      </trkpt>
      <trkpt lat="43.0800630" lon="-1.2587450">
        <ele>1132.6</ele>
        <time>2019-07-16T14:12:14Z</time>
      </trkpt>
      <trkpt lat="43.0801180" lon="-1.2586260">
        <ele>1133.5</ele>
        <time>2019-07-16T14:12:21Z</time>
      </trkpt>
      <trkpt lat="43.0801540" lon="-1.2584930">
        <ele>1134.2</ele>
        <time>2019-07-16T14:12:28Z</time>
      </trkpt>
      <trkpt lat="43.0801890" lon="-1.2583770">
        <ele>1134.7</ele>
        <time>2019-07-16T14:12:34Z</time>
      </trkpt>
      <trkpt lat="43.0802050" lon="-1.2582490">
        <ele>1135.1</ele>
        <time>2019-07-16T14:12:40Z</time>
      </trkpt>
      <trkpt lat="43.0802000" lon="-1.2581230">
        <ele>1135.2</ele>
        <time>2019-07-16T14:12:46Z</time>
      </trkpt>
      <trkpt lat="43.0802000" lon="-1.2579980">
        <ele>1135.3</ele>
        <time>2019-07-16T14:12:52Z</time>
      </trkpt>
      <trkpt lat="43.0801960" lon="-1.2578600">
        <ele>1135.1</ele>
        <time>2019-07-16T14:12:59Z</time>
      </trkpt>
      <trkpt lat="43.0801970" lon="-1.2577210">
        <ele>1134.9</ele>
        <time>2019-07-16T14:13:06Z</time>
      </trkpt>
      <trkpt lat="43.0801890" lon="-1.2575790">
        <ele>1134.7</ele>
        <time>2019-07-16T14:13:12Z</time>
      </trkpt>
      <trkpt lat="43.0801600" lon="-1.2574600">
        <ele>1134.4</ele>
        <time>2019-07-16T14:13:17Z</time>
      </trkpt>
      <trkpt lat="43.0801250" lon="-1.2573240">
        <ele>1133.9</ele>
        <time>2019-07-16T14:13:23Z</time>
      </trkpt>
      <trkpt lat="43.0800710" lon="-1.2572020">
        <ele>1133.1</ele>
        <time>2019-07-16T14:13:28Z</time>
      </trkpt>
      <trkpt lat="43.0799990" lon="-1.2570850">
        <ele>1132.2</ele>
        <time>2019-07-16T14:13:33Z</time>
      </trkpt>
      <trkpt lat="43.0799200" lon="-1.2569840">
        <ele>1131.3</ele>
        <time>2019-07-16T14:13:37Z</time>
      </trkpt>
      <trkpt lat="43.0798230" lon="-1.2569090">
        <ele>1130.5</ele>
        <time>2019-07-16T14:13:41Z</time>
      </trkpt>
      <trkpt lat="43.0797280" lon="-1.2568430">
        <ele>1129.7</ele>
        <time>2019-07-16T14:13:45Z</time>
      </trkpt>
      <trkpt lat="43.0796620" lon="-1.2567170">
        <ele>1128.6</ele>
        <time>2019-07-16T14:13:49Z</time>
      </trkpt>
      <trkpt lat="43.0796550" lon="-1.2565570">
        <ele>1127.6</ele>
        <time>2019-07-16T14:13:53Z</time>
      </trkpt>
      <trkpt lat="43.0796880" lon="-1.2564300">
        <ele>1126.5</ele>
        <time>2019-07-16T14:13:56Z</time>
      </trkpt>
      <trkpt lat="43.0797450" lon="-1.2563150">
        <ele>1125.5</ele>
        <time>2019-07-16T14:13:59Z</time>
      </trkpt>
      <trkpt lat="43.0798130" lon="-1.2561990">
        <ele>1124.6</ele>
        <time>2019-07-16T14:14:02Z</time>
      </trkpt>
      <trkpt lat="43.0798810" lon="-1.2560680">
        <ele>1123.7</ele>
        <time>2019-07-16T14:14:05Z</time>
      </trkpt>
      <trkpt lat="43.0799360" lon="-1.2559640">
        <ele>1123.0</ele>
        <time>2019-07-16T14:14:07Z</time>
      </trkpt>
      <trkpt lat="43.0800070" lon="-1.2558460">
        <ele>1122.2</ele>
        <time>2019-07-16T14:14:09Z</time>
      </trkpt>
      <trkpt lat="43.0800870" lon="-1.2557150">
        <ele>1121.2</ele>
        <time>2019-07-16T14:14:11Z</time>
      </trkpt>
      <trkpt lat="43.0801640" lon="-1.2555860">
        <ele>1120.1</ele>
        <time>2019-07-16T14:14:13Z</time>
      </trkpt>
      <trkpt lat="43.0802220" lon="-1.2554910">
        <ele>1119.3</ele>
        <time>2019-07-16T14:14:15Z</time>
      </trkpt>
      <trkpt lat="43.0803010" lon="-1.2553730">
        <ele>1118.2</ele>
        <time>2019-07-16T14:14:18Z</time>
      </trkpt>
      <trkpt lat="43.0803730" lon="-1.2552440">
        <ele>1117.0</ele>
        <time>2019-07-16T14:14:21Z</time>
      </trkpt>
      <trkpt lat="43.0804550" lon="-1.2550880">
        <ele>1115.5</ele>
        <time>2019-07-16T14:14:24Z</time>
      </trkpt>
      <trkpt lat="43.0805080" lon="-1.2549510">
        <ele>1114.3</ele>
        <time>2019-07-16T14:14:26Z</time>
      </trkpt>
      <trkpt lat="43.0805570" lon="-1.2548070">
        <ele>1113.1</ele>
        <time>2019-07-16T14:14:28Z</time>
      </trkpt>
      <trkpt lat="43.0806040" lon="-1.2546600">
        <ele>1112.1</ele>
        <time>2019-07-16T14:14:30Z</time>
      </trkpt>
      <trkpt lat="43.0806500" lon="-1.2545170">
        <ele>1111.3</ele>
        <time>2019-07-16T14:14:32Z</time>
      </trkpt>
      <trkpt lat="43.0806960" lon="-1.2543800">
        <ele>1110.7</ele>
        <time>2019-07-16T14:14:34Z</time>
      </trkpt>
      <trkpt lat="43.0807370" lon="-1.2542490">
        <ele>1110.0</ele>
        <time>2019-07-16T14:14:36Z</time>
      </trkpt>
      <trkpt lat="43.0807780" lon="-1.2541180">
        <ele>1109.2</ele>
        <time>2019-07-16T14:14:38Z</time>
      </trkpt>
      <trkpt lat="43.0808200" lon="-1.2539960">
        <ele>1108.3</ele>
        <time>2019-07-16T14:14:40Z</time>
      </trkpt>
      <trkpt lat="43.0808620" lon="-1.2538830">
        <ele>1107.6</ele>
        <time>2019-07-16T14:14:42Z</time>
      </trkpt>
      <trkpt lat="43.0809010" lon="-1.2537690">
        <ele>1107.0</ele>
        <time>2019-07-16T14:14:44Z</time>
      </trkpt>
      <trkpt lat="43.0809440" lon="-1.2536520">
        <ele>1106.2</ele>
        <time>2019-07-16T14:14:46Z</time>
      </trkpt>
      <trkpt lat="43.0809890" lon="-1.2535430">
        <ele>1105.4</ele>
        <time>2019-07-16T14:14:48Z</time>
      </trkpt>
      <trkpt lat="43.0810500" lon="-1.2533810">
        <ele>1104.2</ele>
        <time>2019-07-16T14:14:51Z</time>
      </trkpt>
      <trkpt lat="43.0811020" lon="-1.2532150">
        <ele>1103.0</ele>
        <time>2019-07-16T14:14:54Z</time>
      </trkpt>
      <trkpt lat="43.0811360" lon="-1.2531000">
        <ele>1102.3</ele>
        <time>2019-07-16T14:14:56Z</time>
      </trkpt>
      <trkpt lat="43.0811760" lon="-1.2529340">
        <ele>1101.4</ele>
        <time>2019-07-16T14:14:59Z</time>
      </trkpt>
      <trkpt lat="43.0812050" lon="-1.2527750">
        <ele>1100.4</ele>
        <time>2019-07-16T14:15:02Z</time>
      </trkpt>
      <trkpt lat="43.0812320" lon="-1.2526280">
        <ele>1099.2</ele>
        <time>2019-07-16T14:15:05Z</time>
      </trkpt>
      <trkpt lat="43.0812450" lon="-1.2524910">
        <ele>1098.0</ele>
        <time>2019-07-16T14:15:08Z</time>
      </trkpt>
      <trkpt lat="43.0812650" lon="-1.2523600">
        <ele>1096.7</ele>
        <time>2019-07-16T14:15:11Z</time>
      </trkpt>
      <trkpt lat="43.0812900" lon="-1.2522340">
        <ele>1095.4</ele>
        <time>2019-07-16T14:15:14Z</time>
      </trkpt>
      <trkpt lat="43.0813480" lon="-1.2521070">
        <ele>1093.7</ele>
        <time>2019-07-16T14:15:18Z</time>
      </trkpt>
      <trkpt lat="43.0814460" lon="-1.2520400">
        <ele>1093.7</ele>
        <time>2019-07-16T14:15:22Z</time>
      </trkpt>
      <trkpt lat="43.0815480" lon="-1.2520100">
        <ele>1093.8</ele>
        <time>2019-07-16T14:15:25Z</time>
      </trkpt>
      <trkpt lat="43.0816670" lon="-1.2519930">
        <ele>1093.8</ele>
        <time>2019-07-16T14:15:28Z</time>
      </trkpt>
      <trkpt lat="43.0817860" lon="-1.2519820">
        <ele>1093.9</ele>
        <time>2019-07-16T14:15:31Z</time>
      </trkpt>
      <trkpt lat="43.0818900" lon="-1.2519660">
        <ele>1093.9</ele>
        <time>2019-07-16T14:15:34Z</time>
      </trkpt>
      <trkpt lat="43.0819880" lon="-1.2519640">
        <ele>1093.9</ele>
        <time>2019-07-16T14:15:37Z</time>
      </trkpt>
      <trkpt lat="43.0820920" lon="-1.2519660">
        <ele>1093.8</ele>
        <time>2019-07-16T14:15:40Z</time>
      </trkpt>
      <trkpt lat="43.0821940" lon="-1.2519710">
        <ele>1093.7</ele>
        <time>2019-07-16T14:15:43Z</time>
      </trkpt>
      <trkpt lat="43.0822870" lon="-1.2519720">
        <ele>1093.7</ele>
        <time>2019-07-16T14:15:46Z</time>
      </trkpt>
      <trkpt lat="43.0823830" lon="-1.2519810">
        <ele>1093.6</ele>
        <time>2019-07-16T14:15:49Z</time>
      </trkpt>
      <trkpt lat="43.0824830" lon="-1.2519880">
        <ele>1093.4</ele>
        <time>2019-07-16T14:15:52Z</time>
      </trkpt>
      <trkpt lat="43.0825820" lon="-1.2519900">
        <ele>1093.3</ele>
        <time>2019-07-16T14:15:55Z</time>
      </trkpt>
      <trkpt lat="43.0826820" lon="-1.2519910">
        <ele>1093.2</ele>
        <time>2019-07-16T14:15:58Z</time>
      </trkpt>
      <trkpt lat="43.0827930" lon="-1.2519830">
        <ele>1093.1</ele>
        <time>2019-07-16T14:16:01Z</time>
      </trkpt>
      <trkpt lat="43.0829060" lon="-1.2519670">
        <ele>1093.1</ele>
        <time>2019-07-16T14:16:04Z</time>
      </trkpt>
      <trkpt lat="43.0830260" lon="-1.2519580">
        <ele>1093.1</ele>
        <time>2019-07-16T14:16:07Z</time>
      </trkpt>
      <trkpt lat="43.0831430" lon="-1.2519500">
        <ele>1093.1</ele>
        <time>2019-07-16T14:16:10Z</time>
      </trkpt>
      <trkpt lat="43.0832570" lon="-1.2519430">
        <ele>1093.1</ele>
        <time>2019-07-16T14:16:13Z</time>
      </trkpt>
      <trkpt lat="43.0833740" lon="-1.2519400">
        <ele>1093.1</ele>
        <time>2019-07-16T14:16:16Z</time>
      </trkpt>
      <trkpt lat="43.0834940" lon="-1.2519590">
        <ele>1093.2</ele>
        <time>2019-07-16T14:16:19Z</time>
      </trkpt>
      <trkpt lat="43.0836100" lon="-1.2519930">
        <ele>1093.2</ele>
        <time>2019-07-16T14:16:22Z</time>
      </trkpt>
      <trkpt lat="43.0837310" lon="-1.2520310">
        <ele>1093.3</ele>
        <time>2019-07-16T14:16:25Z</time>
      </trkpt>
      <trkpt lat="43.0838520" lon="-1.2520700">
        <ele>1093.4</ele>
        <time>2019-07-16T14:16:28Z</time>
      </trkpt>
      <trkpt lat="43.0839740" lon="-1.2521000">
        <ele>1093.4</ele>
        <time>2019-07-16T14:16:31Z</time>
      </trkpt>
      <trkpt lat="43.0840940" lon="-1.2521250">
        <ele>1093.5</ele>
        <time>2019-07-16T14:16:34Z</time>
      </trkpt>
      <trkpt lat="43.0842110" lon="-1.2521460">
        <ele>1093.5</ele>
        <time>2019-07-16T14:16:37Z</time>
      </trkpt>
      <trkpt lat="43.0843190" lon="-1.2521580">
        <ele>1093.5</ele>
        <time>2019-07-16T14:16:40Z</time>
      </trkpt>
      <trkpt lat="43.0844270" lon="-1.2521710">
        <ele>1093.4</ele>
        <time>2019-07-16T14:16:43Z</time>
      </trkpt>
      <trkpt lat="43.0845330" lon="-1.2521770">
        <ele>1093.4</ele>
        <time>2019-07-16T14:16:46Z</time>
      </trkpt>
      <trkpt lat="43.0846290" lon="-1.2521780">
        <ele>1093.4</ele>
        <time>2019-07-16T14:16:49Z</time>
      </trkpt>
      <trkpt lat="43.0847230" lon="-1.2521710">
        <ele>1093.2</ele>
        <time>2019-07-16T14:16:52Z</time>
      </trkpt>
      <trkpt lat="43.0848140" lon="-1.2521440">
        <ele>1093.1</ele>
        <time>2019-07-16T14:16:55Z</time>
      </trkpt>
      <trkpt lat="43.0849110" lon="-1.2521130">
        <ele>1092.8</ele>
        <time>2019-07-16T14:16:58Z</time>
      </trkpt>
      <trkpt lat="43.0850210" lon="-1.2520890">
        <ele>1092.6</ele>
        <time>2019-07-16T14:17:01Z</time>
      </trkpt>
      <trkpt lat="43.0851290" lon="-1.2520460">
        <ele>1092.4</ele>
        <time>2019-07-16T14:17:04Z</time>
      </trkpt>
      <trkpt lat="43.0852450" lon="-1.2519910">
        <ele>1092.1</ele>
        <time>2019-07-16T14:17:07Z</time>
      </trkpt>
      <trkpt lat="43.0853590" lon="-1.2519330">
        <ele>1091.7</ele>
        <time>2019-07-16T14:17:10Z</time>
      </trkpt>
      <trkpt lat="43.0854440" lon="-1.2518890">
        <ele>1091.3</ele>
        <time>2019-07-16T14:17:12Z</time>
      </trkpt>
      <trkpt lat="43.0855600" lon="-1.2518180">
        <ele>1090.8</ele>
        <time>2019-07-16T14:17:15Z</time>
      </trkpt>
      <trkpt lat="43.0856780" lon="-1.2517450">
        <ele>1090.0</ele>
        <time>2019-07-16T14:17:18Z</time>
      </trkpt>
      <trkpt lat="43.0857930" lon="-1.2516510">
        <ele>1089.2</ele>
        <time>2019-07-16T14:17:21Z</time>
      </trkpt>
      <trkpt lat="43.0858650" lon="-1.2515560">
        <ele>1088.5</ele>
        <time>2019-07-16T14:17:23Z</time>
      </trkpt>
      <trkpt lat="43.0859270" lon="-1.2514500">
        <ele>1087.7</ele>
        <time>2019-07-16T14:17:25Z</time>
      </trkpt>
      <trkpt lat="43.0859960" lon="-1.2512920">
        <ele>1086.4</ele>
        <time>2019-07-16T14:17:28Z</time>
      </trkpt>
      <trkpt lat="43.0860480" lon="-1.2511830">
        <ele>1085.3</ele>
        <time>2019-07-16T14:17:30Z</time>
      </trkpt>
      <trkpt lat="43.0860980" lon="-1.2510760">
        <ele>1084.4</ele>
        <time>2019-07-16T14:17:32Z</time>
      </trkpt>
      <trkpt lat="43.0861730" lon="-1.2509320">
        <ele>1083.1</ele>
        <time>2019-07-16T14:17:35Z</time>
      </trkpt>
      <trkpt lat="43.0862250" lon="-1.2508290">
        <ele>1082.3</ele>
        <time>2019-07-16T14:17:37Z</time>
      </trkpt>
      <trkpt lat="43.0862840" lon="-1.2507140">
        <ele>1081.6</ele>
        <time>2019-07-16T14:17:39Z</time>
      </trkpt>
      <trkpt lat="43.0863550" lon="-1.2505910">
        <ele>1080.5</ele>
        <time>2019-07-16T14:17:41Z</time>
      </trkpt>
      <trkpt lat="43.0864280" lon="-1.2504560">
        <ele>1079.4</ele>
        <time>2019-07-16T14:17:43Z</time>
      </trkpt>
      <trkpt lat="43.0865240" lon="-1.2503330">
        <ele>1078.4</ele>
        <time>2019-07-16T14:17:45Z</time>
      </trkpt>
      <trkpt lat="43.0866400" lon="-1.2502350">
        <ele>1077.2</ele>
        <time>2019-07-16T14:17:47Z</time>
      </trkpt>
      <trkpt lat="43.0867650" lon="-1.2501690">
        <ele>1076.0</ele>
        <time>2019-07-16T14:17:49Z</time>
      </trkpt>
      <trkpt lat="43.0868970" lon="-1.2501270">
        <ele>1074.6</ele>
        <time>2019-07-16T14:17:51Z</time>
      </trkpt>
      <trkpt lat="43.0870180" lon="-1.2501020">
        <ele>1073.7</ele>
        <time>2019-07-16T14:17:53Z</time>
      </trkpt>
      <trkpt lat="43.0871280" lon="-1.2500810">
        <ele>1072.8</ele>
        <time>2019-07-16T14:17:55Z</time>
      </trkpt>
      <trkpt lat="43.0872200" lon="-1.2500600">
        <ele>1072.2</ele>
        <time>2019-07-16T14:17:57Z</time>
      </trkpt>
      <trkpt lat="43.0873390" lon="-1.2500160">
        <ele>1071.4</ele>
        <time>2019-07-16T14:18:00Z</time>
      </trkpt>
      <trkpt lat="43.0874480" lon="-1.2499410">
        <ele>1070.6</ele>
        <time>2019-07-16T14:18:03Z</time>
      </trkpt>
      <trkpt lat="43.0875500" lon="-1.2498460">
        <ele>1069.8</ele>
        <time>2019-07-16T14:18:06Z</time>
      </trkpt>
      <trkpt lat="43.0876400" lon="-1.2497310">
        <ele>1069.2</ele>
        <time>2019-07-16T14:18:09Z</time>
      </trkpt>
      <trkpt lat="43.0877110" lon="-1.2496010">
        <ele>1068.6</ele>
        <time>2019-07-16T14:18:12Z</time>
      </trkpt>
      <trkpt lat="43.0877720" lon="-1.2494620">
        <ele>1067.8</ele>
        <time>2019-07-16T14:18:15Z</time>
      </trkpt>
      <trkpt lat="43.0878320" lon="-1.2493010">
        <ele>1066.9</ele>
        <time>2019-07-16T14:18:18Z</time>
      </trkpt>
      <trkpt lat="43.0878740" lon="-1.2491870">
        <ele>1066.2</ele>
        <time>2019-07-16T14:18:20Z</time>
      </trkpt>
      <trkpt lat="43.0879200" lon="-1.2490670">
        <ele>1065.5</ele>
        <time>2019-07-16T14:18:22Z</time>
      </trkpt>
      <trkpt lat="43.0879660" lon="-1.2489520">
        <ele>1064.6</ele>
        <time>2019-07-16T14:18:24Z</time>
      </trkpt>
      <trkpt lat="43.0880340" lon="-1.2487960">
        <ele>1063.5</ele>
        <time>2019-07-16T14:18:27Z</time>
      </trkpt>
      <trkpt lat="43.0881110" lon="-1.2486560">
        <ele>1062.4</ele>
        <time>2019-07-16T14:18:30Z</time>
      </trkpt>
      <trkpt lat="43.0881850" lon="-1.2485360">
        <ele>1061.7</ele>
        <time>2019-07-16T14:18:33Z</time>
      </trkpt>
      <trkpt lat="43.0882490" lon="-1.2484440">
        <ele>1060.8</ele>
        <time>2019-07-16T14:18:36Z</time>
      </trkpt>
      <trkpt lat="43.0883100" lon="-1.2483480">
        <ele>1060.1</ele>
        <time>2019-07-16T14:18:41Z</time>
      </trkpt>
      <trkpt lat="43.0884020" lon="-1.2482540">
        <ele>1059.2</ele>
        <time>2019-07-16T14:18:50Z</time>
      </trkpt>
      <trkpt lat="43.0884850" lon="-1.2481450">
        <ele>1058.7</ele>
        <time>2019-07-16T14:18:53Z</time>
      </trkpt>
      <trkpt lat="43.0885690" lon="-1.2480120">
        <ele>1058.0</ele>
        <time>2019-07-16T14:18:56Z</time>
      </trkpt>
      <trkpt lat="43.0886300" lon="-1.2479120">
        <ele>1057.3</ele>
        <time>2019-07-16T14:18:58Z</time>
      </trkpt>
      <trkpt lat="43.0886890" lon="-1.2478010">
        <ele>1056.7</ele>
        <time>2019-07-16T14:19:00Z</time>
      </trkpt>
      <trkpt lat="43.0887480" lon="-1.2476960">
        <ele>1056.0</ele>
        <time>2019-07-16T14:19:02Z</time>
      </trkpt>
      <trkpt lat="43.0888120" lon="-1.2476010">
        <ele>1055.4</ele>
        <time>2019-07-16T14:19:04Z</time>
      </trkpt>
      <trkpt lat="43.0888760" lon="-1.2475100">
        <ele>1054.7</ele>
        <time>2019-07-16T14:19:06Z</time>
      </trkpt>
      <trkpt lat="43.0889440" lon="-1.2474280">
        <ele>1054.1</ele>
        <time>2019-07-16T14:19:08Z</time>
      </trkpt>
      <trkpt lat="43.0890420" lon="-1.2473180">
        <ele>1053.2</ele>
        <time>2019-07-16T14:19:11Z</time>
      </trkpt>
      <trkpt lat="43.0891390" lon="-1.2472210">
        <ele>1052.3</ele>
        <time>2019-07-16T14:19:14Z</time>
      </trkpt>
      <trkpt lat="43.0892270" lon="-1.2471300">
        <ele>1051.5</ele>
        <time>2019-07-16T14:19:17Z</time>
      </trkpt>
      <trkpt lat="43.0893050" lon="-1.2470580">
        <ele>1051.0</ele>
        <time>2019-07-16T14:19:20Z</time>
      </trkpt>
      <trkpt lat="43.0893910" lon="-1.2470230">
        <ele>1050.4</ele>
        <time>2019-07-16T14:19:24Z</time>
      </trkpt>
      <trkpt lat="43.0894880" lon="-1.2469910">
        <ele>1049.9</ele>
        <time>2019-07-16T14:19:29Z</time>
      </trkpt>
      <trkpt lat="43.0895960" lon="-1.2470020">
        <ele>1049.5</ele>
        <time>2019-07-16T14:19:35Z</time>
      </trkpt>
      <trkpt lat="43.0896890" lon="-1.2470020">
        <ele>1049.0</ele>
        <time>2019-07-16T14:19:40Z</time>
      </trkpt>
      <trkpt lat="43.0897770" lon="-1.2469760">
        <ele>1048.7</ele>
        <time>2019-07-16T14:19:45Z</time>
      </trkpt>
      <trkpt lat="43.0898340" lon="-1.2469620">
        <ele>1048.4</ele>
        <time>2019-07-16T14:19:53Z</time>
      </trkpt>
      <trkpt lat="43.0897150" lon="-1.2469730">
        <ele>1047.8</ele>
        <time>2019-07-16T15:01:32Z</time>
      </trkpt>
      <trkpt lat="43.0896220" lon="-1.2469750">
        <ele>1047.3</ele>
        <time>2019-07-16T15:01:37Z</time>
      </trkpt>
      <trkpt lat="43.0895350" lon="-1.2469320">
        <ele>1046.7</ele>
        <time>2019-07-16T15:01:44Z</time>
      </trkpt>
      <trkpt lat="43.0895410" lon="-1.2467880">
        <ele>1046.1</ele>
        <time>2019-07-16T15:01:50Z</time>
      </trkpt>
      <trkpt lat="43.0895730" lon="-1.2466590">
        <ele>1045.1</ele>
        <time>2019-07-16T15:01:53Z</time>
      </trkpt>
      <trkpt lat="43.0895460" lon="-1.2465000">
        <ele>1043.9</ele>
        <time>2019-07-16T15:01:56Z</time>
      </trkpt>
      <trkpt lat="43.0894780" lon="-1.2464120">
        <ele>1042.9</ele>
        <time>2019-07-16T15:01:58Z</time>
      </trkpt>
      <trkpt lat="43.0893800" lon="-1.2463290">
        <ele>1041.5</ele>
        <time>2019-07-16T15:02:00Z</time>
      </trkpt>
      <trkpt lat="43.0892810" lon="-1.2462510">
        <ele>1040.4</ele>
        <time>2019-07-16T15:02:02Z</time>
      </trkpt>
      <trkpt lat="43.0892020" lon="-1.2461520">
        <ele>1039.4</ele>
        <time>2019-07-16T15:02:04Z</time>
      </trkpt>
      <trkpt lat="43.0891290" lon="-1.2460310">
        <ele>1038.3</ele>
        <time>2019-07-16T15:02:06Z</time>
      </trkpt>
      <trkpt lat="43.0890520" lon="-1.2459150">
        <ele>1037.0</ele>
        <time>2019-07-16T15:02:08Z</time>
      </trkpt>
      <trkpt lat="43.0889670" lon="-1.2458160">
        <ele>1035.9</ele>
        <time>2019-07-16T15:02:10Z</time>
      </trkpt>
      <trkpt lat="43.0888800" lon="-1.2457410">
        <ele>1035.1</ele>
        <time>2019-07-16T15:02:12Z</time>
      </trkpt>
      <trkpt lat="43.0887940" lon="-1.2456900">
        <ele>1034.4</ele>
        <time>2019-07-16T15:02:14Z</time>
      </trkpt>
      <trkpt lat="43.0886710" lon="-1.2456400">
        <ele>1033.4</ele>
        <time>2019-07-16T15:02:17Z</time>
      </trkpt>
      <trkpt lat="43.0885660" lon="-1.2455970">
        <ele>1032.5</ele>
        <time>2019-07-16T15:02:20Z</time>
      </trkpt>
      <trkpt lat="43.0885160" lon="-1.2454720">
        <ele>1031.7</ele>
        <time>2019-07-16T15:02:23Z</time>
      </trkpt>
      <trkpt lat="43.0885840" lon="-1.2453270">
        <ele>1029.4</ele>
        <time>2019-07-16T15:02:26Z</time>
      </trkpt>
      <trkpt lat="43.0886660" lon="-1.2452430">
        <ele>1027.4</ele>
        <time>2019-07-16T15:02:28Z</time>
      </trkpt>
      <trkpt lat="43.0887550" lon="-1.2451470">
        <ele>1025.2</ele>
        <time>2019-07-16T15:02:30Z</time>
      </trkpt>
      <trkpt lat="43.0888580" lon="-1.2450640">
        <ele>1022.9</ele>
        <time>2019-07-16T15:02:32Z</time>
      </trkpt>
      <trkpt lat="43.0889570" lon="-1.2449670">
        <ele>1020.4</ele>
        <time>2019-07-16T15:02:34Z</time>
      </trkpt>
      <trkpt lat="43.0890630" lon="-1.2448540">
        <ele>1017.4</ele>
        <time>2019-07-16T15:02:36Z</time>
      </trkpt>
      <trkpt lat="43.0891800" lon="-1.2447390">
        <ele>1014.2</ele>
        <time>2019-07-16T15:02:38Z</time>
      </trkpt>
      <trkpt lat="43.0893020" lon="-1.2446320">
        <ele>1010.8</ele>
        <time>2019-07-16T15:02:40Z</time>
      </trkpt>
      <trkpt lat="43.0894220" lon="-1.2445360">
        <ele>1007.1</ele>
        <time>2019-07-16T15:02:42Z</time>
      </trkpt>
      <trkpt lat="43.0895480" lon="-1.2444610">
        <ele>1005.5</ele>
        <time>2019-07-16T15:02:44Z</time>
      </trkpt>
      <trkpt lat="43.0896800" lon="-1.2444030">
        <ele>1004.3</ele>
        <time>2019-07-16T15:02:46Z</time>
      </trkpt>
      <trkpt lat="43.0898190" lon="-1.2443680">
        <ele>1003.0</ele>
        <time>2019-07-16T15:02:48Z</time>
      </trkpt>
      <trkpt lat="43.0899570" lon="-1.2443380">
        <ele>1001.8</ele>
        <time>2019-07-16T15:02:50Z</time>
      </trkpt>
      <trkpt lat="43.0900930" lon="-1.2443180">
        <ele>1000.8</ele>
        <time>2019-07-16T15:02:52Z</time>
      </trkpt>
      <trkpt lat="43.0902230" lon="-1.2443150">
        <ele>1000.0</ele>
        <time>2019-07-16T15:02:54Z</time>
      </trkpt>
      <trkpt lat="43.0903490" lon="-1.2443130">
        <ele>998.9</ele>
        <time>2019-07-16T15:02:56Z</time>
      </trkpt>
      <trkpt lat="43.0904820" lon="-1.2443000">
        <ele>997.4</ele>
        <time>2019-07-16T15:02:58Z</time>
      </trkpt>
      <trkpt lat="43.0906120" lon="-1.2442760">
        <ele>996.1</ele>
        <time>2019-07-16T15:03:00Z</time>
      </trkpt>
      <trkpt lat="43.0907450" lon="-1.2442480">
        <ele>995.0</ele>
        <time>2019-07-16T15:03:02Z</time>
      </trkpt>
      <trkpt lat="43.0908770" lon="-1.2442200">
        <ele>994.1</ele>
        <time>2019-07-16T15:03:04Z</time>
      </trkpt>
      <trkpt lat="43.0910100" lon="-1.2441760">
        <ele>993.2</ele>
        <time>2019-07-16T15:03:06Z</time>
      </trkpt>
      <trkpt lat="43.0911490" lon="-1.2441260">
        <ele>992.0</ele>
        <time>2019-07-16T15:03:08Z</time>
      </trkpt>
      <trkpt lat="43.0912930" lon="-1.2440680">
        <ele>990.6</ele>
        <time>2019-07-16T15:03:10Z</time>
      </trkpt>
      <trkpt lat="43.0914390" lon="-1.2440050">
        <ele>989.0</ele>
        <time>2019-07-16T15:03:12Z</time>
      </trkpt>
      <trkpt lat="43.0915920" lon="-1.2439320">
        <ele>987.6</ele>
        <time>2019-07-16T15:03:14Z</time>
      </trkpt>
      <trkpt lat="43.0917390" lon="-1.2438570">
        <ele>986.2</ele>
        <time>2019-07-16T15:03:16Z</time>
      </trkpt>
      <trkpt lat="43.0918760" lon="-1.2437850">
        <ele>984.7</ele>
        <time>2019-07-16T15:03:18Z</time>
      </trkpt>
      <trkpt lat="43.0920110" lon="-1.2437030">
        <ele>983.6</ele>
        <time>2019-07-16T15:03:20Z</time>
      </trkpt>
      <trkpt lat="43.0921430" lon="-1.2436070">
        <ele>982.5</ele>
        <time>2019-07-16T15:03:22Z</time>
      </trkpt>
      <trkpt lat="43.0922730" lon="-1.2434980">
        <ele>981.2</ele>
        <time>2019-07-16T15:03:24Z</time>
      </trkpt>
      <trkpt lat="43.0923960" lon="-1.2433810">
        <ele>980.0</ele>
        <time>2019-07-16T15:03:26Z</time>
      </trkpt>
      <trkpt lat="43.0925170" lon="-1.2432660">
        <ele>979.0</ele>
        <time>2019-07-16T15:03:28Z</time>
      </trkpt>
      <trkpt lat="43.0926360" lon="-1.2431680">
        <ele>977.7</ele>
        <time>2019-07-16T15:03:30Z</time>
      </trkpt>
      <trkpt lat="43.0927540" lon="-1.2430780">
        <ele>976.4</ele>
        <time>2019-07-16T15:03:32Z</time>
      </trkpt>
      <trkpt lat="43.0928660" lon="-1.2430040">
        <ele>975.6</ele>
        <time>2019-07-16T15:03:34Z</time>
      </trkpt>
      <trkpt lat="43.0929680" lon="-1.2429420">
        <ele>974.9</ele>
        <time>2019-07-16T15:03:36Z</time>
      </trkpt>
      <trkpt lat="43.0930710" lon="-1.2428820">
        <ele>973.8</ele>
        <time>2019-07-16T15:03:38Z</time>
      </trkpt>
      <trkpt lat="43.0931700" lon="-1.2428240">
        <ele>972.9</ele>
        <time>2019-07-16T15:03:40Z</time>
      </trkpt>
      <trkpt lat="43.0932690" lon="-1.2427730">
        <ele>971.9</ele>
        <time>2019-07-16T15:03:42Z</time>
      </trkpt>
      <trkpt lat="43.0933800" lon="-1.2427160">
        <ele>970.4</ele>
        <time>2019-07-16T15:03:44Z</time>
      </trkpt>
      <trkpt lat="43.0934950" lon="-1.2426540">
        <ele>969.5</ele>
        <time>2019-07-16T15:03:46Z</time>
      </trkpt>
      <trkpt lat="43.0936060" lon="-1.2425930">
        <ele>968.1</ele>
        <time>2019-07-16T15:03:48Z</time>
      </trkpt>
      <trkpt lat="43.0937190" lon="-1.2425290">
        <ele>966.9</ele>
        <time>2019-07-16T15:03:50Z</time>
      </trkpt>
      <trkpt lat="43.0938470" lon="-1.2424750">
        <ele>964.9</ele>
        <time>2019-07-16T15:03:52Z</time>
      </trkpt>
      <trkpt lat="43.0939770" lon="-1.2424300">
        <ele>962.9</ele>
        <time>2019-07-16T15:03:54Z</time>
      </trkpt>
      <trkpt lat="43.0941030" lon="-1.2423920">
        <ele>960.7</ele>
        <time>2019-07-16T15:03:56Z</time>
      </trkpt>
      <trkpt lat="43.0942210" lon="-1.2423620">
        <ele>959.3</ele>
        <time>2019-07-16T15:03:58Z</time>
      </trkpt>
      <trkpt lat="43.0943320" lon="-1.2423410">
        <ele>957.8</ele>
        <time>2019-07-16T15:04:00Z</time>
      </trkpt>
      <trkpt lat="43.0944480" lon="-1.2423290">
        <ele>956.4</ele>
        <time>2019-07-16T15:04:02Z</time>
      </trkpt>
      <trkpt lat="43.0945570" lon="-1.2423200">
        <ele>955.2</ele>
        <time>2019-07-16T15:04:04Z</time>
      </trkpt>
      <trkpt lat="43.0946530" lon="-1.2423200">
        <ele>953.9</ele>
        <time>2019-07-16T15:04:06Z</time>
      </trkpt>
      <trkpt lat="43.0947880" lon="-1.2423300">
        <ele>952.2</ele>
        <time>2019-07-16T15:04:09Z</time>
      </trkpt>
      <trkpt lat="43.0948880" lon="-1.2423420">
        <ele>951.0</ele>
        <time>2019-07-16T15:04:11Z</time>
      </trkpt>
      <trkpt lat="43.0950020" lon="-1.2423540">
        <ele>949.6</ele>
        <time>2019-07-16T15:04:13Z</time>
      </trkpt>
      <trkpt lat="43.0951180" lon="-1.2423680">
        <ele>948.2</ele>
        <time>2019-07-16T15:04:15Z</time>
      </trkpt>
      <trkpt lat="43.0952370" lon="-1.2423770">
        <ele>946.7</ele>
        <time>2019-07-16T15:04:17Z</time>
      </trkpt>
      <trkpt lat="43.0953530" lon="-1.2423720">
        <ele>945.0</ele>
        <time>2019-07-16T15:04:19Z</time>
      </trkpt>
      <trkpt lat="43.0954580" lon="-1.2423520">
        <ele>943.4</ele>
        <time>2019-07-16T15:04:21Z</time>
      </trkpt>
      <trkpt lat="43.0955480" lon="-1.2423210">
        <ele>941.9</ele>
        <time>2019-07-16T15:04:23Z</time>
      </trkpt>
      <trkpt lat="43.0956380" lon="-1.2422830">
        <ele>940.2</ele>
        <time>2019-07-16T15:04:25Z</time>
      </trkpt>
      <trkpt lat="43.0957270" lon="-1.2422390">
        <ele>938.9</ele>
        <time>2019-07-16T15:04:27Z</time>
      </trkpt>
      <trkpt lat="43.0958230" lon="-1.2421890">
        <ele>937.3</ele>
        <time>2019-07-16T15:04:29Z</time>
      </trkpt>
      <trkpt lat="43.0959240" lon="-1.2421350">
        <ele>935.5</ele>
        <time>2019-07-16T15:04:31Z</time>
      </trkpt>
      <trkpt lat="43.0960310" lon="-1.2420810">
        <ele>933.6</ele>
        <time>2019-07-16T15:04:33Z</time>
      </trkpt>
      <trkpt lat="43.0961350" lon="-1.2420340">
        <ele>932.2</ele>
        <time>2019-07-16T15:04:35Z</time>
      </trkpt>
      <trkpt lat="43.0962370" lon="-1.2419920">
        <ele>930.9</ele>
        <time>2019-07-16T15:04:37Z</time>
      </trkpt>
      <trkpt lat="43.0963450" lon="-1.2419430">
        <ele>929.3</ele>
        <time>2019-07-16T15:04:39Z</time>
      </trkpt>
      <trkpt lat="43.0964490" lon="-1.2419010">
        <ele>928.0</ele>
        <time>2019-07-16T15:04:41Z</time>
      </trkpt>
      <trkpt lat="43.0965480" lon="-1.2418620">
        <ele>926.9</ele>
        <time>2019-07-16T15:04:43Z</time>
      </trkpt>
      <trkpt lat="43.0966480" lon="-1.2418230">
        <ele>925.7</ele>
        <time>2019-07-16T15:04:45Z</time>
      </trkpt>
      <trkpt lat="43.0967530" lon="-1.2417840">
        <ele>924.6</ele>
        <time>2019-07-16T15:04:47Z</time>
      </trkpt>
      <trkpt lat="43.0968530" lon="-1.2417490">
        <ele>923.2</ele>
        <time>2019-07-16T15:04:49Z</time>
      </trkpt>
      <trkpt lat="43.0969580" lon="-1.2417060">
        <ele>921.7</ele>
        <time>2019-07-16T15:04:51Z</time>
      </trkpt>
      <trkpt lat="43.0970590" lon="-1.2416570">
        <ele>920.3</ele>
        <time>2019-07-16T15:04:53Z</time>
      </trkpt>
      <trkpt lat="43.0971540" lon="-1.2416000">
        <ele>919.0</ele>
        <time>2019-07-16T15:04:55Z</time>
      </trkpt>
      <trkpt lat="43.0972460" lon="-1.2415450">
        <ele>917.7</ele>
        <time>2019-07-16T15:04:57Z</time>
      </trkpt>
      <trkpt lat="43.0973340" lon="-1.2414940">
        <ele>916.5</ele>
        <time>2019-07-16T15:04:59Z</time>
      </trkpt>
      <trkpt lat="43.0974550" lon="-1.2414450">
        <ele>914.6</ele>
        <time>2019-07-16T15:05:02Z</time>
      </trkpt>
      <trkpt lat="43.0975870" lon="-1.2414410">
        <ele>912.7</ele>
        <time>2019-07-16T15:05:05Z</time>
      </trkpt>
      <trkpt lat="43.0976810" lon="-1.2414320">
        <ele>911.2</ele>
        <time>2019-07-16T15:05:07Z</time>
      </trkpt>
      <trkpt lat="43.0978070" lon="-1.2414130">
        <ele>909.4</ele>
        <time>2019-07-16T15:05:10Z</time>
      </trkpt>
      <trkpt lat="43.0978960" lon="-1.2413860">
        <ele>908.1</ele>
        <time>2019-07-16T15:05:12Z</time>
      </trkpt>
      <trkpt lat="43.0980080" lon="-1.2413300">
        <ele>906.6</ele>
        <time>2019-07-16T15:05:15Z</time>
      </trkpt>
      <trkpt lat="43.0980930" lon="-1.2412860">
        <ele>905.4</ele>
        <time>2019-07-16T15:05:19Z</time>
      </trkpt>
      <trkpt lat="43.0981720" lon="-1.2412270">
        <ele>904.4</ele>
        <time>2019-07-16T15:05:23Z</time>
      </trkpt>
      <trkpt lat="43.0982640" lon="-1.2411770">
        <ele>903.2</ele>
        <time>2019-07-16T15:05:26Z</time>
      </trkpt>
      <trkpt lat="43.0983670" lon="-1.2411300">
        <ele>901.9</ele>
        <time>2019-07-16T15:05:28Z</time>
      </trkpt>
      <trkpt lat="43.0984930" lon="-1.2410760">
        <ele>900.6</ele>
        <time>2019-07-16T15:05:30Z</time>
      </trkpt>
      <trkpt lat="43.0986310" lon="-1.2410230">
        <ele>899.2</ele>
        <time>2019-07-16T15:05:32Z</time>
      </trkpt>
      <trkpt lat="43.0987790" lon="-1.2409710">
        <ele>898.0</ele>
        <time>2019-07-16T15:05:34Z</time>
      </trkpt>
      <trkpt lat="43.0989280" lon="-1.2409110">
        <ele>896.8</ele>
        <time>2019-07-16T15:05:36Z</time>
      </trkpt>
      <trkpt lat="43.0990680" lon="-1.2408510">
        <ele>895.7</ele>
        <time>2019-07-16T15:05:38Z</time>
      </trkpt>
      <trkpt lat="43.0991960" lon="-1.2407990">
        <ele>894.8</ele>
        <time>2019-07-16T15:05:40Z</time>
      </trkpt>
      <trkpt lat="43.0993060" lon="-1.2407600">
        <ele>894.1</ele>
        <time>2019-07-16T15:05:42Z</time>
      </trkpt>
      <trkpt lat="43.0994070" lon="-1.2407360">
        <ele>893.5</ele>
        <time>2019-07-16T15:05:44Z</time>
      </trkpt>
      <trkpt lat="43.0995120" lon="-1.2407220">
        <ele>892.6</ele>
        <time>2019-07-16T15:05:46Z</time>
      </trkpt>
      <trkpt lat="43.0996340" lon="-1.2406970">
        <ele>891.6</ele>
        <time>2019-07-16T15:05:48Z</time>
      </trkpt>
      <trkpt lat="43.0997740" lon="-1.2406650">
        <ele>890.9</ele>
        <time>2019-07-16T15:05:50Z</time>
      </trkpt>
      <trkpt lat="43.0999250" lon="-1.2406190">
        <ele>890.1</ele>
        <time>2019-07-16T15:05:52Z</time>
      </trkpt>
      <trkpt lat="43.1000850" lon="-1.2405550">
        <ele>889.5</ele>
        <time>2019-07-16T15:05:54Z</time>
      </trkpt>
      <trkpt lat="43.1002440" lon="-1.2404880">
        <ele>888.9</ele>
        <time>2019-07-16T15:05:56Z</time>
      </trkpt>
      <trkpt lat="43.1003990" lon="-1.2404170">
        <ele>888.4</ele>
        <time>2019-07-16T15:05:58Z</time>
      </trkpt>
      <trkpt lat="43.1005510" lon="-1.2403500">
        <ele>887.9</ele>
        <time>2019-07-16T15:06:00Z</time>
      </trkpt>
      <trkpt lat="43.1006980" lon="-1.2402800">
        <ele>887.2</ele>
        <time>2019-07-16T15:06:02Z</time>
      </trkpt>
      <trkpt lat="43.1008390" lon="-1.2402160">
        <ele>886.6</ele>
        <time>2019-07-16T15:06:04Z</time>
      </trkpt>
      <trkpt lat="43.1009760" lon="-1.2401480">
        <ele>886.0</ele>
        <time>2019-07-16T15:06:06Z</time>
      </trkpt>
      <trkpt lat="43.1011000" lon="-1.2400900">
        <ele>885.4</ele>
        <time>2019-07-16T15:06:08Z</time>
      </trkpt>
      <trkpt lat="43.1012200" lon="-1.2400480">
        <ele>884.9</ele>
        <time>2019-07-16T15:06:10Z</time>
      </trkpt>
      <trkpt lat="43.1013440" lon="-1.2400120">
        <ele>884.4</ele>
        <time>2019-07-16T15:06:12Z</time>
      </trkpt>
      <trkpt lat="43.1014670" lon="-1.2399890">
        <ele>883.8</ele>
        <time>2019-07-16T15:06:14Z</time>
      </trkpt>
      <trkpt lat="43.1015890" lon="-1.2399690">
        <ele>883.3</ele>
        <time>2019-07-16T15:06:16Z</time>
      </trkpt>
      <trkpt lat="43.1017030" lon="-1.2399510">
        <ele>882.8</ele>
        <time>2019-07-16T15:06:18Z</time>
      </trkpt>
      <trkpt lat="43.1018150" lon="-1.2399290">
        <ele>882.3</ele>
        <time>2019-07-16T15:06:20Z</time>
      </trkpt>
      <trkpt lat="43.1019220" lon="-1.2399110">
        <ele>881.9</ele>
        <time>2019-07-16T15:06:22Z</time>
      </trkpt>
      <trkpt lat="43.1020330" lon="-1.2398900">
        <ele>881.4</ele>
        <time>2019-07-16T15:06:24Z</time>
      </trkpt>
      <trkpt lat="43.1021430" lon="-1.2398630">
        <ele>880.8</ele>
        <time>2019-07-16T15:06:26Z</time>
      </trkpt>
      <trkpt lat="43.1022510" lon="-1.2398350">
        <ele>880.0</ele>
        <time>2019-07-16T15:06:28Z</time>
      </trkpt>
      <trkpt lat="43.1023570" lon="-1.2398240">
        <ele>879.1</ele>
        <time>2019-07-16T15:06:30Z</time>
      </trkpt>
      <trkpt lat="43.1024710" lon="-1.2398230">
        <ele>878.2</ele>
        <time>2019-07-16T15:06:32Z</time>
      </trkpt>
      <trkpt lat="43.1025860" lon="-1.2398390">
        <ele>876.9</ele>
        <time>2019-07-16T15:06:34Z</time>
      </trkpt>
      <trkpt lat="43.1027040" lon="-1.2398630">
        <ele>875.4</ele>
        <time>2019-07-16T15:06:36Z</time>
      </trkpt>
      <trkpt lat="43.1028260" lon="-1.2398970">
        <ele>873.8</ele>
        <time>2019-07-16T15:06:38Z</time>
      </trkpt>
      <trkpt lat="43.1029520" lon="-1.2399300">
        <ele>872.2</ele>
        <time>2019-07-16T15:06:40Z</time>
      </trkpt>
      <trkpt lat="43.1030790" lon="-1.2399420">
        <ele>870.7</ele>
        <time>2019-07-16T15:06:42Z</time>
      </trkpt>
      <trkpt lat="43.1032070" lon="-1.2399350">
        <ele>869.2</ele>
        <time>2019-07-16T15:06:44Z</time>
      </trkpt>
      <trkpt lat="43.1033270" lon="-1.2399140">
        <ele>867.9</ele>
        <time>2019-07-16T15:06:46Z</time>
      </trkpt>
      <trkpt lat="43.1034470" lon="-1.2398960">
        <ele>866.9</ele>
        <time>2019-07-16T15:06:48Z</time>
      </trkpt>
      <trkpt lat="43.1035650" lon="-1.2398790">
        <ele>866.1</ele>
        <time>2019-07-16T15:06:50Z</time>
      </trkpt>
      <trkpt lat="43.1036790" lon="-1.2398540">
        <ele>865.5</ele>
        <time>2019-07-16T15:06:52Z</time>
      </trkpt>
      <trkpt lat="43.1037860" lon="-1.2398160">
        <ele>865.0</ele>
        <time>2019-07-16T15:06:54Z</time>
      </trkpt>
      <trkpt lat="43.1038870" lon="-1.2397650">
        <ele>864.6</ele>
        <time>2019-07-16T15:06:56Z</time>
      </trkpt>
      <trkpt lat="43.1039940" lon="-1.2397000">
        <ele>864.1</ele>
        <time>2019-07-16T15:06:58Z</time>
      </trkpt>
      <trkpt lat="43.1040970" lon="-1.2396210">
        <ele>863.4</ele>
        <time>2019-07-16T15:07:00Z</time>
      </trkpt>
      <trkpt lat="43.1041900" lon="-1.2395510">
        <ele>863.0</ele>
        <time>2019-07-16T15:07:02Z</time>
      </trkpt>
      <trkpt lat="43.1042730" lon="-1.2394870">
        <ele>862.7</ele>
        <time>2019-07-16T15:07:04Z</time>
      </trkpt>
      <trkpt lat="43.1043500" lon="-1.2394130">
        <ele>862.3</ele>
        <time>2019-07-16T15:07:06Z</time>
      </trkpt>
      <trkpt lat="43.1044240" lon="-1.2393370">
        <ele>861.8</ele>
        <time>2019-07-16T15:07:08Z</time>
      </trkpt>
      <trkpt lat="43.1044960" lon="-1.2392530">
        <ele>861.2</ele>
        <time>2019-07-16T15:07:10Z</time>
      </trkpt>
      <trkpt lat="43.1045630" lon="-1.2391630">
        <ele>860.6</ele>
        <time>2019-07-16T15:07:12Z</time>
      </trkpt>
      <trkpt lat="43.1046310" lon="-1.2390810">
        <ele>859.9</ele>
        <time>2019-07-16T15:07:14Z</time>
      </trkpt>
      <trkpt lat="43.1047250" lon="-1.2389740">
        <ele>858.9</ele>
        <time>2019-07-16T15:07:17Z</time>
      </trkpt>
      <trkpt lat="43.1047950" lon="-1.2388920">
        <ele>858.0</ele>
        <time>2019-07-16T15:07:19Z</time>
      </trkpt>
      <trkpt lat="43.1048710" lon="-1.2388040">
        <ele>857.0</ele>
        <time>2019-07-16T15:07:21Z</time>
      </trkpt>
      <trkpt lat="43.1049450" lon="-1.2387210">
        <ele>856.1</ele>
        <time>2019-07-16T15:07:23Z</time>
      </trkpt>
      <trkpt lat="43.1050410" lon="-1.2386160">
        <ele>854.8</ele>
        <time>2019-07-16T15:07:26Z</time>
      </trkpt>
      <trkpt lat="43.1051350" lon="-1.2385100">
        <ele>853.6</ele>
        <time>2019-07-16T15:07:29Z</time>
      </trkpt>
      <trkpt lat="43.1052260" lon="-1.2384080">
        <ele>852.3</ele>
        <time>2019-07-16T15:07:32Z</time>
      </trkpt>
      <trkpt lat="43.1053140" lon="-1.2382960">
        <ele>850.8</ele>
        <time>2019-07-16T15:07:35Z</time>
      </trkpt>
      <trkpt lat="43.1054020" lon="-1.2381810">
        <ele>849.1</ele>
        <time>2019-07-16T15:07:38Z</time>
      </trkpt>
      <trkpt lat="43.1054880" lon="-1.2380900">
        <ele>847.6</ele>
        <time>2019-07-16T15:07:41Z</time>
      </trkpt>
      <trkpt lat="43.1055620" lon="-1.2380170">
        <ele>846.2</ele>
        <time>2019-07-16T15:07:44Z</time>
      </trkpt>
      <trkpt lat="43.1056320" lon="-1.2379620">
        <ele>845.1</ele>
        <time>2019-07-16T15:07:53Z</time>
      </trkpt>
      <trkpt lat="43.1057300" lon="-1.2378980">
        <ele>843.6</ele>
        <time>2019-07-16T15:09:32Z</time>
      </trkpt>
      <trkpt lat="43.1058490" lon="-1.2378990">
        <ele>842.0</ele>
        <time>2019-07-16T15:09:35Z</time>
      </trkpt>
      <trkpt lat="43.1059750" lon="-1.2379110">
        <ele>840.2</ele>
        <time>2019-07-16T15:09:38Z</time>
      </trkpt>
      <trkpt lat="43.1060990" lon="-1.2379580">
        <ele>838.4</ele>
        <time>2019-07-16T15:09:41Z</time>
      </trkpt>
      <trkpt lat="43.1061880" lon="-1.2380020">
        <ele>836.8</ele>
        <time>2019-07-16T15:09:43Z</time>
      </trkpt>
      <trkpt lat="43.1062780" lon="-1.2380650">
        <ele>835.0</ele>
        <time>2019-07-16T15:09:45Z</time>
      </trkpt>
      <trkpt lat="43.1063680" lon="-1.2382030">
        <ele>832.4</ele>
        <time>2019-07-16T15:09:48Z</time>
      </trkpt>
      <trkpt lat="43.1063950" lon="-1.2383260">
        <ele>831.3</ele>
        <time>2019-07-16T15:09:50Z</time>
      </trkpt>
      <trkpt lat="43.1064070" lon="-1.2384500">
        <ele>830.2</ele>
        <time>2019-07-16T15:09:52Z</time>
      </trkpt>
      <trkpt lat="43.1064180" lon="-1.2386310">
        <ele>828.8</ele>
        <time>2019-07-16T15:09:55Z</time>
      </trkpt>
      <trkpt lat="43.1064230" lon="-1.2387560">
        <ele>827.8</ele>
        <time>2019-07-16T15:09:57Z</time>
      </trkpt>
      <trkpt lat="43.1064310" lon="-1.2388830">
        <ele>826.8</ele>
        <time>2019-07-16T15:09:59Z</time>
      </trkpt>
      <trkpt lat="43.1064410" lon="-1.2390560">
        <ele>825.5</ele>
        <time>2019-07-16T15:10:02Z</time>
      </trkpt>
      <trkpt lat="43.1064590" lon="-1.2391790">
        <ele>824.4</ele>
        <time>2019-07-16T15:10:04Z</time>
      </trkpt>
      <trkpt lat="43.1064960" lon="-1.2392950">
        <ele>823.3</ele>
        <time>2019-07-16T15:10:06Z</time>
      </trkpt>
      <trkpt lat="43.1065530" lon="-1.2393940">
        <ele>822.3</ele>
        <time>2019-07-16T15:10:08Z</time>
      </trkpt>
      <trkpt lat="43.1066810" lon="-1.2394170">
        <ele>820.9</ele>
        <time>2019-07-16T15:10:11Z</time>
      </trkpt>
      <trkpt lat="43.1068120" lon="-1.2393840">
        <ele>819.3</ele>
        <time>2019-07-16T15:10:14Z</time>
      </trkpt>
      <trkpt lat="43.1069340" lon="-1.2393840">
        <ele>817.8</ele>
        <time>2019-07-16T15:10:16Z</time>
      </trkpt>
      <trkpt lat="43.1070470" lon="-1.2393820">
        <ele>816.3</ele>
        <time>2019-07-16T15:10:18Z</time>
      </trkpt>
      <trkpt lat="43.1071490" lon="-1.2393900">
        <ele>814.9</ele>
        <time>2019-07-16T15:10:20Z</time>
      </trkpt>
      <trkpt lat="43.1072490" lon="-1.2393940">
        <ele>813.5</ele>
        <time>2019-07-16T15:10:22Z</time>
      </trkpt>
      <trkpt lat="43.1073480" lon="-1.2393960">
        <ele>812.0</ele>
        <time>2019-07-16T15:10:24Z</time>
      </trkpt>
      <trkpt lat="43.1074420" lon="-1.2394030">
        <ele>810.7</ele>
        <time>2019-07-16T15:10:26Z</time>
      </trkpt>
      <trkpt lat="43.1075330" lon="-1.2394100">
        <ele>809.4</ele>
        <time>2019-07-16T15:10:28Z</time>
      </trkpt>
      <trkpt lat="43.1076280" lon="-1.2394180">
        <ele>808.0</ele>
        <time>2019-07-16T15:10:30Z</time>
      </trkpt>
      <trkpt lat="43.1077280" lon="-1.2394280">
        <ele>806.6</ele>
        <time>2019-07-16T15:10:32Z</time>
      </trkpt>
      <trkpt lat="43.1078340" lon="-1.2394290">
        <ele>805.2</ele>
        <time>2019-07-16T15:10:34Z</time>
      </trkpt>
      <trkpt lat="43.1079380" lon="-1.2394260">
        <ele>803.9</ele>
        <time>2019-07-16T15:10:36Z</time>
      </trkpt>
      <trkpt lat="43.1080690" lon="-1.2394020">
        <ele>802.2</ele>
        <time>2019-07-16T15:10:39Z</time>
      </trkpt>
      <trkpt lat="43.1081900" lon="-1.2393500">
        <ele>800.7</ele>
        <time>2019-07-16T15:10:42Z</time>
      </trkpt>
      <trkpt lat="43.1082990" lon="-1.2392890">
        <ele>799.3</ele>
        <time>2019-07-16T15:10:45Z</time>
      </trkpt>
      <trkpt lat="43.1084110" lon="-1.2392400">
        <ele>798.0</ele>
        <time>2019-07-16T15:10:48Z</time>
      </trkpt>
      <trkpt lat="43.1085260" lon="-1.2392280">
        <ele>796.8</ele>
        <time>2019-07-16T15:10:51Z</time>
      </trkpt>
      <trkpt lat="43.1086300" lon="-1.2392180">
        <ele>795.7</ele>
        <time>2019-07-16T15:10:55Z</time>
      </trkpt>
      <trkpt lat="43.1086470" lon="-1.2392190">
        <ele>795.6</ele>
        <time>2019-07-16T15:11:00Z</time>
      </trkpt>
      <trkpt lat="43.1087370" lon="-1.2391670">
        <ele>794.7</ele>
        <time>2019-07-16T15:11:29Z</time>
      </trkpt>
      <trkpt lat="43.1088240" lon="-1.2391610">
        <ele>794.1</ele>
        <time>2019-07-16T15:11:41Z</time>
      </trkpt>
      <trkpt lat="43.1088640" lon="-1.2391490">
        <ele>793.9</ele>
        <time>2019-07-16T15:12:01Z</time>
      </trkpt>
      <trkpt lat="43.1089530" lon="-1.2390780">
        <ele>793.3</ele>
        <time>2019-07-16T15:35:32Z</time>
      </trkpt>
      <trkpt lat="43.1090240" lon="-1.2389940">
        <ele>792.9</ele>
        <time>2019-07-16T15:35:36Z</time>
      </trkpt>
      <trkpt lat="43.1090860" lon="-1.2388950">
        <ele>792.7</ele>
        <time>2019-07-16T15:35:39Z</time>
      </trkpt>
      <trkpt lat="43.1091520" lon="-1.2387870">
        <ele>792.5</ele>
        <time>2019-07-16T15:35:42Z</time>
      </trkpt>
      <trkpt lat="43.1092360" lon="-1.2386980">
        <ele>792.3</ele>
        <time>2019-07-16T15:35:45Z</time>
      </trkpt>
      <trkpt lat="43.1093160" lon="-1.2386140">
        <ele>792.2</ele>
        <time>2019-07-16T15:35:48Z</time>
      </trkpt>
      <trkpt lat="43.1094000" lon="-1.2385350">
        <ele>792.0</ele>
        <time>2019-07-16T15:35:51Z</time>
      </trkpt>
      <trkpt lat="43.1094890" lon="-1.2384590">
        <ele>792.0</ele>
        <time>2019-07-16T15:35:54Z</time>
      </trkpt>
      <trkpt lat="43.1095840" lon="-1.2383980">
        <ele>791.9</ele>
        <time>2019-07-16T15:35:57Z</time>
      </trkpt>
      <trkpt lat="43.1096830" lon="-1.2383320">
        <ele>791.9</ele>
        <time>2019-07-16T15:36:00Z</time>
      </trkpt>
      <trkpt lat="43.1097790" lon="-1.2382860">
        <ele>792.0</ele>
        <time>2019-07-16T15:36:03Z</time>
      </trkpt>
      <trkpt lat="43.1098750" lon="-1.2382470">
        <ele>792.0</ele>
        <time>2019-07-16T15:36:07Z</time>
      </trkpt>
      <trkpt lat="43.1099650" lon="-1.2382220">
        <ele>792.1</ele>
        <time>2019-07-16T15:36:11Z</time>
      </trkpt>
      <trkpt lat="43.1100710" lon="-1.2381900">
        <ele>792.3</ele>
        <time>2019-07-16T15:36:16Z</time>
      </trkpt>
      <trkpt lat="43.1101860" lon="-1.2381640">
        <ele>792.5</ele>
        <time>2019-07-16T15:36:21Z</time>
      </trkpt>
      <trkpt lat="43.1102850" lon="-1.2381490">
        <ele>792.8</ele>
        <time>2019-07-16T15:36:25Z</time>
      </trkpt>
      <trkpt lat="43.1103980" lon="-1.2381300">
        <ele>793.1</ele>
        <time>2019-07-16T15:36:30Z</time>
      </trkpt>
      <trkpt lat="43.1104900" lon="-1.2381120">
        <ele>793.5</ele>
        <time>2019-07-16T15:36:35Z</time>
      </trkpt>
      <trkpt lat="43.1105430" lon="-1.2380920">
        <ele>793.8</ele>
        <time>2019-07-16T15:36:46Z</time>
      </trkpt>
      <trkpt lat="43.1106400" lon="-1.2381020">
        <ele>794.3</ele>
        <time>2019-07-16T15:37:19Z</time>
      </trkpt>
      <trkpt lat="43.1107340" lon="-1.2380780">
        <ele>794.8</ele>
        <time>2019-07-16T15:37:23Z</time>
      </trkpt>
      <trkpt lat="43.1108390" lon="-1.2380540">
        <ele>795.3</ele>
        <time>2019-07-16T15:37:27Z</time>
      </trkpt>
      <trkpt lat="43.1109280" lon="-1.2380290">
        <ele>795.8</ele>
        <time>2019-07-16T15:37:31Z</time>
      </trkpt>
      <trkpt lat="43.1110320" lon="-1.2379870">
        <ele>796.2</ele>
        <time>2019-07-16T15:37:35Z</time>
      </trkpt>
      <trkpt lat="43.1111460" lon="-1.2379360">
        <ele>796.6</ele>
        <time>2019-07-16T15:37:39Z</time>
      </trkpt>
      <trkpt lat="43.1112330" lon="-1.2378800">
        <ele>796.8</ele>
        <time>2019-07-16T15:37:42Z</time>
      </trkpt>
      <trkpt lat="43.1113180" lon="-1.2378340">
        <ele>797.1</ele>
        <time>2019-07-16T15:37:45Z</time>
      </trkpt>
      <trkpt lat="43.1114050" lon="-1.2377890">
        <ele>797.3</ele>
        <time>2019-07-16T15:37:48Z</time>
      </trkpt>
      <trkpt lat="43.1114900" lon="-1.2377410">
        <ele>797.5</ele>
        <time>2019-07-16T15:37:51Z</time>
      </trkpt>
      <trkpt lat="43.1115730" lon="-1.2376900">
        <ele>797.6</ele>
        <time>2019-07-16T15:37:54Z</time>
      </trkpt>
      <trkpt lat="43.1116650" lon="-1.2376500">
        <ele>797.9</ele>
        <time>2019-07-16T15:37:57Z</time>
      </trkpt>
      <trkpt lat="43.1117520" lon="-1.2376100">
        <ele>798.1</ele>
        <time>2019-07-16T15:38:00Z</time>
      </trkpt>
      <trkpt lat="43.1118390" lon="-1.2375680">
        <ele>798.5</ele>
        <time>2019-07-16T15:38:03Z</time>
      </trkpt>
      <trkpt lat="43.1119490" lon="-1.2375050">
        <ele>799.0</ele>
        <time>2019-07-16T15:38:07Z</time>
      </trkpt>
      <trkpt lat="43.1120500" lon="-1.2374390">
        <ele>799.6</ele>
        <time>2019-07-16T15:38:11Z</time>
      </trkpt>
      <trkpt lat="43.1121460" lon="-1.2373670">
        <ele>800.1</ele>
        <time>2019-07-16T15:38:15Z</time>
      </trkpt>
      <trkpt lat="43.1122360" lon="-1.2373110">
        <ele>800.3</ele>
        <time>2019-07-16T15:38:19Z</time>
      </trkpt>
      <trkpt lat="43.1123370" lon="-1.2372700">
        <ele>800.2</ele>
        <time>2019-07-16T15:38:24Z</time>
      </trkpt>
      <trkpt lat="43.1123920" lon="-1.2372610">
        <ele>800.0</ele>
        <time>2019-07-16T15:38:32Z</time>
      </trkpt>
      <trkpt lat="43.1124930" lon="-1.2372470">
        <ele>799.5</ele>
        <time>2019-07-16T15:38:45Z</time>
      </trkpt>
      <trkpt lat="43.1125950" lon="-1.2372480">
        <ele>798.8</ele>
        <time>2019-07-16T15:38:49Z</time>
      </trkpt>
      <trkpt lat="43.1127140" lon="-1.2372460">
        <ele>797.8</ele>
        <time>2019-07-16T15:38:53Z</time>
      </trkpt>
      <trkpt lat="43.1128220" lon="-1.2372580">
        <ele>796.9</ele>
        <time>2019-07-16T15:38:56Z</time>
      </trkpt>
      <trkpt lat="43.1129430" lon="-1.2372750">
        <ele>795.7</ele>
        <time>2019-07-16T15:38:59Z</time>
      </trkpt>
      <trkpt lat="43.1130770" lon="-1.2373060">
        <ele>794.3</ele>
        <time>2019-07-16T15:39:02Z</time>
      </trkpt>
      <trkpt lat="43.1131670" lon="-1.2373360">
        <ele>793.4</ele>
        <time>2019-07-16T15:39:04Z</time>
      </trkpt>
      <trkpt lat="43.1132540" lon="-1.2373670">
        <ele>792.3</ele>
        <time>2019-07-16T15:39:06Z</time>
      </trkpt>
      <trkpt lat="43.1133830" lon="-1.2374130">
        <ele>790.7</ele>
        <time>2019-07-16T15:39:09Z</time>
      </trkpt>
      <trkpt lat="43.1134810" lon="-1.2374480">
        <ele>789.5</ele>
        <time>2019-07-16T15:39:11Z</time>
      </trkpt>
      <trkpt lat="43.1135750" lon="-1.2374810">
        <ele>788.3</ele>
        <time>2019-07-16T15:39:13Z</time>
      </trkpt>
      <trkpt lat="43.1136700" lon="-1.2374980">
        <ele>787.0</ele>
        <time>2019-07-16T15:39:15Z</time>
      </trkpt>
      <trkpt lat="43.1138090" lon="-1.2375470">
        <ele>785.0</ele>
        <time>2019-07-16T15:39:18Z</time>
      </trkpt>
      <trkpt lat="43.1139120" lon="-1.2375790">
        <ele>783.5</ele>
        <time>2019-07-16T15:39:20Z</time>
      </trkpt>
      <trkpt lat="43.1140130" lon="-1.2376200">
        <ele>782.1</ele>
        <time>2019-07-16T15:39:22Z</time>
      </trkpt>
      <trkpt lat="43.1141230" lon="-1.2376550">
        <ele>780.5</ele>
        <time>2019-07-16T15:39:24Z</time>
      </trkpt>
      <trkpt lat="43.1142320" lon="-1.2376860">
        <ele>778.9</ele>
        <time>2019-07-16T15:39:26Z</time>
      </trkpt>
      <trkpt lat="43.1143490" lon="-1.2376940">
        <ele>777.3</ele>
        <time>2019-07-16T15:39:28Z</time>
      </trkpt>
      <trkpt lat="43.1144630" lon="-1.2376870">
        <ele>775.8</ele>
        <time>2019-07-16T15:39:30Z</time>
      </trkpt>
      <trkpt lat="43.1145760" lon="-1.2376680">
        <ele>774.3</ele>
        <time>2019-07-16T15:39:32Z</time>
      </trkpt>
      <trkpt lat="43.1146800" lon="-1.2376490">
        <ele>772.8</ele>
        <time>2019-07-16T15:39:34Z</time>
      </trkpt>
      <trkpt lat="43.1147860" lon="-1.2376380">
        <ele>771.3</ele>
        <time>2019-07-16T15:39:36Z</time>
      </trkpt>
      <trkpt lat="43.1148890" lon="-1.2376270">
        <ele>769.9</ele>
        <time>2019-07-16T15:39:38Z</time>
      </trkpt>
      <trkpt lat="43.1149860" lon="-1.2376280">
        <ele>768.4</ele>
        <time>2019-07-16T15:39:40Z</time>
      </trkpt>
      <trkpt lat="43.1150820" lon="-1.2376250">
        <ele>767.0</ele>
        <time>2019-07-16T15:39:42Z</time>
      </trkpt>
      <trkpt lat="43.1151790" lon="-1.2376220">
        <ele>765.6</ele>
        <time>2019-07-16T15:39:44Z</time>
      </trkpt>
      <trkpt lat="43.1152810" lon="-1.2376180">
        <ele>764.0</ele>
        <time>2019-07-16T15:39:46Z</time>
      </trkpt>
      <trkpt lat="43.1153890" lon="-1.2376170">
        <ele>761.7</ele>
        <time>2019-07-16T15:39:48Z</time>
      </trkpt>
      <trkpt lat="43.1154990" lon="-1.2376220">
        <ele>759.5</ele>
        <time>2019-07-16T15:39:50Z</time>
      </trkpt>
      <trkpt lat="43.1156110" lon="-1.2376320">
        <ele>757.4</ele>
        <time>2019-07-16T15:39:52Z</time>
      </trkpt>
      <trkpt lat="43.1157120" lon="-1.2376440">
        <ele>755.5</ele>
        <time>2019-07-16T15:39:54Z</time>
      </trkpt>
      <trkpt lat="43.1158060" lon="-1.2376550">
        <ele>753.7</ele>
        <time>2019-07-16T15:39:56Z</time>
      </trkpt>
      <trkpt lat="43.1158980" lon="-1.2376640">
        <ele>752.0</ele>
        <time>2019-07-16T15:39:58Z</time>
      </trkpt>
      <trkpt lat="43.1160210" lon="-1.2376950">
        <ele>749.6</ele>
        <time>2019-07-16T15:40:01Z</time>
      </trkpt>
      <trkpt lat="43.1161110" lon="-1.2377250">
        <ele>747.8</ele>
        <time>2019-07-16T15:40:04Z</time>
      </trkpt>
      <trkpt lat="43.1162250" lon="-1.2377840">
        <ele>745.3</ele>
        <time>2019-07-16T15:40:09Z</time>
      </trkpt>
      <trkpt lat="43.1163130" lon="-1.2378160">
        <ele>743.2</ele>
        <time>2019-07-16T15:40:11Z</time>
      </trkpt>
      <trkpt lat="43.1164430" lon="-1.2378610">
        <ele>740.5</ele>
        <time>2019-07-16T15:40:14Z</time>
      </trkpt>
      <trkpt lat="43.1165530" lon="-1.2379000">
        <ele>738.0</ele>
        <time>2019-07-16T15:40:17Z</time>
      </trkpt>
      <trkpt lat="43.1166450" lon="-1.2379340">
        <ele>736.0</ele>
        <time>2019-07-16T15:40:20Z</time>
      </trkpt>
      <trkpt lat="43.1167260" lon="-1.2379960">
        <ele>734.0</ele>
        <time>2019-07-16T15:40:23Z</time>
      </trkpt>
      <trkpt lat="43.1168220" lon="-1.2380590">
        <ele>731.5</ele>
        <time>2019-07-16T15:40:26Z</time>
      </trkpt>
      <trkpt lat="43.1169450" lon="-1.2380920">
        <ele>728.6</ele>
        <time>2019-07-16T15:40:29Z</time>
      </trkpt>
      <trkpt lat="43.1170640" lon="-1.2381230">
        <ele>726.3</ele>
        <time>2019-07-16T15:40:32Z</time>
      </trkpt>
      <trkpt lat="43.1171690" lon="-1.2381690">
        <ele>724.1</ele>
        <time>2019-07-16T15:40:35Z</time>
      </trkpt>
      <trkpt lat="43.1172990" lon="-1.2381970">
        <ele>721.7</ele>
        <time>2019-07-16T15:40:38Z</time>
      </trkpt>
      <trkpt lat="43.1173870" lon="-1.2382190">
        <ele>719.8</ele>
        <time>2019-07-16T15:40:40Z</time>
      </trkpt>
      <trkpt lat="43.1175010" lon="-1.2382470">
        <ele>717.5</ele>
        <time>2019-07-16T15:40:43Z</time>
      </trkpt>
      <trkpt lat="43.1176010" lon="-1.2382860">
        <ele>715.3</ele>
        <time>2019-07-16T15:40:46Z</time>
      </trkpt>
      <trkpt lat="43.1177000" lon="-1.2383420">
        <ele>713.1</ele>
        <time>2019-07-16T15:40:49Z</time>
      </trkpt>
      <trkpt lat="43.1177790" lon="-1.2384060">
        <ele>710.8</ele>
        <time>2019-07-16T15:40:52Z</time>
      </trkpt>
      <trkpt lat="43.1178500" lon="-1.2384870">
        <ele>708.7</ele>
        <time>2019-07-16T15:40:55Z</time>
      </trkpt>
      <trkpt lat="43.1179300" lon="-1.2386040">
        <ele>706.1</ele>
        <time>2019-07-16T15:40:59Z</time>
      </trkpt>
      <trkpt lat="43.1180000" lon="-1.2387370">
        <ele>703.3</ele>
        <time>2019-07-16T15:41:03Z</time>
      </trkpt>
      <trkpt lat="43.1180470" lon="-1.2388450">
        <ele>701.1</ele>
        <time>2019-07-16T15:41:06Z</time>
      </trkpt>
      <trkpt lat="43.1180890" lon="-1.2389900">
        <ele>698.7</ele>
        <time>2019-07-16T15:41:10Z</time>
      </trkpt>
      <trkpt lat="43.1180920" lon="-1.2391330">
        <ele>697.3</ele>
        <time>2019-07-16T15:41:13Z</time>
      </trkpt>
      <trkpt lat="43.1180830" lon="-1.2392770">
        <ele>696.6</ele>
        <time>2019-07-16T15:41:16Z</time>
      </trkpt>
      <trkpt lat="43.1180560" lon="-1.2394070">
        <ele>695.9</ele>
        <time>2019-07-16T15:41:19Z</time>
      </trkpt>
      <trkpt lat="43.1180150" lon="-1.2395160">
        <ele>695.3</ele>
        <time>2019-07-16T15:41:22Z</time>
      </trkpt>
      <trkpt lat="43.1179600" lon="-1.2396430">
        <ele>692.8</ele>
        <time>2019-07-16T15:41:25Z</time>
      </trkpt>
      <trkpt lat="43.1178940" lon="-1.2397610">
        <ele>690.8</ele>
        <time>2019-07-16T15:41:28Z</time>
      </trkpt>
      <trkpt lat="43.1178080" lon="-1.2398530">
        <ele>688.9</ele>
        <time>2019-07-16T15:41:31Z</time>
      </trkpt>
      <trkpt lat="43.1177230" lon="-1.2399050">
        <ele>687.5</ele>
        <time>2019-07-16T15:41:34Z</time>
      </trkpt>
      <trkpt lat="43.1176280" lon="-1.2399360">
        <ele>686.2</ele>
        <time>2019-07-16T15:41:37Z</time>
      </trkpt>
      <trkpt lat="43.1175210" lon="-1.2399600">
        <ele>684.8</ele>
        <time>2019-07-16T15:41:40Z</time>
      </trkpt>
      <trkpt lat="43.1174040" lon="-1.2399940">
        <ele>683.3</ele>
        <time>2019-07-16T15:41:43Z</time>
      </trkpt>
      <trkpt lat="43.1173020" lon="-1.2400270">
        <ele>682.0</ele>
        <time>2019-07-16T15:41:46Z</time>
      </trkpt>
      <trkpt lat="43.1171820" lon="-1.2400920">
        <ele>680.5</ele>
        <time>2019-07-16T15:41:49Z</time>
      </trkpt>
      <trkpt lat="43.1170640" lon="-1.2401700">
        <ele>678.9</ele>
        <time>2019-07-16T15:41:52Z</time>
      </trkpt>
      <trkpt lat="43.1169850" lon="-1.2402290">
        <ele>677.8</ele>
        <time>2019-07-16T15:41:54Z</time>
      </trkpt>
      <trkpt lat="43.1169030" lon="-1.2402970">
        <ele>676.6</ele>
        <time>2019-07-16T15:41:56Z</time>
      </trkpt>
      <trkpt lat="43.1168120" lon="-1.2403740">
        <ele>675.3</ele>
        <time>2019-07-16T15:41:58Z</time>
      </trkpt>
      <trkpt lat="43.1167160" lon="-1.2404500">
        <ele>674.0</ele>
        <time>2019-07-16T15:42:00Z</time>
      </trkpt>
      <trkpt lat="43.1166310" lon="-1.2405140">
        <ele>672.8</ele>
        <time>2019-07-16T15:42:02Z</time>
      </trkpt>
      <trkpt lat="43.1165140" lon="-1.2405980">
        <ele>671.2</ele>
        <time>2019-07-16T15:42:05Z</time>
      </trkpt>
      <trkpt lat="43.1164280" lon="-1.2406550">
        <ele>670.0</ele>
        <time>2019-07-16T15:42:07Z</time>
      </trkpt>
      <trkpt lat="43.1163220" lon="-1.2407150">
        <ele>668.4</ele>
        <time>2019-07-16T15:42:10Z</time>
      </trkpt>
      <trkpt lat="43.1162180" lon="-1.2407720">
        <ele>666.9</ele>
        <time>2019-07-16T15:42:14Z</time>
      </trkpt>
      <trkpt lat="43.1161020" lon="-1.2408360">
        <ele>665.2</ele>
        <time>2019-07-16T15:42:18Z</time>
      </trkpt>
      <trkpt lat="43.1160140" lon="-1.2408790">
        <ele>664.0</ele>
        <time>2019-07-16T15:42:20Z</time>
      </trkpt>
      <trkpt lat="43.1159110" lon="-1.2409280">
        <ele>662.7</ele>
        <time>2019-07-16T15:42:22Z</time>
      </trkpt>
      <trkpt lat="43.1158060" lon="-1.2409750">
        <ele>661.4</ele>
        <time>2019-07-16T15:42:24Z</time>
      </trkpt>
      <trkpt lat="43.1156930" lon="-1.2410270">
        <ele>660.2</ele>
        <time>2019-07-16T15:42:26Z</time>
      </trkpt>
      <trkpt lat="43.1155670" lon="-1.2410850">
        <ele>658.8</ele>
        <time>2019-07-16T15:42:28Z</time>
      </trkpt>
      <trkpt lat="43.1154410" lon="-1.2411390">
        <ele>657.5</ele>
        <time>2019-07-16T15:42:30Z</time>
      </trkpt>
      <trkpt lat="43.1152940" lon="-1.2411910">
        <ele>656.0</ele>
        <time>2019-07-16T15:42:32Z</time>
      </trkpt>
      <trkpt lat="43.1151760" lon="-1.2412420">
        <ele>654.7</ele>
        <time>2019-07-16T15:42:34Z</time>
      </trkpt>
      <trkpt lat="43.1150650" lon="-1.2412990">
        <ele>653.3</ele>
        <time>2019-07-16T15:42:36Z</time>
      </trkpt>
      <trkpt lat="43.1149530" lon="-1.2413650">
        <ele>651.6</ele>
        <time>2019-07-16T15:42:38Z</time>
      </trkpt>
      <trkpt lat="43.1148510" lon="-1.2414240">
        <ele>649.9</ele>
        <time>2019-07-16T15:42:40Z</time>
      </trkpt>
      <trkpt lat="43.1147620" lon="-1.2414780">
        <ele>648.2</ele>
        <time>2019-07-16T15:42:42Z</time>
      </trkpt>
      <trkpt lat="43.1146730" lon="-1.2415280">
        <ele>646.3</ele>
        <time>2019-07-16T15:42:44Z</time>
      </trkpt>
      <trkpt lat="43.1145550" lon="-1.2415800">
        <ele>643.8</ele>
        <time>2019-07-16T15:42:47Z</time>
      </trkpt>
      <trkpt lat="43.1144470" lon="-1.2416160">
        <ele>641.3</ele>
        <time>2019-07-16T15:42:50Z</time>
      </trkpt>
      <trkpt lat="43.1143670" lon="-1.2416780">
        <ele>639.2</ele>
        <time>2019-07-16T15:42:53Z</time>
      </trkpt>
      <trkpt lat="43.1144130" lon="-1.2417850">
        <ele>637.1</ele>
        <time>2019-07-16T15:42:57Z</time>
      </trkpt>
      <trkpt lat="43.1145190" lon="-1.2417820">
        <ele>634.9</ele>
        <time>2019-07-16T15:43:00Z</time>
      </trkpt>
      <trkpt lat="43.1146490" lon="-1.2417610">
        <ele>632.9</ele>
        <time>2019-07-16T15:43:03Z</time>
      </trkpt>
      <trkpt lat="43.1147690" lon="-1.2417390">
        <ele>631.8</ele>
        <time>2019-07-16T15:43:06Z</time>
      </trkpt>
      <trkpt lat="43.1148980" lon="-1.2417180">
        <ele>630.7</ele>
        <time>2019-07-16T15:43:09Z</time>
      </trkpt>
      <trkpt lat="43.1149870" lon="-1.2417000">
        <ele>630.0</ele>
        <time>2019-07-16T15:43:11Z</time>
      </trkpt>
      <trkpt lat="43.1150950" lon="-1.2417440">
        <ele>629.0</ele>
        <time>2019-07-16T15:43:13Z</time>
      </trkpt>
      <trkpt lat="43.1151930" lon="-1.2417440">
        <ele>628.1</ele>
        <time>2019-07-16T15:43:15Z</time>
      </trkpt>
      <trkpt lat="43.1152930" lon="-1.2417400">
        <ele>627.2</ele>
        <time>2019-07-16T15:43:17Z</time>
      </trkpt>
      <trkpt lat="43.1153900" lon="-1.2417410">
        <ele>626.1</ele>
        <time>2019-07-16T15:43:19Z</time>
      </trkpt>
      <trkpt lat="43.1154810" lon="-1.2417510">
        <ele>625.1</ele>
        <time>2019-07-16T15:43:21Z</time>
      </trkpt>
      <trkpt lat="43.1156110" lon="-1.2417500">
        <ele>623.5</ele>
        <time>2019-07-16T15:43:24Z</time>
      </trkpt>
      <trkpt lat="43.1157350" lon="-1.2417450">
        <ele>622.1</ele>
        <time>2019-07-16T15:43:27Z</time>
      </trkpt>
      <trkpt lat="43.1158580" lon="-1.2417500">
        <ele>620.8</ele>
        <time>2019-07-16T15:43:30Z</time>
      </trkpt>
      <trkpt lat="43.1159590" lon="-1.2417470">
        <ele>619.9</ele>
        <time>2019-07-16T15:43:32Z</time>
      </trkpt>
      <trkpt lat="43.1160650" lon="-1.2417530">
        <ele>618.9</ele>
        <time>2019-07-16T15:43:34Z</time>
      </trkpt>
      <trkpt lat="43.1161590" lon="-1.2417520">
        <ele>618.0</ele>
        <time>2019-07-16T15:43:36Z</time>
      </trkpt>
      <trkpt lat="43.1162550" lon="-1.2417510">
        <ele>617.2</ele>
        <time>2019-07-16T15:43:38Z</time>
      </trkpt>
      <trkpt lat="43.1163550" lon="-1.2417520">
        <ele>616.2</ele>
        <time>2019-07-16T15:43:40Z</time>
      </trkpt>
      <trkpt lat="43.1164630" lon="-1.2417530">
        <ele>615.1</ele>
        <time>2019-07-16T15:43:42Z</time>
      </trkpt>
      <trkpt lat="43.1165680" lon="-1.2417480">
        <ele>613.9</ele>
        <time>2019-07-16T15:43:44Z</time>
      </trkpt>
      <trkpt lat="43.1166710" lon="-1.2417450">
        <ele>612.6</ele>
        <time>2019-07-16T15:43:46Z</time>
      </trkpt>
      <trkpt lat="43.1167770" lon="-1.2417300">
        <ele>611.1</ele>
        <time>2019-07-16T15:43:48Z</time>
      </trkpt>
      <trkpt lat="43.1168850" lon="-1.2417210">
        <ele>609.4</ele>
        <time>2019-07-16T15:43:50Z</time>
      </trkpt>
      <trkpt lat="43.1169810" lon="-1.2417000">
        <ele>607.7</ele>
        <time>2019-07-16T15:43:52Z</time>
      </trkpt>
      <trkpt lat="43.1170720" lon="-1.2416810">
        <ele>606.1</ele>
        <time>2019-07-16T15:43:54Z</time>
      </trkpt>
      <trkpt lat="43.1171610" lon="-1.2416610">
        <ele>604.6</ele>
        <time>2019-07-16T15:43:56Z</time>
      </trkpt>
      <trkpt lat="43.1172540" lon="-1.2416570">
        <ele>603.2</ele>
        <time>2019-07-16T15:43:58Z</time>
      </trkpt>
      <trkpt lat="43.1173830" lon="-1.2417010">
        <ele>601.2</ele>
        <time>2019-07-16T15:44:01Z</time>
      </trkpt>
      <trkpt lat="43.1175030" lon="-1.2417840">
        <ele>599.2</ele>
        <time>2019-07-16T15:44:04Z</time>
      </trkpt>
      <trkpt lat="43.1175800" lon="-1.2418490">
        <ele>598.0</ele>
        <time>2019-07-16T15:44:06Z</time>
      </trkpt>
      <trkpt lat="43.1176890" lon="-1.2419470">
        <ele>596.5</ele>
        <time>2019-07-16T15:44:09Z</time>
      </trkpt>
      <trkpt lat="43.1177610" lon="-1.2420260">
        <ele>595.3</ele>
        <time>2019-07-16T15:44:11Z</time>
      </trkpt>
      <trkpt lat="43.1178560" lon="-1.2421600">
        <ele>593.6</ele>
        <time>2019-07-16T15:44:14Z</time>
      </trkpt>
      <trkpt lat="43.1179410" lon="-1.2422750">
        <ele>592.1</ele>
        <time>2019-07-16T15:44:17Z</time>
      </trkpt>
      <trkpt lat="43.1180340" lon="-1.2423920">
        <ele>590.8</ele>
        <time>2019-07-16T15:44:20Z</time>
      </trkpt>
      <trkpt lat="43.1181080" lon="-1.2424760">
        <ele>589.8</ele>
        <time>2019-07-16T15:44:22Z</time>
      </trkpt>
      <trkpt lat="43.1181810" lon="-1.2425600">
        <ele>588.9</ele>
        <time>2019-07-16T15:44:24Z</time>
      </trkpt>
      <trkpt lat="43.1182570" lon="-1.2426510">
        <ele>588.1</ele>
        <time>2019-07-16T15:44:26Z</time>
      </trkpt>
      <trkpt lat="43.1183280" lon="-1.2427450">
        <ele>587.4</ele>
        <time>2019-07-16T15:44:28Z</time>
      </trkpt>
      <trkpt lat="43.1183980" lon="-1.2428340">
        <ele>586.8</ele>
        <time>2019-07-16T15:44:30Z</time>
      </trkpt>
      <trkpt lat="43.1185030" lon="-1.2429490">
        <ele>586.0</ele>
        <time>2019-07-16T15:44:33Z</time>
      </trkpt>
      <trkpt lat="43.1185760" lon="-1.2430230">
        <ele>585.4</ele>
        <time>2019-07-16T15:44:35Z</time>
      </trkpt>
      <trkpt lat="43.1186810" lon="-1.2431380">
        <ele>584.3</ele>
        <time>2019-07-16T15:44:38Z</time>
      </trkpt>
      <trkpt lat="43.1187750" lon="-1.2432530">
        <ele>583.1</ele>
        <time>2019-07-16T15:44:41Z</time>
      </trkpt>
      <trkpt lat="43.1188490" lon="-1.2433320">
        <ele>582.0</ele>
        <time>2019-07-16T15:44:43Z</time>
      </trkpt>
      <trkpt lat="43.1189190" lon="-1.2434120">
        <ele>580.8</ele>
        <time>2019-07-16T15:44:45Z</time>
      </trkpt>
      <trkpt lat="43.1190170" lon="-1.2435330">
        <ele>579.1</ele>
        <time>2019-07-16T15:44:48Z</time>
      </trkpt>
      <trkpt lat="43.1191050" lon="-1.2436390">
        <ele>577.4</ele>
        <time>2019-07-16T15:44:51Z</time>
      </trkpt>
      <trkpt lat="43.1191870" lon="-1.2437490">
        <ele>575.8</ele>
        <time>2019-07-16T15:44:54Z</time>
      </trkpt>
      <trkpt lat="43.1192600" lon="-1.2438340">
        <ele>574.4</ele>
        <time>2019-07-16T15:44:56Z</time>
      </trkpt>
      <trkpt lat="43.1193290" lon="-1.2439150">
        <ele>573.1</ele>
        <time>2019-07-16T15:44:58Z</time>
      </trkpt>
      <trkpt lat="43.1194340" lon="-1.2440270">
        <ele>571.3</ele>
        <time>2019-07-16T15:45:01Z</time>
      </trkpt>
      <trkpt lat="43.1195180" lon="-1.2440980">
        <ele>570.1</ele>
        <time>2019-07-16T15:45:03Z</time>
      </trkpt>
      <trkpt lat="43.1196120" lon="-1.2441680">
        <ele>568.9</ele>
        <time>2019-07-16T15:45:05Z</time>
      </trkpt>
      <trkpt lat="43.1197060" lon="-1.2442330">
        <ele>567.6</ele>
        <time>2019-07-16T15:45:07Z</time>
      </trkpt>
      <trkpt lat="43.1197950" lon="-1.2442910">
        <ele>566.5</ele>
        <time>2019-07-16T15:45:09Z</time>
      </trkpt>
      <trkpt lat="43.1198790" lon="-1.2443460">
        <ele>565.4</ele>
        <time>2019-07-16T15:45:11Z</time>
      </trkpt>
      <trkpt lat="43.1200010" lon="-1.2444220">
        <ele>563.8</ele>
        <time>2019-07-16T15:45:14Z</time>
      </trkpt>
      <trkpt lat="43.1200970" lon="-1.2444660">
        <ele>562.5</ele>
        <time>2019-07-16T15:45:16Z</time>
      </trkpt>
      <trkpt lat="43.1202040" lon="-1.2445000">
        <ele>561.1</ele>
        <time>2019-07-16T15:45:18Z</time>
      </trkpt>
      <trkpt lat="43.1203130" lon="-1.2445210">
        <ele>559.4</ele>
        <time>2019-07-16T15:45:20Z</time>
      </trkpt>
      <trkpt lat="43.1204260" lon="-1.2445220">
        <ele>557.5</ele>
        <time>2019-07-16T15:45:22Z</time>
      </trkpt>
      <trkpt lat="43.1205410" lon="-1.2445100">
        <ele>555.5</ele>
        <time>2019-07-16T15:45:24Z</time>
      </trkpt>
      <trkpt lat="43.1206620" lon="-1.2444840">
        <ele>553.5</ele>
        <time>2019-07-16T15:45:26Z</time>
      </trkpt>
      <trkpt lat="43.1207850" lon="-1.2444490">
        <ele>551.5</ele>
        <time>2019-07-16T15:45:28Z</time>
      </trkpt>
      <trkpt lat="43.1209020" lon="-1.2444130">
        <ele>549.7</ele>
        <time>2019-07-16T15:45:30Z</time>
      </trkpt>
      <trkpt lat="43.1210100" lon="-1.2443750">
        <ele>548.0</ele>
        <time>2019-07-16T15:45:32Z</time>
      </trkpt>
      <trkpt lat="43.1211200" lon="-1.2443360">
        <ele>546.4</ele>
        <time>2019-07-16T15:45:34Z</time>
      </trkpt>
      <trkpt lat="43.1212230" lon="-1.2442790">
        <ele>544.8</ele>
        <time>2019-07-16T15:45:36Z</time>
      </trkpt>
      <trkpt lat="43.1213150" lon="-1.2441980">
        <ele>543.3</ele>
        <time>2019-07-16T15:45:38Z</time>
      </trkpt>
      <trkpt lat="43.1213850" lon="-1.2441180">
        <ele>542.0</ele>
        <time>2019-07-16T15:45:40Z</time>
      </trkpt>
      <trkpt lat="43.1214710" lon="-1.2440180">
        <ele>540.6</ele>
        <time>2019-07-16T15:45:43Z</time>
      </trkpt>
      <trkpt lat="43.1215430" lon="-1.2439260">
        <ele>539.6</ele>
        <time>2019-07-16T15:45:46Z</time>
      </trkpt>
      <trkpt lat="43.1216180" lon="-1.2438380">
        <ele>538.5</ele>
        <time>2019-07-16T15:45:49Z</time>
      </trkpt>
      <trkpt lat="43.1217290" lon="-1.2437810">
        <ele>537.2</ele>
        <time>2019-07-16T15:45:53Z</time>
      </trkpt>
      <trkpt lat="43.1218410" lon="-1.2438050">
        <ele>535.5</ele>
        <time>2019-07-16T15:45:56Z</time>
      </trkpt>
      <trkpt lat="43.1219540" lon="-1.2438800">
        <ele>534.0</ele>
        <time>2019-07-16T15:45:59Z</time>
      </trkpt>
      <trkpt lat="43.1220610" lon="-1.2439670">
        <ele>531.8</ele>
        <time>2019-07-16T15:46:02Z</time>
      </trkpt>
      <trkpt lat="43.1221870" lon="-1.2440360">
        <ele>529.5</ele>
        <time>2019-07-16T15:46:05Z</time>
      </trkpt>
      <trkpt lat="43.1222900" lon="-1.2440960">
        <ele>528.0</ele>
        <time>2019-07-16T15:46:08Z</time>
      </trkpt>
      <trkpt lat="43.1224070" lon="-1.2441720">
        <ele>526.1</ele>
        <time>2019-07-16T15:46:11Z</time>
      </trkpt>
      <trkpt lat="43.1224830" lon="-1.2442470">
        <ele>524.0</ele>
        <time>2019-07-16T15:46:13Z</time>
      </trkpt>
      <trkpt lat="43.1225730" lon="-1.2443480">
        <ele>521.4</ele>
        <time>2019-07-16T15:46:16Z</time>
      </trkpt>
      <trkpt lat="43.1226830" lon="-1.2444360">
        <ele>519.1</ele>
        <time>2019-07-16T15:46:19Z</time>
      </trkpt>
      <trkpt lat="43.1228020" lon="-1.2445220">
        <ele>516.6</ele>
        <time>2019-07-16T15:46:22Z</time>
      </trkpt>
      <trkpt lat="43.1228910" lon="-1.2445750">
        <ele>514.5</ele>
        <time>2019-07-16T15:46:24Z</time>
      </trkpt>
      <trkpt lat="43.1230080" lon="-1.2446490">
        <ele>512.7</ele>
        <time>2019-07-16T15:46:27Z</time>
      </trkpt>
      <trkpt lat="43.1231030" lon="-1.2447070">
        <ele>510.6</ele>
        <time>2019-07-16T15:46:30Z</time>
      </trkpt>
      <trkpt lat="43.1232270" lon="-1.2447680">
        <ele>508.1</ele>
        <time>2019-07-16T15:46:33Z</time>
      </trkpt>
      <trkpt lat="43.1233180" lon="-1.2447830">
        <ele>506.8</ele>
        <time>2019-07-16T15:46:35Z</time>
      </trkpt>
      <trkpt lat="43.1234160" lon="-1.2448070">
        <ele>505.4</ele>
        <time>2019-07-16T15:46:37Z</time>
      </trkpt>
      <trkpt lat="43.1235110" lon="-1.2448250">
        <ele>504.0</ele>
        <time>2019-07-16T15:46:39Z</time>
      </trkpt>
      <trkpt lat="43.1236380" lon="-1.2448520">
        <ele>501.5</ele>
        <time>2019-07-16T15:46:42Z</time>
      </trkpt>
      <trkpt lat="43.1237350" lon="-1.2448990">
        <ele>499.5</ele>
        <time>2019-07-16T15:46:44Z</time>
      </trkpt>
      <trkpt lat="43.1238200" lon="-1.2449450">
        <ele>497.5</ele>
        <time>2019-07-16T15:46:46Z</time>
      </trkpt>
      <trkpt lat="43.1239300" lon="-1.2450270">
        <ele>494.2</ele>
        <time>2019-07-16T15:46:49Z</time>
      </trkpt>
      <trkpt lat="43.1240570" lon="-1.2450590">
        <ele>491.2</ele>
        <time>2019-07-16T15:46:52Z</time>
      </trkpt>
      <trkpt lat="43.1241840" lon="-1.2450190">
        <ele>488.2</ele>
        <time>2019-07-16T15:46:55Z</time>
      </trkpt>
      <trkpt lat="43.1243110" lon="-1.2449470">
        <ele>486.0</ele>
        <time>2019-07-16T15:46:58Z</time>
      </trkpt>
      <trkpt lat="43.1244240" lon="-1.2449190">
        <ele>484.1</ele>
        <time>2019-07-16T15:47:00Z</time>
      </trkpt>
      <trkpt lat="43.1245230" lon="-1.2448990">
        <ele>482.3</ele>
        <time>2019-07-16T15:47:02Z</time>
      </trkpt>
      <trkpt lat="43.1246330" lon="-1.2448690">
        <ele>480.5</ele>
        <time>2019-07-16T15:47:04Z</time>
      </trkpt>
      <trkpt lat="43.1247580" lon="-1.2448140">
        <ele>478.7</ele>
        <time>2019-07-16T15:47:07Z</time>
      </trkpt>
      <trkpt lat="43.1248770" lon="-1.2447630">
        <ele>476.7</ele>
        <time>2019-07-16T15:47:10Z</time>
      </trkpt>
      <trkpt lat="43.1249670" lon="-1.2447360">
        <ele>475.3</ele>
        <time>2019-07-16T15:47:12Z</time>
      </trkpt>
      <trkpt lat="43.1250970" lon="-1.2447320">
        <ele>473.0</ele>
        <time>2019-07-16T15:47:15Z</time>
      </trkpt>
      <trkpt lat="43.1252280" lon="-1.2447340">
        <ele>470.6</ele>
        <time>2019-07-16T15:47:18Z</time>
      </trkpt>
      <trkpt lat="43.1253230" lon="-1.2447180">
        <ele>468.9</ele>
        <time>2019-07-16T15:47:20Z</time>
      </trkpt>
      <trkpt lat="43.1254160" lon="-1.2447070">
        <ele>466.9</ele>
        <time>2019-07-16T15:47:22Z</time>
      </trkpt>
      <trkpt lat="43.1255080" lon="-1.2446940">
        <ele>465.4</ele>
        <time>2019-07-16T15:47:24Z</time>
      </trkpt>
      <trkpt lat="43.1256090" lon="-1.2446860">
        <ele>463.5</ele>
        <time>2019-07-16T15:47:26Z</time>
      </trkpt>
      <trkpt lat="43.1256990" lon="-1.2446750">
        <ele>461.6</ele>
        <time>2019-07-16T15:47:28Z</time>
      </trkpt>
      <trkpt lat="43.1258030" lon="-1.2446690">
        <ele>459.5</ele>
        <time>2019-07-16T15:47:30Z</time>
      </trkpt>
      <trkpt lat="43.1259050" lon="-1.2446700">
        <ele>457.8</ele>
        <time>2019-07-16T15:47:32Z</time>
      </trkpt>
      <trkpt lat="43.1260370" lon="-1.2446410">
        <ele>455.6</ele>
        <time>2019-07-16T15:47:35Z</time>
      </trkpt>
      <trkpt lat="43.1261360" lon="-1.2446030">
        <ele>453.3</ele>
        <time>2019-07-16T15:47:37Z</time>
      </trkpt>
      <trkpt lat="43.1262350" lon="-1.2445540">
        <ele>451.6</ele>
        <time>2019-07-16T15:47:39Z</time>
      </trkpt>
      <trkpt lat="43.1263340" lon="-1.2445070">
        <ele>450.2</ele>
        <time>2019-07-16T15:47:41Z</time>
      </trkpt>
      <trkpt lat="43.1264460" lon="-1.2444520">
        <ele>448.3</ele>
        <time>2019-07-16T15:47:43Z</time>
      </trkpt>
      <trkpt lat="43.1265800" lon="-1.2444050">
        <ele>446.3</ele>
        <time>2019-07-16T15:47:45Z</time>
      </trkpt>
      <trkpt lat="43.1266980" lon="-1.2443690">
        <ele>444.3</ele>
        <time>2019-07-16T15:47:47Z</time>
      </trkpt>
      <trkpt lat="43.1268000" lon="-1.2443380">
        <ele>442.8</ele>
        <time>2019-07-16T15:47:49Z</time>
      </trkpt>
      <trkpt lat="43.1269020" lon="-1.2443160">
        <ele>441.0</ele>
        <time>2019-07-16T15:47:51Z</time>
      </trkpt>
      <trkpt lat="43.1270050" lon="-1.2442940">
        <ele>439.2</ele>
        <time>2019-07-16T15:47:54Z</time>
      </trkpt>
      <trkpt lat="43.1270530" lon="-1.2442720">
        <ele>438.5</ele>
        <time>2019-07-16T15:48:01Z</time>
      </trkpt>
      <trkpt lat="43.1271640" lon="-1.2442530">
        <ele>436.3</ele>
        <time>2019-07-16T15:48:41Z</time>
      </trkpt>
      <trkpt lat="43.1272720" lon="-1.2442510">
        <ele>433.9</ele>
        <time>2019-07-16T15:48:43Z</time>
      </trkpt>
      <trkpt lat="43.1273710" lon="-1.2442330">
        <ele>432.0</ele>
        <time>2019-07-16T15:48:45Z</time>
      </trkpt>
      <trkpt lat="43.1275000" lon="-1.2441920">
        <ele>429.1</ele>
        <time>2019-07-16T15:48:48Z</time>
      </trkpt>
      <trkpt lat="43.1275970" lon="-1.2441740">
        <ele>426.8</ele>
        <time>2019-07-16T15:48:50Z</time>
      </trkpt>
      <trkpt lat="43.1277020" lon="-1.2441870">
        <ele>424.7</ele>
        <time>2019-07-16T15:48:52Z</time>
      </trkpt>
      <trkpt lat="43.1278400" lon="-1.2442050">
        <ele>422.0</ele>
        <time>2019-07-16T15:48:55Z</time>
      </trkpt>
      <trkpt lat="43.1279480" lon="-1.2442160">
        <ele>420.1</ele>
        <time>2019-07-16T15:48:57Z</time>
      </trkpt>
      <trkpt lat="43.1280790" lon="-1.2442370">
        <ele>417.2</ele>
        <time>2019-07-16T15:48:59Z</time>
      </trkpt>
      <trkpt lat="43.1282020" lon="-1.2442660">
        <ele>414.9</ele>
        <time>2019-07-16T15:49:01Z</time>
      </trkpt>
      <trkpt lat="43.1283230" lon="-1.2442990">
        <ele>413.3</ele>
        <time>2019-07-16T15:49:03Z</time>
      </trkpt>
      <trkpt lat="43.1284530" lon="-1.2443330">
        <ele>411.5</ele>
        <time>2019-07-16T15:49:05Z</time>
      </trkpt>
      <trkpt lat="43.1285780" lon="-1.2443840">
        <ele>409.6</ele>
        <time>2019-07-16T15:49:07Z</time>
      </trkpt>
      <trkpt lat="43.1286860" lon="-1.2444400">
        <ele>408.2</ele>
        <time>2019-07-16T15:49:09Z</time>
      </trkpt>
      <trkpt lat="43.1287910" lon="-1.2444970">
        <ele>406.9</ele>
        <time>2019-07-16T15:49:11Z</time>
      </trkpt>
      <trkpt lat="43.1289010" lon="-1.2445560">
        <ele>405.7</ele>
        <time>2019-07-16T15:49:13Z</time>
      </trkpt>
      <trkpt lat="43.1290060" lon="-1.2445960">
        <ele>404.4</ele>
        <time>2019-07-16T15:49:15Z</time>
      </trkpt>
      <trkpt lat="43.1291170" lon="-1.2446290">
        <ele>403.0</ele>
        <time>2019-07-16T15:49:17Z</time>
      </trkpt>
      <trkpt lat="43.1292360" lon="-1.2446790">
        <ele>401.1</ele>
        <time>2019-07-16T15:49:19Z</time>
      </trkpt>
      <trkpt lat="43.1293540" lon="-1.2447360">
        <ele>399.6</ele>
        <time>2019-07-16T15:49:21Z</time>
      </trkpt>
      <trkpt lat="43.1294630" lon="-1.2447830">
        <ele>398.2</ele>
        <time>2019-07-16T15:49:23Z</time>
      </trkpt>
      <trkpt lat="43.1295590" lon="-1.2448290">
        <ele>397.0</ele>
        <time>2019-07-16T15:49:25Z</time>
      </trkpt>
      <trkpt lat="43.1296720" lon="-1.2448860">
        <ele>395.5</ele>
        <time>2019-07-16T15:49:27Z</time>
      </trkpt>
      <trkpt lat="43.1297850" lon="-1.2449450">
        <ele>393.7</ele>
        <time>2019-07-16T15:49:29Z</time>
      </trkpt>
      <trkpt lat="43.1298910" lon="-1.2450000">
        <ele>392.1</ele>
        <time>2019-07-16T15:49:31Z</time>
      </trkpt>
      <trkpt lat="43.1299860" lon="-1.2450610">
        <ele>390.6</ele>
        <time>2019-07-16T15:49:33Z</time>
      </trkpt>
      <trkpt lat="43.1300740" lon="-1.2451250">
        <ele>389.5</ele>
        <time>2019-07-16T15:49:35Z</time>
      </trkpt>
      <trkpt lat="43.1301620" lon="-1.2452160">
        <ele>388.5</ele>
        <time>2019-07-16T15:49:38Z</time>
      </trkpt>
      <trkpt lat="43.1302440" lon="-1.2452680">
        <ele>387.7</ele>
        <time>2019-07-16T15:49:41Z</time>
      </trkpt>
      <trkpt lat="43.1303520" lon="-1.2452040">
        <ele>386.2</ele>
        <time>2019-07-16T15:49:45Z</time>
      </trkpt>
      <trkpt lat="43.1303440" lon="-1.2450790">
        <ele>385.0</ele>
        <time>2019-07-16T15:49:49Z</time>
      </trkpt>
      <trkpt lat="43.1302650" lon="-1.2449590">
        <ele>383.2</ele>
        <time>2019-07-16T15:49:52Z</time>
      </trkpt>
      <trkpt lat="43.1302010" lon="-1.2448040">
        <ele>381.5</ele>
        <time>2019-07-16T15:49:55Z</time>
      </trkpt>
      <trkpt lat="43.1301420" lon="-1.2446970">
        <ele>380.6</ele>
        <time>2019-07-16T15:49:58Z</time>
      </trkpt>
      <trkpt lat="43.1300850" lon="-1.2445510">
        <ele>379.7</ele>
        <time>2019-07-16T15:50:01Z</time>
      </trkpt>
      <trkpt lat="43.1300120" lon="-1.2444010">
        <ele>378.9</ele>
        <time>2019-07-16T15:50:04Z</time>
      </trkpt>
      <trkpt lat="43.1299410" lon="-1.2442580">
        <ele>378.0</ele>
        <time>2019-07-16T15:50:07Z</time>
      </trkpt>
      <trkpt lat="43.1298800" lon="-1.2441120">
        <ele>376.8</ele>
        <time>2019-07-16T15:50:10Z</time>
      </trkpt>
      <trkpt lat="43.1298110" lon="-1.2439600">
        <ele>375.5</ele>
        <time>2019-07-16T15:50:13Z</time>
      </trkpt>
      <trkpt lat="43.1297480" lon="-1.2438040">
        <ele>374.4</ele>
        <time>2019-07-16T15:50:16Z</time>
      </trkpt>
      <trkpt lat="43.1296890" lon="-1.2436520">
        <ele>372.9</ele>
        <time>2019-07-16T15:50:19Z</time>
      </trkpt>
      <trkpt lat="43.1296550" lon="-1.2435370">
        <ele>371.8</ele>
        <time>2019-07-16T15:50:21Z</time>
      </trkpt>
      <trkpt lat="43.1296070" lon="-1.2433650">
        <ele>369.7</ele>
        <time>2019-07-16T15:50:24Z</time>
      </trkpt>
      <trkpt lat="43.1295590" lon="-1.2431950">
        <ele>368.0</ele>
        <time>2019-07-16T15:50:27Z</time>
      </trkpt>
      <trkpt lat="43.1295250" lon="-1.2430710">
        <ele>366.0</ele>
        <time>2019-07-16T15:50:29Z</time>
      </trkpt>
      <trkpt lat="43.1295140" lon="-1.2429290">
        <ele>363.9</ele>
        <time>2019-07-16T15:50:31Z</time>
      </trkpt>
      <trkpt lat="43.1295210" lon="-1.2427750">
        <ele>361.7</ele>
        <time>2019-07-16T15:50:33Z</time>
      </trkpt>
      <trkpt lat="43.1295450" lon="-1.2426280">
        <ele>359.7</ele>
        <time>2019-07-16T15:50:35Z</time>
      </trkpt>
      <trkpt lat="43.1295830" lon="-1.2424500">
        <ele>357.1</ele>
        <time>2019-07-16T15:50:37Z</time>
      </trkpt>
      <trkpt lat="43.1296400" lon="-1.2422540">
        <ele>354.7</ele>
        <time>2019-07-16T15:50:39Z</time>
      </trkpt>
      <trkpt lat="43.1297070" lon="-1.2420600">
        <ele>352.5</ele>
        <time>2019-07-16T15:50:41Z</time>
      </trkpt>
      <trkpt lat="43.1297790" lon="-1.2418740">
        <ele>351.2</ele>
        <time>2019-07-16T15:50:43Z</time>
      </trkpt>
      <trkpt lat="43.1298710" lon="-1.2417100">
        <ele>350.5</ele>
        <time>2019-07-16T15:50:45Z</time>
      </trkpt>
      <trkpt lat="43.1299820" lon="-1.2415940">
        <ele>350.2</ele>
        <time>2019-07-16T15:50:47Z</time>
      </trkpt>
      <trkpt lat="43.1300900" lon="-1.2415120">
        <ele>350.0</ele>
        <time>2019-07-16T15:50:49Z</time>
      </trkpt>
      <trkpt lat="43.1301890" lon="-1.2414310">
        <ele>349.8</ele>
        <time>2019-07-16T15:50:51Z</time>
      </trkpt>
      <trkpt lat="43.1302760" lon="-1.2413530">
        <ele>349.7</ele>
        <time>2019-07-16T15:50:53Z</time>
      </trkpt>
      <trkpt lat="43.1303530" lon="-1.2412870">
        <ele>349.7</ele>
        <time>2019-07-16T15:50:55Z</time>
      </trkpt>
      <trkpt lat="43.1304370" lon="-1.2411990">
        <ele>349.5</ele>
        <time>2019-07-16T15:50:58Z</time>
      </trkpt>
      <trkpt lat="43.1305260" lon="-1.2410860">
        <ele>349.1</ele>
        <time>2019-07-16T15:51:02Z</time>
      </trkpt>
      <trkpt lat="43.1305950" lon="-1.2409340">
        <ele>348.0</ele>
        <time>2019-07-16T15:51:05Z</time>
      </trkpt>
      <trkpt lat="43.1306410" lon="-1.2407980">
        <ele>346.5</ele>
        <time>2019-07-16T15:51:07Z</time>
      </trkpt>
      <trkpt lat="43.1306820" lon="-1.2406480">
        <ele>344.9</ele>
        <time>2019-07-16T15:51:09Z</time>
      </trkpt>
      <trkpt lat="43.1307190" lon="-1.2405000">
        <ele>343.8</ele>
        <time>2019-07-16T15:51:11Z</time>
      </trkpt>
      <trkpt lat="43.1307650" lon="-1.2403620">
        <ele>343.2</ele>
        <time>2019-07-16T15:51:13Z</time>
      </trkpt>
      <trkpt lat="43.1308210" lon="-1.2402290">
        <ele>342.8</ele>
        <time>2019-07-16T15:51:15Z</time>
      </trkpt>
      <trkpt lat="43.1308810" lon="-1.2401100">
        <ele>342.4</ele>
        <time>2019-07-16T15:51:17Z</time>
      </trkpt>
      <trkpt lat="43.1309450" lon="-1.2400160">
        <ele>342.1</ele>
        <time>2019-07-16T15:51:19Z</time>
      </trkpt>
      <trkpt lat="43.1310300" lon="-1.2398760">
        <ele>341.4</ele>
        <time>2019-07-16T15:51:22Z</time>
      </trkpt>
      <trkpt lat="43.1310980" lon="-1.2397630">
        <ele>340.9</ele>
        <time>2019-07-16T15:51:24Z</time>
      </trkpt>
      <trkpt lat="43.1311740" lon="-1.2396500">
        <ele>340.2</ele>
        <time>2019-07-16T15:51:26Z</time>
      </trkpt>
      <trkpt lat="43.1312550" lon="-1.2395460">
        <ele>339.4</ele>
        <time>2019-07-16T15:51:28Z</time>
      </trkpt>
      <trkpt lat="43.1313410" lon="-1.2394530">
        <ele>338.8</ele>
        <time>2019-07-16T15:51:30Z</time>
      </trkpt>
      <trkpt lat="43.1314270" lon="-1.2393680">
        <ele>338.3</ele>
        <time>2019-07-16T15:51:32Z</time>
      </trkpt>
      <trkpt lat="43.1315210" lon="-1.2393020">
        <ele>337.8</ele>
        <time>2019-07-16T15:51:34Z</time>
      </trkpt>
      <trkpt lat="43.1316130" lon="-1.2392460">
        <ele>337.4</ele>
        <time>2019-07-16T15:51:36Z</time>
      </trkpt>
      <trkpt lat="43.1317140" lon="-1.2392000">
        <ele>337.2</ele>
        <time>2019-07-16T15:51:38Z</time>
      </trkpt>
      <trkpt lat="43.1317940" lon="-1.2391330">
        <ele>337.2</ele>
        <time>2019-07-16T15:51:40Z</time>
      </trkpt>
      <trkpt lat="43.1319040" lon="-1.2390560">
        <ele>337.1</ele>
        <time>2019-07-16T15:51:43Z</time>
      </trkpt>
      <trkpt lat="43.1320020" lon="-1.2389560">
        <ele>337.1</ele>
        <time>2019-07-16T15:51:46Z</time>
      </trkpt>
      <trkpt lat="43.1321050" lon="-1.2388440">
        <ele>337.0</ele>
        <time>2019-07-16T15:51:49Z</time>
      </trkpt>
      <trkpt lat="43.1321840" lon="-1.2387720">
        <ele>336.9</ele>
        <time>2019-07-16T15:51:51Z</time>
      </trkpt>
      <trkpt lat="43.1322830" lon="-1.2386800">
        <ele>336.4</ele>
        <time>2019-07-16T15:51:54Z</time>
      </trkpt>
      <trkpt lat="43.1323790" lon="-1.2385890">
        <ele>335.8</ele>
        <time>2019-07-16T15:51:57Z</time>
      </trkpt>
      <trkpt lat="43.1324860" lon="-1.2385070">
        <ele>334.6</ele>
        <time>2019-07-16T15:52:00Z</time>
      </trkpt>
      <trkpt lat="43.1326160" lon="-1.2384560">
        <ele>332.8</ele>
        <time>2019-07-16T15:52:03Z</time>
      </trkpt>
      <trkpt lat="43.1327450" lon="-1.2384260">
        <ele>331.2</ele>
        <time>2019-07-16T15:52:06Z</time>
      </trkpt>
      <trkpt lat="43.1328280" lon="-1.2383640">
        <ele>329.9</ele>
        <time>2019-07-16T15:52:09Z</time>
      </trkpt>
      <trkpt lat="43.1329290" lon="-1.2383320">
        <ele>328.4</ele>
        <time>2019-07-16T15:52:13Z</time>
      </trkpt>
      <trkpt lat="43.1330300" lon="-1.2383330">
        <ele>326.8</ele>
        <time>2019-07-16T15:52:18Z</time>
      </trkpt>
      <trkpt lat="43.1330970" lon="-1.2383570">
        <ele>325.2</ele>
        <time>2019-07-16T15:52:26Z</time>
      </trkpt>
      <trkpt lat="43.1331780" lon="-1.2384840">
        <ele>324.8</ele>
        <time>2019-07-16T15:52:34Z</time>
      </trkpt>
      <trkpt lat="43.1332580" lon="-1.2386110">
        <ele>324.5</ele>
        <time>2019-07-16T15:52:37Z</time>
      </trkpt>
      <trkpt lat="43.1333580" lon="-1.2387350">
        <ele>324.1</ele>
        <time>2019-07-16T15:52:40Z</time>
      </trkpt>
      <trkpt lat="43.1334370" lon="-1.2388140">
        <ele>323.7</ele>
        <time>2019-07-16T15:52:42Z</time>
      </trkpt>
      <trkpt lat="43.1335320" lon="-1.2388740">
        <ele>323.4</ele>
        <time>2019-07-16T15:52:44Z</time>
      </trkpt>
      <trkpt lat="43.1336390" lon="-1.2389220">
        <ele>323.3</ele>
        <time>2019-07-16T15:52:46Z</time>
      </trkpt>
      <trkpt lat="43.1337400" lon="-1.2389550">
        <ele>323.1</ele>
        <time>2019-07-16T15:52:48Z</time>
      </trkpt>
      <trkpt lat="43.1338430" lon="-1.2389700">
        <ele>323.0</ele>
        <time>2019-07-16T15:52:50Z</time>
      </trkpt>
      <trkpt lat="43.1339470" lon="-1.2389570">
        <ele>323.0</ele>
        <time>2019-07-16T15:52:52Z</time>
      </trkpt>
      <trkpt lat="43.1340410" lon="-1.2389130">
        <ele>323.0</ele>
        <time>2019-07-16T15:52:54Z</time>
      </trkpt>
      <trkpt lat="43.1341220" lon="-1.2388380">
        <ele>323.0</ele>
        <time>2019-07-16T15:52:56Z</time>
      </trkpt>
      <trkpt lat="43.1341980" lon="-1.2387570">
        <ele>323.1</ele>
        <time>2019-07-16T15:52:58Z</time>
      </trkpt>
      <trkpt lat="43.1342660" lon="-1.2386730">
        <ele>323.2</ele>
        <time>2019-07-16T15:53:00Z</time>
      </trkpt>
      <trkpt lat="43.1343520" lon="-1.2385540">
        <ele>323.5</ele>
        <time>2019-07-16T15:53:03Z</time>
      </trkpt>
      <trkpt lat="43.1344300" lon="-1.2384580">
        <ele>323.7</ele>
        <time>2019-07-16T15:53:06Z</time>
      </trkpt>
      <trkpt lat="43.1345050" lon="-1.2383760">
        <ele>323.8</ele>
        <time>2019-07-16T15:53:09Z</time>
      </trkpt>
      <trkpt lat="43.1345790" lon="-1.2383020">
        <ele>323.9</ele>
        <time>2019-07-16T15:53:12Z</time>
      </trkpt>
      <trkpt lat="43.1346440" lon="-1.2382150">
        <ele>323.9</ele>
        <time>2019-07-16T15:53:15Z</time>
      </trkpt>
      <trkpt lat="43.1347210" lon="-1.2381420">
        <ele>323.9</ele>
        <time>2019-07-16T15:53:19Z</time>
      </trkpt>
      <trkpt lat="43.1348210" lon="-1.2380770">
        <ele>323.9</ele>
        <time>2019-07-16T15:53:25Z</time>
      </trkpt>
      <trkpt lat="43.1349330" lon="-1.2380480">
        <ele>323.7</ele>
        <time>2019-07-16T15:53:29Z</time>
      </trkpt>
      <trkpt lat="43.1350550" lon="-1.2380690">
        <ele>323.5</ele>
        <time>2019-07-16T15:53:32Z</time>
      </trkpt>
      <trkpt lat="43.1351700" lon="-1.2380840">
        <ele>323.4</ele>
        <time>2019-07-16T15:53:35Z</time>
      </trkpt>
      <trkpt lat="43.1352890" lon="-1.2381150">
        <ele>323.2</ele>
        <time>2019-07-16T15:53:38Z</time>
      </trkpt>
      <trkpt lat="43.1353930" lon="-1.2381230">
        <ele>323.0</ele>
        <time>2019-07-16T15:53:41Z</time>
      </trkpt>
      <trkpt lat="43.1355020" lon="-1.2381250">
        <ele>323.0</ele>
        <time>2019-07-16T15:53:44Z</time>
      </trkpt>
      <trkpt lat="43.1356280" lon="-1.2381210">
        <ele>322.9</ele>
        <time>2019-07-16T15:53:47Z</time>
      </trkpt>
      <trkpt lat="43.1357530" lon="-1.2381070">
        <ele>322.8</ele>
        <time>2019-07-16T15:53:50Z</time>
      </trkpt>
      <trkpt lat="43.1358770" lon="-1.2381090">
        <ele>322.7</ele>
        <time>2019-07-16T15:53:53Z</time>
      </trkpt>
      <trkpt lat="43.1360080" lon="-1.2381190">
        <ele>322.7</ele>
        <time>2019-07-16T15:53:56Z</time>
      </trkpt>
      <trkpt lat="43.1361100" lon="-1.2381420">
        <ele>322.3</ele>
        <time>2019-07-16T15:53:58Z</time>
      </trkpt>
      <trkpt lat="43.1362250" lon="-1.2381900">
        <ele>321.2</ele>
        <time>2019-07-16T15:54:00Z</time>
      </trkpt>
      <trkpt lat="43.1363340" lon="-1.2382250">
        <ele>320.2</ele>
        <time>2019-07-16T15:54:02Z</time>
      </trkpt>
      <trkpt lat="43.1364350" lon="-1.2382450">
        <ele>319.4</ele>
        <time>2019-07-16T15:54:04Z</time>
      </trkpt>
      <trkpt lat="43.1365290" lon="-1.2382650">
        <ele>318.7</ele>
        <time>2019-07-16T15:54:06Z</time>
      </trkpt>
      <trkpt lat="43.1366420" lon="-1.2383060">
        <ele>317.8</ele>
        <time>2019-07-16T15:54:09Z</time>
      </trkpt>
      <trkpt lat="43.1367390" lon="-1.2383560">
        <ele>316.9</ele>
        <time>2019-07-16T15:54:13Z</time>
      </trkpt>
      <trkpt lat="43.1368170" lon="-1.2384490">
        <ele>315.9</ele>
        <time>2019-07-16T15:54:16Z</time>
      </trkpt>
      <trkpt lat="43.1369020" lon="-1.2385650">
        <ele>315.1</ele>
        <time>2019-07-16T15:54:19Z</time>
      </trkpt>
      <trkpt lat="43.1369840" lon="-1.2386460">
        <ele>314.4</ele>
        <time>2019-07-16T15:54:22Z</time>
      </trkpt>
      <trkpt lat="43.1370880" lon="-1.2387110">
        <ele>313.3</ele>
        <time>2019-07-16T15:54:25Z</time>
      </trkpt>
      <trkpt lat="43.1371880" lon="-1.2387800">
        <ele>312.6</ele>
        <time>2019-07-16T15:54:28Z</time>
      </trkpt>
      <trkpt lat="43.1372860" lon="-1.2388290">
        <ele>312.0</ele>
        <time>2019-07-16T15:54:30Z</time>
      </trkpt>
      <trkpt lat="43.1374050" lon="-1.2388660">
        <ele>311.3</ele>
        <time>2019-07-16T15:54:32Z</time>
      </trkpt>
      <trkpt lat="43.1375420" lon="-1.2389000">
        <ele>310.9</ele>
        <time>2019-07-16T15:54:34Z</time>
      </trkpt>
      <trkpt lat="43.1376430" lon="-1.2389160">
        <ele>311.0</ele>
        <time>2019-07-16T15:54:36Z</time>
      </trkpt>
      <trkpt lat="43.1377500" lon="-1.2389450">
        <ele>311.0</ele>
        <time>2019-07-16T15:54:38Z</time>
      </trkpt>
      <trkpt lat="43.1378620" lon="-1.2389680">
        <ele>311.2</ele>
        <time>2019-07-16T15:54:40Z</time>
      </trkpt>
      <trkpt lat="43.1379600" lon="-1.2389880">
        <ele>311.2</ele>
        <time>2019-07-16T15:54:42Z</time>
      </trkpt>
      <trkpt lat="43.1380880" lon="-1.2390170">
        <ele>311.3</ele>
        <time>2019-07-16T15:54:45Z</time>
      </trkpt>
      <trkpt lat="43.1382090" lon="-1.2390490">
        <ele>311.3</ele>
        <time>2019-07-16T15:54:48Z</time>
      </trkpt>
      <trkpt lat="43.1383260" lon="-1.2390830">
        <ele>311.4</ele>
        <time>2019-07-16T15:54:51Z</time>
      </trkpt>
      <trkpt lat="43.1384440" lon="-1.2391260">
        <ele>311.5</ele>
        <time>2019-07-16T15:54:54Z</time>
      </trkpt>
      <trkpt lat="43.1385620" lon="-1.2391750">
        <ele>311.6</ele>
        <time>2019-07-16T15:54:57Z</time>
      </trkpt>
      <trkpt lat="43.1386790" lon="-1.2392420">
        <ele>311.7</ele>
        <time>2019-07-16T15:55:00Z</time>
      </trkpt>
      <trkpt lat="43.1387870" lon="-1.2393220">
        <ele>311.9</ele>
        <time>2019-07-16T15:55:03Z</time>
      </trkpt>
      <trkpt lat="43.1388880" lon="-1.2393930">
        <ele>312.0</ele>
        <time>2019-07-16T15:55:06Z</time>
      </trkpt>
      <trkpt lat="43.1389830" lon="-1.2394630">
        <ele>312.0</ele>
        <time>2019-07-16T15:55:09Z</time>
      </trkpt>
      <trkpt lat="43.1390810" lon="-1.2395370">
        <ele>312.0</ele>
        <time>2019-07-16T15:55:12Z</time>
      </trkpt>
      <trkpt lat="43.1391800" lon="-1.2396190">
        <ele>312.1</ele>
        <time>2019-07-16T15:55:15Z</time>
      </trkpt>
      <trkpt lat="43.1392790" lon="-1.2397030">
        <ele>312.2</ele>
        <time>2019-07-16T15:55:18Z</time>
      </trkpt>
      <trkpt lat="43.1393720" lon="-1.2397990">
        <ele>312.4</ele>
        <time>2019-07-16T15:55:21Z</time>
      </trkpt>
      <trkpt lat="43.1394630" lon="-1.2398900">
        <ele>312.8</ele>
        <time>2019-07-16T15:55:24Z</time>
      </trkpt>
      <trkpt lat="43.1395470" lon="-1.2399870">
        <ele>313.1</ele>
        <time>2019-07-16T15:55:27Z</time>
      </trkpt>
      <trkpt lat="43.1396310" lon="-1.2400770">
        <ele>313.4</ele>
        <time>2019-07-16T15:55:30Z</time>
      </trkpt>
      <trkpt lat="43.1396990" lon="-1.2401630">
        <ele>313.7</ele>
        <time>2019-07-16T15:55:33Z</time>
      </trkpt>
      <trkpt lat="43.1397790" lon="-1.2402290">
        <ele>313.9</ele>
        <time>2019-07-16T15:55:36Z</time>
      </trkpt>
      <trkpt lat="43.1398560" lon="-1.2403090">
        <ele>314.1</ele>
        <time>2019-07-16T15:55:39Z</time>
      </trkpt>
      <trkpt lat="43.1399350" lon="-1.2403960">
        <ele>314.3</ele>
        <time>2019-07-16T15:55:42Z</time>
      </trkpt>
      <trkpt lat="43.1400030" lon="-1.2404800">
        <ele>314.5</ele>
        <time>2019-07-16T15:55:45Z</time>
      </trkpt>
      <trkpt lat="43.1400860" lon="-1.2405580">
        <ele>314.6</ele>
        <time>2019-07-16T15:55:48Z</time>
      </trkpt>
      <trkpt lat="43.1401690" lon="-1.2406190">
        <ele>314.8</ele>
        <time>2019-07-16T15:55:51Z</time>
      </trkpt>
      <trkpt lat="43.1402610" lon="-1.2406900">
        <ele>314.9</ele>
        <time>2019-07-16T15:55:54Z</time>
      </trkpt>
      <trkpt lat="43.1403390" lon="-1.2407560">
        <ele>315.0</ele>
        <time>2019-07-16T15:55:57Z</time>
      </trkpt>
      <trkpt lat="43.1404400" lon="-1.2408400">
        <ele>315.0</ele>
        <time>2019-07-16T15:56:01Z</time>
      </trkpt>
      <trkpt lat="43.1405300" lon="-1.2409100">
        <ele>315.0</ele>
        <time>2019-07-16T15:56:05Z</time>
      </trkpt>
      <trkpt lat="43.1406220" lon="-1.2409940">
        <ele>314.7</ele>
        <time>2019-07-16T15:56:09Z</time>
      </trkpt>
      <trkpt lat="43.1407030" lon="-1.2410520">
        <ele>314.5</ele>
        <time>2019-07-16T15:56:12Z</time>
      </trkpt>
      <trkpt lat="43.1407930" lon="-1.2411220">
        <ele>314.1</ele>
        <time>2019-07-16T15:56:15Z</time>
      </trkpt>
      <trkpt lat="43.1408720" lon="-1.2411850">
        <ele>313.7</ele>
        <time>2019-07-16T15:56:18Z</time>
      </trkpt>
      <trkpt lat="43.1409640" lon="-1.2412430">
        <ele>313.3</ele>
        <time>2019-07-16T15:56:21Z</time>
      </trkpt>
      <trkpt lat="43.1410770" lon="-1.2412840">
        <ele>312.7</ele>
        <time>2019-07-16T15:56:24Z</time>
      </trkpt>
      <trkpt lat="43.1412130" lon="-1.2413330">
        <ele>312.0</ele>
        <time>2019-07-16T15:56:27Z</time>
      </trkpt>
      <trkpt lat="43.1413370" lon="-1.2413550">
        <ele>311.2</ele>
        <time>2019-07-16T15:56:30Z</time>
      </trkpt>
      <trkpt lat="43.1414650" lon="-1.2413910">
        <ele>310.3</ele>
        <time>2019-07-16T15:56:33Z</time>
      </trkpt>
      <trkpt lat="43.1415550" lon="-1.2414050">
        <ele>309.6</ele>
        <time>2019-07-16T15:56:35Z</time>
      </trkpt>
      <trkpt lat="43.1416470" lon="-1.2414330">
        <ele>308.9</ele>
        <time>2019-07-16T15:56:37Z</time>
      </trkpt>
      <trkpt lat="43.1417820" lon="-1.2414410">
        <ele>308.1</ele>
        <time>2019-07-16T15:56:39Z</time>
      </trkpt>
      <trkpt lat="43.1419110" lon="-1.2414540">
        <ele>307.5</ele>
        <time>2019-07-16T15:56:41Z</time>
      </trkpt>
      <trkpt lat="43.1420280" lon="-1.2414630">
        <ele>307.0</ele>
        <time>2019-07-16T15:56:43Z</time>
      </trkpt>
      <trkpt lat="43.1421410" lon="-1.2414860">
        <ele>306.5</ele>
        <time>2019-07-16T15:56:45Z</time>
      </trkpt>
      <trkpt lat="43.1422480" lon="-1.2414980">
        <ele>306.0</ele>
        <time>2019-07-16T15:56:47Z</time>
      </trkpt>
      <trkpt lat="43.1423630" lon="-1.2415070">
        <ele>305.2</ele>
        <time>2019-07-16T15:56:49Z</time>
      </trkpt>
      <trkpt lat="43.1424850" lon="-1.2415020">
        <ele>304.3</ele>
        <time>2019-07-16T15:56:51Z</time>
      </trkpt>
      <trkpt lat="43.1426010" lon="-1.2414710">
        <ele>303.2</ele>
        <time>2019-07-16T15:56:53Z</time>
      </trkpt>
      <trkpt lat="43.1427140" lon="-1.2414190">
        <ele>302.2</ele>
        <time>2019-07-16T15:56:55Z</time>
      </trkpt>
      <trkpt lat="43.1428250" lon="-1.2413470">
        <ele>301.1</ele>
        <time>2019-07-16T15:56:57Z</time>
      </trkpt>
      <trkpt lat="43.1429270" lon="-1.2412600">
        <ele>300.0</ele>
        <time>2019-07-16T15:56:59Z</time>
      </trkpt>
      <trkpt lat="43.1430260" lon="-1.2411770">
        <ele>298.8</ele>
        <time>2019-07-16T15:57:01Z</time>
      </trkpt>
      <trkpt lat="43.1431200" lon="-1.2410950">
        <ele>297.6</ele>
        <time>2019-07-16T15:57:03Z</time>
      </trkpt>
      <trkpt lat="43.1432210" lon="-1.2410120">
        <ele>296.2</ele>
        <time>2019-07-16T15:57:05Z</time>
      </trkpt>
      <trkpt lat="43.1433190" lon="-1.2409180">
        <ele>294.7</ele>
        <time>2019-07-16T15:57:07Z</time>
      </trkpt>
      <trkpt lat="43.1434210" lon="-1.2408120">
        <ele>292.8</ele>
        <time>2019-07-16T15:57:09Z</time>
      </trkpt>
      <trkpt lat="43.1435390" lon="-1.2406820">
        <ele>290.6</ele>
        <time>2019-07-16T15:57:11Z</time>
      </trkpt>
      <trkpt lat="43.1436710" lon="-1.2405420">
        <ele>288.8</ele>
        <time>2019-07-16T15:57:13Z</time>
      </trkpt>
      <trkpt lat="43.1438020" lon="-1.2404080">
        <ele>287.6</ele>
        <time>2019-07-16T15:57:15Z</time>
      </trkpt>
      <trkpt lat="43.1439240" lon="-1.2403000">
        <ele>286.8</ele>
        <time>2019-07-16T15:57:17Z</time>
      </trkpt>
      <trkpt lat="43.1440370" lon="-1.2402190">
        <ele>286.0</ele>
        <time>2019-07-16T15:57:19Z</time>
      </trkpt>
      <trkpt lat="43.1441490" lon="-1.2401630">
        <ele>285.4</ele>
        <time>2019-07-16T15:57:21Z</time>
      </trkpt>
      <trkpt lat="43.1442400" lon="-1.2401480">
        <ele>284.9</ele>
        <time>2019-07-16T15:57:23Z</time>
      </trkpt>
      <trkpt lat="43.1443310" lon="-1.2401620">
        <ele>284.3</ele>
        <time>2019-07-16T15:57:25Z</time>
      </trkpt>
      <trkpt lat="43.1444380" lon="-1.2401740">
        <ele>283.8</ele>
        <time>2019-07-16T15:57:28Z</time>
      </trkpt>
      <trkpt lat="43.1445340" lon="-1.2402000">
        <ele>283.3</ele>
        <time>2019-07-16T15:57:31Z</time>
      </trkpt>
      <trkpt lat="43.1446350" lon="-1.2402400">
        <ele>282.8</ele>
        <time>2019-07-16T15:57:34Z</time>
      </trkpt>
      <trkpt lat="43.1447500" lon="-1.2403060">
        <ele>282.2</ele>
        <time>2019-07-16T15:57:37Z</time>
      </trkpt>
      <trkpt lat="43.1448450" lon="-1.2403620">
        <ele>281.6</ele>
        <time>2019-07-16T15:57:39Z</time>
      </trkpt>
      <trkpt lat="43.1449400" lon="-1.2404330">
        <ele>281.0</ele>
        <time>2019-07-16T15:57:41Z</time>
      </trkpt>
      <trkpt lat="43.1450350" lon="-1.2405110">
        <ele>280.2</ele>
        <time>2019-07-16T15:57:43Z</time>
      </trkpt>
      <trkpt lat="43.1451270" lon="-1.2405900">
        <ele>279.5</ele>
        <time>2019-07-16T15:57:45Z</time>
      </trkpt>
      <trkpt lat="43.1452340" lon="-1.2406810">
        <ele>278.8</ele>
        <time>2019-07-16T15:57:47Z</time>
      </trkpt>
      <trkpt lat="43.1453330" lon="-1.2407680">
        <ele>278.2</ele>
        <time>2019-07-16T15:57:49Z</time>
      </trkpt>
      <trkpt lat="43.1454270" lon="-1.2408600">
        <ele>277.5</ele>
        <time>2019-07-16T15:57:51Z</time>
      </trkpt>
      <trkpt lat="43.1455300" lon="-1.2409560">
        <ele>276.7</ele>
        <time>2019-07-16T15:57:53Z</time>
      </trkpt>
      <trkpt lat="43.1456260" lon="-1.2410590">
        <ele>276.0</ele>
        <time>2019-07-16T15:57:55Z</time>
      </trkpt>
      <trkpt lat="43.1457210" lon="-1.2411500">
        <ele>275.4</ele>
        <time>2019-07-16T15:57:57Z</time>
      </trkpt>
      <trkpt lat="43.1457990" lon="-1.2412450">
        <ele>274.8</ele>
        <time>2019-07-16T15:57:59Z</time>
      </trkpt>
      <trkpt lat="43.1458740" lon="-1.2413340">
        <ele>274.1</ele>
        <time>2019-07-16T15:58:01Z</time>
      </trkpt>
      <trkpt lat="43.1459640" lon="-1.2414210">
        <ele>273.3</ele>
        <time>2019-07-16T15:58:03Z</time>
      </trkpt>
      <trkpt lat="43.1460380" lon="-1.2415150">
        <ele>272.4</ele>
        <time>2019-07-16T15:58:05Z</time>
      </trkpt>
      <trkpt lat="43.1461130" lon="-1.2416130">
        <ele>271.7</ele>
        <time>2019-07-16T15:58:07Z</time>
      </trkpt>
      <trkpt lat="43.1461870" lon="-1.2417050">
        <ele>271.0</ele>
        <time>2019-07-16T15:58:09Z</time>
      </trkpt>
      <trkpt lat="43.1462720" lon="-1.2418130">
        <ele>270.3</ele>
        <time>2019-07-16T15:58:11Z</time>
      </trkpt>
      <trkpt lat="43.1463530" lon="-1.2419130">
        <ele>269.4</ele>
        <time>2019-07-16T15:58:13Z</time>
      </trkpt>
      <trkpt lat="43.1464320" lon="-1.2420110">
        <ele>268.6</ele>
        <time>2019-07-16T15:58:15Z</time>
      </trkpt>
      <trkpt lat="43.1465190" lon="-1.2421050">
        <ele>267.6</ele>
        <time>2019-07-16T15:58:17Z</time>
      </trkpt>
      <trkpt lat="43.1466140" lon="-1.2421820">
        <ele>266.6</ele>
        <time>2019-07-16T15:58:19Z</time>
      </trkpt>
      <trkpt lat="43.1467190" lon="-1.2422530">
        <ele>265.5</ele>
        <time>2019-07-16T15:58:21Z</time>
      </trkpt>
      <trkpt lat="43.1468300" lon="-1.2423210">
        <ele>264.2</ele>
        <time>2019-07-16T15:58:23Z</time>
      </trkpt>
      <trkpt lat="43.1469280" lon="-1.2423790">
        <ele>262.9</ele>
        <time>2019-07-16T15:58:25Z</time>
      </trkpt>
      <trkpt lat="43.1470370" lon="-1.2424340">
        <ele>261.3</ele>
        <time>2019-07-16T15:58:27Z</time>
      </trkpt>
      <trkpt lat="43.1471620" lon="-1.2424900">
        <ele>259.7</ele>
        <time>2019-07-16T15:58:29Z</time>
      </trkpt>
      <trkpt lat="43.1473020" lon="-1.2425270">
        <ele>257.6</ele>
        <time>2019-07-16T15:58:31Z</time>
      </trkpt>
      <trkpt lat="43.1474310" lon="-1.2425400">
        <ele>255.1</ele>
        <time>2019-07-16T15:58:33Z</time>
      </trkpt>
      <trkpt lat="43.1475690" lon="-1.2425390">
        <ele>253.0</ele>
        <time>2019-07-16T15:58:35Z</time>
      </trkpt>
      <trkpt lat="43.1477100" lon="-1.2425430">
        <ele>251.9</ele>
        <time>2019-07-16T15:58:37Z</time>
      </trkpt>
      <trkpt lat="43.1478510" lon="-1.2425380">
        <ele>251.7</ele>
        <time>2019-07-16T15:58:39Z</time>
      </trkpt>
      <trkpt lat="43.1479890" lon="-1.2425080">
        <ele>251.5</ele>
        <time>2019-07-16T15:58:41Z</time>
      </trkpt>
      <trkpt lat="43.1481350" lon="-1.2424700">
        <ele>251.3</ele>
        <time>2019-07-16T15:58:43Z</time>
      </trkpt>
      <trkpt lat="43.1483010" lon="-1.2424500">
        <ele>251.1</ele>
        <time>2019-07-16T15:58:45Z</time>
      </trkpt>
      <trkpt lat="43.1483920" lon="-1.2424570">
        <ele>251.0</ele>
        <time>2019-07-16T15:58:46Z</time>
      </trkpt>
      <trkpt lat="43.1485710" lon="-1.2424750">
        <ele>250.9</ele>
        <time>2019-07-16T15:58:48Z</time>
      </trkpt>
      <trkpt lat="43.1487350" lon="-1.2425050">
        <ele>251.0</ele>
        <time>2019-07-16T15:58:50Z</time>
      </trkpt>
      <trkpt lat="43.1488880" lon="-1.2425250">
        <ele>251.3</ele>
        <time>2019-07-16T15:58:52Z</time>
      </trkpt>
      <trkpt lat="43.1490340" lon="-1.2425380">
        <ele>251.6</ele>
        <time>2019-07-16T15:58:54Z</time>
      </trkpt>
      <trkpt lat="43.1491700" lon="-1.2425420">
        <ele>251.8</ele>
        <time>2019-07-16T15:58:56Z</time>
      </trkpt>
      <trkpt lat="43.1492940" lon="-1.2425270">
        <ele>252.1</ele>
        <time>2019-07-16T15:58:58Z</time>
      </trkpt>
      <trkpt lat="43.1494160" lon="-1.2425210">
        <ele>252.4</ele>
        <time>2019-07-16T15:59:00Z</time>
      </trkpt>
      <trkpt lat="43.1495360" lon="-1.2425270">
        <ele>252.6</ele>
        <time>2019-07-16T15:59:02Z</time>
      </trkpt>
      <trkpt lat="43.1496610" lon="-1.2425440">
        <ele>252.9</ele>
        <time>2019-07-16T15:59:04Z</time>
      </trkpt>
      <trkpt lat="43.1497850" lon="-1.2425680">
        <ele>253.2</ele>
        <time>2019-07-16T15:59:06Z</time>
      </trkpt>
      <trkpt lat="43.1499060" lon="-1.2426020">
        <ele>253.4</ele>
        <time>2019-07-16T15:59:08Z</time>
      </trkpt>
      <trkpt lat="43.1500270" lon="-1.2426470">
        <ele>253.7</ele>
        <time>2019-07-16T15:59:10Z</time>
      </trkpt>
      <trkpt lat="43.1501400" lon="-1.2426920">
        <ele>253.9</ele>
        <time>2019-07-16T15:59:12Z</time>
      </trkpt>
      <trkpt lat="43.1502480" lon="-1.2427420">
        <ele>254.2</ele>
        <time>2019-07-16T15:59:14Z</time>
      </trkpt>
      <trkpt lat="43.1503540" lon="-1.2427730">
        <ele>254.4</ele>
        <time>2019-07-16T15:59:16Z</time>
      </trkpt>
      <trkpt lat="43.1504560" lon="-1.2427890">
        <ele>254.6</ele>
        <time>2019-07-16T15:59:18Z</time>
      </trkpt>
      <trkpt lat="43.1505580" lon="-1.2427880">
        <ele>254.8</ele>
        <time>2019-07-16T15:59:20Z</time>
      </trkpt>
      <trkpt lat="43.1506660" lon="-1.2427750">
        <ele>255.2</ele>
        <time>2019-07-16T15:59:22Z</time>
      </trkpt>
      <trkpt lat="43.1507640" lon="-1.2427540">
        <ele>255.6</ele>
        <time>2019-07-16T15:59:24Z</time>
      </trkpt>
      <trkpt lat="43.1508650" lon="-1.2427450">
        <ele>256.3</ele>
        <time>2019-07-16T15:59:26Z</time>
      </trkpt>
      <trkpt lat="43.1509620" lon="-1.2427380">
        <ele>256.9</ele>
        <time>2019-07-16T15:59:28Z</time>
      </trkpt>
      <trkpt lat="43.1510520" lon="-1.2427190">
        <ele>256.5</ele>
        <time>2019-07-16T15:59:30Z</time>
      </trkpt>
      <trkpt lat="43.1511730" lon="-1.2426720">
        <ele>255.8</ele>
        <time>2019-07-16T15:59:33Z</time>
      </trkpt>
      <trkpt lat="43.1512910" lon="-1.2426150">
        <ele>255.2</ele>
        <time>2019-07-16T15:59:36Z</time>
      </trkpt>
      <trkpt lat="43.1513930" lon="-1.2425600">
        <ele>254.7</ele>
        <time>2019-07-16T15:59:39Z</time>
      </trkpt>
      <trkpt lat="43.1514920" lon="-1.2424960">
        <ele>253.9</ele>
        <time>2019-07-16T15:59:42Z</time>
      </trkpt>
      <trkpt lat="43.1515840" lon="-1.2424380">
        <ele>253.2</ele>
        <time>2019-07-16T15:59:45Z</time>
      </trkpt>
      <trkpt lat="43.1516720" lon="-1.2423840">
        <ele>252.7</ele>
        <time>2019-07-16T15:59:48Z</time>
      </trkpt>
      <trkpt lat="43.1517690" lon="-1.2423570">
        <ele>252.1</ele>
        <time>2019-07-16T15:59:51Z</time>
      </trkpt>
      <trkpt lat="43.1518600" lon="-1.2422990">
        <ele>251.6</ele>
        <time>2019-07-16T15:59:55Z</time>
      </trkpt>
      <trkpt lat="43.1519580" lon="-1.2422670">
        <ele>250.8</ele>
        <time>2019-07-16T16:00:00Z</time>
      </trkpt>
      <trkpt lat="43.1520450" lon="-1.2422150">
        <ele>250.0</ele>
        <time>2019-07-16T16:00:04Z</time>
      </trkpt>
      <trkpt lat="43.1521480" lon="-1.2421560">
        <ele>249.3</ele>
        <time>2019-07-16T16:00:09Z</time>
      </trkpt>
      <trkpt lat="43.1522470" lon="-1.2421130">
        <ele>248.7</ele>
        <time>2019-07-16T16:00:14Z</time>
      </trkpt>
      <trkpt lat="43.1523540" lon="-1.2420970">
        <ele>247.7</ele>
        <time>2019-07-16T16:00:19Z</time>
      </trkpt>
      <trkpt lat="43.1524410" lon="-1.2420630">
        <ele>247.0</ele>
        <time>2019-07-16T16:00:23Z</time>
      </trkpt>
      <trkpt lat="43.1525340" lon="-1.2420390">
        <ele>246.4</ele>
        <time>2019-07-16T16:00:27Z</time>
      </trkpt>
      <trkpt lat="43.1526270" lon="-1.2420340">
        <ele>245.6</ele>
        <time>2019-07-16T16:00:32Z</time>
      </trkpt>
      <trkpt lat="43.1527310" lon="-1.2419930">
        <ele>244.9</ele>
        <time>2019-07-16T16:00:38Z</time>
      </trkpt>
      <trkpt lat="43.1528230" lon="-1.2419740">
        <ele>244.3</ele>
        <time>2019-07-16T16:00:43Z</time>
      </trkpt>
      <trkpt lat="43.1529160" lon="-1.2419480">
        <ele>243.6</ele>
        <time>2019-07-16T16:00:49Z</time>
      </trkpt>
      <trkpt lat="43.1529300" lon="-1.2419310">
        <ele>243.5</ele>
        <time>2019-07-16T16:00:55Z</time>
      </trkpt>
      <trkpt lat="43.1530220" lon="-1.2419230">
        <ele>242.9</ele>
        <time>2019-07-16T16:01:49Z</time>
      </trkpt>
      <trkpt lat="43.1531170" lon="-1.2418960">
        <ele>242.1</ele>
        <time>2019-07-16T16:01:52Z</time>
      </trkpt>
      <trkpt lat="43.1532320" lon="-1.2418430">
        <ele>241.1</ele>
        <time>2019-07-16T16:01:55Z</time>
      </trkpt>
      <trkpt lat="43.1533560" lon="-1.2417830">
        <ele>240.3</ele>
        <time>2019-07-16T16:01:58Z</time>
      </trkpt>
      <trkpt lat="43.1534540" lon="-1.2417560">
        <ele>239.5</ele>
        <time>2019-07-16T16:02:00Z</time>
      </trkpt>
      <trkpt lat="43.1535620" lon="-1.2417250">
        <ele>238.9</ele>
        <time>2019-07-16T16:02:02Z</time>
      </trkpt>
      <trkpt lat="43.1536790" lon="-1.2416980">
        <ele>238.4</ele>
        <time>2019-07-16T16:02:04Z</time>
      </trkpt>
      <trkpt lat="43.1537850" lon="-1.2416740">
        <ele>237.9</ele>
        <time>2019-07-16T16:02:06Z</time>
      </trkpt>
      <trkpt lat="43.1539010" lon="-1.2416530">
        <ele>237.4</ele>
        <time>2019-07-16T16:02:08Z</time>
      </trkpt>
      <trkpt lat="43.1540340" lon="-1.2416130">
        <ele>236.5</ele>
        <time>2019-07-16T16:02:10Z</time>
      </trkpt>
      <trkpt lat="43.1541620" lon="-1.2415490">
        <ele>236.0</ele>
        <time>2019-07-16T16:02:12Z</time>
      </trkpt>
      <trkpt lat="43.1542890" lon="-1.2414770">
        <ele>235.5</ele>
        <time>2019-07-16T16:02:14Z</time>
      </trkpt>
      <trkpt lat="43.1544170" lon="-1.2414160">
        <ele>235.1</ele>
        <time>2019-07-16T16:02:16Z</time>
      </trkpt>
      <trkpt lat="43.1545400" lon="-1.2413490">
        <ele>234.6</ele>
        <time>2019-07-16T16:02:18Z</time>
      </trkpt>
      <trkpt lat="43.1546660" lon="-1.2412810">
        <ele>234.1</ele>
        <time>2019-07-16T16:02:20Z</time>
      </trkpt>
      <trkpt lat="43.1547910" lon="-1.2412200">
        <ele>233.5</ele>
        <time>2019-07-16T16:02:22Z</time>
      </trkpt>
      <trkpt lat="43.1549110" lon="-1.2411670">
        <ele>232.9</ele>
        <time>2019-07-16T16:02:24Z</time>
      </trkpt>
      <trkpt lat="43.1550400" lon="-1.2411110">
        <ele>232.4</ele>
        <time>2019-07-16T16:02:26Z</time>
      </trkpt>
      <trkpt lat="43.1551600" lon="-1.2410570">
        <ele>231.9</ele>
        <time>2019-07-16T16:02:28Z</time>
      </trkpt>
      <trkpt lat="43.1552800" lon="-1.2409980">
        <ele>231.4</ele>
        <time>2019-07-16T16:02:30Z</time>
      </trkpt>
      <trkpt lat="43.1553970" lon="-1.2409290">
        <ele>230.7</ele>
        <time>2019-07-16T16:02:32Z</time>
      </trkpt>
      <trkpt lat="43.1555140" lon="-1.2408270">
        <ele>229.4</ele>
        <time>2019-07-16T16:02:34Z</time>
      </trkpt>
      <trkpt lat="43.1556360" lon="-1.2407170">
        <ele>228.0</ele>
        <time>2019-07-16T16:02:36Z</time>
      </trkpt>
      <trkpt lat="43.1557670" lon="-1.2405970">
        <ele>226.4</ele>
        <time>2019-07-16T16:02:38Z</time>
      </trkpt>
      <trkpt lat="43.1559070" lon="-1.2404690">
        <ele>224.9</ele>
        <time>2019-07-16T16:02:40Z</time>
      </trkpt>
      <trkpt lat="43.1560360" lon="-1.2403570">
        <ele>224.0</ele>
        <time>2019-07-16T16:02:42Z</time>
      </trkpt>
      <trkpt lat="43.1561590" lon="-1.2402690">
        <ele>223.7</ele>
        <time>2019-07-16T16:02:44Z</time>
      </trkpt>
      <trkpt lat="43.1562810" lon="-1.2401910">
        <ele>223.3</ele>
        <time>2019-07-16T16:02:46Z</time>
      </trkpt>
      <trkpt lat="43.1563980" lon="-1.2401130">
        <ele>222.1</ele>
        <time>2019-07-16T16:02:48Z</time>
      </trkpt>
      <trkpt lat="43.1565170" lon="-1.2400470">
        <ele>221.2</ele>
        <time>2019-07-16T16:02:50Z</time>
      </trkpt>
      <trkpt lat="43.1566400" lon="-1.2399870">
        <ele>220.5</ele>
        <time>2019-07-16T16:02:52Z</time>
      </trkpt>
      <trkpt lat="43.1567640" lon="-1.2399300">
        <ele>219.8</ele>
        <time>2019-07-16T16:02:54Z</time>
      </trkpt>
      <trkpt lat="43.1568880" lon="-1.2398760">
        <ele>219.1</ele>
        <time>2019-07-16T16:02:56Z</time>
      </trkpt>
      <trkpt lat="43.1570030" lon="-1.2398230">
        <ele>218.3</ele>
        <time>2019-07-16T16:02:58Z</time>
      </trkpt>
      <trkpt lat="43.1571150" lon="-1.2397960">
        <ele>217.3</ele>
        <time>2019-07-16T16:03:00Z</time>
      </trkpt>
      <trkpt lat="43.1572220" lon="-1.2397580">
        <ele>215.6</ele>
        <time>2019-07-16T16:03:02Z</time>
      </trkpt>
      <trkpt lat="43.1573240" lon="-1.2397160">
        <ele>214.0</ele>
        <time>2019-07-16T16:03:04Z</time>
      </trkpt>
      <trkpt lat="43.1574130" lon="-1.2396510">
        <ele>212.5</ele>
        <time>2019-07-16T16:03:06Z</time>
      </trkpt>
      <trkpt lat="43.1575090" lon="-1.2395740">
        <ele>210.8</ele>
        <time>2019-07-16T16:03:08Z</time>
      </trkpt>
      <trkpt lat="43.1576150" lon="-1.2395220">
        <ele>208.7</ele>
        <time>2019-07-16T16:03:10Z</time>
      </trkpt>
      <trkpt lat="43.1577270" lon="-1.2394970">
        <ele>206.2</ele>
        <time>2019-07-16T16:03:12Z</time>
      </trkpt>
      <trkpt lat="43.1578450" lon="-1.2394840">
        <ele>203.6</ele>
        <time>2019-07-16T16:03:14Z</time>
      </trkpt>
      <trkpt lat="43.1579700" lon="-1.2394760">
        <ele>201.0</ele>
        <time>2019-07-16T16:03:16Z</time>
      </trkpt>
      <trkpt lat="43.1580910" lon="-1.2394600">
        <ele>199.4</ele>
        <time>2019-07-16T16:03:18Z</time>
      </trkpt>
      <trkpt lat="43.1582160" lon="-1.2394330">
        <ele>197.9</ele>
        <time>2019-07-16T16:03:20Z</time>
      </trkpt>
      <trkpt lat="43.1583370" lon="-1.2393920">
        <ele>196.6</ele>
        <time>2019-07-16T16:03:22Z</time>
      </trkpt>
      <trkpt lat="43.1584580" lon="-1.2393160">
        <ele>195.1</ele>
        <time>2019-07-16T16:03:24Z</time>
      </trkpt>
      <trkpt lat="43.1585740" lon="-1.2392270">
        <ele>193.7</ele>
        <time>2019-07-16T16:03:26Z</time>
      </trkpt>
      <trkpt lat="43.1586830" lon="-1.2391430">
        <ele>192.3</ele>
        <time>2019-07-16T16:03:28Z</time>
      </trkpt>
      <trkpt lat="43.1587830" lon="-1.2390670">
        <ele>191.4</ele>
        <time>2019-07-16T16:03:30Z</time>
      </trkpt>
      <trkpt lat="43.1588710" lon="-1.2389950">
        <ele>190.7</ele>
        <time>2019-07-16T16:03:32Z</time>
      </trkpt>
      <trkpt lat="43.1589800" lon="-1.2389130">
        <ele>189.9</ele>
        <time>2019-07-16T16:03:35Z</time>
      </trkpt>
      <trkpt lat="43.1590130" lon="-1.2388790">
        <ele>189.6</ele>
        <time>2019-07-16T16:03:41Z</time>
      </trkpt>
      <trkpt lat="43.1591240" lon="-1.2388380">
        <ele>188.4</ele>
        <time>2019-07-16T16:03:53Z</time>
      </trkpt>
      <trkpt lat="43.1592310" lon="-1.2388650">
        <ele>187.0</ele>
        <time>2019-07-16T16:03:56Z</time>
      </trkpt>
      <trkpt lat="43.1593660" lon="-1.2388920">
        <ele>185.6</ele>
        <time>2019-07-16T16:03:59Z</time>
      </trkpt>
      <trkpt lat="43.1594600" lon="-1.2388940">
        <ele>184.9</ele>
        <time>2019-07-16T16:04:01Z</time>
      </trkpt>
      <trkpt lat="43.1595550" lon="-1.2388760">
        <ele>184.3</ele>
        <time>2019-07-16T16:04:03Z</time>
      </trkpt>
      <trkpt lat="43.1596510" lon="-1.2388280">
        <ele>183.4</ele>
        <time>2019-07-16T16:04:05Z</time>
      </trkpt>
      <trkpt lat="43.1597540" lon="-1.2387640">
        <ele>182.4</ele>
        <time>2019-07-16T16:04:07Z</time>
      </trkpt>
      <trkpt lat="43.1598660" lon="-1.2386850">
        <ele>181.4</ele>
        <time>2019-07-16T16:04:09Z</time>
      </trkpt>
      <trkpt lat="43.1599800" lon="-1.2386050">
        <ele>180.4</ele>
        <time>2019-07-16T16:04:11Z</time>
      </trkpt>
      <trkpt lat="43.1600910" lon="-1.2385340">
        <ele>179.5</ele>
        <time>2019-07-16T16:04:13Z</time>
      </trkpt>
      <trkpt lat="43.1601910" lon="-1.2384510">
        <ele>178.7</ele>
        <time>2019-07-16T16:04:15Z</time>
      </trkpt>
      <trkpt lat="43.1602850" lon="-1.2383940">
        <ele>178.0</ele>
        <time>2019-07-16T16:04:17Z</time>
      </trkpt>
      <trkpt lat="43.1604100" lon="-1.2384460">
        <ele>177.2</ele>
        <time>2019-07-16T16:04:20Z</time>
      </trkpt>
      <trkpt lat="43.1604720" lon="-1.2385410">
        <ele>177.5</ele>
        <time>2019-07-16T16:04:22Z</time>
      </trkpt>
      <trkpt lat="43.1605410" lon="-1.2386960">
        <ele>177.8</ele>
        <time>2019-07-16T16:04:25Z</time>
      </trkpt>
      <trkpt lat="43.1605980" lon="-1.2388530">
        <ele>178.0</ele>
        <time>2019-07-16T16:04:28Z</time>
      </trkpt>
      <trkpt lat="43.1606470" lon="-1.2390110">
        <ele>178.2</ele>
        <time>2019-07-16T16:04:31Z</time>
      </trkpt>
      <trkpt lat="43.1606980" lon="-1.2391630">
        <ele>178.3</ele>
        <time>2019-07-16T16:04:34Z</time>
      </trkpt>
      <trkpt lat="43.1607540" lon="-1.2392970">
        <ele>178.4</ele>
        <time>2019-07-16T16:04:37Z</time>
      </trkpt>
      <trkpt lat="43.1608570" lon="-1.2393310">
        <ele>176.9</ele>
        <time>2019-07-16T16:04:40Z</time>
      </trkpt>
      <trkpt lat="43.1609500" lon="-1.2392600">
        <ele>175.4</ele>
        <time>2019-07-16T16:04:43Z</time>
      </trkpt>
      <trkpt lat="43.1610410" lon="-1.2391730">
        <ele>174.2</ele>
        <time>2019-07-16T16:04:46Z</time>
      </trkpt>
      <trkpt lat="43.1611400" lon="-1.2390720">
        <ele>173.5</ele>
        <time>2019-07-16T16:04:49Z</time>
      </trkpt>
      <trkpt lat="43.1612550" lon="-1.2389830">
        <ele>173.1</ele>
        <time>2019-07-16T16:04:52Z</time>
      </trkpt>
      <trkpt lat="43.1613430" lon="-1.2389340">
        <ele>172.9</ele>
        <time>2019-07-16T16:04:54Z</time>
      </trkpt>
      <trkpt lat="43.1614290" lon="-1.2388920">
        <ele>173.0</ele>
        <time>2019-07-16T16:04:56Z</time>
      </trkpt>
      <trkpt lat="43.1615260" lon="-1.2388680">
        <ele>173.4</ele>
        <time>2019-07-16T16:04:58Z</time>
      </trkpt>
      <trkpt lat="43.1616450" lon="-1.2388530">
        <ele>174.1</ele>
        <time>2019-07-16T16:05:01Z</time>
      </trkpt>
      <trkpt lat="43.1617520" lon="-1.2388170">
        <ele>174.6</ele>
        <time>2019-07-16T16:05:06Z</time>
      </trkpt>
      <trkpt lat="43.1618570" lon="-1.2387640">
        <ele>174.8</ele>
        <time>2019-07-16T16:05:10Z</time>
      </trkpt>
      <trkpt lat="43.1619550" lon="-1.2387220">
        <ele>173.5</ele>
        <time>2019-07-16T16:05:13Z</time>
      </trkpt>
      <trkpt lat="43.1620530" lon="-1.2386650">
        <ele>172.0</ele>
        <time>2019-07-16T16:05:16Z</time>
      </trkpt>
      <trkpt lat="43.1621550" lon="-1.2385870">
        <ele>171.0</ele>
        <time>2019-07-16T16:05:19Z</time>
      </trkpt>
      <trkpt lat="43.1622590" lon="-1.2384960">
        <ele>170.1</ele>
        <time>2019-07-16T16:05:22Z</time>
      </trkpt>
      <trkpt lat="43.1623620" lon="-1.2384150">
        <ele>169.6</ele>
        <time>2019-07-16T16:05:25Z</time>
      </trkpt>
      <trkpt lat="43.1624600" lon="-1.2383350">
        <ele>169.1</ele>
        <time>2019-07-16T16:05:28Z</time>
      </trkpt>
      <trkpt lat="43.1625640" lon="-1.2382510">
        <ele>168.5</ele>
        <time>2019-07-16T16:05:31Z</time>
      </trkpt>
      <trkpt lat="43.1626720" lon="-1.2381540">
        <ele>168.1</ele>
        <time>2019-07-16T16:05:34Z</time>
      </trkpt>
      <trkpt lat="43.1627880" lon="-1.2380690">
        <ele>168.8</ele>
        <time>2019-07-16T16:05:37Z</time>
      </trkpt>
      <trkpt lat="43.1628880" lon="-1.2379660">
        <ele>169.5</ele>
        <time>2019-07-16T16:05:40Z</time>
      </trkpt>
      <trkpt lat="43.1629640" lon="-1.2378620">
        <ele>170.6</ele>
        <time>2019-07-16T16:05:43Z</time>
      </trkpt>
      <trkpt lat="43.1630340" lon="-1.2377700">
        <ele>171.4</ele>
        <time>2019-07-16T16:05:46Z</time>
      </trkpt>
      <trkpt lat="43.1631060" lon="-1.2376790">
        <ele>172.2</ele>
        <time>2019-07-16T16:05:49Z</time>
      </trkpt>
      <trkpt lat="43.1631770" lon="-1.2375940">
        <ele>173.0</ele>
        <time>2019-07-16T16:05:52Z</time>
      </trkpt>
      <trkpt lat="43.1632470" lon="-1.2374990">
        <ele>173.7</ele>
        <time>2019-07-16T16:05:55Z</time>
      </trkpt>
      <trkpt lat="43.1633160" lon="-1.2374110">
        <ele>174.4</ele>
        <time>2019-07-16T16:05:58Z</time>
      </trkpt>
      <trkpt lat="43.1633840" lon="-1.2373270">
        <ele>175.1</ele>
        <time>2019-07-16T16:06:01Z</time>
      </trkpt>
      <trkpt lat="43.1634460" lon="-1.2372380">
        <ele>175.4</ele>
        <time>2019-07-16T16:06:04Z</time>
      </trkpt>
      <trkpt lat="43.1635130" lon="-1.2371450">
        <ele>175.6</ele>
        <time>2019-07-16T16:06:07Z</time>
      </trkpt>
      <trkpt lat="43.1635810" lon="-1.2370500">
        <ele>175.9</ele>
        <time>2019-07-16T16:06:10Z</time>
      </trkpt>
      <trkpt lat="43.1636490" lon="-1.2369500">
        <ele>176.2</ele>
        <time>2019-07-16T16:06:13Z</time>
      </trkpt>
      <trkpt lat="43.1637140" lon="-1.2368490">
        <ele>176.2</ele>
        <time>2019-07-16T16:06:16Z</time>
      </trkpt>
      <trkpt lat="43.1637830" lon="-1.2367530">
        <ele>176.0</ele>
        <time>2019-07-16T16:06:19Z</time>
      </trkpt>
      <trkpt lat="43.1638460" lon="-1.2366460">
        <ele>175.8</ele>
        <time>2019-07-16T16:06:22Z</time>
      </trkpt>
      <trkpt lat="43.1638960" lon="-1.2365240">
        <ele>175.6</ele>
        <time>2019-07-16T16:06:25Z</time>
      </trkpt>
      <trkpt lat="43.1639480" lon="-1.2363920">
        <ele>174.6</ele>
        <time>2019-07-16T16:06:28Z</time>
      </trkpt>
      <trkpt lat="43.1640020" lon="-1.2362630">
        <ele>173.7</ele>
        <time>2019-07-16T16:06:31Z</time>
      </trkpt>
      <trkpt lat="43.1640540" lon="-1.2361220">
        <ele>173.0</ele>
        <time>2019-07-16T16:06:34Z</time>
      </trkpt>
      <trkpt lat="43.1641030" lon="-1.2359790">
        <ele>172.7</ele>
        <time>2019-07-16T16:06:37Z</time>
      </trkpt>
      <trkpt lat="43.1641480" lon="-1.2358250">
        <ele>172.3</ele>
        <time>2019-07-16T16:06:40Z</time>
      </trkpt>
      <trkpt lat="43.1641740" lon="-1.2356530">
        <ele>171.7</ele>
        <time>2019-07-16T16:06:43Z</time>
      </trkpt>
      <trkpt lat="43.1641960" lon="-1.2354710">
        <ele>171.1</ele>
        <time>2019-07-16T16:06:46Z</time>
      </trkpt>
      <trkpt lat="43.1642130" lon="-1.2353470">
        <ele>170.7</ele>
        <time>2019-07-16T16:06:48Z</time>
      </trkpt>
      <trkpt lat="43.1642280" lon="-1.2352170">
        <ele>170.4</ele>
        <time>2019-07-16T16:06:50Z</time>
      </trkpt>
      <trkpt lat="43.1642340" lon="-1.2350770">
        <ele>169.8</ele>
        <time>2019-07-16T16:06:52Z</time>
      </trkpt>
      <trkpt lat="43.1642430" lon="-1.2349270">
        <ele>169.0</ele>
        <time>2019-07-16T16:06:54Z</time>
      </trkpt>
      <trkpt lat="43.1642560" lon="-1.2347710">
        <ele>168.0</ele>
        <time>2019-07-16T16:06:56Z</time>
      </trkpt>
      <trkpt lat="43.1642860" lon="-1.2346080">
        <ele>167.1</ele>
        <time>2019-07-16T16:06:58Z</time>
      </trkpt>
      <trkpt lat="43.1643510" lon="-1.2344490">
        <ele>166.4</ele>
        <time>2019-07-16T16:07:00Z</time>
      </trkpt>
      <trkpt lat="43.1644690" lon="-1.2343280">
        <ele>165.3</ele>
        <time>2019-07-16T16:07:02Z</time>
      </trkpt>
      <trkpt lat="43.1646120" lon="-1.2342370">
        <ele>164.2</ele>
        <time>2019-07-16T16:07:04Z</time>
      </trkpt>
      <trkpt lat="43.1647660" lon="-1.2341710">
        <ele>163.1</ele>
        <time>2019-07-16T16:07:06Z</time>
      </trkpt>
      <trkpt lat="43.1649260" lon="-1.2341070">
        <ele>162.1</ele>
        <time>2019-07-16T16:07:08Z</time>
      </trkpt>
      <trkpt lat="43.1650830" lon="-1.2340370">
        <ele>162.1</ele>
        <time>2019-07-16T16:07:10Z</time>
      </trkpt>
      <trkpt lat="43.1652400" lon="-1.2339720">
        <ele>162.3</ele>
        <time>2019-07-16T16:07:12Z</time>
      </trkpt>
      <trkpt lat="43.1653810" lon="-1.2339130">
        <ele>162.1</ele>
        <time>2019-07-16T16:07:14Z</time>
      </trkpt>
      <trkpt lat="43.1654970" lon="-1.2338510">
        <ele>161.8</ele>
        <time>2019-07-16T16:07:16Z</time>
      </trkpt>
      <trkpt lat="43.1655940" lon="-1.2337620">
        <ele>161.5</ele>
        <time>2019-07-16T16:07:18Z</time>
      </trkpt>
      <trkpt lat="43.1657020" lon="-1.2337350">
        <ele>161.1</ele>
        <time>2019-07-16T16:07:20Z</time>
      </trkpt>
      <trkpt lat="43.1658060" lon="-1.2337330">
        <ele>160.8</ele>
        <time>2019-07-16T16:07:22Z</time>
      </trkpt>
      <trkpt lat="43.1659080" lon="-1.2336910">
        <ele>160.6</ele>
        <time>2019-07-16T16:07:24Z</time>
      </trkpt>
      <trkpt lat="43.1660110" lon="-1.2336520">
        <ele>160.6</ele>
        <time>2019-07-16T16:07:26Z</time>
      </trkpt>
      <trkpt lat="43.1661110" lon="-1.2336120">
        <ele>160.5</ele>
        <time>2019-07-16T16:07:28Z</time>
      </trkpt>
      <trkpt lat="43.1662050" lon="-1.2335750">
        <ele>160.5</ele>
        <time>2019-07-16T16:07:30Z</time>
      </trkpt>
      <trkpt lat="43.1662910" lon="-1.2335330">
        <ele>160.5</ele>
        <time>2019-07-16T16:07:32Z</time>
      </trkpt>
      <trkpt lat="43.1664120" lon="-1.2334760">
        <ele>160.4</ele>
        <time>2019-07-16T16:07:35Z</time>
      </trkpt>
      <trkpt lat="43.1665150" lon="-1.2334190">
        <ele>160.4</ele>
        <time>2019-07-16T16:07:38Z</time>
      </trkpt>
      <trkpt lat="43.1665790" lon="-1.2333290">
        <ele>160.6</ele>
        <time>2019-07-16T16:07:41Z</time>
      </trkpt>
      <trkpt lat="43.1665700" lon="-1.2331710">
        <ele>160.7</ele>
        <time>2019-07-16T16:07:45Z</time>
      </trkpt>
      <trkpt lat="43.1665340" lon="-1.2330490">
        <ele>160.9</ele>
        <time>2019-07-16T16:07:48Z</time>
      </trkpt>
      <trkpt lat="43.1665120" lon="-1.2329000">
        <ele>161.1</ele>
        <time>2019-07-16T16:07:52Z</time>
      </trkpt>
      <trkpt lat="43.1665030" lon="-1.2327520">
        <ele>161.2</ele>
        <time>2019-07-16T16:07:56Z</time>
      </trkpt>
      <trkpt lat="43.1664860" lon="-1.2325970">
        <ele>161.3</ele>
        <time>2019-07-16T16:08:00Z</time>
      </trkpt>
      <trkpt lat="43.1664700" lon="-1.2324650">
        <ele>161.4</ele>
        <time>2019-07-16T16:08:04Z</time>
      </trkpt>
      <trkpt lat="43.1664520" lon="-1.2323400">
        <ele>161.5</ele>
        <time>2019-07-16T16:08:08Z</time>
      </trkpt>
      <trkpt lat="43.1664330" lon="-1.2322500">
        <ele>161.5</ele>
        <time>2019-07-16T16:08:16Z</time>
      </trkpt>
      <trkpt lat="43.1664690" lon="-1.2323780">
        <ele>161.6</ele>
        <time>2019-07-16T16:47:43Z</time>
      </trkpt>
      <trkpt lat="43.1664800" lon="-1.2325320">
        <ele>161.5</ele>
        <time>2019-07-16T16:47:47Z</time>
      </trkpt>
      <trkpt lat="43.1665020" lon="-1.2326800">
        <ele>161.3</ele>
        <time>2019-07-16T16:47:51Z</time>
      </trkpt>
      <trkpt lat="43.1665600" lon="-1.2328060">
        <ele>161.1</ele>
        <time>2019-07-16T16:47:55Z</time>
      </trkpt>
      <trkpt lat="43.1666120" lon="-1.2329230">
        <ele>161.0</ele>
        <time>2019-07-16T16:47:59Z</time>
      </trkpt>
      <trkpt lat="43.1666750" lon="-1.2330310">
        <ele>160.8</ele>
        <time>2019-07-16T16:48:03Z</time>
      </trkpt>
      <trkpt lat="43.1667460" lon="-1.2331180">
        <ele>160.6</ele>
        <time>2019-07-16T16:48:07Z</time>
      </trkpt>
      <trkpt lat="43.1668220" lon="-1.2331990">
        <ele>160.5</ele>
        <time>2019-07-16T16:48:12Z</time>
      </trkpt>
      <trkpt lat="43.1668510" lon="-1.2333290">
        <ele>160.3</ele>
        <time>2019-07-16T16:48:20Z</time>
      </trkpt>
      <trkpt lat="43.1667600" lon="-1.2334030">
        <ele>160.4</ele>
        <time>2019-07-16T16:48:24Z</time>
      </trkpt>
      <trkpt lat="43.1666750" lon="-1.2334420">
        <ele>160.4</ele>
        <time>2019-07-16T16:48:27Z</time>
      </trkpt>
      <trkpt lat="43.1665660" lon="-1.2334850">
        <ele>160.4</ele>
        <time>2019-07-16T16:48:31Z</time>
      </trkpt>
      <trkpt lat="43.1664670" lon="-1.2335050">
        <ele>160.4</ele>
        <time>2019-07-16T16:48:35Z</time>
      </trkpt>
      <trkpt lat="43.1663760" lon="-1.2335420">
        <ele>160.4</ele>
        <time>2019-07-16T16:48:38Z</time>
      </trkpt>
      <trkpt lat="43.1662770" lon="-1.2335850">
        <ele>160.5</ele>
        <time>2019-07-16T16:48:41Z</time>
      </trkpt>
      <trkpt lat="43.1661680" lon="-1.2336330">
        <ele>160.5</ele>
        <time>2019-07-16T16:48:45Z</time>
      </trkpt>
      <trkpt lat="43.1660700" lon="-1.2336780">
        <ele>160.6</ele>
        <time>2019-07-16T16:48:49Z</time>
      </trkpt>
      <trkpt lat="43.1659640" lon="-1.2337270">
        <ele>160.6</ele>
        <time>2019-07-16T16:48:53Z</time>
      </trkpt>
      <trkpt lat="43.1658540" lon="-1.2337660">
        <ele>160.8</ele>
        <time>2019-07-16T16:48:58Z</time>
      </trkpt>
      <trkpt lat="43.1657650" lon="-1.2338580">
        <ele>161.0</ele>
        <time>2019-07-16T16:49:02Z</time>
      </trkpt>
      <trkpt lat="43.1656840" lon="-1.2339250">
        <ele>161.1</ele>
        <time>2019-07-16T16:49:05Z</time>
      </trkpt>
      <trkpt lat="43.1655790" lon="-1.2339180">
        <ele>161.5</ele>
        <time>2019-07-16T16:49:09Z</time>
      </trkpt>
      <trkpt lat="43.1654700" lon="-1.2339150">
        <ele>161.8</ele>
        <time>2019-07-16T16:49:13Z</time>
      </trkpt>
      <trkpt lat="43.1653650" lon="-1.2339570">
        <ele>162.1</ele>
        <time>2019-07-16T16:49:17Z</time>
      </trkpt>
      <trkpt lat="43.1652630" lon="-1.2339990">
        <ele>162.3</ele>
        <time>2019-07-16T16:49:21Z</time>
      </trkpt>
      <trkpt lat="43.1651610" lon="-1.2340340">
        <ele>162.3</ele>
        <time>2019-07-16T16:49:25Z</time>
      </trkpt>
      <trkpt lat="43.1650590" lon="-1.2340740">
        <ele>162.1</ele>
        <time>2019-07-16T16:49:29Z</time>
      </trkpt>
      <trkpt lat="43.1649590" lon="-1.2341120">
        <ele>162.0</ele>
        <time>2019-07-16T16:49:33Z</time>
      </trkpt>
      <trkpt lat="43.1648670" lon="-1.2341420">
        <ele>162.5</ele>
        <time>2019-07-16T16:49:37Z</time>
      </trkpt>
      <trkpt lat="43.1647660" lon="-1.2341800">
        <ele>163.1</ele>
        <time>2019-07-16T16:49:42Z</time>
      </trkpt>
      <trkpt lat="43.1646650" lon="-1.2342180">
        <ele>163.8</ele>
        <time>2019-07-16T16:49:47Z</time>
      </trkpt>
      <trkpt lat="43.1645630" lon="-1.2342620">
        <ele>164.5</ele>
        <time>2019-07-16T16:49:52Z</time>
      </trkpt>
      <trkpt lat="43.1644820" lon="-1.2343410">
        <ele>165.2</ele>
        <time>2019-07-16T16:49:57Z</time>
      </trkpt>
      <trkpt lat="43.1644060" lon="-1.2344390">
        <ele>166.2</ele>
        <time>2019-07-16T16:50:02Z</time>
      </trkpt>
      <trkpt lat="43.1643530" lon="-1.2345450">
        <ele>166.7</ele>
        <time>2019-07-16T16:50:06Z</time>
      </trkpt>
      <trkpt lat="43.1643200" lon="-1.2346680">
        <ele>167.3</ele>
        <time>2019-07-16T16:50:11Z</time>
      </trkpt>
      <trkpt lat="43.1643090" lon="-1.2348080">
        <ele>168.2</ele>
        <time>2019-07-16T16:50:16Z</time>
      </trkpt>
      <trkpt lat="43.1642880" lon="-1.2349380">
        <ele>169.0</ele>
        <time>2019-07-16T16:50:21Z</time>
      </trkpt>
      <trkpt lat="43.1642890" lon="-1.2350700">
        <ele>169.8</ele>
        <time>2019-07-16T16:50:26Z</time>
      </trkpt>
      <trkpt lat="43.1642830" lon="-1.2352120">
        <ele>170.3</ele>
        <time>2019-07-16T16:50:32Z</time>
      </trkpt>
      <trkpt lat="43.1642610" lon="-1.2353620">
        <ele>170.7</ele>
        <time>2019-07-16T16:50:36Z</time>
      </trkpt>
      <trkpt lat="43.1642380" lon="-1.2354830">
        <ele>171.1</ele>
        <time>2019-07-16T16:50:40Z</time>
      </trkpt>
      <trkpt lat="43.1642150" lon="-1.2356040">
        <ele>171.5</ele>
        <time>2019-07-16T16:50:44Z</time>
      </trkpt>
      <trkpt lat="43.1642160" lon="-1.2357430">
        <ele>172.0</ele>
        <time>2019-07-16T16:50:49Z</time>
      </trkpt>
      <trkpt lat="43.1641820" lon="-1.2358720">
        <ele>172.4</ele>
        <time>2019-07-16T16:50:53Z</time>
      </trkpt>
      <trkpt lat="43.1641390" lon="-1.2359990">
        <ele>172.7</ele>
        <time>2019-07-16T16:50:57Z</time>
      </trkpt>
      <trkpt lat="43.1640850" lon="-1.2361420">
        <ele>173.0</ele>
        <time>2019-07-16T16:51:01Z</time>
      </trkpt>
      <trkpt lat="43.1640350" lon="-1.2362590">
        <ele>173.5</ele>
        <time>2019-07-16T16:51:04Z</time>
      </trkpt>
      <trkpt lat="43.1639830" lon="-1.2363720">
        <ele>174.4</ele>
        <time>2019-07-16T16:51:07Z</time>
      </trkpt>
      <trkpt lat="43.1639400" lon="-1.2364950">
        <ele>175.3</ele>
        <time>2019-07-16T16:51:10Z</time>
      </trkpt>
      <trkpt lat="43.1638950" lon="-1.2366210">
        <ele>175.7</ele>
        <time>2019-07-16T16:51:13Z</time>
      </trkpt>
      <trkpt lat="43.1638300" lon="-1.2367540">
        <ele>176.0</ele>
        <time>2019-07-16T16:51:16Z</time>
      </trkpt>
      <trkpt lat="43.1637530" lon="-1.2368810">
        <ele>176.2</ele>
        <time>2019-07-16T16:51:19Z</time>
      </trkpt>
      <trkpt lat="43.1636610" lon="-1.2370170">
        <ele>176.1</ele>
        <time>2019-07-16T16:51:22Z</time>
      </trkpt>
      <trkpt lat="43.1635920" lon="-1.2371140">
        <ele>175.8</ele>
        <time>2019-07-16T16:51:24Z</time>
      </trkpt>
      <trkpt lat="43.1635170" lon="-1.2372180">
        <ele>175.5</ele>
        <time>2019-07-16T16:51:26Z</time>
      </trkpt>
      <trkpt lat="43.1634510" lon="-1.2373120">
        <ele>175.3</ele>
        <time>2019-07-16T16:51:28Z</time>
      </trkpt>
      <trkpt lat="43.1633540" lon="-1.2374400">
        <ele>174.5</ele>
        <time>2019-07-16T16:51:31Z</time>
      </trkpt>
      <trkpt lat="43.1632670" lon="-1.2375640">
        <ele>173.6</ele>
        <time>2019-07-16T16:51:34Z</time>
      </trkpt>
      <trkpt lat="43.1631830" lon="-1.2376690">
        <ele>172.8</ele>
        <time>2019-07-16T16:51:37Z</time>
      </trkpt>
      <trkpt lat="43.1630880" lon="-1.2377940">
        <ele>171.6</ele>
        <time>2019-07-16T16:51:40Z</time>
      </trkpt>
      <trkpt lat="43.1630020" lon="-1.2378950">
        <ele>170.7</ele>
        <time>2019-07-16T16:51:43Z</time>
      </trkpt>
      <trkpt lat="43.1629160" lon="-1.2379900">
        <ele>169.6</ele>
        <time>2019-07-16T16:51:46Z</time>
      </trkpt>
      <trkpt lat="43.1628240" lon="-1.2380670">
        <ele>169.0</ele>
        <time>2019-07-16T16:51:49Z</time>
      </trkpt>
      <trkpt lat="43.1627400" lon="-1.2381390">
        <ele>168.5</ele>
        <time>2019-07-16T16:51:52Z</time>
      </trkpt>
      <trkpt lat="43.1626540" lon="-1.2382160">
        <ele>168.1</ele>
        <time>2019-07-16T16:51:55Z</time>
      </trkpt>
      <trkpt lat="43.1625720" lon="-1.2382890">
        <ele>168.5</ele>
        <time>2019-07-16T16:51:58Z</time>
      </trkpt>
      <trkpt lat="43.1624940" lon="-1.2383500">
        <ele>168.8</ele>
        <time>2019-07-16T16:52:01Z</time>
      </trkpt>
      <trkpt lat="43.1624150" lon="-1.2384160">
        <ele>169.2</ele>
        <time>2019-07-16T16:52:04Z</time>
      </trkpt>
      <trkpt lat="43.1623500" lon="-1.2384550">
        <ele>169.5</ele>
        <time>2019-07-16T16:52:13Z</time>
      </trkpt>
      <trkpt lat="43.1622590" lon="-1.2385330">
        <ele>170.2</ele>
        <time>2019-07-16T16:52:21Z</time>
      </trkpt>
      <trkpt lat="43.1621770" lon="-1.2385910">
        <ele>170.8</ele>
        <time>2019-07-16T16:52:24Z</time>
      </trkpt>
      <trkpt lat="43.1621030" lon="-1.2386690">
        <ele>171.6</ele>
        <time>2019-07-16T16:52:27Z</time>
      </trkpt>
      <trkpt lat="43.1620390" lon="-1.2387890">
        <ele>172.8</ele>
        <time>2019-07-16T16:52:31Z</time>
      </trkpt>
      <trkpt lat="43.1620690" lon="-1.2389390">
        <ele>173.4</ele>
        <time>2019-07-16T16:52:35Z</time>
      </trkpt>
      <trkpt lat="43.1621510" lon="-1.2390530">
        <ele>172.3</ele>
        <time>2019-07-16T16:52:39Z</time>
      </trkpt>
      <trkpt lat="43.1622110" lon="-1.2391590">
        <ele>171.4</ele>
        <time>2019-07-16T16:52:42Z</time>
      </trkpt>
      <trkpt lat="43.1622670" lon="-1.2392740">
        <ele>170.3</ele>
        <time>2019-07-16T16:52:45Z</time>
      </trkpt>
      <trkpt lat="43.1623500" lon="-1.2393450">
        <ele>169.0</ele>
        <time>2019-07-16T16:52:48Z</time>
      </trkpt>
      <trkpt lat="43.1624200" lon="-1.2394240">
        <ele>167.4</ele>
        <time>2019-07-16T16:52:51Z</time>
      </trkpt>
      <trkpt lat="43.1624940" lon="-1.2395120">
        <ele>166.0</ele>
        <time>2019-07-16T16:52:54Z</time>
      </trkpt>
      <trkpt lat="43.1625770" lon="-1.2396120">
        <ele>165.2</ele>
        <time>2019-07-16T16:52:57Z</time>
      </trkpt>
      <trkpt lat="43.1626760" lon="-1.2397320">
        <ele>164.8</ele>
        <time>2019-07-16T16:53:00Z</time>
      </trkpt>
      <trkpt lat="43.1627450" lon="-1.2398230">
        <ele>164.5</ele>
        <time>2019-07-16T16:53:02Z</time>
      </trkpt>
      <trkpt lat="43.1628110" lon="-1.2399120">
        <ele>164.2</ele>
        <time>2019-07-16T16:53:04Z</time>
      </trkpt>
      <trkpt lat="43.1628790" lon="-1.2399960">
        <ele>163.8</ele>
        <time>2019-07-16T16:53:06Z</time>
      </trkpt>
      <trkpt lat="43.1629450" lon="-1.2400820">
        <ele>163.6</ele>
        <time>2019-07-16T16:53:08Z</time>
      </trkpt>
      <trkpt lat="43.1630070" lon="-1.2401830">
        <ele>163.3</ele>
        <time>2019-07-16T16:53:10Z</time>
      </trkpt>
      <trkpt lat="43.1630730" lon="-1.2402780">
        <ele>163.3</ele>
        <time>2019-07-16T16:53:12Z</time>
      </trkpt>
      <trkpt lat="43.1631300" lon="-1.2403790">
        <ele>163.4</ele>
        <time>2019-07-16T16:53:14Z</time>
      </trkpt>
      <trkpt lat="43.1631990" lon="-1.2404710">
        <ele>163.5</ele>
        <time>2019-07-16T16:53:16Z</time>
      </trkpt>
      <trkpt lat="43.1632620" lon="-1.2405710">
        <ele>163.5</ele>
        <time>2019-07-16T16:53:18Z</time>
      </trkpt>
      <trkpt lat="43.1633280" lon="-1.2406710">
        <ele>163.6</ele>
        <time>2019-07-16T16:53:20Z</time>
      </trkpt>
      <trkpt lat="43.1633920" lon="-1.2407730">
        <ele>163.7</ele>
        <time>2019-07-16T16:53:22Z</time>
      </trkpt>
      <trkpt lat="43.1634540" lon="-1.2408800">
        <ele>163.7</ele>
        <time>2019-07-16T16:53:24Z</time>
      </trkpt>
      <trkpt lat="43.1635190" lon="-1.2409820">
        <ele>163.8</ele>
        <time>2019-07-16T16:53:26Z</time>
      </trkpt>
      <trkpt lat="43.1635890" lon="-1.2410880">
        <ele>163.9</ele>
        <time>2019-07-16T16:53:28Z</time>
      </trkpt>
      <trkpt lat="43.1636650" lon="-1.2411940">
        <ele>164.5</ele>
        <time>2019-07-16T16:53:30Z</time>
      </trkpt>
      <trkpt lat="43.1637370" lon="-1.2412950">
        <ele>165.4</ele>
        <time>2019-07-16T16:53:32Z</time>
      </trkpt>
      <trkpt lat="43.1638040" lon="-1.2414040">
        <ele>166.4</ele>
        <time>2019-07-16T16:53:34Z</time>
      </trkpt>
      <trkpt lat="43.1638600" lon="-1.2415610">
        <ele>167.6</ele>
        <time>2019-07-16T16:53:37Z</time>
      </trkpt>
      <trkpt lat="43.1638980" lon="-1.2417230">
        <ele>168.7</ele>
        <time>2019-07-16T16:53:40Z</time>
      </trkpt>
      <trkpt lat="43.1639410" lon="-1.2418850">
        <ele>169.7</ele>
        <time>2019-07-16T16:53:43Z</time>
      </trkpt>
      <trkpt lat="43.1639840" lon="-1.2420390">
        <ele>170.5</ele>
        <time>2019-07-16T16:53:46Z</time>
      </trkpt>
      <trkpt lat="43.1640270" lon="-1.2421800">
        <ele>171.3</ele>
        <time>2019-07-16T16:53:49Z</time>
      </trkpt>
      <trkpt lat="43.1640700" lon="-1.2423350">
        <ele>171.5</ele>
        <time>2019-07-16T16:53:52Z</time>
      </trkpt>
      <trkpt lat="43.1641240" lon="-1.2424650">
        <ele>171.5</ele>
        <time>2019-07-16T16:53:55Z</time>
      </trkpt>
      <trkpt lat="43.1641950" lon="-1.2425720">
        <ele>171.4</ele>
        <time>2019-07-16T16:53:58Z</time>
      </trkpt>
      <trkpt lat="43.1642710" lon="-1.2426860">
        <ele>171.3</ele>
        <time>2019-07-16T16:54:01Z</time>
      </trkpt>
      <trkpt lat="43.1643530" lon="-1.2428000">
        <ele>171.2</ele>
        <time>2019-07-16T16:54:04Z</time>
      </trkpt>
      <trkpt lat="43.1644320" lon="-1.2429010">
        <ele>170.4</ele>
        <time>2019-07-16T16:54:07Z</time>
      </trkpt>
      <trkpt lat="43.1645040" lon="-1.2430010">
        <ele>169.0</ele>
        <time>2019-07-16T16:54:10Z</time>
      </trkpt>
      <trkpt lat="43.1645710" lon="-1.2431040">
        <ele>167.6</ele>
        <time>2019-07-16T16:54:13Z</time>
      </trkpt>
      <trkpt lat="43.1646400" lon="-1.2432010">
        <ele>166.2</ele>
        <time>2019-07-16T16:54:16Z</time>
      </trkpt>
      <trkpt lat="43.1647010" lon="-1.2432920">
        <ele>165.0</ele>
        <time>2019-07-16T16:54:19Z</time>
      </trkpt>
      <trkpt lat="43.1647740" lon="-1.2433840">
        <ele>164.1</ele>
        <time>2019-07-16T16:54:22Z</time>
      </trkpt>
      <trkpt lat="43.1648330" lon="-1.2434880">
        <ele>163.5</ele>
        <time>2019-07-16T16:54:25Z</time>
      </trkpt>
      <trkpt lat="43.1649060" lon="-1.2436150">
        <ele>163.2</ele>
        <time>2019-07-16T16:54:29Z</time>
      </trkpt>
      <trkpt lat="43.1649780" lon="-1.2437120">
        <ele>163.0</ele>
        <time>2019-07-16T16:54:32Z</time>
      </trkpt>
      <trkpt lat="43.1650580" lon="-1.2438310">
        <ele>162.7</ele>
        <time>2019-07-16T16:54:35Z</time>
      </trkpt>
      <trkpt lat="43.1651400" lon="-1.2439530">
        <ele>162.3</ele>
        <time>2019-07-16T16:54:38Z</time>
      </trkpt>
      <trkpt lat="43.1652240" lon="-1.2440680">
        <ele>161.8</ele>
        <time>2019-07-16T16:54:41Z</time>
      </trkpt>
      <trkpt lat="43.1652910" lon="-1.2441590">
        <ele>161.4</ele>
        <time>2019-07-16T16:54:43Z</time>
      </trkpt>
      <trkpt lat="43.1653550" lon="-1.2442510">
        <ele>161.0</ele>
        <time>2019-07-16T16:54:45Z</time>
      </trkpt>
      <trkpt lat="43.1654280" lon="-1.2443440">
        <ele>160.5</ele>
        <time>2019-07-16T16:54:47Z</time>
      </trkpt>
      <trkpt lat="43.1655080" lon="-1.2444450">
        <ele>159.9</ele>
        <time>2019-07-16T16:54:49Z</time>
      </trkpt>
      <trkpt lat="43.1655900" lon="-1.2445640">
        <ele>159.3</ele>
        <time>2019-07-16T16:54:51Z</time>
      </trkpt>
      <trkpt lat="43.1656810" lon="-1.2446790">
        <ele>158.7</ele>
        <time>2019-07-16T16:54:53Z</time>
      </trkpt>
      <trkpt lat="43.1657680" lon="-1.2447920">
        <ele>158.2</ele>
        <time>2019-07-16T16:54:55Z</time>
      </trkpt>
      <trkpt lat="43.1658480" lon="-1.2449010">
        <ele>157.8</ele>
        <time>2019-07-16T16:54:57Z</time>
      </trkpt>
      <trkpt lat="43.1659210" lon="-1.2449960">
        <ele>157.4</ele>
        <time>2019-07-16T16:54:59Z</time>
      </trkpt>
      <trkpt lat="43.1659920" lon="-1.2450870">
        <ele>157.2</ele>
        <time>2019-07-16T16:55:01Z</time>
      </trkpt>
      <trkpt lat="43.1660760" lon="-1.2452070">
        <ele>156.9</ele>
        <time>2019-07-16T16:55:04Z</time>
      </trkpt>
      <trkpt lat="43.1661610" lon="-1.2453200">
        <ele>156.6</ele>
        <time>2019-07-16T16:55:07Z</time>
      </trkpt>
      <trkpt lat="43.1662410" lon="-1.2454310">
        <ele>156.4</ele>
        <time>2019-07-16T16:55:10Z</time>
      </trkpt>
      <trkpt lat="43.1663270" lon="-1.2455540">
        <ele>156.1</ele>
        <time>2019-07-16T16:55:13Z</time>
      </trkpt>
      <trkpt lat="43.1664100" lon="-1.2456820">
        <ele>155.9</ele>
        <time>2019-07-16T16:55:16Z</time>
      </trkpt>
      <trkpt lat="43.1665070" lon="-1.2457930">
        <ele>155.8</ele>
        <time>2019-07-16T16:55:19Z</time>
      </trkpt>
      <trkpt lat="43.1666040" lon="-1.2458980">
        <ele>155.6</ele>
        <time>2019-07-16T16:55:22Z</time>
      </trkpt>
      <trkpt lat="43.1667040" lon="-1.2459980">
        <ele>155.4</ele>
        <time>2019-07-16T16:55:25Z</time>
      </trkpt>
      <trkpt lat="43.1668030" lon="-1.2460890">
        <ele>155.3</ele>
        <time>2019-07-16T16:55:28Z</time>
      </trkpt>
      <trkpt lat="43.1669130" lon="-1.2461600">
        <ele>155.3</ele>
        <time>2019-07-16T16:55:31Z</time>
      </trkpt>
      <trkpt lat="43.1670330" lon="-1.2462300">
        <ele>155.2</ele>
        <time>2019-07-16T16:55:34Z</time>
      </trkpt>
      <trkpt lat="43.1671540" lon="-1.2462930">
        <ele>155.1</ele>
        <time>2019-07-16T16:55:37Z</time>
      </trkpt>
      <trkpt lat="43.1672680" lon="-1.2463500">
        <ele>155.0</ele>
        <time>2019-07-16T16:55:40Z</time>
      </trkpt>
      <trkpt lat="43.1673830" lon="-1.2464070">
        <ele>154.9</ele>
        <time>2019-07-16T16:55:43Z</time>
      </trkpt>
      <trkpt lat="43.1675060" lon="-1.2464690">
        <ele>154.7</ele>
        <time>2019-07-16T16:55:46Z</time>
      </trkpt>
      <trkpt lat="43.1676210" lon="-1.2465260">
        <ele>154.6</ele>
        <time>2019-07-16T16:55:49Z</time>
      </trkpt>
      <trkpt lat="43.1677240" lon="-1.2465760">
        <ele>154.5</ele>
        <time>2019-07-16T16:55:52Z</time>
      </trkpt>
      <trkpt lat="43.1678200" lon="-1.2466300">
        <ele>154.4</ele>
        <time>2019-07-16T16:55:55Z</time>
      </trkpt>
      <trkpt lat="43.1679270" lon="-1.2466830">
        <ele>154.3</ele>
        <time>2019-07-16T16:55:58Z</time>
      </trkpt>
      <trkpt lat="43.1680360" lon="-1.2467320">
        <ele>154.2</ele>
        <time>2019-07-16T16:56:01Z</time>
      </trkpt>
      <trkpt lat="43.1681420" lon="-1.2467790">
        <ele>154.1</ele>
        <time>2019-07-16T16:56:04Z</time>
      </trkpt>
      <trkpt lat="43.1682440" lon="-1.2468250">
        <ele>154.0</ele>
        <time>2019-07-16T16:56:07Z</time>
      </trkpt>
      <trkpt lat="43.1683510" lon="-1.2468780">
        <ele>154.0</ele>
        <time>2019-07-16T16:56:10Z</time>
      </trkpt>
      <trkpt lat="43.1684640" lon="-1.2469360">
        <ele>154.2</ele>
        <time>2019-07-16T16:56:13Z</time>
      </trkpt>
      <trkpt lat="43.1685830" lon="-1.2469890">
        <ele>154.3</ele>
        <time>2019-07-16T16:56:16Z</time>
      </trkpt>
      <trkpt lat="43.1687030" lon="-1.2470430">
        <ele>154.4</ele>
        <time>2019-07-16T16:56:19Z</time>
      </trkpt>
      <trkpt lat="43.1688240" lon="-1.2471040">
        <ele>154.5</ele>
        <time>2019-07-16T16:56:22Z</time>
      </trkpt>
      <trkpt lat="43.1689380" lon="-1.2471550">
        <ele>154.6</ele>
        <time>2019-07-16T16:56:25Z</time>
      </trkpt>
      <trkpt lat="43.1690410" lon="-1.2472090">
        <ele>154.7</ele>
        <time>2019-07-16T16:56:28Z</time>
      </trkpt>
      <trkpt lat="43.1691420" lon="-1.2472600">
        <ele>154.8</ele>
        <time>2019-07-16T16:56:31Z</time>
      </trkpt>
      <trkpt lat="43.1692380" lon="-1.2473130">
        <ele>154.7</ele>
        <time>2019-07-16T16:56:34Z</time>
      </trkpt>
      <trkpt lat="43.1693450" lon="-1.2473650">
        <ele>154.4</ele>
        <time>2019-07-16T16:56:37Z</time>
      </trkpt>
      <trkpt lat="43.1694400" lon="-1.2474140">
        <ele>154.1</ele>
        <time>2019-07-16T16:56:40Z</time>
      </trkpt>
      <trkpt lat="43.1695410" lon="-1.2474530">
        <ele>153.9</ele>
        <time>2019-07-16T16:56:43Z</time>
      </trkpt>
      <trkpt lat="43.1696460" lon="-1.2474940">
        <ele>153.7</ele>
        <time>2019-07-16T16:56:46Z</time>
      </trkpt>
      <trkpt lat="43.1697490" lon="-1.2475510">
        <ele>153.6</ele>
        <time>2019-07-16T16:56:49Z</time>
      </trkpt>
      <trkpt lat="43.1698480" lon="-1.2476010">
        <ele>153.6</ele>
        <time>2019-07-16T16:56:52Z</time>
      </trkpt>
      <trkpt lat="43.1699550" lon="-1.2476540">
        <ele>153.6</ele>
        <time>2019-07-16T16:56:55Z</time>
      </trkpt>
      <trkpt lat="43.1700680" lon="-1.2476980">
        <ele>154.3</ele>
        <time>2019-07-16T16:56:58Z</time>
      </trkpt>
      <trkpt lat="43.1701880" lon="-1.2477510">
        <ele>155.3</ele>
        <time>2019-07-16T16:57:01Z</time>
      </trkpt>
      <trkpt lat="43.1703100" lon="-1.2478070">
        <ele>156.4</ele>
        <time>2019-07-16T16:57:04Z</time>
      </trkpt>
      <trkpt lat="43.1703980" lon="-1.2478470">
        <ele>157.2</ele>
        <time>2019-07-16T16:57:06Z</time>
      </trkpt>
      <trkpt lat="43.1704850" lon="-1.2479000">
        <ele>157.9</ele>
        <time>2019-07-16T16:57:08Z</time>
      </trkpt>
      <trkpt lat="43.1705730" lon="-1.2479450">
        <ele>158.7</ele>
        <time>2019-07-16T16:57:10Z</time>
      </trkpt>
      <trkpt lat="43.1706600" lon="-1.2479900">
        <ele>159.5</ele>
        <time>2019-07-16T16:57:12Z</time>
      </trkpt>
      <trkpt lat="43.1707470" lon="-1.2480320">
        <ele>160.3</ele>
        <time>2019-07-16T16:57:14Z</time>
      </trkpt>
      <trkpt lat="43.1708400" lon="-1.2480670">
        <ele>161.1</ele>
        <time>2019-07-16T16:57:16Z</time>
      </trkpt>
      <trkpt lat="43.1709310" lon="-1.2481110">
        <ele>161.9</ele>
        <time>2019-07-16T16:57:18Z</time>
      </trkpt>
      <trkpt lat="43.1710190" lon="-1.2481630">
        <ele>162.4</ele>
        <time>2019-07-16T16:57:20Z</time>
      </trkpt>
      <trkpt lat="43.1711010" lon="-1.2482150">
        <ele>162.3</ele>
        <time>2019-07-16T16:57:22Z</time>
      </trkpt>
      <trkpt lat="43.1712130" lon="-1.2482940">
        <ele>162.0</ele>
        <time>2019-07-16T16:57:25Z</time>
      </trkpt>
      <trkpt lat="43.1713110" lon="-1.2483910">
        <ele>161.7</ele>
        <time>2019-07-16T16:57:28Z</time>
      </trkpt>
      <trkpt lat="43.1714100" lon="-1.2484970">
        <ele>161.2</ele>
        <time>2019-07-16T16:57:31Z</time>
      </trkpt>
      <trkpt lat="43.1715030" lon="-1.2486000">
        <ele>160.7</ele>
        <time>2019-07-16T16:57:34Z</time>
      </trkpt>
      <trkpt lat="43.1715830" lon="-1.2487060">
        <ele>160.4</ele>
        <time>2019-07-16T16:57:37Z</time>
      </trkpt>
      <trkpt lat="43.1716590" lon="-1.2488310">
        <ele>159.9</ele>
        <time>2019-07-16T16:57:40Z</time>
      </trkpt>
      <trkpt lat="43.1717340" lon="-1.2489480">
        <ele>159.5</ele>
        <time>2019-07-16T16:57:43Z</time>
      </trkpt>
      <trkpt lat="43.1717990" lon="-1.2490780">
        <ele>159.0</ele>
        <time>2019-07-16T16:57:46Z</time>
      </trkpt>
      <trkpt lat="43.1718580" lon="-1.2492170">
        <ele>158.4</ele>
        <time>2019-07-16T16:57:49Z</time>
      </trkpt>
      <trkpt lat="43.1719180" lon="-1.2493560">
        <ele>157.8</ele>
        <time>2019-07-16T16:57:52Z</time>
      </trkpt>
      <trkpt lat="43.1720050" lon="-1.2494880">
        <ele>157.2</ele>
        <time>2019-07-16T16:57:55Z</time>
      </trkpt>
      <trkpt lat="43.1720610" lon="-1.2496170">
        <ele>156.6</ele>
        <time>2019-07-16T16:57:58Z</time>
      </trkpt>
      <trkpt lat="43.1721310" lon="-1.2497350">
        <ele>156.1</ele>
        <time>2019-07-16T16:58:01Z</time>
      </trkpt>
      <trkpt lat="43.1721670" lon="-1.2498620">
        <ele>155.6</ele>
        <time>2019-07-16T16:58:04Z</time>
      </trkpt>
      <trkpt lat="43.1722060" lon="-1.2499860">
        <ele>155.2</ele>
        <time>2019-07-16T16:58:07Z</time>
      </trkpt>
      <trkpt lat="43.1722710" lon="-1.2501100">
        <ele>154.7</ele>
        <time>2019-07-16T16:58:11Z</time>
      </trkpt>
      <trkpt lat="43.1723580" lon="-1.2501960">
        <ele>154.3</ele>
        <time>2019-07-16T16:58:13Z</time>
      </trkpt>
      <trkpt lat="43.1724210" lon="-1.2502960">
        <ele>154.0</ele>
        <time>2019-07-16T16:58:16Z</time>
      </trkpt>
      <trkpt lat="43.1724960" lon="-1.2504040">
        <ele>153.6</ele>
        <time>2019-07-16T16:58:19Z</time>
      </trkpt>
      <trkpt lat="43.1725700" lon="-1.2505090">
        <ele>153.4</ele>
        <time>2019-07-16T16:58:21Z</time>
      </trkpt>
      <trkpt lat="43.1726470" lon="-1.2506270">
        <ele>153.1</ele>
        <time>2019-07-16T16:58:24Z</time>
      </trkpt>
      <trkpt lat="43.1727230" lon="-1.2507590">
        <ele>152.9</ele>
        <time>2019-07-16T16:58:27Z</time>
      </trkpt>
      <trkpt lat="43.1728130" lon="-1.2508610">
        <ele>152.8</ele>
        <time>2019-07-16T16:58:30Z</time>
      </trkpt>
      <trkpt lat="43.1728880" lon="-1.2509530">
        <ele>152.7</ele>
        <time>2019-07-16T16:58:33Z</time>
      </trkpt>
      <trkpt lat="43.1729680" lon="-1.2510320">
        <ele>152.6</ele>
        <time>2019-07-16T16:58:36Z</time>
      </trkpt>
      <trkpt lat="43.1730600" lon="-1.2511180">
        <ele>152.5</ele>
        <time>2019-07-16T16:58:39Z</time>
      </trkpt>
      <trkpt lat="43.1731690" lon="-1.2511530">
        <ele>152.4</ele>
        <time>2019-07-16T16:58:42Z</time>
      </trkpt>
      <trkpt lat="43.1732820" lon="-1.2511680">
        <ele>152.4</ele>
        <time>2019-07-16T16:58:45Z</time>
      </trkpt>
      <trkpt lat="43.1734150" lon="-1.2511750">
        <ele>152.3</ele>
        <time>2019-07-16T16:58:48Z</time>
      </trkpt>
      <trkpt lat="43.1735500" lon="-1.2511820">
        <ele>152.3</ele>
        <time>2019-07-16T16:58:51Z</time>
      </trkpt>
      <trkpt lat="43.1736800" lon="-1.2511980">
        <ele>152.2</ele>
        <time>2019-07-16T16:58:54Z</time>
      </trkpt>
      <trkpt lat="43.1737730" lon="-1.2512050">
        <ele>152.2</ele>
        <time>2019-07-16T16:58:56Z</time>
      </trkpt>
      <trkpt lat="43.1738690" lon="-1.2512200">
        <ele>152.1</ele>
        <time>2019-07-16T16:58:58Z</time>
      </trkpt>
      <trkpt lat="43.1739610" lon="-1.2512450">
        <ele>152.0</ele>
        <time>2019-07-16T16:59:00Z</time>
      </trkpt>
      <trkpt lat="43.1740910" lon="-1.2512920">
        <ele>151.9</ele>
        <time>2019-07-16T16:59:03Z</time>
      </trkpt>
      <trkpt lat="43.1742150" lon="-1.2513520">
        <ele>151.8</ele>
        <time>2019-07-16T16:59:06Z</time>
      </trkpt>
      <trkpt lat="43.1743150" lon="-1.2514520">
        <ele>151.8</ele>
        <time>2019-07-16T16:59:09Z</time>
      </trkpt>
      <trkpt lat="43.1744060" lon="-1.2515660">
        <ele>151.8</ele>
        <time>2019-07-16T16:59:12Z</time>
      </trkpt>
      <trkpt lat="43.1744700" lon="-1.2517090">
        <ele>151.9</ele>
        <time>2019-07-16T16:59:15Z</time>
      </trkpt>
      <trkpt lat="43.1745410" lon="-1.2518380">
        <ele>152.0</ele>
        <time>2019-07-16T16:59:18Z</time>
      </trkpt>
      <trkpt lat="43.1746080" lon="-1.2519730">
        <ele>152.1</ele>
        <time>2019-07-16T16:59:21Z</time>
      </trkpt>
      <trkpt lat="43.1746720" lon="-1.2521130">
        <ele>152.2</ele>
        <time>2019-07-16T16:59:24Z</time>
      </trkpt>
      <trkpt lat="43.1747410" lon="-1.2522560">
        <ele>152.4</ele>
        <time>2019-07-16T16:59:27Z</time>
      </trkpt>
      <trkpt lat="43.1748130" lon="-1.2523840">
        <ele>152.6</ele>
        <time>2019-07-16T16:59:30Z</time>
      </trkpt>
      <trkpt lat="43.1748730" lon="-1.2525110">
        <ele>152.8</ele>
        <time>2019-07-16T16:59:33Z</time>
      </trkpt>
      <trkpt lat="43.1749350" lon="-1.2526410">
        <ele>152.9</ele>
        <time>2019-07-16T16:59:36Z</time>
      </trkpt>
      <trkpt lat="43.1750030" lon="-1.2527800">
        <ele>152.7</ele>
        <time>2019-07-16T16:59:39Z</time>
      </trkpt>
      <trkpt lat="43.1750670" lon="-1.2529140">
        <ele>152.7</ele>
        <time>2019-07-16T16:59:42Z</time>
      </trkpt>
      <trkpt lat="43.1751280" lon="-1.2530560">
        <ele>152.7</ele>
        <time>2019-07-16T16:59:45Z</time>
      </trkpt>
      <trkpt lat="43.1751910" lon="-1.2532050">
        <ele>152.7</ele>
        <time>2019-07-16T16:59:48Z</time>
      </trkpt>
      <trkpt lat="43.1752530" lon="-1.2533480">
        <ele>152.7</ele>
        <time>2019-07-16T16:59:51Z</time>
      </trkpt>
      <trkpt lat="43.1753190" lon="-1.2534880">
        <ele>152.8</ele>
        <time>2019-07-16T16:59:54Z</time>
      </trkpt>
      <trkpt lat="43.1753600" lon="-1.2536430">
        <ele>152.8</ele>
        <time>2019-07-16T16:59:57Z</time>
      </trkpt>
      <trkpt lat="43.1753010" lon="-1.2537450">
        <ele>153.0</ele>
        <time>2019-07-16T17:00:00Z</time>
      </trkpt>
      <trkpt lat="43.1751820" lon="-1.2537680">
        <ele>153.2</ele>
        <time>2019-07-16T17:00:03Z</time>
      </trkpt>
      <trkpt lat="43.1750680" lon="-1.2537880">
        <ele>153.5</ele>
        <time>2019-07-16T17:00:06Z</time>
      </trkpt>
      <trkpt lat="43.1749740" lon="-1.2537540">
        <ele>153.7</ele>
        <time>2019-07-16T17:00:09Z</time>
      </trkpt>
      <trkpt lat="43.1748500" lon="-1.2537780">
        <ele>154.0</ele>
        <time>2019-07-16T17:00:12Z</time>
      </trkpt>
      <trkpt lat="43.1747350" lon="-1.2537710">
        <ele>154.3</ele>
        <time>2019-07-16T17:00:15Z</time>
      </trkpt>
      <trkpt lat="43.1746380" lon="-1.2537650">
        <ele>154.5</ele>
        <time>2019-07-16T17:00:18Z</time>
      </trkpt>
      <trkpt lat="43.1745320" lon="-1.2537680">
        <ele>154.7</ele>
        <time>2019-07-16T17:00:22Z</time>
      </trkpt>
      <trkpt lat="43.1744310" lon="-1.2537690">
        <ele>155.0</ele>
        <time>2019-07-16T17:00:26Z</time>
      </trkpt>
      <trkpt lat="43.1743240" lon="-1.2537800">
        <ele>155.2</ele>
        <time>2019-07-16T17:00:30Z</time>
      </trkpt>
      <trkpt lat="43.1742210" lon="-1.2537830">
        <ele>155.4</ele>
        <time>2019-07-16T17:00:34Z</time>
      </trkpt>
      <trkpt lat="43.1741150" lon="-1.2537980">
        <ele>155.6</ele>
        <time>2019-07-16T17:00:38Z</time>
      </trkpt>
      <trkpt lat="43.1740140" lon="-1.2538330">
        <ele>156.0</ele>
        <time>2019-07-16T17:00:43Z</time>
      </trkpt>
      <trkpt lat="43.1739020" lon="-1.2538450">
        <ele>156.3</ele>
        <time>2019-07-16T17:00:48Z</time>
      </trkpt>
      <trkpt lat="43.1738050" lon="-1.2538980">
        <ele>156.6</ele>
        <time>2019-07-16T17:00:52Z</time>
      </trkpt>
      <trkpt lat="43.1737080" lon="-1.2539310">
        <ele>156.9</ele>
        <time>2019-07-16T17:00:56Z</time>
      </trkpt>
      <trkpt lat="43.1735980" lon="-1.2539940">
        <ele>157.2</ele>
        <time>2019-07-16T17:01:00Z</time>
      </trkpt>
      <trkpt lat="43.1735170" lon="-1.2540710">
        <ele>157.5</ele>
        <time>2019-07-16T17:01:03Z</time>
      </trkpt>
      <trkpt lat="43.1734460" lon="-1.2541620">
        <ele>157.8</ele>
        <time>2019-07-16T17:01:06Z</time>
      </trkpt>
      <trkpt lat="43.1733630" lon="-1.2542690">
        <ele>158.1</ele>
        <time>2019-07-16T17:01:10Z</time>
      </trkpt>
      <trkpt lat="43.1732590" lon="-1.2543130">
        <ele>158.5</ele>
        <time>2019-07-16T17:01:14Z</time>
      </trkpt>
      <trkpt lat="43.1731890" lon="-1.2542270">
        <ele>158.6</ele>
        <time>2019-07-16T17:01:18Z</time>
      </trkpt>
      <trkpt lat="43.1731030" lon="-1.2541580">
        <ele>158.8</ele>
        <time>2019-07-16T17:01:22Z</time>
      </trkpt>
      <trkpt lat="43.1730070" lon="-1.2540800">
        <ele>158.8</ele>
        <time>2019-07-16T17:01:26Z</time>
      </trkpt>
      <trkpt lat="43.1729330" lon="-1.2540050">
        <ele>158.9</ele>
        <time>2019-07-16T17:01:30Z</time>
      </trkpt>
      <trkpt lat="43.1728630" lon="-1.2539240">
        <ele>158.9</ele>
        <time>2019-07-16T17:01:34Z</time>
      </trkpt>
      <trkpt lat="43.1727880" lon="-1.2538570">
        <ele>158.9</ele>
        <time>2019-07-16T17:01:38Z</time>
      </trkpt>
      <trkpt lat="43.1727040" lon="-1.2537910">
        <ele>158.9</ele>
        <time>2019-07-16T17:01:43Z</time>
      </trkpt>
      <trkpt lat="43.1726360" lon="-1.2536960">
        <ele>158.9</ele>
        <time>2019-07-16T17:01:49Z</time>
      </trkpt>
      <trkpt lat="43.1726300" lon="-1.2536610">
        <ele>158.9</ele>
        <time>2019-07-16T17:01:55Z</time>
      </trkpt>
      <trkpt lat="43.1725960" lon="-1.2536700">
        <ele>158.9</ele>
        <time>2019-07-16T17:03:06Z</time>
      </trkpt>
      <trkpt lat="43.1725330" lon="-1.2533680">
        <ele>159.0</ele>
        <time>2019-07-17T07:35:01Z</time>
      </trkpt>
      <trkpt lat="43.1724980" lon="-1.2534350">
        <ele>159.0</ele>
        <time>2019-07-17T07:35:06Z</time>
      </trkpt>
      <trkpt lat="43.1725460" lon="-1.2535800">
        <ele>158.9</ele>
        <time>2019-07-17T07:35:10Z</time>
      </trkpt>
      <trkpt lat="43.1726140" lon="-1.2538320">
        <ele>158.9</ele>
        <time>2019-07-17T07:35:21Z</time>
      </trkpt>
      <trkpt lat="43.1726890" lon="-1.2538820">
        <ele>158.9</ele>
        <time>2019-07-17T07:35:31Z</time>
      </trkpt>
      <trkpt lat="43.1727640" lon="-1.2539330">
        <ele>158.9</ele>
        <time>2019-07-17T07:35:39Z</time>
      </trkpt>
      <trkpt lat="43.1728400" lon="-1.2539830">
        <ele>158.9</ele>
        <time>2019-07-17T07:35:51Z</time>
      </trkpt>
      <trkpt lat="43.1729150" lon="-1.2540330">
        <ele>158.9</ele>
        <time>2019-07-17T07:36:03Z</time>
      </trkpt>
      <trkpt lat="43.1729900" lon="-1.2540830">
        <ele>158.8</ele>
        <time>2019-07-17T07:36:11Z</time>
      </trkpt>
      <trkpt lat="43.1730650" lon="-1.2541340">
        <ele>158.8</ele>
        <time>2019-07-17T07:36:19Z</time>
      </trkpt>
      <trkpt lat="43.1731400" lon="-1.2541840">
        <ele>158.7</ele>
        <time>2019-07-17T07:36:19Z</time>
      </trkpt>
      <trkpt lat="43.1731400" lon="-1.2541840">
        <ele>158.7</ele>
        <time>2019-07-17T07:36:19Z</time>
      </trkpt>
      <trkpt lat="43.1731400" lon="-1.2541840">
        <ele>158.7</ele>
        <time>2019-07-17T07:36:19Z</time>
      </trkpt>
      <trkpt lat="43.1732420" lon="-1.2542250">
        <ele>158.5</ele>
        <time>2019-07-17T07:38:36Z</time>
      </trkpt>
      <trkpt lat="43.1733440" lon="-1.2542500">
        <ele>158.1</ele>
        <time>2019-07-17T07:38:42Z</time>
      </trkpt>
      <trkpt lat="43.1734290" lon="-1.2541430">
        <ele>157.8</ele>
        <time>2019-07-17T07:38:46Z</time>
      </trkpt>
      <trkpt lat="43.1735320" lon="-1.2540610">
        <ele>157.4</ele>
        <time>2019-07-17T07:38:50Z</time>
      </trkpt>
      <trkpt lat="43.1736140" lon="-1.2539720">
        <ele>157.1</ele>
        <time>2019-07-17T07:38:54Z</time>
      </trkpt>
      <trkpt lat="43.1737310" lon="-1.2539320">
        <ele>156.8</ele>
        <time>2019-07-17T07:38:58Z</time>
      </trkpt>
      <trkpt lat="43.1738410" lon="-1.2539110">
        <ele>156.4</ele>
        <time>2019-07-17T07:39:01Z</time>
      </trkpt>
      <trkpt lat="43.1739370" lon="-1.2538790">
        <ele>156.2</ele>
        <time>2019-07-17T07:39:04Z</time>
      </trkpt>
      <trkpt lat="43.1740450" lon="-1.2538630">
        <ele>155.9</ele>
        <time>2019-07-17T07:39:07Z</time>
      </trkpt>
      <trkpt lat="43.1741710" lon="-1.2538350">
        <ele>155.5</ele>
        <time>2019-07-17T07:39:10Z</time>
      </trkpt>
      <trkpt lat="43.1742710" lon="-1.2538190">
        <ele>155.3</ele>
        <time>2019-07-17T07:39:12Z</time>
      </trkpt>
      <trkpt lat="43.1743970" lon="-1.2538140">
        <ele>155.0</ele>
        <time>2019-07-17T07:39:14Z</time>
      </trkpt>
      <trkpt lat="43.1745410" lon="-1.2538110">
        <ele>154.7</ele>
        <time>2019-07-17T07:39:16Z</time>
      </trkpt>
      <trkpt lat="43.1746940" lon="-1.2538100">
        <ele>154.4</ele>
        <time>2019-07-17T07:39:18Z</time>
      </trkpt>
      <trkpt lat="43.1748400" lon="-1.2538080">
        <ele>154.0</ele>
        <time>2019-07-17T07:39:20Z</time>
      </trkpt>
      <trkpt lat="43.1749770" lon="-1.2538040">
        <ele>153.7</ele>
        <time>2019-07-17T07:39:22Z</time>
      </trkpt>
      <trkpt lat="43.1750960" lon="-1.2537990">
        <ele>153.4</ele>
        <time>2019-07-17T07:39:24Z</time>
      </trkpt>
      <trkpt lat="43.1752070" lon="-1.2537940">
        <ele>153.2</ele>
        <time>2019-07-17T07:39:26Z</time>
      </trkpt>
      <trkpt lat="43.1753240" lon="-1.2537580">
        <ele>153.0</ele>
        <time>2019-07-17T07:39:29Z</time>
      </trkpt>
      <trkpt lat="43.1753470" lon="-1.2536130">
        <ele>152.8</ele>
        <time>2019-07-17T07:39:34Z</time>
      </trkpt>
      <trkpt lat="43.1752910" lon="-1.2535020">
        <ele>152.8</ele>
        <time>2019-07-17T07:39:37Z</time>
      </trkpt>
      <trkpt lat="43.1752310" lon="-1.2533690">
        <ele>152.7</ele>
        <time>2019-07-17T07:39:40Z</time>
      </trkpt>
      <trkpt lat="43.1751820" lon="-1.2532280">
        <ele>152.7</ele>
        <time>2019-07-17T07:39:43Z</time>
      </trkpt>
      <trkpt lat="43.1751220" lon="-1.2530870">
        <ele>152.7</ele>
        <time>2019-07-17T07:39:46Z</time>
      </trkpt>
      <trkpt lat="43.1750620" lon="-1.2529560">
        <ele>152.7</ele>
        <time>2019-07-17T07:39:49Z</time>
      </trkpt>
      <trkpt lat="43.1749980" lon="-1.2528280">
        <ele>152.7</ele>
        <time>2019-07-17T07:39:52Z</time>
      </trkpt>
      <trkpt lat="43.1749460" lon="-1.2527090">
        <ele>152.8</ele>
        <time>2019-07-17T07:39:55Z</time>
      </trkpt>
      <trkpt lat="43.1748910" lon="-1.2525880">
        <ele>152.9</ele>
        <time>2019-07-17T07:39:58Z</time>
      </trkpt>
      <trkpt lat="43.1748360" lon="-1.2524550">
        <ele>152.7</ele>
        <time>2019-07-17T07:40:01Z</time>
      </trkpt>
      <trkpt lat="43.1747840" lon="-1.2523300">
        <ele>152.5</ele>
        <time>2019-07-17T07:40:04Z</time>
      </trkpt>
      <trkpt lat="43.1747170" lon="-1.2522020">
        <ele>152.4</ele>
        <time>2019-07-17T07:40:07Z</time>
      </trkpt>
      <trkpt lat="43.1746560" lon="-1.2520850">
        <ele>152.2</ele>
        <time>2019-07-17T07:40:10Z</time>
      </trkpt>
      <trkpt lat="43.1745950" lon="-1.2519710">
        <ele>152.1</ele>
        <time>2019-07-17T07:40:13Z</time>
      </trkpt>
      <trkpt lat="43.1745290" lon="-1.2518590">
        <ele>152.0</ele>
        <time>2019-07-17T07:40:16Z</time>
      </trkpt>
      <trkpt lat="43.1744650" lon="-1.2517400">
        <ele>151.9</ele>
        <time>2019-07-17T07:40:19Z</time>
      </trkpt>
      <trkpt lat="43.1743990" lon="-1.2516300">
        <ele>151.8</ele>
        <time>2019-07-17T07:40:22Z</time>
      </trkpt>
      <trkpt lat="43.1743310" lon="-1.2515290">
        <ele>151.8</ele>
        <time>2019-07-17T07:40:25Z</time>
      </trkpt>
      <trkpt lat="43.1742550" lon="-1.2514500">
        <ele>151.8</ele>
        <time>2019-07-17T07:40:28Z</time>
      </trkpt>
      <trkpt lat="43.1741590" lon="-1.2513700">
        <ele>151.8</ele>
        <time>2019-07-17T07:40:32Z</time>
      </trkpt>
      <trkpt lat="43.1740660" lon="-1.2513250">
        <ele>151.9</ele>
        <time>2019-07-17T07:40:36Z</time>
      </trkpt>
      <trkpt lat="43.1739570" lon="-1.2512930">
        <ele>151.9</ele>
        <time>2019-07-17T07:40:40Z</time>
      </trkpt>
      <trkpt lat="43.1738540" lon="-1.2512480">
        <ele>152.1</ele>
        <time>2019-07-17T07:40:43Z</time>
      </trkpt>
      <trkpt lat="43.1737540" lon="-1.2512400">
        <ele>152.2</ele>
        <time>2019-07-17T07:40:48Z</time>
      </trkpt>
      <trkpt lat="43.1736580" lon="-1.2512350">
        <ele>152.2</ele>
        <time>2019-07-17T07:40:52Z</time>
      </trkpt>
      <trkpt lat="43.1735650" lon="-1.2512430">
        <ele>152.3</ele>
        <time>2019-07-17T07:40:56Z</time>
      </trkpt>
      <trkpt lat="43.1734710" lon="-1.2512490">
        <ele>152.3</ele>
        <time>2019-07-17T07:41:00Z</time>
      </trkpt>
      <trkpt lat="43.1733660" lon="-1.2512430">
        <ele>152.3</ele>
        <time>2019-07-17T07:41:04Z</time>
      </trkpt>
      <trkpt lat="43.1732430" lon="-1.2512060">
        <ele>152.4</ele>
        <time>2019-07-17T07:41:09Z</time>
      </trkpt>
      <trkpt lat="43.1731610" lon="-1.2511560">
        <ele>152.4</ele>
        <time>2019-07-17T07:41:11Z</time>
      </trkpt>
      <trkpt lat="43.1730430" lon="-1.2510610">
        <ele>152.5</ele>
        <time>2019-07-17T07:41:14Z</time>
      </trkpt>
      <trkpt lat="43.1729690" lon="-1.2509890">
        <ele>152.6</ele>
        <time>2019-07-17T07:41:16Z</time>
      </trkpt>
      <trkpt lat="43.1728900" lon="-1.2508920">
        <ele>152.7</ele>
        <time>2019-07-17T07:41:19Z</time>
      </trkpt>
      <trkpt lat="43.1728370" lon="-1.2507900">
        <ele>152.8</ele>
        <time>2019-07-17T07:41:22Z</time>
      </trkpt>
      <trkpt lat="43.1727510" lon="-1.2506740">
        <ele>152.9</ele>
        <time>2019-07-17T07:41:25Z</time>
      </trkpt>
      <trkpt lat="43.1726700" lon="-1.2505510">
        <ele>153.1</ele>
        <time>2019-07-17T07:41:28Z</time>
      </trkpt>
      <trkpt lat="43.1725840" lon="-1.2504270">
        <ele>153.4</ele>
        <time>2019-07-17T07:41:30Z</time>
      </trkpt>
      <trkpt lat="43.1725280" lon="-1.2503260">
        <ele>153.7</ele>
        <time>2019-07-17T07:41:32Z</time>
      </trkpt>
      <trkpt lat="43.1724720" lon="-1.2502250">
        <ele>154.0</ele>
        <time>2019-07-17T07:41:34Z</time>
      </trkpt>
      <trkpt lat="43.1724120" lon="-1.2501280">
        <ele>154.2</ele>
        <time>2019-07-17T07:41:36Z</time>
      </trkpt>
      <trkpt lat="43.1723550" lon="-1.2500060">
        <ele>154.6</ele>
        <time>2019-07-17T07:41:38Z</time>
      </trkpt>
      <trkpt lat="43.1722990" lon="-1.2499050">
        <ele>155.0</ele>
        <time>2019-07-17T07:41:40Z</time>
      </trkpt>
      <trkpt lat="43.1722350" lon="-1.2497510">
        <ele>155.6</ele>
        <time>2019-07-17T07:41:43Z</time>
      </trkpt>
      <trkpt lat="43.1721950" lon="-1.2496380">
        <ele>156.0</ele>
        <time>2019-07-17T07:41:45Z</time>
      </trkpt>
      <trkpt lat="43.1721370" lon="-1.2495280">
        <ele>156.5</ele>
        <time>2019-07-17T07:41:47Z</time>
      </trkpt>
      <trkpt lat="43.1720650" lon="-1.2493580">
        <ele>157.2</ele>
        <time>2019-07-17T07:41:50Z</time>
      </trkpt>
      <trkpt lat="43.1720100" lon="-1.2492550">
        <ele>157.7</ele>
        <time>2019-07-17T07:41:52Z</time>
      </trkpt>
      <trkpt lat="43.1719450" lon="-1.2491510">
        <ele>158.2</ele>
        <time>2019-07-17T07:41:54Z</time>
      </trkpt>
      <trkpt lat="43.1718830" lon="-1.2490500">
        <ele>158.7</ele>
        <time>2019-07-17T07:41:56Z</time>
      </trkpt>
      <trkpt lat="43.1718080" lon="-1.2489100">
        <ele>159.3</ele>
        <time>2019-07-17T07:41:59Z</time>
      </trkpt>
      <trkpt lat="43.1717200" lon="-1.2487690">
        <ele>159.8</ele>
        <time>2019-07-17T07:42:02Z</time>
      </trkpt>
      <trkpt lat="43.1716130" lon="-1.2486510">
        <ele>160.3</ele>
        <time>2019-07-17T07:42:05Z</time>
      </trkpt>
      <trkpt lat="43.1715220" lon="-1.2485370">
        <ele>160.8</ele>
        <time>2019-07-17T07:42:08Z</time>
      </trkpt>
      <trkpt lat="43.1714240" lon="-1.2484490">
        <ele>161.2</ele>
        <time>2019-07-17T07:42:11Z</time>
      </trkpt>
      <trkpt lat="43.1713160" lon="-1.2483620">
        <ele>161.7</ele>
        <time>2019-07-17T07:42:14Z</time>
      </trkpt>
      <trkpt lat="43.1711950" lon="-1.2482830">
        <ele>162.1</ele>
        <time>2019-07-17T07:42:17Z</time>
      </trkpt>
      <trkpt lat="43.1710810" lon="-1.2482080">
        <ele>162.3</ele>
        <time>2019-07-17T07:42:20Z</time>
      </trkpt>
      <trkpt lat="43.1709850" lon="-1.2481650">
        <ele>162.4</ele>
        <time>2019-07-17T07:42:23Z</time>
      </trkpt>
      <trkpt lat="43.1708700" lon="-1.2481140">
        <ele>161.4</ele>
        <time>2019-07-17T07:42:27Z</time>
      </trkpt>
      <trkpt lat="43.1707790" lon="-1.2480650">
        <ele>160.6</ele>
        <time>2019-07-17T07:42:31Z</time>
      </trkpt>
      <trkpt lat="43.1706880" lon="-1.2480110">
        <ele>159.8</ele>
        <time>2019-07-17T07:42:34Z</time>
      </trkpt>
      <trkpt lat="43.1705740" lon="-1.2479460">
        <ele>158.7</ele>
        <time>2019-07-17T07:42:38Z</time>
      </trkpt>
      <trkpt lat="43.1704670" lon="-1.2478870">
        <ele>157.8</ele>
        <time>2019-07-17T07:42:41Z</time>
      </trkpt>
      <trkpt lat="43.1703540" lon="-1.2478260">
        <ele>156.8</ele>
        <time>2019-07-17T07:42:44Z</time>
      </trkpt>
      <trkpt lat="43.1702480" lon="-1.2477780">
        <ele>155.8</ele>
        <time>2019-07-17T07:42:47Z</time>
      </trkpt>
      <trkpt lat="43.1701480" lon="-1.2477250">
        <ele>155.0</ele>
        <time>2019-07-17T07:42:50Z</time>
      </trkpt>
      <trkpt lat="43.1700250" lon="-1.2476540">
        <ele>153.9</ele>
        <time>2019-07-17T07:42:53Z</time>
      </trkpt>
      <trkpt lat="43.1699300" lon="-1.2475950">
        <ele>153.6</ele>
        <time>2019-07-17T07:42:56Z</time>
      </trkpt>
      <trkpt lat="43.1698370" lon="-1.2475530">
        <ele>153.6</ele>
        <time>2019-07-17T07:42:59Z</time>
      </trkpt>
      <trkpt lat="43.1697330" lon="-1.2475100">
        <ele>153.6</ele>
        <time>2019-07-17T07:43:02Z</time>
      </trkpt>
      <trkpt lat="43.1696410" lon="-1.2474690">
        <ele>153.7</ele>
        <time>2019-07-17T07:43:05Z</time>
      </trkpt>
      <trkpt lat="43.1695310" lon="-1.2474130">
        <ele>153.9</ele>
        <time>2019-07-17T07:43:09Z</time>
      </trkpt>
      <trkpt lat="43.1694370" lon="-1.2473680">
        <ele>154.1</ele>
        <time>2019-07-17T07:43:11Z</time>
      </trkpt>
      <trkpt lat="43.1693270" lon="-1.2473180">
        <ele>154.4</ele>
        <time>2019-07-17T07:43:14Z</time>
      </trkpt>
      <trkpt lat="43.1692160" lon="-1.2472690">
        <ele>154.8</ele>
        <time>2019-07-17T07:43:17Z</time>
      </trkpt>
      <trkpt lat="43.1691060" lon="-1.2472090">
        <ele>154.8</ele>
        <time>2019-07-17T07:43:20Z</time>
      </trkpt>
      <trkpt lat="43.1689890" lon="-1.2471530">
        <ele>154.6</ele>
        <time>2019-07-17T07:43:23Z</time>
      </trkpt>
      <trkpt lat="43.1688850" lon="-1.2471010">
        <ele>154.5</ele>
        <time>2019-07-17T07:43:26Z</time>
      </trkpt>
      <trkpt lat="43.1687970" lon="-1.2470590">
        <ele>154.5</ele>
        <time>2019-07-17T07:43:28Z</time>
      </trkpt>
      <trkpt lat="43.1687090" lon="-1.2470070">
        <ele>154.4</ele>
        <time>2019-07-17T07:43:30Z</time>
      </trkpt>
      <trkpt lat="43.1686150" lon="-1.2469620">
        <ele>154.3</ele>
        <time>2019-07-17T07:43:33Z</time>
      </trkpt>
      <trkpt lat="43.1685040" lon="-1.2469110">
        <ele>154.2</ele>
        <time>2019-07-17T07:43:36Z</time>
      </trkpt>
      <trkpt lat="43.1683910" lon="-1.2468600">
        <ele>154.1</ele>
        <time>2019-07-17T07:43:39Z</time>
      </trkpt>
      <trkpt lat="43.1682880" lon="-1.2468150">
        <ele>153.9</ele>
        <time>2019-07-17T07:43:42Z</time>
      </trkpt>
      <trkpt lat="43.1682010" lon="-1.2467700">
        <ele>154.0</ele>
        <time>2019-07-17T07:43:44Z</time>
      </trkpt>
      <trkpt lat="43.1680880" lon="-1.2467140">
        <ele>154.2</ele>
        <time>2019-07-17T07:43:47Z</time>
      </trkpt>
      <trkpt lat="43.1679990" lon="-1.2466730">
        <ele>154.3</ele>
        <time>2019-07-17T07:43:49Z</time>
      </trkpt>
      <trkpt lat="43.1679040" lon="-1.2466240">
        <ele>154.4</ele>
        <time>2019-07-17T07:43:52Z</time>
      </trkpt>
      <trkpt lat="43.1678160" lon="-1.2465770">
        <ele>154.4</ele>
        <time>2019-07-17T07:43:54Z</time>
      </trkpt>
      <trkpt lat="43.1677160" lon="-1.2465290">
        <ele>154.5</ele>
        <time>2019-07-17T07:43:57Z</time>
      </trkpt>
      <trkpt lat="43.1676000" lon="-1.2464810">
        <ele>154.6</ele>
        <time>2019-07-17T07:44:00Z</time>
      </trkpt>
      <trkpt lat="43.1674840" lon="-1.2464310">
        <ele>154.8</ele>
        <time>2019-07-17T07:44:03Z</time>
      </trkpt>
      <trkpt lat="43.1673760" lon="-1.2463670">
        <ele>154.9</ele>
        <time>2019-07-17T07:44:06Z</time>
      </trkpt>
      <trkpt lat="43.1672860" lon="-1.2463140">
        <ele>155.0</ele>
        <time>2019-07-17T07:44:09Z</time>
      </trkpt>
      <trkpt lat="43.1671680" lon="-1.2462580">
        <ele>155.1</ele>
        <time>2019-07-17T07:44:12Z</time>
      </trkpt>
      <trkpt lat="43.1670550" lon="-1.2462040">
        <ele>155.2</ele>
        <time>2019-07-17T07:44:15Z</time>
      </trkpt>
      <trkpt lat="43.1669690" lon="-1.2461630">
        <ele>155.2</ele>
        <time>2019-07-17T07:44:17Z</time>
      </trkpt>
      <trkpt lat="43.1668550" lon="-1.2461030">
        <ele>155.3</ele>
        <time>2019-07-17T07:44:20Z</time>
      </trkpt>
      <trkpt lat="43.1667520" lon="-1.2460310">
        <ele>155.4</ele>
        <time>2019-07-17T07:44:23Z</time>
      </trkpt>
      <trkpt lat="43.1666430" lon="-1.2459270">
        <ele>155.5</ele>
        <time>2019-07-17T07:44:26Z</time>
      </trkpt>
      <trkpt lat="43.1665690" lon="-1.2458350">
        <ele>155.7</ele>
        <time>2019-07-17T07:44:28Z</time>
      </trkpt>
      <trkpt lat="43.1664930" lon="-1.2457410">
        <ele>155.8</ele>
        <time>2019-07-17T07:44:30Z</time>
      </trkpt>
      <trkpt lat="43.1664260" lon="-1.2456540">
        <ele>155.9</ele>
        <time>2019-07-17T07:44:32Z</time>
      </trkpt>
      <trkpt lat="43.1663440" lon="-1.2455250">
        <ele>156.1</ele>
        <time>2019-07-17T07:44:35Z</time>
      </trkpt>
      <trkpt lat="43.1662600" lon="-1.2453960">
        <ele>156.4</ele>
        <time>2019-07-17T07:44:38Z</time>
      </trkpt>
      <trkpt lat="43.1661950" lon="-1.2453100">
        <ele>156.6</ele>
        <time>2019-07-17T07:44:40Z</time>
      </trkpt>
      <trkpt lat="43.1661170" lon="-1.2451950">
        <ele>156.8</ele>
        <time>2019-07-17T07:44:43Z</time>
      </trkpt>
      <trkpt lat="43.1660310" lon="-1.2450720">
        <ele>157.1</ele>
        <time>2019-07-17T07:44:46Z</time>
      </trkpt>
      <trkpt lat="43.1659370" lon="-1.2449460">
        <ele>157.5</ele>
        <time>2019-07-17T07:44:49Z</time>
      </trkpt>
      <trkpt lat="43.1658720" lon="-1.2448590">
        <ele>157.8</ele>
        <time>2019-07-17T07:44:51Z</time>
      </trkpt>
      <trkpt lat="43.1657980" lon="-1.2447700">
        <ele>158.1</ele>
        <time>2019-07-17T07:44:53Z</time>
      </trkpt>
      <trkpt lat="43.1657330" lon="-1.2446820">
        <ele>158.5</ele>
        <time>2019-07-17T07:44:55Z</time>
      </trkpt>
      <trkpt lat="43.1656660" lon="-1.2445970">
        <ele>158.9</ele>
        <time>2019-07-17T07:44:57Z</time>
      </trkpt>
      <trkpt lat="43.1655730" lon="-1.2444840">
        <ele>159.5</ele>
        <time>2019-07-17T07:45:00Z</time>
      </trkpt>
      <trkpt lat="43.1655040" lon="-1.2443710">
        <ele>160.1</ele>
        <time>2019-07-17T07:45:04Z</time>
      </trkpt>
      <trkpt lat="43.1654180" lon="-1.2442760">
        <ele>160.7</ele>
        <time>2019-07-17T07:45:08Z</time>
      </trkpt>
      <trkpt lat="43.1653400" lon="-1.2441820">
        <ele>161.2</ele>
        <time>2019-07-17T07:45:11Z</time>
      </trkpt>
      <trkpt lat="43.1652760" lon="-1.2440930">
        <ele>161.6</ele>
        <time>2019-07-17T07:45:14Z</time>
      </trkpt>
      <trkpt lat="43.1652040" lon="-1.2439920">
        <ele>162.0</ele>
        <time>2019-07-17T07:45:18Z</time>
      </trkpt>
      <trkpt lat="43.1651200" lon="-1.2438730">
        <ele>162.4</ele>
        <time>2019-07-17T07:45:23Z</time>
      </trkpt>
      <trkpt lat="43.1650530" lon="-1.2437100">
        <ele>162.9</ele>
        <time>2019-07-17T07:45:29Z</time>
      </trkpt>
      <trkpt lat="43.1649660" lon="-1.2435800">
        <ele>163.2</ele>
        <time>2019-07-17T07:45:33Z</time>
      </trkpt>
      <trkpt lat="43.1648690" lon="-1.2434720">
        <ele>163.5</ele>
        <time>2019-07-17T07:45:36Z</time>
      </trkpt>
      <trkpt lat="43.1647960" lon="-1.2433470">
        <ele>164.1</ele>
        <time>2019-07-17T07:45:39Z</time>
      </trkpt>
      <trkpt lat="43.1646930" lon="-1.2432400">
        <ele>165.4</ele>
        <time>2019-07-17T07:45:42Z</time>
      </trkpt>
      <trkpt lat="43.1645990" lon="-1.2431130">
        <ele>167.3</ele>
        <time>2019-07-17T07:45:45Z</time>
      </trkpt>
      <trkpt lat="43.1645120" lon="-1.2429810">
        <ele>169.1</ele>
        <time>2019-07-17T07:45:48Z</time>
      </trkpt>
      <trkpt lat="43.1644200" lon="-1.2428460">
        <ele>170.9</ele>
        <time>2019-07-17T07:45:51Z</time>
      </trkpt>
      <trkpt lat="43.1643470" lon="-1.2427580">
        <ele>171.2</ele>
        <time>2019-07-17T07:45:53Z</time>
      </trkpt>
      <trkpt lat="43.1642760" lon="-1.2426500">
        <ele>171.3</ele>
        <time>2019-07-17T07:45:56Z</time>
      </trkpt>
      <trkpt lat="43.1642050" lon="-1.2425560">
        <ele>171.4</ele>
        <time>2019-07-17T07:45:59Z</time>
      </trkpt>
      <trkpt lat="43.1641540" lon="-1.2424390">
        <ele>171.5</ele>
        <time>2019-07-17T07:46:02Z</time>
      </trkpt>
      <trkpt lat="43.1641110" lon="-1.2422890">
        <ele>171.5</ele>
        <time>2019-07-17T07:46:05Z</time>
      </trkpt>
      <trkpt lat="43.1640650" lon="-1.2421210">
        <ele>171.1</ele>
        <time>2019-07-17T07:46:08Z</time>
      </trkpt>
      <trkpt lat="43.1640290" lon="-1.2420030">
        <ele>170.5</ele>
        <time>2019-07-17T07:46:10Z</time>
      </trkpt>
      <trkpt lat="43.1639940" lon="-1.2418770">
        <ele>169.8</ele>
        <time>2019-07-17T07:46:12Z</time>
      </trkpt>
      <trkpt lat="43.1639620" lon="-1.2417460">
        <ele>169.1</ele>
        <time>2019-07-17T07:46:14Z</time>
      </trkpt>
      <trkpt lat="43.1639270" lon="-1.2416160">
        <ele>168.3</ele>
        <time>2019-07-17T07:46:16Z</time>
      </trkpt>
      <trkpt lat="43.1638870" lon="-1.2414880">
        <ele>167.3</ele>
        <time>2019-07-17T07:46:18Z</time>
      </trkpt>
      <trkpt lat="43.1638350" lon="-1.2413710">
        <ele>166.4</ele>
        <time>2019-07-17T07:46:20Z</time>
      </trkpt>
      <trkpt lat="43.1637600" lon="-1.2412370">
        <ele>165.3</ele>
        <time>2019-07-17T07:46:23Z</time>
      </trkpt>
      <trkpt lat="43.1636630" lon="-1.2411070">
        <ele>164.2</ele>
        <time>2019-07-17T07:46:26Z</time>
      </trkpt>
      <trkpt lat="43.1635910" lon="-1.2410180">
        <ele>163.9</ele>
        <time>2019-07-17T07:46:28Z</time>
      </trkpt>
      <trkpt lat="43.1635100" lon="-1.2408860">
        <ele>163.8</ele>
        <time>2019-07-17T07:46:31Z</time>
      </trkpt>
      <trkpt lat="43.1634180" lon="-1.2407660">
        <ele>163.7</ele>
        <time>2019-07-17T07:46:34Z</time>
      </trkpt>
      <trkpt lat="43.1633530" lon="-1.2406630">
        <ele>163.6</ele>
        <time>2019-07-17T07:46:37Z</time>
      </trkpt>
      <trkpt lat="43.1632830" lon="-1.2405360">
        <ele>163.5</ele>
        <time>2019-07-17T07:46:41Z</time>
      </trkpt>
      <trkpt lat="43.1632100" lon="-1.2404340">
        <ele>163.5</ele>
        <time>2019-07-17T07:46:45Z</time>
      </trkpt>
      <trkpt lat="43.1631270" lon="-1.2403350">
        <ele>163.4</ele>
        <time>2019-07-17T07:46:49Z</time>
      </trkpt>
      <trkpt lat="43.1630570" lon="-1.2402390">
        <ele>163.3</ele>
        <time>2019-07-17T07:46:53Z</time>
      </trkpt>
      <trkpt lat="43.1629890" lon="-1.2401430">
        <ele>163.4</ele>
        <time>2019-07-17T07:46:56Z</time>
      </trkpt>
      <trkpt lat="43.1629020" lon="-1.2400400">
        <ele>163.7</ele>
        <time>2019-07-17T07:46:59Z</time>
      </trkpt>
      <trkpt lat="43.1628160" lon="-1.2399370">
        <ele>164.1</ele>
        <time>2019-07-17T07:47:02Z</time>
      </trkpt>
      <trkpt lat="43.1627280" lon="-1.2398230">
        <ele>164.5</ele>
        <time>2019-07-17T07:47:05Z</time>
      </trkpt>
      <trkpt lat="43.1626590" lon="-1.2397240">
        <ele>164.8</ele>
        <time>2019-07-17T07:47:08Z</time>
      </trkpt>
      <trkpt lat="43.1625830" lon="-1.2396090">
        <ele>165.2</ele>
        <time>2019-07-17T07:47:12Z</time>
      </trkpt>
      <trkpt lat="43.1625230" lon="-1.2395140">
        <ele>165.7</ele>
        <time>2019-07-17T07:47:16Z</time>
      </trkpt>
      <trkpt lat="43.1624400" lon="-1.2394180">
        <ele>167.3</ele>
        <time>2019-07-17T07:47:21Z</time>
      </trkpt>
      <trkpt lat="43.1623460" lon="-1.2393350">
        <ele>169.3</ele>
        <time>2019-07-17T07:47:25Z</time>
      </trkpt>
      <trkpt lat="43.1622690" lon="-1.2392550">
        <ele>170.5</ele>
        <time>2019-07-17T07:47:28Z</time>
      </trkpt>
      <trkpt lat="43.1621920" lon="-1.2391730">
        <ele>171.6</ele>
        <time>2019-07-17T07:47:31Z</time>
      </trkpt>
      <trkpt lat="43.1621200" lon="-1.2390970">
        <ele>172.4</ele>
        <time>2019-07-17T07:47:34Z</time>
      </trkpt>
      <trkpt lat="43.1620370" lon="-1.2389930">
        <ele>173.5</ele>
        <time>2019-07-17T07:47:38Z</time>
      </trkpt>
      <trkpt lat="43.1619470" lon="-1.2389120">
        <ele>174.3</ele>
        <time>2019-07-17T07:47:41Z</time>
      </trkpt>
      <trkpt lat="43.1618620" lon="-1.2388190">
        <ele>174.8</ele>
        <time>2019-07-17T07:47:45Z</time>
      </trkpt>
      <trkpt lat="43.1617940" lon="-1.2387310">
        <ele>174.3</ele>
        <time>2019-07-17T07:47:49Z</time>
      </trkpt>
      <trkpt lat="43.1617280" lon="-1.2385910">
        <ele>173.5</ele>
        <time>2019-07-17T07:47:53Z</time>
      </trkpt>
      <trkpt lat="43.1616690" lon="-1.2384850">
        <ele>172.8</ele>
        <time>2019-07-17T07:47:56Z</time>
      </trkpt>
      <trkpt lat="43.1616220" lon="-1.2383500">
        <ele>172.2</ele>
        <time>2019-07-17T07:48:00Z</time>
      </trkpt>
      <trkpt lat="43.1615690" lon="-1.2382310">
        <ele>171.5</ele>
        <time>2019-07-17T07:48:03Z</time>
      </trkpt>
      <trkpt lat="43.1615090" lon="-1.2381230">
        <ele>171.0</ele>
        <time>2019-07-17T07:48:06Z</time>
      </trkpt>
      <trkpt lat="43.1614700" lon="-1.2379850">
        <ele>170.4</ele>
        <time>2019-07-17T07:48:10Z</time>
      </trkpt>
      <trkpt lat="43.1614520" lon="-1.2378450">
        <ele>169.6</ele>
        <time>2019-07-17T07:48:16Z</time>
      </trkpt>
      <trkpt lat="43.1614930" lon="-1.2377110">
        <ele>168.8</ele>
        <time>2019-07-17T07:48:24Z</time>
      </trkpt>
      <trkpt lat="43.1615760" lon="-1.2376620">
        <ele>168.8</ele>
        <time>2019-07-17T07:48:29Z</time>
      </trkpt>
      <trkpt lat="43.1616920" lon="-1.2376470">
        <ele>168.7</ele>
        <time>2019-07-17T07:48:41Z</time>
      </trkpt>
      <trkpt lat="43.1616920" lon="-1.2376470">
        <ele>168.7</ele>
        <time>2019-07-17T07:48:41Z</time>
      </trkpt>
      <trkpt lat="43.1616920" lon="-1.2376470">
        <ele>168.7</ele>
        <time>2019-07-17T07:48:41Z</time>
      </trkpt>
      <trkpt lat="43.1617940" lon="-1.2376520">
        <ele>168.6</ele>
        <time>2019-07-17T07:48:52Z</time>
      </trkpt>
      <trkpt lat="43.1619060" lon="-1.2376790">
        <ele>168.6</ele>
        <time>2019-07-17T07:48:56Z</time>
      </trkpt>
      <trkpt lat="43.1619250" lon="-1.2376600">
        <ele>168.5</ele>
        <time>2019-07-17T07:49:07Z</time>
      </trkpt>
      <trkpt lat="43.1618840" lon="-1.2376090">
        <ele>168.5</ele>
        <time>2019-07-17T07:49:18Z</time>
      </trkpt>
      <trkpt lat="43.1618030" lon="-1.2374980">
        <ele>168.4</ele>
        <time>2019-07-17T07:50:09Z</time>
      </trkpt>
      <trkpt lat="43.1618440" lon="-1.2374710">
        <ele>168.4</ele>
        <time>2019-07-17T07:50:17Z</time>
      </trkpt>
      <trkpt lat="43.1616970" lon="-1.2375080">
        <ele>168.2</ele>
        <time>2019-07-17T08:27:04Z</time>
      </trkpt>
      <trkpt lat="43.1616140" lon="-1.2375180">
        <ele>168.2</ele>
        <time>2019-07-17T08:27:09Z</time>
      </trkpt>
      <trkpt lat="43.1616860" lon="-1.2375150">
        <ele>168.1</ele>
        <time>2019-07-17T08:27:24Z</time>
      </trkpt>
      <trkpt lat="43.1617660" lon="-1.2374270">
        <ele>168.1</ele>
        <time>2019-07-17T08:27:41Z</time>
      </trkpt>
      <trkpt lat="43.1618650" lon="-1.2373760">
        <ele>168.0</ele>
        <time>2019-07-17T08:27:51Z</time>
      </trkpt>
      <trkpt lat="43.1619820" lon="-1.2372990">
        <ele>167.9</ele>
        <time>2019-07-17T08:27:57Z</time>
      </trkpt>
      <trkpt lat="43.1620690" lon="-1.2372580">
        <ele>167.8</ele>
        <time>2019-07-17T08:28:02Z</time>
      </trkpt>
      <trkpt lat="43.1621750" lon="-1.2372450">
        <ele>167.9</ele>
        <time>2019-07-17T08:28:07Z</time>
      </trkpt>
      <trkpt lat="43.1622600" lon="-1.2371910">
        <ele>168.9</ele>
        <time>2019-07-17T08:28:13Z</time>
      </trkpt>
      <trkpt lat="43.1624260" lon="-1.2372900">
        <ele>169.9</ele>
        <time>2019-07-17T08:28:21Z</time>
      </trkpt>
      <trkpt lat="43.1625450" lon="-1.2374700">
        <ele>171.2</ele>
        <time>2019-07-17T08:28:28Z</time>
      </trkpt>
      <trkpt lat="43.1625980" lon="-1.2375790">
        <ele>171.4</ele>
        <time>2019-07-17T08:28:33Z</time>
      </trkpt>
      <trkpt lat="43.1626710" lon="-1.2377140">
        <ele>171.2</ele>
        <time>2019-07-17T08:28:39Z</time>
      </trkpt>
      <trkpt lat="43.1627450" lon="-1.2377970">
        <ele>170.7</ele>
        <time>2019-07-17T08:28:44Z</time>
      </trkpt>
      <trkpt lat="43.1628440" lon="-1.2378340">
        <ele>169.7</ele>
        <time>2019-07-17T08:28:50Z</time>
      </trkpt>
      <trkpt lat="43.1629150" lon="-1.2377450">
        <ele>170.7</ele>
        <time>2019-07-17T08:28:56Z</time>
      </trkpt>
      <trkpt lat="43.1629920" lon="-1.2376500">
        <ele>171.6</ele>
        <time>2019-07-17T08:29:02Z</time>
      </trkpt>
      <trkpt lat="43.1630840" lon="-1.2376260">
        <ele>172.3</ele>
        <time>2019-07-17T08:29:09Z</time>
      </trkpt>
      <trkpt lat="43.1631670" lon="-1.2375310">
        <ele>173.2</ele>
        <time>2019-07-17T08:29:14Z</time>
      </trkpt>
      <trkpt lat="43.1632550" lon="-1.2374380">
        <ele>174.0</ele>
        <time>2019-07-17T08:29:19Z</time>
      </trkpt>
      <trkpt lat="43.1633350" lon="-1.2373520">
        <ele>174.7</ele>
        <time>2019-07-17T08:29:24Z</time>
      </trkpt>
      <trkpt lat="43.1634070" lon="-1.2372550">
        <ele>175.3</ele>
        <time>2019-07-17T08:29:29Z</time>
      </trkpt>
      <trkpt lat="43.1634700" lon="-1.2371640">
        <ele>175.5</ele>
        <time>2019-07-17T08:29:33Z</time>
      </trkpt>
      <trkpt lat="43.1635340" lon="-1.2370720">
        <ele>175.8</ele>
        <time>2019-07-17T08:29:37Z</time>
      </trkpt>
      <trkpt lat="43.1636010" lon="-1.2369790">
        <ele>176.1</ele>
        <time>2019-07-17T08:29:41Z</time>
      </trkpt>
      <trkpt lat="43.1636660" lon="-1.2368900">
        <ele>176.3</ele>
        <time>2019-07-17T08:29:45Z</time>
      </trkpt>
      <trkpt lat="43.1637430" lon="-1.2367800">
        <ele>176.1</ele>
        <time>2019-07-17T08:29:50Z</time>
      </trkpt>
      <trkpt lat="43.1638090" lon="-1.2366870">
        <ele>175.9</ele>
        <time>2019-07-17T08:29:54Z</time>
      </trkpt>
      <trkpt lat="43.1638650" lon="-1.2365720">
        <ele>175.7</ele>
        <time>2019-07-17T08:29:58Z</time>
      </trkpt>
      <trkpt lat="43.1639140" lon="-1.2364480">
        <ele>175.1</ele>
        <time>2019-07-17T08:30:02Z</time>
      </trkpt>
      <trkpt lat="43.1639600" lon="-1.2363330">
        <ele>174.2</ele>
        <time>2019-07-17T08:30:06Z</time>
      </trkpt>
      <trkpt lat="43.1640130" lon="-1.2362000">
        <ele>173.3</ele>
        <time>2019-07-17T08:30:11Z</time>
      </trkpt>
      <trkpt lat="43.1640520" lon="-1.2360880">
        <ele>173.0</ele>
        <time>2019-07-17T08:30:15Z</time>
      </trkpt>
      <trkpt lat="43.1640980" lon="-1.2359790">
        <ele>172.7</ele>
        <time>2019-07-17T08:30:19Z</time>
      </trkpt>
      <trkpt lat="43.1641420" lon="-1.2358670">
        <ele>172.4</ele>
        <time>2019-07-17T08:30:23Z</time>
      </trkpt>
      <trkpt lat="43.1641730" lon="-1.2357220">
        <ele>171.9</ele>
        <time>2019-07-17T08:30:28Z</time>
      </trkpt>
      <trkpt lat="43.1641980" lon="-1.2355850">
        <ele>171.4</ele>
        <time>2019-07-17T08:30:32Z</time>
      </trkpt>
      <trkpt lat="43.1642220" lon="-1.2354250">
        <ele>170.9</ele>
        <time>2019-07-17T08:30:36Z</time>
      </trkpt>
      <trkpt lat="43.1642400" lon="-1.2352820">
        <ele>170.5</ele>
        <time>2019-07-17T08:30:39Z</time>
      </trkpt>
      <trkpt lat="43.1642550" lon="-1.2351180">
        <ele>170.0</ele>
        <time>2019-07-17T08:30:42Z</time>
      </trkpt>
      <trkpt lat="43.1642720" lon="-1.2349320">
        <ele>169.0</ele>
        <time>2019-07-17T08:30:45Z</time>
      </trkpt>
      <trkpt lat="43.1642840" lon="-1.2347970">
        <ele>168.1</ele>
        <time>2019-07-17T08:30:47Z</time>
      </trkpt>
      <trkpt lat="43.1643020" lon="-1.2346540">
        <ele>167.3</ele>
        <time>2019-07-17T08:30:49Z</time>
      </trkpt>
      <trkpt lat="43.1643480" lon="-1.2345160">
        <ele>166.6</ele>
        <time>2019-07-17T08:30:51Z</time>
      </trkpt>
      <trkpt lat="43.1644270" lon="-1.2343900">
        <ele>165.8</ele>
        <time>2019-07-17T08:30:53Z</time>
      </trkpt>
      <trkpt lat="43.1645360" lon="-1.2342920">
        <ele>164.8</ele>
        <time>2019-07-17T08:30:55Z</time>
      </trkpt>
      <trkpt lat="43.1646660" lon="-1.2342260">
        <ele>163.8</ele>
        <time>2019-07-17T08:30:57Z</time>
      </trkpt>
      <trkpt lat="43.1648050" lon="-1.2341690">
        <ele>162.9</ele>
        <time>2019-07-17T08:30:59Z</time>
      </trkpt>
      <trkpt lat="43.1649400" lon="-1.2341040">
        <ele>162.1</ele>
        <time>2019-07-17T08:31:01Z</time>
      </trkpt>
      <trkpt lat="43.1650810" lon="-1.2340490">
        <ele>162.1</ele>
        <time>2019-07-17T08:31:03Z</time>
      </trkpt>
      <trkpt lat="43.1652100" lon="-1.2339940">
        <ele>162.3</ele>
        <time>2019-07-17T08:31:05Z</time>
      </trkpt>
      <trkpt lat="43.1653310" lon="-1.2339440">
        <ele>162.2</ele>
        <time>2019-07-17T08:31:07Z</time>
      </trkpt>
      <trkpt lat="43.1654300" lon="-1.2338940">
        <ele>162.0</ele>
        <time>2019-07-17T08:31:09Z</time>
      </trkpt>
      <trkpt lat="43.1655230" lon="-1.2338300">
        <ele>161.7</ele>
        <time>2019-07-17T08:31:11Z</time>
      </trkpt>
      <trkpt lat="43.1656210" lon="-1.2337670">
        <ele>161.4</ele>
        <time>2019-07-17T08:31:13Z</time>
      </trkpt>
      <trkpt lat="43.1657210" lon="-1.2337540">
        <ele>161.1</ele>
        <time>2019-07-17T08:31:15Z</time>
      </trkpt>
      <trkpt lat="43.1658190" lon="-1.2337400">
        <ele>160.8</ele>
        <time>2019-07-17T08:31:17Z</time>
      </trkpt>
      <trkpt lat="43.1659160" lon="-1.2336950">
        <ele>160.6</ele>
        <time>2019-07-17T08:31:19Z</time>
      </trkpt>
      <trkpt lat="43.1660180" lon="-1.2336580">
        <ele>160.6</ele>
        <time>2019-07-17T08:31:21Z</time>
      </trkpt>
      <trkpt lat="43.1661170" lon="-1.2336200">
        <ele>160.5</ele>
        <time>2019-07-17T08:31:23Z</time>
      </trkpt>
      <trkpt lat="43.1662070" lon="-1.2335800">
        <ele>160.5</ele>
        <time>2019-07-17T08:31:25Z</time>
      </trkpt>
      <trkpt lat="43.1662970" lon="-1.2335430">
        <ele>160.5</ele>
        <time>2019-07-17T08:31:27Z</time>
      </trkpt>
      <trkpt lat="43.1664100" lon="-1.2334830">
        <ele>160.4</ele>
        <time>2019-07-17T08:31:30Z</time>
      </trkpt>
      <trkpt lat="43.1665270" lon="-1.2334250">
        <ele>160.4</ele>
        <time>2019-07-17T08:31:33Z</time>
      </trkpt>
      <trkpt lat="43.1666340" lon="-1.2333760">
        <ele>160.4</ele>
        <time>2019-07-17T08:31:36Z</time>
      </trkpt>
      <trkpt lat="43.1667340" lon="-1.2333370">
        <ele>160.4</ele>
        <time>2019-07-17T08:31:39Z</time>
      </trkpt>
      <trkpt lat="43.1668310" lon="-1.2333050">
        <ele>160.4</ele>
        <time>2019-07-17T08:31:42Z</time>
      </trkpt>
      <trkpt lat="43.1669970" lon="-1.2332920">
        <ele>160.1</ele>
        <time>2019-07-17T08:31:47Z</time>
      </trkpt>
      <trkpt lat="43.1671120" lon="-1.2332450">
        <ele>159.9</ele>
        <time>2019-07-17T08:31:51Z</time>
      </trkpt>
      <trkpt lat="43.1672030" lon="-1.2332010">
        <ele>159.9</ele>
        <time>2019-07-17T08:31:54Z</time>
      </trkpt>
      <trkpt lat="43.1672970" lon="-1.2331630">
        <ele>159.9</ele>
        <time>2019-07-17T08:31:57Z</time>
      </trkpt>
      <trkpt lat="43.1673960" lon="-1.2331190">
        <ele>159.9</ele>
        <time>2019-07-17T08:32:00Z</time>
      </trkpt>
      <trkpt lat="43.1674870" lon="-1.2330670">
        <ele>160.0</ele>
        <time>2019-07-17T08:32:03Z</time>
      </trkpt>
      <trkpt lat="43.1675890" lon="-1.2330240">
        <ele>160.0</ele>
        <time>2019-07-17T08:32:06Z</time>
      </trkpt>
      <trkpt lat="43.1676800" lon="-1.2329900">
        <ele>160.0</ele>
        <time>2019-07-17T08:32:09Z</time>
      </trkpt>
      <trkpt lat="43.1677950" lon="-1.2329410">
        <ele>160.0</ele>
        <time>2019-07-17T08:32:13Z</time>
      </trkpt>
      <trkpt lat="43.1678830" lon="-1.2329030">
        <ele>160.1</ele>
        <time>2019-07-17T08:32:16Z</time>
      </trkpt>
      <trkpt lat="43.1679950" lon="-1.2328490">
        <ele>160.3</ele>
        <time>2019-07-17T08:32:20Z</time>
      </trkpt>
      <trkpt lat="43.1680870" lon="-1.2328220">
        <ele>160.5</ele>
        <time>2019-07-17T08:32:23Z</time>
      </trkpt>
      <trkpt lat="43.1681820" lon="-1.2327970">
        <ele>160.8</ele>
        <time>2019-07-17T08:32:26Z</time>
      </trkpt>
      <trkpt lat="43.1682850" lon="-1.2327450">
        <ele>161.3</ele>
        <time>2019-07-17T08:32:30Z</time>
      </trkpt>
      <trkpt lat="43.1683990" lon="-1.2327030">
        <ele>161.8</ele>
        <time>2019-07-17T08:32:34Z</time>
      </trkpt>
      <trkpt lat="43.1685060" lon="-1.2326420">
        <ele>162.4</ele>
        <time>2019-07-17T08:32:38Z</time>
      </trkpt>
      <trkpt lat="43.1686020" lon="-1.2325690">
        <ele>163.7</ele>
        <time>2019-07-17T08:32:42Z</time>
      </trkpt>
      <trkpt lat="43.1686760" lon="-1.2324930">
        <ele>164.8</ele>
        <time>2019-07-17T08:32:45Z</time>
      </trkpt>
      <trkpt lat="43.1687450" lon="-1.2324110">
        <ele>165.4</ele>
        <time>2019-07-17T08:32:48Z</time>
      </trkpt>
      <trkpt lat="43.1688080" lon="-1.2322750">
        <ele>165.8</ele>
        <time>2019-07-17T08:32:52Z</time>
      </trkpt>
      <trkpt lat="43.1688380" lon="-1.2321170">
        <ele>166.0</ele>
        <time>2019-07-17T08:32:56Z</time>
      </trkpt>
      <trkpt lat="43.1688510" lon="-1.2319640">
        <ele>166.2</ele>
        <time>2019-07-17T08:33:00Z</time>
      </trkpt>
      <trkpt lat="43.1688610" lon="-1.2318110">
        <ele>166.5</ele>
        <time>2019-07-17T08:33:04Z</time>
      </trkpt>
      <trkpt lat="43.1688620" lon="-1.2316570">
        <ele>166.8</ele>
        <time>2019-07-17T08:33:08Z</time>
      </trkpt>
      <trkpt lat="43.1688630" lon="-1.2315000">
        <ele>167.2</ele>
        <time>2019-07-17T08:33:12Z</time>
      </trkpt>
      <trkpt lat="43.1688660" lon="-1.2313440">
        <ele>167.6</ele>
        <time>2019-07-17T08:33:16Z</time>
      </trkpt>
      <trkpt lat="43.1688720" lon="-1.2311960">
        <ele>168.0</ele>
        <time>2019-07-17T08:33:20Z</time>
      </trkpt>
      <trkpt lat="43.1688720" lon="-1.2310490">
        <ele>168.5</ele>
        <time>2019-07-17T08:33:24Z</time>
      </trkpt>
      <trkpt lat="43.1688780" lon="-1.2308980">
        <ele>169.1</ele>
        <time>2019-07-17T08:33:28Z</time>
      </trkpt>
      <trkpt lat="43.1688730" lon="-1.2307530">
        <ele>169.6</ele>
        <time>2019-07-17T08:33:32Z</time>
      </trkpt>
      <trkpt lat="43.1688770" lon="-1.2306050">
        <ele>170.1</ele>
        <time>2019-07-17T08:33:36Z</time>
      </trkpt>
      <trkpt lat="43.1688700" lon="-1.2304550">
        <ele>170.5</ele>
        <time>2019-07-17T08:33:40Z</time>
      </trkpt>
      <trkpt lat="43.1688640" lon="-1.2302930">
        <ele>170.8</ele>
        <time>2019-07-17T08:33:44Z</time>
      </trkpt>
      <trkpt lat="43.1688560" lon="-1.2301380">
        <ele>171.0</ele>
        <time>2019-07-17T08:33:48Z</time>
      </trkpt>
      <trkpt lat="43.1688520" lon="-1.2299920">
        <ele>171.4</ele>
        <time>2019-07-17T08:33:52Z</time>
      </trkpt>
      <trkpt lat="43.1688470" lon="-1.2298450">
        <ele>171.9</ele>
        <time>2019-07-17T08:33:56Z</time>
      </trkpt>
      <trkpt lat="43.1688420" lon="-1.2296920">
        <ele>172.4</ele>
        <time>2019-07-17T08:34:00Z</time>
      </trkpt>
      <trkpt lat="43.1688210" lon="-1.2295410">
        <ele>173.0</ele>
        <time>2019-07-17T08:34:04Z</time>
      </trkpt>
      <trkpt lat="43.1688020" lon="-1.2293910">
        <ele>172.6</ele>
        <time>2019-07-17T08:34:08Z</time>
      </trkpt>
      <trkpt lat="43.1687850" lon="-1.2292350">
        <ele>172.1</ele>
        <time>2019-07-17T08:34:12Z</time>
      </trkpt>
      <trkpt lat="43.1687680" lon="-1.2291130">
        <ele>171.7</ele>
        <time>2019-07-17T08:34:15Z</time>
      </trkpt>
      <trkpt lat="43.1687530" lon="-1.2289870">
        <ele>171.3</ele>
        <time>2019-07-17T08:34:18Z</time>
      </trkpt>
      <trkpt lat="43.1687320" lon="-1.2288630">
        <ele>170.9</ele>
        <time>2019-07-17T08:34:21Z</time>
      </trkpt>
      <trkpt lat="43.1687200" lon="-1.2287360">
        <ele>170.6</ele>
        <time>2019-07-17T08:34:24Z</time>
      </trkpt>
      <trkpt lat="43.1687030" lon="-1.2286070">
        <ele>170.1</ele>
        <time>2019-07-17T08:34:27Z</time>
      </trkpt>
      <trkpt lat="43.1686880" lon="-1.2284520">
        <ele>169.5</ele>
        <time>2019-07-17T08:34:31Z</time>
      </trkpt>
      <trkpt lat="43.1686760" lon="-1.2283280">
        <ele>169.1</ele>
        <time>2019-07-17T08:34:34Z</time>
      </trkpt>
      <trkpt lat="43.1686650" lon="-1.2282040">
        <ele>169.1</ele>
        <time>2019-07-17T08:34:37Z</time>
      </trkpt>
      <trkpt lat="43.1686480" lon="-1.2280810">
        <ele>169.2</ele>
        <time>2019-07-17T08:34:40Z</time>
      </trkpt>
      <trkpt lat="43.1686340" lon="-1.2279390">
        <ele>169.4</ele>
        <time>2019-07-17T08:34:44Z</time>
      </trkpt>
      <trkpt lat="43.1686170" lon="-1.2278170">
        <ele>169.6</ele>
        <time>2019-07-17T08:34:48Z</time>
      </trkpt>
      <trkpt lat="43.1686090" lon="-1.2276900">
        <ele>169.7</ele>
        <time>2019-07-17T08:34:52Z</time>
      </trkpt>
      <trkpt lat="43.1685980" lon="-1.2275460">
        <ele>169.8</ele>
        <time>2019-07-17T08:34:57Z</time>
      </trkpt>
      <trkpt lat="43.1685860" lon="-1.2274140">
        <ele>169.9</ele>
        <time>2019-07-17T08:35:01Z</time>
      </trkpt>
      <trkpt lat="43.1685740" lon="-1.2272790">
        <ele>170.1</ele>
        <time>2019-07-17T08:35:05Z</time>
      </trkpt>
      <trkpt lat="43.1685590" lon="-1.2271360">
        <ele>170.2</ele>
        <time>2019-07-17T08:35:09Z</time>
      </trkpt>
      <trkpt lat="43.1685410" lon="-1.2269770">
        <ele>170.3</ele>
        <time>2019-07-17T08:35:13Z</time>
      </trkpt>
      <trkpt lat="43.1685240" lon="-1.2268200">
        <ele>170.4</ele>
        <time>2019-07-17T08:35:17Z</time>
      </trkpt>
      <trkpt lat="43.1685020" lon="-1.2266660">
        <ele>170.5</ele>
        <time>2019-07-17T08:35:21Z</time>
      </trkpt>
      <trkpt lat="43.1684900" lon="-1.2265400">
        <ele>170.6</ele>
        <time>2019-07-17T08:35:24Z</time>
      </trkpt>
      <trkpt lat="43.1684730" lon="-1.2264040">
        <ele>170.7</ele>
        <time>2019-07-17T08:35:27Z</time>
      </trkpt>
      <trkpt lat="43.1684570" lon="-1.2262750">
        <ele>170.8</ele>
        <time>2019-07-17T08:35:30Z</time>
      </trkpt>
      <trkpt lat="43.1684420" lon="-1.2261460">
        <ele>171.0</ele>
        <time>2019-07-17T08:35:33Z</time>
      </trkpt>
      <trkpt lat="43.1684280" lon="-1.2260140">
        <ele>171.1</ele>
        <time>2019-07-17T08:35:36Z</time>
      </trkpt>
      <trkpt lat="43.1684160" lon="-1.2258810">
        <ele>171.2</ele>
        <time>2019-07-17T08:35:39Z</time>
      </trkpt>
      <trkpt lat="43.1683980" lon="-1.2257460">
        <ele>171.3</ele>
        <time>2019-07-17T08:35:42Z</time>
      </trkpt>
      <trkpt lat="43.1683850" lon="-1.2256080">
        <ele>171.4</ele>
        <time>2019-07-17T08:35:45Z</time>
      </trkpt>
      <trkpt lat="43.1683700" lon="-1.2254730">
        <ele>171.5</ele>
        <time>2019-07-17T08:35:48Z</time>
      </trkpt>
      <trkpt lat="43.1683540" lon="-1.2253290">
        <ele>171.5</ele>
        <time>2019-07-17T08:35:51Z</time>
      </trkpt>
      <trkpt lat="43.1683360" lon="-1.2251820">
        <ele>171.6</ele>
        <time>2019-07-17T08:35:54Z</time>
      </trkpt>
      <trkpt lat="43.1683200" lon="-1.2250360">
        <ele>171.6</ele>
        <time>2019-07-17T08:35:57Z</time>
      </trkpt>
      <trkpt lat="43.1683030" lon="-1.2248950">
        <ele>171.6</ele>
        <time>2019-07-17T08:36:00Z</time>
      </trkpt>
      <trkpt lat="43.1682860" lon="-1.2247620">
        <ele>171.7</ele>
        <time>2019-07-17T08:36:03Z</time>
      </trkpt>
      <trkpt lat="43.1682690" lon="-1.2246080">
        <ele>171.7</ele>
        <time>2019-07-17T08:36:07Z</time>
      </trkpt>
      <trkpt lat="43.1682590" lon="-1.2244600">
        <ele>171.8</ele>
        <time>2019-07-17T08:36:11Z</time>
      </trkpt>
      <trkpt lat="43.1682410" lon="-1.2243320">
        <ele>171.9</ele>
        <time>2019-07-17T08:36:14Z</time>
      </trkpt>
      <trkpt lat="43.1682270" lon="-1.2242050">
        <ele>172.2</ele>
        <time>2019-07-17T08:36:17Z</time>
      </trkpt>
      <trkpt lat="43.1682130" lon="-1.2240760">
        <ele>172.5</ele>
        <time>2019-07-17T08:36:20Z</time>
      </trkpt>
      <trkpt lat="43.1681960" lon="-1.2239400">
        <ele>172.7</ele>
        <time>2019-07-17T08:36:23Z</time>
      </trkpt>
      <trkpt lat="43.1681830" lon="-1.2237970">
        <ele>172.8</ele>
        <time>2019-07-17T08:36:26Z</time>
      </trkpt>
      <trkpt lat="43.1681690" lon="-1.2236580">
        <ele>172.9</ele>
        <time>2019-07-17T08:36:29Z</time>
      </trkpt>
      <trkpt lat="43.1681520" lon="-1.2235130">
        <ele>172.9</ele>
        <time>2019-07-17T08:36:32Z</time>
      </trkpt>
      <trkpt lat="43.1681350" lon="-1.2233690">
        <ele>172.9</ele>
        <time>2019-07-17T08:36:35Z</time>
      </trkpt>
      <trkpt lat="43.1681170" lon="-1.2232280">
        <ele>172.9</ele>
        <time>2019-07-17T08:36:38Z</time>
      </trkpt>
      <trkpt lat="43.1681030" lon="-1.2230820">
        <ele>172.9</ele>
        <time>2019-07-17T08:36:41Z</time>
      </trkpt>
      <trkpt lat="43.1680910" lon="-1.2229330">
        <ele>172.9</ele>
        <time>2019-07-17T08:36:44Z</time>
      </trkpt>
      <trkpt lat="43.1680780" lon="-1.2227810">
        <ele>172.9</ele>
        <time>2019-07-17T08:36:47Z</time>
      </trkpt>
      <trkpt lat="43.1680640" lon="-1.2226180">
        <ele>173.0</ele>
        <time>2019-07-17T08:36:50Z</time>
      </trkpt>
      <trkpt lat="43.1680520" lon="-1.2224570">
        <ele>173.1</ele>
        <time>2019-07-17T08:36:53Z</time>
      </trkpt>
      <trkpt lat="43.1680420" lon="-1.2222960">
        <ele>173.1</ele>
        <time>2019-07-17T08:36:56Z</time>
      </trkpt>
      <trkpt lat="43.1680250" lon="-1.2221370">
        <ele>173.1</ele>
        <time>2019-07-17T08:36:59Z</time>
      </trkpt>
      <trkpt lat="43.1680090" lon="-1.2219780">
        <ele>173.1</ele>
        <time>2019-07-17T08:37:02Z</time>
      </trkpt>
      <trkpt lat="43.1679920" lon="-1.2218240">
        <ele>173.2</ele>
        <time>2019-07-17T08:37:05Z</time>
      </trkpt>
      <trkpt lat="43.1679730" lon="-1.2216680">
        <ele>173.2</ele>
        <time>2019-07-17T08:37:08Z</time>
      </trkpt>
      <trkpt lat="43.1679520" lon="-1.2215190">
        <ele>173.3</ele>
        <time>2019-07-17T08:37:11Z</time>
      </trkpt>
      <trkpt lat="43.1679360" lon="-1.2213690">
        <ele>173.4</ele>
        <time>2019-07-17T08:37:14Z</time>
      </trkpt>
      <trkpt lat="43.1679200" lon="-1.2212240">
        <ele>173.5</ele>
        <time>2019-07-17T08:37:17Z</time>
      </trkpt>
      <trkpt lat="43.1679140" lon="-1.2210910">
        <ele>173.6</ele>
        <time>2019-07-17T08:37:20Z</time>
      </trkpt>
      <trkpt lat="43.1678970" lon="-1.2209560">
        <ele>173.7</ele>
        <time>2019-07-17T08:37:23Z</time>
      </trkpt>
      <trkpt lat="43.1678800" lon="-1.2208170">
        <ele>173.8</ele>
        <time>2019-07-17T08:37:26Z</time>
      </trkpt>
      <trkpt lat="43.1678590" lon="-1.2206750">
        <ele>174.0</ele>
        <time>2019-07-17T08:37:29Z</time>
      </trkpt>
      <trkpt lat="43.1678430" lon="-1.2205420">
        <ele>174.1</ele>
        <time>2019-07-17T08:37:32Z</time>
      </trkpt>
      <trkpt lat="43.1678300" lon="-1.2204070">
        <ele>174.2</ele>
        <time>2019-07-17T08:37:35Z</time>
      </trkpt>
      <trkpt lat="43.1678150" lon="-1.2202690">
        <ele>174.4</ele>
        <time>2019-07-17T08:37:38Z</time>
      </trkpt>
      <trkpt lat="43.1678040" lon="-1.2201350">
        <ele>174.6</ele>
        <time>2019-07-17T08:37:41Z</time>
      </trkpt>
      <trkpt lat="43.1677890" lon="-1.2199900">
        <ele>174.7</ele>
        <time>2019-07-17T08:37:44Z</time>
      </trkpt>
      <trkpt lat="43.1677700" lon="-1.2198490">
        <ele>174.9</ele>
        <time>2019-07-17T08:37:47Z</time>
      </trkpt>
      <trkpt lat="43.1677540" lon="-1.2197080">
        <ele>175.0</ele>
        <time>2019-07-17T08:37:50Z</time>
      </trkpt>
      <trkpt lat="43.1677400" lon="-1.2195630">
        <ele>175.2</ele>
        <time>2019-07-17T08:37:53Z</time>
      </trkpt>
      <trkpt lat="43.1677230" lon="-1.2194220">
        <ele>175.4</ele>
        <time>2019-07-17T08:37:56Z</time>
      </trkpt>
      <trkpt lat="43.1677100" lon="-1.2192830">
        <ele>175.6</ele>
        <time>2019-07-17T08:37:59Z</time>
      </trkpt>
      <trkpt lat="43.1676920" lon="-1.2191340">
        <ele>175.8</ele>
        <time>2019-07-17T08:38:02Z</time>
      </trkpt>
      <trkpt lat="43.1676720" lon="-1.2189840">
        <ele>176.1</ele>
        <time>2019-07-17T08:38:05Z</time>
      </trkpt>
      <trkpt lat="43.1676620" lon="-1.2188360">
        <ele>176.3</ele>
        <time>2019-07-17T08:38:08Z</time>
      </trkpt>
      <trkpt lat="43.1676440" lon="-1.2186900">
        <ele>176.5</ele>
        <time>2019-07-17T08:38:11Z</time>
      </trkpt>
      <trkpt lat="43.1676340" lon="-1.2185450">
        <ele>176.6</ele>
        <time>2019-07-17T08:38:14Z</time>
      </trkpt>
      <trkpt lat="43.1676170" lon="-1.2183930">
        <ele>176.8</ele>
        <time>2019-07-17T08:38:17Z</time>
      </trkpt>
      <trkpt lat="43.1675990" lon="-1.2182440">
        <ele>177.0</ele>
        <time>2019-07-17T08:38:20Z</time>
      </trkpt>
      <trkpt lat="43.1675820" lon="-1.2180950">
        <ele>177.2</ele>
        <time>2019-07-17T08:38:23Z</time>
      </trkpt>
      <trkpt lat="43.1675600" lon="-1.2179360">
        <ele>177.4</ele>
        <time>2019-07-17T08:38:26Z</time>
      </trkpt>
      <trkpt lat="43.1675380" lon="-1.2177670">
        <ele>177.5</ele>
        <time>2019-07-17T08:38:29Z</time>
      </trkpt>
      <trkpt lat="43.1675180" lon="-1.2175960">
        <ele>177.5</ele>
        <time>2019-07-17T08:38:32Z</time>
      </trkpt>
      <trkpt lat="43.1675020" lon="-1.2174290">
        <ele>177.5</ele>
        <time>2019-07-17T08:38:35Z</time>
      </trkpt>
      <trkpt lat="43.1674850" lon="-1.2172610">
        <ele>177.5</ele>
        <time>2019-07-17T08:38:38Z</time>
      </trkpt>
      <trkpt lat="43.1674670" lon="-1.2170870">
        <ele>177.6</ele>
        <time>2019-07-17T08:38:41Z</time>
      </trkpt>
      <trkpt lat="43.1674490" lon="-1.2169130">
        <ele>177.7</ele>
        <time>2019-07-17T08:38:44Z</time>
      </trkpt>
      <trkpt lat="43.1674270" lon="-1.2167320">
        <ele>177.6</ele>
        <time>2019-07-17T08:38:47Z</time>
      </trkpt>
      <trkpt lat="43.1674090" lon="-1.2165630">
        <ele>177.4</ele>
        <time>2019-07-17T08:38:50Z</time>
      </trkpt>
      <trkpt lat="43.1673950" lon="-1.2163940">
        <ele>177.3</ele>
        <time>2019-07-17T08:38:53Z</time>
      </trkpt>
      <trkpt lat="43.1673790" lon="-1.2162280">
        <ele>177.2</ele>
        <time>2019-07-17T08:38:56Z</time>
      </trkpt>
      <trkpt lat="43.1673560" lon="-1.2160600">
        <ele>177.1</ele>
        <time>2019-07-17T08:38:59Z</time>
      </trkpt>
      <trkpt lat="43.1673370" lon="-1.2158920">
        <ele>177.1</ele>
        <time>2019-07-17T08:39:02Z</time>
      </trkpt>
      <trkpt lat="43.1673220" lon="-1.2157230">
        <ele>177.1</ele>
        <time>2019-07-17T08:39:05Z</time>
      </trkpt>
      <trkpt lat="43.1673020" lon="-1.2155540">
        <ele>177.1</ele>
        <time>2019-07-17T08:39:08Z</time>
      </trkpt>
      <trkpt lat="43.1672790" lon="-1.2153850">
        <ele>177.1</ele>
        <time>2019-07-17T08:39:11Z</time>
      </trkpt>
      <trkpt lat="43.1672620" lon="-1.2152250">
        <ele>177.3</ele>
        <time>2019-07-17T08:39:14Z</time>
      </trkpt>
      <trkpt lat="43.1672440" lon="-1.2150720">
        <ele>177.3</ele>
        <time>2019-07-17T08:39:17Z</time>
      </trkpt>
      <trkpt lat="43.1672280" lon="-1.2149240">
        <ele>177.4</ele>
        <time>2019-07-17T08:39:20Z</time>
      </trkpt>
      <trkpt lat="43.1672120" lon="-1.2147770">
        <ele>177.5</ele>
        <time>2019-07-17T08:39:23Z</time>
      </trkpt>
      <trkpt lat="43.1671960" lon="-1.2146350">
        <ele>177.7</ele>
        <time>2019-07-17T08:39:26Z</time>
      </trkpt>
      <trkpt lat="43.1671810" lon="-1.2144890">
        <ele>177.9</ele>
        <time>2019-07-17T08:39:29Z</time>
      </trkpt>
      <trkpt lat="43.1671680" lon="-1.2143470">
        <ele>178.1</ele>
        <time>2019-07-17T08:39:32Z</time>
      </trkpt>
      <trkpt lat="43.1671530" lon="-1.2142050">
        <ele>178.4</ele>
        <time>2019-07-17T08:39:35Z</time>
      </trkpt>
      <trkpt lat="43.1671310" lon="-1.2140560">
        <ele>178.6</ele>
        <time>2019-07-17T08:39:38Z</time>
      </trkpt>
      <trkpt lat="43.1671170" lon="-1.2139160">
        <ele>178.9</ele>
        <time>2019-07-17T08:39:41Z</time>
      </trkpt>
      <trkpt lat="43.1671020" lon="-1.2137820">
        <ele>179.2</ele>
        <time>2019-07-17T08:39:44Z</time>
      </trkpt>
      <trkpt lat="43.1670900" lon="-1.2136420">
        <ele>179.4</ele>
        <time>2019-07-17T08:39:47Z</time>
      </trkpt>
      <trkpt lat="43.1670690" lon="-1.2135020">
        <ele>179.7</ele>
        <time>2019-07-17T08:39:50Z</time>
      </trkpt>
      <trkpt lat="43.1670520" lon="-1.2133650">
        <ele>179.9</ele>
        <time>2019-07-17T08:39:53Z</time>
      </trkpt>
      <trkpt lat="43.1670360" lon="-1.2132280">
        <ele>180.2</ele>
        <time>2019-07-17T08:39:56Z</time>
      </trkpt>
      <trkpt lat="43.1670210" lon="-1.2130850">
        <ele>180.5</ele>
        <time>2019-07-17T08:39:59Z</time>
      </trkpt>
      <trkpt lat="43.1670070" lon="-1.2129500">
        <ele>180.7</ele>
        <time>2019-07-17T08:40:02Z</time>
      </trkpt>
      <trkpt lat="43.1669920" lon="-1.2128080">
        <ele>180.9</ele>
        <time>2019-07-17T08:40:05Z</time>
      </trkpt>
      <trkpt lat="43.1669810" lon="-1.2126710">
        <ele>181.1</ele>
        <time>2019-07-17T08:40:08Z</time>
      </trkpt>
      <trkpt lat="43.1669650" lon="-1.2125320">
        <ele>181.2</ele>
        <time>2019-07-17T08:40:11Z</time>
      </trkpt>
      <trkpt lat="43.1669490" lon="-1.2123860">
        <ele>181.4</ele>
        <time>2019-07-17T08:40:14Z</time>
      </trkpt>
      <trkpt lat="43.1669320" lon="-1.2122380">
        <ele>181.5</ele>
        <time>2019-07-17T08:40:17Z</time>
      </trkpt>
      <trkpt lat="43.1669170" lon="-1.2120900">
        <ele>181.5</ele>
        <time>2019-07-17T08:40:20Z</time>
      </trkpt>
      <trkpt lat="43.1669000" lon="-1.2119410">
        <ele>181.4</ele>
        <time>2019-07-17T08:40:23Z</time>
      </trkpt>
      <trkpt lat="43.1668840" lon="-1.2117890">
        <ele>181.3</ele>
        <time>2019-07-17T08:40:26Z</time>
      </trkpt>
      <trkpt lat="43.1668630" lon="-1.2116310">
        <ele>181.2</ele>
        <time>2019-07-17T08:40:29Z</time>
      </trkpt>
      <trkpt lat="43.1668450" lon="-1.2114780">
        <ele>181.3</ele>
        <time>2019-07-17T08:40:32Z</time>
      </trkpt>
      <trkpt lat="43.1668270" lon="-1.2113280">
        <ele>181.3</ele>
        <time>2019-07-17T08:40:35Z</time>
      </trkpt>
      <trkpt lat="43.1668130" lon="-1.2111810">
        <ele>181.4</ele>
        <time>2019-07-17T08:40:38Z</time>
      </trkpt>
      <trkpt lat="43.1667980" lon="-1.2110380">
        <ele>181.4</ele>
        <time>2019-07-17T08:40:41Z</time>
      </trkpt>
      <trkpt lat="43.1667800" lon="-1.2108910">
        <ele>181.5</ele>
        <time>2019-07-17T08:40:44Z</time>
      </trkpt>
      <trkpt lat="43.1667620" lon="-1.2107380">
        <ele>181.5</ele>
        <time>2019-07-17T08:40:47Z</time>
      </trkpt>
      <trkpt lat="43.1667430" lon="-1.2105920">
        <ele>181.6</ele>
        <time>2019-07-17T08:40:50Z</time>
      </trkpt>
      <trkpt lat="43.1667250" lon="-1.2104460">
        <ele>181.6</ele>
        <time>2019-07-17T08:40:53Z</time>
      </trkpt>
      <trkpt lat="43.1667120" lon="-1.2102980">
        <ele>181.7</ele>
        <time>2019-07-17T08:40:56Z</time>
      </trkpt>
      <trkpt lat="43.1666940" lon="-1.2101550">
        <ele>182.0</ele>
        <time>2019-07-17T08:40:59Z</time>
      </trkpt>
      <trkpt lat="43.1666730" lon="-1.2100060">
        <ele>182.3</ele>
        <time>2019-07-17T08:41:02Z</time>
      </trkpt>
      <trkpt lat="43.1666590" lon="-1.2098580">
        <ele>182.4</ele>
        <time>2019-07-17T08:41:05Z</time>
      </trkpt>
      <trkpt lat="43.1666460" lon="-1.2097190">
        <ele>182.6</ele>
        <time>2019-07-17T08:41:08Z</time>
      </trkpt>
      <trkpt lat="43.1666320" lon="-1.2095760">
        <ele>182.8</ele>
        <time>2019-07-17T08:41:11Z</time>
      </trkpt>
      <trkpt lat="43.1666150" lon="-1.2094270">
        <ele>183.0</ele>
        <time>2019-07-17T08:41:14Z</time>
      </trkpt>
      <trkpt lat="43.1665980" lon="-1.2092750">
        <ele>183.1</ele>
        <time>2019-07-17T08:41:17Z</time>
      </trkpt>
      <trkpt lat="43.1665850" lon="-1.2091200">
        <ele>183.3</ele>
        <time>2019-07-17T08:41:20Z</time>
      </trkpt>
      <trkpt lat="43.1665690" lon="-1.2089730">
        <ele>183.5</ele>
        <time>2019-07-17T08:41:23Z</time>
      </trkpt>
      <trkpt lat="43.1665540" lon="-1.2088170">
        <ele>183.7</ele>
        <time>2019-07-17T08:41:26Z</time>
      </trkpt>
      <trkpt lat="43.1665380" lon="-1.2086600">
        <ele>183.9</ele>
        <time>2019-07-17T08:41:29Z</time>
      </trkpt>
      <trkpt lat="43.1665250" lon="-1.2085030">
        <ele>184.3</ele>
        <time>2019-07-17T08:41:32Z</time>
      </trkpt>
      <trkpt lat="43.1665060" lon="-1.2083500">
        <ele>184.6</ele>
        <time>2019-07-17T08:41:35Z</time>
      </trkpt>
      <trkpt lat="43.1664910" lon="-1.2081970">
        <ele>185.1</ele>
        <time>2019-07-17T08:41:38Z</time>
      </trkpt>
      <trkpt lat="43.1664770" lon="-1.2080460">
        <ele>185.5</ele>
        <time>2019-07-17T08:41:41Z</time>
      </trkpt>
      <trkpt lat="43.1664610" lon="-1.2079010">
        <ele>185.9</ele>
        <time>2019-07-17T08:41:44Z</time>
      </trkpt>
      <trkpt lat="43.1664440" lon="-1.2077510">
        <ele>186.1</ele>
        <time>2019-07-17T08:41:47Z</time>
      </trkpt>
      <trkpt lat="43.1664270" lon="-1.2075990">
        <ele>186.2</ele>
        <time>2019-07-17T08:41:50Z</time>
      </trkpt>
      <trkpt lat="43.1664120" lon="-1.2074480">
        <ele>186.3</ele>
        <time>2019-07-17T08:41:53Z</time>
      </trkpt>
      <trkpt lat="43.1663930" lon="-1.2072920">
        <ele>186.4</ele>
        <time>2019-07-17T08:41:56Z</time>
      </trkpt>
      <trkpt lat="43.1663750" lon="-1.2071330">
        <ele>186.4</ele>
        <time>2019-07-17T08:41:59Z</time>
      </trkpt>
      <trkpt lat="43.1663590" lon="-1.2069800">
        <ele>186.5</ele>
        <time>2019-07-17T08:42:02Z</time>
      </trkpt>
      <trkpt lat="43.1663420" lon="-1.2068130">
        <ele>186.6</ele>
        <time>2019-07-17T08:42:05Z</time>
      </trkpt>
      <trkpt lat="43.1663240" lon="-1.2066640">
        <ele>186.6</ele>
        <time>2019-07-17T08:42:08Z</time>
      </trkpt>
      <trkpt lat="43.1663080" lon="-1.2065150">
        <ele>186.6</ele>
        <time>2019-07-17T08:42:11Z</time>
      </trkpt>
      <trkpt lat="43.1662880" lon="-1.2063630">
        <ele>186.6</ele>
        <time>2019-07-17T08:42:14Z</time>
      </trkpt>
      <trkpt lat="43.1662740" lon="-1.2062070">
        <ele>186.7</ele>
        <time>2019-07-17T08:42:17Z</time>
      </trkpt>
      <trkpt lat="43.1662560" lon="-1.2060560">
        <ele>186.7</ele>
        <time>2019-07-17T08:42:20Z</time>
      </trkpt>
      <trkpt lat="43.1662390" lon="-1.2059010">
        <ele>186.7</ele>
        <time>2019-07-17T08:42:23Z</time>
      </trkpt>
      <trkpt lat="43.1662230" lon="-1.2057460">
        <ele>186.8</ele>
        <time>2019-07-17T08:42:26Z</time>
      </trkpt>
      <trkpt lat="43.1662050" lon="-1.2055980">
        <ele>186.8</ele>
        <time>2019-07-17T08:42:29Z</time>
      </trkpt>
      <trkpt lat="43.1661900" lon="-1.2054530">
        <ele>186.8</ele>
        <time>2019-07-17T08:42:32Z</time>
      </trkpt>
      <trkpt lat="43.1661720" lon="-1.2053060">
        <ele>186.8</ele>
        <time>2019-07-17T08:42:35Z</time>
      </trkpt>
      <trkpt lat="43.1661580" lon="-1.2051560">
        <ele>186.8</ele>
        <time>2019-07-17T08:42:38Z</time>
      </trkpt>
      <trkpt lat="43.1661450" lon="-1.2050190">
        <ele>186.9</ele>
        <time>2019-07-17T08:42:41Z</time>
      </trkpt>
      <trkpt lat="43.1661330" lon="-1.2048770">
        <ele>186.9</ele>
        <time>2019-07-17T08:42:44Z</time>
      </trkpt>
      <trkpt lat="43.1661200" lon="-1.2047280">
        <ele>187.0</ele>
        <time>2019-07-17T08:42:47Z</time>
      </trkpt>
      <trkpt lat="43.1661060" lon="-1.2045750">
        <ele>187.1</ele>
        <time>2019-07-17T08:42:50Z</time>
      </trkpt>
      <trkpt lat="43.1660940" lon="-1.2044250">
        <ele>187.2</ele>
        <time>2019-07-17T08:42:53Z</time>
      </trkpt>
      <trkpt lat="43.1660750" lon="-1.2042770">
        <ele>187.3</ele>
        <time>2019-07-17T08:42:56Z</time>
      </trkpt>
      <trkpt lat="43.1660430" lon="-1.2041230">
        <ele>187.4</ele>
        <time>2019-07-17T08:42:59Z</time>
      </trkpt>
      <trkpt lat="43.1659820" lon="-1.2039910">
        <ele>187.4</ele>
        <time>2019-07-17T08:43:02Z</time>
      </trkpt>
      <trkpt lat="43.1659060" lon="-1.2038840">
        <ele>187.6</ele>
        <time>2019-07-17T08:43:05Z</time>
      </trkpt>
      <trkpt lat="43.1658760" lon="-1.2037430">
        <ele>188.0</ele>
        <time>2019-07-17T08:43:08Z</time>
      </trkpt>
      <trkpt lat="43.1659160" lon="-1.2036050">
        <ele>188.5</ele>
        <time>2019-07-17T08:43:11Z</time>
      </trkpt>
      <trkpt lat="43.1659640" lon="-1.2034680">
        <ele>189.0</ele>
        <time>2019-07-17T08:43:14Z</time>
      </trkpt>
      <trkpt lat="43.1659650" lon="-1.2033230">
        <ele>189.7</ele>
        <time>2019-07-17T08:43:17Z</time>
      </trkpt>
      <trkpt lat="43.1659560" lon="-1.2031840">
        <ele>190.1</ele>
        <time>2019-07-17T08:43:20Z</time>
      </trkpt>
      <trkpt lat="43.1659330" lon="-1.2030350">
        <ele>190.4</ele>
        <time>2019-07-17T08:43:23Z</time>
      </trkpt>
      <trkpt lat="43.1659100" lon="-1.2028930">
        <ele>190.7</ele>
        <time>2019-07-17T08:43:26Z</time>
      </trkpt>
      <trkpt lat="43.1658960" lon="-1.2027520">
        <ele>190.9</ele>
        <time>2019-07-17T08:43:29Z</time>
      </trkpt>
      <trkpt lat="43.1658850" lon="-1.2026130">
        <ele>191.1</ele>
        <time>2019-07-17T08:43:32Z</time>
      </trkpt>
      <trkpt lat="43.1658690" lon="-1.2024740">
        <ele>191.3</ele>
        <time>2019-07-17T08:43:35Z</time>
      </trkpt>
      <trkpt lat="43.1658570" lon="-1.2023330">
        <ele>191.4</ele>
        <time>2019-07-17T08:43:38Z</time>
      </trkpt>
      <trkpt lat="43.1658440" lon="-1.2022020">
        <ele>191.5</ele>
        <time>2019-07-17T08:43:41Z</time>
      </trkpt>
      <trkpt lat="43.1658270" lon="-1.2020690">
        <ele>191.6</ele>
        <time>2019-07-17T08:43:44Z</time>
      </trkpt>
      <trkpt lat="43.1658090" lon="-1.2019370">
        <ele>191.8</ele>
        <time>2019-07-17T08:43:47Z</time>
      </trkpt>
      <trkpt lat="43.1657920" lon="-1.2018140">
        <ele>192.0</ele>
        <time>2019-07-17T08:43:50Z</time>
      </trkpt>
      <trkpt lat="43.1657790" lon="-1.2016860">
        <ele>192.2</ele>
        <time>2019-07-17T08:43:53Z</time>
      </trkpt>
      <trkpt lat="43.1657660" lon="-1.2015520">
        <ele>192.4</ele>
        <time>2019-07-17T08:43:56Z</time>
      </trkpt>
      <trkpt lat="43.1657520" lon="-1.2014110">
        <ele>192.6</ele>
        <time>2019-07-17T08:43:59Z</time>
      </trkpt>
      <trkpt lat="43.1657360" lon="-1.2012700">
        <ele>192.8</ele>
        <time>2019-07-17T08:44:02Z</time>
      </trkpt>
      <trkpt lat="43.1657210" lon="-1.2011280">
        <ele>192.9</ele>
        <time>2019-07-17T08:44:05Z</time>
      </trkpt>
      <trkpt lat="43.1657060" lon="-1.2009850">
        <ele>193.1</ele>
        <time>2019-07-17T08:44:08Z</time>
      </trkpt>
      <trkpt lat="43.1656890" lon="-1.2008400">
        <ele>193.3</ele>
        <time>2019-07-17T08:44:11Z</time>
      </trkpt>
      <trkpt lat="43.1656750" lon="-1.2006990">
        <ele>193.5</ele>
        <time>2019-07-17T08:44:14Z</time>
      </trkpt>
      <trkpt lat="43.1656560" lon="-1.2005520">
        <ele>193.7</ele>
        <time>2019-07-17T08:44:18Z</time>
      </trkpt>
      <trkpt lat="43.1656340" lon="-1.2003950">
        <ele>194.0</ele>
        <time>2019-07-17T08:44:22Z</time>
      </trkpt>
      <trkpt lat="43.1656160" lon="-1.2002720">
        <ele>194.2</ele>
        <time>2019-07-17T08:44:25Z</time>
      </trkpt>
      <trkpt lat="43.1656010" lon="-1.2001500">
        <ele>194.3</ele>
        <time>2019-07-17T08:44:28Z</time>
      </trkpt>
      <trkpt lat="43.1655890" lon="-1.2000200">
        <ele>194.5</ele>
        <time>2019-07-17T08:44:31Z</time>
      </trkpt>
      <trkpt lat="43.1655810" lon="-1.1998970">
        <ele>194.6</ele>
        <time>2019-07-17T08:44:34Z</time>
      </trkpt>
      <trkpt lat="43.1655680" lon="-1.1997290">
        <ele>194.8</ele>
        <time>2019-07-17T08:44:38Z</time>
      </trkpt>
      <trkpt lat="43.1655470" lon="-1.1996040">
        <ele>195.1</ele>
        <time>2019-07-17T08:44:41Z</time>
      </trkpt>
      <trkpt lat="43.1655250" lon="-1.1994440">
        <ele>195.2</ele>
        <time>2019-07-17T08:44:45Z</time>
      </trkpt>
      <trkpt lat="43.1655110" lon="-1.1992810">
        <ele>195.4</ele>
        <time>2019-07-17T08:44:49Z</time>
      </trkpt>
      <trkpt lat="43.1654910" lon="-1.1991220">
        <ele>195.7</ele>
        <time>2019-07-17T08:44:53Z</time>
      </trkpt>
      <trkpt lat="43.1654710" lon="-1.1989710">
        <ele>195.9</ele>
        <time>2019-07-17T08:44:57Z</time>
      </trkpt>
      <trkpt lat="43.1654550" lon="-1.1988230">
        <ele>196.0</ele>
        <time>2019-07-17T08:45:01Z</time>
      </trkpt>
      <trkpt lat="43.1654440" lon="-1.1986710">
        <ele>196.2</ele>
        <time>2019-07-17T08:45:05Z</time>
      </trkpt>
      <trkpt lat="43.1654360" lon="-1.1985370">
        <ele>196.5</ele>
        <time>2019-07-17T08:45:09Z</time>
      </trkpt>
      <trkpt lat="43.1654160" lon="-1.1983890">
        <ele>196.7</ele>
        <time>2019-07-17T08:45:13Z</time>
      </trkpt>
      <trkpt lat="43.1654040" lon="-1.1982310">
        <ele>197.0</ele>
        <time>2019-07-17T08:45:17Z</time>
      </trkpt>
      <trkpt lat="43.1653880" lon="-1.1981090">
        <ele>197.2</ele>
        <time>2019-07-17T08:45:20Z</time>
      </trkpt>
      <trkpt lat="43.1653690" lon="-1.1979490">
        <ele>197.7</ele>
        <time>2019-07-17T08:45:24Z</time>
      </trkpt>
      <trkpt lat="43.1653510" lon="-1.1978070">
        <ele>198.2</ele>
        <time>2019-07-17T08:45:28Z</time>
      </trkpt>
      <trkpt lat="43.1653300" lon="-1.1976570">
        <ele>198.7</ele>
        <time>2019-07-17T08:45:32Z</time>
      </trkpt>
      <trkpt lat="43.1653110" lon="-1.1975140">
        <ele>199.0</ele>
        <time>2019-07-17T08:45:36Z</time>
      </trkpt>
      <trkpt lat="43.1652960" lon="-1.1973580">
        <ele>199.5</ele>
        <time>2019-07-17T08:45:40Z</time>
      </trkpt>
      <trkpt lat="43.1652830" lon="-1.1972020">
        <ele>200.1</ele>
        <time>2019-07-17T08:45:44Z</time>
      </trkpt>
      <trkpt lat="43.1652740" lon="-1.1970470">
        <ele>200.5</ele>
        <time>2019-07-17T08:45:48Z</time>
      </trkpt>
      <trkpt lat="43.1652570" lon="-1.1968940">
        <ele>201.2</ele>
        <time>2019-07-17T08:45:52Z</time>
      </trkpt>
      <trkpt lat="43.1652310" lon="-1.1966690">
        <ele>202.2</ele>
        <time>2019-07-17T08:45:58Z</time>
      </trkpt>
      <trkpt lat="43.1652170" lon="-1.1965150">
        <ele>202.9</ele>
        <time>2019-07-17T08:46:02Z</time>
      </trkpt>
      <trkpt lat="43.1651940" lon="-1.1963570">
        <ele>203.4</ele>
        <time>2019-07-17T08:46:06Z</time>
      </trkpt>
      <trkpt lat="43.1651690" lon="-1.1962000">
        <ele>204.0</ele>
        <time>2019-07-17T08:46:10Z</time>
      </trkpt>
      <trkpt lat="43.1651600" lon="-1.1960540">
        <ele>204.3</ele>
        <time>2019-07-17T08:46:14Z</time>
      </trkpt>
      <trkpt lat="43.1651530" lon="-1.1958890">
        <ele>204.5</ele>
        <time>2019-07-17T08:46:18Z</time>
      </trkpt>
      <trkpt lat="43.1651590" lon="-1.1957480">
        <ele>204.6</ele>
        <time>2019-07-17T08:46:21Z</time>
      </trkpt>
      <trkpt lat="43.1651650" lon="-1.1956160">
        <ele>204.6</ele>
        <time>2019-07-17T08:46:24Z</time>
      </trkpt>
      <trkpt lat="43.1651940" lon="-1.1954670">
        <ele>204.6</ele>
        <time>2019-07-17T08:46:28Z</time>
      </trkpt>
      <trkpt lat="43.1652240" lon="-1.1953090">
        <ele>204.6</ele>
        <time>2019-07-17T08:46:32Z</time>
      </trkpt>
      <trkpt lat="43.1652320" lon="-1.1951550">
        <ele>204.6</ele>
        <time>2019-07-17T08:46:36Z</time>
      </trkpt>
      <trkpt lat="43.1652440" lon="-1.1950090">
        <ele>204.5</ele>
        <time>2019-07-17T08:46:40Z</time>
      </trkpt>
      <trkpt lat="43.1652700" lon="-1.1948800">
        <ele>204.4</ele>
        <time>2019-07-17T08:46:43Z</time>
      </trkpt>
      <trkpt lat="43.1653090" lon="-1.1947530">
        <ele>204.3</ele>
        <time>2019-07-17T08:46:46Z</time>
      </trkpt>
      <trkpt lat="43.1653350" lon="-1.1946240">
        <ele>204.2</ele>
        <time>2019-07-17T08:46:49Z</time>
      </trkpt>
      <trkpt lat="43.1653460" lon="-1.1945010">
        <ele>204.2</ele>
        <time>2019-07-17T08:46:52Z</time>
      </trkpt>
      <trkpt lat="43.1653510" lon="-1.1943550">
        <ele>204.2</ele>
        <time>2019-07-17T08:46:56Z</time>
      </trkpt>
      <trkpt lat="43.1653580" lon="-1.1942140">
        <ele>204.2</ele>
        <time>2019-07-17T08:47:00Z</time>
      </trkpt>
      <trkpt lat="43.1653500" lon="-1.1941590">
        <ele>204.2</ele>
        <time>2019-07-17T08:47:07Z</time>
      </trkpt>
      <trkpt lat="43.1653300" lon="-1.1941540">
        <ele>204.2</ele>
        <time>2019-07-17T08:48:03Z</time>
      </trkpt>
      <trkpt lat="43.1653720" lon="-1.1940070">
        <ele>204.3</ele>
        <time>2019-07-17T08:48:27Z</time>
      </trkpt>
      <trkpt lat="43.1654120" lon="-1.1938710">
        <ele>204.4</ele>
        <time>2019-07-17T08:48:31Z</time>
      </trkpt>
      <trkpt lat="43.1654310" lon="-1.1937450">
        <ele>204.6</ele>
        <time>2019-07-17T08:48:34Z</time>
      </trkpt>
      <trkpt lat="43.1654530" lon="-1.1936120">
        <ele>204.7</ele>
        <time>2019-07-17T08:48:37Z</time>
      </trkpt>
      <trkpt lat="43.1654700" lon="-1.1934780">
        <ele>204.9</ele>
        <time>2019-07-17T08:48:40Z</time>
      </trkpt>
      <trkpt lat="43.1654900" lon="-1.1933430">
        <ele>205.0</ele>
        <time>2019-07-17T08:48:43Z</time>
      </trkpt>
      <trkpt lat="43.1655080" lon="-1.1931990">
        <ele>205.1</ele>
        <time>2019-07-17T08:48:46Z</time>
      </trkpt>
      <trkpt lat="43.1655260" lon="-1.1930610">
        <ele>205.1</ele>
        <time>2019-07-17T08:48:49Z</time>
      </trkpt>
      <trkpt lat="43.1655480" lon="-1.1929180">
        <ele>205.1</ele>
        <time>2019-07-17T08:48:52Z</time>
      </trkpt>
      <trkpt lat="43.1655680" lon="-1.1927600">
        <ele>205.0</ele>
        <time>2019-07-17T08:48:55Z</time>
      </trkpt>
      <trkpt lat="43.1655910" lon="-1.1926010">
        <ele>204.8</ele>
        <time>2019-07-17T08:48:58Z</time>
      </trkpt>
      <trkpt lat="43.1656140" lon="-1.1924480">
        <ele>204.8</ele>
        <time>2019-07-17T08:49:01Z</time>
      </trkpt>
      <trkpt lat="43.1656410" lon="-1.1922970">
        <ele>204.7</ele>
        <time>2019-07-17T08:49:04Z</time>
      </trkpt>
      <trkpt lat="43.1656630" lon="-1.1921400">
        <ele>204.7</ele>
        <time>2019-07-17T08:49:07Z</time>
      </trkpt>
      <trkpt lat="43.1656800" lon="-1.1919750">
        <ele>204.7</ele>
        <time>2019-07-17T08:49:10Z</time>
      </trkpt>
      <trkpt lat="43.1657000" lon="-1.1918070">
        <ele>204.8</ele>
        <time>2019-07-17T08:49:13Z</time>
      </trkpt>
      <trkpt lat="43.1657180" lon="-1.1916370">
        <ele>204.8</ele>
        <time>2019-07-17T08:49:16Z</time>
      </trkpt>
      <trkpt lat="43.1657390" lon="-1.1914710">
        <ele>204.8</ele>
        <time>2019-07-17T08:49:19Z</time>
      </trkpt>
      <trkpt lat="43.1657600" lon="-1.1913120">
        <ele>204.7</ele>
        <time>2019-07-17T08:49:22Z</time>
      </trkpt>
      <trkpt lat="43.1657820" lon="-1.1911640">
        <ele>204.5</ele>
        <time>2019-07-17T08:49:25Z</time>
      </trkpt>
      <trkpt lat="43.1657980" lon="-1.1910230">
        <ele>204.4</ele>
        <time>2019-07-17T08:49:28Z</time>
      </trkpt>
      <trkpt lat="43.1658140" lon="-1.1908840">
        <ele>204.3</ele>
        <time>2019-07-17T08:49:31Z</time>
      </trkpt>
      <trkpt lat="43.1658320" lon="-1.1907490">
        <ele>204.3</ele>
        <time>2019-07-17T08:49:34Z</time>
      </trkpt>
      <trkpt lat="43.1658490" lon="-1.1906160">
        <ele>204.3</ele>
        <time>2019-07-17T08:49:37Z</time>
      </trkpt>
      <trkpt lat="43.1658660" lon="-1.1904830">
        <ele>204.5</ele>
        <time>2019-07-17T08:49:40Z</time>
      </trkpt>
      <trkpt lat="43.1658880" lon="-1.1903480">
        <ele>204.8</ele>
        <time>2019-07-17T08:49:43Z</time>
      </trkpt>
      <trkpt lat="43.1658970" lon="-1.1902090">
        <ele>205.1</ele>
        <time>2019-07-17T08:49:46Z</time>
      </trkpt>
      <trkpt lat="43.1659120" lon="-1.1900770">
        <ele>205.4</ele>
        <time>2019-07-17T08:49:49Z</time>
      </trkpt>
      <trkpt lat="43.1659280" lon="-1.1899510">
        <ele>205.7</ele>
        <time>2019-07-17T08:49:52Z</time>
      </trkpt>
      <trkpt lat="43.1659470" lon="-1.1898310">
        <ele>206.0</ele>
        <time>2019-07-17T08:49:55Z</time>
      </trkpt>
      <trkpt lat="43.1659640" lon="-1.1897030">
        <ele>206.3</ele>
        <time>2019-07-17T08:49:58Z</time>
      </trkpt>
      <trkpt lat="43.1659860" lon="-1.1895460">
        <ele>207.0</ele>
        <time>2019-07-17T08:50:02Z</time>
      </trkpt>
      <trkpt lat="43.1660070" lon="-1.1893930">
        <ele>207.6</ele>
        <time>2019-07-17T08:50:06Z</time>
      </trkpt>
      <trkpt lat="43.1660270" lon="-1.1892440">
        <ele>208.1</ele>
        <time>2019-07-17T08:50:10Z</time>
      </trkpt>
      <trkpt lat="43.1660400" lon="-1.1891150">
        <ele>208.5</ele>
        <time>2019-07-17T08:50:14Z</time>
      </trkpt>
      <trkpt lat="43.1660560" lon="-1.1889650">
        <ele>209.0</ele>
        <time>2019-07-17T08:50:19Z</time>
      </trkpt>
      <trkpt lat="43.1660710" lon="-1.1888430">
        <ele>209.5</ele>
        <time>2019-07-17T08:50:23Z</time>
      </trkpt>
      <trkpt lat="43.1660900" lon="-1.1887180">
        <ele>210.0</ele>
        <time>2019-07-17T08:50:27Z</time>
      </trkpt>
      <trkpt lat="43.1661050" lon="-1.1885950">
        <ele>210.4</ele>
        <time>2019-07-17T08:50:31Z</time>
      </trkpt>
      <trkpt lat="43.1661210" lon="-1.1884700">
        <ele>210.7</ele>
        <time>2019-07-17T08:50:35Z</time>
      </trkpt>
      <trkpt lat="43.1661310" lon="-1.1883430">
        <ele>211.1</ele>
        <time>2019-07-17T08:50:39Z</time>
      </trkpt>
      <trkpt lat="43.1661530" lon="-1.1881910">
        <ele>211.2</ele>
        <time>2019-07-17T08:50:44Z</time>
      </trkpt>
      <trkpt lat="43.1661810" lon="-1.1880710">
        <ele>210.3</ele>
        <time>2019-07-17T08:50:48Z</time>
      </trkpt>
      <trkpt lat="43.1662190" lon="-1.1879580">
        <ele>209.4</ele>
        <time>2019-07-17T08:50:52Z</time>
      </trkpt>
      <trkpt lat="43.1662700" lon="-1.1878470">
        <ele>208.5</ele>
        <time>2019-07-17T08:50:56Z</time>
      </trkpt>
      <trkpt lat="43.1663450" lon="-1.1877480">
        <ele>207.3</ele>
        <time>2019-07-17T08:51:00Z</time>
      </trkpt>
      <trkpt lat="43.1664560" lon="-1.1876870">
        <ele>206.2</ele>
        <time>2019-07-17T08:51:03Z</time>
      </trkpt>
      <trkpt lat="43.1665910" lon="-1.1876580">
        <ele>205.1</ele>
        <time>2019-07-17T08:51:06Z</time>
      </trkpt>
      <trkpt lat="43.1666910" lon="-1.1876590">
        <ele>204.5</ele>
        <time>2019-07-17T08:51:08Z</time>
      </trkpt>
      <trkpt lat="43.1667930" lon="-1.1876880">
        <ele>203.9</ele>
        <time>2019-07-17T08:51:10Z</time>
      </trkpt>
      <trkpt lat="43.1668950" lon="-1.1877370">
        <ele>203.0</ele>
        <time>2019-07-17T08:51:12Z</time>
      </trkpt>
      <trkpt lat="43.1670020" lon="-1.1877980">
        <ele>202.2</ele>
        <time>2019-07-17T08:51:14Z</time>
      </trkpt>
      <trkpt lat="43.1671180" lon="-1.1878600">
        <ele>201.6</ele>
        <time>2019-07-17T08:51:16Z</time>
      </trkpt>
      <trkpt lat="43.1672460" lon="-1.1879280">
        <ele>201.2</ele>
        <time>2019-07-17T08:51:18Z</time>
      </trkpt>
      <trkpt lat="43.1673830" lon="-1.1879940">
        <ele>200.9</ele>
        <time>2019-07-17T08:51:20Z</time>
      </trkpt>
      <trkpt lat="43.1675270" lon="-1.1880560">
        <ele>200.5</ele>
        <time>2019-07-17T08:51:22Z</time>
      </trkpt>
      <trkpt lat="43.1676760" lon="-1.1881160">
        <ele>200.0</ele>
        <time>2019-07-17T08:51:24Z</time>
      </trkpt>
      <trkpt lat="43.1678290" lon="-1.1881720">
        <ele>199.5</ele>
        <time>2019-07-17T08:51:26Z</time>
      </trkpt>
      <trkpt lat="43.1679820" lon="-1.1882260">
        <ele>198.9</ele>
        <time>2019-07-17T08:51:28Z</time>
      </trkpt>
      <trkpt lat="43.1681250" lon="-1.1882820">
        <ele>198.5</ele>
        <time>2019-07-17T08:51:30Z</time>
      </trkpt>
      <trkpt lat="43.1682570" lon="-1.1883290">
        <ele>198.2</ele>
        <time>2019-07-17T08:51:32Z</time>
      </trkpt>
      <trkpt lat="43.1683890" lon="-1.1883710">
        <ele>197.8</ele>
        <time>2019-07-17T08:51:34Z</time>
      </trkpt>
      <trkpt lat="43.1685200" lon="-1.1884200">
        <ele>197.4</ele>
        <time>2019-07-17T08:51:36Z</time>
      </trkpt>
      <trkpt lat="43.1686520" lon="-1.1884670">
        <ele>197.0</ele>
        <time>2019-07-17T08:51:38Z</time>
      </trkpt>
      <trkpt lat="43.1687790" lon="-1.1885040">
        <ele>196.5</ele>
        <time>2019-07-17T08:51:40Z</time>
      </trkpt>
      <trkpt lat="43.1688960" lon="-1.1885260">
        <ele>196.2</ele>
        <time>2019-07-17T08:51:42Z</time>
      </trkpt>
      <trkpt lat="43.1689950" lon="-1.1885350">
        <ele>196.3</ele>
        <time>2019-07-17T08:51:44Z</time>
      </trkpt>
      <trkpt lat="43.1690850" lon="-1.1885170">
        <ele>196.6</ele>
        <time>2019-07-17T08:51:47Z</time>
      </trkpt>
      <trkpt lat="43.1691560" lon="-1.1884370">
        <ele>196.4</ele>
        <time>2019-07-17T08:51:50Z</time>
      </trkpt>
      <trkpt lat="43.1692220" lon="-1.1882730">
        <ele>195.7</ele>
        <time>2019-07-17T08:51:53Z</time>
      </trkpt>
      <trkpt lat="43.1692780" lon="-1.1881410">
        <ele>195.2</ele>
        <time>2019-07-17T08:51:55Z</time>
      </trkpt>
      <trkpt lat="43.1693430" lon="-1.1879990">
        <ele>194.5</ele>
        <time>2019-07-17T08:51:57Z</time>
      </trkpt>
      <trkpt lat="43.1694210" lon="-1.1878520">
        <ele>193.8</ele>
        <time>2019-07-17T08:51:59Z</time>
      </trkpt>
      <trkpt lat="43.1695110" lon="-1.1877130">
        <ele>193.1</ele>
        <time>2019-07-17T08:52:01Z</time>
      </trkpt>
      <trkpt lat="43.1696080" lon="-1.1875770">
        <ele>192.4</ele>
        <time>2019-07-17T08:52:03Z</time>
      </trkpt>
      <trkpt lat="43.1697070" lon="-1.1874530">
        <ele>191.8</ele>
        <time>2019-07-17T08:52:05Z</time>
      </trkpt>
      <trkpt lat="43.1698100" lon="-1.1873320">
        <ele>191.9</ele>
        <time>2019-07-17T08:52:07Z</time>
      </trkpt>
      <trkpt lat="43.1699070" lon="-1.1872210">
        <ele>192.0</ele>
        <time>2019-07-17T08:52:09Z</time>
      </trkpt>
      <trkpt lat="43.1700050" lon="-1.1871200">
        <ele>192.1</ele>
        <time>2019-07-17T08:52:11Z</time>
      </trkpt>
      <trkpt lat="43.1701010" lon="-1.1870330">
        <ele>192.1</ele>
        <time>2019-07-17T08:52:13Z</time>
      </trkpt>
      <trkpt lat="43.1701950" lon="-1.1869580">
        <ele>192.1</ele>
        <time>2019-07-17T08:52:15Z</time>
      </trkpt>
      <trkpt lat="43.1702850" lon="-1.1868870">
        <ele>192.2</ele>
        <time>2019-07-17T08:52:17Z</time>
      </trkpt>
      <trkpt lat="43.1703740" lon="-1.1868170">
        <ele>192.2</ele>
        <time>2019-07-17T08:52:19Z</time>
      </trkpt>
      <trkpt lat="43.1704600" lon="-1.1867500">
        <ele>192.3</ele>
        <time>2019-07-17T08:52:21Z</time>
      </trkpt>
      <trkpt lat="43.1705440" lon="-1.1866880">
        <ele>192.3</ele>
        <time>2019-07-17T08:52:23Z</time>
      </trkpt>
      <trkpt lat="43.1706270" lon="-1.1866250">
        <ele>192.3</ele>
        <time>2019-07-17T08:52:25Z</time>
      </trkpt>
      <trkpt lat="43.1707070" lon="-1.1865580">
        <ele>192.4</ele>
        <time>2019-07-17T08:52:27Z</time>
      </trkpt>
      <trkpt lat="43.1707900" lon="-1.1864970">
        <ele>192.4</ele>
        <time>2019-07-17T08:52:29Z</time>
      </trkpt>
      <trkpt lat="43.1708710" lon="-1.1864330">
        <ele>192.4</ele>
        <time>2019-07-17T08:52:31Z</time>
      </trkpt>
      <trkpt lat="43.1709510" lon="-1.1863650">
        <ele>192.5</ele>
        <time>2019-07-17T08:52:33Z</time>
      </trkpt>
      <trkpt lat="43.1710310" lon="-1.1863050">
        <ele>192.5</ele>
        <time>2019-07-17T08:52:35Z</time>
      </trkpt>
      <trkpt lat="43.1711100" lon="-1.1862400">
        <ele>192.5</ele>
        <time>2019-07-17T08:52:37Z</time>
      </trkpt>
      <trkpt lat="43.1711880" lon="-1.1861750">
        <ele>192.5</ele>
        <time>2019-07-17T08:52:39Z</time>
      </trkpt>
      <trkpt lat="43.1712680" lon="-1.1861110">
        <ele>192.6</ele>
        <time>2019-07-17T08:52:41Z</time>
      </trkpt>
      <trkpt lat="43.1713500" lon="-1.1860440">
        <ele>192.6</ele>
        <time>2019-07-17T08:52:43Z</time>
      </trkpt>
      <trkpt lat="43.1714340" lon="-1.1859800">
        <ele>192.7</ele>
        <time>2019-07-17T08:52:45Z</time>
      </trkpt>
      <trkpt lat="43.1715160" lon="-1.1859140">
        <ele>192.7</ele>
        <time>2019-07-17T08:52:47Z</time>
      </trkpt>
      <trkpt lat="43.1715970" lon="-1.1858550">
        <ele>192.8</ele>
        <time>2019-07-17T08:52:49Z</time>
      </trkpt>
      <trkpt lat="43.1717110" lon="-1.1857630">
        <ele>192.8</ele>
        <time>2019-07-17T08:52:52Z</time>
      </trkpt>
      <trkpt lat="43.1718280" lon="-1.1856670">
        <ele>192.9</ele>
        <time>2019-07-17T08:52:55Z</time>
      </trkpt>
      <trkpt lat="43.1719070" lon="-1.1855990">
        <ele>192.9</ele>
        <time>2019-07-17T08:52:57Z</time>
      </trkpt>
      <trkpt lat="43.1719870" lon="-1.1855270">
        <ele>193.0</ele>
        <time>2019-07-17T08:52:59Z</time>
      </trkpt>
      <trkpt lat="43.1720710" lon="-1.1854620">
        <ele>193.0</ele>
        <time>2019-07-17T08:53:01Z</time>
      </trkpt>
      <trkpt lat="43.1721530" lon="-1.1853930">
        <ele>193.1</ele>
        <time>2019-07-17T08:53:03Z</time>
      </trkpt>
      <trkpt lat="43.1722380" lon="-1.1853260">
        <ele>193.1</ele>
        <time>2019-07-17T08:53:05Z</time>
      </trkpt>
      <trkpt lat="43.1723250" lon="-1.1852570">
        <ele>193.2</ele>
        <time>2019-07-17T08:53:07Z</time>
      </trkpt>
      <trkpt lat="43.1724090" lon="-1.1851830">
        <ele>193.3</ele>
        <time>2019-07-17T08:53:09Z</time>
      </trkpt>
      <trkpt lat="43.1724980" lon="-1.1851110">
        <ele>193.3</ele>
        <time>2019-07-17T08:53:11Z</time>
      </trkpt>
      <trkpt lat="43.1725850" lon="-1.1850380">
        <ele>193.4</ele>
        <time>2019-07-17T08:53:13Z</time>
      </trkpt>
      <trkpt lat="43.1726740" lon="-1.1849630">
        <ele>193.5</ele>
        <time>2019-07-17T08:53:15Z</time>
      </trkpt>
      <trkpt lat="43.1727650" lon="-1.1848890">
        <ele>193.6</ele>
        <time>2019-07-17T08:53:17Z</time>
      </trkpt>
      <trkpt lat="43.1728580" lon="-1.1848160">
        <ele>193.6</ele>
        <time>2019-07-17T08:53:19Z</time>
      </trkpt>
      <trkpt lat="43.1729500" lon="-1.1847410">
        <ele>193.7</ele>
        <time>2019-07-17T08:53:21Z</time>
      </trkpt>
      <trkpt lat="43.1730380" lon="-1.1846620">
        <ele>193.8</ele>
        <time>2019-07-17T08:53:23Z</time>
      </trkpt>
      <trkpt lat="43.1731220" lon="-1.1845760">
        <ele>193.9</ele>
        <time>2019-07-17T08:53:25Z</time>
      </trkpt>
      <trkpt lat="43.1732140" lon="-1.1845050">
        <ele>194.0</ele>
        <time>2019-07-17T08:53:27Z</time>
      </trkpt>
      <trkpt lat="43.1733000" lon="-1.1844340">
        <ele>194.1</ele>
        <time>2019-07-17T08:53:29Z</time>
      </trkpt>
      <trkpt lat="43.1733810" lon="-1.1843630">
        <ele>194.1</ele>
        <time>2019-07-17T08:53:31Z</time>
      </trkpt>
      <trkpt lat="43.1734600" lon="-1.1842990">
        <ele>194.2</ele>
        <time>2019-07-17T08:53:33Z</time>
      </trkpt>
      <trkpt lat="43.1735400" lon="-1.1842330">
        <ele>194.3</ele>
        <time>2019-07-17T08:53:35Z</time>
      </trkpt>
      <trkpt lat="43.1736520" lon="-1.1841390">
        <ele>194.4</ele>
        <time>2019-07-17T08:53:38Z</time>
      </trkpt>
      <trkpt lat="43.1737580" lon="-1.1840560">
        <ele>194.5</ele>
        <time>2019-07-17T08:53:41Z</time>
      </trkpt>
      <trkpt lat="43.1738560" lon="-1.1839760">
        <ele>194.6</ele>
        <time>2019-07-17T08:53:44Z</time>
      </trkpt>
      <trkpt lat="43.1739490" lon="-1.1839020">
        <ele>194.7</ele>
        <time>2019-07-17T08:53:47Z</time>
      </trkpt>
      <trkpt lat="43.1740280" lon="-1.1838320">
        <ele>194.8</ele>
        <time>2019-07-17T08:53:50Z</time>
      </trkpt>
      <trkpt lat="43.1741130" lon="-1.1837460">
        <ele>194.9</ele>
        <time>2019-07-17T08:53:54Z</time>
      </trkpt>
      <trkpt lat="43.1741360" lon="-1.1837240">
        <ele>194.9</ele>
        <time>2019-07-17T08:54:01Z</time>
      </trkpt>
      <trkpt lat="43.1742090" lon="-1.1838070">
        <ele>195.0</ele>
        <time>2019-07-17T08:54:27Z</time>
      </trkpt>
      <trkpt lat="43.1742710" lon="-1.1839170">
        <ele>195.0</ele>
        <time>2019-07-17T08:54:30Z</time>
      </trkpt>
      <trkpt lat="43.1743550" lon="-1.1840290">
        <ele>195.1</ele>
        <time>2019-07-17T08:54:33Z</time>
      </trkpt>
      <trkpt lat="43.1744360" lon="-1.1841490">
        <ele>195.1</ele>
        <time>2019-07-17T08:54:36Z</time>
      </trkpt>
      <trkpt lat="43.1745230" lon="-1.1842690">
        <ele>195.2</ele>
        <time>2019-07-17T08:54:39Z</time>
      </trkpt>
      <trkpt lat="43.1746120" lon="-1.1843800">
        <ele>195.3</ele>
        <time>2019-07-17T08:54:42Z</time>
      </trkpt>
      <trkpt lat="43.1746960" lon="-1.1844990">
        <ele>195.3</ele>
        <time>2019-07-17T08:54:45Z</time>
      </trkpt>
      <trkpt lat="43.1747810" lon="-1.1846200">
        <ele>195.4</ele>
        <time>2019-07-17T08:54:48Z</time>
      </trkpt>
      <trkpt lat="43.1748680" lon="-1.1847370">
        <ele>195.4</ele>
        <time>2019-07-17T08:54:51Z</time>
      </trkpt>
      <trkpt lat="43.1749520" lon="-1.1848570">
        <ele>195.5</ele>
        <time>2019-07-17T08:54:54Z</time>
      </trkpt>
      <trkpt lat="43.1750400" lon="-1.1849690">
        <ele>195.6</ele>
        <time>2019-07-17T08:54:57Z</time>
      </trkpt>
      <trkpt lat="43.1751250" lon="-1.1850870">
        <ele>195.6</ele>
        <time>2019-07-17T08:55:00Z</time>
      </trkpt>
      <trkpt lat="43.1752150" lon="-1.1851980">
        <ele>195.7</ele>
        <time>2019-07-17T08:55:03Z</time>
      </trkpt>
      <trkpt lat="43.1752970" lon="-1.1853110">
        <ele>195.7</ele>
        <time>2019-07-17T08:55:06Z</time>
      </trkpt>
      <trkpt lat="43.1753820" lon="-1.1854280">
        <ele>195.8</ele>
        <time>2019-07-17T08:55:09Z</time>
      </trkpt>
      <trkpt lat="43.1754690" lon="-1.1855500">
        <ele>195.8</ele>
        <time>2019-07-17T08:55:12Z</time>
      </trkpt>
      <trkpt lat="43.1755580" lon="-1.1856710">
        <ele>195.9</ele>
        <time>2019-07-17T08:55:15Z</time>
      </trkpt>
      <trkpt lat="43.1756490" lon="-1.1857900">
        <ele>196.0</ele>
        <time>2019-07-17T08:55:18Z</time>
      </trkpt>
      <trkpt lat="43.1757430" lon="-1.1859030">
        <ele>196.0</ele>
        <time>2019-07-17T08:55:21Z</time>
      </trkpt>
      <trkpt lat="43.1758410" lon="-1.1860080">
        <ele>196.1</ele>
        <time>2019-07-17T08:55:24Z</time>
      </trkpt>
      <trkpt lat="43.1759410" lon="-1.1861110">
        <ele>196.1</ele>
        <time>2019-07-17T08:55:27Z</time>
      </trkpt>
      <trkpt lat="43.1760430" lon="-1.1861760">
        <ele>196.2</ele>
        <time>2019-07-17T08:55:30Z</time>
      </trkpt>
      <trkpt lat="43.1761520" lon="-1.1862210">
        <ele>196.2</ele>
        <time>2019-07-17T08:55:33Z</time>
      </trkpt>
      <trkpt lat="43.1762610" lon="-1.1862530">
        <ele>196.3</ele>
        <time>2019-07-17T08:55:36Z</time>
      </trkpt>
      <trkpt lat="43.1763660" lon="-1.1862850">
        <ele>196.3</ele>
        <time>2019-07-17T08:55:39Z</time>
      </trkpt>
      <trkpt lat="43.1764610" lon="-1.1863040">
        <ele>196.4</ele>
        <time>2019-07-17T08:55:42Z</time>
      </trkpt>
      <trkpt lat="43.1765710" lon="-1.1863280">
        <ele>196.4</ele>
        <time>2019-07-17T08:55:45Z</time>
      </trkpt>
      <trkpt lat="43.1766610" lon="-1.1863240">
        <ele>196.5</ele>
        <time>2019-07-17T08:55:48Z</time>
      </trkpt>
      <trkpt lat="43.1767800" lon="-1.1862680">
        <ele>196.5</ele>
        <time>2019-07-17T08:55:52Z</time>
      </trkpt>
      <trkpt lat="43.1768660" lon="-1.1862110">
        <ele>196.7</ele>
        <time>2019-07-17T08:55:55Z</time>
      </trkpt>
      <trkpt lat="43.1769440" lon="-1.1861370">
        <ele>197.3</ele>
        <time>2019-07-17T08:55:58Z</time>
      </trkpt>
      <trkpt lat="43.1770510" lon="-1.1860950">
        <ele>198.0</ele>
        <time>2019-07-17T08:56:02Z</time>
      </trkpt>
      <trkpt lat="43.1771500" lon="-1.1860990">
        <ele>198.7</ele>
        <time>2019-07-17T08:56:06Z</time>
      </trkpt>
      <trkpt lat="43.1772360" lon="-1.1861500">
        <ele>199.2</ele>
        <time>2019-07-17T08:56:10Z</time>
      </trkpt>
      <trkpt lat="43.1773350" lon="-1.1862300">
        <ele>200.0</ele>
        <time>2019-07-17T08:56:15Z</time>
      </trkpt>
      <trkpt lat="43.1774210" lon="-1.1863060">
        <ele>200.6</ele>
        <time>2019-07-17T08:56:19Z</time>
      </trkpt>
      <trkpt lat="43.1775060" lon="-1.1863860">
        <ele>201.4</ele>
        <time>2019-07-17T08:56:23Z</time>
      </trkpt>
      <trkpt lat="43.1775930" lon="-1.1864710">
        <ele>201.9</ele>
        <time>2019-07-17T08:56:27Z</time>
      </trkpt>
      <trkpt lat="43.1776830" lon="-1.1865550">
        <ele>202.4</ele>
        <time>2019-07-17T08:56:31Z</time>
      </trkpt>
      <trkpt lat="43.1777640" lon="-1.1866410">
        <ele>202.9</ele>
        <time>2019-07-17T08:56:35Z</time>
      </trkpt>
      <trkpt lat="43.1778380" lon="-1.1867200">
        <ele>203.3</ele>
        <time>2019-07-17T08:56:39Z</time>
      </trkpt>
      <trkpt lat="43.1779330" lon="-1.1868000">
        <ele>203.8</ele>
        <time>2019-07-17T08:56:44Z</time>
      </trkpt>
      <trkpt lat="43.1780210" lon="-1.1868780">
        <ele>204.3</ele>
        <time>2019-07-17T08:56:49Z</time>
      </trkpt>
      <trkpt lat="43.1781190" lon="-1.1869330">
        <ele>205.0</ele>
        <time>2019-07-17T08:56:54Z</time>
      </trkpt>
      <trkpt lat="43.1782150" lon="-1.1869410">
        <ele>205.4</ele>
        <time>2019-07-17T08:56:58Z</time>
      </trkpt>
      <trkpt lat="43.1783230" lon="-1.1869170">
        <ele>205.7</ele>
        <time>2019-07-17T08:57:03Z</time>
      </trkpt>
      <trkpt lat="43.1784140" lon="-1.1868980">
        <ele>205.9</ele>
        <time>2019-07-17T08:57:07Z</time>
      </trkpt>
      <trkpt lat="43.1785170" lon="-1.1868410">
        <ele>206.1</ele>
        <time>2019-07-17T08:57:12Z</time>
      </trkpt>
      <trkpt lat="43.1786050" lon="-1.1868000">
        <ele>206.4</ele>
        <time>2019-07-17T08:57:17Z</time>
      </trkpt>
      <trkpt lat="43.1786960" lon="-1.1867720">
        <ele>206.6</ele>
        <time>2019-07-17T08:57:22Z</time>
      </trkpt>
      <trkpt lat="43.1787940" lon="-1.1867260">
        <ele>206.8</ele>
        <time>2019-07-17T08:57:27Z</time>
      </trkpt>
      <trkpt lat="43.1789000" lon="-1.1866830">
        <ele>206.9</ele>
        <time>2019-07-17T08:57:31Z</time>
      </trkpt>
      <trkpt lat="43.1790040" lon="-1.1866550">
        <ele>206.3</ele>
        <time>2019-07-17T08:57:38Z</time>
      </trkpt>
      <trkpt lat="43.1790970" lon="-1.1866270">
        <ele>205.7</ele>
        <time>2019-07-17T08:57:45Z</time>
      </trkpt>
      <trkpt lat="43.1791940" lon="-1.1865990">
        <ele>205.0</ele>
        <time>2019-07-17T08:57:50Z</time>
      </trkpt>
      <trkpt lat="43.1793160" lon="-1.1865720">
        <ele>203.9</ele>
        <time>2019-07-17T08:57:54Z</time>
      </trkpt>
      <trkpt lat="43.1794260" lon="-1.1865490">
        <ele>203.0</ele>
        <time>2019-07-17T08:57:57Z</time>
      </trkpt>
      <trkpt lat="43.1795590" lon="-1.1865030">
        <ele>202.1</ele>
        <time>2019-07-17T08:58:00Z</time>
      </trkpt>
      <trkpt lat="43.1796620" lon="-1.1864520">
        <ele>201.4</ele>
        <time>2019-07-17T08:58:02Z</time>
      </trkpt>
      <trkpt lat="43.1797650" lon="-1.1863760">
        <ele>200.8</ele>
        <time>2019-07-17T08:58:04Z</time>
      </trkpt>
      <trkpt lat="43.1798670" lon="-1.1862860">
        <ele>200.4</ele>
        <time>2019-07-17T08:58:06Z</time>
      </trkpt>
      <trkpt lat="43.1799760" lon="-1.1861980">
        <ele>200.0</ele>
        <time>2019-07-17T08:58:08Z</time>
      </trkpt>
      <trkpt lat="43.1800850" lon="-1.1861080">
        <ele>199.6</ele>
        <time>2019-07-17T08:58:10Z</time>
      </trkpt>
      <trkpt lat="43.1801960" lon="-1.1860190">
        <ele>199.1</ele>
        <time>2019-07-17T08:58:12Z</time>
      </trkpt>
      <trkpt lat="43.1803060" lon="-1.1859200">
        <ele>198.7</ele>
        <time>2019-07-17T08:58:14Z</time>
      </trkpt>
      <trkpt lat="43.1804220" lon="-1.1858170">
        <ele>198.4</ele>
        <time>2019-07-17T08:58:16Z</time>
      </trkpt>
      <trkpt lat="43.1805380" lon="-1.1857170">
        <ele>198.1</ele>
        <time>2019-07-17T08:58:18Z</time>
      </trkpt>
      <trkpt lat="43.1806590" lon="-1.1856320">
        <ele>197.8</ele>
        <time>2019-07-17T08:58:20Z</time>
      </trkpt>
      <trkpt lat="43.1807820" lon="-1.1855530">
        <ele>197.3</ele>
        <time>2019-07-17T08:58:22Z</time>
      </trkpt>
      <trkpt lat="43.1809040" lon="-1.1854820">
        <ele>196.9</ele>
        <time>2019-07-17T08:58:24Z</time>
      </trkpt>
      <trkpt lat="43.1810220" lon="-1.1854200">
        <ele>196.5</ele>
        <time>2019-07-17T08:58:26Z</time>
      </trkpt>
      <trkpt lat="43.1811430" lon="-1.1853630">
        <ele>196.1</ele>
        <time>2019-07-17T08:58:28Z</time>
      </trkpt>
      <trkpt lat="43.1812570" lon="-1.1853110">
        <ele>195.9</ele>
        <time>2019-07-17T08:58:30Z</time>
      </trkpt>
      <trkpt lat="43.1813700" lon="-1.1852620">
        <ele>195.8</ele>
        <time>2019-07-17T08:58:32Z</time>
      </trkpt>
      <trkpt lat="43.1814820" lon="-1.1852110">
        <ele>196.1</ele>
        <time>2019-07-17T08:58:34Z</time>
      </trkpt>
      <trkpt lat="43.1815870" lon="-1.1851530">
        <ele>196.7</ele>
        <time>2019-07-17T08:58:36Z</time>
      </trkpt>
      <trkpt lat="43.1816870" lon="-1.1850890">
        <ele>197.4</ele>
        <time>2019-07-17T08:58:38Z</time>
      </trkpt>
      <trkpt lat="43.1817740" lon="-1.1850150">
        <ele>198.0</ele>
        <time>2019-07-17T08:58:40Z</time>
      </trkpt>
      <trkpt lat="43.1818530" lon="-1.1849380">
        <ele>198.4</ele>
        <time>2019-07-17T08:58:42Z</time>
      </trkpt>
      <trkpt lat="43.1819590" lon="-1.1848370">
        <ele>198.8</ele>
        <time>2019-07-17T08:58:45Z</time>
      </trkpt>
      <trkpt lat="43.1820390" lon="-1.1847770">
        <ele>199.1</ele>
        <time>2019-07-17T08:58:47Z</time>
      </trkpt>
      <trkpt lat="43.1821540" lon="-1.1846870">
        <ele>199.6</ele>
        <time>2019-07-17T08:58:50Z</time>
      </trkpt>
      <trkpt lat="43.1822700" lon="-1.1845970">
        <ele>200.1</ele>
        <time>2019-07-17T08:58:53Z</time>
      </trkpt>
      <trkpt lat="43.1823820" lon="-1.1845100">
        <ele>200.8</ele>
        <time>2019-07-17T08:58:56Z</time>
      </trkpt>
      <trkpt lat="43.1824770" lon="-1.1844310">
        <ele>201.6</ele>
        <time>2019-07-17T08:58:59Z</time>
      </trkpt>
      <trkpt lat="43.1825620" lon="-1.1843530">
        <ele>202.5</ele>
        <time>2019-07-17T08:59:02Z</time>
      </trkpt>
      <trkpt lat="43.1826560" lon="-1.1842810">
        <ele>203.6</ele>
        <time>2019-07-17T08:59:06Z</time>
      </trkpt>
      <trkpt lat="43.1827380" lon="-1.1841940">
        <ele>204.7</ele>
        <time>2019-07-17T08:59:11Z</time>
      </trkpt>
      <trkpt lat="43.1828150" lon="-1.1841050">
        <ele>205.8</ele>
        <time>2019-07-17T08:59:16Z</time>
      </trkpt>
      <trkpt lat="43.1828980" lon="-1.1840240">
        <ele>206.9</ele>
        <time>2019-07-17T08:59:22Z</time>
      </trkpt>
      <trkpt lat="43.1829830" lon="-1.1839520">
        <ele>207.9</ele>
        <time>2019-07-17T08:59:27Z</time>
      </trkpt>
      <trkpt lat="43.1830800" lon="-1.1838930">
        <ele>208.9</ele>
        <time>2019-07-17T08:59:32Z</time>
      </trkpt>
      <trkpt lat="43.1831680" lon="-1.1837990">
        <ele>209.7</ele>
        <time>2019-07-17T08:59:37Z</time>
      </trkpt>
      <trkpt lat="43.1832450" lon="-1.1836980">
        <ele>210.2</ele>
        <time>2019-07-17T08:59:42Z</time>
      </trkpt>
      <trkpt lat="43.1833260" lon="-1.1836400">
        <ele>210.5</ele>
        <time>2019-07-17T08:59:47Z</time>
      </trkpt>
      <trkpt lat="43.1834080" lon="-1.1835620">
        <ele>210.6</ele>
        <time>2019-07-17T08:59:54Z</time>
      </trkpt>
      <trkpt lat="43.1834920" lon="-1.1834780">
        <ele>210.6</ele>
        <time>2019-07-17T09:00:01Z</time>
      </trkpt>
      <trkpt lat="43.1835670" lon="-1.1833920">
        <ele>210.5</ele>
        <time>2019-07-17T09:00:06Z</time>
      </trkpt>
      <trkpt lat="43.1836520" lon="-1.1833280">
        <ele>210.5</ele>
        <time>2019-07-17T09:00:11Z</time>
      </trkpt>
      <trkpt lat="43.1837370" lon="-1.1832660">
        <ele>210.5</ele>
        <time>2019-07-17T09:00:16Z</time>
      </trkpt>
      <trkpt lat="43.1838150" lon="-1.1831870">
        <ele>210.5</ele>
        <time>2019-07-17T09:00:22Z</time>
      </trkpt>
      <trkpt lat="43.1838960" lon="-1.1831120">
        <ele>210.6</ele>
        <time>2019-07-17T09:00:27Z</time>
      </trkpt>
      <trkpt lat="43.1839750" lon="-1.1830480">
        <ele>210.6</ele>
        <time>2019-07-17T09:00:31Z</time>
      </trkpt>
      <trkpt lat="43.1840490" lon="-1.1829700">
        <ele>210.5</ele>
        <time>2019-07-17T09:00:35Z</time>
      </trkpt>
      <trkpt lat="43.1841280" lon="-1.1828970">
        <ele>210.3</ele>
        <time>2019-07-17T09:00:39Z</time>
      </trkpt>
      <trkpt lat="43.1842090" lon="-1.1828220">
        <ele>210.2</ele>
        <time>2019-07-17T09:00:43Z</time>
      </trkpt>
      <trkpt lat="43.1842840" lon="-1.1827470">
        <ele>210.3</ele>
        <time>2019-07-17T09:00:47Z</time>
      </trkpt>
      <trkpt lat="43.1843700" lon="-1.1826770">
        <ele>210.5</ele>
        <time>2019-07-17T09:00:51Z</time>
      </trkpt>
      <trkpt lat="43.1844510" lon="-1.1826000">
        <ele>210.7</ele>
        <time>2019-07-17T09:00:55Z</time>
      </trkpt>
      <trkpt lat="43.1845360" lon="-1.1825290">
        <ele>211.0</ele>
        <time>2019-07-17T09:00:59Z</time>
      </trkpt>
      <trkpt lat="43.1846160" lon="-1.1824570">
        <ele>211.1</ele>
        <time>2019-07-17T09:01:03Z</time>
      </trkpt>
      <trkpt lat="43.1846920" lon="-1.1823620">
        <ele>210.9</ele>
        <time>2019-07-17T09:01:07Z</time>
      </trkpt>
      <trkpt lat="43.1847650" lon="-1.1822570">
        <ele>210.2</ele>
        <time>2019-07-17T09:01:10Z</time>
      </trkpt>
      <trkpt lat="43.1848250" lon="-1.1821420">
        <ele>209.3</ele>
        <time>2019-07-17T09:01:12Z</time>
      </trkpt>
      <trkpt lat="43.1849000" lon="-1.1819940">
        <ele>208.1</ele>
        <time>2019-07-17T09:01:14Z</time>
      </trkpt>
      <trkpt lat="43.1849930" lon="-1.1818270">
        <ele>206.7</ele>
        <time>2019-07-17T09:01:16Z</time>
      </trkpt>
      <trkpt lat="43.1851230" lon="-1.1816740">
        <ele>205.2</ele>
        <time>2019-07-17T09:01:18Z</time>
      </trkpt>
      <trkpt lat="43.1852560" lon="-1.1815390">
        <ele>203.5</ele>
        <time>2019-07-17T09:01:20Z</time>
      </trkpt>
      <trkpt lat="43.1853940" lon="-1.1813880">
        <ele>201.4</ele>
        <time>2019-07-17T09:01:22Z</time>
      </trkpt>
      <trkpt lat="43.1854600" lon="-1.1812990">
        <ele>200.7</ele>
        <time>2019-07-17T09:01:23Z</time>
      </trkpt>
      <trkpt lat="43.1855220" lon="-1.1812080">
        <ele>199.9</ele>
        <time>2019-07-17T09:01:24Z</time>
      </trkpt>
      <trkpt lat="43.1856440" lon="-1.1810450">
        <ele>199.1</ele>
        <time>2019-07-17T09:01:26Z</time>
      </trkpt>
      <trkpt lat="43.1857870" lon="-1.1809320">
        <ele>198.5</ele>
        <time>2019-07-17T09:01:28Z</time>
      </trkpt>
      <trkpt lat="43.1859440" lon="-1.1808780">
        <ele>198.2</ele>
        <time>2019-07-17T09:01:30Z</time>
      </trkpt>
      <trkpt lat="43.1860920" lon="-1.1808300">
        <ele>198.1</ele>
        <time>2019-07-17T09:01:32Z</time>
      </trkpt>
      <trkpt lat="43.1862190" lon="-1.1807470">
        <ele>198.2</ele>
        <time>2019-07-17T09:01:34Z</time>
      </trkpt>
      <trkpt lat="43.1863400" lon="-1.1806730">
        <ele>198.4</ele>
        <time>2019-07-17T09:01:36Z</time>
      </trkpt>
      <trkpt lat="43.1864800" lon="-1.1806190">
        <ele>198.6</ele>
        <time>2019-07-17T09:01:38Z</time>
      </trkpt>
      <trkpt lat="43.1865800" lon="-1.1805830">
        <ele>198.7</ele>
        <time>2019-07-17T09:01:40Z</time>
      </trkpt>
      <trkpt lat="43.1866810" lon="-1.1805550">
        <ele>198.6</ele>
        <time>2019-07-17T09:01:43Z</time>
      </trkpt>
      <trkpt lat="43.1867770" lon="-1.1805350">
        <ele>198.4</ele>
        <time>2019-07-17T09:01:45Z</time>
      </trkpt>
      <trkpt lat="43.1868730" lon="-1.1805090">
        <ele>198.2</ele>
        <time>2019-07-17T09:01:47Z</time>
      </trkpt>
      <trkpt lat="43.1869680" lon="-1.1804750">
        <ele>198.2</ele>
        <time>2019-07-17T09:01:49Z</time>
      </trkpt>
      <trkpt lat="43.1870760" lon="-1.1804470">
        <ele>198.3</ele>
        <time>2019-07-17T09:01:51Z</time>
      </trkpt>
      <trkpt lat="43.1872010" lon="-1.1804100">
        <ele>198.4</ele>
        <time>2019-07-17T09:01:54Z</time>
      </trkpt>
      <trkpt lat="43.1873060" lon="-1.1803590">
        <ele>198.6</ele>
        <time>2019-07-17T09:01:57Z</time>
      </trkpt>
      <trkpt lat="43.1873950" lon="-1.1803120">
        <ele>199.0</ele>
        <time>2019-07-17T09:02:00Z</time>
      </trkpt>
      <trkpt lat="43.1875080" lon="-1.1802560">
        <ele>199.7</ele>
        <time>2019-07-17T09:02:04Z</time>
      </trkpt>
      <trkpt lat="43.1876170" lon="-1.1801930">
        <ele>200.3</ele>
        <time>2019-07-17T09:02:08Z</time>
      </trkpt>
      <trkpt lat="43.1877120" lon="-1.1801170">
        <ele>201.1</ele>
        <time>2019-07-17T09:02:12Z</time>
      </trkpt>
      <trkpt lat="43.1878070" lon="-1.1800700">
        <ele>201.6</ele>
        <time>2019-07-17T09:02:16Z</time>
      </trkpt>
      <trkpt lat="43.1879070" lon="-1.1800570">
        <ele>202.6</ele>
        <time>2019-07-17T09:02:20Z</time>
      </trkpt>
      <trkpt lat="43.1880070" lon="-1.1800330">
        <ele>204.0</ele>
        <time>2019-07-17T09:02:26Z</time>
      </trkpt>
      <trkpt lat="43.1880990" lon="-1.1800170">
        <ele>204.6</ele>
        <time>2019-07-17T09:02:31Z</time>
      </trkpt>
      <trkpt lat="43.1882030" lon="-1.1799840">
        <ele>206.0</ele>
        <time>2019-07-17T09:02:36Z</time>
      </trkpt>
      <trkpt lat="43.1882990" lon="-1.1799640">
        <ele>206.4</ele>
        <time>2019-07-17T09:02:40Z</time>
      </trkpt>
      <trkpt lat="43.1883940" lon="-1.1798900">
        <ele>206.5</ele>
        <time>2019-07-17T09:02:44Z</time>
      </trkpt>
      <trkpt lat="43.1884840" lon="-1.1797710">
        <ele>206.5</ele>
        <time>2019-07-17T09:02:47Z</time>
      </trkpt>
      <trkpt lat="43.1885620" lon="-1.1796860">
        <ele>206.4</ele>
        <time>2019-07-17T09:02:49Z</time>
      </trkpt>
      <trkpt lat="43.1886340" lon="-1.1795790">
        <ele>206.4</ele>
        <time>2019-07-17T09:02:51Z</time>
      </trkpt>
      <trkpt lat="43.1886900" lon="-1.1794580">
        <ele>206.4</ele>
        <time>2019-07-17T09:02:53Z</time>
      </trkpt>
      <trkpt lat="43.1887380" lon="-1.1793470">
        <ele>206.3</ele>
        <time>2019-07-17T09:02:55Z</time>
      </trkpt>
      <trkpt lat="43.1887620" lon="-1.1792150">
        <ele>206.3</ele>
        <time>2019-07-17T09:02:57Z</time>
      </trkpt>
      <trkpt lat="43.1887840" lon="-1.1790890">
        <ele>206.2</ele>
        <time>2019-07-17T09:02:59Z</time>
      </trkpt>
      <trkpt lat="43.1888180" lon="-1.1789100">
        <ele>206.1</ele>
        <time>2019-07-17T09:03:02Z</time>
      </trkpt>
      <trkpt lat="43.1888390" lon="-1.1787730">
        <ele>206.1</ele>
        <time>2019-07-17T09:03:05Z</time>
      </trkpt>
      <trkpt lat="43.1888630" lon="-1.1786210">
        <ele>206.0</ele>
        <time>2019-07-17T09:03:08Z</time>
      </trkpt>
      <trkpt lat="43.1888720" lon="-1.1784340">
        <ele>205.9</ele>
        <time>2019-07-17T09:03:11Z</time>
      </trkpt>
      <trkpt lat="43.1888890" lon="-1.1782580">
        <ele>205.8</ele>
        <time>2019-07-17T09:03:14Z</time>
      </trkpt>
      <trkpt lat="43.1889100" lon="-1.1780990">
        <ele>205.7</ele>
        <time>2019-07-17T09:03:17Z</time>
      </trkpt>
      <trkpt lat="43.1889280" lon="-1.1779380">
        <ele>205.7</ele>
        <time>2019-07-17T09:03:20Z</time>
      </trkpt>
      <trkpt lat="43.1889500" lon="-1.1777850">
        <ele>205.6</ele>
        <time>2019-07-17T09:03:23Z</time>
      </trkpt>
      <trkpt lat="43.1889700" lon="-1.1776250">
        <ele>205.5</ele>
        <time>2019-07-17T09:03:26Z</time>
      </trkpt>
      <trkpt lat="43.1889940" lon="-1.1774590">
        <ele>205.3</ele>
        <time>2019-07-17T09:03:29Z</time>
      </trkpt>
      <trkpt lat="43.1890140" lon="-1.1772850">
        <ele>205.2</ele>
        <time>2019-07-17T09:03:32Z</time>
      </trkpt>
      <trkpt lat="43.1890300" lon="-1.1771230">
        <ele>205.0</ele>
        <time>2019-07-17T09:03:35Z</time>
      </trkpt>
      <trkpt lat="43.1890500" lon="-1.1769750">
        <ele>204.8</ele>
        <time>2019-07-17T09:03:38Z</time>
      </trkpt>
      <trkpt lat="43.1890900" lon="-1.1768190">
        <ele>204.7</ele>
        <time>2019-07-17T09:03:41Z</time>
      </trkpt>
      <trkpt lat="43.1891270" lon="-1.1767050">
        <ele>204.5</ele>
        <time>2019-07-17T09:03:43Z</time>
      </trkpt>
      <trkpt lat="43.1891960" lon="-1.1765610">
        <ele>204.3</ele>
        <time>2019-07-17T09:03:46Z</time>
      </trkpt>
      <trkpt lat="43.1892750" lon="-1.1764320">
        <ele>204.1</ele>
        <time>2019-07-17T09:03:49Z</time>
      </trkpt>
      <trkpt lat="43.1893620" lon="-1.1763200">
        <ele>203.8</ele>
        <time>2019-07-17T09:03:52Z</time>
      </trkpt>
      <trkpt lat="43.1894560" lon="-1.1762230">
        <ele>203.6</ele>
        <time>2019-07-17T09:03:55Z</time>
      </trkpt>
      <trkpt lat="43.1895440" lon="-1.1761080">
        <ele>203.3</ele>
        <time>2019-07-17T09:03:58Z</time>
      </trkpt>
      <trkpt lat="43.1896130" lon="-1.1759850">
        <ele>203.1</ele>
        <time>2019-07-17T09:04:01Z</time>
      </trkpt>
      <trkpt lat="43.1896680" lon="-1.1758530">
        <ele>202.9</ele>
        <time>2019-07-17T09:04:04Z</time>
      </trkpt>
      <trkpt lat="43.1897190" lon="-1.1757220">
        <ele>202.7</ele>
        <time>2019-07-17T09:04:07Z</time>
      </trkpt>
      <trkpt lat="43.1897710" lon="-1.1755890">
        <ele>202.5</ele>
        <time>2019-07-17T09:04:10Z</time>
      </trkpt>
      <trkpt lat="43.1898190" lon="-1.1754540">
        <ele>202.4</ele>
        <time>2019-07-17T09:04:13Z</time>
      </trkpt>
      <trkpt lat="43.1898630" lon="-1.1753210">
        <ele>202.3</ele>
        <time>2019-07-17T09:04:16Z</time>
      </trkpt>
      <trkpt lat="43.1899020" lon="-1.1751910">
        <ele>202.2</ele>
        <time>2019-07-17T09:04:19Z</time>
      </trkpt>
      <trkpt lat="43.1899480" lon="-1.1750600">
        <ele>202.1</ele>
        <time>2019-07-17T09:04:22Z</time>
      </trkpt>
      <trkpt lat="43.1900060" lon="-1.1749280">
        <ele>202.0</ele>
        <time>2019-07-17T09:04:25Z</time>
      </trkpt>
      <trkpt lat="43.1900470" lon="-1.1748030">
        <ele>201.9</ele>
        <time>2019-07-17T09:04:28Z</time>
      </trkpt>
      <trkpt lat="43.1900960" lon="-1.1746690">
        <ele>201.9</ele>
        <time>2019-07-17T09:04:32Z</time>
      </trkpt>
      <trkpt lat="43.1901240" lon="-1.1745510">
        <ele>201.8</ele>
        <time>2019-07-17T09:04:36Z</time>
      </trkpt>
      <trkpt lat="43.1901350" lon="-1.1744260">
        <ele>202.4</ele>
        <time>2019-07-17T09:04:40Z</time>
      </trkpt>
      <trkpt lat="43.1901310" lon="-1.1742840">
        <ele>203.2</ele>
        <time>2019-07-17T09:04:45Z</time>
      </trkpt>
      <trkpt lat="43.1900780" lon="-1.1741710">
        <ele>204.0</ele>
        <time>2019-07-17T09:04:50Z</time>
      </trkpt>
      <trkpt lat="43.1900430" lon="-1.1740340">
        <ele>205.0</ele>
        <time>2019-07-17T09:04:56Z</time>
      </trkpt>
      <trkpt lat="43.1899950" lon="-1.1739280">
        <ele>205.9</ele>
        <time>2019-07-17T09:05:01Z</time>
      </trkpt>
      <trkpt lat="43.1899740" lon="-1.1737850">
        <ele>207.1</ele>
        <time>2019-07-17T09:05:07Z</time>
      </trkpt>
      <trkpt lat="43.1899160" lon="-1.1736750">
        <ele>207.6</ele>
        <time>2019-07-17T09:05:13Z</time>
      </trkpt>
      <trkpt lat="43.1898310" lon="-1.1735910">
        <ele>207.9</ele>
        <time>2019-07-17T09:05:19Z</time>
      </trkpt>
      <trkpt lat="43.1897660" lon="-1.1735000">
        <ele>208.1</ele>
        <time>2019-07-17T09:05:23Z</time>
      </trkpt>
      <trkpt lat="43.1897020" lon="-1.1734090">
        <ele>208.4</ele>
        <time>2019-07-17T09:05:27Z</time>
      </trkpt>
      <trkpt lat="43.1896270" lon="-1.1733260">
        <ele>208.6</ele>
        <time>2019-07-17T09:05:31Z</time>
      </trkpt>
      <trkpt lat="43.1895490" lon="-1.1732540">
        <ele>208.9</ele>
        <time>2019-07-17T09:05:35Z</time>
      </trkpt>
      <trkpt lat="43.1894790" lon="-1.1731670">
        <ele>209.3</ele>
        <time>2019-07-17T09:05:39Z</time>
      </trkpt>
      <trkpt lat="43.1894030" lon="-1.1730950">
        <ele>209.7</ele>
        <time>2019-07-17T09:05:43Z</time>
      </trkpt>
      <trkpt lat="43.1893160" lon="-1.1730180">
        <ele>210.2</ele>
        <time>2019-07-17T09:05:48Z</time>
      </trkpt>
      <trkpt lat="43.1892400" lon="-1.1729270">
        <ele>210.7</ele>
        <time>2019-07-17T09:05:53Z</time>
      </trkpt>
      <trkpt lat="43.1891590" lon="-1.1728540">
        <ele>211.2</ele>
        <time>2019-07-17T09:05:58Z</time>
      </trkpt>
      <trkpt lat="43.1890820" lon="-1.1727590">
        <ele>211.6</ele>
        <time>2019-07-17T09:06:04Z</time>
      </trkpt>
      <trkpt lat="43.1890010" lon="-1.1726620">
        <ele>211.9</ele>
        <time>2019-07-17T09:06:09Z</time>
      </trkpt>
      <trkpt lat="43.1889170" lon="-1.1725600">
        <ele>212.1</ele>
        <time>2019-07-17T09:06:14Z</time>
      </trkpt>
      <trkpt lat="43.1888290" lon="-1.1724700">
        <ele>212.3</ele>
        <time>2019-07-17T09:06:19Z</time>
      </trkpt>
      <trkpt lat="43.1887580" lon="-1.1723690">
        <ele>212.5</ele>
        <time>2019-07-17T09:06:24Z</time>
      </trkpt>
      <trkpt lat="43.1886860" lon="-1.1722690">
        <ele>212.7</ele>
        <time>2019-07-17T09:06:29Z</time>
      </trkpt>
      <trkpt lat="43.1886070" lon="-1.1721640">
        <ele>213.0</ele>
        <time>2019-07-17T09:06:34Z</time>
      </trkpt>
      <trkpt lat="43.1885350" lon="-1.1720630">
        <ele>213.3</ele>
        <time>2019-07-17T09:06:39Z</time>
      </trkpt>
      <trkpt lat="43.1884580" lon="-1.1719570">
        <ele>213.6</ele>
        <time>2019-07-17T09:06:44Z</time>
      </trkpt>
      <trkpt lat="43.1883850" lon="-1.1718580">
        <ele>213.8</ele>
        <time>2019-07-17T09:06:50Z</time>
      </trkpt>
      <trkpt lat="43.1883020" lon="-1.1718100">
        <ele>214.0</ele>
        <time>2019-07-17T09:06:55Z</time>
      </trkpt>
      <trkpt lat="43.1882070" lon="-1.1717460">
        <ele>214.1</ele>
        <time>2019-07-17T09:06:59Z</time>
      </trkpt>
      <trkpt lat="43.1881090" lon="-1.1716990">
        <ele>214.2</ele>
        <time>2019-07-17T09:07:02Z</time>
      </trkpt>
      <trkpt lat="43.1879910" lon="-1.1716490">
        <ele>214.2</ele>
        <time>2019-07-17T09:07:05Z</time>
      </trkpt>
      <trkpt lat="43.1879010" lon="-1.1716090">
        <ele>214.1</ele>
        <time>2019-07-17T09:07:07Z</time>
      </trkpt>
      <trkpt lat="43.1877720" lon="-1.1715700">
        <ele>214.0</ele>
        <time>2019-07-17T09:07:10Z</time>
      </trkpt>
      <trkpt lat="43.1876710" lon="-1.1715550">
        <ele>213.8</ele>
        <time>2019-07-17T09:07:12Z</time>
      </trkpt>
      <trkpt lat="43.1875710" lon="-1.1715380">
        <ele>213.6</ele>
        <time>2019-07-17T09:07:14Z</time>
      </trkpt>
      <trkpt lat="43.1874810" lon="-1.1715220">
        <ele>213.4</ele>
        <time>2019-07-17T09:07:16Z</time>
      </trkpt>
      <trkpt lat="43.1873450" lon="-1.1714760">
        <ele>213.0</ele>
        <time>2019-07-17T09:07:19Z</time>
      </trkpt>
      <trkpt lat="43.1872510" lon="-1.1714040">
        <ele>212.7</ele>
        <time>2019-07-17T09:07:21Z</time>
      </trkpt>
      <trkpt lat="43.1871570" lon="-1.1713040">
        <ele>212.2</ele>
        <time>2019-07-17T09:07:23Z</time>
      </trkpt>
      <trkpt lat="43.1870920" lon="-1.1711860">
        <ele>211.8</ele>
        <time>2019-07-17T09:07:25Z</time>
      </trkpt>
      <trkpt lat="43.1870680" lon="-1.1710470">
        <ele>211.4</ele>
        <time>2019-07-17T09:07:27Z</time>
      </trkpt>
      <trkpt lat="43.1870500" lon="-1.1709140">
        <ele>210.9</ele>
        <time>2019-07-17T09:07:29Z</time>
      </trkpt>
      <trkpt lat="43.1870290" lon="-1.1707870">
        <ele>210.5</ele>
        <time>2019-07-17T09:07:31Z</time>
      </trkpt>
      <trkpt lat="43.1870030" lon="-1.1706550">
        <ele>210.1</ele>
        <time>2019-07-17T09:07:33Z</time>
      </trkpt>
      <trkpt lat="43.1869430" lon="-1.1705340">
        <ele>209.6</ele>
        <time>2019-07-17T09:07:35Z</time>
      </trkpt>
      <trkpt lat="43.1868490" lon="-1.1704860">
        <ele>209.2</ele>
        <time>2019-07-17T09:07:37Z</time>
      </trkpt>
      <trkpt lat="43.1867540" lon="-1.1704470">
        <ele>208.7</ele>
        <time>2019-07-17T09:07:40Z</time>
      </trkpt>
      <trkpt lat="43.1866700" lon="-1.1703610">
        <ele>208.1</ele>
        <time>2019-07-17T09:07:44Z</time>
      </trkpt>
      <trkpt lat="43.1865910" lon="-1.1702710">
        <ele>207.5</ele>
        <time>2019-07-17T09:07:48Z</time>
      </trkpt>
      <trkpt lat="43.1865220" lon="-1.1701720">
        <ele>206.8</ele>
        <time>2019-07-17T09:07:53Z</time>
      </trkpt>
      <trkpt lat="43.1865150" lon="-1.1701540">
        <ele>206.7</ele>
        <time>2019-07-17T09:07:58Z</time>
      </trkpt>
      <trkpt lat="43.1864340" lon="-1.1700400">
        <ele>205.8</ele>
        <time>2019-07-17T09:08:27Z</time>
      </trkpt>
      <trkpt lat="43.1863780" lon="-1.1699260">
        <ele>205.0</ele>
        <time>2019-07-17T09:08:31Z</time>
      </trkpt>
      <trkpt lat="43.1863790" lon="-1.1699000">
        <ele>204.8</ele>
        <time>2019-07-17T09:08:36Z</time>
      </trkpt>
      <trkpt lat="43.1863130" lon="-1.1697890">
        <ele>204.2</ele>
        <time>2019-07-17T09:09:00Z</time>
      </trkpt>
      <trkpt lat="43.1864010" lon="-1.1697140">
        <ele>205.0</ele>
        <time>2019-07-17T09:09:06Z</time>
      </trkpt>
      <trkpt lat="43.1864920" lon="-1.1696830">
        <ele>205.8</ele>
        <time>2019-07-17T09:09:13Z</time>
      </trkpt>
      <trkpt lat="43.1865850" lon="-1.1696020">
        <ele>206.7</ele>
        <time>2019-07-17T09:09:18Z</time>
      </trkpt>
      <trkpt lat="43.1866690" lon="-1.1695410">
        <ele>207.6</ele>
        <time>2019-07-17T09:09:23Z</time>
      </trkpt>
      <trkpt lat="43.1867470" lon="-1.1694740">
        <ele>208.3</ele>
        <time>2019-07-17T09:09:28Z</time>
      </trkpt>
      <trkpt lat="43.1868280" lon="-1.1694050">
        <ele>209.2</ele>
        <time>2019-07-17T09:09:33Z</time>
      </trkpt>
      <trkpt lat="43.1868960" lon="-1.1693150">
        <ele>210.0</ele>
        <time>2019-07-17T09:09:38Z</time>
      </trkpt>
      <trkpt lat="43.1869660" lon="-1.1692340">
        <ele>211.0</ele>
        <time>2019-07-17T09:09:44Z</time>
      </trkpt>
      <trkpt lat="43.1870660" lon="-1.1691940">
        <ele>212.2</ele>
        <time>2019-07-17T09:09:49Z</time>
      </trkpt>
      <trkpt lat="43.1871540" lon="-1.1691420">
        <ele>213.5</ele>
        <time>2019-07-17T09:09:54Z</time>
      </trkpt>
      <trkpt lat="43.1872440" lon="-1.1690700">
        <ele>215.0</ele>
        <time>2019-07-17T09:10:00Z</time>
      </trkpt>
      <trkpt lat="43.1873310" lon="-1.1689910">
        <ele>216.7</ele>
        <time>2019-07-17T09:10:06Z</time>
      </trkpt>
      <trkpt lat="43.1874180" lon="-1.1689190">
        <ele>218.3</ele>
        <time>2019-07-17T09:10:12Z</time>
      </trkpt>
      <trkpt lat="43.1874970" lon="-1.1688320">
        <ele>219.8</ele>
        <time>2019-07-17T09:10:18Z</time>
      </trkpt>
      <trkpt lat="43.1875820" lon="-1.1687510">
        <ele>221.2</ele>
        <time>2019-07-17T09:10:24Z</time>
      </trkpt>
      <trkpt lat="43.1876670" lon="-1.1686790">
        <ele>222.3</ele>
        <time>2019-07-17T09:10:30Z</time>
      </trkpt>
      <trkpt lat="43.1877540" lon="-1.1686180">
        <ele>223.1</ele>
        <time>2019-07-17T09:10:36Z</time>
      </trkpt>
      <trkpt lat="43.1878360" lon="-1.1685370">
        <ele>223.9</ele>
        <time>2019-07-17T09:10:41Z</time>
      </trkpt>
      <trkpt lat="43.1879240" lon="-1.1684570">
        <ele>224.6</ele>
        <time>2019-07-17T09:10:47Z</time>
      </trkpt>
      <trkpt lat="43.1880090" lon="-1.1683760">
        <ele>225.1</ele>
        <time>2019-07-17T09:10:53Z</time>
      </trkpt>
      <trkpt lat="43.1880840" lon="-1.1683040">
        <ele>225.6</ele>
        <time>2019-07-17T09:10:58Z</time>
      </trkpt>
      <trkpt lat="43.1881760" lon="-1.1682280">
        <ele>226.2</ele>
        <time>2019-07-17T09:11:04Z</time>
      </trkpt>
      <trkpt lat="43.1882560" lon="-1.1681570">
        <ele>226.7</ele>
        <time>2019-07-17T09:11:09Z</time>
      </trkpt>
      <trkpt lat="43.1883370" lon="-1.1680820">
        <ele>227.3</ele>
        <time>2019-07-17T09:11:14Z</time>
      </trkpt>
      <trkpt lat="43.1884170" lon="-1.1679960">
        <ele>227.9</ele>
        <time>2019-07-17T09:11:19Z</time>
      </trkpt>
      <trkpt lat="43.1885040" lon="-1.1679030">
        <ele>228.5</ele>
        <time>2019-07-17T09:11:24Z</time>
      </trkpt>
      <trkpt lat="43.1885760" lon="-1.1678260">
        <ele>228.9</ele>
        <time>2019-07-17T09:11:28Z</time>
      </trkpt>
      <trkpt lat="43.1886640" lon="-1.1677320">
        <ele>229.3</ele>
        <time>2019-07-17T09:11:33Z</time>
      </trkpt>
      <trkpt lat="43.1887300" lon="-1.1676450">
        <ele>229.4</ele>
        <time>2019-07-17T09:11:38Z</time>
      </trkpt>
      <trkpt lat="43.1888090" lon="-1.1675500">
        <ele>229.6</ele>
        <time>2019-07-17T09:11:43Z</time>
      </trkpt>
      <trkpt lat="43.1888900" lon="-1.1674530">
        <ele>229.7</ele>
        <time>2019-07-17T09:11:47Z</time>
      </trkpt>
      <trkpt lat="43.1889750" lon="-1.1673550">
        <ele>229.9</ele>
        <time>2019-07-17T09:11:51Z</time>
      </trkpt>
      <trkpt lat="43.1890630" lon="-1.1672550">
        <ele>230.1</ele>
        <time>2019-07-17T09:11:55Z</time>
      </trkpt>
      <trkpt lat="43.1891560" lon="-1.1671610">
        <ele>230.5</ele>
        <time>2019-07-17T09:11:59Z</time>
      </trkpt>
      <trkpt lat="43.1892300" lon="-1.1670830">
        <ele>230.8</ele>
        <time>2019-07-17T09:12:02Z</time>
      </trkpt>
      <trkpt lat="43.1893090" lon="-1.1670050">
        <ele>231.1</ele>
        <time>2019-07-17T09:12:05Z</time>
      </trkpt>
      <trkpt lat="43.1893900" lon="-1.1669220">
        <ele>231.4</ele>
        <time>2019-07-17T09:12:08Z</time>
      </trkpt>
      <trkpt lat="43.1894760" lon="-1.1668470">
        <ele>231.7</ele>
        <time>2019-07-17T09:12:11Z</time>
      </trkpt>
      <trkpt lat="43.1895570" lon="-1.1667630">
        <ele>232.0</ele>
        <time>2019-07-17T09:12:14Z</time>
      </trkpt>
      <trkpt lat="43.1896380" lon="-1.1666760">
        <ele>232.4</ele>
        <time>2019-07-17T09:12:17Z</time>
      </trkpt>
      <trkpt lat="43.1897100" lon="-1.1665740">
        <ele>232.8</ele>
        <time>2019-07-17T09:12:20Z</time>
      </trkpt>
      <trkpt lat="43.1897860" lon="-1.1664890">
        <ele>233.3</ele>
        <time>2019-07-17T09:12:23Z</time>
      </trkpt>
      <trkpt lat="43.1898660" lon="-1.1664130">
        <ele>233.7</ele>
        <time>2019-07-17T09:12:26Z</time>
      </trkpt>
      <trkpt lat="43.1899380" lon="-1.1663360">
        <ele>234.1</ele>
        <time>2019-07-17T09:12:29Z</time>
      </trkpt>
      <trkpt lat="43.1900350" lon="-1.1662430">
        <ele>234.7</ele>
        <time>2019-07-17T09:12:33Z</time>
      </trkpt>
      <trkpt lat="43.1901230" lon="-1.1661620">
        <ele>235.2</ele>
        <time>2019-07-17T09:12:37Z</time>
      </trkpt>
      <trkpt lat="43.1902130" lon="-1.1660730">
        <ele>235.8</ele>
        <time>2019-07-17T09:12:41Z</time>
      </trkpt>
      <trkpt lat="43.1902880" lon="-1.1659770">
        <ele>236.4</ele>
        <time>2019-07-17T09:12:45Z</time>
      </trkpt>
      <trkpt lat="43.1903750" lon="-1.1658880">
        <ele>237.2</ele>
        <time>2019-07-17T09:12:49Z</time>
      </trkpt>
      <trkpt lat="43.1904670" lon="-1.1657980">
        <ele>237.9</ele>
        <time>2019-07-17T09:12:53Z</time>
      </trkpt>
      <trkpt lat="43.1905550" lon="-1.1656990">
        <ele>238.7</ele>
        <time>2019-07-17T09:12:57Z</time>
      </trkpt>
      <trkpt lat="43.1906320" lon="-1.1656100">
        <ele>239.3</ele>
        <time>2019-07-17T09:13:01Z</time>
      </trkpt>
      <trkpt lat="43.1907070" lon="-1.1655390">
        <ele>239.3</ele>
        <time>2019-07-17T09:13:05Z</time>
      </trkpt>
      <trkpt lat="43.1907890" lon="-1.1654640">
        <ele>239.3</ele>
        <time>2019-07-17T09:13:09Z</time>
      </trkpt>
      <trkpt lat="43.1908760" lon="-1.1653830">
        <ele>238.7</ele>
        <time>2019-07-17T09:13:13Z</time>
      </trkpt>
      <trkpt lat="43.1909600" lon="-1.1652860">
        <ele>238.1</ele>
        <time>2019-07-17T09:13:18Z</time>
      </trkpt>
      <trkpt lat="43.1910390" lon="-1.1652020">
        <ele>238.0</ele>
        <time>2019-07-17T09:13:22Z</time>
      </trkpt>
      <trkpt lat="43.1911260" lon="-1.1651410">
        <ele>238.5</ele>
        <time>2019-07-17T09:13:26Z</time>
      </trkpt>
      <trkpt lat="43.1912130" lon="-1.1651060">
        <ele>238.8</ele>
        <time>2019-07-17T09:13:30Z</time>
      </trkpt>
      <trkpt lat="43.1913050" lon="-1.1650650">
        <ele>239.1</ele>
        <time>2019-07-17T09:13:34Z</time>
      </trkpt>
      <trkpt lat="43.1914060" lon="-1.1650560">
        <ele>239.3</ele>
        <time>2019-07-17T09:13:38Z</time>
      </trkpt>
      <trkpt lat="43.1915000" lon="-1.1650430">
        <ele>239.3</ele>
        <time>2019-07-17T09:13:41Z</time>
      </trkpt>
      <trkpt lat="43.1916180" lon="-1.1650510">
        <ele>239.3</ele>
        <time>2019-07-17T09:13:45Z</time>
      </trkpt>
      <trkpt lat="43.1917360" lon="-1.1650390">
        <ele>239.3</ele>
        <time>2019-07-17T09:13:49Z</time>
      </trkpt>
      <trkpt lat="43.1918260" lon="-1.1650250">
        <ele>239.3</ele>
        <time>2019-07-17T09:13:52Z</time>
      </trkpt>
      <trkpt lat="43.1919430" lon="-1.1650170">
        <ele>239.3</ele>
        <time>2019-07-17T09:13:56Z</time>
      </trkpt>
      <trkpt lat="43.1920420" lon="-1.1649990">
        <ele>239.3</ele>
        <time>2019-07-17T09:13:59Z</time>
      </trkpt>
      <trkpt lat="43.1921720" lon="-1.1649880">
        <ele>239.3</ele>
        <time>2019-07-17T09:14:02Z</time>
      </trkpt>
      <trkpt lat="43.1922650" lon="-1.1649810">
        <ele>239.3</ele>
        <time>2019-07-17T09:14:04Z</time>
      </trkpt>
      <trkpt lat="43.1923610" lon="-1.1649630">
        <ele>239.2</ele>
        <time>2019-07-17T09:14:06Z</time>
      </trkpt>
      <trkpt lat="43.1924560" lon="-1.1649390">
        <ele>239.2</ele>
        <time>2019-07-17T09:14:08Z</time>
      </trkpt>
      <trkpt lat="43.1925630" lon="-1.1648920">
        <ele>239.0</ele>
        <time>2019-07-17T09:14:10Z</time>
      </trkpt>
      <trkpt lat="43.1926540" lon="-1.1648430">
        <ele>238.6</ele>
        <time>2019-07-17T09:14:12Z</time>
      </trkpt>
      <trkpt lat="43.1927480" lon="-1.1647760">
        <ele>238.2</ele>
        <time>2019-07-17T09:14:14Z</time>
      </trkpt>
      <trkpt lat="43.1928500" lon="-1.1646930">
        <ele>237.6</ele>
        <time>2019-07-17T09:14:16Z</time>
      </trkpt>
      <trkpt lat="43.1929590" lon="-1.1646070">
        <ele>237.0</ele>
        <time>2019-07-17T09:14:18Z</time>
      </trkpt>
      <trkpt lat="43.1930690" lon="-1.1645100">
        <ele>236.5</ele>
        <time>2019-07-17T09:14:20Z</time>
      </trkpt>
      <trkpt lat="43.1931790" lon="-1.1644050">
        <ele>236.0</ele>
        <time>2019-07-17T09:14:22Z</time>
      </trkpt>
      <trkpt lat="43.1932620" lon="-1.1643020">
        <ele>235.4</ele>
        <time>2019-07-17T09:14:24Z</time>
      </trkpt>
      <trkpt lat="43.1933300" lon="-1.1641770">
        <ele>234.7</ele>
        <time>2019-07-17T09:14:26Z</time>
      </trkpt>
      <trkpt lat="43.1934340" lon="-1.1640120">
        <ele>234.0</ele>
        <time>2019-07-17T09:14:28Z</time>
      </trkpt>
      <trkpt lat="43.1935310" lon="-1.1638310">
        <ele>233.0</ele>
        <time>2019-07-17T09:14:30Z</time>
      </trkpt>
      <trkpt lat="43.1936410" lon="-1.1636420">
        <ele>231.9</ele>
        <time>2019-07-17T09:14:32Z</time>
      </trkpt>
      <trkpt lat="43.1937200" lon="-1.1634510">
        <ele>231.1</ele>
        <time>2019-07-17T09:14:34Z</time>
      </trkpt>
      <trkpt lat="43.1938650" lon="-1.1632820">
        <ele>229.8</ele>
        <time>2019-07-17T09:14:36Z</time>
      </trkpt>
      <trkpt lat="43.1939640" lon="-1.1631010">
        <ele>228.7</ele>
        <time>2019-07-17T09:14:38Z</time>
      </trkpt>
      <trkpt lat="43.1940620" lon="-1.1629120">
        <ele>227.7</ele>
        <time>2019-07-17T09:14:40Z</time>
      </trkpt>
      <trkpt lat="43.1941260" lon="-1.1628130">
        <ele>227.1</ele>
        <time>2019-07-17T09:14:41Z</time>
      </trkpt>
      <trkpt lat="43.1942130" lon="-1.1627100">
        <ele>226.4</ele>
        <time>2019-07-17T09:14:42Z</time>
      </trkpt>
      <trkpt lat="43.1942700" lon="-1.1626120">
        <ele>225.8</ele>
        <time>2019-07-17T09:14:43Z</time>
      </trkpt>
      <trkpt lat="43.1943310" lon="-1.1625040">
        <ele>225.2</ele>
        <time>2019-07-17T09:14:44Z</time>
      </trkpt>
      <trkpt lat="43.1943870" lon="-1.1624060">
        <ele>224.6</ele>
        <time>2019-07-17T09:14:45Z</time>
      </trkpt>
      <trkpt lat="43.1944920" lon="-1.1622160">
        <ele>223.4</ele>
        <time>2019-07-17T09:14:47Z</time>
      </trkpt>
      <trkpt lat="43.1945890" lon="-1.1620250">
        <ele>222.3</ele>
        <time>2019-07-17T09:14:49Z</time>
      </trkpt>
      <trkpt lat="43.1946860" lon="-1.1618300">
        <ele>220.8</ele>
        <time>2019-07-17T09:14:51Z</time>
      </trkpt>
      <trkpt lat="43.1947820" lon="-1.1616390">
        <ele>219.6</ele>
        <time>2019-07-17T09:14:53Z</time>
      </trkpt>
      <trkpt lat="43.1948760" lon="-1.1614520">
        <ele>218.7</ele>
        <time>2019-07-17T09:14:55Z</time>
      </trkpt>
      <trkpt lat="43.1949630" lon="-1.1612790">
        <ele>218.0</ele>
        <time>2019-07-17T09:14:57Z</time>
      </trkpt>
      <trkpt lat="43.1950420" lon="-1.1611140">
        <ele>217.7</ele>
        <time>2019-07-17T09:14:59Z</time>
      </trkpt>
      <trkpt lat="43.1951070" lon="-1.1609760">
        <ele>217.5</ele>
        <time>2019-07-17T09:15:01Z</time>
      </trkpt>
      <trkpt lat="43.1951690" lon="-1.1608520">
        <ele>217.4</ele>
        <time>2019-07-17T09:15:03Z</time>
      </trkpt>
      <trkpt lat="43.1952290" lon="-1.1607320">
        <ele>217.2</ele>
        <time>2019-07-17T09:15:05Z</time>
      </trkpt>
      <trkpt lat="43.1952920" lon="-1.1606180">
        <ele>217.2</ele>
        <time>2019-07-17T09:15:07Z</time>
      </trkpt>
      <trkpt lat="43.1953490" lon="-1.1605040">
        <ele>217.2</ele>
        <time>2019-07-17T09:15:09Z</time>
      </trkpt>
      <trkpt lat="43.1954000" lon="-1.1603950">
        <ele>217.1</ele>
        <time>2019-07-17T09:15:11Z</time>
      </trkpt>
      <trkpt lat="43.1954650" lon="-1.1602440">
        <ele>217.2</ele>
        <time>2019-07-17T09:15:14Z</time>
      </trkpt>
      <trkpt lat="43.1955120" lon="-1.1601370">
        <ele>217.3</ele>
        <time>2019-07-17T09:15:17Z</time>
      </trkpt>
      <trkpt lat="43.1955800" lon="-1.1600120">
        <ele>217.5</ele>
        <time>2019-07-17T09:15:21Z</time>
      </trkpt>
      <trkpt lat="43.1956430" lon="-1.1598920">
        <ele>217.8</ele>
        <time>2019-07-17T09:15:25Z</time>
      </trkpt>
      <trkpt lat="43.1956930" lon="-1.1597830">
        <ele>218.1</ele>
        <time>2019-07-17T09:15:29Z</time>
      </trkpt>
      <trkpt lat="43.1957540" lon="-1.1596650">
        <ele>218.4</ele>
        <time>2019-07-17T09:15:33Z</time>
      </trkpt>
      <trkpt lat="43.1958030" lon="-1.1595500">
        <ele>218.7</ele>
        <time>2019-07-17T09:15:37Z</time>
      </trkpt>
      <trkpt lat="43.1958510" lon="-1.1594310">
        <ele>219.0</ele>
        <time>2019-07-17T09:15:41Z</time>
      </trkpt>
      <trkpt lat="43.1959020" lon="-1.1593100">
        <ele>219.4</ele>
        <time>2019-07-17T09:15:45Z</time>
      </trkpt>
      <trkpt lat="43.1959610" lon="-1.1591860">
        <ele>219.7</ele>
        <time>2019-07-17T09:15:49Z</time>
      </trkpt>
      <trkpt lat="43.1960180" lon="-1.1590650">
        <ele>219.9</ele>
        <time>2019-07-17T09:15:53Z</time>
      </trkpt>
      <trkpt lat="43.1960800" lon="-1.1589480">
        <ele>220.2</ele>
        <time>2019-07-17T09:15:57Z</time>
      </trkpt>
      <trkpt lat="43.1961360" lon="-1.1588310">
        <ele>220.5</ele>
        <time>2019-07-17T09:16:01Z</time>
      </trkpt>
      <trkpt lat="43.1961890" lon="-1.1587220">
        <ele>220.9</ele>
        <time>2019-07-17T09:16:05Z</time>
      </trkpt>
      <trkpt lat="43.1962440" lon="-1.1586150">
        <ele>221.1</ele>
        <time>2019-07-17T09:16:09Z</time>
      </trkpt>
      <trkpt lat="43.1963020" lon="-1.1584990">
        <ele>221.4</ele>
        <time>2019-07-17T09:16:14Z</time>
      </trkpt>
      <trkpt lat="43.1963640" lon="-1.1583840">
        <ele>221.7</ele>
        <time>2019-07-17T09:16:19Z</time>
      </trkpt>
      <trkpt lat="43.1964290" lon="-1.1582600">
        <ele>222.2</ele>
        <time>2019-07-17T09:16:24Z</time>
      </trkpt>
      <trkpt lat="43.1964750" lon="-1.1581490">
        <ele>222.5</ele>
        <time>2019-07-17T09:16:28Z</time>
      </trkpt>
      <trkpt lat="43.1965400" lon="-1.1580160">
        <ele>222.8</ele>
        <time>2019-07-17T09:16:33Z</time>
      </trkpt>
      <trkpt lat="43.1966030" lon="-1.1578900">
        <ele>223.1</ele>
        <time>2019-07-17T09:16:37Z</time>
      </trkpt>
      <trkpt lat="43.1966670" lon="-1.1577510">
        <ele>223.4</ele>
        <time>2019-07-17T09:16:41Z</time>
      </trkpt>
      <trkpt lat="43.1967230" lon="-1.1576390">
        <ele>223.5</ele>
        <time>2019-07-17T09:16:44Z</time>
      </trkpt>
      <trkpt lat="43.1967710" lon="-1.1575310">
        <ele>223.6</ele>
        <time>2019-07-17T09:16:47Z</time>
      </trkpt>
      <trkpt lat="43.1968240" lon="-1.1574100">
        <ele>223.7</ele>
        <time>2019-07-17T09:16:50Z</time>
      </trkpt>
      <trkpt lat="43.1968880" lon="-1.1572870">
        <ele>223.7</ele>
        <time>2019-07-17T09:16:53Z</time>
      </trkpt>
      <trkpt lat="43.1969530" lon="-1.1571530">
        <ele>223.8</ele>
        <time>2019-07-17T09:16:56Z</time>
      </trkpt>
      <trkpt lat="43.1970100" lon="-1.1570220">
        <ele>223.9</ele>
        <time>2019-07-17T09:16:59Z</time>
      </trkpt>
      <trkpt lat="43.1970710" lon="-1.1568910">
        <ele>224.1</ele>
        <time>2019-07-17T09:17:02Z</time>
      </trkpt>
      <trkpt lat="43.1971340" lon="-1.1567560">
        <ele>224.3</ele>
        <time>2019-07-17T09:17:05Z</time>
      </trkpt>
      <trkpt lat="43.1971880" lon="-1.1566320">
        <ele>224.5</ele>
        <time>2019-07-17T09:17:08Z</time>
      </trkpt>
      <trkpt lat="43.1972400" lon="-1.1565180">
        <ele>224.7</ele>
        <time>2019-07-17T09:17:11Z</time>
      </trkpt>
      <trkpt lat="43.1972960" lon="-1.1564130">
        <ele>224.9</ele>
        <time>2019-07-17T09:17:14Z</time>
      </trkpt>
      <trkpt lat="43.1973440" lon="-1.1563040">
        <ele>225.0</ele>
        <time>2019-07-17T09:17:17Z</time>
      </trkpt>
      <trkpt lat="43.1974020" lon="-1.1561890">
        <ele>225.2</ele>
        <time>2019-07-17T09:17:21Z</time>
      </trkpt>
      <trkpt lat="43.1974490" lon="-1.1560590">
        <ele>225.2</ele>
        <time>2019-07-17T09:17:25Z</time>
      </trkpt>
      <trkpt lat="43.1974930" lon="-1.1559250">
        <ele>225.3</ele>
        <time>2019-07-17T09:17:29Z</time>
      </trkpt>
      <trkpt lat="43.1975360" lon="-1.1557930">
        <ele>225.3</ele>
        <time>2019-07-17T09:17:33Z</time>
      </trkpt>
      <trkpt lat="43.1975720" lon="-1.1556630">
        <ele>225.4</ele>
        <time>2019-07-17T09:17:37Z</time>
      </trkpt>
      <trkpt lat="43.1975960" lon="-1.1555410">
        <ele>225.5</ele>
        <time>2019-07-17T09:17:41Z</time>
      </trkpt>
      <trkpt lat="43.1976240" lon="-1.1554220">
        <ele>225.6</ele>
        <time>2019-07-17T09:17:45Z</time>
      </trkpt>
      <trkpt lat="43.1976490" lon="-1.1552980">
        <ele>225.9</ele>
        <time>2019-07-17T09:17:49Z</time>
      </trkpt>
      <trkpt lat="43.1976730" lon="-1.1551490">
        <ele>226.3</ele>
        <time>2019-07-17T09:17:54Z</time>
      </trkpt>
      <trkpt lat="43.1976950" lon="-1.1550210">
        <ele>226.8</ele>
        <time>2019-07-17T09:17:58Z</time>
      </trkpt>
      <trkpt lat="43.1977140" lon="-1.1548780">
        <ele>227.4</ele>
        <time>2019-07-17T09:18:03Z</time>
      </trkpt>
      <trkpt lat="43.1977300" lon="-1.1547550">
        <ele>227.9</ele>
        <time>2019-07-17T09:18:07Z</time>
      </trkpt>
      <trkpt lat="43.1977410" lon="-1.1546310">
        <ele>228.3</ele>
        <time>2019-07-17T09:18:11Z</time>
      </trkpt>
      <trkpt lat="43.1977590" lon="-1.1545080">
        <ele>228.7</ele>
        <time>2019-07-17T09:18:15Z</time>
      </trkpt>
      <trkpt lat="43.1977750" lon="-1.1543790">
        <ele>229.1</ele>
        <time>2019-07-17T09:18:19Z</time>
      </trkpt>
      <trkpt lat="43.1977890" lon="-1.1542570">
        <ele>229.5</ele>
        <time>2019-07-17T09:18:23Z</time>
      </trkpt>
      <trkpt lat="43.1978040" lon="-1.1541240">
        <ele>230.0</ele>
        <time>2019-07-17T09:18:27Z</time>
      </trkpt>
      <trkpt lat="43.1978240" lon="-1.1539960">
        <ele>230.5</ele>
        <time>2019-07-17T09:18:31Z</time>
      </trkpt>
      <trkpt lat="43.1978460" lon="-1.1538700">
        <ele>231.1</ele>
        <time>2019-07-17T09:18:35Z</time>
      </trkpt>
      <trkpt lat="43.1978590" lon="-1.1537410">
        <ele>231.5</ele>
        <time>2019-07-17T09:18:39Z</time>
      </trkpt>
      <trkpt lat="43.1978820" lon="-1.1536150">
        <ele>231.6</ele>
        <time>2019-07-17T09:18:43Z</time>
      </trkpt>
      <trkpt lat="43.1979050" lon="-1.1534900">
        <ele>231.7</ele>
        <time>2019-07-17T09:18:47Z</time>
      </trkpt>
      <trkpt lat="43.1979330" lon="-1.1533590">
        <ele>231.9</ele>
        <time>2019-07-17T09:18:51Z</time>
      </trkpt>
      <trkpt lat="43.1979600" lon="-1.1532150">
        <ele>232.1</ele>
        <time>2019-07-17T09:18:55Z</time>
      </trkpt>
      <trkpt lat="43.1979960" lon="-1.1530780">
        <ele>232.5</ele>
        <time>2019-07-17T09:18:59Z</time>
      </trkpt>
      <trkpt lat="43.1980360" lon="-1.1529320">
        <ele>232.9</ele>
        <time>2019-07-17T09:19:03Z</time>
      </trkpt>
      <trkpt lat="43.1980670" lon="-1.1527880">
        <ele>233.3</ele>
        <time>2019-07-17T09:19:07Z</time>
      </trkpt>
      <trkpt lat="43.1981070" lon="-1.1526520">
        <ele>233.7</ele>
        <time>2019-07-17T09:19:11Z</time>
      </trkpt>
      <trkpt lat="43.1981440" lon="-1.1525160">
        <ele>233.8</ele>
        <time>2019-07-17T09:19:15Z</time>
      </trkpt>
      <trkpt lat="43.1981850" lon="-1.1523830">
        <ele>234.0</ele>
        <time>2019-07-17T09:19:19Z</time>
      </trkpt>
      <trkpt lat="43.1982340" lon="-1.1522450">
        <ele>234.1</ele>
        <time>2019-07-17T09:19:23Z</time>
      </trkpt>
      <trkpt lat="43.1982780" lon="-1.1521150">
        <ele>234.1</ele>
        <time>2019-07-17T09:19:27Z</time>
      </trkpt>
      <trkpt lat="43.1983360" lon="-1.1519800">
        <ele>234.1</ele>
        <time>2019-07-17T09:19:31Z</time>
      </trkpt>
      <trkpt lat="43.1983980" lon="-1.1518480">
        <ele>234.1</ele>
        <time>2019-07-17T09:19:35Z</time>
      </trkpt>
      <trkpt lat="43.1984720" lon="-1.1517230">
        <ele>234.1</ele>
        <time>2019-07-17T09:19:39Z</time>
      </trkpt>
      <trkpt lat="43.1985290" lon="-1.1516180">
        <ele>234.0</ele>
        <time>2019-07-17T09:19:42Z</time>
      </trkpt>
      <trkpt lat="43.1985900" lon="-1.1515210">
        <ele>233.9</ele>
        <time>2019-07-17T09:19:45Z</time>
      </trkpt>
      <trkpt lat="43.1986420" lon="-1.1513820">
        <ele>233.8</ele>
        <time>2019-07-17T09:19:49Z</time>
      </trkpt>
      <trkpt lat="43.1986320" lon="-1.1512490">
        <ele>234.4</ele>
        <time>2019-07-17T09:19:52Z</time>
      </trkpt>
      <trkpt lat="43.1985880" lon="-1.1511370">
        <ele>234.9</ele>
        <time>2019-07-17T09:19:56Z</time>
      </trkpt>
      <trkpt lat="43.1985890" lon="-1.1511310">
        <ele>234.9</ele>
        <time>2019-07-17T09:20:01Z</time>
      </trkpt>
      <trkpt lat="43.1985520" lon="-1.1509880">
        <ele>235.3</ele>
        <time>2019-07-17T09:21:48Z</time>
      </trkpt>
      <trkpt lat="43.1985040" lon="-1.1508420">
        <ele>235.5</ele>
        <time>2019-07-17T09:21:52Z</time>
      </trkpt>
      <trkpt lat="43.1984810" lon="-1.1507200">
        <ele>235.7</ele>
        <time>2019-07-17T09:21:55Z</time>
      </trkpt>
      <trkpt lat="43.1984620" lon="-1.1505970">
        <ele>235.9</ele>
        <time>2019-07-17T09:21:58Z</time>
      </trkpt>
      <trkpt lat="43.1984440" lon="-1.1504760">
        <ele>236.1</ele>
        <time>2019-07-17T09:22:01Z</time>
      </trkpt>
      <trkpt lat="43.1984280" lon="-1.1503190">
        <ele>236.2</ele>
        <time>2019-07-17T09:22:05Z</time>
      </trkpt>
      <trkpt lat="43.1984330" lon="-1.1501720">
        <ele>236.4</ele>
        <time>2019-07-17T09:22:09Z</time>
      </trkpt>
      <trkpt lat="43.1984590" lon="-1.1500300">
        <ele>236.5</ele>
        <time>2019-07-17T09:22:13Z</time>
      </trkpt>
      <trkpt lat="43.1984880" lon="-1.1498810">
        <ele>236.7</ele>
        <time>2019-07-17T09:22:17Z</time>
      </trkpt>
      <trkpt lat="43.1985330" lon="-1.1497350">
        <ele>237.2</ele>
        <time>2019-07-17T09:22:21Z</time>
      </trkpt>
      <trkpt lat="43.1985880" lon="-1.1495910">
        <ele>237.7</ele>
        <time>2019-07-17T09:22:25Z</time>
      </trkpt>
      <trkpt lat="43.1986400" lon="-1.1494450">
        <ele>238.2</ele>
        <time>2019-07-17T09:22:29Z</time>
      </trkpt>
      <trkpt lat="43.1986890" lon="-1.1493020">
        <ele>238.4</ele>
        <time>2019-07-17T09:22:33Z</time>
      </trkpt>
      <trkpt lat="43.1987320" lon="-1.1491680">
        <ele>238.6</ele>
        <time>2019-07-17T09:22:37Z</time>
      </trkpt>
      <trkpt lat="43.1987720" lon="-1.1490290">
        <ele>238.8</ele>
        <time>2019-07-17T09:22:41Z</time>
      </trkpt>
      <trkpt lat="43.1988110" lon="-1.1488810">
        <ele>239.0</ele>
        <time>2019-07-17T09:22:45Z</time>
      </trkpt>
      <trkpt lat="43.1988260" lon="-1.1487280">
        <ele>239.2</ele>
        <time>2019-07-17T09:22:49Z</time>
      </trkpt>
      <trkpt lat="43.1988480" lon="-1.1485800">
        <ele>239.7</ele>
        <time>2019-07-17T09:22:53Z</time>
      </trkpt>
      <trkpt lat="43.1988840" lon="-1.1484540">
        <ele>240.2</ele>
        <time>2019-07-17T09:22:57Z</time>
      </trkpt>
      <trkpt lat="43.1989130" lon="-1.1483280">
        <ele>240.6</ele>
        <time>2019-07-17T09:23:01Z</time>
      </trkpt>
      <trkpt lat="43.1989470" lon="-1.1481980">
        <ele>240.8</ele>
        <time>2019-07-17T09:23:05Z</time>
      </trkpt>
      <trkpt lat="43.1989860" lon="-1.1480750">
        <ele>240.9</ele>
        <time>2019-07-17T09:23:09Z</time>
      </trkpt>
      <trkpt lat="43.1990110" lon="-1.1479530">
        <ele>241.0</ele>
        <time>2019-07-17T09:23:13Z</time>
      </trkpt>
      <trkpt lat="43.1990560" lon="-1.1478240">
        <ele>241.1</ele>
        <time>2019-07-17T09:23:18Z</time>
      </trkpt>
      <trkpt lat="43.1991020" lon="-1.1477020">
        <ele>240.9</ele>
        <time>2019-07-17T09:23:23Z</time>
      </trkpt>
      <trkpt lat="43.1991520" lon="-1.1475870">
        <ele>240.6</ele>
        <time>2019-07-17T09:23:28Z</time>
      </trkpt>
      <trkpt lat="43.1991990" lon="-1.1474620">
        <ele>240.3</ele>
        <time>2019-07-17T09:23:33Z</time>
      </trkpt>
      <trkpt lat="43.1992560" lon="-1.1473260">
        <ele>240.0</ele>
        <time>2019-07-17T09:23:38Z</time>
      </trkpt>
      <trkpt lat="43.1993210" lon="-1.1472050">
        <ele>239.8</ele>
        <time>2019-07-17T09:23:42Z</time>
      </trkpt>
      <trkpt lat="43.1993780" lon="-1.1471080">
        <ele>239.8</ele>
        <time>2019-07-17T09:23:45Z</time>
      </trkpt>
      <trkpt lat="43.1994420" lon="-1.1469970">
        <ele>239.7</ele>
        <time>2019-07-17T09:23:48Z</time>
      </trkpt>
      <trkpt lat="43.1995000" lon="-1.1468690">
        <ele>239.7</ele>
        <time>2019-07-17T09:23:51Z</time>
      </trkpt>
      <trkpt lat="43.1995570" lon="-1.1467500">
        <ele>239.7</ele>
        <time>2019-07-17T09:23:54Z</time>
      </trkpt>
      <trkpt lat="43.1996220" lon="-1.1466280">
        <ele>239.6</ele>
        <time>2019-07-17T09:23:57Z</time>
      </trkpt>
      <trkpt lat="43.1996900" lon="-1.1464990">
        <ele>239.5</ele>
        <time>2019-07-17T09:24:00Z</time>
      </trkpt>
      <trkpt lat="43.1997530" lon="-1.1463680">
        <ele>239.2</ele>
        <time>2019-07-17T09:24:03Z</time>
      </trkpt>
      <trkpt lat="43.1998050" lon="-1.1462250">
        <ele>238.7</ele>
        <time>2019-07-17T09:24:06Z</time>
      </trkpt>
      <trkpt lat="43.1998370" lon="-1.1460520">
        <ele>238.3</ele>
        <time>2019-07-17T09:24:09Z</time>
      </trkpt>
      <trkpt lat="43.1998710" lon="-1.1459160">
        <ele>238.0</ele>
        <time>2019-07-17T09:24:11Z</time>
      </trkpt>
      <trkpt lat="43.1999010" lon="-1.1457700">
        <ele>237.6</ele>
        <time>2019-07-17T09:24:13Z</time>
      </trkpt>
      <trkpt lat="43.1999270" lon="-1.1456150">
        <ele>237.1</ele>
        <time>2019-07-17T09:24:15Z</time>
      </trkpt>
      <trkpt lat="43.1999520" lon="-1.1454630">
        <ele>236.9</ele>
        <time>2019-07-17T09:24:17Z</time>
      </trkpt>
      <trkpt lat="43.1999910" lon="-1.1453170">
        <ele>236.8</ele>
        <time>2019-07-17T09:24:19Z</time>
      </trkpt>
      <trkpt lat="43.2000480" lon="-1.1451650">
        <ele>236.7</ele>
        <time>2019-07-17T09:24:21Z</time>
      </trkpt>
      <trkpt lat="43.2001350" lon="-1.1450130">
        <ele>237.2</ele>
        <time>2019-07-17T09:24:23Z</time>
      </trkpt>
      <trkpt lat="43.2002350" lon="-1.1448710">
        <ele>237.9</ele>
        <time>2019-07-17T09:24:25Z</time>
      </trkpt>
      <trkpt lat="43.2003300" lon="-1.1447370">
        <ele>238.3</ele>
        <time>2019-07-17T09:24:27Z</time>
      </trkpt>
      <trkpt lat="43.2004170" lon="-1.1446230">
        <ele>238.5</ele>
        <time>2019-07-17T09:24:29Z</time>
      </trkpt>
      <trkpt lat="43.2004910" lon="-1.1445280">
        <ele>238.6</ele>
        <time>2019-07-17T09:24:31Z</time>
      </trkpt>
      <trkpt lat="43.2005700" lon="-1.1444110">
        <ele>238.6</ele>
        <time>2019-07-17T09:24:34Z</time>
      </trkpt>
      <trkpt lat="43.2006450" lon="-1.1443160">
        <ele>238.5</ele>
        <time>2019-07-17T09:24:37Z</time>
      </trkpt>
      <trkpt lat="43.2007140" lon="-1.1442360">
        <ele>238.4</ele>
        <time>2019-07-17T09:24:40Z</time>
      </trkpt>
      <trkpt lat="43.2008050" lon="-1.1441370">
        <ele>238.2</ele>
        <time>2019-07-17T09:24:44Z</time>
      </trkpt>
      <trkpt lat="43.2008900" lon="-1.1440750">
        <ele>237.9</ele>
        <time>2019-07-17T09:24:47Z</time>
      </trkpt>
      <trkpt lat="43.2009820" lon="-1.1440090">
        <ele>237.4</ele>
        <time>2019-07-17T09:24:50Z</time>
      </trkpt>
      <trkpt lat="43.2010940" lon="-1.1439530">
        <ele>237.3</ele>
        <time>2019-07-17T09:24:53Z</time>
      </trkpt>
      <trkpt lat="43.2012220" lon="-1.1439000">
        <ele>237.2</ele>
        <time>2019-07-17T09:24:56Z</time>
      </trkpt>
      <trkpt lat="43.2013140" lon="-1.1438740">
        <ele>237.2</ele>
        <time>2019-07-17T09:24:58Z</time>
      </trkpt>
      <trkpt lat="43.2014140" lon="-1.1438450">
        <ele>237.2</ele>
        <time>2019-07-17T09:25:00Z</time>
      </trkpt>
      <trkpt lat="43.2015240" lon="-1.1438080">
        <ele>237.3</ele>
        <time>2019-07-17T09:25:02Z</time>
      </trkpt>
      <trkpt lat="43.2016250" lon="-1.1437380">
        <ele>237.4</ele>
        <time>2019-07-17T09:25:04Z</time>
      </trkpt>
      <trkpt lat="43.2017120" lon="-1.1436440">
        <ele>237.7</ele>
        <time>2019-07-17T09:25:06Z</time>
      </trkpt>
      <trkpt lat="43.2017840" lon="-1.1435390">
        <ele>238.2</ele>
        <time>2019-07-17T09:25:08Z</time>
      </trkpt>
      <trkpt lat="43.2018670" lon="-1.1434290">
        <ele>238.9</ele>
        <time>2019-07-17T09:25:11Z</time>
      </trkpt>
      <trkpt lat="43.2019340" lon="-1.1433250">
        <ele>239.7</ele>
        <time>2019-07-17T09:25:14Z</time>
      </trkpt>
      <trkpt lat="43.2020130" lon="-1.1432260">
        <ele>240.5</ele>
        <time>2019-07-17T09:25:17Z</time>
      </trkpt>
      <trkpt lat="43.2021030" lon="-1.1431780">
        <ele>241.2</ele>
        <time>2019-07-17T09:25:20Z</time>
      </trkpt>
      <trkpt lat="43.2021950" lon="-1.1431220">
        <ele>242.1</ele>
        <time>2019-07-17T09:25:24Z</time>
      </trkpt>
      <trkpt lat="43.2022840" lon="-1.1430900">
        <ele>242.7</ele>
        <time>2019-07-17T09:25:28Z</time>
      </trkpt>
      <trkpt lat="43.2023680" lon="-1.1430220">
        <ele>243.3</ele>
        <time>2019-07-17T09:25:33Z</time>
      </trkpt>
      <trkpt lat="43.2024480" lon="-1.1429500">
        <ele>243.8</ele>
        <time>2019-07-17T09:25:38Z</time>
      </trkpt>
      <trkpt lat="43.2025400" lon="-1.1428730">
        <ele>244.3</ele>
        <time>2019-07-17T09:25:44Z</time>
      </trkpt>
      <trkpt lat="43.2026170" lon="-1.1427960">
        <ele>244.6</ele>
        <time>2019-07-17T09:25:49Z</time>
      </trkpt>
      <trkpt lat="43.2027030" lon="-1.1427110">
        <ele>244.9</ele>
        <time>2019-07-17T09:25:54Z</time>
      </trkpt>
      <trkpt lat="43.2027860" lon="-1.1426190">
        <ele>245.1</ele>
        <time>2019-07-17T09:25:59Z</time>
      </trkpt>
      <trkpt lat="43.2028700" lon="-1.1425330">
        <ele>245.4</ele>
        <time>2019-07-17T09:26:04Z</time>
      </trkpt>
      <trkpt lat="43.2029230" lon="-1.1424220">
        <ele>245.7</ele>
        <time>2019-07-17T09:26:09Z</time>
      </trkpt>
      <trkpt lat="43.2029690" lon="-1.1422850">
        <ele>246.1</ele>
        <time>2019-07-17T09:26:14Z</time>
      </trkpt>
      <trkpt lat="43.2030060" lon="-1.1421450">
        <ele>246.5</ele>
        <time>2019-07-17T09:26:19Z</time>
      </trkpt>
      <trkpt lat="43.2030390" lon="-1.1420100">
        <ele>246.9</ele>
        <time>2019-07-17T09:26:24Z</time>
      </trkpt>
      <trkpt lat="43.2030760" lon="-1.1418820">
        <ele>247.3</ele>
        <time>2019-07-17T09:26:29Z</time>
      </trkpt>
      <trkpt lat="43.2031130" lon="-1.1417650">
        <ele>247.7</ele>
        <time>2019-07-17T09:26:34Z</time>
      </trkpt>
      <trkpt lat="43.2031590" lon="-1.1416460">
        <ele>248.4</ele>
        <time>2019-07-17T09:26:39Z</time>
      </trkpt>
      <trkpt lat="43.2032000" lon="-1.1415300">
        <ele>249.0</ele>
        <time>2019-07-17T09:26:44Z</time>
      </trkpt>
      <trkpt lat="43.2032640" lon="-1.1414170">
        <ele>249.8</ele>
        <time>2019-07-17T09:26:50Z</time>
      </trkpt>
      <trkpt lat="43.2033140" lon="-1.1413100">
        <ele>250.4</ele>
        <time>2019-07-17T09:26:55Z</time>
      </trkpt>
      <trkpt lat="43.2033830" lon="-1.1412260">
        <ele>251.0</ele>
        <time>2019-07-17T09:27:02Z</time>
      </trkpt>
      <trkpt lat="43.2034660" lon="-1.1411570">
        <ele>251.7</ele>
        <time>2019-07-17T09:27:08Z</time>
      </trkpt>
      <trkpt lat="43.2035600" lon="-1.1411050">
        <ele>252.6</ele>
        <time>2019-07-17T09:27:14Z</time>
      </trkpt>
      <trkpt lat="43.2036510" lon="-1.1410490">
        <ele>253.4</ele>
        <time>2019-07-17T09:27:20Z</time>
      </trkpt>
      <trkpt lat="43.2037400" lon="-1.1409810">
        <ele>254.3</ele>
        <time>2019-07-17T09:27:27Z</time>
      </trkpt>
      <trkpt lat="43.2038050" lon="-1.1408920">
        <ele>255.0</ele>
        <time>2019-07-17T09:27:33Z</time>
      </trkpt>
      <trkpt lat="43.2038650" lon="-1.1407890">
        <ele>255.9</ele>
        <time>2019-07-17T09:27:39Z</time>
      </trkpt>
      <trkpt lat="43.2039260" lon="-1.1406830">
        <ele>256.7</ele>
        <time>2019-07-17T09:27:45Z</time>
      </trkpt>
      <trkpt lat="43.2039930" lon="-1.1405780">
        <ele>257.8</ele>
        <time>2019-07-17T09:27:52Z</time>
      </trkpt>
      <trkpt lat="43.2040590" lon="-1.1404790">
        <ele>258.6</ele>
        <time>2019-07-17T09:27:59Z</time>
      </trkpt>
      <trkpt lat="43.2041240" lon="-1.1403750">
        <ele>259.4</ele>
        <time>2019-07-17T09:28:06Z</time>
      </trkpt>
      <trkpt lat="43.2041970" lon="-1.1402730">
        <ele>260.3</ele>
        <time>2019-07-17T09:28:13Z</time>
      </trkpt>
      <trkpt lat="43.2042690" lon="-1.1401890">
        <ele>261.0</ele>
        <time>2019-07-17T09:28:19Z</time>
      </trkpt>
      <trkpt lat="43.2043500" lon="-1.1401100">
        <ele>261.6</ele>
        <time>2019-07-17T09:28:25Z</time>
      </trkpt>
      <trkpt lat="43.2044370" lon="-1.1400550">
        <ele>262.3</ele>
        <time>2019-07-17T09:28:31Z</time>
      </trkpt>
      <trkpt lat="43.2045110" lon="-1.1399830">
        <ele>262.7</ele>
        <time>2019-07-17T09:28:37Z</time>
      </trkpt>
      <trkpt lat="43.2046000" lon="-1.1399450">
        <ele>263.3</ele>
        <time>2019-07-17T09:28:43Z</time>
      </trkpt>
      <trkpt lat="43.2046950" lon="-1.1399270">
        <ele>263.7</ele>
        <time>2019-07-17T09:28:49Z</time>
      </trkpt>
      <trkpt lat="43.2047940" lon="-1.1399040">
        <ele>264.2</ele>
        <time>2019-07-17T09:28:55Z</time>
      </trkpt>
      <trkpt lat="43.2048940" lon="-1.1398770">
        <ele>264.5</ele>
        <time>2019-07-17T09:29:01Z</time>
      </trkpt>
      <trkpt lat="43.2049950" lon="-1.1398540">
        <ele>264.8</ele>
        <time>2019-07-17T09:29:07Z</time>
      </trkpt>
      <trkpt lat="43.2050820" lon="-1.1398170">
        <ele>264.9</ele>
        <time>2019-07-17T09:29:12Z</time>
      </trkpt>
      <trkpt lat="43.2051860" lon="-1.1397810">
        <ele>265.0</ele>
        <time>2019-07-17T09:29:18Z</time>
      </trkpt>
      <trkpt lat="43.2052790" lon="-1.1397540">
        <ele>265.0</ele>
        <time>2019-07-17T09:29:23Z</time>
      </trkpt>
      <trkpt lat="43.2053710" lon="-1.1397170">
        <ele>265.0</ele>
        <time>2019-07-17T09:29:28Z</time>
      </trkpt>
      <trkpt lat="43.2054650" lon="-1.1396810">
        <ele>265.0</ele>
        <time>2019-07-17T09:29:33Z</time>
      </trkpt>
      <trkpt lat="43.2055640" lon="-1.1396550">
        <ele>265.0</ele>
        <time>2019-07-17T09:29:38Z</time>
      </trkpt>
      <trkpt lat="43.2056580" lon="-1.1396310">
        <ele>265.0</ele>
        <time>2019-07-17T09:29:42Z</time>
      </trkpt>
      <trkpt lat="43.2057500" lon="-1.1396170">
        <ele>265.1</ele>
        <time>2019-07-17T09:29:46Z</time>
      </trkpt>
      <trkpt lat="43.2058500" lon="-1.1395740">
        <ele>265.1</ele>
        <time>2019-07-17T09:29:51Z</time>
      </trkpt>
      <trkpt lat="43.2059470" lon="-1.1395670">
        <ele>265.3</ele>
        <time>2019-07-17T09:29:56Z</time>
      </trkpt>
      <trkpt lat="43.2060490" lon="-1.1395540">
        <ele>265.5</ele>
        <time>2019-07-17T09:30:01Z</time>
      </trkpt>
      <trkpt lat="43.2061480" lon="-1.1395270">
        <ele>265.8</ele>
        <time>2019-07-17T09:30:06Z</time>
      </trkpt>
      <trkpt lat="43.2062410" lon="-1.1395220">
        <ele>266.2</ele>
        <time>2019-07-17T09:30:11Z</time>
      </trkpt>
      <trkpt lat="43.2063400" lon="-1.1395160">
        <ele>266.6</ele>
        <time>2019-07-17T09:30:16Z</time>
      </trkpt>
      <trkpt lat="43.2064300" lon="-1.1395210">
        <ele>266.8</ele>
        <time>2019-07-17T09:30:21Z</time>
      </trkpt>
      <trkpt lat="43.2065200" lon="-1.1395150">
        <ele>267.1</ele>
        <time>2019-07-17T09:30:26Z</time>
      </trkpt>
      <trkpt lat="43.2066250" lon="-1.1395040">
        <ele>267.3</ele>
        <time>2019-07-17T09:30:32Z</time>
      </trkpt>
      <trkpt lat="43.2067180" lon="-1.1394850">
        <ele>267.1</ele>
        <time>2019-07-17T09:30:37Z</time>
      </trkpt>
      <trkpt lat="43.2068220" lon="-1.1394580">
        <ele>266.8</ele>
        <time>2019-07-17T09:30:43Z</time>
      </trkpt>
      <trkpt lat="43.2069170" lon="-1.1394300">
        <ele>266.5</ele>
        <time>2019-07-17T09:30:49Z</time>
      </trkpt>
      <trkpt lat="43.2069340" lon="-1.1394200">
        <ele>266.4</ele>
        <time>2019-07-17T09:30:56Z</time>
      </trkpt>
      <trkpt lat="43.2069450" lon="-1.1393860">
        <ele>266.3</ele>
        <time>2019-07-17T09:31:36Z</time>
      </trkpt>
      <trkpt lat="43.2070570" lon="-1.1393570">
        <ele>265.7</ele>
        <time>2019-07-17T09:31:51Z</time>
      </trkpt>
      <trkpt lat="43.2071660" lon="-1.1393030">
        <ele>264.8</ele>
        <time>2019-07-17T09:31:54Z</time>
      </trkpt>
      <trkpt lat="43.2072620" lon="-1.1392380">
        <ele>264.0</ele>
        <time>2019-07-17T09:31:56Z</time>
      </trkpt>
      <trkpt lat="43.2073560" lon="-1.1391780">
        <ele>263.2</ele>
        <time>2019-07-17T09:31:58Z</time>
      </trkpt>
      <trkpt lat="43.2074500" lon="-1.1391200">
        <ele>262.5</ele>
        <time>2019-07-17T09:32:00Z</time>
      </trkpt>
      <trkpt lat="43.2075600" lon="-1.1390530">
        <ele>261.7</ele>
        <time>2019-07-17T09:32:02Z</time>
      </trkpt>
      <trkpt lat="43.2076790" lon="-1.1389730">
        <ele>261.2</ele>
        <time>2019-07-17T09:32:04Z</time>
      </trkpt>
      <trkpt lat="43.2078010" lon="-1.1388800">
        <ele>260.9</ele>
        <time>2019-07-17T09:32:06Z</time>
      </trkpt>
      <trkpt lat="43.2079220" lon="-1.1387830">
        <ele>260.7</ele>
        <time>2019-07-17T09:32:08Z</time>
      </trkpt>
      <trkpt lat="43.2080450" lon="-1.1386890">
        <ele>260.6</ele>
        <time>2019-07-17T09:32:10Z</time>
      </trkpt>
      <trkpt lat="43.2081560" lon="-1.1386030">
        <ele>260.6</ele>
        <time>2019-07-17T09:32:12Z</time>
      </trkpt>
      <trkpt lat="43.2082550" lon="-1.1385200">
        <ele>260.5</ele>
        <time>2019-07-17T09:32:14Z</time>
      </trkpt>
      <trkpt lat="43.2083490" lon="-1.1384510">
        <ele>260.5</ele>
        <time>2019-07-17T09:32:16Z</time>
      </trkpt>
      <trkpt lat="43.2084400" lon="-1.1383980">
        <ele>260.4</ele>
        <time>2019-07-17T09:32:18Z</time>
      </trkpt>
      <trkpt lat="43.2085310" lon="-1.1383500">
        <ele>260.4</ele>
        <time>2019-07-17T09:32:20Z</time>
      </trkpt>
      <trkpt lat="43.2086490" lon="-1.1382840">
        <ele>260.3</ele>
        <time>2019-07-17T09:32:23Z</time>
      </trkpt>
      <trkpt lat="43.2087670" lon="-1.1382410">
        <ele>260.2</ele>
        <time>2019-07-17T09:32:26Z</time>
      </trkpt>
      <trkpt lat="43.2088860" lon="-1.1382000">
        <ele>260.5</ele>
        <time>2019-07-17T09:32:29Z</time>
      </trkpt>
      <trkpt lat="43.2090150" lon="-1.1381570">
        <ele>260.8</ele>
        <time>2019-07-17T09:32:32Z</time>
      </trkpt>
      <trkpt lat="43.2091070" lon="-1.1381250">
        <ele>260.9</ele>
        <time>2019-07-17T09:32:34Z</time>
      </trkpt>
      <trkpt lat="43.2091980" lon="-1.1380920">
        <ele>261.1</ele>
        <time>2019-07-17T09:32:36Z</time>
      </trkpt>
      <trkpt lat="43.2092890" lon="-1.1380590">
        <ele>261.3</ele>
        <time>2019-07-17T09:32:38Z</time>
      </trkpt>
      <trkpt lat="43.2093830" lon="-1.1380210">
        <ele>261.3</ele>
        <time>2019-07-17T09:32:40Z</time>
      </trkpt>
      <trkpt lat="43.2094850" lon="-1.1379780">
        <ele>261.2</ele>
        <time>2019-07-17T09:32:42Z</time>
      </trkpt>
      <trkpt lat="43.2095950" lon="-1.1379380">
        <ele>261.3</ele>
        <time>2019-07-17T09:32:44Z</time>
      </trkpt>
      <trkpt lat="43.2097060" lon="-1.1378930">
        <ele>261.6</ele>
        <time>2019-07-17T09:32:46Z</time>
      </trkpt>
      <trkpt lat="43.2098110" lon="-1.1378450">
        <ele>262.3</ele>
        <time>2019-07-17T09:32:48Z</time>
      </trkpt>
      <trkpt lat="43.2099100" lon="-1.1378070">
        <ele>263.1</ele>
        <time>2019-07-17T09:32:50Z</time>
      </trkpt>
      <trkpt lat="43.2100010" lon="-1.1377850">
        <ele>263.7</ele>
        <time>2019-07-17T09:32:52Z</time>
      </trkpt>
      <trkpt lat="43.2101090" lon="-1.1377550">
        <ele>264.4</ele>
        <time>2019-07-17T09:32:55Z</time>
      </trkpt>
      <trkpt lat="43.2102200" lon="-1.1377290">
        <ele>265.4</ele>
        <time>2019-07-17T09:32:59Z</time>
      </trkpt>
      <trkpt lat="43.2103090" lon="-1.1376930">
        <ele>266.5</ele>
        <time>2019-07-17T09:33:03Z</time>
      </trkpt>
      <trkpt lat="43.2103810" lon="-1.1376110">
        <ele>267.7</ele>
        <time>2019-07-17T09:33:06Z</time>
      </trkpt>
      <trkpt lat="43.2104490" lon="-1.1375170">
        <ele>268.3</ele>
        <time>2019-07-17T09:33:09Z</time>
      </trkpt>
      <trkpt lat="43.2105160" lon="-1.1374220">
        <ele>269.0</ele>
        <time>2019-07-17T09:33:12Z</time>
      </trkpt>
      <trkpt lat="43.2106020" lon="-1.1373110">
        <ele>269.8</ele>
        <time>2019-07-17T09:33:16Z</time>
      </trkpt>
      <trkpt lat="43.2106880" lon="-1.1372130">
        <ele>270.4</ele>
        <time>2019-07-17T09:33:20Z</time>
      </trkpt>
      <trkpt lat="43.2107710" lon="-1.1371000">
        <ele>271.0</ele>
        <time>2019-07-17T09:33:24Z</time>
      </trkpt>
      <trkpt lat="43.2108500" lon="-1.1369920">
        <ele>271.5</ele>
        <time>2019-07-17T09:33:27Z</time>
      </trkpt>
      <trkpt lat="43.2109440" lon="-1.1368600">
        <ele>271.8</ele>
        <time>2019-07-17T09:33:30Z</time>
      </trkpt>
      <trkpt lat="43.2110260" lon="-1.1367580">
        <ele>271.9</ele>
        <time>2019-07-17T09:33:32Z</time>
      </trkpt>
      <trkpt lat="43.2111130" lon="-1.1366600">
        <ele>272.1</ele>
        <time>2019-07-17T09:33:34Z</time>
      </trkpt>
      <trkpt lat="43.2112230" lon="-1.1365660">
        <ele>272.2</ele>
        <time>2019-07-17T09:33:36Z</time>
      </trkpt>
      <trkpt lat="43.2113320" lon="-1.1364610">
        <ele>272.3</ele>
        <time>2019-07-17T09:33:38Z</time>
      </trkpt>
      <trkpt lat="43.2114520" lon="-1.1363560">
        <ele>272.4</ele>
        <time>2019-07-17T09:33:40Z</time>
      </trkpt>
      <trkpt lat="43.2115770" lon="-1.1362400">
        <ele>271.2</ele>
        <time>2019-07-17T09:33:42Z</time>
      </trkpt>
      <trkpt lat="43.2117040" lon="-1.1361260">
        <ele>269.8</ele>
        <time>2019-07-17T09:33:44Z</time>
      </trkpt>
      <trkpt lat="43.2118360" lon="-1.1360120">
        <ele>268.6</ele>
        <time>2019-07-17T09:33:46Z</time>
      </trkpt>
      <trkpt lat="43.2119760" lon="-1.1358810">
        <ele>267.4</ele>
        <time>2019-07-17T09:33:48Z</time>
      </trkpt>
      <trkpt lat="43.2120600" lon="-1.1358090">
        <ele>266.7</ele>
        <time>2019-07-17T09:33:49Z</time>
      </trkpt>
      <trkpt lat="43.2121380" lon="-1.1357300">
        <ele>266.0</ele>
        <time>2019-07-17T09:33:50Z</time>
      </trkpt>
      <trkpt lat="43.2122750" lon="-1.1355660">
        <ele>264.8</ele>
        <time>2019-07-17T09:33:52Z</time>
      </trkpt>
      <trkpt lat="43.2123980" lon="-1.1353950">
        <ele>263.6</ele>
        <time>2019-07-17T09:33:54Z</time>
      </trkpt>
      <trkpt lat="43.2125140" lon="-1.1352130">
        <ele>262.4</ele>
        <time>2019-07-17T09:33:56Z</time>
      </trkpt>
      <trkpt lat="43.2126320" lon="-1.1350280">
        <ele>261.1</ele>
        <time>2019-07-17T09:33:58Z</time>
      </trkpt>
      <trkpt lat="43.2126900" lon="-1.1349330">
        <ele>260.5</ele>
        <time>2019-07-17T09:33:59Z</time>
      </trkpt>
      <trkpt lat="43.2128020" lon="-1.1347530">
        <ele>259.5</ele>
        <time>2019-07-17T09:34:01Z</time>
      </trkpt>
      <trkpt lat="43.2129160" lon="-1.1345720">
        <ele>258.2</ele>
        <time>2019-07-17T09:34:03Z</time>
      </trkpt>
      <trkpt lat="43.2130270" lon="-1.1343830">
        <ele>256.8</ele>
        <time>2019-07-17T09:34:05Z</time>
      </trkpt>
      <trkpt lat="43.2131380" lon="-1.1341850">
        <ele>255.3</ele>
        <time>2019-07-17T09:34:07Z</time>
      </trkpt>
      <trkpt lat="43.2131900" lon="-1.1340830">
        <ele>254.7</ele>
        <time>2019-07-17T09:34:08Z</time>
      </trkpt>
      <trkpt lat="43.2132400" lon="-1.1339790">
        <ele>254.1</ele>
        <time>2019-07-17T09:34:09Z</time>
      </trkpt>
      <trkpt lat="43.2132840" lon="-1.1338670">
        <ele>253.5</ele>
        <time>2019-07-17T09:34:10Z</time>
      </trkpt>
      <trkpt lat="43.2133270" lon="-1.1337510">
        <ele>253.0</ele>
        <time>2019-07-17T09:34:11Z</time>
      </trkpt>
      <trkpt lat="43.2133690" lon="-1.1336310">
        <ele>252.5</ele>
        <time>2019-07-17T09:34:12Z</time>
      </trkpt>
      <trkpt lat="43.2134070" lon="-1.1335150">
        <ele>251.9</ele>
        <time>2019-07-17T09:34:13Z</time>
      </trkpt>
      <trkpt lat="43.2134730" lon="-1.1332890">
        <ele>250.9</ele>
        <time>2019-07-17T09:34:15Z</time>
      </trkpt>
      <trkpt lat="43.2135160" lon="-1.1330620">
        <ele>249.9</ele>
        <time>2019-07-17T09:34:17Z</time>
      </trkpt>
      <trkpt lat="43.2135330" lon="-1.1328270">
        <ele>248.7</ele>
        <time>2019-07-17T09:34:19Z</time>
      </trkpt>
      <trkpt lat="43.2135410" lon="-1.1327010">
        <ele>248.2</ele>
        <time>2019-07-17T09:34:20Z</time>
      </trkpt>
      <trkpt lat="43.2135640" lon="-1.1324680">
        <ele>246.0</ele>
        <time>2019-07-17T09:34:22Z</time>
      </trkpt>
      <trkpt lat="43.2135650" lon="-1.1323430">
        <ele>244.8</ele>
        <time>2019-07-17T09:34:23Z</time>
      </trkpt>
      <trkpt lat="43.2135620" lon="-1.1322150">
        <ele>243.6</ele>
        <time>2019-07-17T09:34:24Z</time>
      </trkpt>
      <trkpt lat="43.2135580" lon="-1.1320830">
        <ele>242.2</ele>
        <time>2019-07-17T09:34:25Z</time>
      </trkpt>
      <trkpt lat="43.2135540" lon="-1.1319500">
        <ele>240.8</ele>
        <time>2019-07-17T09:34:26Z</time>
      </trkpt>
      <trkpt lat="43.2135490" lon="-1.1318110">
        <ele>239.3</ele>
        <time>2019-07-17T09:34:27Z</time>
      </trkpt>
      <trkpt lat="43.2135450" lon="-1.1316710">
        <ele>238.1</ele>
        <time>2019-07-17T09:34:28Z</time>
      </trkpt>
      <trkpt lat="43.2135410" lon="-1.1315320">
        <ele>237.1</ele>
        <time>2019-07-17T09:34:29Z</time>
      </trkpt>
      <trkpt lat="43.2135380" lon="-1.1313990">
        <ele>236.2</ele>
        <time>2019-07-17T09:34:30Z</time>
      </trkpt>
      <trkpt lat="43.2135350" lon="-1.1312640">
        <ele>235.2</ele>
        <time>2019-07-17T09:34:31Z</time>
      </trkpt>
      <trkpt lat="43.2135300" lon="-1.1311340">
        <ele>234.3</ele>
        <time>2019-07-17T09:34:32Z</time>
      </trkpt>
      <trkpt lat="43.2135260" lon="-1.1309980">
        <ele>233.4</ele>
        <time>2019-07-17T09:34:33Z</time>
      </trkpt>
      <trkpt lat="43.2135230" lon="-1.1308640">
        <ele>232.5</ele>
        <time>2019-07-17T09:34:34Z</time>
      </trkpt>
      <trkpt lat="43.2135250" lon="-1.1307250">
        <ele>231.5</ele>
        <time>2019-07-17T09:34:35Z</time>
      </trkpt>
      <trkpt lat="43.2135330" lon="-1.1305870">
        <ele>230.4</ele>
        <time>2019-07-17T09:34:36Z</time>
      </trkpt>
      <trkpt lat="43.2135420" lon="-1.1304510">
        <ele>229.1</ele>
        <time>2019-07-17T09:34:37Z</time>
      </trkpt>
      <trkpt lat="43.2135520" lon="-1.1303230">
        <ele>228.1</ele>
        <time>2019-07-17T09:34:38Z</time>
      </trkpt>
      <trkpt lat="43.2135640" lon="-1.1301960">
        <ele>227.2</ele>
        <time>2019-07-17T09:34:39Z</time>
      </trkpt>
      <trkpt lat="43.2135760" lon="-1.1300670">
        <ele>226.2</ele>
        <time>2019-07-17T09:34:40Z</time>
      </trkpt>
      <trkpt lat="43.2135880" lon="-1.1299390">
        <ele>224.8</ele>
        <time>2019-07-17T09:34:41Z</time>
      </trkpt>
      <trkpt lat="43.2136050" lon="-1.1298150">
        <ele>223.5</ele>
        <time>2019-07-17T09:34:42Z</time>
      </trkpt>
      <trkpt lat="43.2136260" lon="-1.1296920">
        <ele>222.1</ele>
        <time>2019-07-17T09:34:43Z</time>
      </trkpt>
      <trkpt lat="43.2136510" lon="-1.1295690">
        <ele>220.7</ele>
        <time>2019-07-17T09:34:44Z</time>
      </trkpt>
      <trkpt lat="43.2136820" lon="-1.1294430">
        <ele>219.3</ele>
        <time>2019-07-17T09:34:45Z</time>
      </trkpt>
      <trkpt lat="43.2137200" lon="-1.1293170">
        <ele>217.9</ele>
        <time>2019-07-17T09:34:46Z</time>
      </trkpt>
      <trkpt lat="43.2137630" lon="-1.1291880">
        <ele>216.8</ele>
        <time>2019-07-17T09:34:47Z</time>
      </trkpt>
      <trkpt lat="43.2138110" lon="-1.1290600">
        <ele>215.9</ele>
        <time>2019-07-17T09:34:48Z</time>
      </trkpt>
      <trkpt lat="43.2138640" lon="-1.1289330">
        <ele>214.9</ele>
        <time>2019-07-17T09:34:49Z</time>
      </trkpt>
      <trkpt lat="43.2139190" lon="-1.1288110">
        <ele>214.1</ele>
        <time>2019-07-17T09:34:50Z</time>
      </trkpt>
      <trkpt lat="43.2139750" lon="-1.1286930">
        <ele>213.2</ele>
        <time>2019-07-17T09:34:51Z</time>
      </trkpt>
      <trkpt lat="43.2140320" lon="-1.1285750">
        <ele>212.3</ele>
        <time>2019-07-17T09:34:52Z</time>
      </trkpt>
      <trkpt lat="43.2140870" lon="-1.1284530">
        <ele>211.4</ele>
        <time>2019-07-17T09:34:53Z</time>
      </trkpt>
      <trkpt lat="43.2141420" lon="-1.1283270">
        <ele>210.5</ele>
        <time>2019-07-17T09:34:54Z</time>
      </trkpt>
      <trkpt lat="43.2141960" lon="-1.1282050">
        <ele>209.7</ele>
        <time>2019-07-17T09:34:55Z</time>
      </trkpt>
      <trkpt lat="43.2142510" lon="-1.1280840">
        <ele>208.9</ele>
        <time>2019-07-17T09:34:56Z</time>
      </trkpt>
      <trkpt lat="43.2143070" lon="-1.1279650">
        <ele>208.1</ele>
        <time>2019-07-17T09:34:57Z</time>
      </trkpt>
      <trkpt lat="43.2143570" lon="-1.1278500">
        <ele>207.2</ele>
        <time>2019-07-17T09:34:58Z</time>
      </trkpt>
      <trkpt lat="43.2144080" lon="-1.1277400">
        <ele>206.2</ele>
        <time>2019-07-17T09:34:59Z</time>
      </trkpt>
      <trkpt lat="43.2144550" lon="-1.1276290">
        <ele>205.4</ele>
        <time>2019-07-17T09:35:00Z</time>
      </trkpt>
      <trkpt lat="43.2145020" lon="-1.1275110">
        <ele>204.7</ele>
        <time>2019-07-17T09:35:01Z</time>
      </trkpt>
      <trkpt lat="43.2145490" lon="-1.1273900">
        <ele>204.1</ele>
        <time>2019-07-17T09:35:02Z</time>
      </trkpt>
      <trkpt lat="43.2145990" lon="-1.1272640">
        <ele>203.3</ele>
        <time>2019-07-17T09:35:03Z</time>
      </trkpt>
      <trkpt lat="43.2146500" lon="-1.1271370">
        <ele>202.3</ele>
        <time>2019-07-17T09:35:04Z</time>
      </trkpt>
      <trkpt lat="43.2147010" lon="-1.1270060">
        <ele>201.4</ele>
        <time>2019-07-17T09:35:05Z</time>
      </trkpt>
      <trkpt lat="43.2147540" lon="-1.1268730">
        <ele>200.6</ele>
        <time>2019-07-17T09:35:06Z</time>
      </trkpt>
      <trkpt lat="43.2148060" lon="-1.1267400">
        <ele>199.8</ele>
        <time>2019-07-17T09:35:07Z</time>
      </trkpt>
      <trkpt lat="43.2148610" lon="-1.1266060">
        <ele>199.0</ele>
        <time>2019-07-17T09:35:08Z</time>
      </trkpt>
      <trkpt lat="43.2149140" lon="-1.1264720">
        <ele>198.4</ele>
        <time>2019-07-17T09:35:09Z</time>
      </trkpt>
      <trkpt lat="43.2149700" lon="-1.1263390">
        <ele>197.8</ele>
        <time>2019-07-17T09:35:10Z</time>
      </trkpt>
      <trkpt lat="43.2150240" lon="-1.1262110">
        <ele>197.3</ele>
        <time>2019-07-17T09:35:11Z</time>
      </trkpt>
      <trkpt lat="43.2150790" lon="-1.1260850">
        <ele>196.9</ele>
        <time>2019-07-17T09:35:12Z</time>
      </trkpt>
      <trkpt lat="43.2151380" lon="-1.1259600">
        <ele>196.4</ele>
        <time>2019-07-17T09:35:13Z</time>
      </trkpt>
      <trkpt lat="43.2151990" lon="-1.1258370">
        <ele>195.7</ele>
        <time>2019-07-17T09:35:14Z</time>
      </trkpt>
      <trkpt lat="43.2152640" lon="-1.1257150">
        <ele>195.0</ele>
        <time>2019-07-17T09:35:15Z</time>
      </trkpt>
      <trkpt lat="43.2153360" lon="-1.1255990">
        <ele>194.1</ele>
        <time>2019-07-17T09:35:16Z</time>
      </trkpt>
      <trkpt lat="43.2154130" lon="-1.1254930">
        <ele>193.3</ele>
        <time>2019-07-17T09:35:17Z</time>
      </trkpt>
      <trkpt lat="43.2154950" lon="-1.1253920">
        <ele>192.6</ele>
        <time>2019-07-17T09:35:18Z</time>
      </trkpt>
      <trkpt lat="43.2155810" lon="-1.1252960">
        <ele>192.0</ele>
        <time>2019-07-17T09:35:19Z</time>
      </trkpt>
      <trkpt lat="43.2156690" lon="-1.1252010">
        <ele>191.4</ele>
        <time>2019-07-17T09:35:20Z</time>
      </trkpt>
      <trkpt lat="43.2157550" lon="-1.1251070">
        <ele>190.7</ele>
        <time>2019-07-17T09:35:21Z</time>
      </trkpt>
      <trkpt lat="43.2158420" lon="-1.1250170">
        <ele>190.0</ele>
        <time>2019-07-17T09:35:22Z</time>
      </trkpt>
      <trkpt lat="43.2159310" lon="-1.1249280">
        <ele>189.4</ele>
        <time>2019-07-17T09:35:23Z</time>
      </trkpt>
      <trkpt lat="43.2160180" lon="-1.1248390">
        <ele>188.9</ele>
        <time>2019-07-17T09:35:24Z</time>
      </trkpt>
      <trkpt lat="43.2161040" lon="-1.1247500">
        <ele>188.4</ele>
        <time>2019-07-17T09:35:25Z</time>
      </trkpt>
      <trkpt lat="43.2161900" lon="-1.1246600">
        <ele>187.9</ele>
        <time>2019-07-17T09:35:26Z</time>
      </trkpt>
      <trkpt lat="43.2162790" lon="-1.1245750">
        <ele>187.4</ele>
        <time>2019-07-17T09:35:27Z</time>
      </trkpt>
      <trkpt lat="43.2163650" lon="-1.1244910">
        <ele>187.0</ele>
        <time>2019-07-17T09:35:28Z</time>
      </trkpt>
      <trkpt lat="43.2164500" lon="-1.1244080">
        <ele>186.5</ele>
        <time>2019-07-17T09:35:29Z</time>
      </trkpt>
      <trkpt lat="43.2165350" lon="-1.1243230">
        <ele>186.1</ele>
        <time>2019-07-17T09:35:30Z</time>
      </trkpt>
      <trkpt lat="43.2166170" lon="-1.1242390">
        <ele>185.7</ele>
        <time>2019-07-17T09:35:31Z</time>
      </trkpt>
      <trkpt lat="43.2166980" lon="-1.1241570">
        <ele>185.4</ele>
        <time>2019-07-17T09:35:32Z</time>
      </trkpt>
      <trkpt lat="43.2167820" lon="-1.1240760">
        <ele>185.0</ele>
        <time>2019-07-17T09:35:33Z</time>
      </trkpt>
      <trkpt lat="43.2168630" lon="-1.1239970">
        <ele>184.6</ele>
        <time>2019-07-17T09:35:34Z</time>
      </trkpt>
      <trkpt lat="43.2169410" lon="-1.1239160">
        <ele>184.3</ele>
        <time>2019-07-17T09:35:35Z</time>
      </trkpt>
      <trkpt lat="43.2170180" lon="-1.1238360">
        <ele>184.0</ele>
        <time>2019-07-17T09:35:36Z</time>
      </trkpt>
      <trkpt lat="43.2170950" lon="-1.1237580">
        <ele>183.7</ele>
        <time>2019-07-17T09:35:37Z</time>
      </trkpt>
      <trkpt lat="43.2171720" lon="-1.1236800">
        <ele>183.4</ele>
        <time>2019-07-17T09:35:38Z</time>
      </trkpt>
      <trkpt lat="43.2172470" lon="-1.1236040">
        <ele>183.3</ele>
        <time>2019-07-17T09:35:39Z</time>
      </trkpt>
      <trkpt lat="43.2173220" lon="-1.1235310">
        <ele>183.2</ele>
        <time>2019-07-17T09:35:40Z</time>
      </trkpt>
      <trkpt lat="43.2173980" lon="-1.1234570">
        <ele>183.1</ele>
        <time>2019-07-17T09:35:41Z</time>
      </trkpt>
      <trkpt lat="43.2174710" lon="-1.1233800">
        <ele>183.0</ele>
        <time>2019-07-17T09:35:42Z</time>
      </trkpt>
      <trkpt lat="43.2175440" lon="-1.1233010">
        <ele>182.9</ele>
        <time>2019-07-17T09:35:43Z</time>
      </trkpt>
      <trkpt lat="43.2176180" lon="-1.1232250">
        <ele>182.8</ele>
        <time>2019-07-17T09:35:44Z</time>
      </trkpt>
      <trkpt lat="43.2176920" lon="-1.1231490">
        <ele>182.7</ele>
        <time>2019-07-17T09:35:45Z</time>
      </trkpt>
      <trkpt lat="43.2177680" lon="-1.1230750">
        <ele>182.6</ele>
        <time>2019-07-17T09:35:46Z</time>
      </trkpt>
      <trkpt lat="43.2178420" lon="-1.1230030">
        <ele>182.4</ele>
        <time>2019-07-17T09:35:47Z</time>
      </trkpt>
      <trkpt lat="43.2179170" lon="-1.1229290">
        <ele>182.3</ele>
        <time>2019-07-17T09:35:48Z</time>
      </trkpt>
      <trkpt lat="43.2179910" lon="-1.1228540">
        <ele>182.1</ele>
        <time>2019-07-17T09:35:49Z</time>
      </trkpt>
      <trkpt lat="43.2181300" lon="-1.1227020">
        <ele>181.6</ele>
        <time>2019-07-17T09:35:51Z</time>
      </trkpt>
      <trkpt lat="43.2182670" lon="-1.1225540">
        <ele>181.1</ele>
        <time>2019-07-17T09:35:53Z</time>
      </trkpt>
      <trkpt lat="43.2184020" lon="-1.1224150">
        <ele>180.5</ele>
        <time>2019-07-17T09:35:55Z</time>
      </trkpt>
      <trkpt lat="43.2185350" lon="-1.1222800">
        <ele>179.8</ele>
        <time>2019-07-17T09:35:57Z</time>
      </trkpt>
      <trkpt lat="43.2186700" lon="-1.1221480">
        <ele>179.2</ele>
        <time>2019-07-17T09:35:59Z</time>
      </trkpt>
      <trkpt lat="43.2188020" lon="-1.1220100">
        <ele>178.5</ele>
        <time>2019-07-17T09:36:01Z</time>
      </trkpt>
      <trkpt lat="43.2189320" lon="-1.1218730">
        <ele>177.8</ele>
        <time>2019-07-17T09:36:03Z</time>
      </trkpt>
      <trkpt lat="43.2190530" lon="-1.1217470">
        <ele>177.0</ele>
        <time>2019-07-17T09:36:05Z</time>
      </trkpt>
      <trkpt lat="43.2191500" lon="-1.1216350">
        <ele>176.4</ele>
        <time>2019-07-17T09:36:07Z</time>
      </trkpt>
      <trkpt lat="43.2192180" lon="-1.1215500">
        <ele>175.9</ele>
        <time>2019-07-17T09:36:09Z</time>
      </trkpt>
      <trkpt lat="43.2192800" lon="-1.1214360">
        <ele>175.3</ele>
        <time>2019-07-17T09:36:13Z</time>
      </trkpt>
      <trkpt lat="43.2192750" lon="-1.1213970">
        <ele>175.1</ele>
        <time>2019-07-17T09:36:19Z</time>
      </trkpt>
      <trkpt lat="43.2193020" lon="-1.1212750">
        <ele>175.0</ele>
        <time>2019-07-17T09:37:34Z</time>
      </trkpt>
      <trkpt lat="43.2192840" lon="-1.1211420">
        <ele>175.0</ele>
        <time>2019-07-17T09:37:37Z</time>
      </trkpt>
      <trkpt lat="43.2192650" lon="-1.1209810">
        <ele>174.9</ele>
        <time>2019-07-17T09:37:41Z</time>
      </trkpt>
      <trkpt lat="43.2192530" lon="-1.1208540">
        <ele>174.9</ele>
        <time>2019-07-17T09:37:44Z</time>
      </trkpt>
      <trkpt lat="43.2192390" lon="-1.1207270">
        <ele>174.9</ele>
        <time>2019-07-17T09:37:47Z</time>
      </trkpt>
      <trkpt lat="43.2192280" lon="-1.1205990">
        <ele>174.9</ele>
        <time>2019-07-17T09:37:50Z</time>
      </trkpt>
      <trkpt lat="43.2192400" lon="-1.1204380">
        <ele>174.9</ele>
        <time>2019-07-17T09:37:54Z</time>
      </trkpt>
      <trkpt lat="43.2192510" lon="-1.1203140">
        <ele>174.9</ele>
        <time>2019-07-17T09:37:57Z</time>
      </trkpt>
      <trkpt lat="43.2192680" lon="-1.1201490">
        <ele>174.9</ele>
        <time>2019-07-17T09:38:01Z</time>
      </trkpt>
      <trkpt lat="43.2192860" lon="-1.1200210">
        <ele>175.0</ele>
        <time>2019-07-17T09:38:04Z</time>
      </trkpt>
      <trkpt lat="43.2193100" lon="-1.1198960">
        <ele>175.2</ele>
        <time>2019-07-17T09:38:07Z</time>
      </trkpt>
      <trkpt lat="43.2193380" lon="-1.1197670">
        <ele>175.3</ele>
        <time>2019-07-17T09:38:10Z</time>
      </trkpt>
      <trkpt lat="43.2193760" lon="-1.1196520">
        <ele>175.4</ele>
        <time>2019-07-17T09:38:13Z</time>
      </trkpt>
      <trkpt lat="43.2194150" lon="-1.1195380">
        <ele>175.5</ele>
        <time>2019-07-17T09:38:16Z</time>
      </trkpt>
      <trkpt lat="43.2194640" lon="-1.1194030">
        <ele>175.5</ele>
        <time>2019-07-17T09:38:20Z</time>
      </trkpt>
      <trkpt lat="43.2195180" lon="-1.1192650">
        <ele>175.5</ele>
        <time>2019-07-17T09:38:24Z</time>
      </trkpt>
      <trkpt lat="43.2195520" lon="-1.1191500">
        <ele>175.3</ele>
        <time>2019-07-17T09:38:27Z</time>
      </trkpt>
      <trkpt lat="43.2195840" lon="-1.1190340">
        <ele>175.1</ele>
        <time>2019-07-17T09:38:30Z</time>
      </trkpt>
      <trkpt lat="43.2196220" lon="-1.1189010">
        <ele>174.8</ele>
        <time>2019-07-17T09:38:33Z</time>
      </trkpt>
      <trkpt lat="43.2196650" lon="-1.1187330">
        <ele>174.3</ele>
        <time>2019-07-17T09:38:36Z</time>
      </trkpt>
      <trkpt lat="43.2196920" lon="-1.1186000">
        <ele>174.0</ele>
        <time>2019-07-17T09:38:38Z</time>
      </trkpt>
      <trkpt lat="43.2197250" lon="-1.1184580">
        <ele>173.7</ele>
        <time>2019-07-17T09:38:40Z</time>
      </trkpt>
      <trkpt lat="43.2197640" lon="-1.1183120">
        <ele>173.5</ele>
        <time>2019-07-17T09:38:42Z</time>
      </trkpt>
      <trkpt lat="43.2198170" lon="-1.1181720">
        <ele>173.4</ele>
        <time>2019-07-17T09:38:44Z</time>
      </trkpt>
      <trkpt lat="43.2198890" lon="-1.1180480">
        <ele>173.3</ele>
        <time>2019-07-17T09:38:46Z</time>
      </trkpt>
      <trkpt lat="43.2199650" lon="-1.1179330">
        <ele>173.1</ele>
        <time>2019-07-17T09:38:48Z</time>
      </trkpt>
      <trkpt lat="43.2200370" lon="-1.1178220">
        <ele>173.0</ele>
        <time>2019-07-17T09:38:50Z</time>
      </trkpt>
      <trkpt lat="43.2201000" lon="-1.1177040">
        <ele>172.8</ele>
        <time>2019-07-17T09:38:52Z</time>
      </trkpt>
      <trkpt lat="43.2201630" lon="-1.1175910">
        <ele>172.6</ele>
        <time>2019-07-17T09:38:54Z</time>
      </trkpt>
      <trkpt lat="43.2202240" lon="-1.1174800">
        <ele>172.5</ele>
        <time>2019-07-17T09:38:56Z</time>
      </trkpt>
      <trkpt lat="43.2202830" lon="-1.1173710">
        <ele>172.4</ele>
        <time>2019-07-17T09:38:58Z</time>
      </trkpt>
      <trkpt lat="43.2203410" lon="-1.1172640">
        <ele>172.4</ele>
        <time>2019-07-17T09:39:00Z</time>
      </trkpt>
      <trkpt lat="43.2203880" lon="-1.1171550">
        <ele>172.4</ele>
        <time>2019-07-17T09:39:02Z</time>
      </trkpt>
      <trkpt lat="43.2203990" lon="-1.1170290">
        <ele>172.5</ele>
        <time>2019-07-17T09:39:04Z</time>
      </trkpt>
      <trkpt lat="43.2203520" lon="-1.1168860">
        <ele>172.9</ele>
        <time>2019-07-17T09:39:07Z</time>
      </trkpt>
      <trkpt lat="43.2202910" lon="-1.1167880">
        <ele>173.3</ele>
        <time>2019-07-17T09:39:10Z</time>
      </trkpt>
      <trkpt lat="43.2202160" lon="-1.1166730">
        <ele>173.7</ele>
        <time>2019-07-17T09:39:14Z</time>
      </trkpt>
      <trkpt lat="43.2201730" lon="-1.1165430">
        <ele>174.1</ele>
        <time>2019-07-17T09:39:20Z</time>
      </trkpt>
      <trkpt lat="43.2201300" lon="-1.1164220">
        <ele>174.5</ele>
        <time>2019-07-17T09:39:25Z</time>
      </trkpt>
      <trkpt lat="43.2201080" lon="-1.1162910">
        <ele>174.9</ele>
        <time>2019-07-17T09:39:29Z</time>
      </trkpt>
      <trkpt lat="43.2201380" lon="-1.1161740">
        <ele>175.3</ele>
        <time>2019-07-17T09:39:33Z</time>
      </trkpt>
      <trkpt lat="43.2201830" lon="-1.1160420">
        <ele>175.6</ele>
        <time>2019-07-17T09:39:38Z</time>
      </trkpt>
      <trkpt lat="43.2202240" lon="-1.1159310">
        <ele>175.8</ele>
        <time>2019-07-17T09:39:42Z</time>
      </trkpt>
      <trkpt lat="43.2202710" lon="-1.1158130">
        <ele>175.9</ele>
        <time>2019-07-17T09:39:46Z</time>
      </trkpt>
      <trkpt lat="43.2203220" lon="-1.1156740">
        <ele>175.9</ele>
        <time>2019-07-17T09:39:50Z</time>
      </trkpt>
      <trkpt lat="43.2203660" lon="-1.1155610">
        <ele>175.9</ele>
        <time>2019-07-17T09:39:53Z</time>
      </trkpt>
      <trkpt lat="43.2204150" lon="-1.1154360">
        <ele>175.8</ele>
        <time>2019-07-17T09:39:56Z</time>
      </trkpt>
      <trkpt lat="43.2204630" lon="-1.1152910">
        <ele>175.7</ele>
        <time>2019-07-17T09:39:59Z</time>
      </trkpt>
      <trkpt lat="43.2204990" lon="-1.1151780">
        <ele>175.5</ele>
        <time>2019-07-17T09:40:01Z</time>
      </trkpt>
      <trkpt lat="43.2205360" lon="-1.1150550">
        <ele>175.4</ele>
        <time>2019-07-17T09:40:03Z</time>
      </trkpt>
      <trkpt lat="43.2205680" lon="-1.1149240">
        <ele>175.2</ele>
        <time>2019-07-17T09:40:05Z</time>
      </trkpt>
      <trkpt lat="43.2205960" lon="-1.1147840">
        <ele>175.0</ele>
        <time>2019-07-17T09:40:07Z</time>
      </trkpt>
      <trkpt lat="43.2206260" lon="-1.1146330">
        <ele>174.8</ele>
        <time>2019-07-17T09:40:09Z</time>
      </trkpt>
      <trkpt lat="43.2206570" lon="-1.1144740">
        <ele>174.5</ele>
        <time>2019-07-17T09:40:11Z</time>
      </trkpt>
      <trkpt lat="43.2206940" lon="-1.1143130">
        <ele>174.2</ele>
        <time>2019-07-17T09:40:13Z</time>
      </trkpt>
      <trkpt lat="43.2207350" lon="-1.1141480">
        <ele>173.8</ele>
        <time>2019-07-17T09:40:15Z</time>
      </trkpt>
      <trkpt lat="43.2207680" lon="-1.1139890">
        <ele>173.5</ele>
        <time>2019-07-17T09:40:17Z</time>
      </trkpt>
      <trkpt lat="43.2207980" lon="-1.1138360">
        <ele>173.2</ele>
        <time>2019-07-17T09:40:19Z</time>
      </trkpt>
      <trkpt lat="43.2208290" lon="-1.1136890">
        <ele>172.9</ele>
        <time>2019-07-17T09:40:21Z</time>
      </trkpt>
      <trkpt lat="43.2208590" lon="-1.1135480">
        <ele>172.7</ele>
        <time>2019-07-17T09:40:23Z</time>
      </trkpt>
      <trkpt lat="43.2208830" lon="-1.1134010">
        <ele>172.5</ele>
        <time>2019-07-17T09:40:25Z</time>
      </trkpt>
      <trkpt lat="43.2209010" lon="-1.1132500">
        <ele>172.3</ele>
        <time>2019-07-17T09:40:27Z</time>
      </trkpt>
      <trkpt lat="43.2209120" lon="-1.1130840">
        <ele>172.0</ele>
        <time>2019-07-17T09:40:29Z</time>
      </trkpt>
      <trkpt lat="43.2209330" lon="-1.1129090">
        <ele>171.7</ele>
        <time>2019-07-17T09:40:31Z</time>
      </trkpt>
      <trkpt lat="43.2209770" lon="-1.1127400">
        <ele>171.6</ele>
        <time>2019-07-17T09:40:33Z</time>
      </trkpt>
      <trkpt lat="43.2210200" lon="-1.1125840">
        <ele>171.5</ele>
        <time>2019-07-17T09:40:35Z</time>
      </trkpt>
      <trkpt lat="43.2210640" lon="-1.1124400">
        <ele>171.4</ele>
        <time>2019-07-17T09:40:37Z</time>
      </trkpt>
      <trkpt lat="43.2211060" lon="-1.1123130">
        <ele>171.4</ele>
        <time>2019-07-17T09:40:39Z</time>
      </trkpt>
      <trkpt lat="43.2211440" lon="-1.1121940">
        <ele>171.3</ele>
        <time>2019-07-17T09:40:41Z</time>
      </trkpt>
      <trkpt lat="43.2212010" lon="-1.1120360">
        <ele>171.3</ele>
        <time>2019-07-17T09:40:44Z</time>
      </trkpt>
      <trkpt lat="43.2212510" lon="-1.1118720">
        <ele>171.3</ele>
        <time>2019-07-17T09:40:47Z</time>
      </trkpt>
      <trkpt lat="43.2212850" lon="-1.1117510">
        <ele>171.3</ele>
        <time>2019-07-17T09:40:49Z</time>
      </trkpt>
      <trkpt lat="43.2213400" lon="-1.1115900">
        <ele>171.2</ele>
        <time>2019-07-17T09:40:52Z</time>
      </trkpt>
      <trkpt lat="43.2213930" lon="-1.1114290">
        <ele>171.2</ele>
        <time>2019-07-17T09:40:55Z</time>
      </trkpt>
      <trkpt lat="43.2214490" lon="-1.1112680">
        <ele>171.2</ele>
        <time>2019-07-17T09:40:58Z</time>
      </trkpt>
      <trkpt lat="43.2215110" lon="-1.1111250">
        <ele>171.2</ele>
        <time>2019-07-17T09:41:01Z</time>
      </trkpt>
      <trkpt lat="43.2215810" lon="-1.1109960">
        <ele>171.1</ele>
        <time>2019-07-17T09:41:04Z</time>
      </trkpt>
      <trkpt lat="43.2216520" lon="-1.1108660">
        <ele>171.1</ele>
        <time>2019-07-17T09:41:07Z</time>
      </trkpt>
      <trkpt lat="43.2217270" lon="-1.1107380">
        <ele>171.1</ele>
        <time>2019-07-17T09:41:10Z</time>
      </trkpt>
      <trkpt lat="43.2218070" lon="-1.1106200">
        <ele>171.0</ele>
        <time>2019-07-17T09:41:13Z</time>
      </trkpt>
      <trkpt lat="43.2218860" lon="-1.1105020">
        <ele>171.0</ele>
        <time>2019-07-17T09:41:16Z</time>
      </trkpt>
      <trkpt lat="43.2219610" lon="-1.1103700">
        <ele>171.0</ele>
        <time>2019-07-17T09:41:19Z</time>
      </trkpt>
      <trkpt lat="43.2220300" lon="-1.1102410">
        <ele>171.0</ele>
        <time>2019-07-17T09:41:22Z</time>
      </trkpt>
      <trkpt lat="43.2221000" lon="-1.1101170">
        <ele>170.9</ele>
        <time>2019-07-17T09:41:25Z</time>
      </trkpt>
      <trkpt lat="43.2221700" lon="-1.1099900">
        <ele>170.9</ele>
        <time>2019-07-17T09:41:28Z</time>
      </trkpt>
      <trkpt lat="43.2222210" lon="-1.1098740">
        <ele>170.8</ele>
        <time>2019-07-17T09:41:31Z</time>
      </trkpt>
      <trkpt lat="43.2222910" lon="-1.1097210">
        <ele>170.6</ele>
        <time>2019-07-17T09:41:34Z</time>
      </trkpt>
      <trkpt lat="43.2223560" lon="-1.1095840">
        <ele>170.2</ele>
        <time>2019-07-17T09:41:36Z</time>
      </trkpt>
      <trkpt lat="43.2224320" lon="-1.1094360">
        <ele>169.5</ele>
        <time>2019-07-17T09:41:38Z</time>
      </trkpt>
      <trkpt lat="43.2225060" lon="-1.1092690">
        <ele>168.7</ele>
        <time>2019-07-17T09:41:40Z</time>
      </trkpt>
      <trkpt lat="43.2225740" lon="-1.1090740">
        <ele>167.8</ele>
        <time>2019-07-17T09:41:42Z</time>
      </trkpt>
      <trkpt lat="43.2226330" lon="-1.1088560">
        <ele>166.8</ele>
        <time>2019-07-17T09:41:44Z</time>
      </trkpt>
      <trkpt lat="43.2226900" lon="-1.1086220">
        <ele>165.8</ele>
        <time>2019-07-17T09:41:46Z</time>
      </trkpt>
      <trkpt lat="43.2227150" lon="-1.1085000">
        <ele>165.2</ele>
        <time>2019-07-17T09:41:47Z</time>
      </trkpt>
      <trkpt lat="43.2227420" lon="-1.1083750">
        <ele>164.7</ele>
        <time>2019-07-17T09:41:48Z</time>
      </trkpt>
      <trkpt lat="43.2227680" lon="-1.1082510">
        <ele>164.3</ele>
        <time>2019-07-17T09:41:49Z</time>
      </trkpt>
      <trkpt lat="43.2227940" lon="-1.1081260">
        <ele>163.9</ele>
        <time>2019-07-17T09:41:50Z</time>
      </trkpt>
      <trkpt lat="43.2228180" lon="-1.1080020">
        <ele>163.6</ele>
        <time>2019-07-17T09:41:51Z</time>
      </trkpt>
      <trkpt lat="43.2228370" lon="-1.1078790">
        <ele>163.3</ele>
        <time>2019-07-17T09:41:52Z</time>
      </trkpt>
      <trkpt lat="43.2228580" lon="-1.1076450">
        <ele>163.0</ele>
        <time>2019-07-17T09:41:54Z</time>
      </trkpt>
      <trkpt lat="43.2228810" lon="-1.1074410">
        <ele>162.9</ele>
        <time>2019-07-17T09:41:56Z</time>
      </trkpt>
      <trkpt lat="43.2229120" lon="-1.1072910">
        <ele>163.0</ele>
        <time>2019-07-17T09:41:58Z</time>
      </trkpt>
      <trkpt lat="43.2229800" lon="-1.1071410">
        <ele>163.4</ele>
        <time>2019-07-17T09:42:01Z</time>
      </trkpt>
      <trkpt lat="43.2230380" lon="-1.1070210">
        <ele>163.9</ele>
        <time>2019-07-17T09:42:04Z</time>
      </trkpt>
      <trkpt lat="43.2230850" lon="-1.1068780">
        <ele>164.5</ele>
        <time>2019-07-17T09:42:08Z</time>
      </trkpt>
      <trkpt lat="43.2231170" lon="-1.1067320">
        <ele>165.1</ele>
        <time>2019-07-17T09:42:12Z</time>
      </trkpt>
      <trkpt lat="43.2231510" lon="-1.1066010">
        <ele>165.6</ele>
        <time>2019-07-17T09:42:16Z</time>
      </trkpt>
      <trkpt lat="43.2231610" lon="-1.1064770">
        <ele>166.2</ele>
        <time>2019-07-17T09:42:20Z</time>
      </trkpt>
      <trkpt lat="43.2232020" lon="-1.1063490">
        <ele>166.7</ele>
        <time>2019-07-17T09:42:24Z</time>
      </trkpt>
      <trkpt lat="43.2232260" lon="-1.1062150">
        <ele>167.2</ele>
        <time>2019-07-17T09:42:28Z</time>
      </trkpt>
      <trkpt lat="43.2232320" lon="-1.1060810">
        <ele>167.5</ele>
        <time>2019-07-17T09:42:32Z</time>
      </trkpt>
      <trkpt lat="43.2232370" lon="-1.1059480">
        <ele>167.8</ele>
        <time>2019-07-17T09:42:36Z</time>
      </trkpt>
      <trkpt lat="43.2232460" lon="-1.1058040">
        <ele>168.0</ele>
        <time>2019-07-17T09:42:40Z</time>
      </trkpt>
      <trkpt lat="43.2232550" lon="-1.1056650">
        <ele>168.1</ele>
        <time>2019-07-17T09:42:44Z</time>
      </trkpt>
      <trkpt lat="43.2232630" lon="-1.1055220">
        <ele>168.2</ele>
        <time>2019-07-17T09:42:48Z</time>
      </trkpt>
      <trkpt lat="43.2232620" lon="-1.1053740">
        <ele>168.4</ele>
        <time>2019-07-17T09:42:52Z</time>
      </trkpt>
      <trkpt lat="43.2232720" lon="-1.1052300">
        <ele>168.7</ele>
        <time>2019-07-17T09:42:56Z</time>
      </trkpt>
      <trkpt lat="43.2232840" lon="-1.1050960">
        <ele>168.9</ele>
        <time>2019-07-17T09:43:00Z</time>
      </trkpt>
      <trkpt lat="43.2232940" lon="-1.1049440">
        <ele>169.0</ele>
        <time>2019-07-17T09:43:04Z</time>
      </trkpt>
      <trkpt lat="43.2233050" lon="-1.1047980">
        <ele>169.2</ele>
        <time>2019-07-17T09:43:08Z</time>
      </trkpt>
      <trkpt lat="43.2233200" lon="-1.1046380">
        <ele>169.4</ele>
        <time>2019-07-17T09:43:12Z</time>
      </trkpt>
      <trkpt lat="43.2233500" lon="-1.1044860">
        <ele>169.6</ele>
        <time>2019-07-17T09:43:16Z</time>
      </trkpt>
      <trkpt lat="43.2233910" lon="-1.1043360">
        <ele>169.8</ele>
        <time>2019-07-17T09:43:20Z</time>
      </trkpt>
      <trkpt lat="43.2234290" lon="-1.1041930">
        <ele>169.9</ele>
        <time>2019-07-17T09:43:24Z</time>
      </trkpt>
      <trkpt lat="43.2234470" lon="-1.1040530">
        <ele>170.2</ele>
        <time>2019-07-17T09:43:28Z</time>
      </trkpt>
      <trkpt lat="43.2234840" lon="-1.1039110">
        <ele>170.5</ele>
        <time>2019-07-17T09:43:33Z</time>
      </trkpt>
      <trkpt lat="43.2235060" lon="-1.1037680">
        <ele>170.8</ele>
        <time>2019-07-17T09:43:37Z</time>
      </trkpt>
      <trkpt lat="43.2235580" lon="-1.1036370">
        <ele>171.2</ele>
        <time>2019-07-17T09:43:41Z</time>
      </trkpt>
      <trkpt lat="43.2235830" lon="-1.1034980">
        <ele>171.4</ele>
        <time>2019-07-17T09:43:45Z</time>
      </trkpt>
      <trkpt lat="43.2236120" lon="-1.1033620">
        <ele>171.5</ele>
        <time>2019-07-17T09:43:49Z</time>
      </trkpt>
      <trkpt lat="43.2236360" lon="-1.1032260">
        <ele>171.6</ele>
        <time>2019-07-17T09:43:53Z</time>
      </trkpt>
      <trkpt lat="43.2236640" lon="-1.1031060">
        <ele>171.6</ele>
        <time>2019-07-17T09:43:56Z</time>
      </trkpt>
      <trkpt lat="43.2236890" lon="-1.1029480">
        <ele>171.5</ele>
        <time>2019-07-17T09:43:59Z</time>
      </trkpt>
      <trkpt lat="43.2237210" lon="-1.1027690">
        <ele>171.3</ele>
        <time>2019-07-17T09:44:02Z</time>
      </trkpt>
      <trkpt lat="43.2237420" lon="-1.1026310">
        <ele>171.0</ele>
        <time>2019-07-17T09:44:04Z</time>
      </trkpt>
      <trkpt lat="43.2237720" lon="-1.1024930">
        <ele>170.8</ele>
        <time>2019-07-17T09:44:06Z</time>
      </trkpt>
      <trkpt lat="43.2238100" lon="-1.1023560">
        <ele>170.5</ele>
        <time>2019-07-17T09:44:08Z</time>
      </trkpt>
      <trkpt lat="43.2238470" lon="-1.1022170">
        <ele>170.2</ele>
        <time>2019-07-17T09:44:10Z</time>
      </trkpt>
      <trkpt lat="43.2238870" lon="-1.1020850">
        <ele>170.0</ele>
        <time>2019-07-17T09:44:12Z</time>
      </trkpt>
      <trkpt lat="43.2239310" lon="-1.1019620">
        <ele>169.8</ele>
        <time>2019-07-17T09:44:14Z</time>
      </trkpt>
      <trkpt lat="43.2239700" lon="-1.1018490">
        <ele>169.7</ele>
        <time>2019-07-17T09:44:16Z</time>
      </trkpt>
      <trkpt lat="43.2240110" lon="-1.1017010">
        <ele>169.6</ele>
        <time>2019-07-17T09:44:19Z</time>
      </trkpt>
      <trkpt lat="43.2240440" lon="-1.1015700">
        <ele>169.7</ele>
        <time>2019-07-17T09:44:22Z</time>
      </trkpt>
      <trkpt lat="43.2240830" lon="-1.1014260">
        <ele>169.9</ele>
        <time>2019-07-17T09:44:26Z</time>
      </trkpt>
      <trkpt lat="43.2241150" lon="-1.1013050">
        <ele>170.2</ele>
        <time>2019-07-17T09:44:30Z</time>
      </trkpt>
      <trkpt lat="43.2241500" lon="-1.1011640">
        <ele>170.6</ele>
        <time>2019-07-17T09:44:34Z</time>
      </trkpt>
      <trkpt lat="43.2241680" lon="-1.1010340">
        <ele>170.8</ele>
        <time>2019-07-17T09:44:37Z</time>
      </trkpt>
      <trkpt lat="43.2241910" lon="-1.1008760">
        <ele>170.9</ele>
        <time>2019-07-17T09:44:40Z</time>
      </trkpt>
      <trkpt lat="43.2241990" lon="-1.1007390">
        <ele>170.7</ele>
        <time>2019-07-17T09:44:42Z</time>
      </trkpt>
      <trkpt lat="43.2242110" lon="-1.1005780">
        <ele>170.3</ele>
        <time>2019-07-17T09:44:44Z</time>
      </trkpt>
      <trkpt lat="43.2242170" lon="-1.1003890">
        <ele>169.4</ele>
        <time>2019-07-17T09:44:46Z</time>
      </trkpt>
      <trkpt lat="43.2242220" lon="-1.1001730">
        <ele>168.5</ele>
        <time>2019-07-17T09:44:48Z</time>
      </trkpt>
      <trkpt lat="43.2242310" lon="-1.0999600">
        <ele>167.3</ele>
        <time>2019-07-17T09:44:50Z</time>
      </trkpt>
      <trkpt lat="43.2242320" lon="-1.0997570">
        <ele>166.5</ele>
        <time>2019-07-17T09:44:52Z</time>
      </trkpt>
      <trkpt lat="43.2242230" lon="-1.0995610">
        <ele>165.8</ele>
        <time>2019-07-17T09:44:54Z</time>
      </trkpt>
      <trkpt lat="43.2242010" lon="-1.0993660">
        <ele>165.0</ele>
        <time>2019-07-17T09:44:56Z</time>
      </trkpt>
      <trkpt lat="43.2241650" lon="-1.0991760">
        <ele>164.2</ele>
        <time>2019-07-17T09:44:58Z</time>
      </trkpt>
      <trkpt lat="43.2241270" lon="-1.0989910">
        <ele>163.6</ele>
        <time>2019-07-17T09:45:00Z</time>
      </trkpt>
      <trkpt lat="43.2241260" lon="-1.0987870">
        <ele>163.0</ele>
        <time>2019-07-17T09:45:02Z</time>
      </trkpt>
      <trkpt lat="43.2241640" lon="-1.0985890">
        <ele>162.5</ele>
        <time>2019-07-17T09:45:04Z</time>
      </trkpt>
      <trkpt lat="43.2242010" lon="-1.0983990">
        <ele>162.2</ele>
        <time>2019-07-17T09:45:06Z</time>
      </trkpt>
      <trkpt lat="43.2242300" lon="-1.0982180">
        <ele>162.0</ele>
        <time>2019-07-17T09:45:08Z</time>
      </trkpt>
      <trkpt lat="43.2242510" lon="-1.0980460">
        <ele>161.9</ele>
        <time>2019-07-17T09:45:10Z</time>
      </trkpt>
      <trkpt lat="43.2242760" lon="-1.0978870">
        <ele>161.8</ele>
        <time>2019-07-17T09:45:12Z</time>
      </trkpt>
      <trkpt lat="43.2243040" lon="-1.0977350">
        <ele>161.8</ele>
        <time>2019-07-17T09:45:14Z</time>
      </trkpt>
      <trkpt lat="43.2243260" lon="-1.0975850">
        <ele>161.8</ele>
        <time>2019-07-17T09:45:16Z</time>
      </trkpt>
      <trkpt lat="43.2243430" lon="-1.0974420">
        <ele>161.7</ele>
        <time>2019-07-17T09:45:18Z</time>
      </trkpt>
      <trkpt lat="43.2243570" lon="-1.0973030">
        <ele>161.7</ele>
        <time>2019-07-17T09:45:20Z</time>
      </trkpt>
      <trkpt lat="43.2243750" lon="-1.0971650">
        <ele>161.7</ele>
        <time>2019-07-17T09:45:22Z</time>
      </trkpt>
      <trkpt lat="43.2243980" lon="-1.0970290">
        <ele>161.7</ele>
        <time>2019-07-17T09:45:24Z</time>
      </trkpt>
      <trkpt lat="43.2244180" lon="-1.0968920">
        <ele>161.7</ele>
        <time>2019-07-17T09:45:26Z</time>
      </trkpt>
      <trkpt lat="43.2244410" lon="-1.0967520">
        <ele>161.7</ele>
        <time>2019-07-17T09:45:28Z</time>
      </trkpt>
      <trkpt lat="43.2244710" lon="-1.0966190">
        <ele>161.7</ele>
        <time>2019-07-17T09:45:30Z</time>
      </trkpt>
      <trkpt lat="43.2244920" lon="-1.0964910">
        <ele>161.8</ele>
        <time>2019-07-17T09:45:32Z</time>
      </trkpt>
      <trkpt lat="43.2245190" lon="-1.0963360">
        <ele>162.0</ele>
        <time>2019-07-17T09:45:35Z</time>
      </trkpt>
      <trkpt lat="43.2245510" lon="-1.0962190">
        <ele>162.3</ele>
        <time>2019-07-17T09:45:38Z</time>
      </trkpt>
      <trkpt lat="43.2245740" lon="-1.0960620">
        <ele>162.8</ele>
        <time>2019-07-17T09:45:42Z</time>
      </trkpt>
      <trkpt lat="43.2245650" lon="-1.0959180">
        <ele>163.4</ele>
        <time>2019-07-17T09:45:46Z</time>
      </trkpt>
      <trkpt lat="43.2245830" lon="-1.0957920">
        <ele>163.8</ele>
        <time>2019-07-17T09:45:50Z</time>
      </trkpt>
      <trkpt lat="43.2246630" lon="-1.0956880">
        <ele>164.2</ele>
        <time>2019-07-17T09:45:55Z</time>
      </trkpt>
      <trkpt lat="43.2247830" lon="-1.0956170">
        <ele>164.6</ele>
        <time>2019-07-17T09:45:59Z</time>
      </trkpt>
      <trkpt lat="43.2248890" lon="-1.0955170">
        <ele>164.4</ele>
        <time>2019-07-17T09:46:02Z</time>
      </trkpt>
      <trkpt lat="43.2249490" lon="-1.0954160">
        <ele>164.1</ele>
        <time>2019-07-17T09:46:04Z</time>
      </trkpt>
      <trkpt lat="43.2249940" lon="-1.0952900">
        <ele>163.7</ele>
        <time>2019-07-17T09:46:06Z</time>
      </trkpt>
      <trkpt lat="43.2250480" lon="-1.0951530">
        <ele>163.2</ele>
        <time>2019-07-17T09:46:08Z</time>
      </trkpt>
      <trkpt lat="43.2250930" lon="-1.0950070">
        <ele>162.6</ele>
        <time>2019-07-17T09:46:10Z</time>
      </trkpt>
      <trkpt lat="43.2251370" lon="-1.0948690">
        <ele>161.9</ele>
        <time>2019-07-17T09:46:12Z</time>
      </trkpt>
      <trkpt lat="43.2251830" lon="-1.0947310">
        <ele>161.2</ele>
        <time>2019-07-17T09:46:14Z</time>
      </trkpt>
      <trkpt lat="43.2252340" lon="-1.0945860">
        <ele>160.5</ele>
        <time>2019-07-17T09:46:16Z</time>
      </trkpt>
      <trkpt lat="43.2252690" lon="-1.0944300">
        <ele>159.4</ele>
        <time>2019-07-17T09:46:18Z</time>
      </trkpt>
      <trkpt lat="43.2252770" lon="-1.0942500">
        <ele>158.4</ele>
        <time>2019-07-17T09:46:20Z</time>
      </trkpt>
      <trkpt lat="43.2252430" lon="-1.0940380">
        <ele>157.3</ele>
        <time>2019-07-17T09:46:22Z</time>
      </trkpt>
      <trkpt lat="43.2251720" lon="-1.0938140">
        <ele>156.0</ele>
        <time>2019-07-17T09:46:24Z</time>
      </trkpt>
      <trkpt lat="43.2251340" lon="-1.0936860">
        <ele>155.3</ele>
        <time>2019-07-17T09:46:25Z</time>
      </trkpt>
      <trkpt lat="43.2250920" lon="-1.0935520">
        <ele>154.5</ele>
        <time>2019-07-17T09:46:26Z</time>
      </trkpt>
      <trkpt lat="43.2250590" lon="-1.0934340">
        <ele>153.9</ele>
        <time>2019-07-17T09:46:27Z</time>
      </trkpt>
      <trkpt lat="43.2250340" lon="-1.0932940">
        <ele>153.2</ele>
        <time>2019-07-17T09:46:28Z</time>
      </trkpt>
      <trkpt lat="43.2250330" lon="-1.0931590">
        <ele>152.5</ele>
        <time>2019-07-17T09:46:29Z</time>
      </trkpt>
      <trkpt lat="43.2250420" lon="-1.0930250">
        <ele>151.8</ele>
        <time>2019-07-17T09:46:30Z</time>
      </trkpt>
      <trkpt lat="43.2250670" lon="-1.0929010">
        <ele>151.4</ele>
        <time>2019-07-17T09:46:31Z</time>
      </trkpt>
      <trkpt lat="43.2250930" lon="-1.0927810">
        <ele>151.0</ele>
        <time>2019-07-17T09:46:32Z</time>
      </trkpt>
      <trkpt lat="43.2251220" lon="-1.0926630">
        <ele>150.7</ele>
        <time>2019-07-17T09:46:33Z</time>
      </trkpt>
      <trkpt lat="43.2251890" lon="-1.0924450">
        <ele>150.2</ele>
        <time>2019-07-17T09:46:35Z</time>
      </trkpt>
      <trkpt lat="43.2252410" lon="-1.0922350">
        <ele>149.7</ele>
        <time>2019-07-17T09:46:37Z</time>
      </trkpt>
      <trkpt lat="43.2252880" lon="-1.0920340">
        <ele>149.4</ele>
        <time>2019-07-17T09:46:39Z</time>
      </trkpt>
      <trkpt lat="43.2253190" lon="-1.0918380">
        <ele>149.1</ele>
        <time>2019-07-17T09:46:41Z</time>
      </trkpt>
      <trkpt lat="43.2253380" lon="-1.0916460">
        <ele>148.9</ele>
        <time>2019-07-17T09:46:43Z</time>
      </trkpt>
      <trkpt lat="43.2253490" lon="-1.0914560">
        <ele>148.8</ele>
        <time>2019-07-17T09:46:45Z</time>
      </trkpt>
      <trkpt lat="43.2253550" lon="-1.0912760">
        <ele>148.7</ele>
        <time>2019-07-17T09:46:47Z</time>
      </trkpt>
      <trkpt lat="43.2253680" lon="-1.0911110">
        <ele>148.7</ele>
        <time>2019-07-17T09:46:49Z</time>
      </trkpt>
      <trkpt lat="43.2253810" lon="-1.0909610">
        <ele>148.7</ele>
        <time>2019-07-17T09:46:51Z</time>
      </trkpt>
      <trkpt lat="43.2253890" lon="-1.0908280">
        <ele>148.8</ele>
        <time>2019-07-17T09:46:53Z</time>
      </trkpt>
      <trkpt lat="43.2253890" lon="-1.0906640">
        <ele>148.9</ele>
        <time>2019-07-17T09:46:56Z</time>
      </trkpt>
      <trkpt lat="43.2253920" lon="-1.0905180">
        <ele>149.1</ele>
        <time>2019-07-17T09:47:00Z</time>
      </trkpt>
      <trkpt lat="43.2253940" lon="-1.0903810">
        <ele>149.4</ele>
        <time>2019-07-17T09:47:05Z</time>
      </trkpt>
      <trkpt lat="43.2253930" lon="-1.0902500">
        <ele>149.7</ele>
        <time>2019-07-17T09:47:09Z</time>
      </trkpt>
      <trkpt lat="43.2253910" lon="-1.0901080">
        <ele>150.2</ele>
        <time>2019-07-17T09:47:13Z</time>
      </trkpt>
      <trkpt lat="43.2253780" lon="-1.0899770">
        <ele>150.5</ele>
        <time>2019-07-17T09:47:17Z</time>
      </trkpt>
      <trkpt lat="43.2253720" lon="-1.0898440">
        <ele>150.9</ele>
        <time>2019-07-17T09:47:21Z</time>
      </trkpt>
      <trkpt lat="43.2253720" lon="-1.0896950">
        <ele>151.4</ele>
        <time>2019-07-17T09:47:25Z</time>
      </trkpt>
      <trkpt lat="43.2253690" lon="-1.0895400">
        <ele>151.8</ele>
        <time>2019-07-17T09:47:29Z</time>
      </trkpt>
      <trkpt lat="43.2253780" lon="-1.0894010">
        <ele>152.2</ele>
        <time>2019-07-17T09:47:33Z</time>
      </trkpt>
      <trkpt lat="43.2253960" lon="-1.0892310">
        <ele>152.8</ele>
        <time>2019-07-17T09:47:38Z</time>
      </trkpt>
      <trkpt lat="43.2254180" lon="-1.0890950">
        <ele>153.3</ele>
        <time>2019-07-17T09:47:42Z</time>
      </trkpt>
      <trkpt lat="43.2254320" lon="-1.0889530">
        <ele>153.4</ele>
        <time>2019-07-17T09:47:46Z</time>
      </trkpt>
      <trkpt lat="43.2254310" lon="-1.0888290">
        <ele>153.5</ele>
        <time>2019-07-17T09:47:50Z</time>
      </trkpt>
      <trkpt lat="43.2254250" lon="-1.0886830">
        <ele>153.6</ele>
        <time>2019-07-17T09:47:55Z</time>
      </trkpt>
      <trkpt lat="43.2254060" lon="-1.0885530">
        <ele>153.7</ele>
        <time>2019-07-17T09:48:00Z</time>
      </trkpt>
      <trkpt lat="43.2253990" lon="-1.0884100">
        <ele>153.9</ele>
        <time>2019-07-17T09:48:05Z</time>
      </trkpt>
      <trkpt lat="43.2253930" lon="-1.0882840">
        <ele>154.1</ele>
        <time>2019-07-17T09:48:09Z</time>
      </trkpt>
      <trkpt lat="43.2253890" lon="-1.0881360">
        <ele>154.5</ele>
        <time>2019-07-17T09:48:14Z</time>
      </trkpt>
      <trkpt lat="43.2253800" lon="-1.0880090">
        <ele>154.8</ele>
        <time>2019-07-17T09:48:19Z</time>
      </trkpt>
      <trkpt lat="43.2253560" lon="-1.0879050">
        <ele>155.2</ele>
        <time>2019-07-17T09:48:28Z</time>
      </trkpt>
      <trkpt lat="43.2252730" lon="-1.0878550">
        <ele>155.7</ele>
        <time>2019-07-17T09:48:37Z</time>
      </trkpt>
      <trkpt lat="43.2251820" lon="-1.0878210">
        <ele>156.0</ele>
        <time>2019-07-17T09:48:40Z</time>
      </trkpt>
      <trkpt lat="43.2250750" lon="-1.0877880">
        <ele>156.3</ele>
        <time>2019-07-17T09:48:43Z</time>
      </trkpt>
      <trkpt lat="43.2249850" lon="-1.0877670">
        <ele>156.4</ele>
        <time>2019-07-17T09:48:46Z</time>
      </trkpt>
      <trkpt lat="43.2248710" lon="-1.0877370">
        <ele>156.6</ele>
        <time>2019-07-17T09:48:50Z</time>
      </trkpt>
      <trkpt lat="43.2247660" lon="-1.0877010">
        <ele>156.8</ele>
        <time>2019-07-17T09:48:54Z</time>
      </trkpt>
      <trkpt lat="43.2246490" lon="-1.0876730">
        <ele>157.0</ele>
        <time>2019-07-17T09:48:58Z</time>
      </trkpt>
      <trkpt lat="43.2245620" lon="-1.0876430">
        <ele>157.1</ele>
        <time>2019-07-17T09:49:01Z</time>
      </trkpt>
      <trkpt lat="43.2244720" lon="-1.0876170">
        <ele>157.2</ele>
        <time>2019-07-17T09:49:04Z</time>
      </trkpt>
      <trkpt lat="43.2243820" lon="-1.0875940">
        <ele>157.1</ele>
        <time>2019-07-17T09:49:07Z</time>
      </trkpt>
      <trkpt lat="43.2242630" lon="-1.0875580">
        <ele>157.0</ele>
        <time>2019-07-17T09:49:11Z</time>
      </trkpt>
      <trkpt lat="43.2241640" lon="-1.0875220">
        <ele>157.0</ele>
        <time>2019-07-17T09:49:14Z</time>
      </trkpt>
      <trkpt lat="43.2240580" lon="-1.0874880">
        <ele>156.9</ele>
        <time>2019-07-17T09:49:17Z</time>
      </trkpt>
      <trkpt lat="43.2239490" lon="-1.0874660">
        <ele>156.9</ele>
        <time>2019-07-17T09:49:20Z</time>
      </trkpt>
      <trkpt lat="43.2238350" lon="-1.0874270">
        <ele>157.0</ele>
        <time>2019-07-17T09:49:23Z</time>
      </trkpt>
      <trkpt lat="43.2237070" lon="-1.0873940">
        <ele>156.9</ele>
        <time>2019-07-17T09:49:26Z</time>
      </trkpt>
      <trkpt lat="43.2236160" lon="-1.0873680">
        <ele>156.8</ele>
        <time>2019-07-17T09:49:28Z</time>
      </trkpt>
      <trkpt lat="43.2235210" lon="-1.0873400">
        <ele>156.7</ele>
        <time>2019-07-17T09:49:30Z</time>
      </trkpt>
      <trkpt lat="43.2234240" lon="-1.0873160">
        <ele>156.5</ele>
        <time>2019-07-17T09:49:32Z</time>
      </trkpt>
      <trkpt lat="43.2233240" lon="-1.0872850">
        <ele>156.2</ele>
        <time>2019-07-17T09:49:34Z</time>
      </trkpt>
      <trkpt lat="43.2232200" lon="-1.0872470">
        <ele>155.9</ele>
        <time>2019-07-17T09:49:36Z</time>
      </trkpt>
      <trkpt lat="43.2231100" lon="-1.0872120">
        <ele>155.4</ele>
        <time>2019-07-17T09:49:38Z</time>
      </trkpt>
      <trkpt lat="43.2229960" lon="-1.0871800">
        <ele>154.9</ele>
        <time>2019-07-17T09:49:40Z</time>
      </trkpt>
      <trkpt lat="43.2228750" lon="-1.0871530">
        <ele>154.3</ele>
        <time>2019-07-17T09:49:42Z</time>
      </trkpt>
      <trkpt lat="43.2227520" lon="-1.0871170">
        <ele>153.8</ele>
        <time>2019-07-17T09:49:44Z</time>
      </trkpt>
      <trkpt lat="43.2226240" lon="-1.0870800">
        <ele>153.3</ele>
        <time>2019-07-17T09:49:46Z</time>
      </trkpt>
      <trkpt lat="43.2224970" lon="-1.0870450">
        <ele>152.8</ele>
        <time>2019-07-17T09:49:48Z</time>
      </trkpt>
      <trkpt lat="43.2223630" lon="-1.0870060">
        <ele>152.4</ele>
        <time>2019-07-17T09:49:50Z</time>
      </trkpt>
      <trkpt lat="43.2222250" lon="-1.0869630">
        <ele>152.0</ele>
        <time>2019-07-17T09:49:52Z</time>
      </trkpt>
      <trkpt lat="43.2220830" lon="-1.0869210">
        <ele>151.5</ele>
        <time>2019-07-17T09:49:54Z</time>
      </trkpt>
      <trkpt lat="43.2219380" lon="-1.0868790">
        <ele>151.1</ele>
        <time>2019-07-17T09:49:56Z</time>
      </trkpt>
      <trkpt lat="43.2217850" lon="-1.0868350">
        <ele>150.6</ele>
        <time>2019-07-17T09:49:58Z</time>
      </trkpt>
      <trkpt lat="43.2216330" lon="-1.0867900">
        <ele>150.1</ele>
        <time>2019-07-17T09:50:00Z</time>
      </trkpt>
      <trkpt lat="43.2214780" lon="-1.0867430">
        <ele>149.6</ele>
        <time>2019-07-17T09:50:02Z</time>
      </trkpt>
      <trkpt lat="43.2213260" lon="-1.0866950">
        <ele>149.2</ele>
        <time>2019-07-17T09:50:04Z</time>
      </trkpt>
      <trkpt lat="43.2211710" lon="-1.0866500">
        <ele>148.7</ele>
        <time>2019-07-17T09:50:06Z</time>
      </trkpt>
      <trkpt lat="43.2210190" lon="-1.0866040">
        <ele>148.4</ele>
        <time>2019-07-17T09:50:08Z</time>
      </trkpt>
      <trkpt lat="43.2208690" lon="-1.0865580">
        <ele>148.2</ele>
        <time>2019-07-17T09:50:10Z</time>
      </trkpt>
      <trkpt lat="43.2207340" lon="-1.0865170">
        <ele>148.1</ele>
        <time>2019-07-17T09:50:12Z</time>
      </trkpt>
      <trkpt lat="43.2206230" lon="-1.0864850">
        <ele>148.1</ele>
        <time>2019-07-17T09:50:14Z</time>
      </trkpt>
      <trkpt lat="43.2205330" lon="-1.0864600">
        <ele>148.1</ele>
        <time>2019-07-17T09:50:16Z</time>
      </trkpt>
      <trkpt lat="43.2204240" lon="-1.0864310">
        <ele>148.2</ele>
        <time>2019-07-17T09:50:19Z</time>
      </trkpt>
      <trkpt lat="43.2203290" lon="-1.0864010">
        <ele>148.4</ele>
        <time>2019-07-17T09:50:23Z</time>
      </trkpt>
      <trkpt lat="43.2202260" lon="-1.0863650">
        <ele>148.8</ele>
        <time>2019-07-17T09:50:28Z</time>
      </trkpt>
      <trkpt lat="43.2201200" lon="-1.0863330">
        <ele>149.3</ele>
        <time>2019-07-17T09:50:33Z</time>
      </trkpt>
      <trkpt lat="43.2200180" lon="-1.0862970">
        <ele>150.0</ele>
        <time>2019-07-17T09:50:39Z</time>
      </trkpt>
      <trkpt lat="43.2199190" lon="-1.0862690">
        <ele>150.8</ele>
        <time>2019-07-17T09:50:46Z</time>
      </trkpt>
      <trkpt lat="43.2198270" lon="-1.0862490">
        <ele>151.5</ele>
        <time>2019-07-17T09:50:52Z</time>
      </trkpt>
      <trkpt lat="43.2197420" lon="-1.0862000">
        <ele>152.3</ele>
        <time>2019-07-17T09:50:58Z</time>
      </trkpt>
      <trkpt lat="43.2196370" lon="-1.0861970">
        <ele>153.1</ele>
        <time>2019-07-17T09:51:05Z</time>
      </trkpt>
      <trkpt lat="43.2195510" lon="-1.0861550">
        <ele>153.4</ele>
        <time>2019-07-17T09:51:10Z</time>
      </trkpt>
      <trkpt lat="43.2194530" lon="-1.0861360">
        <ele>153.9</ele>
        <time>2019-07-17T09:51:15Z</time>
      </trkpt>
      <trkpt lat="43.2193560" lon="-1.0860950">
        <ele>154.2</ele>
        <time>2019-07-17T09:51:20Z</time>
      </trkpt>
      <trkpt lat="43.2192440" lon="-1.0860690">
        <ele>154.5</ele>
        <time>2019-07-17T09:51:25Z</time>
      </trkpt>
      <trkpt lat="43.2191480" lon="-1.0860360">
        <ele>154.7</ele>
        <time>2019-07-17T09:51:29Z</time>
      </trkpt>
      <trkpt lat="43.2190450" lon="-1.0860190">
        <ele>154.8</ele>
        <time>2019-07-17T09:51:33Z</time>
      </trkpt>
      <trkpt lat="43.2189360" lon="-1.0859910">
        <ele>154.8</ele>
        <time>2019-07-17T09:51:37Z</time>
      </trkpt>
      <trkpt lat="43.2188400" lon="-1.0859700">
        <ele>154.8</ele>
        <time>2019-07-17T09:51:40Z</time>
      </trkpt>
      <trkpt lat="43.2187300" lon="-1.0859400">
        <ele>154.7</ele>
        <time>2019-07-17T09:51:43Z</time>
      </trkpt>
      <trkpt lat="43.2186050" lon="-1.0859020">
        <ele>154.5</ele>
        <time>2019-07-17T09:51:46Z</time>
      </trkpt>
      <trkpt lat="43.2185160" lon="-1.0858730">
        <ele>154.3</ele>
        <time>2019-07-17T09:51:48Z</time>
      </trkpt>
      <trkpt lat="43.2184220" lon="-1.0858480">
        <ele>154.2</ele>
        <time>2019-07-17T09:51:50Z</time>
      </trkpt>
      <trkpt lat="43.2183210" lon="-1.0858190">
        <ele>154.0</ele>
        <time>2019-07-17T09:51:52Z</time>
      </trkpt>
      <trkpt lat="43.2182110" lon="-1.0857840">
        <ele>153.8</ele>
        <time>2019-07-17T09:51:54Z</time>
      </trkpt>
      <trkpt lat="43.2180930" lon="-1.0857490">
        <ele>153.6</ele>
        <time>2019-07-17T09:51:56Z</time>
      </trkpt>
      <trkpt lat="43.2179660" lon="-1.0857090">
        <ele>153.4</ele>
        <time>2019-07-17T09:51:58Z</time>
      </trkpt>
      <trkpt lat="43.2178320" lon="-1.0856690">
        <ele>153.2</ele>
        <time>2019-07-17T09:52:00Z</time>
      </trkpt>
      <trkpt lat="43.2176940" lon="-1.0856290">
        <ele>153.2</ele>
        <time>2019-07-17T09:52:02Z</time>
      </trkpt>
      <trkpt lat="43.2175530" lon="-1.0855850">
        <ele>153.2</ele>
        <time>2019-07-17T09:52:04Z</time>
      </trkpt>
      <trkpt lat="43.2174160" lon="-1.0855440">
        <ele>153.2</ele>
        <time>2019-07-17T09:52:06Z</time>
      </trkpt>
      <trkpt lat="43.2172970" lon="-1.0855070">
        <ele>153.3</ele>
        <time>2019-07-17T09:52:08Z</time>
      </trkpt>
      <trkpt lat="43.2171990" lon="-1.0854750">
        <ele>153.5</ele>
        <time>2019-07-17T09:52:10Z</time>
      </trkpt>
      <trkpt lat="43.2170820" lon="-1.0854420">
        <ele>153.6</ele>
        <time>2019-07-17T09:52:13Z</time>
      </trkpt>
      <trkpt lat="43.2169790" lon="-1.0854110">
        <ele>153.8</ele>
        <time>2019-07-17T09:52:16Z</time>
      </trkpt>
      <trkpt lat="43.2168810" lon="-1.0853900">
        <ele>154.1</ele>
        <time>2019-07-17T09:52:19Z</time>
      </trkpt>
      <trkpt lat="43.2167910" lon="-1.0853650">
        <ele>154.3</ele>
        <time>2019-07-17T09:52:22Z</time>
      </trkpt>
      <trkpt lat="43.2166800" lon="-1.0853200">
        <ele>154.7</ele>
        <time>2019-07-17T09:52:26Z</time>
      </trkpt>
      <trkpt lat="43.2165770" lon="-1.0852810">
        <ele>155.1</ele>
        <time>2019-07-17T09:52:30Z</time>
      </trkpt>
      <trkpt lat="43.2164790" lon="-1.0852470">
        <ele>155.6</ele>
        <time>2019-07-17T09:52:35Z</time>
      </trkpt>
      <trkpt lat="43.2163820" lon="-1.0852130">
        <ele>156.2</ele>
        <time>2019-07-17T09:52:41Z</time>
      </trkpt>
      <trkpt lat="43.2162870" lon="-1.0851800">
        <ele>156.9</ele>
        <time>2019-07-17T09:52:47Z</time>
      </trkpt>
      <trkpt lat="43.2161820" lon="-1.0851480">
        <ele>157.4</ele>
        <time>2019-07-17T09:52:53Z</time>
      </trkpt>
      <trkpt lat="43.2160850" lon="-1.0851240">
        <ele>157.8</ele>
        <time>2019-07-17T09:52:59Z</time>
      </trkpt>
      <trkpt lat="43.2159940" lon="-1.0851130">
        <ele>158.2</ele>
        <time>2019-07-17T09:53:04Z</time>
      </trkpt>
      <trkpt lat="43.2159020" lon="-1.0850750">
        <ele>158.7</ele>
        <time>2019-07-17T09:53:09Z</time>
      </trkpt>
      <trkpt lat="43.2158000" lon="-1.0850400">
        <ele>159.2</ele>
        <time>2019-07-17T09:53:14Z</time>
      </trkpt>
      <trkpt lat="43.2156950" lon="-1.0850240">
        <ele>159.6</ele>
        <time>2019-07-17T09:53:19Z</time>
      </trkpt>
      <trkpt lat="43.2155930" lon="-1.0849860">
        <ele>160.0</ele>
        <time>2019-07-17T09:53:24Z</time>
      </trkpt>
      <trkpt lat="43.2154850" lon="-1.0849570">
        <ele>160.4</ele>
        <time>2019-07-17T09:53:29Z</time>
      </trkpt>
      <trkpt lat="43.2153930" lon="-1.0849300">
        <ele>160.7</ele>
        <time>2019-07-17T09:53:33Z</time>
      </trkpt>
      <trkpt lat="43.2152950" lon="-1.0849000">
        <ele>161.0</ele>
        <time>2019-07-17T09:53:37Z</time>
      </trkpt>
      <trkpt lat="43.2151780" lon="-1.0848720">
        <ele>161.2</ele>
        <time>2019-07-17T09:53:41Z</time>
      </trkpt>
      <trkpt lat="43.2150810" lon="-1.0848410">
        <ele>161.3</ele>
        <time>2019-07-17T09:53:44Z</time>
      </trkpt>
      <trkpt lat="43.2149810" lon="-1.0848100">
        <ele>161.4</ele>
        <time>2019-07-17T09:53:47Z</time>
      </trkpt>
      <trkpt lat="43.2148730" lon="-1.0847790">
        <ele>161.4</ele>
        <time>2019-07-17T09:53:50Z</time>
      </trkpt>
      <trkpt lat="43.2147570" lon="-1.0847470">
        <ele>161.4</ele>
        <time>2019-07-17T09:53:53Z</time>
      </trkpt>
      <trkpt lat="43.2146390" lon="-1.0847120">
        <ele>161.4</ele>
        <time>2019-07-17T09:53:56Z</time>
      </trkpt>
      <trkpt lat="43.2145210" lon="-1.0846770">
        <ele>161.3</ele>
        <time>2019-07-17T09:53:59Z</time>
      </trkpt>
      <trkpt lat="43.2143910" lon="-1.0846370">
        <ele>161.1</ele>
        <time>2019-07-17T09:54:02Z</time>
      </trkpt>
      <trkpt lat="43.2142660" lon="-1.0846050">
        <ele>161.0</ele>
        <time>2019-07-17T09:54:05Z</time>
      </trkpt>
      <trkpt lat="43.2141510" lon="-1.0845660">
        <ele>160.9</ele>
        <time>2019-07-17T09:54:08Z</time>
      </trkpt>
      <trkpt lat="43.2140310" lon="-1.0845350">
        <ele>160.8</ele>
        <time>2019-07-17T09:54:11Z</time>
      </trkpt>
      <trkpt lat="43.2139100" lon="-1.0845020">
        <ele>160.6</ele>
        <time>2019-07-17T09:54:14Z</time>
      </trkpt>
      <trkpt lat="43.2137910" lon="-1.0844700">
        <ele>160.5</ele>
        <time>2019-07-17T09:54:17Z</time>
      </trkpt>
      <trkpt lat="43.2137030" lon="-1.0844420">
        <ele>160.4</ele>
        <time>2019-07-17T09:54:19Z</time>
      </trkpt>
      <trkpt lat="43.2135720" lon="-1.0844020">
        <ele>160.2</ele>
        <time>2019-07-17T09:54:22Z</time>
      </trkpt>
      <trkpt lat="43.2134470" lon="-1.0843590">
        <ele>160.0</ele>
        <time>2019-07-17T09:54:25Z</time>
      </trkpt>
      <trkpt lat="43.2133340" lon="-1.0843220">
        <ele>159.9</ele>
        <time>2019-07-17T09:54:28Z</time>
      </trkpt>
      <trkpt lat="43.2132230" lon="-1.0842770">
        <ele>159.8</ele>
        <time>2019-07-17T09:54:31Z</time>
      </trkpt>
      <trkpt lat="43.2131050" lon="-1.0842290">
        <ele>159.6</ele>
        <time>2019-07-17T09:54:34Z</time>
      </trkpt>
      <trkpt lat="43.2129870" lon="-1.0841500">
        <ele>159.5</ele>
        <time>2019-07-17T09:54:37Z</time>
      </trkpt>
      <trkpt lat="43.2129090" lon="-1.0840770">
        <ele>159.3</ele>
        <time>2019-07-17T09:54:39Z</time>
      </trkpt>
      <trkpt lat="43.2128310" lon="-1.0839930">
        <ele>159.3</ele>
        <time>2019-07-17T09:54:41Z</time>
      </trkpt>
      <trkpt lat="43.2127580" lon="-1.0838960">
        <ele>159.2</ele>
        <time>2019-07-17T09:54:43Z</time>
      </trkpt>
      <trkpt lat="43.2126870" lon="-1.0837910">
        <ele>159.1</ele>
        <time>2019-07-17T09:54:45Z</time>
      </trkpt>
      <trkpt lat="43.2126200" lon="-1.0836880">
        <ele>159.0</ele>
        <time>2019-07-17T09:54:47Z</time>
      </trkpt>
      <trkpt lat="43.2125520" lon="-1.0835830">
        <ele>158.8</ele>
        <time>2019-07-17T09:54:49Z</time>
      </trkpt>
      <trkpt lat="43.2124800" lon="-1.0834790">
        <ele>158.7</ele>
        <time>2019-07-17T09:54:51Z</time>
      </trkpt>
      <trkpt lat="43.2124080" lon="-1.0833750">
        <ele>158.7</ele>
        <time>2019-07-17T09:54:53Z</time>
      </trkpt>
      <trkpt lat="43.2123370" lon="-1.0832710">
        <ele>158.7</ele>
        <time>2019-07-17T09:54:55Z</time>
      </trkpt>
      <trkpt lat="43.2122700" lon="-1.0831690">
        <ele>158.7</ele>
        <time>2019-07-17T09:54:57Z</time>
      </trkpt>
      <trkpt lat="43.2122050" lon="-1.0830730">
        <ele>158.8</ele>
        <time>2019-07-17T09:54:59Z</time>
      </trkpt>
      <trkpt lat="43.2121410" lon="-1.0829780">
        <ele>158.7</ele>
        <time>2019-07-17T09:55:01Z</time>
      </trkpt>
      <trkpt lat="43.2120750" lon="-1.0828780">
        <ele>158.7</ele>
        <time>2019-07-17T09:55:03Z</time>
      </trkpt>
      <trkpt lat="43.2120100" lon="-1.0827830">
        <ele>158.6</ele>
        <time>2019-07-17T09:55:05Z</time>
      </trkpt>
      <trkpt lat="43.2119400" lon="-1.0826800">
        <ele>158.6</ele>
        <time>2019-07-17T09:55:07Z</time>
      </trkpt>
      <trkpt lat="43.2118710" lon="-1.0825790">
        <ele>158.6</ele>
        <time>2019-07-17T09:55:09Z</time>
      </trkpt>
      <trkpt lat="43.2118040" lon="-1.0824720">
        <ele>158.6</ele>
        <time>2019-07-17T09:55:11Z</time>
      </trkpt>
      <trkpt lat="43.2117340" lon="-1.0823750">
        <ele>158.6</ele>
        <time>2019-07-17T09:55:13Z</time>
      </trkpt>
      <trkpt lat="43.2116720" lon="-1.0822740">
        <ele>158.5</ele>
        <time>2019-07-17T09:55:15Z</time>
      </trkpt>
      <trkpt lat="43.2116080" lon="-1.0821750">
        <ele>158.4</ele>
        <time>2019-07-17T09:55:17Z</time>
      </trkpt>
      <trkpt lat="43.2115460" lon="-1.0820720">
        <ele>158.1</ele>
        <time>2019-07-17T09:55:19Z</time>
      </trkpt>
      <trkpt lat="43.2114780" lon="-1.0819730">
        <ele>157.6</ele>
        <time>2019-07-17T09:55:21Z</time>
      </trkpt>
      <trkpt lat="43.2114100" lon="-1.0818700">
        <ele>156.7</ele>
        <time>2019-07-17T09:55:23Z</time>
      </trkpt>
      <trkpt lat="43.2113470" lon="-1.0817710">
        <ele>155.7</ele>
        <time>2019-07-17T09:55:25Z</time>
      </trkpt>
      <trkpt lat="43.2112640" lon="-1.0816620">
        <ele>154.6</ele>
        <time>2019-07-17T09:55:27Z</time>
      </trkpt>
      <trkpt lat="43.2111660" lon="-1.0815330">
        <ele>153.5</ele>
        <time>2019-07-17T09:55:29Z</time>
      </trkpt>
      <trkpt lat="43.2110650" lon="-1.0813840">
        <ele>152.1</ele>
        <time>2019-07-17T09:55:31Z</time>
      </trkpt>
      <trkpt lat="43.2109460" lon="-1.0812240">
        <ele>150.9</ele>
        <time>2019-07-17T09:55:33Z</time>
      </trkpt>
      <trkpt lat="43.2108300" lon="-1.0810460">
        <ele>150.0</ele>
        <time>2019-07-17T09:55:35Z</time>
      </trkpt>
      <trkpt lat="43.2107680" lon="-1.0809520">
        <ele>149.7</ele>
        <time>2019-07-17T09:55:36Z</time>
      </trkpt>
      <trkpt lat="43.2107010" lon="-1.0808580">
        <ele>149.7</ele>
        <time>2019-07-17T09:55:37Z</time>
      </trkpt>
      <trkpt lat="43.2106430" lon="-1.0807520">
        <ele>149.9</ele>
        <time>2019-07-17T09:55:38Z</time>
      </trkpt>
      <trkpt lat="43.2105770" lon="-1.0806500">
        <ele>150.3</ele>
        <time>2019-07-17T09:55:39Z</time>
      </trkpt>
      <trkpt lat="43.2105120" lon="-1.0805460">
        <ele>150.8</ele>
        <time>2019-07-17T09:55:40Z</time>
      </trkpt>
      <trkpt lat="43.2104450" lon="-1.0804480">
        <ele>151.5</ele>
        <time>2019-07-17T09:55:41Z</time>
      </trkpt>
      <trkpt lat="43.2103810" lon="-1.0803510">
        <ele>151.6</ele>
        <time>2019-07-17T09:55:42Z</time>
      </trkpt>
      <trkpt lat="43.2103150" lon="-1.0802470">
        <ele>151.7</ele>
        <time>2019-07-17T09:55:43Z</time>
      </trkpt>
      <trkpt lat="43.2102480" lon="-1.0801460">
        <ele>151.7</ele>
        <time>2019-07-17T09:55:44Z</time>
      </trkpt>
      <trkpt lat="43.2101820" lon="-1.0800410">
        <ele>151.7</ele>
        <time>2019-07-17T09:55:45Z</time>
      </trkpt>
      <trkpt lat="43.2101200" lon="-1.0799450">
        <ele>151.8</ele>
        <time>2019-07-17T09:55:46Z</time>
      </trkpt>
      <trkpt lat="43.2100490" lon="-1.0798440">
        <ele>151.8</ele>
        <time>2019-07-17T09:55:47Z</time>
      </trkpt>
      <trkpt lat="43.2099370" lon="-1.0796750">
        <ele>151.8</ele>
        <time>2019-07-17T09:55:49Z</time>
      </trkpt>
      <trkpt lat="43.2098530" lon="-1.0795420">
        <ele>151.8</ele>
        <time>2019-07-17T09:55:51Z</time>
      </trkpt>
      <trkpt lat="43.2097760" lon="-1.0794440">
        <ele>151.9</ele>
        <time>2019-07-17T09:55:53Z</time>
      </trkpt>
      <trkpt lat="43.2096700" lon="-1.0793420">
        <ele>151.9</ele>
        <time>2019-07-17T09:55:56Z</time>
      </trkpt>
      <trkpt lat="43.2095870" lon="-1.0792270">
        <ele>151.9</ele>
        <time>2019-07-17T09:55:59Z</time>
      </trkpt>
      <trkpt lat="43.2095150" lon="-1.0791320">
        <ele>151.9</ele>
        <time>2019-07-17T09:56:02Z</time>
      </trkpt>
      <trkpt lat="43.2094390" lon="-1.0790320">
        <ele>152.0</ele>
        <time>2019-07-17T09:56:05Z</time>
      </trkpt>
      <trkpt lat="43.2093630" lon="-1.0789370">
        <ele>152.1</ele>
        <time>2019-07-17T09:56:08Z</time>
      </trkpt>
      <trkpt lat="43.2092970" lon="-1.0788310">
        <ele>152.3</ele>
        <time>2019-07-17T09:56:11Z</time>
      </trkpt>
      <trkpt lat="43.2092230" lon="-1.0787230">
        <ele>152.4</ele>
        <time>2019-07-17T09:56:16Z</time>
      </trkpt>
      <trkpt lat="43.2091620" lon="-1.0786090">
        <ele>152.7</ele>
        <time>2019-07-17T09:56:21Z</time>
      </trkpt>
      <trkpt lat="43.2091050" lon="-1.0785060">
        <ele>153.0</ele>
        <time>2019-07-17T09:56:26Z</time>
      </trkpt>
      <trkpt lat="43.2090370" lon="-1.0783940">
        <ele>153.5</ele>
        <time>2019-07-17T09:56:31Z</time>
      </trkpt>
      <trkpt lat="43.2089770" lon="-1.0782850">
        <ele>153.8</ele>
        <time>2019-07-17T09:56:35Z</time>
      </trkpt>
      <trkpt lat="43.2088950" lon="-1.0781660">
        <ele>154.2</ele>
        <time>2019-07-17T09:56:39Z</time>
      </trkpt>
      <trkpt lat="43.2088190" lon="-1.0780500">
        <ele>154.4</ele>
        <time>2019-07-17T09:56:43Z</time>
      </trkpt>
      <trkpt lat="43.2087400" lon="-1.0779380">
        <ele>154.6</ele>
        <time>2019-07-17T09:56:46Z</time>
      </trkpt>
      <trkpt lat="43.2086520" lon="-1.0778080">
        <ele>154.7</ele>
        <time>2019-07-17T09:56:49Z</time>
      </trkpt>
      <trkpt lat="43.2085930" lon="-1.0777130">
        <ele>154.8</ele>
        <time>2019-07-17T09:56:51Z</time>
      </trkpt>
      <trkpt lat="43.2085320" lon="-1.0776160">
        <ele>154.8</ele>
        <time>2019-07-17T09:56:53Z</time>
      </trkpt>
      <trkpt lat="43.2084640" lon="-1.0775210">
        <ele>154.8</ele>
        <time>2019-07-17T09:56:55Z</time>
      </trkpt>
      <trkpt lat="43.2083900" lon="-1.0774190">
        <ele>154.7</ele>
        <time>2019-07-17T09:56:57Z</time>
      </trkpt>
      <trkpt lat="43.2083120" lon="-1.0773050">
        <ele>154.6</ele>
        <time>2019-07-17T09:56:59Z</time>
      </trkpt>
      <trkpt lat="43.2082320" lon="-1.0771840">
        <ele>154.5</ele>
        <time>2019-07-17T09:57:01Z</time>
      </trkpt>
      <trkpt lat="43.2081450" lon="-1.0770550">
        <ele>154.3</ele>
        <time>2019-07-17T09:57:03Z</time>
      </trkpt>
      <trkpt lat="43.2080570" lon="-1.0769190">
        <ele>154.0</ele>
        <time>2019-07-17T09:57:05Z</time>
      </trkpt>
      <trkpt lat="43.2079650" lon="-1.0767760">
        <ele>153.7</ele>
        <time>2019-07-17T09:57:07Z</time>
      </trkpt>
      <trkpt lat="43.2078690" lon="-1.0766280">
        <ele>153.3</ele>
        <time>2019-07-17T09:57:09Z</time>
      </trkpt>
      <trkpt lat="43.2077700" lon="-1.0764730">
        <ele>152.9</ele>
        <time>2019-07-17T09:57:11Z</time>
      </trkpt>
      <trkpt lat="43.2076620" lon="-1.0763090">
        <ele>152.5</ele>
        <time>2019-07-17T09:57:13Z</time>
      </trkpt>
      <trkpt lat="43.2075530" lon="-1.0761390">
        <ele>152.0</ele>
        <time>2019-07-17T09:57:15Z</time>
      </trkpt>
      <trkpt lat="43.2074500" lon="-1.0759750">
        <ele>151.6</ele>
        <time>2019-07-17T09:57:17Z</time>
      </trkpt>
      <trkpt lat="43.2073580" lon="-1.0758270">
        <ele>151.1</ele>
        <time>2019-07-17T09:57:19Z</time>
      </trkpt>
      <trkpt lat="43.2072750" lon="-1.0756990">
        <ele>150.7</ele>
        <time>2019-07-17T09:57:21Z</time>
      </trkpt>
      <trkpt lat="43.2072080" lon="-1.0755950">
        <ele>150.3</ele>
        <time>2019-07-17T09:57:23Z</time>
      </trkpt>
      <trkpt lat="43.2071470" lon="-1.0755000">
        <ele>149.9</ele>
        <time>2019-07-17T09:57:25Z</time>
      </trkpt>
      <trkpt lat="43.2070690" lon="-1.0753690">
        <ele>150.5</ele>
        <time>2019-07-17T09:57:28Z</time>
      </trkpt>
      <trkpt lat="43.2070030" lon="-1.0752640">
        <ele>151.2</ele>
        <time>2019-07-17T09:57:31Z</time>
      </trkpt>
      <trkpt lat="43.2069240" lon="-1.0751530">
        <ele>151.4</ele>
        <time>2019-07-17T09:57:35Z</time>
      </trkpt>
      <trkpt lat="43.2068710" lon="-1.0750490">
        <ele>151.6</ele>
        <time>2019-07-17T09:57:39Z</time>
      </trkpt>
      <trkpt lat="43.2068250" lon="-1.0749290">
        <ele>152.0</ele>
        <time>2019-07-17T09:57:44Z</time>
      </trkpt>
      <trkpt lat="43.2067640" lon="-1.0748290">
        <ele>152.4</ele>
        <time>2019-07-17T09:57:48Z</time>
      </trkpt>
      <trkpt lat="43.2066930" lon="-1.0747520">
        <ele>152.9</ele>
        <time>2019-07-17T09:57:52Z</time>
      </trkpt>
      <trkpt lat="43.2066370" lon="-1.0746410">
        <ele>153.5</ele>
        <time>2019-07-17T09:57:57Z</time>
      </trkpt>
      <trkpt lat="43.2065710" lon="-1.0745310">
        <ele>154.0</ele>
        <time>2019-07-17T09:58:03Z</time>
      </trkpt>
      <trkpt lat="43.2065160" lon="-1.0744240">
        <ele>154.5</ele>
        <time>2019-07-17T09:58:09Z</time>
      </trkpt>
      <trkpt lat="43.2064650" lon="-1.0743200">
        <ele>155.0</ele>
        <time>2019-07-17T09:58:15Z</time>
      </trkpt>
      <trkpt lat="43.2064090" lon="-1.0742180">
        <ele>155.4</ele>
        <time>2019-07-17T09:58:20Z</time>
      </trkpt>
      <trkpt lat="43.2063460" lon="-1.0741080">
        <ele>155.9</ele>
        <time>2019-07-17T09:58:25Z</time>
      </trkpt>
      <trkpt lat="43.2062940" lon="-1.0740040">
        <ele>156.4</ele>
        <time>2019-07-17T09:58:30Z</time>
      </trkpt>
      <trkpt lat="43.2062450" lon="-1.0738910">
        <ele>156.7</ele>
        <time>2019-07-17T09:58:36Z</time>
      </trkpt>
      <trkpt lat="43.2061790" lon="-1.0737830">
        <ele>157.1</ele>
        <time>2019-07-17T09:58:42Z</time>
      </trkpt>
      <trkpt lat="43.2061140" lon="-1.0736770">
        <ele>157.4</ele>
        <time>2019-07-17T09:58:48Z</time>
      </trkpt>
      <trkpt lat="43.2060490" lon="-1.0735670">
        <ele>157.6</ele>
        <time>2019-07-17T09:58:55Z</time>
      </trkpt>
      <trkpt lat="43.2059930" lon="-1.0734540">
        <ele>157.8</ele>
        <time>2019-07-17T09:59:01Z</time>
      </trkpt>
      <trkpt lat="43.2059350" lon="-1.0733490">
        <ele>157.9</ele>
        <time>2019-07-17T09:59:06Z</time>
      </trkpt>
      <trkpt lat="43.2058730" lon="-1.0732500">
        <ele>157.8</ele>
        <time>2019-07-17T09:59:11Z</time>
      </trkpt>
      <trkpt lat="43.2058150" lon="-1.0731360">
        <ele>157.8</ele>
        <time>2019-07-17T09:59:16Z</time>
      </trkpt>
      <trkpt lat="43.2057550" lon="-1.0730250">
        <ele>157.9</ele>
        <time>2019-07-17T09:59:20Z</time>
      </trkpt>
      <trkpt lat="43.2057050" lon="-1.0729080">
        <ele>158.1</ele>
        <time>2019-07-17T09:59:24Z</time>
      </trkpt>
      <trkpt lat="43.2056340" lon="-1.0727800">
        <ele>158.1</ele>
        <time>2019-07-17T09:59:28Z</time>
      </trkpt>
      <trkpt lat="43.2055760" lon="-1.0726770">
        <ele>158.0</ele>
        <time>2019-07-17T09:59:31Z</time>
      </trkpt>
      <trkpt lat="43.2055170" lon="-1.0725660">
        <ele>157.8</ele>
        <time>2019-07-17T09:59:34Z</time>
      </trkpt>
      <trkpt lat="43.2054540" lon="-1.0724430">
        <ele>157.4</ele>
        <time>2019-07-17T09:59:37Z</time>
      </trkpt>
      <trkpt lat="43.2053790" lon="-1.0723060">
        <ele>157.1</ele>
        <time>2019-07-17T09:59:40Z</time>
      </trkpt>
      <trkpt lat="43.2053000" lon="-1.0721540">
        <ele>156.8</ele>
        <time>2019-07-17T09:59:43Z</time>
      </trkpt>
      <trkpt lat="43.2052430" lon="-1.0720470">
        <ele>156.5</ele>
        <time>2019-07-17T09:59:45Z</time>
      </trkpt>
      <trkpt lat="43.2051810" lon="-1.0719350">
        <ele>156.2</ele>
        <time>2019-07-17T09:59:47Z</time>
      </trkpt>
      <trkpt lat="43.2051200" lon="-1.0718140">
        <ele>155.8</ele>
        <time>2019-07-17T09:59:49Z</time>
      </trkpt>
      <trkpt lat="43.2050520" lon="-1.0716920">
        <ele>155.5</ele>
        <time>2019-07-17T09:59:51Z</time>
      </trkpt>
      <trkpt lat="43.2049890" lon="-1.0715630">
        <ele>155.2</ele>
        <time>2019-07-17T09:59:53Z</time>
      </trkpt>
      <trkpt lat="43.2049290" lon="-1.0714470">
        <ele>155.2</ele>
        <time>2019-07-17T09:59:55Z</time>
      </trkpt>
      <trkpt lat="43.2048650" lon="-1.0713420">
        <ele>155.1</ele>
        <time>2019-07-17T09:59:57Z</time>
      </trkpt>
      <trkpt lat="43.2047960" lon="-1.0712360">
        <ele>155.1</ele>
        <time>2019-07-17T09:59:59Z</time>
      </trkpt>
      <trkpt lat="43.2047250" lon="-1.0711240">
        <ele>155.1</ele>
        <time>2019-07-17T10:00:01Z</time>
      </trkpt>
      <trkpt lat="43.2046580" lon="-1.0710160">
        <ele>155.1</ele>
        <time>2019-07-17T10:00:03Z</time>
      </trkpt>
      <trkpt lat="43.2045910" lon="-1.0709070">
        <ele>155.2</ele>
        <time>2019-07-17T10:00:05Z</time>
      </trkpt>
      <trkpt lat="43.2045230" lon="-1.0707980">
        <ele>155.3</ele>
        <time>2019-07-17T10:00:07Z</time>
      </trkpt>
      <trkpt lat="43.2044550" lon="-1.0706990">
        <ele>155.6</ele>
        <time>2019-07-17T10:00:09Z</time>
      </trkpt>
      <trkpt lat="43.2043850" lon="-1.0705980">
        <ele>156.0</ele>
        <time>2019-07-17T10:00:11Z</time>
      </trkpt>
      <trkpt lat="43.2043180" lon="-1.0704970">
        <ele>156.5</ele>
        <time>2019-07-17T10:00:13Z</time>
      </trkpt>
      <trkpt lat="43.2042470" lon="-1.0704000">
        <ele>157.2</ele>
        <time>2019-07-17T10:00:15Z</time>
      </trkpt>
      <trkpt lat="43.2041820" lon="-1.0702990">
        <ele>157.7</ele>
        <time>2019-07-17T10:00:17Z</time>
      </trkpt>
      <trkpt lat="43.2041170" lon="-1.0702120">
        <ele>158.2</ele>
        <time>2019-07-17T10:00:19Z</time>
      </trkpt>
      <trkpt lat="43.2040240" lon="-1.0701100">
        <ele>158.4</ele>
        <time>2019-07-17T10:00:22Z</time>
      </trkpt>
      <trkpt lat="43.2039620" lon="-1.0700180">
        <ele>158.6</ele>
        <time>2019-07-17T10:00:25Z</time>
      </trkpt>
      <trkpt lat="43.2038790" lon="-1.0699030">
        <ele>158.8</ele>
        <time>2019-07-17T10:00:30Z</time>
      </trkpt>
      <trkpt lat="43.2038070" lon="-1.0697850">
        <ele>158.7</ele>
        <time>2019-07-17T10:00:34Z</time>
      </trkpt>
      <trkpt lat="43.2037350" lon="-1.0696600">
        <ele>158.9</ele>
        <time>2019-07-17T10:00:38Z</time>
      </trkpt>
      <trkpt lat="43.2036860" lon="-1.0695480">
        <ele>159.2</ele>
        <time>2019-07-17T10:00:41Z</time>
      </trkpt>
      <trkpt lat="43.2036320" lon="-1.0694230">
        <ele>159.7</ele>
        <time>2019-07-17T10:00:45Z</time>
      </trkpt>
      <trkpt lat="43.2035750" lon="-1.0693030">
        <ele>160.4</ele>
        <time>2019-07-17T10:00:49Z</time>
      </trkpt>
      <trkpt lat="43.2035200" lon="-1.0692040">
        <ele>161.1</ele>
        <time>2019-07-17T10:00:53Z</time>
      </trkpt>
      <trkpt lat="43.2034700" lon="-1.0690990">
        <ele>161.8</ele>
        <time>2019-07-17T10:00:57Z</time>
      </trkpt>
      <trkpt lat="43.2034200" lon="-1.0689870">
        <ele>162.4</ele>
        <time>2019-07-17T10:01:01Z</time>
      </trkpt>
      <trkpt lat="43.2033780" lon="-1.0688750">
        <ele>163.0</ele>
        <time>2019-07-17T10:01:05Z</time>
      </trkpt>
      <trkpt lat="43.2033280" lon="-1.0687670">
        <ele>163.5</ele>
        <time>2019-07-17T10:01:09Z</time>
      </trkpt>
      <trkpt lat="43.2032750" lon="-1.0686650">
        <ele>164.0</ele>
        <time>2019-07-17T10:01:13Z</time>
      </trkpt>
      <trkpt lat="43.2032320" lon="-1.0685520">
        <ele>164.4</ele>
        <time>2019-07-17T10:01:17Z</time>
      </trkpt>
      <trkpt lat="43.2031750" lon="-1.0684480">
        <ele>164.8</ele>
        <time>2019-07-17T10:01:21Z</time>
      </trkpt>
      <trkpt lat="43.2031300" lon="-1.0683350">
        <ele>165.1</ele>
        <time>2019-07-17T10:01:25Z</time>
      </trkpt>
      <trkpt lat="43.2030760" lon="-1.0682290">
        <ele>165.5</ele>
        <time>2019-07-17T10:01:29Z</time>
      </trkpt>
      <trkpt lat="43.2030250" lon="-1.0681210">
        <ele>165.8</ele>
        <time>2019-07-17T10:01:33Z</time>
      </trkpt>
      <trkpt lat="43.2029760" lon="-1.0680170">
        <ele>166.1</ele>
        <time>2019-07-17T10:01:37Z</time>
      </trkpt>
      <trkpt lat="43.2029270" lon="-1.0679130">
        <ele>166.3</ele>
        <time>2019-07-17T10:01:41Z</time>
      </trkpt>
      <trkpt lat="43.2028780" lon="-1.0678070">
        <ele>166.6</ele>
        <time>2019-07-17T10:01:45Z</time>
      </trkpt>
      <trkpt lat="43.2028200" lon="-1.0676790">
        <ele>167.0</ele>
        <time>2019-07-17T10:01:50Z</time>
      </trkpt>
      <trkpt lat="43.2027620" lon="-1.0675760">
        <ele>167.4</ele>
        <time>2019-07-17T10:01:54Z</time>
      </trkpt>
      <trkpt lat="43.2027070" lon="-1.0674620">
        <ele>167.7</ele>
        <time>2019-07-17T10:01:58Z</time>
      </trkpt>
      <trkpt lat="43.2026600" lon="-1.0673470">
        <ele>168.1</ele>
        <time>2019-07-17T10:02:02Z</time>
      </trkpt>
      <trkpt lat="43.2026090" lon="-1.0672200">
        <ele>168.6</ele>
        <time>2019-07-17T10:02:07Z</time>
      </trkpt>
      <trkpt lat="43.2025520" lon="-1.0671110">
        <ele>169.0</ele>
        <time>2019-07-17T10:02:12Z</time>
      </trkpt>
      <trkpt lat="43.2024900" lon="-1.0669970">
        <ele>169.4</ele>
        <time>2019-07-17T10:02:17Z</time>
      </trkpt>
      <trkpt lat="43.2024360" lon="-1.0668790">
        <ele>169.9</ele>
        <time>2019-07-17T10:02:22Z</time>
      </trkpt>
      <trkpt lat="43.2023760" lon="-1.0667700">
        <ele>170.3</ele>
        <time>2019-07-17T10:02:27Z</time>
      </trkpt>
      <trkpt lat="43.2023180" lon="-1.0666590">
        <ele>170.7</ele>
        <time>2019-07-17T10:02:32Z</time>
      </trkpt>
      <trkpt lat="43.2022510" lon="-1.0665400">
        <ele>171.1</ele>
        <time>2019-07-17T10:02:37Z</time>
      </trkpt>
      <trkpt lat="43.2021990" lon="-1.0664300">
        <ele>171.5</ele>
        <time>2019-07-17T10:02:42Z</time>
      </trkpt>
      <trkpt lat="43.2021380" lon="-1.0663210">
        <ele>172.0</ele>
        <time>2019-07-17T10:02:47Z</time>
      </trkpt>
      <trkpt lat="43.2020840" lon="-1.0662140">
        <ele>172.3</ele>
        <time>2019-07-17T10:02:52Z</time>
      </trkpt>
      <trkpt lat="43.2020230" lon="-1.0660840">
        <ele>172.7</ele>
        <time>2019-07-17T10:02:57Z</time>
      </trkpt>
      <trkpt lat="43.2019800" lon="-1.0659570">
        <ele>173.0</ele>
        <time>2019-07-17T10:03:01Z</time>
      </trkpt>
      <trkpt lat="43.2019220" lon="-1.0658410">
        <ele>173.3</ele>
        <time>2019-07-17T10:03:05Z</time>
      </trkpt>
      <trkpt lat="43.2018650" lon="-1.0657230">
        <ele>173.6</ele>
        <time>2019-07-17T10:03:09Z</time>
      </trkpt>
      <trkpt lat="43.2018110" lon="-1.0656170">
        <ele>173.8</ele>
        <time>2019-07-17T10:03:13Z</time>
      </trkpt>
      <trkpt lat="43.2017590" lon="-1.0654970">
        <ele>174.0</ele>
        <time>2019-07-17T10:03:17Z</time>
      </trkpt>
      <trkpt lat="43.2017060" lon="-1.0653680">
        <ele>174.2</ele>
        <time>2019-07-17T10:03:21Z</time>
      </trkpt>
      <trkpt lat="43.2016500" lon="-1.0652560">
        <ele>174.3</ele>
        <time>2019-07-17T10:03:25Z</time>
      </trkpt>
      <trkpt lat="43.2016000" lon="-1.0651360">
        <ele>174.5</ele>
        <time>2019-07-17T10:03:29Z</time>
      </trkpt>
      <trkpt lat="43.2015580" lon="-1.0650190">
        <ele>174.6</ele>
        <time>2019-07-17T10:03:33Z</time>
      </trkpt>
      <trkpt lat="43.2014990" lon="-1.0649100">
        <ele>174.6</ele>
        <time>2019-07-17T10:03:37Z</time>
      </trkpt>
      <trkpt lat="43.2014400" lon="-1.0647780">
        <ele>174.7</ele>
        <time>2019-07-17T10:03:41Z</time>
      </trkpt>
      <trkpt lat="43.2013860" lon="-1.0646520">
        <ele>174.7</ele>
        <time>2019-07-17T10:03:44Z</time>
      </trkpt>
      <trkpt lat="43.2013200" lon="-1.0645050">
        <ele>174.7</ele>
        <time>2019-07-17T10:03:47Z</time>
      </trkpt>
      <trkpt lat="43.2012720" lon="-1.0643930">
        <ele>174.7</ele>
        <time>2019-07-17T10:03:49Z</time>
      </trkpt>
      <trkpt lat="43.2012110" lon="-1.0642800">
        <ele>174.6</ele>
        <time>2019-07-17T10:03:51Z</time>
      </trkpt>
      <trkpt lat="43.2011410" lon="-1.0641610">
        <ele>174.4</ele>
        <time>2019-07-17T10:03:53Z</time>
      </trkpt>
      <trkpt lat="43.2010660" lon="-1.0640290">
        <ele>174.2</ele>
        <time>2019-07-17T10:03:55Z</time>
      </trkpt>
      <trkpt lat="43.2009900" lon="-1.0638790">
        <ele>174.0</ele>
        <time>2019-07-17T10:03:57Z</time>
      </trkpt>
      <trkpt lat="43.2009090" lon="-1.0637280">
        <ele>173.7</ele>
        <time>2019-07-17T10:03:59Z</time>
      </trkpt>
      <trkpt lat="43.2008160" lon="-1.0635910">
        <ele>173.3</ele>
        <time>2019-07-17T10:04:01Z</time>
      </trkpt>
      <trkpt lat="43.2007270" lon="-1.0634620">
        <ele>173.0</ele>
        <time>2019-07-17T10:04:03Z</time>
      </trkpt>
      <trkpt lat="43.2006330" lon="-1.0633330">
        <ele>172.5</ele>
        <time>2019-07-17T10:04:05Z</time>
      </trkpt>
      <trkpt lat="43.2005400" lon="-1.0632010">
        <ele>172.1</ele>
        <time>2019-07-17T10:04:07Z</time>
      </trkpt>
      <trkpt lat="43.2004470" lon="-1.0630660">
        <ele>171.5</ele>
        <time>2019-07-17T10:04:09Z</time>
      </trkpt>
      <trkpt lat="43.2003540" lon="-1.0629320">
        <ele>171.0</ele>
        <time>2019-07-17T10:04:11Z</time>
      </trkpt>
      <trkpt lat="43.2002600" lon="-1.0627960">
        <ele>170.5</ele>
        <time>2019-07-17T10:04:13Z</time>
      </trkpt>
      <trkpt lat="43.2001620" lon="-1.0626620">
        <ele>169.9</ele>
        <time>2019-07-17T10:04:15Z</time>
      </trkpt>
      <trkpt lat="43.2000600" lon="-1.0625300">
        <ele>169.4</ele>
        <time>2019-07-17T10:04:17Z</time>
      </trkpt>
      <trkpt lat="43.1999540" lon="-1.0624000">
        <ele>168.9</ele>
        <time>2019-07-17T10:04:19Z</time>
      </trkpt>
      <trkpt lat="43.1998450" lon="-1.0622760">
        <ele>168.4</ele>
        <time>2019-07-17T10:04:21Z</time>
      </trkpt>
      <trkpt lat="43.1997330" lon="-1.0621540">
        <ele>168.0</ele>
        <time>2019-07-17T10:04:23Z</time>
      </trkpt>
      <trkpt lat="43.1996210" lon="-1.0620300">
        <ele>167.8</ele>
        <time>2019-07-17T10:04:25Z</time>
      </trkpt>
      <trkpt lat="43.1995100" lon="-1.0619100">
        <ele>167.5</ele>
        <time>2019-07-17T10:04:27Z</time>
      </trkpt>
      <trkpt lat="43.1993960" lon="-1.0617860">
        <ele>167.3</ele>
        <time>2019-07-17T10:04:29Z</time>
      </trkpt>
      <trkpt lat="43.1992820" lon="-1.0616630">
        <ele>166.9</ele>
        <time>2019-07-17T10:04:31Z</time>
      </trkpt>
      <trkpt lat="43.1991710" lon="-1.0615350">
        <ele>166.6</ele>
        <time>2019-07-17T10:04:33Z</time>
      </trkpt>
      <trkpt lat="43.1990590" lon="-1.0614080">
        <ele>166.2</ele>
        <time>2019-07-17T10:04:35Z</time>
      </trkpt>
      <trkpt lat="43.1989540" lon="-1.0612830">
        <ele>166.1</ele>
        <time>2019-07-17T10:04:37Z</time>
      </trkpt>
      <trkpt lat="43.1988590" lon="-1.0611650">
        <ele>167.1</ele>
        <time>2019-07-17T10:04:39Z</time>
      </trkpt>
      <trkpt lat="43.1987840" lon="-1.0610550">
        <ele>167.9</ele>
        <time>2019-07-17T10:04:41Z</time>
      </trkpt>
      <trkpt lat="43.1987080" lon="-1.0609680">
        <ele>168.7</ele>
        <time>2019-07-17T10:04:43Z</time>
      </trkpt>
      <trkpt lat="43.1986130" lon="-1.0608600">
        <ele>170.1</ele>
        <time>2019-07-17T10:04:46Z</time>
      </trkpt>
      <trkpt lat="43.1985240" lon="-1.0607660">
        <ele>171.0</ele>
        <time>2019-07-17T10:04:49Z</time>
      </trkpt>
      <trkpt lat="43.1984490" lon="-1.0606590">
        <ele>171.9</ele>
        <time>2019-07-17T10:04:52Z</time>
      </trkpt>
      <trkpt lat="43.1983530" lon="-1.0605680">
        <ele>172.9</ele>
        <time>2019-07-17T10:04:55Z</time>
      </trkpt>
      <trkpt lat="43.1982570" lon="-1.0604890">
        <ele>173.9</ele>
        <time>2019-07-17T10:04:58Z</time>
      </trkpt>
      <trkpt lat="43.1981670" lon="-1.0604200">
        <ele>175.0</ele>
        <time>2019-07-17T10:05:01Z</time>
      </trkpt>
      <trkpt lat="43.1980900" lon="-1.0603280">
        <ele>175.8</ele>
        <time>2019-07-17T10:05:05Z</time>
      </trkpt>
      <trkpt lat="43.1980020" lon="-1.0602740">
        <ele>176.5</ele>
        <time>2019-07-17T10:05:09Z</time>
      </trkpt>
      <trkpt lat="43.1979040" lon="-1.0602550">
        <ele>176.9</ele>
        <time>2019-07-17T10:05:13Z</time>
      </trkpt>
      <trkpt lat="43.1977780" lon="-1.0602240">
        <ele>177.1</ele>
        <time>2019-07-17T10:05:17Z</time>
      </trkpt>
      <trkpt lat="43.1976700" lon="-1.0601830">
        <ele>177.2</ele>
        <time>2019-07-17T10:05:22Z</time>
      </trkpt>
      <trkpt lat="43.1975900" lon="-1.0600930">
        <ele>177.3</ele>
        <time>2019-07-17T10:05:27Z</time>
      </trkpt>
      <trkpt lat="43.1974940" lon="-1.0600390">
        <ele>177.6</ele>
        <time>2019-07-17T10:05:34Z</time>
      </trkpt>
      <trkpt lat="43.1974210" lon="-1.0599620">
        <ele>177.8</ele>
        <time>2019-07-17T10:05:39Z</time>
      </trkpt>
      <trkpt lat="43.1973420" lon="-1.0598630">
        <ele>178.0</ele>
        <time>2019-07-17T10:05:44Z</time>
      </trkpt>
      <trkpt lat="43.1972580" lon="-1.0597680">
        <ele>178.2</ele>
        <time>2019-07-17T10:05:50Z</time>
      </trkpt>
      <trkpt lat="43.1971710" lon="-1.0597310">
        <ele>178.2</ele>
        <time>2019-07-17T10:05:55Z</time>
      </trkpt>
      <trkpt lat="43.1970750" lon="-1.0597170">
        <ele>178.2</ele>
        <time>2019-07-17T10:06:00Z</time>
      </trkpt>
      <trkpt lat="43.1969900" lon="-1.0596590">
        <ele>178.2</ele>
        <time>2019-07-17T10:06:05Z</time>
      </trkpt>
      <trkpt lat="43.1969000" lon="-1.0596180">
        <ele>178.2</ele>
        <time>2019-07-17T10:06:11Z</time>
      </trkpt>
      <trkpt lat="43.1968140" lon="-1.0595580">
        <ele>178.2</ele>
        <time>2019-07-17T10:06:16Z</time>
      </trkpt>
      <trkpt lat="43.1967260" lon="-1.0595030">
        <ele>178.2</ele>
        <time>2019-07-17T10:06:21Z</time>
      </trkpt>
      <trkpt lat="43.1966300" lon="-1.0594600">
        <ele>178.0</ele>
        <time>2019-07-17T10:06:26Z</time>
      </trkpt>
      <trkpt lat="43.1965290" lon="-1.0594130">
        <ele>177.7</ele>
        <time>2019-07-17T10:06:30Z</time>
      </trkpt>
      <trkpt lat="43.1964310" lon="-1.0593410">
        <ele>177.3</ele>
        <time>2019-07-17T10:06:34Z</time>
      </trkpt>
      <trkpt lat="43.1963430" lon="-1.0592780">
        <ele>177.0</ele>
        <time>2019-07-17T10:06:37Z</time>
      </trkpt>
      <trkpt lat="43.1962380" lon="-1.0592150">
        <ele>176.6</ele>
        <time>2019-07-17T10:06:40Z</time>
      </trkpt>
      <trkpt lat="43.1961480" lon="-1.0591850">
        <ele>176.4</ele>
        <time>2019-07-17T10:06:42Z</time>
      </trkpt>
      <trkpt lat="43.1960240" lon="-1.0591160">
        <ele>176.3</ele>
        <time>2019-07-17T10:06:45Z</time>
      </trkpt>
      <trkpt lat="43.1959360" lon="-1.0590720">
        <ele>176.3</ele>
        <time>2019-07-17T10:06:47Z</time>
      </trkpt>
      <trkpt lat="43.1958310" lon="-1.0590390">
        <ele>176.3</ele>
        <time>2019-07-17T10:06:49Z</time>
      </trkpt>
      <trkpt lat="43.1957130" lon="-1.0590180">
        <ele>176.3</ele>
        <time>2019-07-17T10:06:51Z</time>
      </trkpt>
      <trkpt lat="43.1956120" lon="-1.0589950">
        <ele>176.3</ele>
        <time>2019-07-17T10:06:53Z</time>
      </trkpt>
      <trkpt lat="43.1955190" lon="-1.0589660">
        <ele>176.3</ele>
        <time>2019-07-17T10:06:55Z</time>
      </trkpt>
      <trkpt lat="43.1954200" lon="-1.0589530">
        <ele>176.4</ele>
        <time>2019-07-17T10:06:57Z</time>
      </trkpt>
      <trkpt lat="43.1953200" lon="-1.0589170">
        <ele>176.6</ele>
        <time>2019-07-17T10:06:59Z</time>
      </trkpt>
      <trkpt lat="43.1952130" lon="-1.0588330">
        <ele>176.9</ele>
        <time>2019-07-17T10:07:02Z</time>
      </trkpt>
      <trkpt lat="43.1951320" lon="-1.0587440">
        <ele>177.3</ele>
        <time>2019-07-17T10:07:05Z</time>
      </trkpt>
      <trkpt lat="43.1950590" lon="-1.0586610">
        <ele>177.7</ele>
        <time>2019-07-17T10:07:08Z</time>
      </trkpt>
      <trkpt lat="43.1949760" lon="-1.0585560">
        <ele>178.1</ele>
        <time>2019-07-17T10:07:12Z</time>
      </trkpt>
      <trkpt lat="43.1948850" lon="-1.0584590">
        <ele>178.5</ele>
        <time>2019-07-17T10:07:16Z</time>
      </trkpt>
      <trkpt lat="43.1948030" lon="-1.0583570">
        <ele>178.8</ele>
        <time>2019-07-17T10:07:20Z</time>
      </trkpt>
      <trkpt lat="43.1947380" lon="-1.0582500">
        <ele>179.2</ele>
        <time>2019-07-17T10:07:24Z</time>
      </trkpt>
      <trkpt lat="43.1946680" lon="-1.0581340">
        <ele>179.5</ele>
        <time>2019-07-17T10:07:28Z</time>
      </trkpt>
      <trkpt lat="43.1946120" lon="-1.0580070">
        <ele>179.9</ele>
        <time>2019-07-17T10:07:32Z</time>
      </trkpt>
      <trkpt lat="43.1945780" lon="-1.0578720">
        <ele>180.1</ele>
        <time>2019-07-17T10:07:37Z</time>
      </trkpt>
      <trkpt lat="43.1945380" lon="-1.0577440">
        <ele>180.2</ele>
        <time>2019-07-17T10:07:42Z</time>
      </trkpt>
      <trkpt lat="43.1945130" lon="-1.0575950">
        <ele>180.3</ele>
        <time>2019-07-17T10:07:48Z</time>
      </trkpt>
      <trkpt lat="43.1944950" lon="-1.0574680">
        <ele>180.2</ele>
        <time>2019-07-17T10:07:52Z</time>
      </trkpt>
      <trkpt lat="43.1944750" lon="-1.0573200">
        <ele>180.2</ele>
        <time>2019-07-17T10:07:57Z</time>
      </trkpt>
      <trkpt lat="43.1944450" lon="-1.0571990">
        <ele>180.1</ele>
        <time>2019-07-17T10:08:01Z</time>
      </trkpt>
      <trkpt lat="43.1944380" lon="-1.0570630">
        <ele>179.9</ele>
        <time>2019-07-17T10:08:04Z</time>
      </trkpt>
      <trkpt lat="43.1944130" lon="-1.0568740">
        <ele>179.6</ele>
        <time>2019-07-17T10:08:07Z</time>
      </trkpt>
      <trkpt lat="43.1943890" lon="-1.0567080">
        <ele>179.3</ele>
        <time>2019-07-17T10:08:09Z</time>
      </trkpt>
      <trkpt lat="43.1943320" lon="-1.0565490">
        <ele>179.0</ele>
        <time>2019-07-17T10:08:11Z</time>
      </trkpt>
      <trkpt lat="43.1942690" lon="-1.0564060">
        <ele>178.7</ele>
        <time>2019-07-17T10:08:13Z</time>
      </trkpt>
      <trkpt lat="43.1942240" lon="-1.0562860">
        <ele>178.5</ele>
        <time>2019-07-17T10:08:15Z</time>
      </trkpt>
      <trkpt lat="43.1941740" lon="-1.0561490">
        <ele>178.4</ele>
        <time>2019-07-17T10:08:18Z</time>
      </trkpt>
      <trkpt lat="43.1941240" lon="-1.0560380">
        <ele>178.2</ele>
        <time>2019-07-17T10:08:21Z</time>
      </trkpt>
      <trkpt lat="43.1940580" lon="-1.0559360">
        <ele>178.1</ele>
        <time>2019-07-17T10:08:25Z</time>
      </trkpt>
      <trkpt lat="43.1939840" lon="-1.0558560">
        <ele>177.7</ele>
        <time>2019-07-17T10:08:31Z</time>
      </trkpt>
      <trkpt lat="43.1939150" lon="-1.0559480">
        <ele>177.5</ele>
        <time>2019-07-17T10:08:37Z</time>
      </trkpt>
      <trkpt lat="43.1938540" lon="-1.0560420">
        <ele>177.2</ele>
        <time>2019-07-17T10:08:40Z</time>
      </trkpt>
      <trkpt lat="43.1937930" lon="-1.0561790">
        <ele>177.0</ele>
        <time>2019-07-17T10:08:45Z</time>
      </trkpt>
      <trkpt lat="43.1937000" lon="-1.0562630">
        <ele>176.8</ele>
        <time>2019-07-17T10:08:49Z</time>
      </trkpt>
      <trkpt lat="43.1936320" lon="-1.0562270">
        <ele>176.7</ele>
        <time>2019-07-17T10:09:00Z</time>
      </trkpt>
      <trkpt lat="43.1935900" lon="-1.0560660">
        <ele>176.6</ele>
        <time>2019-07-17T10:09:11Z</time>
      </trkpt>
      <trkpt lat="43.1935670" lon="-1.0559330">
        <ele>176.6</ele>
        <time>2019-07-17T10:09:16Z</time>
      </trkpt>
      <trkpt lat="43.1935770" lon="-1.0559140">
        <ele>176.5</ele>
        <time>2019-07-17T10:09:23Z</time>
      </trkpt>
      <trkpt lat="43.1936650" lon="-1.0559720">
        <ele>176.5</ele>
        <time>2019-07-17T10:09:45Z</time>
      </trkpt>
      <trkpt lat="43.1937100" lon="-1.0560800">
        <ele>176.5</ele>
        <time>2019-07-17T10:09:49Z</time>
      </trkpt>
      <trkpt lat="43.1936700" lon="-1.0562420">
        <ele>176.5</ele>
        <time>2019-07-17T10:09:57Z</time>
      </trkpt>
      <trkpt lat="43.1936470" lon="-1.0562540">
        <ele>176.5</ele>
        <time>2019-07-17T10:10:03Z</time>
      </trkpt>
      <trkpt lat="43.1935460" lon="-1.0562260">
        <ele>176.4</ele>
        <time>2019-07-17T10:10:17Z</time>
      </trkpt>
      <trkpt lat="43.1935340" lon="-1.0560970">
        <ele>176.4</ele>
        <time>2019-07-17T10:10:23Z</time>
      </trkpt>
      <trkpt lat="43.1935430" lon="-1.0559730">
        <ele>176.4</ele>
        <time>2019-07-17T10:10:32Z</time>
      </trkpt>
      <trkpt lat="43.1935470" lon="-1.0558490">
        <ele>176.4</ele>
        <time>2019-07-17T10:10:39Z</time>
      </trkpt>
      <trkpt lat="43.1935330" lon="-1.0558330">
        <ele>176.4</ele>
        <time>2019-07-17T10:10:44Z</time>
      </trkpt>
      <trkpt lat="43.1935780" lon="-1.0559470">
        <ele>176.5</ele>
        <time>2019-07-17T10:10:59Z</time>
      </trkpt>
      <trkpt lat="43.1936060" lon="-1.0559990">
        <ele>176.6</ele>
        <time>2019-07-17T10:11:07Z</time>
      </trkpt>
      <trkpt lat="43.1936920" lon="-1.0559370">
        <ele>176.7</ele>
        <time>2019-07-17T10:11:21Z</time>
      </trkpt>
      <trkpt lat="43.1936040" lon="-1.0559770">
        <ele>176.8</ele>
        <time>2019-07-17T10:11:27Z</time>
      </trkpt>
      <trkpt lat="43.1935920" lon="-1.0559610">
        <ele>176.8</ele>
        <time>2019-07-17T10:11:32Z</time>
      </trkpt>
      <trkpt lat="43.1936090" lon="-1.0559440">
        <ele>176.8</ele>
        <time>2019-07-17T10:49:56Z</time>
      </trkpt>
      <trkpt lat="43.1935930" lon="-1.0558190">
        <ele>176.9</ele>
        <time>2019-07-17T10:50:20Z</time>
      </trkpt>
      <trkpt lat="43.1935590" lon="-1.0557010">
        <ele>176.9</ele>
        <time>2019-07-17T10:50:25Z</time>
      </trkpt>
      <trkpt lat="43.1935930" lon="-1.0555790">
        <ele>177.6</ele>
        <time>2019-07-17T10:50:30Z</time>
      </trkpt>
      <trkpt lat="43.1936290" lon="-1.0554420">
        <ele>178.4</ele>
        <time>2019-07-17T10:50:35Z</time>
      </trkpt>
      <trkpt lat="43.1936170" lon="-1.0553130">
        <ele>178.8</ele>
        <time>2019-07-17T10:50:41Z</time>
      </trkpt>
      <trkpt lat="43.1935550" lon="-1.0551990">
        <ele>179.7</ele>
        <time>2019-07-17T10:50:47Z</time>
      </trkpt>
      <trkpt lat="43.1934860" lon="-1.0551000">
        <ele>180.6</ele>
        <time>2019-07-17T10:50:54Z</time>
      </trkpt>
      <trkpt lat="43.1934060" lon="-1.0550280">
        <ele>181.5</ele>
        <time>2019-07-17T10:51:00Z</time>
      </trkpt>
      <trkpt lat="43.1933260" lon="-1.0549510">
        <ele>182.4</ele>
        <time>2019-07-17T10:51:06Z</time>
      </trkpt>
      <trkpt lat="43.1932460" lon="-1.0548910">
        <ele>183.6</ele>
        <time>2019-07-17T10:51:12Z</time>
      </trkpt>
      <trkpt lat="43.1931500" lon="-1.0548570">
        <ele>184.1</ele>
        <time>2019-07-17T10:51:18Z</time>
      </trkpt>
      <trkpt lat="43.1930580" lon="-1.0548310">
        <ele>184.6</ele>
        <time>2019-07-17T10:51:25Z</time>
      </trkpt>
      <trkpt lat="43.1929530" lon="-1.0548350">
        <ele>185.2</ele>
        <time>2019-07-17T10:51:32Z</time>
      </trkpt>
      <trkpt lat="43.1928520" lon="-1.0548310">
        <ele>185.7</ele>
        <time>2019-07-17T10:51:38Z</time>
      </trkpt>
      <trkpt lat="43.1927550" lon="-1.0548390">
        <ele>186.2</ele>
        <time>2019-07-17T10:51:45Z</time>
      </trkpt>
      <trkpt lat="43.1926610" lon="-1.0547950">
        <ele>186.8</ele>
        <time>2019-07-17T10:51:54Z</time>
      </trkpt>
      <trkpt lat="43.1925740" lon="-1.0547570">
        <ele>187.4</ele>
        <time>2019-07-17T10:52:00Z</time>
      </trkpt>
      <trkpt lat="43.1924890" lon="-1.0547120">
        <ele>188.0</ele>
        <time>2019-07-17T10:52:08Z</time>
      </trkpt>
      <trkpt lat="43.1924070" lon="-1.0546580">
        <ele>188.6</ele>
        <time>2019-07-17T10:52:15Z</time>
      </trkpt>
      <trkpt lat="43.1923200" lon="-1.0545850">
        <ele>189.2</ele>
        <time>2019-07-17T10:52:23Z</time>
      </trkpt>
      <trkpt lat="43.1922480" lon="-1.0544890">
        <ele>189.8</ele>
        <time>2019-07-17T10:52:31Z</time>
      </trkpt>
      <trkpt lat="43.1921780" lon="-1.0544040">
        <ele>190.3</ele>
        <time>2019-07-17T10:52:38Z</time>
      </trkpt>
      <trkpt lat="43.1921040" lon="-1.0543070">
        <ele>190.8</ele>
        <time>2019-07-17T10:52:46Z</time>
      </trkpt>
      <trkpt lat="43.1920560" lon="-1.0542000">
        <ele>191.4</ele>
        <time>2019-07-17T10:52:53Z</time>
      </trkpt>
      <trkpt lat="43.1920070" lon="-1.0540920">
        <ele>191.9</ele>
        <time>2019-07-17T10:53:00Z</time>
      </trkpt>
      <trkpt lat="43.1919320" lon="-1.0540070">
        <ele>192.5</ele>
        <time>2019-07-17T10:53:07Z</time>
      </trkpt>
      <trkpt lat="43.1918750" lon="-1.0538990">
        <ele>193.0</ele>
        <time>2019-07-17T10:53:14Z</time>
      </trkpt>
      <trkpt lat="43.1918120" lon="-1.0537850">
        <ele>193.6</ele>
        <time>2019-07-17T10:53:21Z</time>
      </trkpt>
      <trkpt lat="43.1917480" lon="-1.0536920">
        <ele>194.1</ele>
        <time>2019-07-17T10:53:28Z</time>
      </trkpt>
      <trkpt lat="43.1916820" lon="-1.0535880">
        <ele>194.6</ele>
        <time>2019-07-17T10:53:35Z</time>
      </trkpt>
      <trkpt lat="43.1916100" lon="-1.0534990">
        <ele>195.1</ele>
        <time>2019-07-17T10:53:41Z</time>
      </trkpt>
      <trkpt lat="43.1915410" lon="-1.0534030">
        <ele>195.5</ele>
        <time>2019-07-17T10:53:48Z</time>
      </trkpt>
      <trkpt lat="43.1914780" lon="-1.0533030">
        <ele>195.9</ele>
        <time>2019-07-17T10:53:55Z</time>
      </trkpt>
      <trkpt lat="43.1914110" lon="-1.0532100">
        <ele>196.3</ele>
        <time>2019-07-17T10:54:03Z</time>
      </trkpt>
      <trkpt lat="43.1913560" lon="-1.0531000">
        <ele>196.6</ele>
        <time>2019-07-17T10:54:11Z</time>
      </trkpt>
      <trkpt lat="43.1912890" lon="-1.0529960">
        <ele>197.0</ele>
        <time>2019-07-17T10:54:19Z</time>
      </trkpt>
      <trkpt lat="43.1912250" lon="-1.0528880">
        <ele>197.4</ele>
        <time>2019-07-17T10:54:27Z</time>
      </trkpt>
      <trkpt lat="43.1911630" lon="-1.0527910">
        <ele>197.8</ele>
        <time>2019-07-17T10:54:34Z</time>
      </trkpt>
      <trkpt lat="43.1911120" lon="-1.0526850">
        <ele>198.2</ele>
        <time>2019-07-17T10:54:41Z</time>
      </trkpt>
      <trkpt lat="43.1910420" lon="-1.0525970">
        <ele>198.7</ele>
        <time>2019-07-17T10:54:48Z</time>
      </trkpt>
      <trkpt lat="43.1909910" lon="-1.0524920">
        <ele>199.1</ele>
        <time>2019-07-17T10:54:55Z</time>
      </trkpt>
      <trkpt lat="43.1909210" lon="-1.0524060">
        <ele>199.5</ele>
        <time>2019-07-17T10:55:01Z</time>
      </trkpt>
      <trkpt lat="43.1908500" lon="-1.0523060">
        <ele>200.0</ele>
        <time>2019-07-17T10:55:08Z</time>
      </trkpt>
      <trkpt lat="43.1907840" lon="-1.0522000">
        <ele>200.5</ele>
        <time>2019-07-17T10:55:15Z</time>
      </trkpt>
      <trkpt lat="43.1907050" lon="-1.0521120">
        <ele>201.0</ele>
        <time>2019-07-17T10:55:22Z</time>
      </trkpt>
      <trkpt lat="43.1906340" lon="-1.0520230">
        <ele>201.5</ele>
        <time>2019-07-17T10:55:29Z</time>
      </trkpt>
      <trkpt lat="43.1905530" lon="-1.0519590">
        <ele>202.2</ele>
        <time>2019-07-17T10:55:35Z</time>
      </trkpt>
      <trkpt lat="43.1904590" lon="-1.0518990">
        <ele>203.1</ele>
        <time>2019-07-17T10:55:42Z</time>
      </trkpt>
      <trkpt lat="43.1903750" lon="-1.0518290">
        <ele>204.2</ele>
        <time>2019-07-17T10:55:48Z</time>
      </trkpt>
      <trkpt lat="43.1902850" lon="-1.0517740">
        <ele>205.3</ele>
        <time>2019-07-17T10:55:55Z</time>
      </trkpt>
      <trkpt lat="43.1901960" lon="-1.0517130">
        <ele>206.4</ele>
        <time>2019-07-17T10:56:01Z</time>
      </trkpt>
      <trkpt lat="43.1901160" lon="-1.0516530">
        <ele>207.0</ele>
        <time>2019-07-17T10:56:06Z</time>
      </trkpt>
      <trkpt lat="43.1900360" lon="-1.0515590">
        <ele>206.9</ele>
        <time>2019-07-17T10:56:12Z</time>
      </trkpt>
      <trkpt lat="43.1899640" lon="-1.0514610">
        <ele>206.7</ele>
        <time>2019-07-17T10:56:18Z</time>
      </trkpt>
      <trkpt lat="43.1898920" lon="-1.0513540">
        <ele>206.5</ele>
        <time>2019-07-17T10:56:24Z</time>
      </trkpt>
      <trkpt lat="43.1898210" lon="-1.0512520">
        <ele>206.2</ele>
        <time>2019-07-17T10:56:29Z</time>
      </trkpt>
      <trkpt lat="43.1897490" lon="-1.0511470">
        <ele>206.0</ele>
        <time>2019-07-17T10:56:34Z</time>
      </trkpt>
      <trkpt lat="43.1896820" lon="-1.0510470">
        <ele>205.8</ele>
        <time>2019-07-17T10:56:39Z</time>
      </trkpt>
      <trkpt lat="43.1896150" lon="-1.0509450">
        <ele>205.7</ele>
        <time>2019-07-17T10:56:44Z</time>
      </trkpt>
      <trkpt lat="43.1895650" lon="-1.0508290">
        <ele>205.7</ele>
        <time>2019-07-17T10:56:49Z</time>
      </trkpt>
      <trkpt lat="43.1895170" lon="-1.0507050">
        <ele>205.7</ele>
        <time>2019-07-17T10:56:54Z</time>
      </trkpt>
      <trkpt lat="43.1894640" lon="-1.0505730">
        <ele>205.9</ele>
        <time>2019-07-17T10:56:59Z</time>
      </trkpt>
      <trkpt lat="43.1894070" lon="-1.0504460">
        <ele>206.1</ele>
        <time>2019-07-17T10:57:04Z</time>
      </trkpt>
      <trkpt lat="43.1893690" lon="-1.0503080">
        <ele>206.3</ele>
        <time>2019-07-17T10:57:09Z</time>
      </trkpt>
      <trkpt lat="43.1893320" lon="-1.0501890">
        <ele>206.4</ele>
        <time>2019-07-17T10:57:13Z</time>
      </trkpt>
      <trkpt lat="43.1892790" lon="-1.0500540">
        <ele>206.5</ele>
        <time>2019-07-17T10:57:19Z</time>
      </trkpt>
      <trkpt lat="43.1892360" lon="-1.0499430">
        <ele>206.6</ele>
        <time>2019-07-17T10:57:23Z</time>
      </trkpt>
      <trkpt lat="43.1891920" lon="-1.0498240">
        <ele>206.7</ele>
        <time>2019-07-17T10:57:28Z</time>
      </trkpt>
      <trkpt lat="43.1891430" lon="-1.0496850">
        <ele>207.0</ele>
        <time>2019-07-17T10:57:33Z</time>
      </trkpt>
      <trkpt lat="43.1890860" lon="-1.0495520">
        <ele>207.2</ele>
        <time>2019-07-17T10:57:38Z</time>
      </trkpt>
      <trkpt lat="43.1890440" lon="-1.0494430">
        <ele>207.4</ele>
        <time>2019-07-17T10:57:42Z</time>
      </trkpt>
      <trkpt lat="43.1889930" lon="-1.0493100">
        <ele>207.7</ele>
        <time>2019-07-17T10:57:47Z</time>
      </trkpt>
      <trkpt lat="43.1889500" lon="-1.0491990">
        <ele>208.0</ele>
        <time>2019-07-17T10:57:51Z</time>
      </trkpt>
      <trkpt lat="43.1889110" lon="-1.0490870">
        <ele>208.4</ele>
        <time>2019-07-17T10:57:55Z</time>
      </trkpt>
      <trkpt lat="43.1888630" lon="-1.0489670">
        <ele>208.8</ele>
        <time>2019-07-17T10:57:59Z</time>
      </trkpt>
      <trkpt lat="43.1888200" lon="-1.0488500">
        <ele>209.2</ele>
        <time>2019-07-17T10:58:03Z</time>
      </trkpt>
      <trkpt lat="43.1887670" lon="-1.0487130">
        <ele>209.7</ele>
        <time>2019-07-17T10:58:08Z</time>
      </trkpt>
      <trkpt lat="43.1887250" lon="-1.0486030">
        <ele>210.0</ele>
        <time>2019-07-17T10:58:12Z</time>
      </trkpt>
      <trkpt lat="43.1886860" lon="-1.0484880">
        <ele>210.4</ele>
        <time>2019-07-17T10:58:16Z</time>
      </trkpt>
      <trkpt lat="43.1886410" lon="-1.0483600">
        <ele>210.9</ele>
        <time>2019-07-17T10:58:20Z</time>
      </trkpt>
      <trkpt lat="43.1885980" lon="-1.0482330">
        <ele>211.3</ele>
        <time>2019-07-17T10:58:24Z</time>
      </trkpt>
      <trkpt lat="43.1885450" lon="-1.0481140">
        <ele>211.8</ele>
        <time>2019-07-17T10:58:28Z</time>
      </trkpt>
      <trkpt lat="43.1885000" lon="-1.0479850">
        <ele>212.3</ele>
        <time>2019-07-17T10:58:32Z</time>
      </trkpt>
      <trkpt lat="43.1884500" lon="-1.0478640">
        <ele>212.8</ele>
        <time>2019-07-17T10:58:36Z</time>
      </trkpt>
      <trkpt lat="43.1884020" lon="-1.0477390">
        <ele>213.3</ele>
        <time>2019-07-17T10:58:40Z</time>
      </trkpt>
      <trkpt lat="43.1883520" lon="-1.0476080">
        <ele>213.9</ele>
        <time>2019-07-17T10:58:44Z</time>
      </trkpt>
      <trkpt lat="43.1883070" lon="-1.0474780">
        <ele>214.6</ele>
        <time>2019-07-17T10:58:48Z</time>
      </trkpt>
      <trkpt lat="43.1882660" lon="-1.0473540">
        <ele>215.3</ele>
        <time>2019-07-17T10:58:51Z</time>
      </trkpt>
      <trkpt lat="43.1882270" lon="-1.0471960">
        <ele>216.3</ele>
        <time>2019-07-17T10:58:54Z</time>
      </trkpt>
      <trkpt lat="43.1881860" lon="-1.0470650">
        <ele>217.2</ele>
        <time>2019-07-17T10:58:56Z</time>
      </trkpt>
      <trkpt lat="43.1881480" lon="-1.0469150">
        <ele>218.2</ele>
        <time>2019-07-17T10:58:58Z</time>
      </trkpt>
      <trkpt lat="43.1881070" lon="-1.0467510">
        <ele>219.4</ele>
        <time>2019-07-17T10:59:00Z</time>
      </trkpt>
      <trkpt lat="43.1880670" lon="-1.0465720">
        <ele>220.6</ele>
        <time>2019-07-17T10:59:02Z</time>
      </trkpt>
      <trkpt lat="43.1880370" lon="-1.0463860">
        <ele>221.9</ele>
        <time>2019-07-17T10:59:04Z</time>
      </trkpt>
      <trkpt lat="43.1880330" lon="-1.0461910">
        <ele>223.0</ele>
        <time>2019-07-17T10:59:06Z</time>
      </trkpt>
      <trkpt lat="43.1880400" lon="-1.0459820">
        <ele>224.2</ele>
        <time>2019-07-17T10:59:08Z</time>
      </trkpt>
      <trkpt lat="43.1880620" lon="-1.0457730">
        <ele>225.2</ele>
        <time>2019-07-17T10:59:10Z</time>
      </trkpt>
      <trkpt lat="43.1880940" lon="-1.0455700">
        <ele>226.3</ele>
        <time>2019-07-17T10:59:12Z</time>
      </trkpt>
      <trkpt lat="43.1881410" lon="-1.0453840">
        <ele>227.3</ele>
        <time>2019-07-17T10:59:14Z</time>
      </trkpt>
      <trkpt lat="43.1882050" lon="-1.0452220">
        <ele>228.3</ele>
        <time>2019-07-17T10:59:16Z</time>
      </trkpt>
      <trkpt lat="43.1882790" lon="-1.0450780">
        <ele>229.2</ele>
        <time>2019-07-17T10:59:18Z</time>
      </trkpt>
      <trkpt lat="43.1883620" lon="-1.0449590">
        <ele>229.9</ele>
        <time>2019-07-17T10:59:20Z</time>
      </trkpt>
      <trkpt lat="43.1884550" lon="-1.0448770">
        <ele>230.6</ele>
        <time>2019-07-17T10:59:22Z</time>
      </trkpt>
      <trkpt lat="43.1885420" lon="-1.0448190">
        <ele>231.2</ele>
        <time>2019-07-17T10:59:24Z</time>
      </trkpt>
      <trkpt lat="43.1886500" lon="-1.0447670">
        <ele>231.9</ele>
        <time>2019-07-17T10:59:27Z</time>
      </trkpt>
      <trkpt lat="43.1887540" lon="-1.0447370">
        <ele>232.5</ele>
        <time>2019-07-17T10:59:30Z</time>
      </trkpt>
      <trkpt lat="43.1888680" lon="-1.0447010">
        <ele>233.1</ele>
        <time>2019-07-17T10:59:33Z</time>
      </trkpt>
      <trkpt lat="43.1889840" lon="-1.0446720">
        <ele>233.5</ele>
        <time>2019-07-17T10:59:36Z</time>
      </trkpt>
      <trkpt lat="43.1890800" lon="-1.0446270">
        <ele>233.6</ele>
        <time>2019-07-17T10:59:39Z</time>
      </trkpt>
      <trkpt lat="43.1891640" lon="-1.0445690">
        <ele>233.6</ele>
        <time>2019-07-17T10:59:42Z</time>
      </trkpt>
      <trkpt lat="43.1892670" lon="-1.0444880">
        <ele>233.4</ele>
        <time>2019-07-17T10:59:45Z</time>
      </trkpt>
      <trkpt lat="43.1893370" lon="-1.0443860">
        <ele>233.1</ele>
        <time>2019-07-17T10:59:48Z</time>
      </trkpt>
      <trkpt lat="43.1893800" lon="-1.0442570">
        <ele>232.5</ele>
        <time>2019-07-17T10:59:51Z</time>
      </trkpt>
      <trkpt lat="43.1893920" lon="-1.0441030">
        <ele>231.8</ele>
        <time>2019-07-17T10:59:54Z</time>
      </trkpt>
      <trkpt lat="43.1893790" lon="-1.0439440">
        <ele>230.3</ele>
        <time>2019-07-17T10:59:57Z</time>
      </trkpt>
      <trkpt lat="43.1893490" lon="-1.0438050">
        <ele>227.8</ele>
        <time>2019-07-17T11:00:00Z</time>
      </trkpt>
      <trkpt lat="43.1893000" lon="-1.0436830">
        <ele>227.9</ele>
        <time>2019-07-17T11:00:03Z</time>
      </trkpt>
      <trkpt lat="43.1892390" lon="-1.0435830">
        <ele>228.1</ele>
        <time>2019-07-17T11:00:07Z</time>
      </trkpt>
      <trkpt lat="43.1891630" lon="-1.0434830">
        <ele>228.3</ele>
        <time>2019-07-17T11:00:11Z</time>
      </trkpt>
      <trkpt lat="43.1890700" lon="-1.0434240">
        <ele>228.6</ele>
        <time>2019-07-17T11:00:16Z</time>
      </trkpt>
      <trkpt lat="43.1889750" lon="-1.0434020">
        <ele>228.8</ele>
        <time>2019-07-17T11:00:21Z</time>
      </trkpt>
      <trkpt lat="43.1888760" lon="-1.0433960">
        <ele>229.0</ele>
        <time>2019-07-17T11:00:26Z</time>
      </trkpt>
      <trkpt lat="43.1887750" lon="-1.0433890">
        <ele>229.3</ele>
        <time>2019-07-17T11:00:31Z</time>
      </trkpt>
      <trkpt lat="43.1886800" lon="-1.0433850">
        <ele>229.7</ele>
        <time>2019-07-17T11:00:37Z</time>
      </trkpt>
      <trkpt lat="43.1885920" lon="-1.0434220">
        <ele>230.2</ele>
        <time>2019-07-17T11:00:42Z</time>
      </trkpt>
      <trkpt lat="43.1885020" lon="-1.0434510">
        <ele>230.6</ele>
        <time>2019-07-17T11:00:47Z</time>
      </trkpt>
      <trkpt lat="43.1883900" lon="-1.0435030">
        <ele>231.4</ele>
        <time>2019-07-17T11:00:54Z</time>
      </trkpt>
      <trkpt lat="43.1882910" lon="-1.0435300">
        <ele>232.0</ele>
        <time>2019-07-17T11:00:58Z</time>
      </trkpt>
      <trkpt lat="43.1881990" lon="-1.0435390">
        <ele>232.6</ele>
        <time>2019-07-17T11:01:04Z</time>
      </trkpt>
      <trkpt lat="43.1881050" lon="-1.0435520">
        <ele>233.3</ele>
        <time>2019-07-17T11:01:11Z</time>
      </trkpt>
      <trkpt lat="43.1880100" lon="-1.0435720">
        <ele>234.0</ele>
        <time>2019-07-17T11:01:18Z</time>
      </trkpt>
      <trkpt lat="43.1879060" lon="-1.0435770">
        <ele>234.7</ele>
        <time>2019-07-17T11:01:25Z</time>
      </trkpt>
      <trkpt lat="43.1878060" lon="-1.0435770">
        <ele>235.5</ele>
        <time>2019-07-17T11:01:32Z</time>
      </trkpt>
      <trkpt lat="43.1877160" lon="-1.0435830">
        <ele>236.2</ele>
        <time>2019-07-17T11:01:40Z</time>
      </trkpt>
      <trkpt lat="43.1876260" lon="-1.0435750">
        <ele>236.8</ele>
        <time>2019-07-17T11:01:48Z</time>
      </trkpt>
      <trkpt lat="43.1875290" lon="-1.0435590">
        <ele>237.6</ele>
        <time>2019-07-17T11:01:57Z</time>
      </trkpt>
      <trkpt lat="43.1874100" lon="-1.0435270">
        <ele>238.5</ele>
        <time>2019-07-17T11:02:06Z</time>
      </trkpt>
      <trkpt lat="43.1873150" lon="-1.0435000">
        <ele>239.3</ele>
        <time>2019-07-17T11:02:13Z</time>
      </trkpt>
      <trkpt lat="43.1871930" lon="-1.0434610">
        <ele>240.3</ele>
        <time>2019-07-17T11:02:22Z</time>
      </trkpt>
      <trkpt lat="43.1871000" lon="-1.0434390">
        <ele>241.2</ele>
        <time>2019-07-17T11:02:29Z</time>
      </trkpt>
      <trkpt lat="43.1870100" lon="-1.0434210">
        <ele>242.0</ele>
        <time>2019-07-17T11:02:35Z</time>
      </trkpt>
      <trkpt lat="43.1869190" lon="-1.0433720">
        <ele>242.9</ele>
        <time>2019-07-17T11:02:42Z</time>
      </trkpt>
      <trkpt lat="43.1868400" lon="-1.0433090">
        <ele>243.7</ele>
        <time>2019-07-17T11:02:50Z</time>
      </trkpt>
      <trkpt lat="43.1867540" lon="-1.0432450">
        <ele>244.6</ele>
        <time>2019-07-17T11:02:58Z</time>
      </trkpt>
      <trkpt lat="43.1866750" lon="-1.0431830">
        <ele>245.5</ele>
        <time>2019-07-17T11:03:05Z</time>
      </trkpt>
      <trkpt lat="43.1865930" lon="-1.0431310">
        <ele>246.3</ele>
        <time>2019-07-17T11:03:11Z</time>
      </trkpt>
      <trkpt lat="43.1865120" lon="-1.0430560">
        <ele>247.2</ele>
        <time>2019-07-17T11:03:18Z</time>
      </trkpt>
      <trkpt lat="43.1864560" lon="-1.0429460">
        <ele>248.0</ele>
        <time>2019-07-17T11:03:25Z</time>
      </trkpt>
      <trkpt lat="43.1863940" lon="-1.0428360">
        <ele>248.9</ele>
        <time>2019-07-17T11:03:33Z</time>
      </trkpt>
      <trkpt lat="43.1863180" lon="-1.0427410">
        <ele>249.7</ele>
        <time>2019-07-17T11:03:40Z</time>
      </trkpt>
      <trkpt lat="43.1862660" lon="-1.0426220">
        <ele>250.5</ele>
        <time>2019-07-17T11:03:47Z</time>
      </trkpt>
      <trkpt lat="43.1862120" lon="-1.0425140">
        <ele>251.3</ele>
        <time>2019-07-17T11:03:54Z</time>
      </trkpt>
      <trkpt lat="43.1861610" lon="-1.0424040">
        <ele>252.0</ele>
        <time>2019-07-17T11:04:01Z</time>
      </trkpt>
      <trkpt lat="43.1861160" lon="-1.0422970">
        <ele>252.7</ele>
        <time>2019-07-17T11:04:08Z</time>
      </trkpt>
      <trkpt lat="43.1860990" lon="-1.0421690">
        <ele>253.5</ele>
        <time>2019-07-17T11:04:15Z</time>
      </trkpt>
      <trkpt lat="43.1860510" lon="-1.0420390">
        <ele>254.5</ele>
        <time>2019-07-17T11:04:23Z</time>
      </trkpt>
      <trkpt lat="43.1860240" lon="-1.0419010">
        <ele>255.4</ele>
        <time>2019-07-17T11:04:30Z</time>
      </trkpt>
      <trkpt lat="43.1859740" lon="-1.0417960">
        <ele>256.2</ele>
        <time>2019-07-17T11:04:37Z</time>
      </trkpt>
      <trkpt lat="43.1859350" lon="-1.0416750">
        <ele>256.9</ele>
        <time>2019-07-17T11:04:43Z</time>
      </trkpt>
      <trkpt lat="43.1858930" lon="-1.0415550">
        <ele>257.6</ele>
        <time>2019-07-17T11:04:50Z</time>
      </trkpt>
      <trkpt lat="43.1858700" lon="-1.0414250">
        <ele>258.2</ele>
        <time>2019-07-17T11:04:57Z</time>
      </trkpt>
      <trkpt lat="43.1858370" lon="-1.0412980">
        <ele>258.9</ele>
        <time>2019-07-17T11:05:05Z</time>
      </trkpt>
      <trkpt lat="43.1858270" lon="-1.0411730">
        <ele>259.5</ele>
        <time>2019-07-17T11:05:12Z</time>
      </trkpt>
      <trkpt lat="43.1858100" lon="-1.0410450">
        <ele>260.1</ele>
        <time>2019-07-17T11:05:19Z</time>
      </trkpt>
      <trkpt lat="43.1857870" lon="-1.0409170">
        <ele>260.7</ele>
        <time>2019-07-17T11:05:26Z</time>
      </trkpt>
      <trkpt lat="43.1857560" lon="-1.0407830">
        <ele>261.3</ele>
        <time>2019-07-17T11:05:33Z</time>
      </trkpt>
      <trkpt lat="43.1857380" lon="-1.0406540">
        <ele>261.9</ele>
        <time>2019-07-17T11:05:40Z</time>
      </trkpt>
      <trkpt lat="43.1857160" lon="-1.0405270">
        <ele>262.5</ele>
        <time>2019-07-17T11:05:47Z</time>
      </trkpt>
      <trkpt lat="43.1856870" lon="-1.0403920">
        <ele>263.1</ele>
        <time>2019-07-17T11:05:54Z</time>
      </trkpt>
      <trkpt lat="43.1856700" lon="-1.0402600">
        <ele>263.8</ele>
        <time>2019-07-17T11:06:01Z</time>
      </trkpt>
      <trkpt lat="43.1856600" lon="-1.0401290">
        <ele>264.4</ele>
        <time>2019-07-17T11:06:08Z</time>
      </trkpt>
      <trkpt lat="43.1856350" lon="-1.0400060">
        <ele>265.1</ele>
        <time>2019-07-17T11:06:15Z</time>
      </trkpt>
      <trkpt lat="43.1856330" lon="-1.0398640">
        <ele>265.8</ele>
        <time>2019-07-17T11:06:22Z</time>
      </trkpt>
      <trkpt lat="43.1856000" lon="-1.0397280">
        <ele>266.5</ele>
        <time>2019-07-17T11:06:29Z</time>
      </trkpt>
      <trkpt lat="43.1855820" lon="-1.0396050">
        <ele>267.2</ele>
        <time>2019-07-17T11:06:35Z</time>
      </trkpt>
      <trkpt lat="43.1855750" lon="-1.0394650">
        <ele>267.9</ele>
        <time>2019-07-17T11:06:42Z</time>
      </trkpt>
      <trkpt lat="43.1855820" lon="-1.0393390">
        <ele>268.5</ele>
        <time>2019-07-17T11:06:48Z</time>
      </trkpt>
      <trkpt lat="43.1855880" lon="-1.0392750">
        <ele>268.9</ele>
        <time>2019-07-17T11:06:56Z</time>
      </trkpt>
      <trkpt lat="43.1855430" lon="-1.0393170">
        <ele>269.2</ele>
        <time>2019-07-17T11:07:04Z</time>
      </trkpt>
      <trkpt lat="43.1855750" lon="-1.0392800">
        <ele>269.5</ele>
        <time>2019-07-17T11:07:25Z</time>
      </trkpt>
      <trkpt lat="43.1856050" lon="-1.0392450">
        <ele>269.8</ele>
        <time>2019-07-17T11:07:33Z</time>
      </trkpt>
      <trkpt lat="43.1856280" lon="-1.0391700">
        <ele>270.2</ele>
        <time>2019-07-17T11:07:46Z</time>
      </trkpt>
      <trkpt lat="43.1855590" lon="-1.0392000">
        <ele>270.7</ele>
        <time>2019-07-17T11:08:03Z</time>
      </trkpt>
      <trkpt lat="43.1855520" lon="-1.0392120">
        <ele>270.8</ele>
        <time>2019-07-17T11:08:07Z</time>
      </trkpt>
      <trkpt lat="43.1856120" lon="-1.0391020">
        <ele>271.5</ele>
        <time>2019-07-17T11:08:22Z</time>
      </trkpt>
      <trkpt lat="43.1856340" lon="-1.0389710">
        <ele>272.1</ele>
        <time>2019-07-17T11:08:29Z</time>
      </trkpt>
      <trkpt lat="43.1856730" lon="-1.0388530">
        <ele>272.7</ele>
        <time>2019-07-17T11:08:36Z</time>
      </trkpt>
      <trkpt lat="43.1857070" lon="-1.0387260">
        <ele>273.4</ele>
        <time>2019-07-17T11:08:43Z</time>
      </trkpt>
      <trkpt lat="43.1857340" lon="-1.0386020">
        <ele>274.0</ele>
        <time>2019-07-17T11:08:51Z</time>
      </trkpt>
      <trkpt lat="43.1857620" lon="-1.0384690">
        <ele>274.7</ele>
        <time>2019-07-17T11:08:59Z</time>
      </trkpt>
      <trkpt lat="43.1857970" lon="-1.0383410">
        <ele>275.3</ele>
        <time>2019-07-17T11:09:07Z</time>
      </trkpt>
      <trkpt lat="43.1858430" lon="-1.0382200">
        <ele>276.0</ele>
        <time>2019-07-17T11:09:15Z</time>
      </trkpt>
      <trkpt lat="43.1858680" lon="-1.0380870">
        <ele>276.8</ele>
        <time>2019-07-17T11:09:23Z</time>
      </trkpt>
      <trkpt lat="43.1859020" lon="-1.0379610">
        <ele>277.5</ele>
        <time>2019-07-17T11:09:31Z</time>
      </trkpt>
      <trkpt lat="43.1859370" lon="-1.0378350">
        <ele>278.2</ele>
        <time>2019-07-17T11:09:39Z</time>
      </trkpt>
      <trkpt lat="43.1859770" lon="-1.0377170">
        <ele>278.9</ele>
        <time>2019-07-17T11:09:46Z</time>
      </trkpt>
      <trkpt lat="43.1860190" lon="-1.0375950">
        <ele>279.6</ele>
        <time>2019-07-17T11:09:54Z</time>
      </trkpt>
      <trkpt lat="43.1860660" lon="-1.0374700">
        <ele>280.3</ele>
        <time>2019-07-17T11:10:02Z</time>
      </trkpt>
      <trkpt lat="43.1861040" lon="-1.0373470">
        <ele>281.0</ele>
        <time>2019-07-17T11:10:09Z</time>
      </trkpt>
      <trkpt lat="43.1861360" lon="-1.0372270">
        <ele>281.6</ele>
        <time>2019-07-17T11:10:16Z</time>
      </trkpt>
      <trkpt lat="43.1861720" lon="-1.0371090">
        <ele>282.2</ele>
        <time>2019-07-17T11:10:23Z</time>
      </trkpt>
      <trkpt lat="43.1862090" lon="-1.0369820">
        <ele>282.9</ele>
        <time>2019-07-17T11:10:31Z</time>
      </trkpt>
      <trkpt lat="43.1862480" lon="-1.0368640">
        <ele>283.5</ele>
        <time>2019-07-17T11:10:38Z</time>
      </trkpt>
      <trkpt lat="43.1863010" lon="-1.0367580">
        <ele>284.2</ele>
        <time>2019-07-17T11:10:45Z</time>
      </trkpt>
      <trkpt lat="43.1863530" lon="-1.0366390">
        <ele>284.9</ele>
        <time>2019-07-17T11:10:52Z</time>
      </trkpt>
      <trkpt lat="43.1864050" lon="-1.0365130">
        <ele>285.6</ele>
        <time>2019-07-17T11:10:59Z</time>
      </trkpt>
      <trkpt lat="43.1864230" lon="-1.0363900">
        <ele>286.3</ele>
        <time>2019-07-17T11:11:05Z</time>
      </trkpt>
      <trkpt lat="43.1864570" lon="-1.0362720">
        <ele>286.9</ele>
        <time>2019-07-17T11:11:12Z</time>
      </trkpt>
      <trkpt lat="43.1864870" lon="-1.0361480">
        <ele>287.6</ele>
        <time>2019-07-17T11:11:19Z</time>
      </trkpt>
      <trkpt lat="43.1865080" lon="-1.0360260">
        <ele>288.3</ele>
        <time>2019-07-17T11:11:28Z</time>
      </trkpt>
      <trkpt lat="43.1865140" lon="-1.0358880">
        <ele>289.0</ele>
        <time>2019-07-17T11:11:36Z</time>
      </trkpt>
      <trkpt lat="43.1865360" lon="-1.0357590">
        <ele>289.7</ele>
        <time>2019-07-17T11:11:44Z</time>
      </trkpt>
      <trkpt lat="43.1865620" lon="-1.0356300">
        <ele>290.4</ele>
        <time>2019-07-17T11:11:51Z</time>
      </trkpt>
      <trkpt lat="43.1865890" lon="-1.0355090">
        <ele>291.0</ele>
        <time>2019-07-17T11:11:58Z</time>
      </trkpt>
      <trkpt lat="43.1865940" lon="-1.0353800">
        <ele>291.7</ele>
        <time>2019-07-17T11:12:05Z</time>
      </trkpt>
      <trkpt lat="43.1866100" lon="-1.0352570">
        <ele>292.3</ele>
        <time>2019-07-17T11:12:13Z</time>
      </trkpt>
      <trkpt lat="43.1866090" lon="-1.0351330">
        <ele>292.8</ele>
        <time>2019-07-17T11:12:20Z</time>
      </trkpt>
      <trkpt lat="43.1866270" lon="-1.0350110">
        <ele>293.4</ele>
        <time>2019-07-17T11:12:27Z</time>
      </trkpt>
      <trkpt lat="43.1866450" lon="-1.0348820">
        <ele>294.0</ele>
        <time>2019-07-17T11:12:34Z</time>
      </trkpt>
      <trkpt lat="43.1866630" lon="-1.0347500">
        <ele>294.6</ele>
        <time>2019-07-17T11:12:42Z</time>
      </trkpt>
      <trkpt lat="43.1866650" lon="-1.0346180">
        <ele>295.3</ele>
        <time>2019-07-17T11:12:49Z</time>
      </trkpt>
      <trkpt lat="43.1866680" lon="-1.0344860">
        <ele>296.0</ele>
        <time>2019-07-17T11:12:57Z</time>
      </trkpt>
      <trkpt lat="43.1866780" lon="-1.0343520">
        <ele>296.7</ele>
        <time>2019-07-17T11:13:06Z</time>
      </trkpt>
      <trkpt lat="43.1866830" lon="-1.0342130">
        <ele>297.5</ele>
        <time>2019-07-17T11:13:14Z</time>
      </trkpt>
      <trkpt lat="43.1866970" lon="-1.0340860">
        <ele>298.1</ele>
        <time>2019-07-17T11:13:21Z</time>
      </trkpt>
      <trkpt lat="43.1867150" lon="-1.0339640">
        <ele>298.8</ele>
        <time>2019-07-17T11:13:28Z</time>
      </trkpt>
      <trkpt lat="43.1867290" lon="-1.0338400">
        <ele>299.4</ele>
        <time>2019-07-17T11:13:35Z</time>
      </trkpt>
      <trkpt lat="43.1867310" lon="-1.0337020">
        <ele>300.1</ele>
        <time>2019-07-17T11:13:43Z</time>
      </trkpt>
      <trkpt lat="43.1867470" lon="-1.0335810">
        <ele>300.8</ele>
        <time>2019-07-17T11:13:50Z</time>
      </trkpt>
      <trkpt lat="43.1867660" lon="-1.0334210">
        <ele>301.7</ele>
        <time>2019-07-17T11:13:59Z</time>
      </trkpt>
      <trkpt lat="43.1867880" lon="-1.0332840">
        <ele>302.5</ele>
        <time>2019-07-17T11:14:08Z</time>
      </trkpt>
      <trkpt lat="43.1867940" lon="-1.0331550">
        <ele>303.3</ele>
        <time>2019-07-17T11:14:16Z</time>
      </trkpt>
      <trkpt lat="43.1868150" lon="-1.0330300">
        <ele>304.1</ele>
        <time>2019-07-17T11:14:25Z</time>
      </trkpt>
      <trkpt lat="43.1868010" lon="-1.0328980">
        <ele>304.9</ele>
        <time>2019-07-17T11:14:33Z</time>
      </trkpt>
      <trkpt lat="43.1867870" lon="-1.0327650">
        <ele>305.7</ele>
        <time>2019-07-17T11:14:42Z</time>
      </trkpt>
      <trkpt lat="43.1867950" lon="-1.0326310">
        <ele>306.4</ele>
        <time>2019-07-17T11:14:51Z</time>
      </trkpt>
      <trkpt lat="43.1868100" lon="-1.0325000">
        <ele>307.1</ele>
        <time>2019-07-17T11:14:59Z</time>
      </trkpt>
      <trkpt lat="43.1868330" lon="-1.0323800">
        <ele>307.8</ele>
        <time>2019-07-17T11:15:06Z</time>
      </trkpt>
      <trkpt lat="43.1868590" lon="-1.0322480">
        <ele>308.5</ele>
        <time>2019-07-17T11:15:14Z</time>
      </trkpt>
      <trkpt lat="43.1868950" lon="-1.0321160">
        <ele>309.2</ele>
        <time>2019-07-17T11:15:22Z</time>
      </trkpt>
      <trkpt lat="43.1869240" lon="-1.0319990">
        <ele>309.8</ele>
        <time>2019-07-17T11:15:29Z</time>
      </trkpt>
      <trkpt lat="43.1869560" lon="-1.0318780">
        <ele>310.3</ele>
        <time>2019-07-17T11:15:36Z</time>
      </trkpt>
      <trkpt lat="43.1869870" lon="-1.0317610">
        <ele>310.9</ele>
        <time>2019-07-17T11:15:43Z</time>
      </trkpt>
      <trkpt lat="43.1870420" lon="-1.0316430">
        <ele>311.5</ele>
        <time>2019-07-17T11:15:51Z</time>
      </trkpt>
      <trkpt lat="43.1870870" lon="-1.0315310">
        <ele>312.1</ele>
        <time>2019-07-17T11:15:58Z</time>
      </trkpt>
      <trkpt lat="43.1871420" lon="-1.0314160">
        <ele>312.8</ele>
        <time>2019-07-17T11:16:06Z</time>
      </trkpt>
      <trkpt lat="43.1872070" lon="-1.0313230">
        <ele>313.5</ele>
        <time>2019-07-17T11:16:13Z</time>
      </trkpt>
      <trkpt lat="43.1872780" lon="-1.0312190">
        <ele>314.2</ele>
        <time>2019-07-17T11:16:22Z</time>
      </trkpt>
      <trkpt lat="43.1873530" lon="-1.0311310">
        <ele>315.0</ele>
        <time>2019-07-17T11:16:29Z</time>
      </trkpt>
      <trkpt lat="43.1874250" lon="-1.0310530">
        <ele>315.6</ele>
        <time>2019-07-17T11:16:36Z</time>
      </trkpt>
      <trkpt lat="43.1874930" lon="-1.0309670">
        <ele>316.3</ele>
        <time>2019-07-17T11:16:42Z</time>
      </trkpt>
      <trkpt lat="43.1875690" lon="-1.0309000">
        <ele>316.9</ele>
        <time>2019-07-17T11:16:48Z</time>
      </trkpt>
      <trkpt lat="43.1876470" lon="-1.0308320">
        <ele>317.5</ele>
        <time>2019-07-17T11:16:54Z</time>
      </trkpt>
      <trkpt lat="43.1877180" lon="-1.0307510">
        <ele>318.1</ele>
        <time>2019-07-17T11:17:00Z</time>
      </trkpt>
      <trkpt lat="43.1877740" lon="-1.0306400">
        <ele>318.7</ele>
        <time>2019-07-17T11:17:07Z</time>
      </trkpt>
      <trkpt lat="43.1878120" lon="-1.0305120">
        <ele>319.3</ele>
        <time>2019-07-17T11:17:14Z</time>
      </trkpt>
      <trkpt lat="43.1878220" lon="-1.0303790">
        <ele>319.9</ele>
        <time>2019-07-17T11:17:21Z</time>
      </trkpt>
      <trkpt lat="43.1878520" lon="-1.0302610">
        <ele>320.4</ele>
        <time>2019-07-17T11:17:27Z</time>
      </trkpt>
      <trkpt lat="43.1878900" lon="-1.0301450">
        <ele>321.0</ele>
        <time>2019-07-17T11:17:33Z</time>
      </trkpt>
      <trkpt lat="43.1879240" lon="-1.0300100">
        <ele>321.5</ele>
        <time>2019-07-17T11:17:40Z</time>
      </trkpt>
      <trkpt lat="43.1879570" lon="-1.0298930">
        <ele>322.1</ele>
        <time>2019-07-17T11:17:46Z</time>
      </trkpt>
      <trkpt lat="43.1879940" lon="-1.0297660">
        <ele>322.6</ele>
        <time>2019-07-17T11:17:52Z</time>
      </trkpt>
      <trkpt lat="43.1880240" lon="-1.0296390">
        <ele>323.2</ele>
        <time>2019-07-17T11:17:58Z</time>
      </trkpt>
      <trkpt lat="43.1880570" lon="-1.0295170">
        <ele>323.7</ele>
        <time>2019-07-17T11:18:04Z</time>
      </trkpt>
      <trkpt lat="43.1881080" lon="-1.0294040">
        <ele>324.3</ele>
        <time>2019-07-17T11:18:10Z</time>
      </trkpt>
      <trkpt lat="43.1881450" lon="-1.0292900">
        <ele>324.8</ele>
        <time>2019-07-17T11:18:16Z</time>
      </trkpt>
      <trkpt lat="43.1881940" lon="-1.0291860">
        <ele>325.2</ele>
        <time>2019-07-17T11:18:22Z</time>
      </trkpt>
      <trkpt lat="43.1882570" lon="-1.0290690">
        <ele>325.8</ele>
        <time>2019-07-17T11:18:29Z</time>
      </trkpt>
      <trkpt lat="43.1883110" lon="-1.0289480">
        <ele>326.4</ele>
        <time>2019-07-17T11:18:36Z</time>
      </trkpt>
      <trkpt lat="43.1883790" lon="-1.0288420">
        <ele>326.9</ele>
        <time>2019-07-17T11:18:43Z</time>
      </trkpt>
      <trkpt lat="43.1884530" lon="-1.0287610">
        <ele>327.4</ele>
        <time>2019-07-17T11:18:49Z</time>
      </trkpt>
      <trkpt lat="43.1885430" lon="-1.0286790">
        <ele>327.9</ele>
        <time>2019-07-17T11:18:56Z</time>
      </trkpt>
      <trkpt lat="43.1886300" lon="-1.0286130">
        <ele>328.5</ele>
        <time>2019-07-17T11:19:03Z</time>
      </trkpt>
      <trkpt lat="43.1887110" lon="-1.0285500">
        <ele>328.9</ele>
        <time>2019-07-17T11:19:09Z</time>
      </trkpt>
      <trkpt lat="43.1888050" lon="-1.0285170">
        <ele>329.5</ele>
        <time>2019-07-17T11:19:15Z</time>
      </trkpt>
      <trkpt lat="43.1888950" lon="-1.0284510">
        <ele>330.0</ele>
        <time>2019-07-17T11:19:23Z</time>
      </trkpt>
      <trkpt lat="43.1889930" lon="-1.0284190">
        <ele>330.6</ele>
        <time>2019-07-17T11:19:30Z</time>
      </trkpt>
      <trkpt lat="43.1890900" lon="-1.0283730">
        <ele>331.2</ele>
        <time>2019-07-17T11:19:37Z</time>
      </trkpt>
      <trkpt lat="43.1891830" lon="-1.0283250">
        <ele>331.8</ele>
        <time>2019-07-17T11:19:44Z</time>
      </trkpt>
      <trkpt lat="43.1892620" lon="-1.0282490">
        <ele>332.3</ele>
        <time>2019-07-17T11:19:50Z</time>
      </trkpt>
      <trkpt lat="43.1893240" lon="-1.0281380">
        <ele>332.8</ele>
        <time>2019-07-17T11:19:57Z</time>
      </trkpt>
      <trkpt lat="43.1893570" lon="-1.0280200">
        <ele>333.4</ele>
        <time>2019-07-17T11:20:04Z</time>
      </trkpt>
      <trkpt lat="43.1893810" lon="-1.0278840">
        <ele>334.0</ele>
        <time>2019-07-17T11:20:11Z</time>
      </trkpt>
      <trkpt lat="43.1894010" lon="-1.0277530">
        <ele>334.7</ele>
        <time>2019-07-17T11:20:18Z</time>
      </trkpt>
      <trkpt lat="43.1894300" lon="-1.0276220">
        <ele>335.3</ele>
        <time>2019-07-17T11:20:25Z</time>
      </trkpt>
      <trkpt lat="43.1894630" lon="-1.0274910">
        <ele>336.0</ele>
        <time>2019-07-17T11:20:32Z</time>
      </trkpt>
      <trkpt lat="43.1895170" lon="-1.0273770">
        <ele>336.6</ele>
        <time>2019-07-17T11:20:39Z</time>
      </trkpt>
      <trkpt lat="43.1895830" lon="-1.0272790">
        <ele>337.2</ele>
        <time>2019-07-17T11:20:45Z</time>
      </trkpt>
      <trkpt lat="43.1896290" lon="-1.0271560">
        <ele>337.8</ele>
        <time>2019-07-17T11:20:52Z</time>
      </trkpt>
      <trkpt lat="43.1896970" lon="-1.0270540">
        <ele>338.4</ele>
        <time>2019-07-17T11:20:59Z</time>
      </trkpt>
      <trkpt lat="43.1897670" lon="-1.0269570">
        <ele>339.0</ele>
        <time>2019-07-17T11:21:06Z</time>
      </trkpt>
      <trkpt lat="43.1898380" lon="-1.0268730">
        <ele>339.5</ele>
        <time>2019-07-17T11:21:12Z</time>
      </trkpt>
      <trkpt lat="43.1898970" lon="-1.0267620">
        <ele>340.1</ele>
        <time>2019-07-17T11:21:19Z</time>
      </trkpt>
      <trkpt lat="43.1899540" lon="-1.0266570">
        <ele>340.7</ele>
        <time>2019-07-17T11:21:26Z</time>
      </trkpt>
      <trkpt lat="43.1900180" lon="-1.0265650">
        <ele>341.3</ele>
        <time>2019-07-17T11:21:33Z</time>
      </trkpt>
      <trkpt lat="43.1900760" lon="-1.0264660">
        <ele>341.9</ele>
        <time>2019-07-17T11:21:40Z</time>
      </trkpt>
      <trkpt lat="43.1901430" lon="-1.0263770">
        <ele>342.6</ele>
        <time>2019-07-17T11:21:47Z</time>
      </trkpt>
      <trkpt lat="43.1902070" lon="-1.0262740">
        <ele>343.2</ele>
        <time>2019-07-17T11:21:55Z</time>
      </trkpt>
      <trkpt lat="43.1902590" lon="-1.0261530">
        <ele>343.9</ele>
        <time>2019-07-17T11:22:02Z</time>
      </trkpt>
      <trkpt lat="43.1903190" lon="-1.0260490">
        <ele>344.5</ele>
        <time>2019-07-17T11:22:08Z</time>
      </trkpt>
      <trkpt lat="43.1903720" lon="-1.0259470">
        <ele>345.1</ele>
        <time>2019-07-17T11:22:14Z</time>
      </trkpt>
      <trkpt lat="43.1904210" lon="-1.0258430">
        <ele>345.6</ele>
        <time>2019-07-17T11:22:20Z</time>
      </trkpt>
      <trkpt lat="43.1904890" lon="-1.0257400">
        <ele>346.2</ele>
        <time>2019-07-17T11:22:27Z</time>
      </trkpt>
      <trkpt lat="43.1905580" lon="-1.0256440">
        <ele>346.8</ele>
        <time>2019-07-17T11:22:34Z</time>
      </trkpt>
      <trkpt lat="43.1906310" lon="-1.0255510">
        <ele>347.3</ele>
        <time>2019-07-17T11:22:40Z</time>
      </trkpt>
      <trkpt lat="43.1906970" lon="-1.0254550">
        <ele>347.9</ele>
        <time>2019-07-17T11:22:47Z</time>
      </trkpt>
      <trkpt lat="43.1907570" lon="-1.0253620">
        <ele>348.4</ele>
        <time>2019-07-17T11:22:53Z</time>
      </trkpt>
      <trkpt lat="43.1908280" lon="-1.0252610">
        <ele>349.0</ele>
        <time>2019-07-17T11:23:00Z</time>
      </trkpt>
      <trkpt lat="43.1908940" lon="-1.0251640">
        <ele>349.5</ele>
        <time>2019-07-17T11:23:07Z</time>
      </trkpt>
      <trkpt lat="43.1909550" lon="-1.0250590">
        <ele>350.0</ele>
        <time>2019-07-17T11:23:14Z</time>
      </trkpt>
      <trkpt lat="43.1910160" lon="-1.0249560">
        <ele>350.5</ele>
        <time>2019-07-17T11:23:20Z</time>
      </trkpt>
      <trkpt lat="43.1910770" lon="-1.0248420">
        <ele>351.1</ele>
        <time>2019-07-17T11:23:27Z</time>
      </trkpt>
      <trkpt lat="43.1911300" lon="-1.0247390">
        <ele>351.6</ele>
        <time>2019-07-17T11:23:33Z</time>
      </trkpt>
      <trkpt lat="43.1911690" lon="-1.0246270">
        <ele>352.1</ele>
        <time>2019-07-17T11:23:39Z</time>
      </trkpt>
      <trkpt lat="43.1912190" lon="-1.0245040">
        <ele>352.7</ele>
        <time>2019-07-17T11:23:46Z</time>
      </trkpt>
      <trkpt lat="43.1912840" lon="-1.0243940">
        <ele>353.3</ele>
        <time>2019-07-17T11:23:53Z</time>
      </trkpt>
      <trkpt lat="43.1913340" lon="-1.0242690">
        <ele>353.8</ele>
        <time>2019-07-17T11:23:59Z</time>
      </trkpt>
      <trkpt lat="43.1913870" lon="-1.0241550">
        <ele>354.3</ele>
        <time>2019-07-17T11:24:06Z</time>
      </trkpt>
      <trkpt lat="43.1914540" lon="-1.0240470">
        <ele>354.8</ele>
        <time>2019-07-17T11:24:13Z</time>
      </trkpt>
      <trkpt lat="43.1915180" lon="-1.0239480">
        <ele>355.3</ele>
        <time>2019-07-17T11:24:20Z</time>
      </trkpt>
      <trkpt lat="43.1915780" lon="-1.0238340">
        <ele>355.8</ele>
        <time>2019-07-17T11:24:27Z</time>
      </trkpt>
      <trkpt lat="43.1916430" lon="-1.0237480">
        <ele>356.3</ele>
        <time>2019-07-17T11:24:33Z</time>
      </trkpt>
      <trkpt lat="43.1917120" lon="-1.0236410">
        <ele>356.9</ele>
        <time>2019-07-17T11:24:40Z</time>
      </trkpt>
      <trkpt lat="43.1917810" lon="-1.0235530">
        <ele>357.4</ele>
        <time>2019-07-17T11:24:46Z</time>
      </trkpt>
      <trkpt lat="43.1918500" lon="-1.0234500">
        <ele>358.0</ele>
        <time>2019-07-17T11:24:53Z</time>
      </trkpt>
      <trkpt lat="43.1919310" lon="-1.0233710">
        <ele>358.6</ele>
        <time>2019-07-17T11:24:59Z</time>
      </trkpt>
      <trkpt lat="43.1920080" lon="-1.0232900">
        <ele>359.2</ele>
        <time>2019-07-17T11:25:05Z</time>
      </trkpt>
      <trkpt lat="43.1920910" lon="-1.0232110">
        <ele>359.9</ele>
        <time>2019-07-17T11:25:12Z</time>
      </trkpt>
      <trkpt lat="43.1921760" lon="-1.0231670">
        <ele>360.6</ele>
        <time>2019-07-17T11:25:19Z</time>
      </trkpt>
      <trkpt lat="43.1922670" lon="-1.0231480">
        <ele>361.3</ele>
        <time>2019-07-17T11:25:25Z</time>
      </trkpt>
      <trkpt lat="43.1923710" lon="-1.0231500">
        <ele>362.2</ele>
        <time>2019-07-17T11:25:33Z</time>
      </trkpt>
      <trkpt lat="43.1924660" lon="-1.0231420">
        <ele>362.9</ele>
        <time>2019-07-17T11:25:38Z</time>
      </trkpt>
      <trkpt lat="43.1925630" lon="-1.0231820">
        <ele>363.7</ele>
        <time>2019-07-17T11:25:47Z</time>
      </trkpt>
      <trkpt lat="43.1926480" lon="-1.0232580">
        <ele>364.6</ele>
        <time>2019-07-17T11:25:55Z</time>
      </trkpt>
      <trkpt lat="43.1927220" lon="-1.0233360">
        <ele>365.3</ele>
        <time>2019-07-17T11:26:01Z</time>
      </trkpt>
      <trkpt lat="43.1928030" lon="-1.0233990">
        <ele>366.0</ele>
        <time>2019-07-17T11:26:08Z</time>
      </trkpt>
      <trkpt lat="43.1928820" lon="-1.0234710">
        <ele>366.6</ele>
        <time>2019-07-17T11:26:14Z</time>
      </trkpt>
      <trkpt lat="43.1929800" lon="-1.0235290">
        <ele>367.3</ele>
        <time>2019-07-17T11:26:21Z</time>
      </trkpt>
      <trkpt lat="43.1929300" lon="-1.0236740">
        <ele>368.0</ele>
        <time>2019-07-17T11:26:37Z</time>
      </trkpt>
      <trkpt lat="43.1929200" lon="-1.0236790">
        <ele>368.1</ele>
        <time>2019-07-17T11:26:42Z</time>
      </trkpt>
      <trkpt lat="43.1928940" lon="-1.0236950">
        <ele>368.3</ele>
        <time>2019-07-17T11:26:51Z</time>
      </trkpt>
      <trkpt lat="43.1928470" lon="-1.0237640">
        <ele>368.8</ele>
        <time>2019-07-17T11:27:18Z</time>
      </trkpt>
      <trkpt lat="43.1928920" lon="-1.0237330">
        <ele>369.1</ele>
        <time>2019-07-17T11:27:30Z</time>
      </trkpt>
      <trkpt lat="43.1929790" lon="-1.0237720">
        <ele>369.8</ele>
        <time>2019-07-17T11:27:43Z</time>
      </trkpt>
      <trkpt lat="43.1930680" lon="-1.0238260">
        <ele>370.5</ele>
        <time>2019-07-17T11:27:51Z</time>
      </trkpt>
      <trkpt lat="43.1931620" lon="-1.0238290">
        <ele>371.3</ele>
        <time>2019-07-17T11:27:55Z</time>
      </trkpt>
      <trkpt lat="43.1932530" lon="-1.0238940">
        <ele>372.1</ele>
        <time>2019-07-17T11:28:01Z</time>
      </trkpt>
      <trkpt lat="43.1933270" lon="-1.0239630">
        <ele>372.8</ele>
        <time>2019-07-17T11:28:07Z</time>
      </trkpt>
      <trkpt lat="43.1934150" lon="-1.0240320">
        <ele>373.6</ele>
        <time>2019-07-17T11:28:14Z</time>
      </trkpt>
      <trkpt lat="43.1934900" lon="-1.0241180">
        <ele>374.4</ele>
        <time>2019-07-17T11:28:22Z</time>
      </trkpt>
      <trkpt lat="43.1935770" lon="-1.0241870">
        <ele>375.2</ele>
        <time>2019-07-17T11:28:30Z</time>
      </trkpt>
      <trkpt lat="43.1936560" lon="-1.0242480">
        <ele>375.9</ele>
        <time>2019-07-17T11:28:38Z</time>
      </trkpt>
      <trkpt lat="43.1937500" lon="-1.0243070">
        <ele>376.7</ele>
        <time>2019-07-17T11:28:46Z</time>
      </trkpt>
      <trkpt lat="43.1938460" lon="-1.0243780">
        <ele>377.6</ele>
        <time>2019-07-17T11:28:52Z</time>
      </trkpt>
      <trkpt lat="43.1939310" lon="-1.0244290">
        <ele>378.3</ele>
        <time>2019-07-17T11:28:57Z</time>
      </trkpt>
      <trkpt lat="43.1940190" lon="-1.0244710">
        <ele>379.0</ele>
        <time>2019-07-17T11:29:03Z</time>
      </trkpt>
      <trkpt lat="43.1941060" lon="-1.0245230">
        <ele>379.8</ele>
        <time>2019-07-17T11:29:10Z</time>
      </trkpt>
      <trkpt lat="43.1941960" lon="-1.0245610">
        <ele>380.5</ele>
        <time>2019-07-17T11:29:16Z</time>
      </trkpt>
      <trkpt lat="43.1942830" lon="-1.0246160">
        <ele>381.1</ele>
        <time>2019-07-17T11:29:25Z</time>
      </trkpt>
      <trkpt lat="43.1943860" lon="-1.0246090">
        <ele>381.9</ele>
        <time>2019-07-17T11:29:31Z</time>
      </trkpt>
      <trkpt lat="43.1944920" lon="-1.0246210">
        <ele>382.5</ele>
        <time>2019-07-17T11:29:37Z</time>
      </trkpt>
      <trkpt lat="43.1945900" lon="-1.0246240">
        <ele>383.2</ele>
        <time>2019-07-17T11:29:43Z</time>
      </trkpt>
      <trkpt lat="43.1946820" lon="-1.0246130">
        <ele>383.8</ele>
        <time>2019-07-17T11:29:49Z</time>
      </trkpt>
      <trkpt lat="43.1947770" lon="-1.0246160">
        <ele>384.5</ele>
        <time>2019-07-17T11:29:55Z</time>
      </trkpt>
      <trkpt lat="43.1948680" lon="-1.0245900">
        <ele>385.1</ele>
        <time>2019-07-17T11:30:01Z</time>
      </trkpt>
      <trkpt lat="43.1949600" lon="-1.0245810">
        <ele>385.7</ele>
        <time>2019-07-17T11:30:07Z</time>
      </trkpt>
      <trkpt lat="43.1950540" lon="-1.0245660">
        <ele>386.4</ele>
        <time>2019-07-17T11:30:13Z</time>
      </trkpt>
      <trkpt lat="43.1951570" lon="-1.0245500">
        <ele>387.1</ele>
        <time>2019-07-17T11:30:20Z</time>
      </trkpt>
      <trkpt lat="43.1952480" lon="-1.0245380">
        <ele>387.7</ele>
        <time>2019-07-17T11:30:26Z</time>
      </trkpt>
      <trkpt lat="43.1953420" lon="-1.0245280">
        <ele>388.3</ele>
        <time>2019-07-17T11:30:32Z</time>
      </trkpt>
      <trkpt lat="43.1954320" lon="-1.0245230">
        <ele>389.0</ele>
        <time>2019-07-17T11:30:38Z</time>
      </trkpt>
      <trkpt lat="43.1955240" lon="-1.0245090">
        <ele>389.6</ele>
        <time>2019-07-17T11:30:44Z</time>
      </trkpt>
      <trkpt lat="43.1956190" lon="-1.0244900">
        <ele>390.2</ele>
        <time>2019-07-17T11:30:50Z</time>
      </trkpt>
      <trkpt lat="43.1957040" lon="-1.0244390">
        <ele>390.8</ele>
        <time>2019-07-17T11:30:56Z</time>
      </trkpt>
      <trkpt lat="43.1957850" lon="-1.0243660">
        <ele>391.4</ele>
        <time>2019-07-17T11:31:02Z</time>
      </trkpt>
      <trkpt lat="43.1958690" lon="-1.0242990">
        <ele>391.9</ele>
        <time>2019-07-17T11:31:08Z</time>
      </trkpt>
      <trkpt lat="43.1959620" lon="-1.0242450">
        <ele>392.4</ele>
        <time>2019-07-17T11:31:14Z</time>
      </trkpt>
      <trkpt lat="43.1960470" lon="-1.0242020">
        <ele>392.8</ele>
        <time>2019-07-17T11:31:19Z</time>
      </trkpt>
      <trkpt lat="43.1961460" lon="-1.0241560">
        <ele>393.2</ele>
        <time>2019-07-17T11:31:24Z</time>
      </trkpt>
      <trkpt lat="43.1962490" lon="-1.0240930">
        <ele>393.3</ele>
        <time>2019-07-17T11:31:29Z</time>
      </trkpt>
      <trkpt lat="43.1963550" lon="-1.0240120">
        <ele>392.7</ele>
        <time>2019-07-17T11:31:33Z</time>
      </trkpt>
      <trkpt lat="43.1964380" lon="-1.0239430">
        <ele>392.2</ele>
        <time>2019-07-17T11:31:36Z</time>
      </trkpt>
      <trkpt lat="43.1965200" lon="-1.0238740">
        <ele>391.7</ele>
        <time>2019-07-17T11:31:39Z</time>
      </trkpt>
      <trkpt lat="43.1966010" lon="-1.0238050">
        <ele>391.2</ele>
        <time>2019-07-17T11:31:42Z</time>
      </trkpt>
      <trkpt lat="43.1966760" lon="-1.0237300">
        <ele>390.8</ele>
        <time>2019-07-17T11:31:45Z</time>
      </trkpt>
      <trkpt lat="43.1967590" lon="-1.0236150">
        <ele>390.3</ele>
        <time>2019-07-17T11:31:49Z</time>
      </trkpt>
      <trkpt lat="43.1968200" lon="-1.0234970">
        <ele>389.8</ele>
        <time>2019-07-17T11:31:53Z</time>
      </trkpt>
      <trkpt lat="43.1968730" lon="-1.0233800">
        <ele>389.3</ele>
        <time>2019-07-17T11:31:57Z</time>
      </trkpt>
      <trkpt lat="43.1969160" lon="-1.0232590">
        <ele>388.8</ele>
        <time>2019-07-17T11:32:01Z</time>
      </trkpt>
      <trkpt lat="43.1969550" lon="-1.0231370">
        <ele>388.4</ele>
        <time>2019-07-17T11:32:05Z</time>
      </trkpt>
      <trkpt lat="43.1969990" lon="-1.0230040">
        <ele>388.0</ele>
        <time>2019-07-17T11:32:10Z</time>
      </trkpt>
      <trkpt lat="43.1970370" lon="-1.0228700">
        <ele>387.7</ele>
        <time>2019-07-17T11:32:15Z</time>
      </trkpt>
      <trkpt lat="43.1970720" lon="-1.0227410">
        <ele>387.9</ele>
        <time>2019-07-17T11:32:20Z</time>
      </trkpt>
      <trkpt lat="43.1971180" lon="-1.0226160">
        <ele>389.1</ele>
        <time>2019-07-17T11:32:25Z</time>
      </trkpt>
      <trkpt lat="43.1971490" lon="-1.0224970">
        <ele>390.0</ele>
        <time>2019-07-17T11:32:30Z</time>
      </trkpt>
      <trkpt lat="43.1971830" lon="-1.0223800">
        <ele>390.7</ele>
        <time>2019-07-17T11:32:35Z</time>
      </trkpt>
      <trkpt lat="43.1972100" lon="-1.0222570">
        <ele>391.1</ele>
        <time>2019-07-17T11:32:40Z</time>
      </trkpt>
      <trkpt lat="43.1972560" lon="-1.0221370">
        <ele>391.2</ele>
        <time>2019-07-17T11:32:46Z</time>
      </trkpt>
      <trkpt lat="43.1973010" lon="-1.0220200">
        <ele>390.9</ele>
        <time>2019-07-17T11:32:52Z</time>
      </trkpt>
      <trkpt lat="43.1973490" lon="-1.0219140">
        <ele>390.4</ele>
        <time>2019-07-17T11:32:57Z</time>
      </trkpt>
      <trkpt lat="43.1973980" lon="-1.0217850">
        <ele>389.9</ele>
        <time>2019-07-17T11:33:02Z</time>
      </trkpt>
      <trkpt lat="43.1974550" lon="-1.0216860">
        <ele>389.6</ele>
        <time>2019-07-17T11:33:08Z</time>
      </trkpt>
      <trkpt lat="43.1975190" lon="-1.0215880">
        <ele>389.4</ele>
        <time>2019-07-17T11:33:13Z</time>
      </trkpt>
      <trkpt lat="43.1975730" lon="-1.0214670">
        <ele>389.4</ele>
        <time>2019-07-17T11:33:19Z</time>
      </trkpt>
      <trkpt lat="43.1976430" lon="-1.0213710">
        <ele>389.6</ele>
        <time>2019-07-17T11:33:24Z</time>
      </trkpt>
      <trkpt lat="43.1977310" lon="-1.0212900">
        <ele>389.7</ele>
        <time>2019-07-17T11:33:28Z</time>
      </trkpt>
      <trkpt lat="43.1978210" lon="-1.0212180">
        <ele>390.1</ele>
        <time>2019-07-17T11:33:34Z</time>
      </trkpt>
      <trkpt lat="43.1979020" lon="-1.0211210">
        <ele>390.6</ele>
        <time>2019-07-17T11:33:39Z</time>
      </trkpt>
      <trkpt lat="43.1979830" lon="-1.0210350">
        <ele>391.5</ele>
        <time>2019-07-17T11:33:45Z</time>
      </trkpt>
      <trkpt lat="43.1980620" lon="-1.0209460">
        <ele>392.6</ele>
        <time>2019-07-17T11:33:52Z</time>
      </trkpt>
      <trkpt lat="43.1981300" lon="-1.0208550">
        <ele>393.6</ele>
        <time>2019-07-17T11:33:58Z</time>
      </trkpt>
      <trkpt lat="43.1981900" lon="-1.0207420">
        <ele>394.7</ele>
        <time>2019-07-17T11:34:06Z</time>
      </trkpt>
      <trkpt lat="43.1982530" lon="-1.0206260">
        <ele>395.7</ele>
        <time>2019-07-17T11:34:14Z</time>
      </trkpt>
      <trkpt lat="43.1983170" lon="-1.0205160">
        <ele>396.5</ele>
        <time>2019-07-17T11:34:20Z</time>
      </trkpt>
      <trkpt lat="43.1983830" lon="-1.0204250">
        <ele>397.2</ele>
        <time>2019-07-17T11:34:26Z</time>
      </trkpt>
      <trkpt lat="43.1984480" lon="-1.0203300">
        <ele>397.8</ele>
        <time>2019-07-17T11:34:32Z</time>
      </trkpt>
      <trkpt lat="43.1985160" lon="-1.0202230">
        <ele>398.2</ele>
        <time>2019-07-17T11:34:39Z</time>
      </trkpt>
      <trkpt lat="43.1985760" lon="-1.0201260">
        <ele>398.4</ele>
        <time>2019-07-17T11:34:45Z</time>
      </trkpt>
      <trkpt lat="43.1986540" lon="-1.0200420">
        <ele>398.5</ele>
        <time>2019-07-17T11:34:52Z</time>
      </trkpt>
      <trkpt lat="43.1987320" lon="-1.0199510">
        <ele>398.6</ele>
        <time>2019-07-17T11:34:59Z</time>
      </trkpt>
      <trkpt lat="43.1988030" lon="-1.0198730">
        <ele>398.7</ele>
        <time>2019-07-17T11:35:05Z</time>
      </trkpt>
      <trkpt lat="43.1988850" lon="-1.0197880">
        <ele>399.0</ele>
        <time>2019-07-17T11:35:12Z</time>
      </trkpt>
      <trkpt lat="43.1989720" lon="-1.0197190">
        <ele>399.4</ele>
        <time>2019-07-17T11:35:19Z</time>
      </trkpt>
      <trkpt lat="43.1990500" lon="-1.0196320">
        <ele>400.0</ele>
        <time>2019-07-17T11:35:26Z</time>
      </trkpt>
      <trkpt lat="43.1991230" lon="-1.0195420">
        <ele>400.5</ele>
        <time>2019-07-17T11:35:33Z</time>
      </trkpt>
      <trkpt lat="43.1991960" lon="-1.0194660">
        <ele>400.8</ele>
        <time>2019-07-17T11:35:39Z</time>
      </trkpt>
      <trkpt lat="43.1992660" lon="-1.0193770">
        <ele>401.0</ele>
        <time>2019-07-17T11:35:45Z</time>
      </trkpt>
      <trkpt lat="43.1993360" lon="-1.0192920">
        <ele>401.0</ele>
        <time>2019-07-17T11:35:51Z</time>
      </trkpt>
      <trkpt lat="43.1994130" lon="-1.0192070">
        <ele>401.0</ele>
        <time>2019-07-17T11:35:57Z</time>
      </trkpt>
      <trkpt lat="43.1994780" lon="-1.0190960">
        <ele>401.3</ele>
        <time>2019-07-17T11:36:05Z</time>
      </trkpt>
      <trkpt lat="43.1995420" lon="-1.0189840">
        <ele>401.8</ele>
        <time>2019-07-17T11:36:13Z</time>
      </trkpt>
      <trkpt lat="43.1996000" lon="-1.0188710">
        <ele>402.5</ele>
        <time>2019-07-17T11:36:20Z</time>
      </trkpt>
      <trkpt lat="43.1996610" lon="-1.0187590">
        <ele>403.3</ele>
        <time>2019-07-17T11:36:27Z</time>
      </trkpt>
      <trkpt lat="43.1997250" lon="-1.0186560">
        <ele>404.1</ele>
        <time>2019-07-17T11:36:33Z</time>
      </trkpt>
      <trkpt lat="43.1997730" lon="-1.0185440">
        <ele>404.9</ele>
        <time>2019-07-17T11:36:40Z</time>
      </trkpt>
      <trkpt lat="43.1998360" lon="-1.0184510">
        <ele>405.8</ele>
        <time>2019-07-17T11:36:46Z</time>
      </trkpt>
      <trkpt lat="43.1998930" lon="-1.0183430">
        <ele>406.8</ele>
        <time>2019-07-17T11:36:52Z</time>
      </trkpt>
      <trkpt lat="43.1999520" lon="-1.0182440">
        <ele>407.8</ele>
        <time>2019-07-17T11:36:58Z</time>
      </trkpt>
      <trkpt lat="43.2000020" lon="-1.0181360">
        <ele>408.8</ele>
        <time>2019-07-17T11:37:04Z</time>
      </trkpt>
      <trkpt lat="43.2000620" lon="-1.0180210">
        <ele>409.9</ele>
        <time>2019-07-17T11:37:11Z</time>
      </trkpt>
      <trkpt lat="43.2001000" lon="-1.0179080">
        <ele>410.8</ele>
        <time>2019-07-17T11:37:17Z</time>
      </trkpt>
      <trkpt lat="43.2001370" lon="-1.0177760">
        <ele>411.8</ele>
        <time>2019-07-17T11:37:24Z</time>
      </trkpt>
      <trkpt lat="43.2001730" lon="-1.0176590">
        <ele>412.8</ele>
        <time>2019-07-17T11:37:31Z</time>
      </trkpt>
      <trkpt lat="43.2002100" lon="-1.0175290">
        <ele>413.9</ele>
        <time>2019-07-17T11:37:38Z</time>
      </trkpt>
      <trkpt lat="43.2002350" lon="-1.0173990">
        <ele>414.9</ele>
        <time>2019-07-17T11:37:45Z</time>
      </trkpt>
      <trkpt lat="43.2002700" lon="-1.0172710">
        <ele>415.7</ele>
        <time>2019-07-17T11:37:52Z</time>
      </trkpt>
      <trkpt lat="43.2002970" lon="-1.0171390">
        <ele>416.4</ele>
        <time>2019-07-17T11:37:59Z</time>
      </trkpt>
      <trkpt lat="43.2003220" lon="-1.0170060">
        <ele>417.0</ele>
        <time>2019-07-17T11:38:06Z</time>
      </trkpt>
      <trkpt lat="43.2003500" lon="-1.0168720">
        <ele>417.7</ele>
        <time>2019-07-17T11:38:13Z</time>
      </trkpt>
      <trkpt lat="43.2003670" lon="-1.0167490">
        <ele>418.3</ele>
        <time>2019-07-17T11:38:19Z</time>
      </trkpt>
      <trkpt lat="43.2003960" lon="-1.0166150">
        <ele>419.2</ele>
        <time>2019-07-17T11:38:26Z</time>
      </trkpt>
      <trkpt lat="43.2004240" lon="-1.0164940">
        <ele>420.0</ele>
        <time>2019-07-17T11:38:32Z</time>
      </trkpt>
      <trkpt lat="43.2004480" lon="-1.0163730">
        <ele>420.8</ele>
        <time>2019-07-17T11:38:38Z</time>
      </trkpt>
      <trkpt lat="43.2004790" lon="-1.0162550">
        <ele>421.5</ele>
        <time>2019-07-17T11:38:44Z</time>
      </trkpt>
      <trkpt lat="43.2005180" lon="-1.0161240">
        <ele>422.2</ele>
        <time>2019-07-17T11:38:51Z</time>
      </trkpt>
      <trkpt lat="43.2005480" lon="-1.0159960">
        <ele>422.7</ele>
        <time>2019-07-17T11:38:57Z</time>
      </trkpt>
      <trkpt lat="43.2005870" lon="-1.0158690">
        <ele>422.9</ele>
        <time>2019-07-17T11:39:04Z</time>
      </trkpt>
      <trkpt lat="43.2006180" lon="-1.0157340">
        <ele>423.2</ele>
        <time>2019-07-17T11:39:11Z</time>
      </trkpt>
      <trkpt lat="43.2006700" lon="-1.0156090">
        <ele>423.5</ele>
        <time>2019-07-17T11:39:18Z</time>
      </trkpt>
      <trkpt lat="43.2007090" lon="-1.0154920">
        <ele>423.9</ele>
        <time>2019-07-17T11:39:24Z</time>
      </trkpt>
      <trkpt lat="43.2007380" lon="-1.0153750">
        <ele>424.4</ele>
        <time>2019-07-17T11:39:30Z</time>
      </trkpt>
      <trkpt lat="43.2007680" lon="-1.0152370">
        <ele>425.1</ele>
        <time>2019-07-17T11:39:37Z</time>
      </trkpt>
      <trkpt lat="43.2007990" lon="-1.0151200">
        <ele>425.7</ele>
        <time>2019-07-17T11:39:43Z</time>
      </trkpt>
      <trkpt lat="43.2008470" lon="-1.0149910">
        <ele>426.4</ele>
        <time>2019-07-17T11:39:50Z</time>
      </trkpt>
      <trkpt lat="43.2008830" lon="-1.0148590">
        <ele>427.0</ele>
        <time>2019-07-17T11:39:57Z</time>
      </trkpt>
      <trkpt lat="43.2009150" lon="-1.0147250">
        <ele>427.6</ele>
        <time>2019-07-17T11:40:04Z</time>
      </trkpt>
      <trkpt lat="43.2009530" lon="-1.0146000">
        <ele>428.1</ele>
        <time>2019-07-17T11:40:11Z</time>
      </trkpt>
      <trkpt lat="43.2009920" lon="-1.0144710">
        <ele>428.5</ele>
        <time>2019-07-17T11:40:18Z</time>
      </trkpt>
      <trkpt lat="43.2010270" lon="-1.0143530">
        <ele>428.8</ele>
        <time>2019-07-17T11:40:25Z</time>
      </trkpt>
      <trkpt lat="43.2010770" lon="-1.0142380">
        <ele>428.9</ele>
        <time>2019-07-17T11:40:32Z</time>
      </trkpt>
      <trkpt lat="43.2011090" lon="-1.0141120">
        <ele>428.9</ele>
        <time>2019-07-17T11:40:39Z</time>
      </trkpt>
      <trkpt lat="43.2011480" lon="-1.0139850">
        <ele>428.9</ele>
        <time>2019-07-17T11:40:46Z</time>
      </trkpt>
      <trkpt lat="43.2011870" lon="-1.0138660">
        <ele>428.9</ele>
        <time>2019-07-17T11:40:53Z</time>
      </trkpt>
      <trkpt lat="43.2012130" lon="-1.0137260">
        <ele>429.3</ele>
        <time>2019-07-17T11:41:00Z</time>
      </trkpt>
      <trkpt lat="43.2012310" lon="-1.0135990">
        <ele>430.0</ele>
        <time>2019-07-17T11:41:06Z</time>
      </trkpt>
      <trkpt lat="43.2012380" lon="-1.0134680">
        <ele>431.1</ele>
        <time>2019-07-17T11:41:12Z</time>
      </trkpt>
      <trkpt lat="43.2012390" lon="-1.0133410">
        <ele>432.5</ele>
        <time>2019-07-17T11:41:18Z</time>
      </trkpt>
      <trkpt lat="43.2012160" lon="-1.0132180">
        <ele>434.0</ele>
        <time>2019-07-17T11:41:24Z</time>
      </trkpt>
      <trkpt lat="43.2012000" lon="-1.0130880">
        <ele>435.6</ele>
        <time>2019-07-17T11:41:31Z</time>
      </trkpt>
      <trkpt lat="43.2011680" lon="-1.0129640">
        <ele>437.2</ele>
        <time>2019-07-17T11:41:37Z</time>
      </trkpt>
      <trkpt lat="43.2011610" lon="-1.0128290">
        <ele>438.6</ele>
        <time>2019-07-17T11:41:43Z</time>
      </trkpt>
      <trkpt lat="43.2011560" lon="-1.0127020">
        <ele>439.9</ele>
        <time>2019-07-17T11:41:49Z</time>
      </trkpt>
      <trkpt lat="43.2011460" lon="-1.0125740">
        <ele>441.1</ele>
        <time>2019-07-17T11:41:55Z</time>
      </trkpt>
      <trkpt lat="43.2011490" lon="-1.0124500">
        <ele>442.1</ele>
        <time>2019-07-17T11:42:01Z</time>
      </trkpt>
      <trkpt lat="43.2011450" lon="-1.0123150">
        <ele>443.3</ele>
        <time>2019-07-17T11:42:07Z</time>
      </trkpt>
      <trkpt lat="43.2011410" lon="-1.0121730">
        <ele>444.4</ele>
        <time>2019-07-17T11:42:14Z</time>
      </trkpt>
      <trkpt lat="43.2011360" lon="-1.0120350">
        <ele>445.5</ele>
        <time>2019-07-17T11:42:21Z</time>
      </trkpt>
      <trkpt lat="43.2011140" lon="-1.0119100">
        <ele>446.5</ele>
        <time>2019-07-17T11:42:28Z</time>
      </trkpt>
      <trkpt lat="43.2010940" lon="-1.0117740">
        <ele>447.6</ele>
        <time>2019-07-17T11:42:35Z</time>
      </trkpt>
      <trkpt lat="43.2010800" lon="-1.0116410">
        <ele>448.7</ele>
        <time>2019-07-17T11:42:42Z</time>
      </trkpt>
      <trkpt lat="43.2010460" lon="-1.0114980">
        <ele>450.0</ele>
        <time>2019-07-17T11:42:49Z</time>
      </trkpt>
      <trkpt lat="43.2010280" lon="-1.0113770">
        <ele>451.1</ele>
        <time>2019-07-17T11:42:55Z</time>
      </trkpt>
      <trkpt lat="43.2010210" lon="-1.0112490">
        <ele>452.3</ele>
        <time>2019-07-17T11:43:01Z</time>
      </trkpt>
      <trkpt lat="43.2009820" lon="-1.0111240">
        <ele>453.7</ele>
        <time>2019-07-17T11:43:08Z</time>
      </trkpt>
      <trkpt lat="43.2009760" lon="-1.0109810">
        <ele>455.1</ele>
        <time>2019-07-17T11:43:14Z</time>
      </trkpt>
      <trkpt lat="43.2009330" lon="-1.0108540">
        <ele>456.4</ele>
        <time>2019-07-17T11:43:22Z</time>
      </trkpt>
      <trkpt lat="43.2008970" lon="-1.0107400">
        <ele>457.5</ele>
        <time>2019-07-17T11:43:28Z</time>
      </trkpt>
      <trkpt lat="43.2008670" lon="-1.0106040">
        <ele>458.6</ele>
        <time>2019-07-17T11:43:35Z</time>
      </trkpt>
      <trkpt lat="43.2008510" lon="-1.0104720">
        <ele>459.5</ele>
        <time>2019-07-17T11:43:41Z</time>
      </trkpt>
      <trkpt lat="43.2008520" lon="-1.0103400">
        <ele>460.3</ele>
        <time>2019-07-17T11:43:48Z</time>
      </trkpt>
      <trkpt lat="43.2008310" lon="-1.0102100">
        <ele>461.1</ele>
        <time>2019-07-17T11:43:58Z</time>
      </trkpt>
      <trkpt lat="43.2008220" lon="-1.0100660">
        <ele>461.9</ele>
        <time>2019-07-17T11:44:05Z</time>
      </trkpt>
      <trkpt lat="43.2007900" lon="-1.0099410">
        <ele>462.7</ele>
        <time>2019-07-17T11:44:11Z</time>
      </trkpt>
      <trkpt lat="43.2007950" lon="-1.0097960">
        <ele>463.7</ele>
        <time>2019-07-17T11:44:16Z</time>
      </trkpt>
      <trkpt lat="43.2007770" lon="-1.0096700">
        <ele>464.7</ele>
        <time>2019-07-17T11:44:21Z</time>
      </trkpt>
      <trkpt lat="43.2007550" lon="-1.0095450">
        <ele>465.7</ele>
        <time>2019-07-17T11:44:26Z</time>
      </trkpt>
      <trkpt lat="43.2007070" lon="-1.0094150">
        <ele>466.8</ele>
        <time>2019-07-17T11:44:32Z</time>
      </trkpt>
      <trkpt lat="43.2006660" lon="-1.0092880">
        <ele>467.7</ele>
        <time>2019-07-17T11:44:38Z</time>
      </trkpt>
      <trkpt lat="43.2006200" lon="-1.0091770">
        <ele>468.4</ele>
        <time>2019-07-17T11:44:44Z</time>
      </trkpt>
      <trkpt lat="43.2005660" lon="-1.0090570">
        <ele>469.0</ele>
        <time>2019-07-17T11:44:51Z</time>
      </trkpt>
      <trkpt lat="43.2004930" lon="-1.0089570">
        <ele>469.5</ele>
        <time>2019-07-17T11:44:58Z</time>
      </trkpt>
      <trkpt lat="43.2004280" lon="-1.0088600">
        <ele>469.9</ele>
        <time>2019-07-17T11:45:05Z</time>
      </trkpt>
      <trkpt lat="43.2003520" lon="-1.0087820">
        <ele>470.4</ele>
        <time>2019-07-17T11:45:12Z</time>
      </trkpt>
      <trkpt lat="43.2002820" lon="-1.0086940">
        <ele>471.0</ele>
        <time>2019-07-17T11:45:19Z</time>
      </trkpt>
      <trkpt lat="43.2002170" lon="-1.0086030">
        <ele>471.7</ele>
        <time>2019-07-17T11:45:26Z</time>
      </trkpt>
      <trkpt lat="43.2001510" lon="-1.0085080">
        <ele>472.5</ele>
        <time>2019-07-17T11:45:33Z</time>
      </trkpt>
      <trkpt lat="43.2000870" lon="-1.0084050">
        <ele>473.4</ele>
        <time>2019-07-17T11:45:40Z</time>
      </trkpt>
      <trkpt lat="43.2000240" lon="-1.0082990">
        <ele>474.3</ele>
        <time>2019-07-17T11:45:47Z</time>
      </trkpt>
      <trkpt lat="43.1999580" lon="-1.0081950">
        <ele>475.1</ele>
        <time>2019-07-17T11:45:54Z</time>
      </trkpt>
      <trkpt lat="43.1999130" lon="-1.0080700">
        <ele>475.8</ele>
        <time>2019-07-17T11:46:01Z</time>
      </trkpt>
      <trkpt lat="43.1998700" lon="-1.0079400">
        <ele>476.3</ele>
        <time>2019-07-17T11:46:08Z</time>
      </trkpt>
      <trkpt lat="43.1998550" lon="-1.0077980">
        <ele>476.7</ele>
        <time>2019-07-17T11:46:15Z</time>
      </trkpt>
      <trkpt lat="43.1998290" lon="-1.0076640">
        <ele>477.0</ele>
        <time>2019-07-17T11:46:22Z</time>
      </trkpt>
      <trkpt lat="43.1998190" lon="-1.0075380">
        <ele>477.2</ele>
        <time>2019-07-17T11:46:28Z</time>
      </trkpt>
      <trkpt lat="43.1997880" lon="-1.0074010">
        <ele>477.4</ele>
        <time>2019-07-17T11:46:35Z</time>
      </trkpt>
      <trkpt lat="43.1997790" lon="-1.0072780">
        <ele>477.5</ele>
        <time>2019-07-17T11:46:41Z</time>
      </trkpt>
      <trkpt lat="43.1997690" lon="-1.0071460">
        <ele>477.6</ele>
        <time>2019-07-17T11:46:47Z</time>
      </trkpt>
      <trkpt lat="43.1997400" lon="-1.0070100">
        <ele>477.8</ele>
        <time>2019-07-17T11:46:54Z</time>
      </trkpt>
      <trkpt lat="43.1997270" lon="-1.0068760">
        <ele>478.2</ele>
        <time>2019-07-17T11:47:00Z</time>
      </trkpt>
      <trkpt lat="43.1997250" lon="-1.0067400">
        <ele>478.8</ele>
        <time>2019-07-17T11:47:06Z</time>
      </trkpt>
      <trkpt lat="43.1997230" lon="-1.0066110">
        <ele>479.5</ele>
        <time>2019-07-17T11:47:12Z</time>
      </trkpt>
      <trkpt lat="43.1997160" lon="-1.0064820">
        <ele>480.2</ele>
        <time>2019-07-17T11:47:18Z</time>
      </trkpt>
      <trkpt lat="43.1997120" lon="-1.0063490">
        <ele>481.0</ele>
        <time>2019-07-17T11:47:24Z</time>
      </trkpt>
      <trkpt lat="43.1997160" lon="-1.0062120">
        <ele>481.8</ele>
        <time>2019-07-17T11:47:30Z</time>
      </trkpt>
      <trkpt lat="43.1997210" lon="-1.0060830">
        <ele>482.5</ele>
        <time>2019-07-17T11:47:36Z</time>
      </trkpt>
      <trkpt lat="43.1997280" lon="-1.0059490">
        <ele>483.3</ele>
        <time>2019-07-17T11:47:42Z</time>
      </trkpt>
      <trkpt lat="43.1997360" lon="-1.0058180">
        <ele>483.9</ele>
        <time>2019-07-17T11:47:48Z</time>
      </trkpt>
      <trkpt lat="43.1997230" lon="-1.0056830">
        <ele>484.5</ele>
        <time>2019-07-17T11:47:54Z</time>
      </trkpt>
      <trkpt lat="43.1997270" lon="-1.0055520">
        <ele>485.1</ele>
        <time>2019-07-17T11:48:00Z</time>
      </trkpt>
      <trkpt lat="43.1997040" lon="-1.0054090">
        <ele>485.7</ele>
        <time>2019-07-17T11:48:06Z</time>
      </trkpt>
      <trkpt lat="43.1996820" lon="-1.0052790">
        <ele>486.2</ele>
        <time>2019-07-17T11:48:12Z</time>
      </trkpt>
      <trkpt lat="43.1996590" lon="-1.0051430">
        <ele>486.8</ele>
        <time>2019-07-17T11:48:18Z</time>
      </trkpt>
      <trkpt lat="43.1996270" lon="-1.0050180">
        <ele>487.4</ele>
        <time>2019-07-17T11:48:24Z</time>
      </trkpt>
      <trkpt lat="43.1996040" lon="-1.0048950">
        <ele>488.0</ele>
        <time>2019-07-17T11:48:30Z</time>
      </trkpt>
      <trkpt lat="43.1995840" lon="-1.0047630">
        <ele>488.9</ele>
        <time>2019-07-17T11:48:36Z</time>
      </trkpt>
      <trkpt lat="43.1995640" lon="-1.0046280">
        <ele>489.9</ele>
        <time>2019-07-17T11:48:42Z</time>
      </trkpt>
      <trkpt lat="43.1995470" lon="-1.0044900">
        <ele>490.8</ele>
        <time>2019-07-17T11:48:48Z</time>
      </trkpt>
      <trkpt lat="43.1995210" lon="-1.0043640">
        <ele>491.6</ele>
        <time>2019-07-17T11:48:54Z</time>
      </trkpt>
      <trkpt lat="43.1994910" lon="-1.0042440">
        <ele>492.3</ele>
        <time>2019-07-17T11:49:00Z</time>
      </trkpt>
      <trkpt lat="43.1994680" lon="-1.0041210">
        <ele>492.8</ele>
        <time>2019-07-17T11:49:06Z</time>
      </trkpt>
      <trkpt lat="43.1994510" lon="-1.0039740">
        <ele>493.3</ele>
        <time>2019-07-17T11:49:13Z</time>
      </trkpt>
      <trkpt lat="43.1994540" lon="-1.0038330">
        <ele>493.3</ele>
        <time>2019-07-17T11:49:19Z</time>
      </trkpt>
      <trkpt lat="43.1994510" lon="-1.0036890">
        <ele>493.3</ele>
        <time>2019-07-17T11:49:25Z</time>
      </trkpt>
      <trkpt lat="43.1994520" lon="-1.0035760">
        <ele>493.4</ele>
        <time>2019-07-17T11:49:35Z</time>
      </trkpt>
      <trkpt lat="43.1994100" lon="-1.0036220">
        <ele>493.4</ele>
        <time>2019-07-17T11:49:57Z</time>
      </trkpt>
      <trkpt lat="43.1994310" lon="-1.0035870">
        <ele>493.4</ele>
        <time>2019-07-17T11:50:12Z</time>
      </trkpt>
      <trkpt lat="43.1994110" lon="-1.0035800">
        <ele>493.4</ele>
        <time>2019-07-17T11:50:33Z</time>
      </trkpt>
      <trkpt lat="43.1994640" lon="-1.0034740">
        <ele>493.4</ele>
        <time>2019-07-17T11:50:44Z</time>
      </trkpt>
      <trkpt lat="43.1994180" lon="-1.0036120">
        <ele>493.4</ele>
        <time>2019-07-17T11:50:51Z</time>
      </trkpt>
      <trkpt lat="43.1993480" lon="-1.0037170">
        <ele>493.4</ele>
        <time>2019-07-17T11:50:57Z</time>
      </trkpt>
      <trkpt lat="43.1992670" lon="-1.0037720">
        <ele>493.4</ele>
        <time>2019-07-17T11:51:01Z</time>
      </trkpt>
      <trkpt lat="43.1993440" lon="-1.0037210">
        <ele>493.4</ele>
        <time>2019-07-17T11:51:08Z</time>
      </trkpt>
      <trkpt lat="43.1993940" lon="-1.0037170">
        <ele>493.4</ele>
        <time>2019-07-17T11:51:18Z</time>
      </trkpt>
      <trkpt lat="43.1994250" lon="-1.0036170">
        <ele>493.4</ele>
        <time>2019-07-17T11:52:41Z</time>
      </trkpt>
      <trkpt lat="43.1994490" lon="-1.0035920">
        <ele>493.4</ele>
        <time>2019-07-17T11:52:47Z</time>
      </trkpt>
      <trkpt lat="43.1995010" lon="-1.0034730">
        <ele>493.4</ele>
        <time>2019-07-17T11:53:04Z</time>
      </trkpt>
      <trkpt lat="43.1995290" lon="-1.0033260">
        <ele>493.4</ele>
        <time>2019-07-17T11:53:09Z</time>
      </trkpt>
      <trkpt lat="43.1995670" lon="-1.0031990">
        <ele>493.4</ele>
        <time>2019-07-17T11:53:13Z</time>
      </trkpt>
      <trkpt lat="43.1996220" lon="-1.0030710">
        <ele>493.4</ele>
        <time>2019-07-17T11:53:17Z</time>
      </trkpt>
      <trkpt lat="43.1996810" lon="-1.0029520">
        <ele>493.5</ele>
        <time>2019-07-17T11:53:21Z</time>
      </trkpt>
      <trkpt lat="43.1997320" lon="-1.0028220">
        <ele>493.5</ele>
        <time>2019-07-17T11:53:25Z</time>
      </trkpt>
      <trkpt lat="43.1997840" lon="-1.0026980">
        <ele>493.5</ele>
        <time>2019-07-17T11:53:29Z</time>
      </trkpt>
      <trkpt lat="43.1998150" lon="-1.0025810">
        <ele>493.5</ele>
        <time>2019-07-17T11:53:32Z</time>
      </trkpt>
      <trkpt lat="43.1998310" lon="-1.0024510">
        <ele>493.5</ele>
        <time>2019-07-17T11:53:35Z</time>
      </trkpt>
      <trkpt lat="43.1998360" lon="-1.0023170">
        <ele>493.5</ele>
        <time>2019-07-17T11:53:38Z</time>
      </trkpt>
      <trkpt lat="43.1998360" lon="-1.0021570">
        <ele>493.5</ele>
        <time>2019-07-17T11:53:42Z</time>
      </trkpt>
      <trkpt lat="43.1998160" lon="-1.0020240">
        <ele>493.5</ele>
        <time>2019-07-17T11:53:46Z</time>
      </trkpt>
      <trkpt lat="43.1998070" lon="-1.0018980">
        <ele>493.5</ele>
        <time>2019-07-17T11:53:50Z</time>
      </trkpt>
      <trkpt lat="43.1997840" lon="-1.0017480">
        <ele>493.5</ele>
        <time>2019-07-17T11:53:55Z</time>
      </trkpt>
      <trkpt lat="43.1997630" lon="-1.0015990">
        <ele>493.5</ele>
        <time>2019-07-17T11:54:00Z</time>
      </trkpt>
      <trkpt lat="43.1997590" lon="-1.0014460">
        <ele>493.5</ele>
        <time>2019-07-17T11:54:05Z</time>
      </trkpt>
      <trkpt lat="43.1997590" lon="-1.0013230">
        <ele>493.5</ele>
        <time>2019-07-17T11:54:09Z</time>
      </trkpt>
      <trkpt lat="43.1997590" lon="-1.0011770">
        <ele>493.5</ele>
        <time>2019-07-17T11:54:14Z</time>
      </trkpt>
      <trkpt lat="43.1997560" lon="-1.0010490">
        <ele>493.4</ele>
        <time>2019-07-17T11:54:18Z</time>
      </trkpt>
      <trkpt lat="43.1997770" lon="-1.0009030">
        <ele>493.3</ele>
        <time>2019-07-17T11:54:23Z</time>
      </trkpt>
      <trkpt lat="43.1998120" lon="-1.0007640">
        <ele>493.1</ele>
        <time>2019-07-17T11:54:28Z</time>
      </trkpt>
      <trkpt lat="43.1998680" lon="-1.0006440">
        <ele>492.8</ele>
        <time>2019-07-17T11:54:33Z</time>
      </trkpt>
      <trkpt lat="43.1999360" lon="-1.0005580">
        <ele>492.5</ele>
        <time>2019-07-17T11:54:37Z</time>
      </trkpt>
      <trkpt lat="43.2000140" lon="-1.0004700">
        <ele>492.1</ele>
        <time>2019-07-17T11:54:41Z</time>
      </trkpt>
      <trkpt lat="43.2001070" lon="-1.0003890">
        <ele>491.9</ele>
        <time>2019-07-17T11:54:46Z</time>
      </trkpt>
      <trkpt lat="43.2002080" lon="-1.0003490">
        <ele>491.7</ele>
        <time>2019-07-17T11:54:50Z</time>
      </trkpt>
      <trkpt lat="43.2003010" lon="-1.0003150">
        <ele>491.7</ele>
        <time>2019-07-17T11:54:53Z</time>
      </trkpt>
      <trkpt lat="43.2003980" lon="-1.0003340">
        <ele>491.7</ele>
        <time>2019-07-17T11:54:57Z</time>
      </trkpt>
      <trkpt lat="43.2005120" lon="-1.0003530">
        <ele>491.7</ele>
        <time>2019-07-17T11:55:01Z</time>
      </trkpt>
      <trkpt lat="43.2006420" lon="-1.0003600">
        <ele>491.7</ele>
        <time>2019-07-17T11:55:04Z</time>
      </trkpt>
      <trkpt lat="43.2007550" lon="-1.0003820">
        <ele>491.7</ele>
        <time>2019-07-17T11:55:07Z</time>
      </trkpt>
      <trkpt lat="43.2008690" lon="-1.0003950">
        <ele>491.6</ele>
        <time>2019-07-17T11:55:10Z</time>
      </trkpt>
      <trkpt lat="43.2009590" lon="-1.0004200">
        <ele>491.5</ele>
        <time>2019-07-17T11:55:12Z</time>
      </trkpt>
      <trkpt lat="43.2010540" lon="-1.0004490">
        <ele>491.3</ele>
        <time>2019-07-17T11:55:14Z</time>
      </trkpt>
      <trkpt lat="43.2011470" lon="-1.0004660">
        <ele>491.0</ele>
        <time>2019-07-17T11:55:16Z</time>
      </trkpt>
      <trkpt lat="43.2012400" lon="-1.0004950">
        <ele>490.5</ele>
        <time>2019-07-17T11:55:18Z</time>
      </trkpt>
      <trkpt lat="43.2013390" lon="-1.0005220">
        <ele>490.1</ele>
        <time>2019-07-17T11:55:20Z</time>
      </trkpt>
      <trkpt lat="43.2014460" lon="-1.0005340">
        <ele>489.8</ele>
        <time>2019-07-17T11:55:22Z</time>
      </trkpt>
      <trkpt lat="43.2015430" lon="-1.0005550">
        <ele>489.6</ele>
        <time>2019-07-17T11:55:24Z</time>
      </trkpt>
      <trkpt lat="43.2016400" lon="-1.0005780">
        <ele>489.6</ele>
        <time>2019-07-17T11:55:26Z</time>
      </trkpt>
      <trkpt lat="43.2017440" lon="-1.0005930">
        <ele>489.6</ele>
        <time>2019-07-17T11:55:28Z</time>
      </trkpt>
      <trkpt lat="43.2018370" lon="-1.0006010">
        <ele>489.6</ele>
        <time>2019-07-17T11:55:30Z</time>
      </trkpt>
      <trkpt lat="43.2019350" lon="-1.0006030">
        <ele>489.6</ele>
        <time>2019-07-17T11:55:32Z</time>
      </trkpt>
      <trkpt lat="43.2020340" lon="-1.0005970">
        <ele>489.4</ele>
        <time>2019-07-17T11:55:34Z</time>
      </trkpt>
      <trkpt lat="43.2021380" lon="-1.0005760">
        <ele>489.2</ele>
        <time>2019-07-17T11:55:36Z</time>
      </trkpt>
      <trkpt lat="43.2022470" lon="-1.0005380">
        <ele>489.0</ele>
        <time>2019-07-17T11:55:38Z</time>
      </trkpt>
      <trkpt lat="43.2023700" lon="-1.0004760">
        <ele>488.8</ele>
        <time>2019-07-17T11:55:40Z</time>
      </trkpt>
      <trkpt lat="43.2024930" lon="-1.0003890">
        <ele>488.5</ele>
        <time>2019-07-17T11:55:42Z</time>
      </trkpt>
      <trkpt lat="43.2026170" lon="-1.0002650">
        <ele>488.2</ele>
        <time>2019-07-17T11:55:44Z</time>
      </trkpt>
      <trkpt lat="43.2027300" lon="-1.0001100">
        <ele>487.9</ele>
        <time>2019-07-17T11:55:46Z</time>
      </trkpt>
      <trkpt lat="43.2028340" lon="-0.9999320">
        <ele>487.4</ele>
        <time>2019-07-17T11:55:48Z</time>
      </trkpt>
      <trkpt lat="43.2029300" lon="-0.9997490">
        <ele>486.9</ele>
        <time>2019-07-17T11:55:50Z</time>
      </trkpt>
      <trkpt lat="43.2030220" lon="-0.9995750">
        <ele>486.6</ele>
        <time>2019-07-17T11:55:52Z</time>
      </trkpt>
      <trkpt lat="43.2031120" lon="-0.9993860">
        <ele>486.2</ele>
        <time>2019-07-17T11:55:54Z</time>
      </trkpt>
      <trkpt lat="43.2032040" lon="-0.9991960">
        <ele>485.9</ele>
        <time>2019-07-17T11:55:56Z</time>
      </trkpt>
      <trkpt lat="43.2032970" lon="-0.9990080">
        <ele>485.6</ele>
        <time>2019-07-17T11:55:58Z</time>
      </trkpt>
      <trkpt lat="43.2034090" lon="-0.9988310">
        <ele>485.3</ele>
        <time>2019-07-17T11:56:00Z</time>
      </trkpt>
      <trkpt lat="43.2035360" lon="-0.9986900">
        <ele>484.9</ele>
        <time>2019-07-17T11:56:02Z</time>
      </trkpt>
      <trkpt lat="43.2036690" lon="-0.9985910">
        <ele>484.5</ele>
        <time>2019-07-17T11:56:04Z</time>
      </trkpt>
      <trkpt lat="43.2038060" lon="-0.9985190">
        <ele>484.2</ele>
        <time>2019-07-17T11:56:06Z</time>
      </trkpt>
      <trkpt lat="43.2039340" lon="-0.9984520">
        <ele>483.9</ele>
        <time>2019-07-17T11:56:08Z</time>
      </trkpt>
      <trkpt lat="43.2040420" lon="-0.9983810">
        <ele>483.6</ele>
        <time>2019-07-17T11:56:10Z</time>
      </trkpt>
      <trkpt lat="43.2041650" lon="-0.9982890">
        <ele>483.4</ele>
        <time>2019-07-17T11:56:12Z</time>
      </trkpt>
      <trkpt lat="43.2042580" lon="-0.9981760">
        <ele>483.1</ele>
        <time>2019-07-17T11:56:14Z</time>
      </trkpt>
      <trkpt lat="43.2043500" lon="-0.9980360">
        <ele>482.9</ele>
        <time>2019-07-17T11:56:16Z</time>
      </trkpt>
      <trkpt lat="43.2044470" lon="-0.9978700">
        <ele>482.5</ele>
        <time>2019-07-17T11:56:18Z</time>
      </trkpt>
      <trkpt lat="43.2045280" lon="-0.9977150">
        <ele>482.2</ele>
        <time>2019-07-17T11:56:20Z</time>
      </trkpt>
      <trkpt lat="43.2046220" lon="-0.9975600">
        <ele>481.5</ele>
        <time>2019-07-17T11:56:22Z</time>
      </trkpt>
      <trkpt lat="43.2047020" lon="-0.9974110">
        <ele>480.6</ele>
        <time>2019-07-17T11:56:24Z</time>
      </trkpt>
      <trkpt lat="43.2047830" lon="-0.9972910">
        <ele>479.9</ele>
        <time>2019-07-17T11:56:26Z</time>
      </trkpt>
      <trkpt lat="43.2048870" lon="-0.9971980">
        <ele>479.0</ele>
        <time>2019-07-17T11:56:28Z</time>
      </trkpt>
      <trkpt lat="43.2050170" lon="-0.9971290">
        <ele>477.9</ele>
        <time>2019-07-17T11:56:30Z</time>
      </trkpt>
      <trkpt lat="43.2051640" lon="-0.9970680">
        <ele>476.6</ele>
        <time>2019-07-17T11:56:32Z</time>
      </trkpt>
      <trkpt lat="43.2053040" lon="-0.9970120">
        <ele>475.3</ele>
        <time>2019-07-17T11:56:34Z</time>
      </trkpt>
      <trkpt lat="43.2054540" lon="-0.9969480">
        <ele>474.2</ele>
        <time>2019-07-17T11:56:36Z</time>
      </trkpt>
      <trkpt lat="43.2055960" lon="-0.9969060">
        <ele>472.7</ele>
        <time>2019-07-17T11:56:38Z</time>
      </trkpt>
      <trkpt lat="43.2057290" lon="-0.9968590">
        <ele>471.4</ele>
        <time>2019-07-17T11:56:40Z</time>
      </trkpt>
      <trkpt lat="43.2058630" lon="-0.9967890">
        <ele>469.8</ele>
        <time>2019-07-17T11:56:42Z</time>
      </trkpt>
      <trkpt lat="43.2059930" lon="-0.9966950">
        <ele>468.5</ele>
        <time>2019-07-17T11:56:44Z</time>
      </trkpt>
      <trkpt lat="43.2060930" lon="-0.9965760">
        <ele>467.4</ele>
        <time>2019-07-17T11:56:46Z</time>
      </trkpt>
      <trkpt lat="43.2061710" lon="-0.9964240">
        <ele>466.3</ele>
        <time>2019-07-17T11:56:48Z</time>
      </trkpt>
      <trkpt lat="43.2062360" lon="-0.9962580">
        <ele>465.2</ele>
        <time>2019-07-17T11:56:50Z</time>
      </trkpt>
      <trkpt lat="43.2062910" lon="-0.9960870">
        <ele>464.1</ele>
        <time>2019-07-17T11:56:52Z</time>
      </trkpt>
      <trkpt lat="43.2063410" lon="-0.9959210">
        <ele>462.9</ele>
        <time>2019-07-17T11:56:54Z</time>
      </trkpt>
      <trkpt lat="43.2063860" lon="-0.9957390">
        <ele>461.9</ele>
        <time>2019-07-17T11:56:56Z</time>
      </trkpt>
      <trkpt lat="43.2064200" lon="-0.9955510">
        <ele>460.5</ele>
        <time>2019-07-17T11:56:58Z</time>
      </trkpt>
      <trkpt lat="43.2064530" lon="-0.9953490">
        <ele>459.1</ele>
        <time>2019-07-17T11:57:00Z</time>
      </trkpt>
      <trkpt lat="43.2064940" lon="-0.9951540">
        <ele>457.9</ele>
        <time>2019-07-17T11:57:02Z</time>
      </trkpt>
      <trkpt lat="43.2065580" lon="-0.9949620">
        <ele>456.6</ele>
        <time>2019-07-17T11:57:04Z</time>
      </trkpt>
      <trkpt lat="43.2066410" lon="-0.9947750">
        <ele>455.2</ele>
        <time>2019-07-17T11:57:06Z</time>
      </trkpt>
      <trkpt lat="43.2067290" lon="-0.9946190">
        <ele>453.9</ele>
        <time>2019-07-17T11:57:08Z</time>
      </trkpt>
      <trkpt lat="43.2068210" lon="-0.9944790">
        <ele>452.6</ele>
        <time>2019-07-17T11:57:10Z</time>
      </trkpt>
      <trkpt lat="43.2069020" lon="-0.9943400">
        <ele>451.2</ele>
        <time>2019-07-17T11:57:12Z</time>
      </trkpt>
      <trkpt lat="43.2069890" lon="-0.9941790">
        <ele>449.8</ele>
        <time>2019-07-17T11:57:14Z</time>
      </trkpt>
      <trkpt lat="43.2070580" lon="-0.9939910">
        <ele>448.7</ele>
        <time>2019-07-17T11:57:16Z</time>
      </trkpt>
      <trkpt lat="43.2070980" lon="-0.9937880">
        <ele>447.2</ele>
        <time>2019-07-17T11:57:18Z</time>
      </trkpt>
      <trkpt lat="43.2071190" lon="-0.9935790">
        <ele>445.7</ele>
        <time>2019-07-17T11:57:20Z</time>
      </trkpt>
      <trkpt lat="43.2071220" lon="-0.9933770">
        <ele>444.3</ele>
        <time>2019-07-17T11:57:22Z</time>
      </trkpt>
      <trkpt lat="43.2071030" lon="-0.9931810">
        <ele>443.4</ele>
        <time>2019-07-17T11:57:24Z</time>
      </trkpt>
      <trkpt lat="43.2070640" lon="-0.9929810">
        <ele>442.6</ele>
        <time>2019-07-17T11:57:26Z</time>
      </trkpt>
      <trkpt lat="43.2070190" lon="-0.9927910">
        <ele>442.0</ele>
        <time>2019-07-17T11:57:28Z</time>
      </trkpt>
      <trkpt lat="43.2069780" lon="-0.9925900">
        <ele>441.5</ele>
        <time>2019-07-17T11:57:30Z</time>
      </trkpt>
      <trkpt lat="43.2069530" lon="-0.9923810">
        <ele>441.1</ele>
        <time>2019-07-17T11:57:32Z</time>
      </trkpt>
      <trkpt lat="43.2069530" lon="-0.9921850">
        <ele>440.9</ele>
        <time>2019-07-17T11:57:34Z</time>
      </trkpt>
      <trkpt lat="43.2069670" lon="-0.9919900">
        <ele>440.8</ele>
        <time>2019-07-17T11:57:36Z</time>
      </trkpt>
      <trkpt lat="43.2070000" lon="-0.9917950">
        <ele>440.4</ele>
        <time>2019-07-17T11:57:38Z</time>
      </trkpt>
      <trkpt lat="43.2070620" lon="-0.9916010">
        <ele>440.0</ele>
        <time>2019-07-17T11:57:40Z</time>
      </trkpt>
      <trkpt lat="43.2071400" lon="-0.9914140">
        <ele>439.6</ele>
        <time>2019-07-17T11:57:42Z</time>
      </trkpt>
      <trkpt lat="43.2072350" lon="-0.9912380">
        <ele>439.2</ele>
        <time>2019-07-17T11:57:44Z</time>
      </trkpt>
      <trkpt lat="43.2073410" lon="-0.9910710">
        <ele>438.7</ele>
        <time>2019-07-17T11:57:46Z</time>
      </trkpt>
      <trkpt lat="43.2074320" lon="-0.9909170">
        <ele>438.2</ele>
        <time>2019-07-17T11:57:48Z</time>
      </trkpt>
      <trkpt lat="43.2075210" lon="-0.9907590">
        <ele>437.8</ele>
        <time>2019-07-17T11:57:50Z</time>
      </trkpt>
      <trkpt lat="43.2076150" lon="-0.9905810">
        <ele>437.5</ele>
        <time>2019-07-17T11:57:52Z</time>
      </trkpt>
      <trkpt lat="43.2077110" lon="-0.9903780">
        <ele>437.3</ele>
        <time>2019-07-17T11:57:54Z</time>
      </trkpt>
      <trkpt lat="43.2077880" lon="-0.9901650">
        <ele>437.3</ele>
        <time>2019-07-17T11:57:56Z</time>
      </trkpt>
      <trkpt lat="43.2078340" lon="-0.9899540">
        <ele>437.2</ele>
        <time>2019-07-17T11:57:58Z</time>
      </trkpt>
      <trkpt lat="43.2078570" lon="-0.9897650">
        <ele>437.1</ele>
        <time>2019-07-17T11:58:00Z</time>
      </trkpt>
      <trkpt lat="43.2078680" lon="-0.9895860">
        <ele>436.8</ele>
        <time>2019-07-17T11:58:02Z</time>
      </trkpt>
      <trkpt lat="43.2078730" lon="-0.9894130">
        <ele>436.2</ele>
        <time>2019-07-17T11:58:04Z</time>
      </trkpt>
      <trkpt lat="43.2078730" lon="-0.9892370">
        <ele>435.7</ele>
        <time>2019-07-17T11:58:06Z</time>
      </trkpt>
      <trkpt lat="43.2078610" lon="-0.9890580">
        <ele>435.4</ele>
        <time>2019-07-17T11:58:08Z</time>
      </trkpt>
      <trkpt lat="43.2078470" lon="-0.9888830">
        <ele>435.1</ele>
        <time>2019-07-17T11:58:10Z</time>
      </trkpt>
      <trkpt lat="43.2078300" lon="-0.9887130">
        <ele>434.8</ele>
        <time>2019-07-17T11:58:12Z</time>
      </trkpt>
      <trkpt lat="43.2078100" lon="-0.9885470">
        <ele>434.6</ele>
        <time>2019-07-17T11:58:14Z</time>
      </trkpt>
      <trkpt lat="43.2077840" lon="-0.9883810">
        <ele>434.5</ele>
        <time>2019-07-17T11:58:16Z</time>
      </trkpt>
      <trkpt lat="43.2077580" lon="-0.9882200">
        <ele>434.3</ele>
        <time>2019-07-17T11:58:18Z</time>
      </trkpt>
      <trkpt lat="43.2077330" lon="-0.9880580">
        <ele>434.2</ele>
        <time>2019-07-17T11:58:20Z</time>
      </trkpt>
      <trkpt lat="43.2077120" lon="-0.9878930">
        <ele>434.1</ele>
        <time>2019-07-17T11:58:22Z</time>
      </trkpt>
      <trkpt lat="43.2076930" lon="-0.9877290">
        <ele>434.0</ele>
        <time>2019-07-17T11:58:24Z</time>
      </trkpt>
      <trkpt lat="43.2076740" lon="-0.9875550">
        <ele>433.9</ele>
        <time>2019-07-17T11:58:26Z</time>
      </trkpt>
      <trkpt lat="43.2076580" lon="-0.9873770">
        <ele>433.8</ele>
        <time>2019-07-17T11:58:28Z</time>
      </trkpt>
      <trkpt lat="43.2076430" lon="-0.9872070">
        <ele>433.6</ele>
        <time>2019-07-17T11:58:30Z</time>
      </trkpt>
      <trkpt lat="43.2076280" lon="-0.9870400">
        <ele>433.5</ele>
        <time>2019-07-17T11:58:32Z</time>
      </trkpt>
      <trkpt lat="43.2076110" lon="-0.9868700">
        <ele>433.4</ele>
        <time>2019-07-17T11:58:34Z</time>
      </trkpt>
      <trkpt lat="43.2076030" lon="-0.9866930">
        <ele>433.4</ele>
        <time>2019-07-17T11:58:36Z</time>
      </trkpt>
      <trkpt lat="43.2076050" lon="-0.9865130">
        <ele>433.3</ele>
        <time>2019-07-17T11:58:38Z</time>
      </trkpt>
      <trkpt lat="43.2076180" lon="-0.9863260">
        <ele>433.2</ele>
        <time>2019-07-17T11:58:40Z</time>
      </trkpt>
      <trkpt lat="43.2076420" lon="-0.9861410">
        <ele>433.2</ele>
        <time>2019-07-17T11:58:42Z</time>
      </trkpt>
      <trkpt lat="43.2076720" lon="-0.9859500">
        <ele>433.0</ele>
        <time>2019-07-17T11:58:44Z</time>
      </trkpt>
      <trkpt lat="43.2077020" lon="-0.9857650">
        <ele>432.7</ele>
        <time>2019-07-17T11:58:46Z</time>
      </trkpt>
      <trkpt lat="43.2077500" lon="-0.9855920">
        <ele>432.4</ele>
        <time>2019-07-17T11:58:48Z</time>
      </trkpt>
      <trkpt lat="43.2078080" lon="-0.9854350">
        <ele>432.2</ele>
        <time>2019-07-17T11:58:50Z</time>
      </trkpt>
      <trkpt lat="43.2078760" lon="-0.9852930">
        <ele>431.8</ele>
        <time>2019-07-17T11:58:52Z</time>
      </trkpt>
      <trkpt lat="43.2079510" lon="-0.9851540">
        <ele>431.3</ele>
        <time>2019-07-17T11:58:54Z</time>
      </trkpt>
      <trkpt lat="43.2080290" lon="-0.9850110">
        <ele>430.7</ele>
        <time>2019-07-17T11:58:56Z</time>
      </trkpt>
      <trkpt lat="43.2081130" lon="-0.9848660">
        <ele>430.1</ele>
        <time>2019-07-17T11:58:58Z</time>
      </trkpt>
      <trkpt lat="43.2082090" lon="-0.9847440">
        <ele>429.5</ele>
        <time>2019-07-17T11:59:00Z</time>
      </trkpt>
      <trkpt lat="43.2083120" lon="-0.9846520">
        <ele>429.0</ele>
        <time>2019-07-17T11:59:02Z</time>
      </trkpt>
      <trkpt lat="43.2084320" lon="-0.9845790">
        <ele>428.4</ele>
        <time>2019-07-17T11:59:04Z</time>
      </trkpt>
      <trkpt lat="43.2085630" lon="-0.9845200">
        <ele>427.9</ele>
        <time>2019-07-17T11:59:06Z</time>
      </trkpt>
      <trkpt lat="43.2086810" lon="-0.9844730">
        <ele>427.4</ele>
        <time>2019-07-17T11:59:08Z</time>
      </trkpt>
      <trkpt lat="43.2087910" lon="-0.9844070">
        <ele>426.9</ele>
        <time>2019-07-17T11:59:10Z</time>
      </trkpt>
      <trkpt lat="43.2088920" lon="-0.9843040">
        <ele>426.4</ele>
        <time>2019-07-17T11:59:12Z</time>
      </trkpt>
      <trkpt lat="43.2089600" lon="-0.9841810">
        <ele>425.8</ele>
        <time>2019-07-17T11:59:14Z</time>
      </trkpt>
      <trkpt lat="43.2090090" lon="-0.9840390">
        <ele>425.0</ele>
        <time>2019-07-17T11:59:16Z</time>
      </trkpt>
      <trkpt lat="43.2090320" lon="-0.9838980">
        <ele>424.2</ele>
        <time>2019-07-17T11:59:18Z</time>
      </trkpt>
      <trkpt lat="43.2090430" lon="-0.9837480">
        <ele>423.3</ele>
        <time>2019-07-17T11:59:20Z</time>
      </trkpt>
      <trkpt lat="43.2090550" lon="-0.9835820">
        <ele>422.1</ele>
        <time>2019-07-17T11:59:22Z</time>
      </trkpt>
      <trkpt lat="43.2090770" lon="-0.9834000">
        <ele>421.0</ele>
        <time>2019-07-17T11:59:24Z</time>
      </trkpt>
      <trkpt lat="43.2091210" lon="-0.9832390">
        <ele>419.8</ele>
        <time>2019-07-17T11:59:26Z</time>
      </trkpt>
      <trkpt lat="43.2091900" lon="-0.9831160">
        <ele>418.5</ele>
        <time>2019-07-17T11:59:28Z</time>
      </trkpt>
      <trkpt lat="43.2092700" lon="-0.9830250">
        <ele>417.4</ele>
        <time>2019-07-17T11:59:30Z</time>
      </trkpt>
      <trkpt lat="43.2093640" lon="-0.9829510">
        <ele>416.2</ele>
        <time>2019-07-17T11:59:32Z</time>
      </trkpt>
      <trkpt lat="43.2094580" lon="-0.9828670">
        <ele>415.1</ele>
        <time>2019-07-17T11:59:34Z</time>
      </trkpt>
      <trkpt lat="43.2095430" lon="-0.9827600">
        <ele>413.8</ele>
        <time>2019-07-17T11:59:36Z</time>
      </trkpt>
      <trkpt lat="43.2096100" lon="-0.9826060">
        <ele>412.6</ele>
        <time>2019-07-17T11:59:38Z</time>
      </trkpt>
      <trkpt lat="43.2096500" lon="-0.9824230">
        <ele>411.4</ele>
        <time>2019-07-17T11:59:40Z</time>
      </trkpt>
      <trkpt lat="43.2096450" lon="-0.9822390">
        <ele>410.3</ele>
        <time>2019-07-17T11:59:42Z</time>
      </trkpt>
      <trkpt lat="43.2095990" lon="-0.9820640">
        <ele>409.1</ele>
        <time>2019-07-17T11:59:44Z</time>
      </trkpt>
      <trkpt lat="43.2095470" lon="-0.9818730">
        <ele>407.7</ele>
        <time>2019-07-17T11:59:46Z</time>
      </trkpt>
      <trkpt lat="43.2095140" lon="-0.9816670">
        <ele>406.2</ele>
        <time>2019-07-17T11:59:48Z</time>
      </trkpt>
      <trkpt lat="43.2094960" lon="-0.9814680">
        <ele>404.9</ele>
        <time>2019-07-17T11:59:50Z</time>
      </trkpt>
      <trkpt lat="43.2094900" lon="-0.9812800">
        <ele>403.6</ele>
        <time>2019-07-17T11:59:52Z</time>
      </trkpt>
      <trkpt lat="43.2095020" lon="-0.9810890">
        <ele>402.2</ele>
        <time>2019-07-17T11:59:54Z</time>
      </trkpt>
      <trkpt lat="43.2095140" lon="-0.9808670">
        <ele>400.9</ele>
        <time>2019-07-17T11:59:56Z</time>
      </trkpt>
      <trkpt lat="43.2095190" lon="-0.9806620">
        <ele>399.6</ele>
        <time>2019-07-17T11:59:58Z</time>
      </trkpt>
      <trkpt lat="43.2094990" lon="-0.9804620">
        <ele>398.5</ele>
        <time>2019-07-17T12:00:00Z</time>
      </trkpt>
      <trkpt lat="43.2094500" lon="-0.9802600">
        <ele>397.4</ele>
        <time>2019-07-17T12:00:02Z</time>
      </trkpt>
      <trkpt lat="43.2093820" lon="-0.9800580">
        <ele>396.6</ele>
        <time>2019-07-17T12:00:04Z</time>
      </trkpt>
      <trkpt lat="43.2093030" lon="-0.9798620">
        <ele>395.7</ele>
        <time>2019-07-17T12:00:06Z</time>
      </trkpt>
      <trkpt lat="43.2092330" lon="-0.9796690">
        <ele>394.9</ele>
        <time>2019-07-17T12:00:08Z</time>
      </trkpt>
      <trkpt lat="43.2091750" lon="-0.9794970">
        <ele>393.8</ele>
        <time>2019-07-17T12:00:10Z</time>
      </trkpt>
      <trkpt lat="43.2091100" lon="-0.9793130">
        <ele>392.3</ele>
        <time>2019-07-17T12:00:12Z</time>
      </trkpt>
      <trkpt lat="43.2090330" lon="-0.9791170">
        <ele>390.8</ele>
        <time>2019-07-17T12:00:14Z</time>
      </trkpt>
      <trkpt lat="43.2089550" lon="-0.9789290">
        <ele>389.3</ele>
        <time>2019-07-17T12:00:16Z</time>
      </trkpt>
      <trkpt lat="43.2088710" lon="-0.9787590">
        <ele>387.8</ele>
        <time>2019-07-17T12:00:18Z</time>
      </trkpt>
      <trkpt lat="43.2087640" lon="-0.9785830">
        <ele>386.2</ele>
        <time>2019-07-17T12:00:20Z</time>
      </trkpt>
      <trkpt lat="43.2086460" lon="-0.9783960">
        <ele>384.4</ele>
        <time>2019-07-17T12:00:22Z</time>
      </trkpt>
      <trkpt lat="43.2085880" lon="-0.9782990">
        <ele>383.5</ele>
        <time>2019-07-17T12:00:23Z</time>
      </trkpt>
      <trkpt lat="43.2084850" lon="-0.9781070">
        <ele>382.1</ele>
        <time>2019-07-17T12:00:25Z</time>
      </trkpt>
      <trkpt lat="43.2083990" lon="-0.9779260">
        <ele>380.6</ele>
        <time>2019-07-17T12:00:27Z</time>
      </trkpt>
      <trkpt lat="43.2083240" lon="-0.9777350">
        <ele>379.1</ele>
        <time>2019-07-17T12:00:29Z</time>
      </trkpt>
      <trkpt lat="43.2082570" lon="-0.9775220">
        <ele>377.8</ele>
        <time>2019-07-17T12:00:31Z</time>
      </trkpt>
      <trkpt lat="43.2082110" lon="-0.9773140">
        <ele>376.5</ele>
        <time>2019-07-17T12:00:33Z</time>
      </trkpt>
      <trkpt lat="43.2081770" lon="-0.9771050">
        <ele>375.1</ele>
        <time>2019-07-17T12:00:35Z</time>
      </trkpt>
      <trkpt lat="43.2081530" lon="-0.9768780">
        <ele>373.5</ele>
        <time>2019-07-17T12:00:37Z</time>
      </trkpt>
      <trkpt lat="43.2081450" lon="-0.9767530">
        <ele>372.5</ele>
        <time>2019-07-17T12:00:38Z</time>
      </trkpt>
      <trkpt lat="43.2081440" lon="-0.9765260">
        <ele>370.9</ele>
        <time>2019-07-17T12:00:40Z</time>
      </trkpt>
      <trkpt lat="43.2081730" lon="-0.9763280">
        <ele>369.7</ele>
        <time>2019-07-17T12:00:42Z</time>
      </trkpt>
      <trkpt lat="43.2082310" lon="-0.9761500">
        <ele>368.4</ele>
        <time>2019-07-17T12:00:44Z</time>
      </trkpt>
      <trkpt lat="43.2083200" lon="-0.9760060">
        <ele>367.1</ele>
        <time>2019-07-17T12:00:46Z</time>
      </trkpt>
      <trkpt lat="43.2084230" lon="-0.9758820">
        <ele>365.7</ele>
        <time>2019-07-17T12:00:48Z</time>
      </trkpt>
      <trkpt lat="43.2085320" lon="-0.9757620">
        <ele>364.4</ele>
        <time>2019-07-17T12:00:50Z</time>
      </trkpt>
      <trkpt lat="43.2086460" lon="-0.9756430">
        <ele>363.1</ele>
        <time>2019-07-17T12:00:52Z</time>
      </trkpt>
      <trkpt lat="43.2087680" lon="-0.9755360">
        <ele>361.8</ele>
        <time>2019-07-17T12:00:54Z</time>
      </trkpt>
      <trkpt lat="43.2088950" lon="-0.9754410">
        <ele>360.5</ele>
        <time>2019-07-17T12:00:56Z</time>
      </trkpt>
      <trkpt lat="43.2090150" lon="-0.9753510">
        <ele>359.4</ele>
        <time>2019-07-17T12:00:58Z</time>
      </trkpt>
      <trkpt lat="43.2091100" lon="-0.9752430">
        <ele>358.4</ele>
        <time>2019-07-17T12:01:00Z</time>
      </trkpt>
      <trkpt lat="43.2091690" lon="-0.9751030">
        <ele>357.3</ele>
        <time>2019-07-17T12:01:02Z</time>
      </trkpt>
      <trkpt lat="43.2091870" lon="-0.9749210">
        <ele>356.0</ele>
        <time>2019-07-17T12:01:04Z</time>
      </trkpt>
      <trkpt lat="43.2091440" lon="-0.9747340">
        <ele>354.5</ele>
        <time>2019-07-17T12:01:06Z</time>
      </trkpt>
      <trkpt lat="43.2090570" lon="-0.9745770">
        <ele>353.1</ele>
        <time>2019-07-17T12:01:08Z</time>
      </trkpt>
      <trkpt lat="43.2089370" lon="-0.9744740">
        <ele>351.6</ele>
        <time>2019-07-17T12:01:10Z</time>
      </trkpt>
      <trkpt lat="43.2088070" lon="-0.9743730">
        <ele>350.2</ele>
        <time>2019-07-17T12:01:12Z</time>
      </trkpt>
      <trkpt lat="43.2086650" lon="-0.9742720">
        <ele>348.7</ele>
        <time>2019-07-17T12:01:14Z</time>
      </trkpt>
      <trkpt lat="43.2085040" lon="-0.9741700">
        <ele>347.1</ele>
        <time>2019-07-17T12:01:16Z</time>
      </trkpt>
      <trkpt lat="43.2083430" lon="-0.9740830">
        <ele>345.3</ele>
        <time>2019-07-17T12:01:18Z</time>
      </trkpt>
      <trkpt lat="43.2081780" lon="-0.9740160">
        <ele>343.3</ele>
        <time>2019-07-17T12:01:20Z</time>
      </trkpt>
      <trkpt lat="43.2080160" lon="-0.9739650">
        <ele>341.4</ele>
        <time>2019-07-17T12:01:22Z</time>
      </trkpt>
      <trkpt lat="43.2078580" lon="-0.9739160">
        <ele>339.5</ele>
        <time>2019-07-17T12:01:24Z</time>
      </trkpt>
      <trkpt lat="43.2077050" lon="-0.9738850">
        <ele>337.8</ele>
        <time>2019-07-17T12:01:26Z</time>
      </trkpt>
      <trkpt lat="43.2075430" lon="-0.9738770">
        <ele>335.8</ele>
        <time>2019-07-17T12:01:28Z</time>
      </trkpt>
      <trkpt lat="43.2073750" lon="-0.9738820">
        <ele>333.7</ele>
        <time>2019-07-17T12:01:30Z</time>
      </trkpt>
      <trkpt lat="43.2072830" lon="-0.9738840">
        <ele>332.7</ele>
        <time>2019-07-17T12:01:31Z</time>
      </trkpt>
      <trkpt lat="43.2071870" lon="-0.9738880">
        <ele>331.7</ele>
        <time>2019-07-17T12:01:32Z</time>
      </trkpt>
      <trkpt lat="43.2070890" lon="-0.9738980">
        <ele>330.7</ele>
        <time>2019-07-17T12:01:33Z</time>
      </trkpt>
      <trkpt lat="43.2069960" lon="-0.9739070">
        <ele>329.9</ele>
        <time>2019-07-17T12:01:34Z</time>
      </trkpt>
      <trkpt lat="43.2068270" lon="-0.9739190">
        <ele>328.3</ele>
        <time>2019-07-17T12:01:36Z</time>
      </trkpt>
      <trkpt lat="43.2066640" lon="-0.9739140">
        <ele>326.6</ele>
        <time>2019-07-17T12:01:38Z</time>
      </trkpt>
      <trkpt lat="43.2064930" lon="-0.9738560">
        <ele>325.0</ele>
        <time>2019-07-17T12:01:40Z</time>
      </trkpt>
      <trkpt lat="43.2064070" lon="-0.9738100">
        <ele>324.3</ele>
        <time>2019-07-17T12:01:41Z</time>
      </trkpt>
      <trkpt lat="43.2063240" lon="-0.9737530">
        <ele>323.7</ele>
        <time>2019-07-17T12:01:42Z</time>
      </trkpt>
      <trkpt lat="43.2062440" lon="-0.9736920">
        <ele>322.9</ele>
        <time>2019-07-17T12:01:43Z</time>
      </trkpt>
      <trkpt lat="43.2061040" lon="-0.9735790">
        <ele>321.7</ele>
        <time>2019-07-17T12:01:45Z</time>
      </trkpt>
      <trkpt lat="43.2059660" lon="-0.9734740">
        <ele>320.2</ele>
        <time>2019-07-17T12:01:47Z</time>
      </trkpt>
      <trkpt lat="43.2058210" lon="-0.9733830">
        <ele>319.0</ele>
        <time>2019-07-17T12:01:49Z</time>
      </trkpt>
      <trkpt lat="43.2056700" lon="-0.9733030">
        <ele>317.6</ele>
        <time>2019-07-17T12:01:51Z</time>
      </trkpt>
      <trkpt lat="43.2055220" lon="-0.9732130">
        <ele>316.5</ele>
        <time>2019-07-17T12:01:53Z</time>
      </trkpt>
      <trkpt lat="43.2053600" lon="-0.9731220">
        <ele>315.0</ele>
        <time>2019-07-17T12:01:55Z</time>
      </trkpt>
      <trkpt lat="43.2051870" lon="-0.9730390">
        <ele>313.5</ele>
        <time>2019-07-17T12:01:57Z</time>
      </trkpt>
      <trkpt lat="43.2050960" lon="-0.9729930">
        <ele>312.7</ele>
        <time>2019-07-17T12:01:58Z</time>
      </trkpt>
      <trkpt lat="43.2050050" lon="-0.9729480">
        <ele>311.8</ele>
        <time>2019-07-17T12:01:59Z</time>
      </trkpt>
      <trkpt lat="43.2049180" lon="-0.9729100">
        <ele>311.2</ele>
        <time>2019-07-17T12:02:00Z</time>
      </trkpt>
      <trkpt lat="43.2047660" lon="-0.9728380">
        <ele>309.9</ele>
        <time>2019-07-17T12:02:02Z</time>
      </trkpt>
      <trkpt lat="43.2046190" lon="-0.9727670">
        <ele>308.7</ele>
        <time>2019-07-17T12:02:04Z</time>
      </trkpt>
      <trkpt lat="43.2044680" lon="-0.9726890">
        <ele>307.3</ele>
        <time>2019-07-17T12:02:06Z</time>
      </trkpt>
      <trkpt lat="43.2043100" lon="-0.9725790">
        <ele>305.5</ele>
        <time>2019-07-17T12:02:08Z</time>
      </trkpt>
      <trkpt lat="43.2042310" lon="-0.9725090">
        <ele>304.9</ele>
        <time>2019-07-17T12:02:09Z</time>
      </trkpt>
      <trkpt lat="43.2041520" lon="-0.9724300">
        <ele>304.1</ele>
        <time>2019-07-17T12:02:10Z</time>
      </trkpt>
      <trkpt lat="43.2040760" lon="-0.9723500">
        <ele>303.5</ele>
        <time>2019-07-17T12:02:11Z</time>
      </trkpt>
      <trkpt lat="43.2040020" lon="-0.9722690">
        <ele>302.9</ele>
        <time>2019-07-17T12:02:12Z</time>
      </trkpt>
      <trkpt lat="43.2038650" lon="-0.9721120">
        <ele>300.9</ele>
        <time>2019-07-17T12:02:14Z</time>
      </trkpt>
      <trkpt lat="43.2037310" lon="-0.9719590">
        <ele>299.6</ele>
        <time>2019-07-17T12:02:16Z</time>
      </trkpt>
      <trkpt lat="43.2036620" lon="-0.9718770">
        <ele>299.2</ele>
        <time>2019-07-17T12:02:17Z</time>
      </trkpt>
      <trkpt lat="43.2035920" lon="-0.9717980">
        <ele>298.7</ele>
        <time>2019-07-17T12:02:18Z</time>
      </trkpt>
      <trkpt lat="43.2034660" lon="-0.9716500">
        <ele>297.3</ele>
        <time>2019-07-17T12:02:20Z</time>
      </trkpt>
      <trkpt lat="43.2033330" lon="-0.9714940">
        <ele>296.0</ele>
        <time>2019-07-17T12:02:22Z</time>
      </trkpt>
      <trkpt lat="43.2032000" lon="-0.9713320">
        <ele>294.8</ele>
        <time>2019-07-17T12:02:24Z</time>
      </trkpt>
      <trkpt lat="43.2030740" lon="-0.9711750">
        <ele>293.3</ele>
        <time>2019-07-17T12:02:26Z</time>
      </trkpt>
      <trkpt lat="43.2029460" lon="-0.9710210">
        <ele>292.2</ele>
        <time>2019-07-17T12:02:28Z</time>
      </trkpt>
      <trkpt lat="43.2028120" lon="-0.9708680">
        <ele>290.6</ele>
        <time>2019-07-17T12:02:30Z</time>
      </trkpt>
      <trkpt lat="43.2026840" lon="-0.9707160">
        <ele>289.5</ele>
        <time>2019-07-17T12:02:32Z</time>
      </trkpt>
      <trkpt lat="43.2025650" lon="-0.9705610">
        <ele>288.1</ele>
        <time>2019-07-17T12:02:34Z</time>
      </trkpt>
      <trkpt lat="43.2024420" lon="-0.9704140">
        <ele>286.7</ele>
        <time>2019-07-17T12:02:36Z</time>
      </trkpt>
      <trkpt lat="43.2023360" lon="-0.9702480">
        <ele>285.8</ele>
        <time>2019-07-17T12:02:38Z</time>
      </trkpt>
      <trkpt lat="43.2022520" lon="-0.9700600">
        <ele>284.3</ele>
        <time>2019-07-17T12:02:40Z</time>
      </trkpt>
      <trkpt lat="43.2021900" lon="-0.9698800">
        <ele>283.1</ele>
        <time>2019-07-17T12:02:42Z</time>
      </trkpt>
      <trkpt lat="43.2021280" lon="-0.9696890">
        <ele>281.9</ele>
        <time>2019-07-17T12:02:44Z</time>
      </trkpt>
      <trkpt lat="43.2020700" lon="-0.9694780">
        <ele>280.6</ele>
        <time>2019-07-17T12:02:46Z</time>
      </trkpt>
      <trkpt lat="43.2020160" lon="-0.9692830">
        <ele>279.7</ele>
        <time>2019-07-17T12:02:48Z</time>
      </trkpt>
      <trkpt lat="43.2019570" lon="-0.9690770">
        <ele>278.4</ele>
        <time>2019-07-17T12:02:50Z</time>
      </trkpt>
      <trkpt lat="43.2019010" lon="-0.9688720">
        <ele>277.1</ele>
        <time>2019-07-17T12:02:52Z</time>
      </trkpt>
      <trkpt lat="43.2018410" lon="-0.9686710">
        <ele>275.7</ele>
        <time>2019-07-17T12:02:54Z</time>
      </trkpt>
      <trkpt lat="43.2017840" lon="-0.9684760">
        <ele>274.3</ele>
        <time>2019-07-17T12:02:56Z</time>
      </trkpt>
      <trkpt lat="43.2017280" lon="-0.9682700">
        <ele>272.9</ele>
        <time>2019-07-17T12:02:58Z</time>
      </trkpt>
      <trkpt lat="43.2016650" lon="-0.9680560">
        <ele>271.7</ele>
        <time>2019-07-17T12:03:00Z</time>
      </trkpt>
      <trkpt lat="43.2015810" lon="-0.9678560">
        <ele>270.5</ele>
        <time>2019-07-17T12:03:02Z</time>
      </trkpt>
      <trkpt lat="43.2014910" lon="-0.9676860">
        <ele>269.2</ele>
        <time>2019-07-17T12:03:04Z</time>
      </trkpt>
      <trkpt lat="43.2014030" lon="-0.9675230">
        <ele>268.0</ele>
        <time>2019-07-17T12:03:06Z</time>
      </trkpt>
      <trkpt lat="43.2013170" lon="-0.9673670">
        <ele>267.0</ele>
        <time>2019-07-17T12:03:08Z</time>
      </trkpt>
      <trkpt lat="43.2012360" lon="-0.9672180">
        <ele>265.8</ele>
        <time>2019-07-17T12:03:10Z</time>
      </trkpt>
      <trkpt lat="43.2011590" lon="-0.9670710">
        <ele>265.0</ele>
        <time>2019-07-17T12:03:12Z</time>
      </trkpt>
      <trkpt lat="43.2010810" lon="-0.9669380">
        <ele>263.7</ele>
        <time>2019-07-17T12:03:14Z</time>
      </trkpt>
      <trkpt lat="43.2010040" lon="-0.9668040">
        <ele>262.7</ele>
        <time>2019-07-17T12:03:16Z</time>
      </trkpt>
      <trkpt lat="43.2009060" lon="-0.9666580">
        <ele>261.8</ele>
        <time>2019-07-17T12:03:18Z</time>
      </trkpt>
      <trkpt lat="43.2007890" lon="-0.9665190">
        <ele>260.5</ele>
        <time>2019-07-17T12:03:20Z</time>
      </trkpt>
      <trkpt lat="43.2006610" lon="-0.9664210">
        <ele>259.4</ele>
        <time>2019-07-17T12:03:22Z</time>
      </trkpt>
      <trkpt lat="43.2005320" lon="-0.9663500">
        <ele>258.5</ele>
        <time>2019-07-17T12:03:24Z</time>
      </trkpt>
      <trkpt lat="43.2004030" lon="-0.9662950">
        <ele>257.6</ele>
        <time>2019-07-17T12:03:26Z</time>
      </trkpt>
      <trkpt lat="43.2002790" lon="-0.9662500">
        <ele>256.7</ele>
        <time>2019-07-17T12:03:28Z</time>
      </trkpt>
      <trkpt lat="43.2001490" lon="-0.9662190">
        <ele>256.1</ele>
        <time>2019-07-17T12:03:30Z</time>
      </trkpt>
      <trkpt lat="43.2000140" lon="-0.9661880">
        <ele>255.4</ele>
        <time>2019-07-17T12:03:32Z</time>
      </trkpt>
      <trkpt lat="43.1998820" lon="-0.9661650">
        <ele>254.7</ele>
        <time>2019-07-17T12:03:34Z</time>
      </trkpt>
      <trkpt lat="43.1997450" lon="-0.9661480">
        <ele>253.7</ele>
        <time>2019-07-17T12:03:36Z</time>
      </trkpt>
      <trkpt lat="43.1996120" lon="-0.9661360">
        <ele>252.8</ele>
        <time>2019-07-17T12:03:38Z</time>
      </trkpt>
      <trkpt lat="43.1994820" lon="-0.9661240">
        <ele>252.1</ele>
        <time>2019-07-17T12:03:40Z</time>
      </trkpt>
      <trkpt lat="43.1993550" lon="-0.9661040">
        <ele>251.4</ele>
        <time>2019-07-17T12:03:42Z</time>
      </trkpt>
      <trkpt lat="43.1992320" lon="-0.9660860">
        <ele>250.5</ele>
        <time>2019-07-17T12:03:44Z</time>
      </trkpt>
      <trkpt lat="43.1991070" lon="-0.9660710">
        <ele>249.6</ele>
        <time>2019-07-17T12:03:46Z</time>
      </trkpt>
      <trkpt lat="43.1989740" lon="-0.9660530">
        <ele>248.6</ele>
        <time>2019-07-17T12:03:48Z</time>
      </trkpt>
      <trkpt lat="43.1988340" lon="-0.9660430">
        <ele>247.7</ele>
        <time>2019-07-17T12:03:50Z</time>
      </trkpt>
      <trkpt lat="43.1986870" lon="-0.9660400">
        <ele>246.8</ele>
        <time>2019-07-17T12:03:52Z</time>
      </trkpt>
      <trkpt lat="43.1985450" lon="-0.9660490">
        <ele>245.9</ele>
        <time>2019-07-17T12:03:54Z</time>
      </trkpt>
      <trkpt lat="43.1984090" lon="-0.9660630">
        <ele>244.6</ele>
        <time>2019-07-17T12:03:56Z</time>
      </trkpt>
      <trkpt lat="43.1982790" lon="-0.9660710">
        <ele>243.5</ele>
        <time>2019-07-17T12:03:58Z</time>
      </trkpt>
      <trkpt lat="43.1981440" lon="-0.9660860">
        <ele>242.4</ele>
        <time>2019-07-17T12:04:00Z</time>
      </trkpt>
      <trkpt lat="43.1979880" lon="-0.9661050">
        <ele>241.2</ele>
        <time>2019-07-17T12:04:02Z</time>
      </trkpt>
      <trkpt lat="43.1978280" lon="-0.9661300">
        <ele>239.7</ele>
        <time>2019-07-17T12:04:04Z</time>
      </trkpt>
      <trkpt lat="43.1976580" lon="-0.9661410">
        <ele>238.1</ele>
        <time>2019-07-17T12:04:06Z</time>
      </trkpt>
      <trkpt lat="43.1975660" lon="-0.9661400">
        <ele>237.5</ele>
        <time>2019-07-17T12:04:07Z</time>
      </trkpt>
      <trkpt lat="43.1974700" lon="-0.9661370">
        <ele>236.8</ele>
        <time>2019-07-17T12:04:08Z</time>
      </trkpt>
      <trkpt lat="43.1973740" lon="-0.9661320">
        <ele>236.1</ele>
        <time>2019-07-17T12:04:09Z</time>
      </trkpt>
      <trkpt lat="43.1972020" lon="-0.9661140">
        <ele>234.7</ele>
        <time>2019-07-17T12:04:11Z</time>
      </trkpt>
      <trkpt lat="43.1970500" lon="-0.9660960">
        <ele>233.4</ele>
        <time>2019-07-17T12:04:13Z</time>
      </trkpt>
      <trkpt lat="43.1969090" lon="-0.9660760">
        <ele>232.2</ele>
        <time>2019-07-17T12:04:15Z</time>
      </trkpt>
      <trkpt lat="43.1967930" lon="-0.9660620">
        <ele>231.2</ele>
        <time>2019-07-17T12:04:17Z</time>
      </trkpt>
      <trkpt lat="43.1966930" lon="-0.9660470">
        <ele>230.3</ele>
        <time>2019-07-17T12:04:19Z</time>
      </trkpt>
      <trkpt lat="43.1966020" lon="-0.9660410">
        <ele>229.5</ele>
        <time>2019-07-17T12:04:21Z</time>
      </trkpt>
      <trkpt lat="43.1964910" lon="-0.9660200">
        <ele>228.5</ele>
        <time>2019-07-17T12:04:24Z</time>
      </trkpt>
      <trkpt lat="43.1963810" lon="-0.9660010">
        <ele>227.6</ele>
        <time>2019-07-17T12:04:28Z</time>
      </trkpt>
      <trkpt lat="43.1962690" lon="-0.9659840">
        <ele>226.6</ele>
        <time>2019-07-17T12:04:33Z</time>
      </trkpt>
      <trkpt lat="43.1961750" lon="-0.9659700">
        <ele>225.8</ele>
        <time>2019-07-17T12:04:37Z</time>
      </trkpt>
      <trkpt lat="43.1960650" lon="-0.9659590">
        <ele>225.1</ele>
        <time>2019-07-17T12:04:41Z</time>
      </trkpt>
      <trkpt lat="43.1959480" lon="-0.9659330">
        <ele>224.1</ele>
        <time>2019-07-17T12:04:45Z</time>
      </trkpt>
      <trkpt lat="43.1958540" lon="-0.9658990">
        <ele>223.5</ele>
        <time>2019-07-17T12:04:48Z</time>
      </trkpt>
      <trkpt lat="43.1957530" lon="-0.9658720">
        <ele>222.8</ele>
        <time>2019-07-17T12:04:51Z</time>
      </trkpt>
      <trkpt lat="43.1956350" lon="-0.9658190">
        <ele>221.8</ele>
        <time>2019-07-17T12:04:55Z</time>
      </trkpt>
      <trkpt lat="43.1955250" lon="-0.9657630">
        <ele>220.5</ele>
        <time>2019-07-17T12:04:59Z</time>
      </trkpt>
      <trkpt lat="43.1954230" lon="-0.9657040">
        <ele>219.3</ele>
        <time>2019-07-17T12:05:03Z</time>
      </trkpt>
      <trkpt lat="43.1953200" lon="-0.9656390">
        <ele>218.1</ele>
        <time>2019-07-17T12:05:07Z</time>
      </trkpt>
      <trkpt lat="43.1952250" lon="-0.9655900">
        <ele>217.5</ele>
        <time>2019-07-17T12:05:11Z</time>
      </trkpt>
      <trkpt lat="43.1951230" lon="-0.9655050">
        <ele>216.9</ele>
        <time>2019-07-17T12:05:15Z</time>
      </trkpt>
      <trkpt lat="43.1950290" lon="-0.9654410">
        <ele>216.4</ele>
        <time>2019-07-17T12:05:18Z</time>
      </trkpt>
      <trkpt lat="43.1949460" lon="-0.9653480">
        <ele>215.9</ele>
        <time>2019-07-17T12:05:21Z</time>
      </trkpt>
      <trkpt lat="43.1948780" lon="-0.9652530">
        <ele>215.5</ele>
        <time>2019-07-17T12:05:24Z</time>
      </trkpt>
      <trkpt lat="43.1948040" lon="-0.9651500">
        <ele>214.7</ele>
        <time>2019-07-17T12:05:27Z</time>
      </trkpt>
      <trkpt lat="43.1947400" lon="-0.9650260">
        <ele>213.8</ele>
        <time>2019-07-17T12:05:30Z</time>
      </trkpt>
      <trkpt lat="43.1946910" lon="-0.9649120">
        <ele>213.4</ele>
        <time>2019-07-17T12:05:34Z</time>
      </trkpt>
      <trkpt lat="43.1946750" lon="-0.9647710">
        <ele>212.8</ele>
        <time>2019-07-17T12:05:39Z</time>
      </trkpt>
      <trkpt lat="43.1946440" lon="-0.9646240">
        <ele>212.4</ele>
        <time>2019-07-17T12:05:43Z</time>
      </trkpt>
      <trkpt lat="43.1946240" lon="-0.9644970">
        <ele>211.9</ele>
        <time>2019-07-17T12:05:47Z</time>
      </trkpt>
      <trkpt lat="43.1946010" lon="-0.9643590">
        <ele>211.4</ele>
        <time>2019-07-17T12:05:51Z</time>
      </trkpt>
      <trkpt lat="43.1945790" lon="-0.9641970">
        <ele>210.8</ele>
        <time>2019-07-17T12:05:55Z</time>
      </trkpt>
      <trkpt lat="43.1945590" lon="-0.9640350">
        <ele>210.0</ele>
        <time>2019-07-17T12:05:58Z</time>
      </trkpt>
      <trkpt lat="43.1945420" lon="-0.9639120">
        <ele>209.3</ele>
        <time>2019-07-17T12:06:00Z</time>
      </trkpt>
      <trkpt lat="43.1945250" lon="-0.9637660">
        <ele>208.5</ele>
        <time>2019-07-17T12:06:02Z</time>
      </trkpt>
      <trkpt lat="43.1945030" lon="-0.9636130">
        <ele>207.3</ele>
        <time>2019-07-17T12:06:04Z</time>
      </trkpt>
      <trkpt lat="43.1944810" lon="-0.9634500">
        <ele>206.1</ele>
        <time>2019-07-17T12:06:06Z</time>
      </trkpt>
      <trkpt lat="43.1944580" lon="-0.9632670">
        <ele>205.0</ele>
        <time>2019-07-17T12:06:08Z</time>
      </trkpt>
      <trkpt lat="43.1944360" lon="-0.9630800">
        <ele>203.7</ele>
        <time>2019-07-17T12:06:10Z</time>
      </trkpt>
      <trkpt lat="43.1944090" lon="-0.9628890">
        <ele>202.5</ele>
        <time>2019-07-17T12:06:12Z</time>
      </trkpt>
      <trkpt lat="43.1943840" lon="-0.9626830">
        <ele>201.1</ele>
        <time>2019-07-17T12:06:14Z</time>
      </trkpt>
      <trkpt lat="43.1943520" lon="-0.9624630">
        <ele>199.8</ele>
        <time>2019-07-17T12:06:16Z</time>
      </trkpt>
      <trkpt lat="43.1943150" lon="-0.9622280">
        <ele>198.6</ele>
        <time>2019-07-17T12:06:18Z</time>
      </trkpt>
      <trkpt lat="43.1942980" lon="-0.9621010">
        <ele>197.8</ele>
        <time>2019-07-17T12:06:19Z</time>
      </trkpt>
      <trkpt lat="43.1942810" lon="-0.9619730">
        <ele>197.1</ele>
        <time>2019-07-17T12:06:20Z</time>
      </trkpt>
      <trkpt lat="43.1942620" lon="-0.9618420">
        <ele>196.2</ele>
        <time>2019-07-17T12:06:21Z</time>
      </trkpt>
      <trkpt lat="43.1942430" lon="-0.9617100">
        <ele>195.6</ele>
        <time>2019-07-17T12:06:22Z</time>
      </trkpt>
      <trkpt lat="43.1942240" lon="-0.9615750">
        <ele>195.2</ele>
        <time>2019-07-17T12:06:23Z</time>
      </trkpt>
      <trkpt lat="43.1942060" lon="-0.9614380">
        <ele>194.9</ele>
        <time>2019-07-17T12:06:24Z</time>
      </trkpt>
      <trkpt lat="43.1941880" lon="-0.9612980">
        <ele>194.3</ele>
        <time>2019-07-17T12:06:25Z</time>
      </trkpt>
      <trkpt lat="43.1941700" lon="-0.9611570">
        <ele>193.7</ele>
        <time>2019-07-17T12:06:26Z</time>
      </trkpt>
      <trkpt lat="43.1941510" lon="-0.9610130">
        <ele>193.1</ele>
        <time>2019-07-17T12:06:27Z</time>
      </trkpt>
      <trkpt lat="43.1941320" lon="-0.9608700">
        <ele>192.6</ele>
        <time>2019-07-17T12:06:28Z</time>
      </trkpt>
      <trkpt lat="43.1941150" lon="-0.9607250">
        <ele>192.1</ele>
        <time>2019-07-17T12:06:29Z</time>
      </trkpt>
      <trkpt lat="43.1940970" lon="-0.9605790">
        <ele>191.6</ele>
        <time>2019-07-17T12:06:30Z</time>
      </trkpt>
      <trkpt lat="43.1940770" lon="-0.9604330">
        <ele>191.1</ele>
        <time>2019-07-17T12:06:31Z</time>
      </trkpt>
      <trkpt lat="43.1940550" lon="-0.9602880">
        <ele>190.6</ele>
        <time>2019-07-17T12:06:32Z</time>
      </trkpt>
      <trkpt lat="43.1940350" lon="-0.9601430">
        <ele>190.2</ele>
        <time>2019-07-17T12:06:33Z</time>
      </trkpt>
      <trkpt lat="43.1940150" lon="-0.9600010">
        <ele>189.8</ele>
        <time>2019-07-17T12:06:34Z</time>
      </trkpt>
      <trkpt lat="43.1939960" lon="-0.9598620">
        <ele>189.5</ele>
        <time>2019-07-17T12:06:35Z</time>
      </trkpt>
      <trkpt lat="43.1939770" lon="-0.9597280">
        <ele>189.2</ele>
        <time>2019-07-17T12:06:36Z</time>
      </trkpt>
      <trkpt lat="43.1939580" lon="-0.9596000">
        <ele>189.0</ele>
        <time>2019-07-17T12:06:37Z</time>
      </trkpt>
      <trkpt lat="43.1939390" lon="-0.9594750">
        <ele>188.9</ele>
        <time>2019-07-17T12:06:38Z</time>
      </trkpt>
      <trkpt lat="43.1938990" lon="-0.9592460">
        <ele>188.9</ele>
        <time>2019-07-17T12:06:40Z</time>
      </trkpt>
      <trkpt lat="43.1938650" lon="-0.9590400">
        <ele>189.1</ele>
        <time>2019-07-17T12:06:42Z</time>
      </trkpt>
      <trkpt lat="43.1938360" lon="-0.9588630">
        <ele>189.5</ele>
        <time>2019-07-17T12:06:44Z</time>
      </trkpt>
      <trkpt lat="43.1938090" lon="-0.9587230">
        <ele>190.0</ele>
        <time>2019-07-17T12:06:46Z</time>
      </trkpt>
      <trkpt lat="43.1937680" lon="-0.9585710">
        <ele>190.7</ele>
        <time>2019-07-17T12:06:49Z</time>
      </trkpt>
      <trkpt lat="43.1937240" lon="-0.9584260">
        <ele>191.4</ele>
        <time>2019-07-17T12:06:53Z</time>
      </trkpt>
      <trkpt lat="43.1936750" lon="-0.9582970">
        <ele>192.2</ele>
        <time>2019-07-17T12:06:57Z</time>
      </trkpt>
      <trkpt lat="43.1936320" lon="-0.9581580">
        <ele>193.1</ele>
        <time>2019-07-17T12:07:02Z</time>
      </trkpt>
      <trkpt lat="43.1935870" lon="-0.9580210">
        <ele>193.9</ele>
        <time>2019-07-17T12:07:07Z</time>
      </trkpt>
      <trkpt lat="43.1935540" lon="-0.9578890">
        <ele>194.6</ele>
        <time>2019-07-17T12:07:12Z</time>
      </trkpt>
      <trkpt lat="43.1935150" lon="-0.9577630">
        <ele>195.3</ele>
        <time>2019-07-17T12:07:17Z</time>
      </trkpt>
      <trkpt lat="43.1934970" lon="-0.9576280">
        <ele>196.0</ele>
        <time>2019-07-17T12:07:22Z</time>
      </trkpt>
      <trkpt lat="43.1934450" lon="-0.9574950">
        <ele>196.7</ele>
        <time>2019-07-17T12:07:27Z</time>
      </trkpt>
      <trkpt lat="43.1934190" lon="-0.9573510">
        <ele>197.4</ele>
        <time>2019-07-17T12:07:32Z</time>
      </trkpt>
      <trkpt lat="43.1933980" lon="-0.9572120">
        <ele>198.1</ele>
        <time>2019-07-17T12:07:37Z</time>
      </trkpt>
      <trkpt lat="43.1933890" lon="-0.9570820">
        <ele>198.7</ele>
        <time>2019-07-17T12:07:42Z</time>
      </trkpt>
      <trkpt lat="43.1933640" lon="-0.9569540">
        <ele>199.4</ele>
        <time>2019-07-17T12:07:47Z</time>
      </trkpt>
      <trkpt lat="43.1933380" lon="-0.9568210">
        <ele>200.1</ele>
        <time>2019-07-17T12:07:52Z</time>
      </trkpt>
      <trkpt lat="43.1933190" lon="-0.9566840">
        <ele>200.8</ele>
        <time>2019-07-17T12:07:57Z</time>
      </trkpt>
      <trkpt lat="43.1933030" lon="-0.9565540">
        <ele>201.4</ele>
        <time>2019-07-17T12:08:02Z</time>
      </trkpt>
      <trkpt lat="43.1932880" lon="-0.9564320">
        <ele>202.0</ele>
        <time>2019-07-17T12:08:07Z</time>
      </trkpt>
      <trkpt lat="43.1932640" lon="-0.9563000">
        <ele>202.7</ele>
        <time>2019-07-17T12:08:12Z</time>
      </trkpt>
      <trkpt lat="43.1932460" lon="-0.9561770">
        <ele>203.2</ele>
        <time>2019-07-17T12:08:17Z</time>
      </trkpt>
      <trkpt lat="43.1932470" lon="-0.9560530">
        <ele>203.8</ele>
        <time>2019-07-17T12:08:22Z</time>
      </trkpt>
      <trkpt lat="43.1932170" lon="-0.9559230">
        <ele>204.3</ele>
        <time>2019-07-17T12:08:27Z</time>
      </trkpt>
      <trkpt lat="43.1932020" lon="-0.9557940">
        <ele>204.9</ele>
        <time>2019-07-17T12:08:32Z</time>
      </trkpt>
      <trkpt lat="43.1931850" lon="-0.9556700">
        <ele>205.5</ele>
        <time>2019-07-17T12:08:37Z</time>
      </trkpt>
      <trkpt lat="43.1931620" lon="-0.9555280">
        <ele>206.1</ele>
        <time>2019-07-17T12:08:43Z</time>
      </trkpt>
      <trkpt lat="43.1931470" lon="-0.9554010">
        <ele>206.8</ele>
        <time>2019-07-17T12:08:48Z</time>
      </trkpt>
      <trkpt lat="43.1931290" lon="-0.9552750">
        <ele>207.4</ele>
        <time>2019-07-17T12:08:53Z</time>
      </trkpt>
      <trkpt lat="43.1931110" lon="-0.9551480">
        <ele>208.0</ele>
        <time>2019-07-17T12:08:58Z</time>
      </trkpt>
      <trkpt lat="43.1930860" lon="-0.9550220">
        <ele>208.7</ele>
        <time>2019-07-17T12:09:03Z</time>
      </trkpt>
      <trkpt lat="43.1930710" lon="-0.9548840">
        <ele>209.4</ele>
        <time>2019-07-17T12:09:09Z</time>
      </trkpt>
      <trkpt lat="43.1930510" lon="-0.9547500">
        <ele>210.0</ele>
        <time>2019-07-17T12:09:15Z</time>
      </trkpt>
      <trkpt lat="43.1930400" lon="-0.9546210">
        <ele>210.6</ele>
        <time>2019-07-17T12:09:21Z</time>
      </trkpt>
      <trkpt lat="43.1930510" lon="-0.9544940">
        <ele>211.1</ele>
        <time>2019-07-17T12:09:27Z</time>
      </trkpt>
      <trkpt lat="43.1931300" lon="-0.9544130">
        <ele>211.7</ele>
        <time>2019-07-17T12:09:35Z</time>
      </trkpt>
      <trkpt lat="43.1932200" lon="-0.9544620">
        <ele>211.7</ele>
        <time>2019-07-17T12:09:46Z</time>
      </trkpt>
      <trkpt lat="43.1932450" lon="-0.9545870">
        <ele>211.7</ele>
        <time>2019-07-17T12:09:54Z</time>
      </trkpt>
      <trkpt lat="43.1932550" lon="-0.9545950">
        <ele>211.7</ele>
        <time>2019-07-17T12:10:00Z</time>
      </trkpt>
      <trkpt lat="43.1933560" lon="-0.9545650">
        <ele>211.8</ele>
        <time>2019-07-17T12:10:50Z</time>
      </trkpt>
      <trkpt lat="43.1934460" lon="-0.9546050">
        <ele>211.9</ele>
        <time>2019-07-17T12:10:58Z</time>
      </trkpt>
      <trkpt lat="43.1935500" lon="-0.9546640">
        <ele>212.0</ele>
        <time>2019-07-17T12:11:06Z</time>
      </trkpt>
      <trkpt lat="43.1936390" lon="-0.9546930">
        <ele>212.1</ele>
        <time>2019-07-17T12:11:15Z</time>
      </trkpt>
      <trkpt lat="43.1936440" lon="-0.9546940">
        <ele>212.1</ele>
        <time>2019-07-17T12:11:17Z</time>
      </trkpt>
      <trkpt lat="43.1936620" lon="-0.9546100">
        <ele>212.1</ele>
        <time>2019-07-17T12:11:44Z</time>
      </trkpt>
      <trkpt lat="43.1936260" lon="-0.9546890">
        <ele>212.2</ele>
        <time>2019-07-17T12:11:58Z</time>
      </trkpt>
      <trkpt lat="43.1936500" lon="-0.9546600">
        <ele>212.2</ele>
        <time>2019-07-17T12:12:04Z</time>
      </trkpt>
      <trkpt lat="43.1935590" lon="-0.9546990">
        <ele>212.3</ele>
        <time>2019-07-17T13:05:59Z</time>
      </trkpt>
      <trkpt lat="43.1934780" lon="-0.9546430">
        <ele>212.2</ele>
        <time>2019-07-17T13:06:10Z</time>
      </trkpt>
      <trkpt lat="43.1933880" lon="-0.9546110">
        <ele>212.0</ele>
        <time>2019-07-17T13:06:21Z</time>
      </trkpt>
      <trkpt lat="43.1933620" lon="-0.9546180">
        <ele>212.0</ele>
        <time>2019-07-17T13:06:26Z</time>
      </trkpt>
      <trkpt lat="43.1934090" lon="-0.9546100">
        <ele>211.9</ele>
        <time>2019-07-17T13:25:49Z</time>
      </trkpt>
      <trkpt lat="43.1933800" lon="-0.9546330">
        <ele>211.9</ele>
        <time>2019-07-17T13:25:59Z</time>
      </trkpt>
      <trkpt lat="43.1933820" lon="-0.9545940">
        <ele>211.9</ele>
        <time>2019-07-17T13:26:33Z</time>
      </trkpt>
      <trkpt lat="43.1933080" lon="-0.9545240">
        <ele>211.8</ele>
        <time>2019-07-17T13:26:41Z</time>
      </trkpt>
      <trkpt lat="43.1932210" lon="-0.9544560">
        <ele>211.7</ele>
        <time>2019-07-17T13:26:46Z</time>
      </trkpt>
      <trkpt lat="43.1931220" lon="-0.9544190">
        <ele>211.7</ele>
        <time>2019-07-17T13:26:51Z</time>
      </trkpt>
      <trkpt lat="43.1930340" lon="-0.9543420">
        <ele>211.7</ele>
        <time>2019-07-17T13:26:57Z</time>
      </trkpt>
      <trkpt lat="43.1930050" lon="-0.9542110">
        <ele>212.0</ele>
        <time>2019-07-17T13:27:02Z</time>
      </trkpt>
      <trkpt lat="43.1929810" lon="-0.9540860">
        <ele>212.3</ele>
        <time>2019-07-17T13:27:07Z</time>
      </trkpt>
      <trkpt lat="43.1929550" lon="-0.9539590">
        <ele>212.6</ele>
        <time>2019-07-17T13:27:12Z</time>
      </trkpt>
      <trkpt lat="43.1929390" lon="-0.9538200">
        <ele>212.5</ele>
        <time>2019-07-17T13:27:17Z</time>
      </trkpt>
      <trkpt lat="43.1929230" lon="-0.9536960">
        <ele>212.4</ele>
        <time>2019-07-17T13:27:21Z</time>
      </trkpt>
      <trkpt lat="43.1929050" lon="-0.9535720">
        <ele>212.3</ele>
        <time>2019-07-17T13:27:25Z</time>
      </trkpt>
      <trkpt lat="43.1928900" lon="-0.9534450">
        <ele>212.2</ele>
        <time>2019-07-17T13:27:29Z</time>
      </trkpt>
      <trkpt lat="43.1928740" lon="-0.9532950">
        <ele>212.0</ele>
        <time>2019-07-17T13:27:33Z</time>
      </trkpt>
      <trkpt lat="43.1928560" lon="-0.9531500">
        <ele>211.9</ele>
        <time>2019-07-17T13:27:36Z</time>
      </trkpt>
      <trkpt lat="43.1928350" lon="-0.9529720">
        <ele>211.5</ele>
        <time>2019-07-17T13:27:39Z</time>
      </trkpt>
      <trkpt lat="43.1928150" lon="-0.9528370">
        <ele>211.2</ele>
        <time>2019-07-17T13:27:41Z</time>
      </trkpt>
      <trkpt lat="43.1927990" lon="-0.9527010">
        <ele>210.6</ele>
        <time>2019-07-17T13:27:43Z</time>
      </trkpt>
      <trkpt lat="43.1927750" lon="-0.9525520">
        <ele>209.9</ele>
        <time>2019-07-17T13:27:45Z</time>
      </trkpt>
      <trkpt lat="43.1927560" lon="-0.9524060">
        <ele>209.4</ele>
        <time>2019-07-17T13:27:47Z</time>
      </trkpt>
      <trkpt lat="43.1927320" lon="-0.9522520">
        <ele>208.8</ele>
        <time>2019-07-17T13:27:49Z</time>
      </trkpt>
      <trkpt lat="43.1927130" lon="-0.9520840">
        <ele>208.2</ele>
        <time>2019-07-17T13:27:51Z</time>
      </trkpt>
      <trkpt lat="43.1927040" lon="-0.9519090">
        <ele>207.5</ele>
        <time>2019-07-17T13:27:53Z</time>
      </trkpt>
      <trkpt lat="43.1926970" lon="-0.9517230">
        <ele>206.7</ele>
        <time>2019-07-17T13:27:55Z</time>
      </trkpt>
      <trkpt lat="43.1926960" lon="-0.9515310">
        <ele>205.7</ele>
        <time>2019-07-17T13:27:57Z</time>
      </trkpt>
      <trkpt lat="43.1926930" lon="-0.9513360">
        <ele>204.8</ele>
        <time>2019-07-17T13:27:59Z</time>
      </trkpt>
      <trkpt lat="43.1926930" lon="-0.9511320">
        <ele>203.9</ele>
        <time>2019-07-17T13:28:01Z</time>
      </trkpt>
      <trkpt lat="43.1926890" lon="-0.9509290">
        <ele>203.1</ele>
        <time>2019-07-17T13:28:03Z</time>
      </trkpt>
      <trkpt lat="43.1926730" lon="-0.9507180">
        <ele>202.2</ele>
        <time>2019-07-17T13:28:05Z</time>
      </trkpt>
      <trkpt lat="43.1926270" lon="-0.9505210">
        <ele>201.3</ele>
        <time>2019-07-17T13:28:07Z</time>
      </trkpt>
      <trkpt lat="43.1925510" lon="-0.9503470">
        <ele>200.4</ele>
        <time>2019-07-17T13:28:09Z</time>
      </trkpt>
      <trkpt lat="43.1924620" lon="-0.9501870">
        <ele>199.3</ele>
        <time>2019-07-17T13:28:11Z</time>
      </trkpt>
      <trkpt lat="43.1923670" lon="-0.9500220">
        <ele>198.4</ele>
        <time>2019-07-17T13:28:13Z</time>
      </trkpt>
      <trkpt lat="43.1922640" lon="-0.9498530">
        <ele>197.5</ele>
        <time>2019-07-17T13:28:15Z</time>
      </trkpt>
      <trkpt lat="43.1921660" lon="-0.9496900">
        <ele>196.6</ele>
        <time>2019-07-17T13:28:17Z</time>
      </trkpt>
      <trkpt lat="43.1920700" lon="-0.9495250">
        <ele>195.7</ele>
        <time>2019-07-17T13:28:19Z</time>
      </trkpt>
      <trkpt lat="43.1919770" lon="-0.9493600">
        <ele>194.8</ele>
        <time>2019-07-17T13:28:21Z</time>
      </trkpt>
      <trkpt lat="43.1918960" lon="-0.9491840">
        <ele>193.9</ele>
        <time>2019-07-17T13:28:23Z</time>
      </trkpt>
      <trkpt lat="43.1918220" lon="-0.9489930">
        <ele>192.7</ele>
        <time>2019-07-17T13:28:25Z</time>
      </trkpt>
      <trkpt lat="43.1917450" lon="-0.9487850">
        <ele>191.3</ele>
        <time>2019-07-17T13:28:27Z</time>
      </trkpt>
      <trkpt lat="43.1916610" lon="-0.9485730">
        <ele>190.0</ele>
        <time>2019-07-17T13:28:29Z</time>
      </trkpt>
      <trkpt lat="43.1916160" lon="-0.9484600">
        <ele>189.3</ele>
        <time>2019-07-17T13:28:30Z</time>
      </trkpt>
      <trkpt lat="43.1915730" lon="-0.9483450">
        <ele>188.9</ele>
        <time>2019-07-17T13:28:31Z</time>
      </trkpt>
      <trkpt lat="43.1915320" lon="-0.9482280">
        <ele>188.7</ele>
        <time>2019-07-17T13:28:32Z</time>
      </trkpt>
      <trkpt lat="43.1914900" lon="-0.9481100">
        <ele>188.6</ele>
        <time>2019-07-17T13:28:33Z</time>
      </trkpt>
      <trkpt lat="43.1914470" lon="-0.9479940">
        <ele>188.6</ele>
        <time>2019-07-17T13:28:34Z</time>
      </trkpt>
      <trkpt lat="43.1914050" lon="-0.9478810">
        <ele>188.7</ele>
        <time>2019-07-17T13:28:35Z</time>
      </trkpt>
      <trkpt lat="43.1913630" lon="-0.9477680">
        <ele>188.8</ele>
        <time>2019-07-17T13:28:36Z</time>
      </trkpt>
      <trkpt lat="43.1913210" lon="-0.9476560">
        <ele>189.0</ele>
        <time>2019-07-17T13:28:37Z</time>
      </trkpt>
      <trkpt lat="43.1912470" lon="-0.9474540">
        <ele>189.6</ele>
        <time>2019-07-17T13:28:39Z</time>
      </trkpt>
      <trkpt lat="43.1911790" lon="-0.9472700">
        <ele>190.3</ele>
        <time>2019-07-17T13:28:41Z</time>
      </trkpt>
      <trkpt lat="43.1911220" lon="-0.9470990">
        <ele>190.9</ele>
        <time>2019-07-17T13:28:43Z</time>
      </trkpt>
      <trkpt lat="43.1910640" lon="-0.9469470">
        <ele>191.3</ele>
        <time>2019-07-17T13:28:45Z</time>
      </trkpt>
      <trkpt lat="43.1910120" lon="-0.9468170">
        <ele>191.7</ele>
        <time>2019-07-17T13:28:47Z</time>
      </trkpt>
      <trkpt lat="43.1909740" lon="-0.9467010">
        <ele>192.0</ele>
        <time>2019-07-17T13:28:49Z</time>
      </trkpt>
      <trkpt lat="43.1909120" lon="-0.9465560">
        <ele>192.2</ele>
        <time>2019-07-17T13:28:52Z</time>
      </trkpt>
      <trkpt lat="43.1908690" lon="-0.9464250">
        <ele>192.4</ele>
        <time>2019-07-17T13:28:55Z</time>
      </trkpt>
      <trkpt lat="43.1908260" lon="-0.9463050">
        <ele>192.5</ele>
        <time>2019-07-17T13:28:58Z</time>
      </trkpt>
      <trkpt lat="43.1907860" lon="-0.9461800">
        <ele>192.6</ele>
        <time>2019-07-17T13:29:01Z</time>
      </trkpt>
      <trkpt lat="43.1907490" lon="-0.9460640">
        <ele>192.6</ele>
        <time>2019-07-17T13:29:04Z</time>
      </trkpt>
      <trkpt lat="43.1907090" lon="-0.9459450">
        <ele>192.6</ele>
        <time>2019-07-17T13:29:07Z</time>
      </trkpt>
      <trkpt lat="43.1906650" lon="-0.9457980">
        <ele>192.6</ele>
        <time>2019-07-17T13:29:11Z</time>
      </trkpt>
      <trkpt lat="43.1906230" lon="-0.9456550">
        <ele>192.6</ele>
        <time>2019-07-17T13:29:15Z</time>
      </trkpt>
      <trkpt lat="43.1905860" lon="-0.9454970">
        <ele>192.5</ele>
        <time>2019-07-17T13:29:19Z</time>
      </trkpt>
      <trkpt lat="43.1905520" lon="-0.9453520">
        <ele>192.5</ele>
        <time>2019-07-17T13:29:23Z</time>
      </trkpt>
      <trkpt lat="43.1905150" lon="-0.9452110">
        <ele>192.4</ele>
        <time>2019-07-17T13:29:27Z</time>
      </trkpt>
      <trkpt lat="43.1904840" lon="-0.9450620">
        <ele>192.4</ele>
        <time>2019-07-17T13:29:31Z</time>
      </trkpt>
      <trkpt lat="43.1904470" lon="-0.9449150">
        <ele>192.3</ele>
        <time>2019-07-17T13:29:35Z</time>
      </trkpt>
      <trkpt lat="43.1904170" lon="-0.9447790">
        <ele>192.1</ele>
        <time>2019-07-17T13:29:39Z</time>
      </trkpt>
      <trkpt lat="43.1903780" lon="-0.9446440">
        <ele>191.9</ele>
        <time>2019-07-17T13:29:43Z</time>
      </trkpt>
      <trkpt lat="43.1903480" lon="-0.9444970">
        <ele>191.6</ele>
        <time>2019-07-17T13:29:47Z</time>
      </trkpt>
      <trkpt lat="43.1903140" lon="-0.9443810">
        <ele>191.4</ele>
        <time>2019-07-17T13:29:50Z</time>
      </trkpt>
      <trkpt lat="43.1902850" lon="-0.9442600">
        <ele>191.2</ele>
        <time>2019-07-17T13:29:53Z</time>
      </trkpt>
      <trkpt lat="43.1902490" lon="-0.9441350">
        <ele>190.9</ele>
        <time>2019-07-17T13:29:56Z</time>
      </trkpt>
      <trkpt lat="43.1902120" lon="-0.9440040">
        <ele>190.5</ele>
        <time>2019-07-17T13:29:59Z</time>
      </trkpt>
      <trkpt lat="43.1901680" lon="-0.9438690">
        <ele>190.1</ele>
        <time>2019-07-17T13:30:02Z</time>
      </trkpt>
      <trkpt lat="43.1901280" lon="-0.9437110">
        <ele>189.7</ele>
        <time>2019-07-17T13:30:05Z</time>
      </trkpt>
      <trkpt lat="43.1900830" lon="-0.9435320">
        <ele>189.1</ele>
        <time>2019-07-17T13:30:08Z</time>
      </trkpt>
      <trkpt lat="43.1900470" lon="-0.9433990">
        <ele>188.6</ele>
        <time>2019-07-17T13:30:10Z</time>
      </trkpt>
      <trkpt lat="43.1900130" lon="-0.9432630">
        <ele>188.0</ele>
        <time>2019-07-17T13:30:12Z</time>
      </trkpt>
      <trkpt lat="43.1899750" lon="-0.9431230">
        <ele>187.3</ele>
        <time>2019-07-17T13:30:14Z</time>
      </trkpt>
      <trkpt lat="43.1899330" lon="-0.9429790">
        <ele>186.4</ele>
        <time>2019-07-17T13:30:16Z</time>
      </trkpt>
      <trkpt lat="43.1898990" lon="-0.9428500">
        <ele>185.5</ele>
        <time>2019-07-17T13:30:18Z</time>
      </trkpt>
      <trkpt lat="43.1898640" lon="-0.9427240">
        <ele>184.4</ele>
        <time>2019-07-17T13:30:20Z</time>
      </trkpt>
      <trkpt lat="43.1898390" lon="-0.9425890">
        <ele>183.4</ele>
        <time>2019-07-17T13:30:22Z</time>
      </trkpt>
      <trkpt lat="43.1898250" lon="-0.9424320">
        <ele>182.4</ele>
        <time>2019-07-17T13:30:25Z</time>
      </trkpt>
      <trkpt lat="43.1898200" lon="-0.9423070">
        <ele>181.7</ele>
        <time>2019-07-17T13:30:29Z</time>
      </trkpt>
      <trkpt lat="43.1898060" lon="-0.9421600">
        <ele>181.0</ele>
        <time>2019-07-17T13:30:34Z</time>
      </trkpt>
      <trkpt lat="43.1898090" lon="-0.9420210">
        <ele>180.2</ele>
        <time>2019-07-17T13:30:37Z</time>
      </trkpt>
      <trkpt lat="43.1898070" lon="-0.9418870">
        <ele>179.5</ele>
        <time>2019-07-17T13:30:40Z</time>
      </trkpt>
      <trkpt lat="43.1898050" lon="-0.9417440">
        <ele>178.7</ele>
        <time>2019-07-17T13:30:44Z</time>
      </trkpt>
      <trkpt lat="43.1898350" lon="-0.9416100">
        <ele>177.9</ele>
        <time>2019-07-17T13:30:49Z</time>
      </trkpt>
      <trkpt lat="43.1898690" lon="-0.9414510">
        <ele>177.2</ele>
        <time>2019-07-17T13:30:53Z</time>
      </trkpt>
      <trkpt lat="43.1899090" lon="-0.9413260">
        <ele>176.7</ele>
        <time>2019-07-17T13:30:56Z</time>
      </trkpt>
      <trkpt lat="43.1899200" lon="-0.9412550">
        <ele>176.4</ele>
        <time>2019-07-17T13:31:02Z</time>
      </trkpt>
      <trkpt lat="43.1899880" lon="-0.9411440">
        <ele>175.8</ele>
        <time>2019-07-17T13:32:35Z</time>
      </trkpt>
      <trkpt lat="43.1900470" lon="-0.9410360">
        <ele>175.4</ele>
        <time>2019-07-17T13:32:38Z</time>
      </trkpt>
      <trkpt lat="43.1901060" lon="-0.9409370">
        <ele>175.1</ele>
        <time>2019-07-17T13:32:40Z</time>
      </trkpt>
      <trkpt lat="43.1901680" lon="-0.9408120">
        <ele>174.8</ele>
        <time>2019-07-17T13:32:42Z</time>
      </trkpt>
      <trkpt lat="43.1902400" lon="-0.9406650">
        <ele>174.6</ele>
        <time>2019-07-17T13:32:44Z</time>
      </trkpt>
      <trkpt lat="43.1903120" lon="-0.9405070">
        <ele>174.4</ele>
        <time>2019-07-17T13:32:46Z</time>
      </trkpt>
      <trkpt lat="43.1903820" lon="-0.9403450">
        <ele>174.3</ele>
        <time>2019-07-17T13:32:48Z</time>
      </trkpt>
      <trkpt lat="43.1904540" lon="-0.9401870">
        <ele>174.3</ele>
        <time>2019-07-17T13:32:50Z</time>
      </trkpt>
      <trkpt lat="43.1905190" lon="-0.9400340">
        <ele>174.3</ele>
        <time>2019-07-17T13:32:52Z</time>
      </trkpt>
      <trkpt lat="43.1905850" lon="-0.9398920">
        <ele>174.2</ele>
        <time>2019-07-17T13:32:54Z</time>
      </trkpt>
      <trkpt lat="43.1906450" lon="-0.9397610">
        <ele>174.5</ele>
        <time>2019-07-17T13:32:56Z</time>
      </trkpt>
      <trkpt lat="43.1907010" lon="-0.9396350">
        <ele>174.9</ele>
        <time>2019-07-17T13:32:58Z</time>
      </trkpt>
      <trkpt lat="43.1907490" lon="-0.9395140">
        <ele>175.2</ele>
        <time>2019-07-17T13:33:00Z</time>
      </trkpt>
      <trkpt lat="43.1907980" lon="-0.9394050">
        <ele>175.6</ele>
        <time>2019-07-17T13:33:02Z</time>
      </trkpt>
      <trkpt lat="43.1908670" lon="-0.9392580">
        <ele>176.1</ele>
        <time>2019-07-17T13:33:05Z</time>
      </trkpt>
      <trkpt lat="43.1909320" lon="-0.9391270">
        <ele>176.6</ele>
        <time>2019-07-17T13:33:08Z</time>
      </trkpt>
      <trkpt lat="43.1909920" lon="-0.9390010">
        <ele>177.1</ele>
        <time>2019-07-17T13:33:11Z</time>
      </trkpt>
      <trkpt lat="43.1910470" lon="-0.9388700">
        <ele>177.6</ele>
        <time>2019-07-17T13:33:14Z</time>
      </trkpt>
      <trkpt lat="43.1911080" lon="-0.9387380">
        <ele>178.0</ele>
        <time>2019-07-17T13:33:17Z</time>
      </trkpt>
      <trkpt lat="43.1911710" lon="-0.9386050">
        <ele>178.4</ele>
        <time>2019-07-17T13:33:20Z</time>
      </trkpt>
      <trkpt lat="43.1912290" lon="-0.9384720">
        <ele>178.6</ele>
        <time>2019-07-17T13:33:23Z</time>
      </trkpt>
      <trkpt lat="43.1912900" lon="-0.9383420">
        <ele>178.9</ele>
        <time>2019-07-17T13:33:26Z</time>
      </trkpt>
      <trkpt lat="43.1913420" lon="-0.9382210">
        <ele>179.3</ele>
        <time>2019-07-17T13:33:29Z</time>
      </trkpt>
      <trkpt lat="43.1913990" lon="-0.9381070">
        <ele>179.6</ele>
        <time>2019-07-17T13:33:32Z</time>
      </trkpt>
      <trkpt lat="43.1914590" lon="-0.9379870">
        <ele>179.8</ele>
        <time>2019-07-17T13:33:35Z</time>
      </trkpt>
      <trkpt lat="43.1915090" lon="-0.9378710">
        <ele>180.0</ele>
        <time>2019-07-17T13:33:38Z</time>
      </trkpt>
      <trkpt lat="43.1915560" lon="-0.9377650">
        <ele>180.1</ele>
        <time>2019-07-17T13:33:41Z</time>
      </trkpt>
      <trkpt lat="43.1916050" lon="-0.9376540">
        <ele>180.1</ele>
        <time>2019-07-17T13:33:44Z</time>
      </trkpt>
      <trkpt lat="43.1916630" lon="-0.9375440">
        <ele>180.1</ele>
        <time>2019-07-17T13:33:47Z</time>
      </trkpt>
      <trkpt lat="43.1917150" lon="-0.9374290">
        <ele>180.1</ele>
        <time>2019-07-17T13:33:50Z</time>
      </trkpt>
      <trkpt lat="43.1917650" lon="-0.9373200">
        <ele>180.1</ele>
        <time>2019-07-17T13:33:53Z</time>
      </trkpt>
      <trkpt lat="43.1918170" lon="-0.9372110">
        <ele>180.0</ele>
        <time>2019-07-17T13:33:56Z</time>
      </trkpt>
      <trkpt lat="43.1918720" lon="-0.9370680">
        <ele>180.0</ele>
        <time>2019-07-17T13:34:00Z</time>
      </trkpt>
      <trkpt lat="43.1919090" lon="-0.9369190">
        <ele>180.0</ele>
        <time>2019-07-17T13:34:04Z</time>
      </trkpt>
      <trkpt lat="43.1919480" lon="-0.9367660">
        <ele>179.9</ele>
        <time>2019-07-17T13:34:08Z</time>
      </trkpt>
      <trkpt lat="43.1919770" lon="-0.9366230">
        <ele>179.9</ele>
        <time>2019-07-17T13:34:12Z</time>
      </trkpt>
      <trkpt lat="43.1919920" lon="-0.9364790">
        <ele>179.9</ele>
        <time>2019-07-17T13:34:16Z</time>
      </trkpt>
      <trkpt lat="43.1920160" lon="-0.9363270">
        <ele>179.9</ele>
        <time>2019-07-17T13:34:20Z</time>
      </trkpt>
      <trkpt lat="43.1920400" lon="-0.9361710">
        <ele>179.9</ele>
        <time>2019-07-17T13:34:24Z</time>
      </trkpt>
      <trkpt lat="43.1920620" lon="-0.9360210">
        <ele>179.9</ele>
        <time>2019-07-17T13:34:28Z</time>
      </trkpt>
      <trkpt lat="43.1920860" lon="-0.9358700">
        <ele>179.8</ele>
        <time>2019-07-17T13:34:32Z</time>
      </trkpt>
      <trkpt lat="43.1921010" lon="-0.9357460">
        <ele>179.8</ele>
        <time>2019-07-17T13:34:35Z</time>
      </trkpt>
      <trkpt lat="43.1921210" lon="-0.9356010">
        <ele>179.8</ele>
        <time>2019-07-17T13:34:39Z</time>
      </trkpt>
      <trkpt lat="43.1921390" lon="-0.9354590">
        <ele>179.8</ele>
        <time>2019-07-17T13:34:43Z</time>
      </trkpt>
      <trkpt lat="43.1921620" lon="-0.9353120">
        <ele>179.8</ele>
        <time>2019-07-17T13:34:47Z</time>
      </trkpt>
      <trkpt lat="43.1921840" lon="-0.9351810">
        <ele>179.8</ele>
        <time>2019-07-17T13:34:52Z</time>
      </trkpt>
      <trkpt lat="43.1922030" lon="-0.9350450">
        <ele>179.9</ele>
        <time>2019-07-17T13:34:57Z</time>
      </trkpt>
      <trkpt lat="43.1922220" lon="-0.9349180">
        <ele>180.0</ele>
        <time>2019-07-17T13:35:01Z</time>
      </trkpt>
      <trkpt lat="43.1922310" lon="-0.9347950">
        <ele>180.1</ele>
        <time>2019-07-17T13:35:05Z</time>
      </trkpt>
      <trkpt lat="43.1922480" lon="-0.9346550">
        <ele>180.2</ele>
        <time>2019-07-17T13:35:10Z</time>
      </trkpt>
      <trkpt lat="43.1922600" lon="-0.9345120">
        <ele>180.4</ele>
        <time>2019-07-17T13:35:15Z</time>
      </trkpt>
      <trkpt lat="43.1922760" lon="-0.9343660">
        <ele>180.5</ele>
        <time>2019-07-17T13:35:20Z</time>
      </trkpt>
      <trkpt lat="43.1922940" lon="-0.9342170">
        <ele>180.6</ele>
        <time>2019-07-17T13:35:25Z</time>
      </trkpt>
      <trkpt lat="43.1923120" lon="-0.9340960">
        <ele>180.8</ele>
        <time>2019-07-17T13:35:29Z</time>
      </trkpt>
      <trkpt lat="43.1923320" lon="-0.9339530">
        <ele>180.9</ele>
        <time>2019-07-17T13:35:34Z</time>
      </trkpt>
      <trkpt lat="43.1923520" lon="-0.9338290">
        <ele>181.1</ele>
        <time>2019-07-17T13:35:39Z</time>
      </trkpt>
      <trkpt lat="43.1923670" lon="-0.9337050">
        <ele>181.2</ele>
        <time>2019-07-17T13:35:44Z</time>
      </trkpt>
      <trkpt lat="43.1923830" lon="-0.9335740">
        <ele>181.3</ele>
        <time>2019-07-17T13:35:50Z</time>
      </trkpt>
      <trkpt lat="43.1924210" lon="-0.9334470">
        <ele>181.5</ele>
        <time>2019-07-17T13:35:57Z</time>
      </trkpt>
      <trkpt lat="43.1924230" lon="-0.9333150">
        <ele>181.8</ele>
        <time>2019-07-17T13:36:02Z</time>
      </trkpt>
      <trkpt lat="43.1924410" lon="-0.9331760">
        <ele>182.2</ele>
        <time>2019-07-17T13:36:08Z</time>
      </trkpt>
      <trkpt lat="43.1924580" lon="-0.9330340">
        <ele>182.5</ele>
        <time>2019-07-17T13:36:14Z</time>
      </trkpt>
      <trkpt lat="43.1924670" lon="-0.9329110">
        <ele>182.7</ele>
        <time>2019-07-17T13:36:19Z</time>
      </trkpt>
      <trkpt lat="43.1924830" lon="-0.9327830">
        <ele>182.9</ele>
        <time>2019-07-17T13:36:24Z</time>
      </trkpt>
      <trkpt lat="43.1925000" lon="-0.9326470">
        <ele>183.0</ele>
        <time>2019-07-17T13:36:29Z</time>
      </trkpt>
      <trkpt lat="43.1925260" lon="-0.9325050">
        <ele>183.1</ele>
        <time>2019-07-17T13:36:34Z</time>
      </trkpt>
      <trkpt lat="43.1925560" lon="-0.9323810">
        <ele>183.1</ele>
        <time>2019-07-17T13:36:39Z</time>
      </trkpt>
      <trkpt lat="43.1925960" lon="-0.9322700">
        <ele>183.0</ele>
        <time>2019-07-17T13:36:45Z</time>
      </trkpt>
      <trkpt lat="43.1926450" lon="-0.9321600">
        <ele>182.9</ele>
        <time>2019-07-17T13:36:51Z</time>
      </trkpt>
      <trkpt lat="43.1927060" lon="-0.9320410">
        <ele>182.7</ele>
        <time>2019-07-17T13:36:57Z</time>
      </trkpt>
      <trkpt lat="43.1927890" lon="-0.9319340">
        <ele>182.2</ele>
        <time>2019-07-17T13:37:02Z</time>
      </trkpt>
      <trkpt lat="43.1928730" lon="-0.9318060">
        <ele>181.4</ele>
        <time>2019-07-17T13:37:06Z</time>
      </trkpt>
      <trkpt lat="43.1929670" lon="-0.9316800">
        <ele>180.4</ele>
        <time>2019-07-17T13:37:09Z</time>
      </trkpt>
      <trkpt lat="43.1930430" lon="-0.9315820">
        <ele>179.6</ele>
        <time>2019-07-17T13:37:11Z</time>
      </trkpt>
      <trkpt lat="43.1931250" lon="-0.9315020">
        <ele>178.8</ele>
        <time>2019-07-17T13:37:13Z</time>
      </trkpt>
      <trkpt lat="43.1932250" lon="-0.9314530">
        <ele>177.9</ele>
        <time>2019-07-17T13:37:15Z</time>
      </trkpt>
      <trkpt lat="43.1933350" lon="-0.9314200">
        <ele>177.0</ele>
        <time>2019-07-17T13:37:17Z</time>
      </trkpt>
      <trkpt lat="43.1934740" lon="-0.9314050">
        <ele>175.9</ele>
        <time>2019-07-17T13:37:19Z</time>
      </trkpt>
      <trkpt lat="43.1936250" lon="-0.9314040">
        <ele>174.8</ele>
        <time>2019-07-17T13:37:21Z</time>
      </trkpt>
      <trkpt lat="43.1937900" lon="-0.9313940">
        <ele>173.9</ele>
        <time>2019-07-17T13:37:23Z</time>
      </trkpt>
      <trkpt lat="43.1939480" lon="-0.9313320">
        <ele>173.7</ele>
        <time>2019-07-17T13:37:25Z</time>
      </trkpt>
      <trkpt lat="43.1940900" lon="-0.9312120">
        <ele>173.5</ele>
        <time>2019-07-17T13:37:27Z</time>
      </trkpt>
      <trkpt lat="43.1941890" lon="-0.9310430">
        <ele>173.2</ele>
        <time>2019-07-17T13:37:29Z</time>
      </trkpt>
      <trkpt lat="43.1942540" lon="-0.9308380">
        <ele>172.7</ele>
        <time>2019-07-17T13:37:31Z</time>
      </trkpt>
      <trkpt lat="43.1942900" lon="-0.9306260">
        <ele>172.6</ele>
        <time>2019-07-17T13:37:33Z</time>
      </trkpt>
      <trkpt lat="43.1943110" lon="-0.9304230">
        <ele>172.7</ele>
        <time>2019-07-17T13:37:35Z</time>
      </trkpt>
      <trkpt lat="43.1943280" lon="-0.9302400">
        <ele>172.7</ele>
        <time>2019-07-17T13:37:37Z</time>
      </trkpt>
      <trkpt lat="43.1943410" lon="-0.9300710">
        <ele>172.7</ele>
        <time>2019-07-17T13:37:39Z</time>
      </trkpt>
      <trkpt lat="43.1943520" lon="-0.9299150">
        <ele>172.7</ele>
        <time>2019-07-17T13:37:41Z</time>
      </trkpt>
      <trkpt lat="43.1943600" lon="-0.9297750">
        <ele>172.7</ele>
        <time>2019-07-17T13:37:43Z</time>
      </trkpt>
      <trkpt lat="43.1943630" lon="-0.9296360">
        <ele>172.8</ele>
        <time>2019-07-17T13:37:45Z</time>
      </trkpt>
      <trkpt lat="43.1943710" lon="-0.9295010">
        <ele>172.8</ele>
        <time>2019-07-17T13:37:47Z</time>
      </trkpt>
      <trkpt lat="43.1943750" lon="-0.9293650">
        <ele>172.8</ele>
        <time>2019-07-17T13:37:49Z</time>
      </trkpt>
      <trkpt lat="43.1943790" lon="-0.9292350">
        <ele>172.8</ele>
        <time>2019-07-17T13:37:51Z</time>
      </trkpt>
      <trkpt lat="43.1943800" lon="-0.9291030">
        <ele>172.8</ele>
        <time>2019-07-17T13:37:53Z</time>
      </trkpt>
      <trkpt lat="43.1943850" lon="-0.9289680">
        <ele>172.8</ele>
        <time>2019-07-17T13:37:55Z</time>
      </trkpt>
      <trkpt lat="43.1943900" lon="-0.9288380">
        <ele>172.8</ele>
        <time>2019-07-17T13:37:57Z</time>
      </trkpt>
      <trkpt lat="43.1943950" lon="-0.9286570">
        <ele>172.7</ele>
        <time>2019-07-17T13:38:00Z</time>
      </trkpt>
      <trkpt lat="43.1944000" lon="-0.9284850">
        <ele>172.6</ele>
        <time>2019-07-17T13:38:03Z</time>
      </trkpt>
      <trkpt lat="43.1944010" lon="-0.9283130">
        <ele>172.5</ele>
        <time>2019-07-17T13:38:06Z</time>
      </trkpt>
      <trkpt lat="43.1944010" lon="-0.9281450">
        <ele>172.4</ele>
        <time>2019-07-17T13:38:09Z</time>
      </trkpt>
      <trkpt lat="43.1944050" lon="-0.9279810">
        <ele>172.3</ele>
        <time>2019-07-17T13:38:12Z</time>
      </trkpt>
      <trkpt lat="43.1944130" lon="-0.9278260">
        <ele>172.2</ele>
        <time>2019-07-17T13:38:15Z</time>
      </trkpt>
      <trkpt lat="43.1944050" lon="-0.9276630">
        <ele>172.1</ele>
        <time>2019-07-17T13:38:18Z</time>
      </trkpt>
      <trkpt lat="43.1943860" lon="-0.9275020">
        <ele>171.9</ele>
        <time>2019-07-17T13:38:21Z</time>
      </trkpt>
      <trkpt lat="43.1943510" lon="-0.9273410">
        <ele>171.6</ele>
        <time>2019-07-17T13:38:24Z</time>
      </trkpt>
      <trkpt lat="43.1943130" lon="-0.9271810">
        <ele>171.3</ele>
        <time>2019-07-17T13:38:27Z</time>
      </trkpt>
      <trkpt lat="43.1942770" lon="-0.9270170">
        <ele>170.9</ele>
        <time>2019-07-17T13:38:30Z</time>
      </trkpt>
      <trkpt lat="43.1942360" lon="-0.9268420">
        <ele>170.6</ele>
        <time>2019-07-17T13:38:33Z</time>
      </trkpt>
      <trkpt lat="43.1942020" lon="-0.9266680">
        <ele>170.2</ele>
        <time>2019-07-17T13:38:36Z</time>
      </trkpt>
      <trkpt lat="43.1941570" lon="-0.9265050">
        <ele>169.9</ele>
        <time>2019-07-17T13:38:39Z</time>
      </trkpt>
      <trkpt lat="43.1941230" lon="-0.9263450">
        <ele>169.7</ele>
        <time>2019-07-17T13:38:42Z</time>
      </trkpt>
      <trkpt lat="43.1940790" lon="-0.9261860">
        <ele>169.5</ele>
        <time>2019-07-17T13:38:45Z</time>
      </trkpt>
      <trkpt lat="43.1940410" lon="-0.9260230">
        <ele>169.4</ele>
        <time>2019-07-17T13:38:48Z</time>
      </trkpt>
      <trkpt lat="43.1940050" lon="-0.9258550">
        <ele>169.4</ele>
        <time>2019-07-17T13:38:51Z</time>
      </trkpt>
      <trkpt lat="43.1939720" lon="-0.9256820">
        <ele>169.2</ele>
        <time>2019-07-17T13:38:54Z</time>
      </trkpt>
      <trkpt lat="43.1939450" lon="-0.9255080">
        <ele>168.9</ele>
        <time>2019-07-17T13:38:57Z</time>
      </trkpt>
      <trkpt lat="43.1939300" lon="-0.9253840">
        <ele>168.6</ele>
        <time>2019-07-17T13:38:59Z</time>
      </trkpt>
      <trkpt lat="43.1939240" lon="-0.9252500">
        <ele>168.3</ele>
        <time>2019-07-17T13:39:01Z</time>
      </trkpt>
      <trkpt lat="43.1939230" lon="-0.9251070">
        <ele>167.9</ele>
        <time>2019-07-17T13:39:03Z</time>
      </trkpt>
      <trkpt lat="43.1939220" lon="-0.9249530">
        <ele>167.4</ele>
        <time>2019-07-17T13:39:05Z</time>
      </trkpt>
      <trkpt lat="43.1939210" lon="-0.9247910">
        <ele>167.1</ele>
        <time>2019-07-17T13:39:07Z</time>
      </trkpt>
      <trkpt lat="43.1939210" lon="-0.9246250">
        <ele>167.0</ele>
        <time>2019-07-17T13:39:09Z</time>
      </trkpt>
      <trkpt lat="43.1939210" lon="-0.9244470">
        <ele>166.9</ele>
        <time>2019-07-17T13:39:11Z</time>
      </trkpt>
      <trkpt lat="43.1939200" lon="-0.9242620">
        <ele>166.7</ele>
        <time>2019-07-17T13:39:13Z</time>
      </trkpt>
      <trkpt lat="43.1939210" lon="-0.9240700">
        <ele>166.5</ele>
        <time>2019-07-17T13:39:15Z</time>
      </trkpt>
      <trkpt lat="43.1939250" lon="-0.9238770">
        <ele>166.1</ele>
        <time>2019-07-17T13:39:17Z</time>
      </trkpt>
      <trkpt lat="43.1939300" lon="-0.9236730">
        <ele>165.7</ele>
        <time>2019-07-17T13:39:19Z</time>
      </trkpt>
      <trkpt lat="43.1939370" lon="-0.9234610">
        <ele>165.3</ele>
        <time>2019-07-17T13:39:21Z</time>
      </trkpt>
      <trkpt lat="43.1939420" lon="-0.9232430">
        <ele>164.9</ele>
        <time>2019-07-17T13:39:23Z</time>
      </trkpt>
      <trkpt lat="43.1939460" lon="-0.9230150">
        <ele>164.5</ele>
        <time>2019-07-17T13:39:25Z</time>
      </trkpt>
      <trkpt lat="43.1939480" lon="-0.9227930">
        <ele>164.3</ele>
        <time>2019-07-17T13:39:27Z</time>
      </trkpt>
      <trkpt lat="43.1939690" lon="-0.9225770">
        <ele>164.1</ele>
        <time>2019-07-17T13:39:29Z</time>
      </trkpt>
      <trkpt lat="43.1940080" lon="-0.9223720">
        <ele>163.9</ele>
        <time>2019-07-17T13:39:31Z</time>
      </trkpt>
      <trkpt lat="43.1940610" lon="-0.9221880">
        <ele>163.8</ele>
        <time>2019-07-17T13:39:33Z</time>
      </trkpt>
      <trkpt lat="43.1941300" lon="-0.9220270">
        <ele>163.7</ele>
        <time>2019-07-17T13:39:35Z</time>
      </trkpt>
      <trkpt lat="43.1942040" lon="-0.9218890">
        <ele>163.8</ele>
        <time>2019-07-17T13:39:37Z</time>
      </trkpt>
      <trkpt lat="43.1942790" lon="-0.9217710">
        <ele>163.8</ele>
        <time>2019-07-17T13:39:39Z</time>
      </trkpt>
      <trkpt lat="43.1943600" lon="-0.9216740">
        <ele>164.0</ele>
        <time>2019-07-17T13:39:41Z</time>
      </trkpt>
      <trkpt lat="43.1944390" lon="-0.9215800">
        <ele>164.1</ele>
        <time>2019-07-17T13:39:43Z</time>
      </trkpt>
      <trkpt lat="43.1945170" lon="-0.9214910">
        <ele>164.2</ele>
        <time>2019-07-17T13:39:45Z</time>
      </trkpt>
      <trkpt lat="43.1945980" lon="-0.9213950">
        <ele>164.2</ele>
        <time>2019-07-17T13:39:47Z</time>
      </trkpt>
      <trkpt lat="43.1946770" lon="-0.9213030">
        <ele>164.2</ele>
        <time>2019-07-17T13:39:49Z</time>
      </trkpt>
      <trkpt lat="43.1947550" lon="-0.9212130">
        <ele>164.4</ele>
        <time>2019-07-17T13:39:51Z</time>
      </trkpt>
      <trkpt lat="43.1948300" lon="-0.9211320">
        <ele>164.6</ele>
        <time>2019-07-17T13:39:53Z</time>
      </trkpt>
      <trkpt lat="43.1949020" lon="-0.9210560">
        <ele>164.7</ele>
        <time>2019-07-17T13:39:55Z</time>
      </trkpt>
      <trkpt lat="43.1949720" lon="-0.9209720">
        <ele>164.8</ele>
        <time>2019-07-17T13:39:57Z</time>
      </trkpt>
      <trkpt lat="43.1950400" lon="-0.9208870">
        <ele>164.7</ele>
        <time>2019-07-17T13:39:59Z</time>
      </trkpt>
      <trkpt lat="43.1951070" lon="-0.9207970">
        <ele>164.7</ele>
        <time>2019-07-17T13:40:01Z</time>
      </trkpt>
      <trkpt lat="43.1951700" lon="-0.9207010">
        <ele>164.8</ele>
        <time>2019-07-17T13:40:03Z</time>
      </trkpt>
      <trkpt lat="43.1952350" lon="-0.9206070">
        <ele>164.9</ele>
        <time>2019-07-17T13:40:05Z</time>
      </trkpt>
      <trkpt lat="43.1952990" lon="-0.9205100">
        <ele>165.2</ele>
        <time>2019-07-17T13:40:07Z</time>
      </trkpt>
      <trkpt lat="43.1953630" lon="-0.9204140">
        <ele>165.4</ele>
        <time>2019-07-17T13:40:09Z</time>
      </trkpt>
      <trkpt lat="43.1954240" lon="-0.9203230">
        <ele>165.6</ele>
        <time>2019-07-17T13:40:11Z</time>
      </trkpt>
      <trkpt lat="43.1954880" lon="-0.9202300">
        <ele>165.8</ele>
        <time>2019-07-17T13:40:13Z</time>
      </trkpt>
      <trkpt lat="43.1955770" lon="-0.9200970">
        <ele>166.4</ele>
        <time>2019-07-17T13:40:16Z</time>
      </trkpt>
      <trkpt lat="43.1956640" lon="-0.9199790">
        <ele>166.9</ele>
        <time>2019-07-17T13:40:19Z</time>
      </trkpt>
      <trkpt lat="43.1957310" lon="-0.9198720">
        <ele>167.4</ele>
        <time>2019-07-17T13:40:22Z</time>
      </trkpt>
      <trkpt lat="43.1957900" lon="-0.9197730">
        <ele>167.9</ele>
        <time>2019-07-17T13:40:25Z</time>
      </trkpt>
      <trkpt lat="43.1958690" lon="-0.9196490">
        <ele>168.5</ele>
        <time>2019-07-17T13:40:29Z</time>
      </trkpt>
      <trkpt lat="43.1959360" lon="-0.9195560">
        <ele>168.9</ele>
        <time>2019-07-17T13:40:32Z</time>
      </trkpt>
      <trkpt lat="43.1960130" lon="-0.9194310">
        <ele>169.5</ele>
        <time>2019-07-17T13:40:36Z</time>
      </trkpt>
      <trkpt lat="43.1960740" lon="-0.9193340">
        <ele>169.9</ele>
        <time>2019-07-17T13:40:39Z</time>
      </trkpt>
      <trkpt lat="43.1961350" lon="-0.9192400">
        <ele>170.3</ele>
        <time>2019-07-17T13:40:42Z</time>
      </trkpt>
      <trkpt lat="43.1962190" lon="-0.9191230">
        <ele>170.7</ele>
        <time>2019-07-17T13:40:46Z</time>
      </trkpt>
      <trkpt lat="43.1962840" lon="-0.9190340">
        <ele>171.0</ele>
        <time>2019-07-17T13:40:49Z</time>
      </trkpt>
      <trkpt lat="43.1963510" lon="-0.9189450">
        <ele>171.3</ele>
        <time>2019-07-17T13:40:52Z</time>
      </trkpt>
      <trkpt lat="43.1964150" lon="-0.9188510">
        <ele>172.0</ele>
        <time>2019-07-17T13:40:55Z</time>
      </trkpt>
      <trkpt lat="43.1964790" lon="-0.9187500">
        <ele>172.8</ele>
        <time>2019-07-17T13:40:58Z</time>
      </trkpt>
      <trkpt lat="43.1965600" lon="-0.9186380">
        <ele>173.0</ele>
        <time>2019-07-17T13:41:01Z</time>
      </trkpt>
      <trkpt lat="43.1966350" lon="-0.9185220">
        <ele>173.1</ele>
        <time>2019-07-17T13:41:04Z</time>
      </trkpt>
      <trkpt lat="43.1967110" lon="-0.9184090">
        <ele>173.3</ele>
        <time>2019-07-17T13:41:07Z</time>
      </trkpt>
      <trkpt lat="43.1967900" lon="-0.9182950">
        <ele>173.3</ele>
        <time>2019-07-17T13:41:10Z</time>
      </trkpt>
      <trkpt lat="43.1968710" lon="-0.9181810">
        <ele>173.3</ele>
        <time>2019-07-17T13:41:13Z</time>
      </trkpt>
      <trkpt lat="43.1969500" lon="-0.9180690">
        <ele>173.2</ele>
        <time>2019-07-17T13:41:16Z</time>
      </trkpt>
      <trkpt lat="43.1970280" lon="-0.9179530">
        <ele>173.2</ele>
        <time>2019-07-17T13:41:19Z</time>
      </trkpt>
      <trkpt lat="43.1971090" lon="-0.9178380">
        <ele>173.0</ele>
        <time>2019-07-17T13:41:22Z</time>
      </trkpt>
      <trkpt lat="43.1971980" lon="-0.9177180">
        <ele>172.9</ele>
        <time>2019-07-17T13:41:25Z</time>
      </trkpt>
      <trkpt lat="43.1972770" lon="-0.9175940">
        <ele>172.8</ele>
        <time>2019-07-17T13:41:28Z</time>
      </trkpt>
      <trkpt lat="43.1973590" lon="-0.9174660">
        <ele>172.7</ele>
        <time>2019-07-17T13:41:31Z</time>
      </trkpt>
      <trkpt lat="43.1974440" lon="-0.9173410">
        <ele>172.6</ele>
        <time>2019-07-17T13:41:34Z</time>
      </trkpt>
      <trkpt lat="43.1975350" lon="-0.9172060">
        <ele>172.6</ele>
        <time>2019-07-17T13:41:37Z</time>
      </trkpt>
      <trkpt lat="43.1976200" lon="-0.9170770">
        <ele>172.5</ele>
        <time>2019-07-17T13:41:40Z</time>
      </trkpt>
      <trkpt lat="43.1977080" lon="-0.9169390">
        <ele>172.5</ele>
        <time>2019-07-17T13:41:43Z</time>
      </trkpt>
      <trkpt lat="43.1977990" lon="-0.9168050">
        <ele>172.4</ele>
        <time>2019-07-17T13:41:46Z</time>
      </trkpt>
      <trkpt lat="43.1978840" lon="-0.9166770">
        <ele>172.3</ele>
        <time>2019-07-17T13:41:49Z</time>
      </trkpt>
      <trkpt lat="43.1979700" lon="-0.9165530">
        <ele>172.2</ele>
        <time>2019-07-17T13:41:52Z</time>
      </trkpt>
      <trkpt lat="43.1980520" lon="-0.9164340">
        <ele>172.1</ele>
        <time>2019-07-17T13:41:55Z</time>
      </trkpt>
      <trkpt lat="43.1981220" lon="-0.9163310">
        <ele>172.1</ele>
        <time>2019-07-17T13:41:58Z</time>
      </trkpt>
      <trkpt lat="43.1981150" lon="-0.9161950">
        <ele>170.8</ele>
        <time>2019-07-17T13:42:03Z</time>
      </trkpt>
      <trkpt lat="43.1980050" lon="-0.9162070">
        <ele>170.0</ele>
        <time>2019-07-17T13:42:06Z</time>
      </trkpt>
      <trkpt lat="43.1979160" lon="-0.9162450">
        <ele>169.4</ele>
        <time>2019-07-17T13:42:08Z</time>
      </trkpt>
      <trkpt lat="43.1978120" lon="-0.9162480">
        <ele>168.7</ele>
        <time>2019-07-17T13:42:10Z</time>
      </trkpt>
      <trkpt lat="43.1977120" lon="-0.9162650">
        <ele>168.0</ele>
        <time>2019-07-17T13:42:12Z</time>
      </trkpt>
      <trkpt lat="43.1976190" lon="-0.9162830">
        <ele>167.4</ele>
        <time>2019-07-17T13:42:14Z</time>
      </trkpt>
      <trkpt lat="43.1975190" lon="-0.9163010">
        <ele>166.7</ele>
        <time>2019-07-17T13:42:16Z</time>
      </trkpt>
      <trkpt lat="43.1974230" lon="-0.9163240">
        <ele>166.0</ele>
        <time>2019-07-17T13:42:18Z</time>
      </trkpt>
      <trkpt lat="43.1973290" lon="-0.9163470">
        <ele>165.2</ele>
        <time>2019-07-17T13:42:20Z</time>
      </trkpt>
      <trkpt lat="43.1972340" lon="-0.9163730">
        <ele>164.6</ele>
        <time>2019-07-17T13:42:22Z</time>
      </trkpt>
      <trkpt lat="43.1971420" lon="-0.9163940">
        <ele>164.0</ele>
        <time>2019-07-17T13:42:24Z</time>
      </trkpt>
      <trkpt lat="43.1970480" lon="-0.9164150">
        <ele>163.4</ele>
        <time>2019-07-17T13:42:26Z</time>
      </trkpt>
      <trkpt lat="43.1969510" lon="-0.9164360">
        <ele>162.8</ele>
        <time>2019-07-17T13:42:28Z</time>
      </trkpt>
      <trkpt lat="43.1968500" lon="-0.9164550">
        <ele>162.2</ele>
        <time>2019-07-17T13:42:30Z</time>
      </trkpt>
      <trkpt lat="43.1967490" lon="-0.9164750">
        <ele>161.7</ele>
        <time>2019-07-17T13:42:32Z</time>
      </trkpt>
      <trkpt lat="43.1966390" lon="-0.9164960">
        <ele>160.9</ele>
        <time>2019-07-17T13:42:34Z</time>
      </trkpt>
      <trkpt lat="43.1965320" lon="-0.9165270">
        <ele>160.2</ele>
        <time>2019-07-17T13:42:36Z</time>
      </trkpt>
      <trkpt lat="43.1964230" lon="-0.9165520">
        <ele>159.5</ele>
        <time>2019-07-17T13:42:38Z</time>
      </trkpt>
      <trkpt lat="43.1963170" lon="-0.9165720">
        <ele>158.7</ele>
        <time>2019-07-17T13:42:40Z</time>
      </trkpt>
      <trkpt lat="43.1962150" lon="-0.9165800">
        <ele>157.9</ele>
        <time>2019-07-17T13:42:42Z</time>
      </trkpt>
      <trkpt lat="43.1961180" lon="-0.9165710">
        <ele>157.0</ele>
        <time>2019-07-17T13:42:44Z</time>
      </trkpt>
      <trkpt lat="43.1959980" lon="-0.9165480">
        <ele>156.2</ele>
        <time>2019-07-17T13:42:47Z</time>
      </trkpt>
      <trkpt lat="43.1959030" lon="-0.9165240">
        <ele>156.1</ele>
        <time>2019-07-17T13:42:50Z</time>
      </trkpt>
      <trkpt lat="43.1957930" lon="-0.9164810">
        <ele>156.2</ele>
        <time>2019-07-17T13:42:54Z</time>
      </trkpt>
      <trkpt lat="43.1957020" lon="-0.9164360">
        <ele>156.8</ele>
        <time>2019-07-17T13:42:57Z</time>
      </trkpt>
      <trkpt lat="43.1956160" lon="-0.9163940">
        <ele>157.4</ele>
        <time>2019-07-17T13:43:00Z</time>
      </trkpt>
      <trkpt lat="43.1955210" lon="-0.9163350">
        <ele>158.0</ele>
        <time>2019-07-17T13:43:04Z</time>
      </trkpt>
      <trkpt lat="43.1954400" lon="-0.9162750">
        <ele>158.5</ele>
        <time>2019-07-17T13:43:08Z</time>
      </trkpt>
      <trkpt lat="43.1953560" lon="-0.9162040">
        <ele>159.0</ele>
        <time>2019-07-17T13:43:14Z</time>
      </trkpt>
      <trkpt lat="43.1952750" lon="-0.9161380">
        <ele>159.4</ele>
        <time>2019-07-17T13:43:21Z</time>
      </trkpt>
      <trkpt lat="43.1951940" lon="-0.9160680">
        <ele>159.7</ele>
        <time>2019-07-17T13:43:29Z</time>
      </trkpt>
      <trkpt lat="43.1951130" lon="-0.9159920">
        <ele>159.9</ele>
        <time>2019-07-17T13:43:37Z</time>
      </trkpt>
      <trkpt lat="43.1950290" lon="-0.9159330">
        <ele>160.0</ele>
        <time>2019-07-17T13:43:44Z</time>
      </trkpt>
      <trkpt lat="43.1949440" lon="-0.9158740">
        <ele>160.1</ele>
        <time>2019-07-17T13:43:51Z</time>
      </trkpt>
      <trkpt lat="43.1948400" lon="-0.9158410">
        <ele>160.1</ele>
        <time>2019-07-17T13:43:57Z</time>
      </trkpt>
      <trkpt lat="43.1947380" lon="-0.9158120">
        <ele>160.1</ele>
        <time>2019-07-17T13:44:02Z</time>
      </trkpt>
      <trkpt lat="43.1946270" lon="-0.9157780">
        <ele>160.1</ele>
        <time>2019-07-17T13:44:06Z</time>
      </trkpt>
      <trkpt lat="43.1945330" lon="-0.9157640">
        <ele>160.1</ele>
        <time>2019-07-17T13:44:09Z</time>
      </trkpt>
      <trkpt lat="43.1944410" lon="-0.9157560">
        <ele>160.3</ele>
        <time>2019-07-17T13:44:12Z</time>
      </trkpt>
      <trkpt lat="43.1943440" lon="-0.9157740">
        <ele>160.4</ele>
        <time>2019-07-17T13:44:15Z</time>
      </trkpt>
      <trkpt lat="43.1942360" lon="-0.9157910">
        <ele>160.5</ele>
        <time>2019-07-17T13:44:18Z</time>
      </trkpt>
      <trkpt lat="43.1941280" lon="-0.9158240">
        <ele>160.6</ele>
        <time>2019-07-17T13:44:21Z</time>
      </trkpt>
      <trkpt lat="43.1940300" lon="-0.9158660">
        <ele>160.6</ele>
        <time>2019-07-17T13:44:24Z</time>
      </trkpt>
      <trkpt lat="43.1939310" lon="-0.9159120">
        <ele>160.7</ele>
        <time>2019-07-17T13:44:27Z</time>
      </trkpt>
      <trkpt lat="43.1938240" lon="-0.9159400">
        <ele>160.8</ele>
        <time>2019-07-17T13:44:30Z</time>
      </trkpt>
      <trkpt lat="43.1937090" lon="-0.9159630">
        <ele>160.9</ele>
        <time>2019-07-17T13:44:33Z</time>
      </trkpt>
      <trkpt lat="43.1935870" lon="-0.9159680">
        <ele>161.0</ele>
        <time>2019-07-17T13:44:36Z</time>
      </trkpt>
      <trkpt lat="43.1934640" lon="-0.9159430">
        <ele>161.1</ele>
        <time>2019-07-17T13:44:39Z</time>
      </trkpt>
      <trkpt lat="43.1933430" lon="-0.9159090">
        <ele>161.1</ele>
        <time>2019-07-17T13:44:42Z</time>
      </trkpt>
      <trkpt lat="43.1932170" lon="-0.9158770">
        <ele>161.2</ele>
        <time>2019-07-17T13:44:45Z</time>
      </trkpt>
      <trkpt lat="43.1930880" lon="-0.9158480">
        <ele>161.3</ele>
        <time>2019-07-17T13:44:48Z</time>
      </trkpt>
      <trkpt lat="43.1929570" lon="-0.9158340">
        <ele>161.4</ele>
        <time>2019-07-17T13:44:51Z</time>
      </trkpt>
      <trkpt lat="43.1928640" lon="-0.9158360">
        <ele>161.4</ele>
        <time>2019-07-17T13:44:53Z</time>
      </trkpt>
      <trkpt lat="43.1927700" lon="-0.9158490">
        <ele>161.5</ele>
        <time>2019-07-17T13:44:55Z</time>
      </trkpt>
      <trkpt lat="43.1926800" lon="-0.9158670">
        <ele>161.5</ele>
        <time>2019-07-17T13:44:57Z</time>
      </trkpt>
      <trkpt lat="43.1925920" lon="-0.9158940">
        <ele>161.6</ele>
        <time>2019-07-17T13:44:59Z</time>
      </trkpt>
      <trkpt lat="43.1924630" lon="-0.9159280">
        <ele>161.7</ele>
        <time>2019-07-17T13:45:02Z</time>
      </trkpt>
      <trkpt lat="43.1923340" lon="-0.9159700">
        <ele>161.8</ele>
        <time>2019-07-17T13:45:05Z</time>
      </trkpt>
      <trkpt lat="43.1922210" lon="-0.9160180">
        <ele>161.8</ele>
        <time>2019-07-17T13:45:08Z</time>
      </trkpt>
      <trkpt lat="43.1921050" lon="-0.9160610">
        <ele>161.9</ele>
        <time>2019-07-17T13:45:11Z</time>
      </trkpt>
      <trkpt lat="43.1919940" lon="-0.9161070">
        <ele>162.0</ele>
        <time>2019-07-17T13:45:14Z</time>
      </trkpt>
      <trkpt lat="43.1918880" lon="-0.9161460">
        <ele>162.0</ele>
        <time>2019-07-17T13:45:17Z</time>
      </trkpt>
      <trkpt lat="43.1917860" lon="-0.9161960">
        <ele>162.1</ele>
        <time>2019-07-17T13:45:20Z</time>
      </trkpt>
      <trkpt lat="43.1916780" lon="-0.9162370">
        <ele>162.1</ele>
        <time>2019-07-17T13:45:23Z</time>
      </trkpt>
      <trkpt lat="43.1915660" lon="-0.9162800">
        <ele>162.2</ele>
        <time>2019-07-17T13:45:26Z</time>
      </trkpt>
      <trkpt lat="43.1914520" lon="-0.9163160">
        <ele>162.3</ele>
        <time>2019-07-17T13:45:29Z</time>
      </trkpt>
      <trkpt lat="43.1913330" lon="-0.9163290">
        <ele>162.3</ele>
        <time>2019-07-17T13:45:32Z</time>
      </trkpt>
      <trkpt lat="43.1912130" lon="-0.9163150">
        <ele>162.4</ele>
        <time>2019-07-17T13:45:35Z</time>
      </trkpt>
      <trkpt lat="43.1910990" lon="-0.9163170">
        <ele>162.4</ele>
        <time>2019-07-17T13:45:38Z</time>
      </trkpt>
      <trkpt lat="43.1909760" lon="-0.9163260">
        <ele>162.4</ele>
        <time>2019-07-17T13:45:41Z</time>
      </trkpt>
      <trkpt lat="43.1908580" lon="-0.9163530">
        <ele>162.5</ele>
        <time>2019-07-17T13:45:44Z</time>
      </trkpt>
      <trkpt lat="43.1907470" lon="-0.9163990">
        <ele>162.5</ele>
        <time>2019-07-17T13:45:47Z</time>
      </trkpt>
      <trkpt lat="43.1906410" lon="-0.9164480">
        <ele>162.5</ele>
        <time>2019-07-17T13:45:50Z</time>
      </trkpt>
      <trkpt lat="43.1905280" lon="-0.9165070">
        <ele>162.5</ele>
        <time>2019-07-17T13:45:53Z</time>
      </trkpt>
      <trkpt lat="43.1904160" lon="-0.9165730">
        <ele>162.6</ele>
        <time>2019-07-17T13:45:56Z</time>
      </trkpt>
      <trkpt lat="43.1903070" lon="-0.9166540">
        <ele>162.6</ele>
        <time>2019-07-17T13:45:59Z</time>
      </trkpt>
      <trkpt lat="43.1902230" lon="-0.9167050">
        <ele>162.6</ele>
        <time>2019-07-17T13:46:01Z</time>
      </trkpt>
      <trkpt lat="43.1901380" lon="-0.9167600">
        <ele>162.6</ele>
        <time>2019-07-17T13:46:03Z</time>
      </trkpt>
      <trkpt lat="43.1900490" lon="-0.9168170">
        <ele>162.6</ele>
        <time>2019-07-17T13:46:05Z</time>
      </trkpt>
      <trkpt lat="43.1899540" lon="-0.9168650">
        <ele>162.7</ele>
        <time>2019-07-17T13:46:07Z</time>
      </trkpt>
      <trkpt lat="43.1898590" lon="-0.9169100">
        <ele>162.7</ele>
        <time>2019-07-17T13:46:09Z</time>
      </trkpt>
      <trkpt lat="43.1897660" lon="-0.9169450">
        <ele>162.7</ele>
        <time>2019-07-17T13:46:11Z</time>
      </trkpt>
      <trkpt lat="43.1896770" lon="-0.9169650">
        <ele>162.7</ele>
        <time>2019-07-17T13:46:13Z</time>
      </trkpt>
      <trkpt lat="43.1895500" lon="-0.9169960">
        <ele>162.8</ele>
        <time>2019-07-17T13:46:16Z</time>
      </trkpt>
      <trkpt lat="43.1894180" lon="-0.9170170">
        <ele>162.8</ele>
        <time>2019-07-17T13:46:19Z</time>
      </trkpt>
      <trkpt lat="43.1893250" lon="-0.9170340">
        <ele>162.8</ele>
        <time>2019-07-17T13:46:21Z</time>
      </trkpt>
      <trkpt lat="43.1892280" lon="-0.9170470">
        <ele>162.8</ele>
        <time>2019-07-17T13:46:23Z</time>
      </trkpt>
      <trkpt lat="43.1891300" lon="-0.9170610">
        <ele>162.8</ele>
        <time>2019-07-17T13:46:25Z</time>
      </trkpt>
      <trkpt lat="43.1890340" lon="-0.9170830">
        <ele>162.9</ele>
        <time>2019-07-17T13:46:27Z</time>
      </trkpt>
      <trkpt lat="43.1889420" lon="-0.9171100">
        <ele>162.9</ele>
        <time>2019-07-17T13:46:29Z</time>
      </trkpt>
      <trkpt lat="43.1888140" lon="-0.9171500">
        <ele>162.9</ele>
        <time>2019-07-17T13:46:32Z</time>
      </trkpt>
      <trkpt lat="43.1886950" lon="-0.9171930">
        <ele>162.9</ele>
        <time>2019-07-17T13:46:35Z</time>
      </trkpt>
      <trkpt lat="43.1885800" lon="-0.9172200">
        <ele>162.9</ele>
        <time>2019-07-17T13:46:38Z</time>
      </trkpt>
      <trkpt lat="43.1884720" lon="-0.9172480">
        <ele>163.0</ele>
        <time>2019-07-17T13:46:41Z</time>
      </trkpt>
      <trkpt lat="43.1883660" lon="-0.9172780">
        <ele>163.0</ele>
        <time>2019-07-17T13:46:44Z</time>
      </trkpt>
      <trkpt lat="43.1882610" lon="-0.9172950">
        <ele>163.0</ele>
        <time>2019-07-17T13:46:47Z</time>
      </trkpt>
      <trkpt lat="43.1881580" lon="-0.9173050">
        <ele>163.0</ele>
        <time>2019-07-17T13:46:50Z</time>
      </trkpt>
      <trkpt lat="43.1880570" lon="-0.9173210">
        <ele>163.1</ele>
        <time>2019-07-17T13:46:53Z</time>
      </trkpt>
      <trkpt lat="43.1879570" lon="-0.9173310">
        <ele>163.1</ele>
        <time>2019-07-17T13:46:56Z</time>
      </trkpt>
      <trkpt lat="43.1878520" lon="-0.9173340">
        <ele>163.1</ele>
        <time>2019-07-17T13:46:59Z</time>
      </trkpt>
      <trkpt lat="43.1877530" lon="-0.9173230">
        <ele>163.2</ele>
        <time>2019-07-17T13:47:02Z</time>
      </trkpt>
      <trkpt lat="43.1876600" lon="-0.9172850">
        <ele>163.3</ele>
        <time>2019-07-17T13:47:05Z</time>
      </trkpt>
      <trkpt lat="43.1875700" lon="-0.9172570">
        <ele>163.4</ele>
        <time>2019-07-17T13:47:08Z</time>
      </trkpt>
      <trkpt lat="43.1874620" lon="-0.9171840">
        <ele>163.4</ele>
        <time>2019-07-17T13:47:12Z</time>
      </trkpt>
      <trkpt lat="43.1873780" lon="-0.9171360">
        <ele>163.5</ele>
        <time>2019-07-17T13:47:15Z</time>
      </trkpt>
      <trkpt lat="43.1872770" lon="-0.9170780">
        <ele>163.6</ele>
        <time>2019-07-17T13:47:19Z</time>
      </trkpt>
      <trkpt lat="43.1871700" lon="-0.9170130">
        <ele>163.6</ele>
        <time>2019-07-17T13:47:23Z</time>
      </trkpt>
      <trkpt lat="43.1870760" lon="-0.9169670">
        <ele>163.6</ele>
        <time>2019-07-17T13:47:26Z</time>
      </trkpt>
      <trkpt lat="43.1869720" lon="-0.9169100">
        <ele>163.7</ele>
        <time>2019-07-17T13:47:29Z</time>
      </trkpt>
      <trkpt lat="43.1868690" lon="-0.9168580">
        <ele>163.7</ele>
        <time>2019-07-17T13:47:32Z</time>
      </trkpt>
      <trkpt lat="43.1867710" lon="-0.9168030">
        <ele>163.7</ele>
        <time>2019-07-17T13:47:35Z</time>
      </trkpt>
      <trkpt lat="43.1866690" lon="-0.9167450">
        <ele>163.7</ele>
        <time>2019-07-17T13:47:38Z</time>
      </trkpt>
      <trkpt lat="43.1865670" lon="-0.9166940">
        <ele>163.7</ele>
        <time>2019-07-17T13:47:41Z</time>
      </trkpt>
      <trkpt lat="43.1864700" lon="-0.9166430">
        <ele>163.6</ele>
        <time>2019-07-17T13:47:44Z</time>
      </trkpt>
      <trkpt lat="43.1863710" lon="-0.9166090">
        <ele>163.6</ele>
        <time>2019-07-17T13:47:47Z</time>
      </trkpt>
      <trkpt lat="43.1862760" lon="-0.9165840">
        <ele>163.6</ele>
        <time>2019-07-17T13:47:50Z</time>
      </trkpt>
      <trkpt lat="43.1861720" lon="-0.9165680">
        <ele>163.6</ele>
        <time>2019-07-17T13:47:54Z</time>
      </trkpt>
      <trkpt lat="43.1860780" lon="-0.9165480">
        <ele>163.6</ele>
        <time>2019-07-17T13:47:58Z</time>
      </trkpt>
      <trkpt lat="43.1859770" lon="-0.9165170">
        <ele>163.6</ele>
        <time>2019-07-17T13:48:02Z</time>
      </trkpt>
      <trkpt lat="43.1858650" lon="-0.9165020">
        <ele>163.6</ele>
        <time>2019-07-17T13:48:07Z</time>
      </trkpt>
      <trkpt lat="43.1857720" lon="-0.9164930">
        <ele>163.6</ele>
        <time>2019-07-17T13:48:11Z</time>
      </trkpt>
      <trkpt lat="43.1856760" lon="-0.9164780">
        <ele>163.6</ele>
        <time>2019-07-17T13:48:15Z</time>
      </trkpt>
      <trkpt lat="43.1855790" lon="-0.9164590">
        <ele>163.6</ele>
        <time>2019-07-17T13:48:19Z</time>
      </trkpt>
      <trkpt lat="43.1854840" lon="-0.9164470">
        <ele>163.6</ele>
        <time>2019-07-17T13:48:23Z</time>
      </trkpt>
      <trkpt lat="43.1853870" lon="-0.9164380">
        <ele>163.5</ele>
        <time>2019-07-17T13:48:27Z</time>
      </trkpt>
      <trkpt lat="43.1852850" lon="-0.9164180">
        <ele>163.5</ele>
        <time>2019-07-17T13:48:31Z</time>
      </trkpt>
      <trkpt lat="43.1851910" lon="-0.9164060">
        <ele>163.4</ele>
        <time>2019-07-17T13:48:35Z</time>
      </trkpt>
      <trkpt lat="43.1850840" lon="-0.9163980">
        <ele>163.4</ele>
        <time>2019-07-17T13:48:39Z</time>
      </trkpt>
      <trkpt lat="43.1849830" lon="-0.9163800">
        <ele>163.3</ele>
        <time>2019-07-17T13:48:43Z</time>
      </trkpt>
      <trkpt lat="43.1848810" lon="-0.9163670">
        <ele>163.2</ele>
        <time>2019-07-17T13:48:47Z</time>
      </trkpt>
      <trkpt lat="43.1847730" lon="-0.9163630">
        <ele>163.2</ele>
        <time>2019-07-17T13:48:51Z</time>
      </trkpt>
      <trkpt lat="43.1846670" lon="-0.9163450">
        <ele>163.2</ele>
        <time>2019-07-17T13:48:55Z</time>
      </trkpt>
      <trkpt lat="43.1845560" lon="-0.9163300">
        <ele>163.2</ele>
        <time>2019-07-17T13:48:59Z</time>
      </trkpt>
      <trkpt lat="43.1844430" lon="-0.9163100">
        <ele>163.2</ele>
        <time>2019-07-17T13:49:03Z</time>
      </trkpt>
      <trkpt lat="43.1843340" lon="-0.9162950">
        <ele>163.2</ele>
        <time>2019-07-17T13:49:07Z</time>
      </trkpt>
      <trkpt lat="43.1842230" lon="-0.9162830">
        <ele>163.2</ele>
        <time>2019-07-17T13:49:11Z</time>
      </trkpt>
      <trkpt lat="43.1841160" lon="-0.9162650">
        <ele>163.4</ele>
        <time>2019-07-17T13:49:15Z</time>
      </trkpt>
      <trkpt lat="43.1840080" lon="-0.9162550">
        <ele>163.6</ele>
        <time>2019-07-17T13:49:19Z</time>
      </trkpt>
      <trkpt lat="43.1839100" lon="-0.9162440">
        <ele>163.7</ele>
        <time>2019-07-17T13:49:23Z</time>
      </trkpt>
      <trkpt lat="43.1838030" lon="-0.9162190">
        <ele>163.9</ele>
        <time>2019-07-17T13:49:28Z</time>
      </trkpt>
      <trkpt lat="43.1837000" lon="-0.9162070">
        <ele>164.1</ele>
        <time>2019-07-17T13:49:33Z</time>
      </trkpt>
      <trkpt lat="43.1835990" lon="-0.9161990">
        <ele>164.3</ele>
        <time>2019-07-17T13:49:38Z</time>
      </trkpt>
      <trkpt lat="43.1835000" lon="-0.9161810">
        <ele>164.5</ele>
        <time>2019-07-17T13:49:43Z</time>
      </trkpt>
      <trkpt lat="43.1833980" lon="-0.9161770">
        <ele>164.8</ele>
        <time>2019-07-17T13:49:48Z</time>
      </trkpt>
      <trkpt lat="43.1832910" lon="-0.9161780">
        <ele>165.2</ele>
        <time>2019-07-17T13:49:53Z</time>
      </trkpt>
      <trkpt lat="43.1831820" lon="-0.9161800">
        <ele>165.6</ele>
        <time>2019-07-17T13:49:58Z</time>
      </trkpt>
      <trkpt lat="43.1830900" lon="-0.9161870">
        <ele>165.9</ele>
        <time>2019-07-17T13:50:02Z</time>
      </trkpt>
      <trkpt lat="43.1829880" lon="-0.9161850">
        <ele>166.2</ele>
        <time>2019-07-17T13:50:06Z</time>
      </trkpt>
      <trkpt lat="43.1828830" lon="-0.9161900">
        <ele>166.4</ele>
        <time>2019-07-17T13:50:10Z</time>
      </trkpt>
      <trkpt lat="43.1827760" lon="-0.9161960">
        <ele>166.5</ele>
        <time>2019-07-17T13:50:14Z</time>
      </trkpt>
      <trkpt lat="43.1826680" lon="-0.9162070">
        <ele>166.7</ele>
        <time>2019-07-17T13:50:18Z</time>
      </trkpt>
      <trkpt lat="43.1825550" lon="-0.9162090">
        <ele>166.8</ele>
        <time>2019-07-17T13:50:22Z</time>
      </trkpt>
      <trkpt lat="43.1824430" lon="-0.9162110">
        <ele>166.9</ele>
        <time>2019-07-17T13:50:26Z</time>
      </trkpt>
      <trkpt lat="43.1823520" lon="-0.9162190">
        <ele>167.0</ele>
        <time>2019-07-17T13:50:29Z</time>
      </trkpt>
      <trkpt lat="43.1822360" lon="-0.9162150">
        <ele>167.0</ele>
        <time>2019-07-17T13:50:33Z</time>
      </trkpt>
      <trkpt lat="43.1821200" lon="-0.9162130">
        <ele>167.1</ele>
        <time>2019-07-17T13:50:37Z</time>
      </trkpt>
      <trkpt lat="43.1820040" lon="-0.9162130">
        <ele>167.3</ele>
        <time>2019-07-17T13:50:41Z</time>
      </trkpt>
      <trkpt lat="43.1819120" lon="-0.9162100">
        <ele>167.5</ele>
        <time>2019-07-17T13:50:44Z</time>
      </trkpt>
      <trkpt lat="43.1818170" lon="-0.9161980">
        <ele>167.7</ele>
        <time>2019-07-17T13:50:47Z</time>
      </trkpt>
      <trkpt lat="43.1817150" lon="-0.9161990">
        <ele>167.9</ele>
        <time>2019-07-17T13:50:50Z</time>
      </trkpt>
      <trkpt lat="43.1816100" lon="-0.9161920">
        <ele>168.1</ele>
        <time>2019-07-17T13:50:53Z</time>
      </trkpt>
      <trkpt lat="43.1815030" lon="-0.9161820">
        <ele>168.2</ele>
        <time>2019-07-17T13:50:56Z</time>
      </trkpt>
      <trkpt lat="43.1814000" lon="-0.9161690">
        <ele>168.3</ele>
        <time>2019-07-17T13:50:59Z</time>
      </trkpt>
      <trkpt lat="43.1812900" lon="-0.9161710">
        <ele>168.5</ele>
        <time>2019-07-17T13:51:02Z</time>
      </trkpt>
      <trkpt lat="43.1811850" lon="-0.9161940">
        <ele>168.7</ele>
        <time>2019-07-17T13:51:05Z</time>
      </trkpt>
      <trkpt lat="43.1810840" lon="-0.9162130">
        <ele>169.0</ele>
        <time>2019-07-17T13:51:08Z</time>
      </trkpt>
      <trkpt lat="43.1809810" lon="-0.9162230">
        <ele>169.1</ele>
        <time>2019-07-17T13:51:11Z</time>
      </trkpt>
      <trkpt lat="43.1808790" lon="-0.9162210">
        <ele>169.3</ele>
        <time>2019-07-17T13:51:14Z</time>
      </trkpt>
      <trkpt lat="43.1807860" lon="-0.9162140">
        <ele>169.5</ele>
        <time>2019-07-17T13:51:17Z</time>
      </trkpt>
      <trkpt lat="43.1806780" lon="-0.9162010">
        <ele>169.6</ele>
        <time>2019-07-17T13:51:21Z</time>
      </trkpt>
      <trkpt lat="43.1805660" lon="-0.9162110">
        <ele>169.8</ele>
        <time>2019-07-17T13:51:25Z</time>
      </trkpt>
      <trkpt lat="43.1804510" lon="-0.9162250">
        <ele>170.1</ele>
        <time>2019-07-17T13:51:29Z</time>
      </trkpt>
      <trkpt lat="43.1803460" lon="-0.9162470">
        <ele>170.3</ele>
        <time>2019-07-17T13:51:33Z</time>
      </trkpt>
      <trkpt lat="43.1802390" lon="-0.9162590">
        <ele>170.5</ele>
        <time>2019-07-17T13:51:37Z</time>
      </trkpt>
      <trkpt lat="43.1801330" lon="-0.9162730">
        <ele>170.7</ele>
        <time>2019-07-17T13:51:41Z</time>
      </trkpt>
      <trkpt lat="43.1800210" lon="-0.9162850">
        <ele>170.9</ele>
        <time>2019-07-17T13:51:45Z</time>
      </trkpt>
      <trkpt lat="43.1799130" lon="-0.9162940">
        <ele>171.0</ele>
        <time>2019-07-17T13:51:49Z</time>
      </trkpt>
      <trkpt lat="43.1798050" lon="-0.9163050">
        <ele>171.2</ele>
        <time>2019-07-17T13:51:53Z</time>
      </trkpt>
      <trkpt lat="43.1796870" lon="-0.9163190">
        <ele>171.3</ele>
        <time>2019-07-17T13:51:57Z</time>
      </trkpt>
      <trkpt lat="43.1795700" lon="-0.9163300">
        <ele>171.4</ele>
        <time>2019-07-17T13:52:01Z</time>
      </trkpt>
      <trkpt lat="43.1794620" lon="-0.9163550">
        <ele>171.5</ele>
        <time>2019-07-17T13:52:05Z</time>
      </trkpt>
      <trkpt lat="43.1793450" lon="-0.9163840">
        <ele>171.6</ele>
        <time>2019-07-17T13:52:09Z</time>
      </trkpt>
      <trkpt lat="43.1792280" lon="-0.9164200">
        <ele>171.7</ele>
        <time>2019-07-17T13:52:13Z</time>
      </trkpt>
      <trkpt lat="43.1791130" lon="-0.9164550">
        <ele>171.8</ele>
        <time>2019-07-17T13:52:17Z</time>
      </trkpt>
      <trkpt lat="43.1789990" lon="-0.9164880">
        <ele>171.9</ele>
        <time>2019-07-17T13:52:21Z</time>
      </trkpt>
      <trkpt lat="43.1789100" lon="-0.9165090">
        <ele>171.9</ele>
        <time>2019-07-17T13:52:24Z</time>
      </trkpt>
      <trkpt lat="43.1788230" lon="-0.9165440">
        <ele>171.9</ele>
        <time>2019-07-17T13:52:27Z</time>
      </trkpt>
      <trkpt lat="43.1787060" lon="-0.9165760">
        <ele>172.0</ele>
        <time>2019-07-17T13:52:31Z</time>
      </trkpt>
      <trkpt lat="43.1786160" lon="-0.9165920">
        <ele>172.0</ele>
        <time>2019-07-17T13:52:34Z</time>
      </trkpt>
      <trkpt lat="43.1785240" lon="-0.9166110">
        <ele>172.0</ele>
        <time>2019-07-17T13:52:37Z</time>
      </trkpt>
      <trkpt lat="43.1784060" lon="-0.9166370">
        <ele>172.0</ele>
        <time>2019-07-17T13:52:41Z</time>
      </trkpt>
      <trkpt lat="43.1783130" lon="-0.9166540">
        <ele>172.1</ele>
        <time>2019-07-17T13:52:44Z</time>
      </trkpt>
      <trkpt lat="43.1782240" lon="-0.9166730">
        <ele>172.2</ele>
        <time>2019-07-17T13:52:47Z</time>
      </trkpt>
      <trkpt lat="43.1781040" lon="-0.9167010">
        <ele>172.3</ele>
        <time>2019-07-17T13:52:51Z</time>
      </trkpt>
      <trkpt lat="43.1780110" lon="-0.9167210">
        <ele>172.4</ele>
        <time>2019-07-17T13:52:54Z</time>
      </trkpt>
      <trkpt lat="43.1779170" lon="-0.9167390">
        <ele>172.5</ele>
        <time>2019-07-17T13:52:57Z</time>
      </trkpt>
      <trkpt lat="43.1778250" lon="-0.9167620">
        <ele>172.7</ele>
        <time>2019-07-17T13:53:00Z</time>
      </trkpt>
      <trkpt lat="43.1777350" lon="-0.9167840">
        <ele>172.8</ele>
        <time>2019-07-17T13:53:03Z</time>
      </trkpt>
      <trkpt lat="43.1776200" lon="-0.9168050">
        <ele>173.0</ele>
        <time>2019-07-17T13:53:07Z</time>
      </trkpt>
      <trkpt lat="43.1775150" lon="-0.9168110">
        <ele>173.3</ele>
        <time>2019-07-17T13:53:11Z</time>
      </trkpt>
      <trkpt lat="43.1774110" lon="-0.9168170">
        <ele>173.5</ele>
        <time>2019-07-17T13:53:15Z</time>
      </trkpt>
      <trkpt lat="43.1773170" lon="-0.9168320">
        <ele>173.8</ele>
        <time>2019-07-17T13:53:19Z</time>
      </trkpt>
      <trkpt lat="43.1772190" lon="-0.9168430">
        <ele>174.1</ele>
        <time>2019-07-17T13:53:24Z</time>
      </trkpt>
      <trkpt lat="43.1771260" lon="-0.9168420">
        <ele>174.4</ele>
        <time>2019-07-17T13:53:29Z</time>
      </trkpt>
      <trkpt lat="43.1770210" lon="-0.9168390">
        <ele>174.9</ele>
        <time>2019-07-17T13:53:35Z</time>
      </trkpt>
      <trkpt lat="43.1769170" lon="-0.9168300">
        <ele>175.3</ele>
        <time>2019-07-17T13:53:42Z</time>
      </trkpt>
      <trkpt lat="43.1768270" lon="-0.9168170">
        <ele>175.8</ele>
        <time>2019-07-17T13:53:49Z</time>
      </trkpt>
      <trkpt lat="43.1767250" lon="-0.9168090">
        <ele>176.4</ele>
        <time>2019-07-17T13:53:57Z</time>
      </trkpt>
      <trkpt lat="43.1766290" lon="-0.9168070">
        <ele>177.1</ele>
        <time>2019-07-17T13:54:05Z</time>
      </trkpt>
      <trkpt lat="43.1765330" lon="-0.9167990">
        <ele>177.9</ele>
        <time>2019-07-17T13:54:13Z</time>
      </trkpt>
      <trkpt lat="43.1764370" lon="-0.9167760">
        <ele>178.6</ele>
        <time>2019-07-17T13:54:21Z</time>
      </trkpt>
      <trkpt lat="43.1763410" lon="-0.9167750">
        <ele>179.4</ele>
        <time>2019-07-17T13:54:29Z</time>
      </trkpt>
      <trkpt lat="43.1762430" lon="-0.9167510">
        <ele>180.0</ele>
        <time>2019-07-17T13:54:37Z</time>
      </trkpt>
      <trkpt lat="43.1761470" lon="-0.9167440">
        <ele>180.5</ele>
        <time>2019-07-17T13:54:45Z</time>
      </trkpt>
      <trkpt lat="43.1760540" lon="-0.9167120">
        <ele>180.8</ele>
        <time>2019-07-17T13:54:52Z</time>
      </trkpt>
      <trkpt lat="43.1759600" lon="-0.9166870">
        <ele>181.2</ele>
        <time>2019-07-17T13:54:59Z</time>
      </trkpt>
      <trkpt lat="43.1758690" lon="-0.9166380">
        <ele>181.5</ele>
        <time>2019-07-17T13:55:05Z</time>
      </trkpt>
      <trkpt lat="43.1757810" lon="-0.9166050">
        <ele>182.0</ele>
        <time>2019-07-17T13:55:10Z</time>
      </trkpt>
      <trkpt lat="43.1756900" lon="-0.9165790">
        <ele>182.2</ele>
        <time>2019-07-17T13:55:14Z</time>
      </trkpt>
      <trkpt lat="43.1755940" lon="-0.9165430">
        <ele>182.4</ele>
        <time>2019-07-17T13:55:19Z</time>
      </trkpt>
      <trkpt lat="43.1754930" lon="-0.9165260">
        <ele>182.6</ele>
        <time>2019-07-17T13:55:23Z</time>
      </trkpt>
      <trkpt lat="43.1753840" lon="-0.9165000">
        <ele>182.9</ele>
        <time>2019-07-17T13:55:27Z</time>
      </trkpt>
      <trkpt lat="43.1752840" lon="-0.9164910">
        <ele>183.2</ele>
        <time>2019-07-17T13:55:31Z</time>
      </trkpt>
      <trkpt lat="43.1751690" lon="-0.9164820">
        <ele>183.4</ele>
        <time>2019-07-17T13:55:35Z</time>
      </trkpt>
      <trkpt lat="43.1750530" lon="-0.9164890">
        <ele>183.5</ele>
        <time>2019-07-17T13:55:39Z</time>
      </trkpt>
      <trkpt lat="43.1749390" lon="-0.9165030">
        <ele>183.7</ele>
        <time>2019-07-17T13:55:43Z</time>
      </trkpt>
      <trkpt lat="43.1748360" lon="-0.9165400">
        <ele>183.8</ele>
        <time>2019-07-17T13:55:47Z</time>
      </trkpt>
      <trkpt lat="43.1747390" lon="-0.9165910">
        <ele>183.9</ele>
        <time>2019-07-17T13:55:51Z</time>
      </trkpt>
      <trkpt lat="43.1746350" lon="-0.9166550">
        <ele>184.0</ele>
        <time>2019-07-17T13:55:55Z</time>
      </trkpt>
      <trkpt lat="43.1745270" lon="-0.9167270">
        <ele>184.0</ele>
        <time>2019-07-17T13:55:59Z</time>
      </trkpt>
      <trkpt lat="43.1744490" lon="-0.9167900">
        <ele>184.0</ele>
        <time>2019-07-17T13:56:02Z</time>
      </trkpt>
      <trkpt lat="43.1743580" lon="-0.9168620">
        <ele>183.9</ele>
        <time>2019-07-17T13:56:05Z</time>
      </trkpt>
      <trkpt lat="43.1742630" lon="-0.9169400">
        <ele>183.9</ele>
        <time>2019-07-17T13:56:08Z</time>
      </trkpt>
      <trkpt lat="43.1741710" lon="-0.9170130">
        <ele>183.8</ele>
        <time>2019-07-17T13:56:11Z</time>
      </trkpt>
      <trkpt lat="43.1740670" lon="-0.9170900">
        <ele>183.7</ele>
        <time>2019-07-17T13:56:14Z</time>
      </trkpt>
      <trkpt lat="43.1739560" lon="-0.9171530">
        <ele>183.6</ele>
        <time>2019-07-17T13:56:17Z</time>
      </trkpt>
      <trkpt lat="43.1738440" lon="-0.9171890">
        <ele>183.4</ele>
        <time>2019-07-17T13:56:20Z</time>
      </trkpt>
      <trkpt lat="43.1737280" lon="-0.9172200">
        <ele>183.4</ele>
        <time>2019-07-17T13:56:23Z</time>
      </trkpt>
      <trkpt lat="43.1736200" lon="-0.9172320">
        <ele>183.4</ele>
        <time>2019-07-17T13:56:26Z</time>
      </trkpt>
      <trkpt lat="43.1735150" lon="-0.9172310">
        <ele>183.4</ele>
        <time>2019-07-17T13:56:29Z</time>
      </trkpt>
      <trkpt lat="43.1734140" lon="-0.9172110">
        <ele>183.5</ele>
        <time>2019-07-17T13:56:32Z</time>
      </trkpt>
      <trkpt lat="43.1733180" lon="-0.9171820">
        <ele>183.6</ele>
        <time>2019-07-17T13:56:35Z</time>
      </trkpt>
      <trkpt lat="43.1732190" lon="-0.9171460">
        <ele>183.7</ele>
        <time>2019-07-17T13:56:38Z</time>
      </trkpt>
      <trkpt lat="43.1731220" lon="-0.9171000">
        <ele>183.8</ele>
        <time>2019-07-17T13:56:41Z</time>
      </trkpt>
      <trkpt lat="43.1730230" lon="-0.9170640">
        <ele>184.0</ele>
        <time>2019-07-17T13:56:44Z</time>
      </trkpt>
      <trkpt lat="43.1729220" lon="-0.9170310">
        <ele>184.1</ele>
        <time>2019-07-17T13:56:47Z</time>
      </trkpt>
      <trkpt lat="43.1728240" lon="-0.9169890">
        <ele>184.2</ele>
        <time>2019-07-17T13:56:50Z</time>
      </trkpt>
      <trkpt lat="43.1727210" lon="-0.9169470">
        <ele>184.3</ele>
        <time>2019-07-17T13:56:53Z</time>
      </trkpt>
      <trkpt lat="43.1726220" lon="-0.9169110">
        <ele>184.4</ele>
        <time>2019-07-17T13:56:56Z</time>
      </trkpt>
      <trkpt lat="43.1725140" lon="-0.9168840">
        <ele>184.5</ele>
        <time>2019-07-17T13:56:59Z</time>
      </trkpt>
      <trkpt lat="43.1724070" lon="-0.9168540">
        <ele>184.6</ele>
        <time>2019-07-17T13:57:02Z</time>
      </trkpt>
      <trkpt lat="43.1722970" lon="-0.9168440">
        <ele>184.6</ele>
        <time>2019-07-17T13:57:05Z</time>
      </trkpt>
      <trkpt lat="43.1721790" lon="-0.9168310">
        <ele>184.7</ele>
        <time>2019-07-17T13:57:08Z</time>
      </trkpt>
      <trkpt lat="43.1720660" lon="-0.9168180">
        <ele>184.8</ele>
        <time>2019-07-17T13:57:11Z</time>
      </trkpt>
      <trkpt lat="43.1719560" lon="-0.9168360">
        <ele>184.9</ele>
        <time>2019-07-17T13:57:14Z</time>
      </trkpt>
      <trkpt lat="43.1718500" lon="-0.9168510">
        <ele>185.0</ele>
        <time>2019-07-17T13:57:17Z</time>
      </trkpt>
      <trkpt lat="43.1717590" lon="-0.9168890">
        <ele>185.0</ele>
        <time>2019-07-17T13:57:20Z</time>
      </trkpt>
      <trkpt lat="43.1716700" lon="-0.9169300">
        <ele>185.1</ele>
        <time>2019-07-17T13:57:23Z</time>
      </trkpt>
      <trkpt lat="43.1715830" lon="-0.9169740">
        <ele>185.1</ele>
        <time>2019-07-17T13:57:26Z</time>
      </trkpt>
      <trkpt lat="43.1714980" lon="-0.9170130">
        <ele>185.2</ele>
        <time>2019-07-17T13:57:29Z</time>
      </trkpt>
      <trkpt lat="43.1713980" lon="-0.9170600">
        <ele>185.4</ele>
        <time>2019-07-17T13:57:33Z</time>
      </trkpt>
      <trkpt lat="43.1713140" lon="-0.9171160">
        <ele>185.6</ele>
        <time>2019-07-17T13:57:37Z</time>
      </trkpt>
      <trkpt lat="43.1712200" lon="-0.9171850">
        <ele>186.0</ele>
        <time>2019-07-17T13:57:42Z</time>
      </trkpt>
      <trkpt lat="43.1711180" lon="-0.9172400">
        <ele>186.5</ele>
        <time>2019-07-17T13:57:47Z</time>
      </trkpt>
      <trkpt lat="43.1710240" lon="-0.9173030">
        <ele>187.0</ele>
        <time>2019-07-17T13:57:53Z</time>
      </trkpt>
      <trkpt lat="43.1709330" lon="-0.9173680">
        <ele>187.6</ele>
        <time>2019-07-17T13:57:59Z</time>
      </trkpt>
      <trkpt lat="43.1708400" lon="-0.9174270">
        <ele>188.2</ele>
        <time>2019-07-17T13:58:06Z</time>
      </trkpt>
      <trkpt lat="43.1707520" lon="-0.9174830">
        <ele>188.8</ele>
        <time>2019-07-17T13:58:13Z</time>
      </trkpt>
      <trkpt lat="43.1706590" lon="-0.9175240">
        <ele>189.3</ele>
        <time>2019-07-17T13:58:20Z</time>
      </trkpt>
      <trkpt lat="43.1705660" lon="-0.9175260">
        <ele>189.7</ele>
        <time>2019-07-17T13:58:28Z</time>
      </trkpt>
      <trkpt lat="43.1704710" lon="-0.9175320">
        <ele>190.8</ele>
        <time>2019-07-17T13:58:37Z</time>
      </trkpt>
      <trkpt lat="43.1703800" lon="-0.9174790">
        <ele>192.1</ele>
        <time>2019-07-17T13:58:46Z</time>
      </trkpt>
      <trkpt lat="43.1702870" lon="-0.9174350">
        <ele>193.4</ele>
        <time>2019-07-17T13:58:54Z</time>
      </trkpt>
      <trkpt lat="43.1702080" lon="-0.9173590">
        <ele>194.6</ele>
        <time>2019-07-17T13:59:01Z</time>
      </trkpt>
      <trkpt lat="43.1701240" lon="-0.9173110">
        <ele>195.5</ele>
        <time>2019-07-17T13:59:07Z</time>
      </trkpt>
      <trkpt lat="43.1700460" lon="-0.9172410">
        <ele>196.3</ele>
        <time>2019-07-17T13:59:14Z</time>
      </trkpt>
      <trkpt lat="43.1699660" lon="-0.9171810">
        <ele>197.0</ele>
        <time>2019-07-17T13:59:22Z</time>
      </trkpt>
      <trkpt lat="43.1698830" lon="-0.9171080">
        <ele>197.7</ele>
        <time>2019-07-17T13:59:30Z</time>
      </trkpt>
      <trkpt lat="43.1697990" lon="-0.9170270">
        <ele>198.5</ele>
        <time>2019-07-17T13:59:38Z</time>
      </trkpt>
      <trkpt lat="43.1697190" lon="-0.9169400">
        <ele>199.3</ele>
        <time>2019-07-17T13:59:46Z</time>
      </trkpt>
      <trkpt lat="43.1696390" lon="-0.9168620">
        <ele>199.9</ele>
        <time>2019-07-17T13:59:53Z</time>
      </trkpt>
      <trkpt lat="43.1695680" lon="-0.9167710">
        <ele>200.2</ele>
        <time>2019-07-17T14:00:01Z</time>
      </trkpt>
      <trkpt lat="43.1694940" lon="-0.9166940">
        <ele>200.5</ele>
        <time>2019-07-17T14:00:07Z</time>
      </trkpt>
      <trkpt lat="43.1694240" lon="-0.9166040">
        <ele>200.7</ele>
        <time>2019-07-17T14:00:14Z</time>
      </trkpt>
      <trkpt lat="43.1693370" lon="-0.9165280">
        <ele>201.0</ele>
        <time>2019-07-17T14:00:21Z</time>
      </trkpt>
      <trkpt lat="43.1692590" lon="-0.9164340">
        <ele>201.6</ele>
        <time>2019-07-17T14:00:27Z</time>
      </trkpt>
      <trkpt lat="43.1691970" lon="-0.9163380">
        <ele>202.1</ele>
        <time>2019-07-17T14:00:32Z</time>
      </trkpt>
      <trkpt lat="43.1691220" lon="-0.9162520">
        <ele>202.6</ele>
        <time>2019-07-17T14:00:37Z</time>
      </trkpt>
      <trkpt lat="43.1690440" lon="-0.9161600">
        <ele>202.8</ele>
        <time>2019-07-17T14:00:42Z</time>
      </trkpt>
      <trkpt lat="43.1689710" lon="-0.9160810">
        <ele>202.9</ele>
        <time>2019-07-17T14:00:47Z</time>
      </trkpt>
      <trkpt lat="43.1689000" lon="-0.9159760">
        <ele>203.0</ele>
        <time>2019-07-17T14:00:52Z</time>
      </trkpt>
      <trkpt lat="43.1688480" lon="-0.9158570">
        <ele>203.1</ele>
        <time>2019-07-17T14:00:57Z</time>
      </trkpt>
      <trkpt lat="43.1687840" lon="-0.9157390">
        <ele>203.2</ele>
        <time>2019-07-17T14:01:02Z</time>
      </trkpt>
      <trkpt lat="43.1687220" lon="-0.9156450">
        <ele>203.2</ele>
        <time>2019-07-17T14:01:06Z</time>
      </trkpt>
      <trkpt lat="43.1686300" lon="-0.9155760">
        <ele>203.3</ele>
        <time>2019-07-17T14:01:11Z</time>
      </trkpt>
      <trkpt lat="43.1685800" lon="-0.9154510">
        <ele>202.8</ele>
        <time>2019-07-17T14:01:17Z</time>
      </trkpt>
      <trkpt lat="43.1685960" lon="-0.9153140">
        <ele>202.1</ele>
        <time>2019-07-17T14:01:21Z</time>
      </trkpt>
      <trkpt lat="43.1686350" lon="-0.9152020">
        <ele>201.8</ele>
        <time>2019-07-17T14:01:24Z</time>
      </trkpt>
      <trkpt lat="43.1686770" lon="-0.9150780">
        <ele>201.4</ele>
        <time>2019-07-17T14:01:27Z</time>
      </trkpt>
      <trkpt lat="43.1687220" lon="-0.9149550">
        <ele>201.0</ele>
        <time>2019-07-17T14:01:30Z</time>
      </trkpt>
      <trkpt lat="43.1687660" lon="-0.9148090">
        <ele>200.5</ele>
        <time>2019-07-17T14:01:33Z</time>
      </trkpt>
      <trkpt lat="43.1687910" lon="-0.9146400">
        <ele>200.0</ele>
        <time>2019-07-17T14:01:36Z</time>
      </trkpt>
      <trkpt lat="43.1687740" lon="-0.9145180">
        <ele>199.5</ele>
        <time>2019-07-17T14:01:38Z</time>
      </trkpt>
      <trkpt lat="43.1687400" lon="-0.9143940">
        <ele>199.0</ele>
        <time>2019-07-17T14:01:40Z</time>
      </trkpt>
      <trkpt lat="43.1687050" lon="-0.9142780">
        <ele>198.5</ele>
        <time>2019-07-17T14:01:42Z</time>
      </trkpt>
      <trkpt lat="43.1686460" lon="-0.9141570">
        <ele>197.9</ele>
        <time>2019-07-17T14:01:45Z</time>
      </trkpt>
      <trkpt lat="43.1686100" lon="-0.9140400">
        <ele>197.4</ele>
        <time>2019-07-17T14:01:48Z</time>
      </trkpt>
      <trkpt lat="43.1685590" lon="-0.9139030">
        <ele>197.1</ele>
        <time>2019-07-17T14:01:51Z</time>
      </trkpt>
      <trkpt lat="43.1685000" lon="-0.9137960">
        <ele>197.1</ele>
        <time>2019-07-17T14:01:53Z</time>
      </trkpt>
      <trkpt lat="43.1684300" lon="-0.9136940">
        <ele>197.0</ele>
        <time>2019-07-17T14:01:55Z</time>
      </trkpt>
      <trkpt lat="43.1683560" lon="-0.9135620">
        <ele>196.9</ele>
        <time>2019-07-17T14:01:57Z</time>
      </trkpt>
      <trkpt lat="43.1682720" lon="-0.9134180">
        <ele>196.7</ele>
        <time>2019-07-17T14:01:59Z</time>
      </trkpt>
      <trkpt lat="43.1681930" lon="-0.9132610">
        <ele>196.5</ele>
        <time>2019-07-17T14:02:01Z</time>
      </trkpt>
      <trkpt lat="43.1681210" lon="-0.9130890">
        <ele>196.1</ele>
        <time>2019-07-17T14:02:03Z</time>
      </trkpt>
      <trkpt lat="43.1680590" lon="-0.9129060">
        <ele>195.3</ele>
        <time>2019-07-17T14:02:05Z</time>
      </trkpt>
      <trkpt lat="43.1680170" lon="-0.9127160">
        <ele>193.9</ele>
        <time>2019-07-17T14:02:07Z</time>
      </trkpt>
      <trkpt lat="43.1679860" lon="-0.9125400">
        <ele>192.3</ele>
        <time>2019-07-17T14:02:09Z</time>
      </trkpt>
      <trkpt lat="43.1679470" lon="-0.9123890">
        <ele>190.8</ele>
        <time>2019-07-17T14:02:11Z</time>
      </trkpt>
      <trkpt lat="43.1679050" lon="-0.9122100">
        <ele>189.3</ele>
        <time>2019-07-17T14:02:13Z</time>
      </trkpt>
      <trkpt lat="43.1678630" lon="-0.9120070">
        <ele>188.0</ele>
        <time>2019-07-17T14:02:15Z</time>
      </trkpt>
      <trkpt lat="43.1678410" lon="-0.9117890">
        <ele>186.9</ele>
        <time>2019-07-17T14:02:17Z</time>
      </trkpt>
      <trkpt lat="43.1678040" lon="-0.9115500">
        <ele>185.6</ele>
        <time>2019-07-17T14:02:19Z</time>
      </trkpt>
      <trkpt lat="43.1677510" lon="-0.9113250">
        <ele>184.6</ele>
        <time>2019-07-17T14:02:21Z</time>
      </trkpt>
      <trkpt lat="43.1676900" lon="-0.9111110">
        <ele>183.8</ele>
        <time>2019-07-17T14:02:23Z</time>
      </trkpt>
      <trkpt lat="43.1676120" lon="-0.9109070">
        <ele>183.3</ele>
        <time>2019-07-17T14:02:25Z</time>
      </trkpt>
      <trkpt lat="43.1675080" lon="-0.9107370">
        <ele>182.8</ele>
        <time>2019-07-17T14:02:27Z</time>
      </trkpt>
      <trkpt lat="43.1673940" lon="-0.9105970">
        <ele>182.3</ele>
        <time>2019-07-17T14:02:29Z</time>
      </trkpt>
      <trkpt lat="43.1672730" lon="-0.9104840">
        <ele>181.8</ele>
        <time>2019-07-17T14:02:31Z</time>
      </trkpt>
      <trkpt lat="43.1671580" lon="-0.9103750">
        <ele>181.4</ele>
        <time>2019-07-17T14:02:33Z</time>
      </trkpt>
      <trkpt lat="43.1670590" lon="-0.9102650">
        <ele>181.1</ele>
        <time>2019-07-17T14:02:35Z</time>
      </trkpt>
      <trkpt lat="43.1669640" lon="-0.9101710">
        <ele>180.8</ele>
        <time>2019-07-17T14:02:37Z</time>
      </trkpt>
      <trkpt lat="43.1668700" lon="-0.9100810">
        <ele>180.6</ele>
        <time>2019-07-17T14:02:39Z</time>
      </trkpt>
      <trkpt lat="43.1667740" lon="-0.9099960">
        <ele>180.6</ele>
        <time>2019-07-17T14:02:41Z</time>
      </trkpt>
      <trkpt lat="43.1666900" lon="-0.9099100">
        <ele>180.5</ele>
        <time>2019-07-17T14:02:43Z</time>
      </trkpt>
      <trkpt lat="43.1666070" lon="-0.9098240">
        <ele>180.6</ele>
        <time>2019-07-17T14:02:45Z</time>
      </trkpt>
      <trkpt lat="43.1665210" lon="-0.9097480">
        <ele>180.7</ele>
        <time>2019-07-17T14:02:47Z</time>
      </trkpt>
      <trkpt lat="43.1664430" lon="-0.9096720">
        <ele>180.7</ele>
        <time>2019-07-17T14:02:49Z</time>
      </trkpt>
      <trkpt lat="43.1663660" lon="-0.9095890">
        <ele>180.8</ele>
        <time>2019-07-17T14:02:51Z</time>
      </trkpt>
      <trkpt lat="43.1662820" lon="-0.9095130">
        <ele>180.8</ele>
        <time>2019-07-17T14:02:53Z</time>
      </trkpt>
      <trkpt lat="43.1662030" lon="-0.9094410">
        <ele>180.9</ele>
        <time>2019-07-17T14:02:55Z</time>
      </trkpt>
      <trkpt lat="43.1661270" lon="-0.9093700">
        <ele>180.9</ele>
        <time>2019-07-17T14:02:57Z</time>
      </trkpt>
      <trkpt lat="43.1660420" lon="-0.9092270">
        <ele>180.9</ele>
        <time>2019-07-17T14:03:00Z</time>
      </trkpt>
      <trkpt lat="43.1660050" lon="-0.9091150">
        <ele>181.0</ele>
        <time>2019-07-17T14:03:02Z</time>
      </trkpt>
      <trkpt lat="43.1660110" lon="-0.9089320">
        <ele>180.9</ele>
        <time>2019-07-17T14:03:05Z</time>
      </trkpt>
      <trkpt lat="43.1660370" lon="-0.9088060">
        <ele>180.9</ele>
        <time>2019-07-17T14:03:07Z</time>
      </trkpt>
      <trkpt lat="43.1660670" lon="-0.9086770">
        <ele>180.8</ele>
        <time>2019-07-17T14:03:09Z</time>
      </trkpt>
      <trkpt lat="43.1661130" lon="-0.9085100">
        <ele>180.5</ele>
        <time>2019-07-17T14:03:12Z</time>
      </trkpt>
      <trkpt lat="43.1661400" lon="-0.9083900">
        <ele>180.3</ele>
        <time>2019-07-17T14:03:14Z</time>
      </trkpt>
      <trkpt lat="43.1661670" lon="-0.9082660">
        <ele>180.0</ele>
        <time>2019-07-17T14:03:16Z</time>
      </trkpt>
      <trkpt lat="43.1661940" lon="-0.9081440">
        <ele>179.8</ele>
        <time>2019-07-17T14:03:18Z</time>
      </trkpt>
      <trkpt lat="43.1662260" lon="-0.9079780">
        <ele>179.6</ele>
        <time>2019-07-17T14:03:21Z</time>
      </trkpt>
      <trkpt lat="43.1662560" lon="-0.9078190">
        <ele>179.5</ele>
        <time>2019-07-17T14:03:24Z</time>
      </trkpt>
      <trkpt lat="43.1662880" lon="-0.9076710">
        <ele>179.4</ele>
        <time>2019-07-17T14:03:27Z</time>
      </trkpt>
      <trkpt lat="43.1663170" lon="-0.9075300">
        <ele>179.5</ele>
        <time>2019-07-17T14:03:30Z</time>
      </trkpt>
      <trkpt lat="43.1663490" lon="-0.9073970">
        <ele>179.6</ele>
        <time>2019-07-17T14:03:33Z</time>
      </trkpt>
      <trkpt lat="43.1663690" lon="-0.9072660">
        <ele>179.7</ele>
        <time>2019-07-17T14:03:36Z</time>
      </trkpt>
      <trkpt lat="43.1663920" lon="-0.9071360">
        <ele>179.8</ele>
        <time>2019-07-17T14:03:39Z</time>
      </trkpt>
      <trkpt lat="43.1664170" lon="-0.9070070">
        <ele>179.9</ele>
        <time>2019-07-17T14:03:42Z</time>
      </trkpt>
      <trkpt lat="43.1664480" lon="-0.9068840">
        <ele>179.9</ele>
        <time>2019-07-17T14:03:45Z</time>
      </trkpt>
      <trkpt lat="43.1664750" lon="-0.9067530">
        <ele>179.8</ele>
        <time>2019-07-17T14:03:48Z</time>
      </trkpt>
      <trkpt lat="43.1665020" lon="-0.9066120">
        <ele>179.7</ele>
        <time>2019-07-17T14:03:51Z</time>
      </trkpt>
      <trkpt lat="43.1665320" lon="-0.9064770">
        <ele>179.7</ele>
        <time>2019-07-17T14:03:54Z</time>
      </trkpt>
      <trkpt lat="43.1665570" lon="-0.9063450">
        <ele>179.6</ele>
        <time>2019-07-17T14:03:57Z</time>
      </trkpt>
      <trkpt lat="43.1665820" lon="-0.9062100">
        <ele>179.5</ele>
        <time>2019-07-17T14:04:00Z</time>
      </trkpt>
      <trkpt lat="43.1665970" lon="-0.9060690">
        <ele>179.2</ele>
        <time>2019-07-17T14:04:03Z</time>
      </trkpt>
      <trkpt lat="43.1665710" lon="-0.9059270">
        <ele>179.0</ele>
        <time>2019-07-17T14:04:06Z</time>
      </trkpt>
      <trkpt lat="43.1665070" lon="-0.9058140">
        <ele>178.8</ele>
        <time>2019-07-17T14:04:09Z</time>
      </trkpt>
      <trkpt lat="43.1664260" lon="-0.9057420">
        <ele>178.8</ele>
        <time>2019-07-17T14:04:12Z</time>
      </trkpt>
      <trkpt lat="43.1663250" lon="-0.9056650">
        <ele>178.9</ele>
        <time>2019-07-17T14:04:16Z</time>
      </trkpt>
      <trkpt lat="43.1662360" lon="-0.9056180">
        <ele>179.0</ele>
        <time>2019-07-17T14:04:19Z</time>
      </trkpt>
      <trkpt lat="43.1661480" lon="-0.9055770">
        <ele>179.0</ele>
        <time>2019-07-17T14:04:22Z</time>
      </trkpt>
      <trkpt lat="43.1660420" lon="-0.9055010">
        <ele>179.1</ele>
        <time>2019-07-17T14:04:26Z</time>
      </trkpt>
      <trkpt lat="43.1659340" lon="-0.9054350">
        <ele>179.2</ele>
        <time>2019-07-17T14:04:30Z</time>
      </trkpt>
      <trkpt lat="43.1658480" lon="-0.9053810">
        <ele>179.3</ele>
        <time>2019-07-17T14:04:33Z</time>
      </trkpt>
      <trkpt lat="43.1657570" lon="-0.9053220">
        <ele>179.3</ele>
        <time>2019-07-17T14:04:36Z</time>
      </trkpt>
      <trkpt lat="43.1656530" lon="-0.9052750">
        <ele>179.2</ele>
        <time>2019-07-17T14:04:39Z</time>
      </trkpt>
      <trkpt lat="43.1655600" lon="-0.9052160">
        <ele>179.1</ele>
        <time>2019-07-17T14:04:42Z</time>
      </trkpt>
      <trkpt lat="43.1654550" lon="-0.9051680">
        <ele>179.0</ele>
        <time>2019-07-17T14:04:45Z</time>
      </trkpt>
      <trkpt lat="43.1653450" lon="-0.9051250">
        <ele>178.9</ele>
        <time>2019-07-17T14:04:48Z</time>
      </trkpt>
      <trkpt lat="43.1652430" lon="-0.9050830">
        <ele>178.9</ele>
        <time>2019-07-17T14:04:51Z</time>
      </trkpt>
      <trkpt lat="43.1651440" lon="-0.9050390">
        <ele>178.9</ele>
        <time>2019-07-17T14:04:54Z</time>
      </trkpt>
      <trkpt lat="43.1650510" lon="-0.9050010">
        <ele>179.0</ele>
        <time>2019-07-17T14:04:57Z</time>
      </trkpt>
      <trkpt lat="43.1649560" lon="-0.9049630">
        <ele>179.2</ele>
        <time>2019-07-17T14:05:00Z</time>
      </trkpt>
      <trkpt lat="43.1648630" lon="-0.9049290">
        <ele>179.3</ele>
        <time>2019-07-17T14:05:03Z</time>
      </trkpt>
      <trkpt lat="43.1647750" lon="-0.9048900">
        <ele>179.5</ele>
        <time>2019-07-17T14:05:06Z</time>
      </trkpt>
      <trkpt lat="43.1646790" lon="-0.9048510">
        <ele>179.6</ele>
        <time>2019-07-17T14:05:09Z</time>
      </trkpt>
      <trkpt lat="43.1645840" lon="-0.9048050">
        <ele>179.8</ele>
        <time>2019-07-17T14:05:12Z</time>
      </trkpt>
      <trkpt lat="43.1644890" lon="-0.9047700">
        <ele>179.9</ele>
        <time>2019-07-17T14:05:15Z</time>
      </trkpt>
      <trkpt lat="43.1643910" lon="-0.9047340">
        <ele>180.0</ele>
        <time>2019-07-17T14:05:18Z</time>
      </trkpt>
      <trkpt lat="43.1643000" lon="-0.9046930">
        <ele>180.1</ele>
        <time>2019-07-17T14:05:21Z</time>
      </trkpt>
      <trkpt lat="43.1642000" lon="-0.9046510">
        <ele>180.1</ele>
        <time>2019-07-17T14:05:24Z</time>
      </trkpt>
      <trkpt lat="43.1641010" lon="-0.9046120">
        <ele>180.1</ele>
        <time>2019-07-17T14:05:27Z</time>
      </trkpt>
      <trkpt lat="43.1640070" lon="-0.9045660">
        <ele>180.1</ele>
        <time>2019-07-17T14:05:30Z</time>
      </trkpt>
      <trkpt lat="43.1639190" lon="-0.9045250">
        <ele>180.1</ele>
        <time>2019-07-17T14:05:33Z</time>
      </trkpt>
      <trkpt lat="43.1638320" lon="-0.9044760">
        <ele>180.1</ele>
        <time>2019-07-17T14:05:36Z</time>
      </trkpt>
      <trkpt lat="43.1637430" lon="-0.9044240">
        <ele>180.1</ele>
        <time>2019-07-17T14:05:39Z</time>
      </trkpt>
      <trkpt lat="43.1636570" lon="-0.9043770">
        <ele>180.4</ele>
        <time>2019-07-17T14:05:42Z</time>
      </trkpt>
      <trkpt lat="43.1635500" lon="-0.9043050">
        <ele>180.8</ele>
        <time>2019-07-17T14:05:46Z</time>
      </trkpt>
      <trkpt lat="43.1634730" lon="-0.9042390">
        <ele>181.2</ele>
        <time>2019-07-17T14:05:49Z</time>
      </trkpt>
      <trkpt lat="43.1633710" lon="-0.9041700">
        <ele>181.3</ele>
        <time>2019-07-17T14:05:53Z</time>
      </trkpt>
      <trkpt lat="43.1632640" lon="-0.9041010">
        <ele>181.5</ele>
        <time>2019-07-17T14:05:57Z</time>
      </trkpt>
      <trkpt lat="43.1631800" lon="-0.9040450">
        <ele>181.6</ele>
        <time>2019-07-17T14:06:00Z</time>
      </trkpt>
      <trkpt lat="43.1630970" lon="-0.9039740">
        <ele>181.7</ele>
        <time>2019-07-17T14:06:03Z</time>
      </trkpt>
      <trkpt lat="43.1630130" lon="-0.9039180">
        <ele>181.8</ele>
        <time>2019-07-17T14:06:06Z</time>
      </trkpt>
      <trkpt lat="43.1629250" lon="-0.9038760">
        <ele>181.9</ele>
        <time>2019-07-17T14:06:09Z</time>
      </trkpt>
      <trkpt lat="43.1628240" lon="-0.9038380">
        <ele>182.1</ele>
        <time>2019-07-17T14:06:12Z</time>
      </trkpt>
      <trkpt lat="43.1627390" lon="-0.9037970">
        <ele>182.2</ele>
        <time>2019-07-17T14:06:15Z</time>
      </trkpt>
      <trkpt lat="43.1626420" lon="-0.9037730">
        <ele>182.3</ele>
        <time>2019-07-17T14:06:18Z</time>
      </trkpt>
      <trkpt lat="43.1625500" lon="-0.9037320">
        <ele>182.4</ele>
        <time>2019-07-17T14:06:21Z</time>
      </trkpt>
      <trkpt lat="43.1624490" lon="-0.9036930">
        <ele>182.4</ele>
        <time>2019-07-17T14:06:24Z</time>
      </trkpt>
      <trkpt lat="43.1623420" lon="-0.9036510">
        <ele>182.5</ele>
        <time>2019-07-17T14:06:27Z</time>
      </trkpt>
      <trkpt lat="43.1622480" lon="-0.9036030">
        <ele>182.5</ele>
        <time>2019-07-17T14:06:30Z</time>
      </trkpt>
      <trkpt lat="43.1621380" lon="-0.9035470">
        <ele>182.5</ele>
        <time>2019-07-17T14:06:34Z</time>
      </trkpt>
      <trkpt lat="43.1620410" lon="-0.9035170">
        <ele>182.5</ele>
        <time>2019-07-17T14:06:37Z</time>
      </trkpt>
      <trkpt lat="43.1619450" lon="-0.9034890">
        <ele>182.5</ele>
        <time>2019-07-17T14:06:40Z</time>
      </trkpt>
      <trkpt lat="43.1618300" lon="-0.9034540">
        <ele>182.5</ele>
        <time>2019-07-17T14:06:44Z</time>
      </trkpt>
      <trkpt lat="43.1617120" lon="-0.9034450">
        <ele>182.5</ele>
        <time>2019-07-17T14:06:48Z</time>
      </trkpt>
      <trkpt lat="43.1616090" lon="-0.9033780">
        <ele>182.5</ele>
        <time>2019-07-17T14:06:52Z</time>
      </trkpt>
      <trkpt lat="43.1615720" lon="-0.9032190">
        <ele>182.5</ele>
        <time>2019-07-17T14:06:56Z</time>
      </trkpt>
      <trkpt lat="43.1615750" lon="-0.9030640">
        <ele>182.4</ele>
        <time>2019-07-17T14:06:59Z</time>
      </trkpt>
      <trkpt lat="43.1615840" lon="-0.9029400">
        <ele>182.3</ele>
        <time>2019-07-17T14:07:01Z</time>
      </trkpt>
      <trkpt lat="43.1615960" lon="-0.9028140">
        <ele>182.0</ele>
        <time>2019-07-17T14:07:03Z</time>
      </trkpt>
      <trkpt lat="43.1616160" lon="-0.9026860">
        <ele>181.6</ele>
        <time>2019-07-17T14:07:05Z</time>
      </trkpt>
      <trkpt lat="43.1616500" lon="-0.9025080">
        <ele>181.1</ele>
        <time>2019-07-17T14:07:08Z</time>
      </trkpt>
      <trkpt lat="43.1616760" lon="-0.9023830">
        <ele>180.8</ele>
        <time>2019-07-17T14:07:10Z</time>
      </trkpt>
      <trkpt lat="43.1617140" lon="-0.9022180">
        <ele>180.7</ele>
        <time>2019-07-17T14:07:13Z</time>
      </trkpt>
      <trkpt lat="43.1617560" lon="-0.9020590">
        <ele>180.2</ele>
        <time>2019-07-17T14:07:16Z</time>
      </trkpt>
      <trkpt lat="43.1617960" lon="-0.9019000">
        <ele>179.8</ele>
        <time>2019-07-17T14:07:19Z</time>
      </trkpt>
      <trkpt lat="43.1618310" lon="-0.9017420">
        <ele>179.6</ele>
        <time>2019-07-17T14:07:22Z</time>
      </trkpt>
      <trkpt lat="43.1618760" lon="-0.9015860">
        <ele>179.5</ele>
        <time>2019-07-17T14:07:25Z</time>
      </trkpt>
      <trkpt lat="43.1619140" lon="-0.9014260">
        <ele>179.4</ele>
        <time>2019-07-17T14:07:28Z</time>
      </trkpt>
      <trkpt lat="43.1619470" lon="-0.9012690">
        <ele>179.4</ele>
        <time>2019-07-17T14:07:31Z</time>
      </trkpt>
      <trkpt lat="43.1619700" lon="-0.9011110">
        <ele>179.4</ele>
        <time>2019-07-17T14:07:34Z</time>
      </trkpt>
      <trkpt lat="43.1619910" lon="-0.9009490">
        <ele>179.4</ele>
        <time>2019-07-17T14:07:37Z</time>
      </trkpt>
      <trkpt lat="43.1620240" lon="-0.9007930">
        <ele>179.5</ele>
        <time>2019-07-17T14:07:40Z</time>
      </trkpt>
      <trkpt lat="43.1620530" lon="-0.9006450">
        <ele>179.6</ele>
        <time>2019-07-17T14:07:43Z</time>
      </trkpt>
      <trkpt lat="43.1620850" lon="-0.9005050">
        <ele>179.7</ele>
        <time>2019-07-17T14:07:46Z</time>
      </trkpt>
      <trkpt lat="43.1621180" lon="-0.9003850">
        <ele>179.8</ele>
        <time>2019-07-17T14:07:49Z</time>
      </trkpt>
      <trkpt lat="43.1621370" lon="-0.9002560">
        <ele>180.0</ele>
        <time>2019-07-17T14:07:54Z</time>
      </trkpt>
      <trkpt lat="43.1620940" lon="-0.9001080">
        <ele>180.0</ele>
        <time>2019-07-17T14:07:58Z</time>
      </trkpt>
      <trkpt lat="43.1620390" lon="-0.8999630">
        <ele>180.0</ele>
        <time>2019-07-17T14:08:02Z</time>
      </trkpt>
      <trkpt lat="43.1619880" lon="-0.8998510">
        <ele>180.0</ele>
        <time>2019-07-17T14:08:05Z</time>
      </trkpt>
      <trkpt lat="43.1619310" lon="-0.8997490">
        <ele>180.0</ele>
        <time>2019-07-17T14:08:08Z</time>
      </trkpt>
      <trkpt lat="43.1618600" lon="-0.8996250">
        <ele>180.0</ele>
        <time>2019-07-17T14:08:12Z</time>
      </trkpt>
      <trkpt lat="43.1618010" lon="-0.8994960">
        <ele>179.9</ele>
        <time>2019-07-17T14:08:16Z</time>
      </trkpt>
      <trkpt lat="43.1617310" lon="-0.8993700">
        <ele>179.4</ele>
        <time>2019-07-17T14:08:20Z</time>
      </trkpt>
      <trkpt lat="43.1616640" lon="-0.8992410">
        <ele>179.0</ele>
        <time>2019-07-17T14:08:24Z</time>
      </trkpt>
      <trkpt lat="43.1615900" lon="-0.8991230">
        <ele>179.0</ele>
        <time>2019-07-17T14:08:28Z</time>
      </trkpt>
      <trkpt lat="43.1615200" lon="-0.8990060">
        <ele>178.9</ele>
        <time>2019-07-17T14:08:32Z</time>
      </trkpt>
      <trkpt lat="43.1614570" lon="-0.8989010">
        <ele>178.9</ele>
        <time>2019-07-17T14:08:36Z</time>
      </trkpt>
      <trkpt lat="43.1613990" lon="-0.8987890">
        <ele>178.9</ele>
        <time>2019-07-17T14:08:40Z</time>
      </trkpt>
      <trkpt lat="43.1613340" lon="-0.8986740">
        <ele>178.8</ele>
        <time>2019-07-17T14:08:44Z</time>
      </trkpt>
      <trkpt lat="43.1612680" lon="-0.8985550">
        <ele>178.8</ele>
        <time>2019-07-17T14:08:48Z</time>
      </trkpt>
      <trkpt lat="43.1612040" lon="-0.8984290">
        <ele>178.8</ele>
        <time>2019-07-17T14:08:52Z</time>
      </trkpt>
      <trkpt lat="43.1611200" lon="-0.8983260">
        <ele>178.9</ele>
        <time>2019-07-17T14:08:55Z</time>
      </trkpt>
      <trkpt lat="43.1609940" lon="-0.8982950">
        <ele>178.9</ele>
        <time>2019-07-17T14:08:58Z</time>
      </trkpt>
      <trkpt lat="43.1608710" lon="-0.8983230">
        <ele>178.9</ele>
        <time>2019-07-17T14:09:01Z</time>
      </trkpt>
      <trkpt lat="43.1607510" lon="-0.8983310">
        <ele>178.9</ele>
        <time>2019-07-17T14:09:04Z</time>
      </trkpt>
      <trkpt lat="43.1606400" lon="-0.8983390">
        <ele>179.0</ele>
        <time>2019-07-17T14:09:07Z</time>
      </trkpt>
      <trkpt lat="43.1605240" lon="-0.8983390">
        <ele>179.2</ele>
        <time>2019-07-17T14:09:10Z</time>
      </trkpt>
      <trkpt lat="43.1604130" lon="-0.8983450">
        <ele>179.3</ele>
        <time>2019-07-17T14:09:13Z</time>
      </trkpt>
      <trkpt lat="43.1603140" lon="-0.8983380">
        <ele>179.4</ele>
        <time>2019-07-17T14:09:16Z</time>
      </trkpt>
      <trkpt lat="43.1602110" lon="-0.8983160">
        <ele>179.5</ele>
        <time>2019-07-17T14:09:19Z</time>
      </trkpt>
      <trkpt lat="43.1601090" lon="-0.8982850">
        <ele>179.5</ele>
        <time>2019-07-17T14:09:22Z</time>
      </trkpt>
      <trkpt lat="43.1600100" lon="-0.8982490">
        <ele>179.6</ele>
        <time>2019-07-17T14:09:25Z</time>
      </trkpt>
      <trkpt lat="43.1599120" lon="-0.8982170">
        <ele>179.6</ele>
        <time>2019-07-17T14:09:28Z</time>
      </trkpt>
      <trkpt lat="43.1598130" lon="-0.8981790">
        <ele>179.7</ele>
        <time>2019-07-17T14:09:31Z</time>
      </trkpt>
      <trkpt lat="43.1597120" lon="-0.8981440">
        <ele>179.8</ele>
        <time>2019-07-17T14:09:34Z</time>
      </trkpt>
      <trkpt lat="43.1596150" lon="-0.8981030">
        <ele>180.0</ele>
        <time>2019-07-17T14:09:37Z</time>
      </trkpt>
      <trkpt lat="43.1595200" lon="-0.8980640">
        <ele>180.2</ele>
        <time>2019-07-17T14:09:40Z</time>
      </trkpt>
      <trkpt lat="43.1594240" lon="-0.8980210">
        <ele>180.5</ele>
        <time>2019-07-17T14:09:43Z</time>
      </trkpt>
      <trkpt lat="43.1593220" lon="-0.8979760">
        <ele>180.9</ele>
        <time>2019-07-17T14:09:46Z</time>
      </trkpt>
      <trkpt lat="43.1592200" lon="-0.8979350">
        <ele>181.4</ele>
        <time>2019-07-17T14:09:49Z</time>
      </trkpt>
      <trkpt lat="43.1591250" lon="-0.8978810">
        <ele>181.8</ele>
        <time>2019-07-17T14:09:52Z</time>
      </trkpt>
      <trkpt lat="43.1590310" lon="-0.8978380">
        <ele>182.3</ele>
        <time>2019-07-17T14:09:55Z</time>
      </trkpt>
      <trkpt lat="43.1589400" lon="-0.8977790">
        <ele>182.8</ele>
        <time>2019-07-17T14:09:58Z</time>
      </trkpt>
      <trkpt lat="43.1588530" lon="-0.8977190">
        <ele>183.4</ele>
        <time>2019-07-17T14:10:01Z</time>
      </trkpt>
      <trkpt lat="43.1587730" lon="-0.8976570">
        <ele>183.9</ele>
        <time>2019-07-17T14:10:04Z</time>
      </trkpt>
      <trkpt lat="43.1586760" lon="-0.8975810">
        <ele>184.1</ele>
        <time>2019-07-17T14:10:08Z</time>
      </trkpt>
      <trkpt lat="43.1585930" lon="-0.8975270">
        <ele>184.3</ele>
        <time>2019-07-17T14:10:12Z</time>
      </trkpt>
      <trkpt lat="43.1585070" lon="-0.8974830">
        <ele>184.4</ele>
        <time>2019-07-17T14:10:16Z</time>
      </trkpt>
      <trkpt lat="43.1584120" lon="-0.8974370">
        <ele>184.7</ele>
        <time>2019-07-17T14:10:22Z</time>
      </trkpt>
      <trkpt lat="43.1583190" lon="-0.8974110">
        <ele>185.0</ele>
        <time>2019-07-17T14:10:28Z</time>
      </trkpt>
      <trkpt lat="43.1582200" lon="-0.8973370">
        <ele>185.7</ele>
        <time>2019-07-17T14:10:33Z</time>
      </trkpt>
      <trkpt lat="43.1581320" lon="-0.8972940">
        <ele>186.5</ele>
        <time>2019-07-17T14:10:37Z</time>
      </trkpt>
      <trkpt lat="43.1580350" lon="-0.8972410">
        <ele>187.2</ele>
        <time>2019-07-17T14:10:42Z</time>
      </trkpt>
      <trkpt lat="43.1579340" lon="-0.8971890">
        <ele>187.1</ele>
        <time>2019-07-17T14:10:47Z</time>
      </trkpt>
      <trkpt lat="43.1578420" lon="-0.8971470">
        <ele>187.1</ele>
        <time>2019-07-17T14:10:51Z</time>
      </trkpt>
      <trkpt lat="43.1577570" lon="-0.8970850">
        <ele>187.1</ele>
        <time>2019-07-17T14:10:55Z</time>
      </trkpt>
      <trkpt lat="43.1576640" lon="-0.8970420">
        <ele>187.1</ele>
        <time>2019-07-17T14:10:59Z</time>
      </trkpt>
      <trkpt lat="43.1575750" lon="-0.8969790">
        <ele>187.1</ele>
        <time>2019-07-17T14:11:03Z</time>
      </trkpt>
      <trkpt lat="43.1574670" lon="-0.8969240">
        <ele>187.1</ele>
        <time>2019-07-17T14:11:07Z</time>
      </trkpt>
      <trkpt lat="43.1573780" lon="-0.8968650">
        <ele>187.2</ele>
        <time>2019-07-17T14:11:11Z</time>
      </trkpt>
      <trkpt lat="43.1572860" lon="-0.8968290">
        <ele>187.2</ele>
        <time>2019-07-17T14:11:15Z</time>
      </trkpt>
      <trkpt lat="43.1571780" lon="-0.8967840">
        <ele>187.3</ele>
        <time>2019-07-17T14:11:19Z</time>
      </trkpt>
      <trkpt lat="43.1570840" lon="-0.8967270">
        <ele>187.3</ele>
        <time>2019-07-17T14:11:23Z</time>
      </trkpt>
      <trkpt lat="43.1569770" lon="-0.8966690">
        <ele>187.4</ele>
        <time>2019-07-17T14:11:27Z</time>
      </trkpt>
      <trkpt lat="43.1568670" lon="-0.8966100">
        <ele>187.4</ele>
        <time>2019-07-17T14:11:31Z</time>
      </trkpt>
      <trkpt lat="43.1567670" lon="-0.8965540">
        <ele>187.5</ele>
        <time>2019-07-17T14:11:35Z</time>
      </trkpt>
      <trkpt lat="43.1566580" lon="-0.8964980">
        <ele>187.5</ele>
        <time>2019-07-17T14:11:39Z</time>
      </trkpt>
      <trkpt lat="43.1565600" lon="-0.8964360">
        <ele>187.5</ele>
        <time>2019-07-17T14:11:43Z</time>
      </trkpt>
      <trkpt lat="43.1564710" lon="-0.8963880">
        <ele>187.5</ele>
        <time>2019-07-17T14:11:47Z</time>
      </trkpt>
      <trkpt lat="43.1563670" lon="-0.8963300">
        <ele>187.5</ele>
        <time>2019-07-17T14:11:51Z</time>
      </trkpt>
      <trkpt lat="43.1562630" lon="-0.8962620">
        <ele>187.5</ele>
        <time>2019-07-17T14:11:55Z</time>
      </trkpt>
      <trkpt lat="43.1561810" lon="-0.8962070">
        <ele>187.5</ele>
        <time>2019-07-17T14:11:58Z</time>
      </trkpt>
      <trkpt lat="43.1560880" lon="-0.8961220">
        <ele>187.5</ele>
        <time>2019-07-17T14:12:02Z</time>
      </trkpt>
      <trkpt lat="43.1559840" lon="-0.8960400">
        <ele>187.4</ele>
        <time>2019-07-17T14:12:06Z</time>
      </trkpt>
      <trkpt lat="43.1558940" lon="-0.8959390">
        <ele>187.5</ele>
        <time>2019-07-17T14:12:10Z</time>
      </trkpt>
      <trkpt lat="43.1558310" lon="-0.8958170">
        <ele>187.6</ele>
        <time>2019-07-17T14:12:14Z</time>
      </trkpt>
      <trkpt lat="43.1557640" lon="-0.8956870">
        <ele>187.6</ele>
        <time>2019-07-17T14:12:18Z</time>
      </trkpt>
      <trkpt lat="43.1556980" lon="-0.8955640">
        <ele>187.7</ele>
        <time>2019-07-17T14:12:22Z</time>
      </trkpt>
      <trkpt lat="43.1556280" lon="-0.8954350">
        <ele>187.8</ele>
        <time>2019-07-17T14:12:26Z</time>
      </trkpt>
      <trkpt lat="43.1555640" lon="-0.8953130">
        <ele>187.9</ele>
        <time>2019-07-17T14:12:30Z</time>
      </trkpt>
      <trkpt lat="43.1554830" lon="-0.8951970">
        <ele>188.0</ele>
        <time>2019-07-17T14:12:34Z</time>
      </trkpt>
      <trkpt lat="43.1554160" lon="-0.8951090">
        <ele>188.1</ele>
        <time>2019-07-17T14:12:37Z</time>
      </trkpt>
      <trkpt lat="43.1553360" lon="-0.8950080">
        <ele>188.2</ele>
        <time>2019-07-17T14:12:41Z</time>
      </trkpt>
      <trkpt lat="43.1552410" lon="-0.8949110">
        <ele>188.3</ele>
        <time>2019-07-17T14:12:45Z</time>
      </trkpt>
      <trkpt lat="43.1551550" lon="-0.8948220">
        <ele>188.4</ele>
        <time>2019-07-17T14:12:49Z</time>
      </trkpt>
      <trkpt lat="43.1550600" lon="-0.8947220">
        <ele>188.5</ele>
        <time>2019-07-17T14:12:53Z</time>
      </trkpt>
      <trkpt lat="43.1549880" lon="-0.8946400">
        <ele>188.6</ele>
        <time>2019-07-17T14:12:56Z</time>
      </trkpt>
      <trkpt lat="43.1549150" lon="-0.8945510">
        <ele>188.7</ele>
        <time>2019-07-17T14:12:59Z</time>
      </trkpt>
      <trkpt lat="43.1548390" lon="-0.8944860">
        <ele>188.8</ele>
        <time>2019-07-17T14:13:02Z</time>
      </trkpt>
      <trkpt lat="43.1547610" lon="-0.8944160">
        <ele>188.9</ele>
        <time>2019-07-17T14:13:05Z</time>
      </trkpt>
      <trkpt lat="43.1546780" lon="-0.8943500">
        <ele>189.0</ele>
        <time>2019-07-17T14:13:08Z</time>
      </trkpt>
      <trkpt lat="43.1545920" lon="-0.8942860">
        <ele>189.1</ele>
        <time>2019-07-17T14:13:11Z</time>
      </trkpt>
      <trkpt lat="43.1545090" lon="-0.8942240">
        <ele>189.2</ele>
        <time>2019-07-17T14:13:14Z</time>
      </trkpt>
      <trkpt lat="43.1544250" lon="-0.8941550">
        <ele>189.3</ele>
        <time>2019-07-17T14:13:17Z</time>
      </trkpt>
      <trkpt lat="43.1543490" lon="-0.8940750">
        <ele>189.4</ele>
        <time>2019-07-17T14:13:20Z</time>
      </trkpt>
      <trkpt lat="43.1542710" lon="-0.8939730">
        <ele>189.5</ele>
        <time>2019-07-17T14:13:24Z</time>
      </trkpt>
      <trkpt lat="43.1541810" lon="-0.8938610">
        <ele>189.6</ele>
        <time>2019-07-17T14:13:28Z</time>
      </trkpt>
      <trkpt lat="43.1541150" lon="-0.8937590">
        <ele>189.8</ele>
        <time>2019-07-17T14:13:31Z</time>
      </trkpt>
      <trkpt lat="43.1540520" lon="-0.8936590">
        <ele>189.9</ele>
        <time>2019-07-17T14:13:34Z</time>
      </trkpt>
      <trkpt lat="43.1539880" lon="-0.8935560">
        <ele>190.0</ele>
        <time>2019-07-17T14:13:37Z</time>
      </trkpt>
      <trkpt lat="43.1539230" lon="-0.8934550">
        <ele>190.1</ele>
        <time>2019-07-17T14:13:40Z</time>
      </trkpt>
      <trkpt lat="43.1538590" lon="-0.8933550">
        <ele>190.2</ele>
        <time>2019-07-17T14:13:43Z</time>
      </trkpt>
      <trkpt lat="43.1538030" lon="-0.8932380">
        <ele>190.4</ele>
        <time>2019-07-17T14:13:46Z</time>
      </trkpt>
      <trkpt lat="43.1537340" lon="-0.8931300">
        <ele>190.6</ele>
        <time>2019-07-17T14:13:49Z</time>
      </trkpt>
      <trkpt lat="43.1536770" lon="-0.8930150">
        <ele>190.8</ele>
        <time>2019-07-17T14:13:52Z</time>
      </trkpt>
      <trkpt lat="43.1536200" lon="-0.8929160">
        <ele>190.9</ele>
        <time>2019-07-17T14:13:55Z</time>
      </trkpt>
      <trkpt lat="43.1535740" lon="-0.8927980">
        <ele>191.1</ele>
        <time>2019-07-17T14:13:58Z</time>
      </trkpt>
      <trkpt lat="43.1535290" lon="-0.8926730">
        <ele>191.2</ele>
        <time>2019-07-17T14:14:01Z</time>
      </trkpt>
      <trkpt lat="43.1534740" lon="-0.8925480">
        <ele>191.4</ele>
        <time>2019-07-17T14:14:04Z</time>
      </trkpt>
      <trkpt lat="43.1534200" lon="-0.8924290">
        <ele>191.7</ele>
        <time>2019-07-17T14:14:07Z</time>
      </trkpt>
      <trkpt lat="43.1533530" lon="-0.8922980">
        <ele>192.0</ele>
        <time>2019-07-17T14:14:11Z</time>
      </trkpt>
      <trkpt lat="43.1532910" lon="-0.8921670">
        <ele>192.2</ele>
        <time>2019-07-17T14:14:15Z</time>
      </trkpt>
      <trkpt lat="43.1532300" lon="-0.8920710">
        <ele>192.5</ele>
        <time>2019-07-17T14:14:18Z</time>
      </trkpt>
      <trkpt lat="43.1531760" lon="-0.8919270">
        <ele>192.7</ele>
        <time>2019-07-17T14:14:22Z</time>
      </trkpt>
      <trkpt lat="43.1531360" lon="-0.8918040">
        <ele>192.9</ele>
        <time>2019-07-17T14:14:25Z</time>
      </trkpt>
      <trkpt lat="43.1530980" lon="-0.8916710">
        <ele>193.2</ele>
        <time>2019-07-17T14:14:28Z</time>
      </trkpt>
      <trkpt lat="43.1530720" lon="-0.8915360">
        <ele>193.4</ele>
        <time>2019-07-17T14:14:31Z</time>
      </trkpt>
      <trkpt lat="43.1530310" lon="-0.8913830">
        <ele>193.7</ele>
        <time>2019-07-17T14:14:35Z</time>
      </trkpt>
      <trkpt lat="43.1530070" lon="-0.8912620">
        <ele>194.0</ele>
        <time>2019-07-17T14:14:38Z</time>
      </trkpt>
      <trkpt lat="43.1530110" lon="-0.8911340">
        <ele>194.3</ele>
        <time>2019-07-17T14:14:42Z</time>
      </trkpt>
      <trkpt lat="43.1530230" lon="-0.8910100">
        <ele>194.6</ele>
        <time>2019-07-17T14:14:46Z</time>
      </trkpt>
      <trkpt lat="43.1530100" lon="-0.8908890">
        <ele>194.9</ele>
        <time>2019-07-17T14:14:55Z</time>
      </trkpt>
      <trkpt lat="43.1530120" lon="-0.8908870">
        <ele>194.9</ele>
        <time>2019-07-17T14:14:56Z</time>
      </trkpt>
      <trkpt lat="43.1529070" lon="-0.8908100">
        <ele>194.9</ele>
        <time>2019-07-17T14:15:12Z</time>
      </trkpt>
      <trkpt lat="43.1528170" lon="-0.8907780">
        <ele>194.8</ele>
        <time>2019-07-17T14:15:15Z</time>
      </trkpt>
      <trkpt lat="43.1527270" lon="-0.8907520">
        <ele>194.7</ele>
        <time>2019-07-17T14:15:18Z</time>
      </trkpt>
      <trkpt lat="43.1526240" lon="-0.8907220">
        <ele>194.6</ele>
        <time>2019-07-17T14:15:22Z</time>
      </trkpt>
      <trkpt lat="43.1525230" lon="-0.8907030">
        <ele>194.6</ele>
        <time>2019-07-17T14:15:25Z</time>
      </trkpt>
      <trkpt lat="43.1524230" lon="-0.8906550">
        <ele>194.5</ele>
        <time>2019-07-17T14:15:28Z</time>
      </trkpt>
      <trkpt lat="43.1523270" lon="-0.8905950">
        <ele>194.4</ele>
        <time>2019-07-17T14:15:31Z</time>
      </trkpt>
      <trkpt lat="43.1522250" lon="-0.8905410">
        <ele>194.3</ele>
        <time>2019-07-17T14:15:34Z</time>
      </trkpt>
      <trkpt lat="43.1521210" lon="-0.8904960">
        <ele>194.1</ele>
        <time>2019-07-17T14:15:37Z</time>
      </trkpt>
      <trkpt lat="43.1520060" lon="-0.8904660">
        <ele>193.9</ele>
        <time>2019-07-17T14:15:40Z</time>
      </trkpt>
      <trkpt lat="43.1518930" lon="-0.8904410">
        <ele>193.9</ele>
        <time>2019-07-17T14:15:43Z</time>
      </trkpt>
      <trkpt lat="43.1517920" lon="-0.8904260">
        <ele>193.9</ele>
        <time>2019-07-17T14:15:46Z</time>
      </trkpt>
      <trkpt lat="43.1516920" lon="-0.8904080">
        <ele>193.9</ele>
        <time>2019-07-17T14:15:49Z</time>
      </trkpt>
      <trkpt lat="43.1515960" lon="-0.8903920">
        <ele>193.9</ele>
        <time>2019-07-17T14:15:52Z</time>
      </trkpt>
      <trkpt lat="43.1515000" lon="-0.8903790">
        <ele>193.9</ele>
        <time>2019-07-17T14:15:55Z</time>
      </trkpt>
      <trkpt lat="43.1514060" lon="-0.8903540">
        <ele>194.0</ele>
        <time>2019-07-17T14:15:58Z</time>
      </trkpt>
      <trkpt lat="43.1513120" lon="-0.8903330">
        <ele>194.0</ele>
        <time>2019-07-17T14:16:01Z</time>
      </trkpt>
      <trkpt lat="43.1512140" lon="-0.8903220">
        <ele>194.1</ele>
        <time>2019-07-17T14:16:04Z</time>
      </trkpt>
      <trkpt lat="43.1511110" lon="-0.8903020">
        <ele>194.2</ele>
        <time>2019-07-17T14:16:07Z</time>
      </trkpt>
      <trkpt lat="43.1510030" lon="-0.8902880">
        <ele>194.2</ele>
        <time>2019-07-17T14:16:10Z</time>
      </trkpt>
      <trkpt lat="43.1508960" lon="-0.8902700">
        <ele>194.3</ele>
        <time>2019-07-17T14:16:13Z</time>
      </trkpt>
      <trkpt lat="43.1507750" lon="-0.8902520">
        <ele>194.4</ele>
        <time>2019-07-17T14:16:16Z</time>
      </trkpt>
      <trkpt lat="43.1506570" lon="-0.8902310">
        <ele>194.4</ele>
        <time>2019-07-17T14:16:19Z</time>
      </trkpt>
      <trkpt lat="43.1505390" lon="-0.8902070">
        <ele>194.5</ele>
        <time>2019-07-17T14:16:22Z</time>
      </trkpt>
      <trkpt lat="43.1504200" lon="-0.8901840">
        <ele>194.6</ele>
        <time>2019-07-17T14:16:25Z</time>
      </trkpt>
      <trkpt lat="43.1503070" lon="-0.8901680">
        <ele>194.7</ele>
        <time>2019-07-17T14:16:28Z</time>
      </trkpt>
      <trkpt lat="43.1501910" lon="-0.8901530">
        <ele>194.8</ele>
        <time>2019-07-17T14:16:31Z</time>
      </trkpt>
      <trkpt lat="43.1500820" lon="-0.8901300">
        <ele>194.9</ele>
        <time>2019-07-17T14:16:34Z</time>
      </trkpt>
      <trkpt lat="43.1499760" lon="-0.8900930">
        <ele>195.0</ele>
        <time>2019-07-17T14:16:37Z</time>
      </trkpt>
      <trkpt lat="43.1498770" lon="-0.8900540">
        <ele>195.0</ele>
        <time>2019-07-17T14:16:40Z</time>
      </trkpt>
      <trkpt lat="43.1497710" lon="-0.8900240">
        <ele>195.1</ele>
        <time>2019-07-17T14:16:43Z</time>
      </trkpt>
      <trkpt lat="43.1496690" lon="-0.8899950">
        <ele>195.2</ele>
        <time>2019-07-17T14:16:46Z</time>
      </trkpt>
      <trkpt lat="43.1495590" lon="-0.8899680">
        <ele>195.3</ele>
        <time>2019-07-17T14:16:49Z</time>
      </trkpt>
      <trkpt lat="43.1494530" lon="-0.8899430">
        <ele>195.4</ele>
        <time>2019-07-17T14:16:52Z</time>
      </trkpt>
      <trkpt lat="43.1493490" lon="-0.8899130">
        <ele>195.4</ele>
        <time>2019-07-17T14:16:55Z</time>
      </trkpt>
      <trkpt lat="43.1492450" lon="-0.8898820">
        <ele>195.5</ele>
        <time>2019-07-17T14:16:58Z</time>
      </trkpt>
      <trkpt lat="43.1491400" lon="-0.8898500">
        <ele>195.6</ele>
        <time>2019-07-17T14:17:01Z</time>
      </trkpt>
      <trkpt lat="43.1490310" lon="-0.8898200">
        <ele>195.7</ele>
        <time>2019-07-17T14:17:04Z</time>
      </trkpt>
      <trkpt lat="43.1489270" lon="-0.8897860">
        <ele>195.8</ele>
        <time>2019-07-17T14:17:07Z</time>
      </trkpt>
      <trkpt lat="43.1488200" lon="-0.8897580">
        <ele>195.9</ele>
        <time>2019-07-17T14:17:10Z</time>
      </trkpt>
      <trkpt lat="43.1487220" lon="-0.8897280">
        <ele>196.1</ele>
        <time>2019-07-17T14:17:13Z</time>
      </trkpt>
      <trkpt lat="43.1486140" lon="-0.8897020">
        <ele>196.3</ele>
        <time>2019-07-17T14:17:16Z</time>
      </trkpt>
      <trkpt lat="43.1485080" lon="-0.8896730">
        <ele>196.7</ele>
        <time>2019-07-17T14:17:19Z</time>
      </trkpt>
      <trkpt lat="43.1484100" lon="-0.8896530">
        <ele>197.0</ele>
        <time>2019-07-17T14:17:22Z</time>
      </trkpt>
      <trkpt lat="43.1483110" lon="-0.8896250">
        <ele>197.4</ele>
        <time>2019-07-17T14:17:25Z</time>
      </trkpt>
      <trkpt lat="43.1482120" lon="-0.8896000">
        <ele>197.8</ele>
        <time>2019-07-17T14:17:28Z</time>
      </trkpt>
      <trkpt lat="43.1481100" lon="-0.8895740">
        <ele>198.1</ele>
        <time>2019-07-17T14:17:31Z</time>
      </trkpt>
      <trkpt lat="43.1480050" lon="-0.8895550">
        <ele>198.4</ele>
        <time>2019-07-17T14:17:34Z</time>
      </trkpt>
      <trkpt lat="43.1479020" lon="-0.8895480">
        <ele>198.6</ele>
        <time>2019-07-17T14:17:37Z</time>
      </trkpt>
      <trkpt lat="43.1477910" lon="-0.8895370">
        <ele>198.8</ele>
        <time>2019-07-17T14:17:40Z</time>
      </trkpt>
      <trkpt lat="43.1476790" lon="-0.8895450">
        <ele>198.9</ele>
        <time>2019-07-17T14:17:43Z</time>
      </trkpt>
      <trkpt lat="43.1475720" lon="-0.8895480">
        <ele>199.0</ele>
        <time>2019-07-17T14:17:46Z</time>
      </trkpt>
      <trkpt lat="43.1474740" lon="-0.8895590">
        <ele>199.0</ele>
        <time>2019-07-17T14:17:49Z</time>
      </trkpt>
      <trkpt lat="43.1473800" lon="-0.8895640">
        <ele>199.1</ele>
        <time>2019-07-17T14:17:52Z</time>
      </trkpt>
      <trkpt lat="43.1472820" lon="-0.8895780">
        <ele>199.2</ele>
        <time>2019-07-17T14:17:55Z</time>
      </trkpt>
      <trkpt lat="43.1471860" lon="-0.8895930">
        <ele>199.3</ele>
        <time>2019-07-17T14:17:58Z</time>
      </trkpt>
      <trkpt lat="43.1470890" lon="-0.8896060">
        <ele>199.4</ele>
        <time>2019-07-17T14:18:01Z</time>
      </trkpt>
      <trkpt lat="43.1469970" lon="-0.8896140">
        <ele>199.4</ele>
        <time>2019-07-17T14:18:04Z</time>
      </trkpt>
      <trkpt lat="43.1468770" lon="-0.8896180">
        <ele>199.6</ele>
        <time>2019-07-17T14:18:08Z</time>
      </trkpt>
      <trkpt lat="43.1467660" lon="-0.8896220">
        <ele>199.8</ele>
        <time>2019-07-17T14:18:12Z</time>
      </trkpt>
      <trkpt lat="43.1466570" lon="-0.8896040">
        <ele>200.1</ele>
        <time>2019-07-17T14:18:16Z</time>
      </trkpt>
      <trkpt lat="43.1465520" lon="-0.8895800">
        <ele>200.5</ele>
        <time>2019-07-17T14:18:20Z</time>
      </trkpt>
      <trkpt lat="43.1464460" lon="-0.8895420">
        <ele>200.9</ele>
        <time>2019-07-17T14:18:24Z</time>
      </trkpt>
      <trkpt lat="43.1463600" lon="-0.8895010">
        <ele>201.3</ele>
        <time>2019-07-17T14:18:27Z</time>
      </trkpt>
      <trkpt lat="43.1462500" lon="-0.8894390">
        <ele>201.8</ele>
        <time>2019-07-17T14:18:31Z</time>
      </trkpt>
      <trkpt lat="43.1461700" lon="-0.8893760">
        <ele>202.0</ele>
        <time>2019-07-17T14:18:34Z</time>
      </trkpt>
      <trkpt lat="43.1460950" lon="-0.8893020">
        <ele>202.2</ele>
        <time>2019-07-17T14:18:37Z</time>
      </trkpt>
      <trkpt lat="43.1460240" lon="-0.8892150">
        <ele>202.3</ele>
        <time>2019-07-17T14:18:40Z</time>
      </trkpt>
      <trkpt lat="43.1459500" lon="-0.8891200">
        <ele>202.5</ele>
        <time>2019-07-17T14:18:43Z</time>
      </trkpt>
      <trkpt lat="43.1458870" lon="-0.8890180">
        <ele>202.5</ele>
        <time>2019-07-17T14:18:46Z</time>
      </trkpt>
      <trkpt lat="43.1458270" lon="-0.8889060">
        <ele>202.6</ele>
        <time>2019-07-17T14:18:49Z</time>
      </trkpt>
      <trkpt lat="43.1457760" lon="-0.8887770">
        <ele>202.7</ele>
        <time>2019-07-17T14:18:52Z</time>
      </trkpt>
      <trkpt lat="43.1457230" lon="-0.8886470">
        <ele>202.8</ele>
        <time>2019-07-17T14:18:55Z</time>
      </trkpt>
      <trkpt lat="43.1456760" lon="-0.8885170">
        <ele>202.8</ele>
        <time>2019-07-17T14:18:58Z</time>
      </trkpt>
      <trkpt lat="43.1456310" lon="-0.8883870">
        <ele>202.9</ele>
        <time>2019-07-17T14:19:01Z</time>
      </trkpt>
      <trkpt lat="43.1455910" lon="-0.8882470">
        <ele>203.0</ele>
        <time>2019-07-17T14:19:04Z</time>
      </trkpt>
      <trkpt lat="43.1455480" lon="-0.8881120">
        <ele>203.1</ele>
        <time>2019-07-17T14:19:07Z</time>
      </trkpt>
      <trkpt lat="43.1455020" lon="-0.8879850">
        <ele>203.2</ele>
        <time>2019-07-17T14:19:10Z</time>
      </trkpt>
      <trkpt lat="43.1454680" lon="-0.8878570">
        <ele>203.2</ele>
        <time>2019-07-17T14:19:13Z</time>
      </trkpt>
      <trkpt lat="43.1454220" lon="-0.8877260">
        <ele>203.3</ele>
        <time>2019-07-17T14:19:16Z</time>
      </trkpt>
      <trkpt lat="43.1453820" lon="-0.8875920">
        <ele>203.4</ele>
        <time>2019-07-17T14:19:19Z</time>
      </trkpt>
      <trkpt lat="43.1453430" lon="-0.8874560">
        <ele>203.5</ele>
        <time>2019-07-17T14:19:22Z</time>
      </trkpt>
      <trkpt lat="43.1453000" lon="-0.8873290">
        <ele>203.5</ele>
        <time>2019-07-17T14:19:25Z</time>
      </trkpt>
      <trkpt lat="43.1452600" lon="-0.8871920">
        <ele>203.6</ele>
        <time>2019-07-17T14:19:28Z</time>
      </trkpt>
      <trkpt lat="43.1452140" lon="-0.8870630">
        <ele>203.7</ele>
        <time>2019-07-17T14:19:31Z</time>
      </trkpt>
      <trkpt lat="43.1451800" lon="-0.8869290">
        <ele>203.8</ele>
        <time>2019-07-17T14:19:34Z</time>
      </trkpt>
      <trkpt lat="43.1451400" lon="-0.8867960">
        <ele>203.8</ele>
        <time>2019-07-17T14:19:37Z</time>
      </trkpt>
      <trkpt lat="43.1450980" lon="-0.8866640">
        <ele>203.9</ele>
        <time>2019-07-17T14:19:40Z</time>
      </trkpt>
      <trkpt lat="43.1450570" lon="-0.8865310">
        <ele>204.0</ele>
        <time>2019-07-17T14:19:43Z</time>
      </trkpt>
      <trkpt lat="43.1450180" lon="-0.8864000">
        <ele>204.1</ele>
        <time>2019-07-17T14:19:46Z</time>
      </trkpt>
      <trkpt lat="43.1449720" lon="-0.8862720">
        <ele>204.3</ele>
        <time>2019-07-17T14:19:49Z</time>
      </trkpt>
      <trkpt lat="43.1449280" lon="-0.8861490">
        <ele>204.5</ele>
        <time>2019-07-17T14:19:52Z</time>
      </trkpt>
      <trkpt lat="43.1448790" lon="-0.8860290">
        <ele>204.8</ele>
        <time>2019-07-17T14:19:55Z</time>
      </trkpt>
      <trkpt lat="43.1448320" lon="-0.8859130">
        <ele>205.1</ele>
        <time>2019-07-17T14:19:58Z</time>
      </trkpt>
      <trkpt lat="43.1447850" lon="-0.8858000">
        <ele>205.5</ele>
        <time>2019-07-17T14:20:01Z</time>
      </trkpt>
      <trkpt lat="43.1447350" lon="-0.8856860">
        <ele>205.8</ele>
        <time>2019-07-17T14:20:04Z</time>
      </trkpt>
      <trkpt lat="43.1446880" lon="-0.8855730">
        <ele>206.1</ele>
        <time>2019-07-17T14:20:07Z</time>
      </trkpt>
      <trkpt lat="43.1446450" lon="-0.8854590">
        <ele>206.4</ele>
        <time>2019-07-17T14:20:10Z</time>
      </trkpt>
      <trkpt lat="43.1445880" lon="-0.8853490">
        <ele>206.6</ele>
        <time>2019-07-17T14:20:13Z</time>
      </trkpt>
      <trkpt lat="43.1445310" lon="-0.8852420">
        <ele>206.7</ele>
        <time>2019-07-17T14:20:16Z</time>
      </trkpt>
      <trkpt lat="43.1444770" lon="-0.8851250">
        <ele>206.8</ele>
        <time>2019-07-17T14:20:19Z</time>
      </trkpt>
      <trkpt lat="43.1444250" lon="-0.8850120">
        <ele>206.9</ele>
        <time>2019-07-17T14:20:22Z</time>
      </trkpt>
      <trkpt lat="43.1443720" lon="-0.8849010">
        <ele>207.0</ele>
        <time>2019-07-17T14:20:25Z</time>
      </trkpt>
      <trkpt lat="43.1443270" lon="-0.8847900">
        <ele>206.8</ele>
        <time>2019-07-17T14:20:28Z</time>
      </trkpt>
      <trkpt lat="43.1442810" lon="-0.8846820">
        <ele>206.7</ele>
        <time>2019-07-17T14:20:31Z</time>
      </trkpt>
      <trkpt lat="43.1442280" lon="-0.8845740">
        <ele>206.5</ele>
        <time>2019-07-17T14:20:34Z</time>
      </trkpt>
      <trkpt lat="43.1441750" lon="-0.8844640">
        <ele>206.3</ele>
        <time>2019-07-17T14:20:37Z</time>
      </trkpt>
      <trkpt lat="43.1441260" lon="-0.8843540">
        <ele>206.1</ele>
        <time>2019-07-17T14:20:40Z</time>
      </trkpt>
      <trkpt lat="43.1440770" lon="-0.8842370">
        <ele>205.9</ele>
        <time>2019-07-17T14:20:43Z</time>
      </trkpt>
      <trkpt lat="43.1440230" lon="-0.8841250">
        <ele>205.7</ele>
        <time>2019-07-17T14:20:46Z</time>
      </trkpt>
      <trkpt lat="43.1439750" lon="-0.8840130">
        <ele>205.6</ele>
        <time>2019-07-17T14:20:49Z</time>
      </trkpt>
      <trkpt lat="43.1439200" lon="-0.8838920">
        <ele>205.5</ele>
        <time>2019-07-17T14:20:52Z</time>
      </trkpt>
      <trkpt lat="43.1438670" lon="-0.8837810">
        <ele>205.4</ele>
        <time>2019-07-17T14:20:55Z</time>
      </trkpt>
      <trkpt lat="43.1438160" lon="-0.8836620">
        <ele>205.3</ele>
        <time>2019-07-17T14:20:58Z</time>
      </trkpt>
      <trkpt lat="43.1437640" lon="-0.8835460">
        <ele>205.3</ele>
        <time>2019-07-17T14:21:01Z</time>
      </trkpt>
      <trkpt lat="43.1437110" lon="-0.8834300">
        <ele>205.2</ele>
        <time>2019-07-17T14:21:04Z</time>
      </trkpt>
      <trkpt lat="43.1436580" lon="-0.8833060">
        <ele>205.2</ele>
        <time>2019-07-17T14:21:07Z</time>
      </trkpt>
      <trkpt lat="43.1436060" lon="-0.8831830">
        <ele>205.0</ele>
        <time>2019-07-17T14:21:10Z</time>
      </trkpt>
      <trkpt lat="43.1435490" lon="-0.8830650">
        <ele>204.8</ele>
        <time>2019-07-17T14:21:13Z</time>
      </trkpt>
      <trkpt lat="43.1434980" lon="-0.8829480">
        <ele>204.7</ele>
        <time>2019-07-17T14:21:16Z</time>
      </trkpt>
      <trkpt lat="43.1434480" lon="-0.8828330">
        <ele>204.5</ele>
        <time>2019-07-17T14:21:19Z</time>
      </trkpt>
      <trkpt lat="43.1433940" lon="-0.8827110">
        <ele>204.5</ele>
        <time>2019-07-17T14:21:22Z</time>
      </trkpt>
      <trkpt lat="43.1433400" lon="-0.8826010">
        <ele>204.6</ele>
        <time>2019-07-17T14:21:25Z</time>
      </trkpt>
      <trkpt lat="43.1432900" lon="-0.8824920">
        <ele>204.7</ele>
        <time>2019-07-17T14:21:28Z</time>
      </trkpt>
      <trkpt lat="43.1432350" lon="-0.8823780">
        <ele>204.8</ele>
        <time>2019-07-17T14:21:31Z</time>
      </trkpt>
      <trkpt lat="43.1431790" lon="-0.8822580">
        <ele>204.8</ele>
        <time>2019-07-17T14:21:34Z</time>
      </trkpt>
      <trkpt lat="43.1431270" lon="-0.8821470">
        <ele>204.9</ele>
        <time>2019-07-17T14:21:37Z</time>
      </trkpt>
      <trkpt lat="43.1430750" lon="-0.8820370">
        <ele>205.0</ele>
        <time>2019-07-17T14:21:40Z</time>
      </trkpt>
      <trkpt lat="43.1430160" lon="-0.8818940">
        <ele>205.1</ele>
        <time>2019-07-17T14:21:44Z</time>
      </trkpt>
      <trkpt lat="43.1429620" lon="-0.8817880">
        <ele>205.2</ele>
        <time>2019-07-17T14:21:47Z</time>
      </trkpt>
      <trkpt lat="43.1429150" lon="-0.8816830">
        <ele>205.3</ele>
        <time>2019-07-17T14:21:50Z</time>
      </trkpt>
      <trkpt lat="43.1428610" lon="-0.8815670">
        <ele>205.4</ele>
        <time>2019-07-17T14:21:53Z</time>
      </trkpt>
      <trkpt lat="43.1428060" lon="-0.8814350">
        <ele>205.5</ele>
        <time>2019-07-17T14:21:57Z</time>
      </trkpt>
      <trkpt lat="43.1427430" lon="-0.8813000">
        <ele>205.6</ele>
        <time>2019-07-17T14:22:01Z</time>
      </trkpt>
      <trkpt lat="43.1426850" lon="-0.8811740">
        <ele>205.6</ele>
        <time>2019-07-17T14:22:05Z</time>
      </trkpt>
      <trkpt lat="43.1426230" lon="-0.8810400">
        <ele>205.7</ele>
        <time>2019-07-17T14:22:09Z</time>
      </trkpt>
      <trkpt lat="43.1425750" lon="-0.8809300">
        <ele>205.7</ele>
        <time>2019-07-17T14:22:12Z</time>
      </trkpt>
      <trkpt lat="43.1425190" lon="-0.8808170">
        <ele>205.8</ele>
        <time>2019-07-17T14:22:15Z</time>
      </trkpt>
      <trkpt lat="43.1424570" lon="-0.8806820">
        <ele>205.8</ele>
        <time>2019-07-17T14:22:19Z</time>
      </trkpt>
      <trkpt lat="43.1424220" lon="-0.8806180">
        <ele>205.9</ele>
        <time>2019-07-17T14:22:26Z</time>
      </trkpt>
      <trkpt lat="43.1423770" lon="-0.8804890">
        <ele>205.9</ele>
        <time>2019-07-17T14:22:36Z</time>
      </trkpt>
      <trkpt lat="43.1423250" lon="-0.8803790">
        <ele>205.9</ele>
        <time>2019-07-17T14:22:40Z</time>
      </trkpt>
      <trkpt lat="43.1423160" lon="-0.8803630">
        <ele>205.9</ele>
        <time>2019-07-17T14:22:44Z</time>
      </trkpt>
      <trkpt lat="43.1422670" lon="-0.8802300">
        <ele>206.0</ele>
        <time>2019-07-17T14:23:01Z</time>
      </trkpt>
      <trkpt lat="43.1422100" lon="-0.8800900">
        <ele>206.0</ele>
        <time>2019-07-17T14:23:04Z</time>
      </trkpt>
      <trkpt lat="43.1421610" lon="-0.8799820">
        <ele>206.0</ele>
        <time>2019-07-17T14:23:06Z</time>
      </trkpt>
      <trkpt lat="43.1421090" lon="-0.8798800">
        <ele>206.0</ele>
        <time>2019-07-17T14:23:08Z</time>
      </trkpt>
      <trkpt lat="43.1420590" lon="-0.8797720">
        <ele>206.1</ele>
        <time>2019-07-17T14:23:10Z</time>
      </trkpt>
      <trkpt lat="43.1420120" lon="-0.8796610">
        <ele>206.1</ele>
        <time>2019-07-17T14:23:12Z</time>
      </trkpt>
      <trkpt lat="43.1419620" lon="-0.8795520">
        <ele>206.1</ele>
        <time>2019-07-17T14:23:14Z</time>
      </trkpt>
      <trkpt lat="43.1419120" lon="-0.8794450">
        <ele>206.1</ele>
        <time>2019-07-17T14:23:16Z</time>
      </trkpt>
      <trkpt lat="43.1418580" lon="-0.8793330">
        <ele>206.1</ele>
        <time>2019-07-17T14:23:18Z</time>
      </trkpt>
      <trkpt lat="43.1418080" lon="-0.8792190">
        <ele>206.1</ele>
        <time>2019-07-17T14:23:20Z</time>
      </trkpt>
      <trkpt lat="43.1417500" lon="-0.8791070">
        <ele>206.1</ele>
        <time>2019-07-17T14:23:22Z</time>
      </trkpt>
      <trkpt lat="43.1417000" lon="-0.8790020">
        <ele>206.0</ele>
        <time>2019-07-17T14:23:24Z</time>
      </trkpt>
      <trkpt lat="43.1416260" lon="-0.8788490">
        <ele>206.0</ele>
        <time>2019-07-17T14:23:27Z</time>
      </trkpt>
      <trkpt lat="43.1415710" lon="-0.8787440">
        <ele>206.0</ele>
        <time>2019-07-17T14:23:29Z</time>
      </trkpt>
      <trkpt lat="43.1415130" lon="-0.8786360">
        <ele>206.0</ele>
        <time>2019-07-17T14:23:31Z</time>
      </trkpt>
      <trkpt lat="43.1414510" lon="-0.8785350">
        <ele>205.9</ele>
        <time>2019-07-17T14:23:33Z</time>
      </trkpt>
      <trkpt lat="43.1413890" lon="-0.8784370">
        <ele>205.9</ele>
        <time>2019-07-17T14:23:35Z</time>
      </trkpt>
      <trkpt lat="43.1413270" lon="-0.8783400">
        <ele>205.8</ele>
        <time>2019-07-17T14:23:37Z</time>
      </trkpt>
      <trkpt lat="43.1412560" lon="-0.8782470">
        <ele>205.7</ele>
        <time>2019-07-17T14:23:39Z</time>
      </trkpt>
      <trkpt lat="43.1411740" lon="-0.8781640">
        <ele>205.6</ele>
        <time>2019-07-17T14:23:41Z</time>
      </trkpt>
      <trkpt lat="43.1410880" lon="-0.8780830">
        <ele>205.5</ele>
        <time>2019-07-17T14:23:43Z</time>
      </trkpt>
      <trkpt lat="43.1409990" lon="-0.8780070">
        <ele>205.3</ele>
        <time>2019-07-17T14:23:45Z</time>
      </trkpt>
      <trkpt lat="43.1409080" lon="-0.8779360">
        <ele>205.2</ele>
        <time>2019-07-17T14:23:47Z</time>
      </trkpt>
      <trkpt lat="43.1408180" lon="-0.8778720">
        <ele>205.1</ele>
        <time>2019-07-17T14:23:49Z</time>
      </trkpt>
      <trkpt lat="43.1407200" lon="-0.8778080">
        <ele>204.9</ele>
        <time>2019-07-17T14:23:51Z</time>
      </trkpt>
      <trkpt lat="43.1406190" lon="-0.8777480">
        <ele>204.8</ele>
        <time>2019-07-17T14:23:53Z</time>
      </trkpt>
      <trkpt lat="43.1405200" lon="-0.8776920">
        <ele>204.7</ele>
        <time>2019-07-17T14:23:55Z</time>
      </trkpt>
      <trkpt lat="43.1404210" lon="-0.8776410">
        <ele>204.7</ele>
        <time>2019-07-17T14:23:57Z</time>
      </trkpt>
      <trkpt lat="43.1403250" lon="-0.8775930">
        <ele>204.6</ele>
        <time>2019-07-17T14:23:59Z</time>
      </trkpt>
      <trkpt lat="43.1402380" lon="-0.8775470">
        <ele>204.7</ele>
        <time>2019-07-17T14:24:01Z</time>
      </trkpt>
      <trkpt lat="43.1401560" lon="-0.8774960">
        <ele>204.7</ele>
        <time>2019-07-17T14:24:03Z</time>
      </trkpt>
      <trkpt lat="43.1400400" lon="-0.8774160">
        <ele>204.8</ele>
        <time>2019-07-17T14:24:06Z</time>
      </trkpt>
      <trkpt lat="43.1399490" lon="-0.8773750">
        <ele>205.0</ele>
        <time>2019-07-17T14:24:08Z</time>
      </trkpt>
      <trkpt lat="43.1398550" lon="-0.8773330">
        <ele>205.1</ele>
        <time>2019-07-17T14:24:10Z</time>
      </trkpt>
      <trkpt lat="43.1397360" lon="-0.8772700">
        <ele>205.4</ele>
        <time>2019-07-17T14:24:13Z</time>
      </trkpt>
      <trkpt lat="43.1396310" lon="-0.8772090">
        <ele>205.6</ele>
        <time>2019-07-17T14:24:16Z</time>
      </trkpt>
      <trkpt lat="43.1395280" lon="-0.8771570">
        <ele>205.9</ele>
        <time>2019-07-17T14:24:19Z</time>
      </trkpt>
      <trkpt lat="43.1394330" lon="-0.8771030">
        <ele>206.2</ele>
        <time>2019-07-17T14:24:22Z</time>
      </trkpt>
      <trkpt lat="43.1393460" lon="-0.8770540">
        <ele>206.5</ele>
        <time>2019-07-17T14:24:25Z</time>
      </trkpt>
      <trkpt lat="43.1392480" lon="-0.8770080">
        <ele>206.8</ele>
        <time>2019-07-17T14:24:29Z</time>
      </trkpt>
      <trkpt lat="43.1391560" lon="-0.8769490">
        <ele>207.1</ele>
        <time>2019-07-17T14:24:34Z</time>
      </trkpt>
      <trkpt lat="43.1390680" lon="-0.8769040">
        <ele>207.4</ele>
        <time>2019-07-17T14:24:38Z</time>
      </trkpt>
      <trkpt lat="43.1389750" lon="-0.8768490">
        <ele>207.7</ele>
        <time>2019-07-17T14:24:42Z</time>
      </trkpt>
      <trkpt lat="43.1388870" lon="-0.8767920">
        <ele>208.0</ele>
        <time>2019-07-17T14:24:46Z</time>
      </trkpt>
      <trkpt lat="43.1387910" lon="-0.8767390">
        <ele>208.3</ele>
        <time>2019-07-17T14:24:50Z</time>
      </trkpt>
      <trkpt lat="43.1386980" lon="-0.8766940">
        <ele>208.3</ele>
        <time>2019-07-17T14:24:54Z</time>
      </trkpt>
      <trkpt lat="43.1385960" lon="-0.8766460">
        <ele>208.4</ele>
        <time>2019-07-17T14:24:58Z</time>
      </trkpt>
      <trkpt lat="43.1384890" lon="-0.8765890">
        <ele>208.4</ele>
        <time>2019-07-17T14:25:02Z</time>
      </trkpt>
      <trkpt lat="43.1383830" lon="-0.8765300">
        <ele>208.4</ele>
        <time>2019-07-17T14:25:06Z</time>
      </trkpt>
      <trkpt lat="43.1382990" lon="-0.8764880">
        <ele>208.5</ele>
        <time>2019-07-17T14:25:09Z</time>
      </trkpt>
      <trkpt lat="43.1382080" lon="-0.8764440">
        <ele>208.6</ele>
        <time>2019-07-17T14:25:12Z</time>
      </trkpt>
      <trkpt lat="43.1381170" lon="-0.8763910">
        <ele>208.7</ele>
        <time>2019-07-17T14:25:15Z</time>
      </trkpt>
      <trkpt lat="43.1380250" lon="-0.8763360">
        <ele>208.7</ele>
        <time>2019-07-17T14:25:18Z</time>
      </trkpt>
      <trkpt lat="43.1379230" lon="-0.8762820">
        <ele>208.8</ele>
        <time>2019-07-17T14:25:21Z</time>
      </trkpt>
      <trkpt lat="43.1378230" lon="-0.8762320">
        <ele>208.9</ele>
        <time>2019-07-17T14:25:24Z</time>
      </trkpt>
      <trkpt lat="43.1377270" lon="-0.8761820">
        <ele>208.9</ele>
        <time>2019-07-17T14:25:27Z</time>
      </trkpt>
      <trkpt lat="43.1376290" lon="-0.8761270">
        <ele>209.0</ele>
        <time>2019-07-17T14:25:30Z</time>
      </trkpt>
      <trkpt lat="43.1375360" lon="-0.8760690">
        <ele>209.1</ele>
        <time>2019-07-17T14:25:33Z</time>
      </trkpt>
      <trkpt lat="43.1374290" lon="-0.8760220">
        <ele>209.2</ele>
        <time>2019-07-17T14:25:36Z</time>
      </trkpt>
      <trkpt lat="43.1373160" lon="-0.8759800">
        <ele>209.2</ele>
        <time>2019-07-17T14:25:39Z</time>
      </trkpt>
      <trkpt lat="43.1372150" lon="-0.8759320">
        <ele>209.3</ele>
        <time>2019-07-17T14:25:42Z</time>
      </trkpt>
      <trkpt lat="43.1371080" lon="-0.8758670">
        <ele>209.3</ele>
        <time>2019-07-17T14:25:45Z</time>
      </trkpt>
      <trkpt lat="43.1369980" lon="-0.8758100">
        <ele>209.4</ele>
        <time>2019-07-17T14:25:48Z</time>
      </trkpt>
      <trkpt lat="43.1368850" lon="-0.8757530">
        <ele>209.5</ele>
        <time>2019-07-17T14:25:51Z</time>
      </trkpt>
      <trkpt lat="43.1367740" lon="-0.8756980">
        <ele>209.6</ele>
        <time>2019-07-17T14:25:54Z</time>
      </trkpt>
      <trkpt lat="43.1366660" lon="-0.8756520">
        <ele>209.7</ele>
        <time>2019-07-17T14:25:57Z</time>
      </trkpt>
      <trkpt lat="43.1365490" lon="-0.8756100">
        <ele>209.9</ele>
        <time>2019-07-17T14:26:00Z</time>
      </trkpt>
      <trkpt lat="43.1364340" lon="-0.8755830">
        <ele>210.0</ele>
        <time>2019-07-17T14:26:03Z</time>
      </trkpt>
      <trkpt lat="43.1363140" lon="-0.8755560">
        <ele>210.1</ele>
        <time>2019-07-17T14:26:06Z</time>
      </trkpt>
      <trkpt lat="43.1362220" lon="-0.8755380">
        <ele>210.2</ele>
        <time>2019-07-17T14:26:08Z</time>
      </trkpt>
      <trkpt lat="43.1361320" lon="-0.8755230">
        <ele>210.3</ele>
        <time>2019-07-17T14:26:10Z</time>
      </trkpt>
      <trkpt lat="43.1360430" lon="-0.8755010">
        <ele>210.3</ele>
        <time>2019-07-17T14:26:12Z</time>
      </trkpt>
      <trkpt lat="43.1359140" lon="-0.8754790">
        <ele>210.5</ele>
        <time>2019-07-17T14:26:15Z</time>
      </trkpt>
      <trkpt lat="43.1357890" lon="-0.8754520">
        <ele>210.6</ele>
        <time>2019-07-17T14:26:18Z</time>
      </trkpt>
      <trkpt lat="43.1356610" lon="-0.8754340">
        <ele>210.7</ele>
        <time>2019-07-17T14:26:21Z</time>
      </trkpt>
      <trkpt lat="43.1355430" lon="-0.8754110">
        <ele>210.8</ele>
        <time>2019-07-17T14:26:24Z</time>
      </trkpt>
      <trkpt lat="43.1354230" lon="-0.8753960">
        <ele>210.9</ele>
        <time>2019-07-17T14:26:27Z</time>
      </trkpt>
      <trkpt lat="43.1353330" lon="-0.8753970">
        <ele>211.0</ele>
        <time>2019-07-17T14:26:29Z</time>
      </trkpt>
      <trkpt lat="43.1352410" lon="-0.8754030">
        <ele>211.2</ele>
        <time>2019-07-17T14:26:31Z</time>
      </trkpt>
      <trkpt lat="43.1351180" lon="-0.8754400">
        <ele>211.3</ele>
        <time>2019-07-17T14:26:34Z</time>
      </trkpt>
      <trkpt lat="43.1350060" lon="-0.8755170">
        <ele>211.2</ele>
        <time>2019-07-17T14:26:37Z</time>
      </trkpt>
      <trkpt lat="43.1349050" lon="-0.8756150">
        <ele>211.1</ele>
        <time>2019-07-17T14:26:40Z</time>
      </trkpt>
      <trkpt lat="43.1348110" lon="-0.8757310">
        <ele>211.0</ele>
        <time>2019-07-17T14:26:43Z</time>
      </trkpt>
      <trkpt lat="43.1347170" lon="-0.8758420">
        <ele>211.0</ele>
        <time>2019-07-17T14:26:46Z</time>
      </trkpt>
      <trkpt lat="43.1346270" lon="-0.8759480">
        <ele>211.0</ele>
        <time>2019-07-17T14:26:49Z</time>
      </trkpt>
      <trkpt lat="43.1345440" lon="-0.8760480">
        <ele>211.0</ele>
        <time>2019-07-17T14:26:52Z</time>
      </trkpt>
      <trkpt lat="43.1344680" lon="-0.8761240">
        <ele>211.1</ele>
        <time>2019-07-17T14:26:55Z</time>
      </trkpt>
      <trkpt lat="43.1343970" lon="-0.8762000">
        <ele>211.2</ele>
        <time>2019-07-17T14:26:58Z</time>
      </trkpt>
      <trkpt lat="43.1343170" lon="-0.8763040">
        <ele>211.4</ele>
        <time>2019-07-17T14:27:02Z</time>
      </trkpt>
      <trkpt lat="43.1342320" lon="-0.8763800">
        <ele>211.6</ele>
        <time>2019-07-17T14:27:06Z</time>
      </trkpt>
      <trkpt lat="43.1341470" lon="-0.8764410">
        <ele>211.9</ele>
        <time>2019-07-17T14:27:10Z</time>
      </trkpt>
      <trkpt lat="43.1340470" lon="-0.8764720">
        <ele>212.2</ele>
        <time>2019-07-17T14:27:14Z</time>
      </trkpt>
      <trkpt lat="43.1339470" lon="-0.8764950">
        <ele>212.5</ele>
        <time>2019-07-17T14:27:18Z</time>
      </trkpt>
      <trkpt lat="43.1338400" lon="-0.8765100">
        <ele>212.7</ele>
        <time>2019-07-17T14:27:22Z</time>
      </trkpt>
      <trkpt lat="43.1337220" lon="-0.8765200">
        <ele>213.0</ele>
        <time>2019-07-17T14:27:26Z</time>
      </trkpt>
      <trkpt lat="43.1336290" lon="-0.8765470">
        <ele>213.2</ele>
        <time>2019-07-17T14:27:29Z</time>
      </trkpt>
      <trkpt lat="43.1335140" lon="-0.8765670">
        <ele>213.3</ele>
        <time>2019-07-17T14:27:33Z</time>
      </trkpt>
      <trkpt lat="43.1334220" lon="-0.8765790">
        <ele>213.4</ele>
        <time>2019-07-17T14:27:36Z</time>
      </trkpt>
      <trkpt lat="43.1333140" lon="-0.8765970">
        <ele>213.5</ele>
        <time>2019-07-17T14:27:39Z</time>
      </trkpt>
      <trkpt lat="43.1332070" lon="-0.8766170">
        <ele>213.6</ele>
        <time>2019-07-17T14:27:42Z</time>
      </trkpt>
      <trkpt lat="43.1331130" lon="-0.8766350">
        <ele>213.7</ele>
        <time>2019-07-17T14:27:45Z</time>
      </trkpt>
      <trkpt lat="43.1330200" lon="-0.8766530">
        <ele>213.8</ele>
        <time>2019-07-17T14:27:48Z</time>
      </trkpt>
      <trkpt lat="43.1329290" lon="-0.8766650">
        <ele>213.9</ele>
        <time>2019-07-17T14:27:51Z</time>
      </trkpt>
      <trkpt lat="43.1328350" lon="-0.8766860">
        <ele>214.0</ele>
        <time>2019-07-17T14:27:54Z</time>
      </trkpt>
      <trkpt lat="43.1327430" lon="-0.8766940">
        <ele>214.1</ele>
        <time>2019-07-17T14:27:57Z</time>
      </trkpt>
      <trkpt lat="43.1326260" lon="-0.8767170">
        <ele>214.3</ele>
        <time>2019-07-17T14:28:01Z</time>
      </trkpt>
      <trkpt lat="43.1325050" lon="-0.8767240">
        <ele>214.6</ele>
        <time>2019-07-17T14:28:06Z</time>
      </trkpt>
      <trkpt lat="43.1324050" lon="-0.8767300">
        <ele>214.8</ele>
        <time>2019-07-17T14:28:10Z</time>
      </trkpt>
      <trkpt lat="43.1323070" lon="-0.8767440">
        <ele>215.1</ele>
        <time>2019-07-17T14:28:13Z</time>
      </trkpt>
      <trkpt lat="43.1321880" lon="-0.8767530">
        <ele>215.5</ele>
        <time>2019-07-17T14:28:17Z</time>
      </trkpt>
      <trkpt lat="43.1320790" lon="-0.8767510">
        <ele>215.7</ele>
        <time>2019-07-17T14:28:21Z</time>
      </trkpt>
      <trkpt lat="43.1319680" lon="-0.8767620">
        <ele>216.0</ele>
        <time>2019-07-17T14:28:25Z</time>
      </trkpt>
      <trkpt lat="43.1318680" lon="-0.8767840">
        <ele>216.3</ele>
        <time>2019-07-17T14:28:28Z</time>
      </trkpt>
      <trkpt lat="43.1317700" lon="-0.8768010">
        <ele>216.5</ele>
        <time>2019-07-17T14:28:31Z</time>
      </trkpt>
      <trkpt lat="43.1316510" lon="-0.8768100">
        <ele>216.8</ele>
        <time>2019-07-17T14:28:35Z</time>
      </trkpt>
      <trkpt lat="43.1315610" lon="-0.8768110">
        <ele>217.0</ele>
        <time>2019-07-17T14:28:38Z</time>
      </trkpt>
      <trkpt lat="43.1314500" lon="-0.8768200">
        <ele>217.2</ele>
        <time>2019-07-17T14:28:42Z</time>
      </trkpt>
      <trkpt lat="43.1313420" lon="-0.8768230">
        <ele>217.4</ele>
        <time>2019-07-17T14:28:46Z</time>
      </trkpt>
      <trkpt lat="43.1312380" lon="-0.8768090">
        <ele>217.6</ele>
        <time>2019-07-17T14:28:50Z</time>
      </trkpt>
      <trkpt lat="43.1311430" lon="-0.8767720">
        <ele>217.7</ele>
        <time>2019-07-17T14:28:54Z</time>
      </trkpt>
      <trkpt lat="43.1310500" lon="-0.8767050">
        <ele>217.9</ele>
        <time>2019-07-17T14:28:58Z</time>
      </trkpt>
      <trkpt lat="43.1309750" lon="-0.8766340">
        <ele>218.0</ele>
        <time>2019-07-17T14:29:01Z</time>
      </trkpt>
      <trkpt lat="43.1308880" lon="-0.8765660">
        <ele>217.8</ele>
        <time>2019-07-17T14:29:04Z</time>
      </trkpt>
      <trkpt lat="43.1307860" lon="-0.8764900">
        <ele>217.7</ele>
        <time>2019-07-17T14:29:08Z</time>
      </trkpt>
      <trkpt lat="43.1306800" lon="-0.8764280">
        <ele>217.6</ele>
        <time>2019-07-17T14:29:12Z</time>
      </trkpt>
      <trkpt lat="43.1305720" lon="-0.8763920">
        <ele>217.6</ele>
        <time>2019-07-17T14:29:16Z</time>
      </trkpt>
      <trkpt lat="43.1304770" lon="-0.8763690">
        <ele>217.6</ele>
        <time>2019-07-17T14:29:21Z</time>
      </trkpt>
      <trkpt lat="43.1303800" lon="-0.8763640">
        <ele>217.6</ele>
        <time>2019-07-17T14:29:28Z</time>
      </trkpt>
      <trkpt lat="43.1303720" lon="-0.8763670">
        <ele>217.6</ele>
        <time>2019-07-17T14:29:32Z</time>
      </trkpt>
      <trkpt lat="43.1304360" lon="-0.8764600">
        <ele>217.7</ele>
        <time>2019-07-17T14:29:55Z</time>
      </trkpt>
      <trkpt lat="43.1304400" lon="-0.8764550">
        <ele>217.7</ele>
        <time>2019-07-17T14:29:57Z</time>
      </trkpt>
      <trkpt lat="43.1303560" lon="-0.8763560">
        <ele>217.7</ele>
        <time>2019-07-17T14:38:43Z</time>
      </trkpt>
      <trkpt lat="43.1302580" lon="-0.8763260">
        <ele>217.8</ele>
        <time>2019-07-17T14:38:47Z</time>
      </trkpt>
      <trkpt lat="43.1301600" lon="-0.8762980">
        <ele>217.8</ele>
        <time>2019-07-17T14:38:51Z</time>
      </trkpt>
      <trkpt lat="43.1300610" lon="-0.8762830">
        <ele>217.7</ele>
        <time>2019-07-17T14:38:55Z</time>
      </trkpt>
      <trkpt lat="43.1299460" lon="-0.8762750">
        <ele>217.7</ele>
        <time>2019-07-17T14:38:59Z</time>
      </trkpt>
      <trkpt lat="43.1298390" lon="-0.8762570">
        <ele>217.7</ele>
        <time>2019-07-17T14:39:03Z</time>
      </trkpt>
      <trkpt lat="43.1297320" lon="-0.8762420">
        <ele>217.7</ele>
        <time>2019-07-17T14:39:07Z</time>
      </trkpt>
      <trkpt lat="43.1296310" lon="-0.8762280">
        <ele>217.8</ele>
        <time>2019-07-17T14:39:11Z</time>
      </trkpt>
      <trkpt lat="43.1295250" lon="-0.8762170">
        <ele>217.8</ele>
        <time>2019-07-17T14:39:15Z</time>
      </trkpt>
      <trkpt lat="43.1294210" lon="-0.8762030">
        <ele>217.8</ele>
        <time>2019-07-17T14:39:19Z</time>
      </trkpt>
      <trkpt lat="43.1293160" lon="-0.8761860">
        <ele>217.8</ele>
        <time>2019-07-17T14:39:23Z</time>
      </trkpt>
      <trkpt lat="43.1292100" lon="-0.8761750">
        <ele>217.8</ele>
        <time>2019-07-17T14:39:27Z</time>
      </trkpt>
      <trkpt lat="43.1290990" lon="-0.8761560">
        <ele>217.8</ele>
        <time>2019-07-17T14:39:31Z</time>
      </trkpt>
      <trkpt lat="43.1289870" lon="-0.8761400">
        <ele>217.8</ele>
        <time>2019-07-17T14:39:35Z</time>
      </trkpt>
      <trkpt lat="43.1288790" lon="-0.8761230">
        <ele>217.8</ele>
        <time>2019-07-17T14:39:39Z</time>
      </trkpt>
      <trkpt lat="43.1287680" lon="-0.8761120">
        <ele>217.8</ele>
        <time>2019-07-17T14:39:43Z</time>
      </trkpt>
      <trkpt lat="43.1286510" lon="-0.8761050">
        <ele>217.8</ele>
        <time>2019-07-17T14:39:47Z</time>
      </trkpt>
      <trkpt lat="43.1285340" lon="-0.8760970">
        <ele>217.8</ele>
        <time>2019-07-17T14:39:51Z</time>
      </trkpt>
      <trkpt lat="43.1284180" lon="-0.8760760">
        <ele>218.0</ele>
        <time>2019-07-17T14:39:55Z</time>
      </trkpt>
      <trkpt lat="43.1283060" lon="-0.8760520">
        <ele>218.2</ele>
        <time>2019-07-17T14:39:59Z</time>
      </trkpt>
      <trkpt lat="43.1282160" lon="-0.8760390">
        <ele>218.3</ele>
        <time>2019-07-17T14:40:02Z</time>
      </trkpt>
      <trkpt lat="43.1281200" lon="-0.8760360">
        <ele>218.4</ele>
        <time>2019-07-17T14:40:05Z</time>
      </trkpt>
      <trkpt lat="43.1280300" lon="-0.8760240">
        <ele>218.5</ele>
        <time>2019-07-17T14:40:08Z</time>
      </trkpt>
      <trkpt lat="43.1279140" lon="-0.8760120">
        <ele>218.5</ele>
        <time>2019-07-17T14:40:12Z</time>
      </trkpt>
      <trkpt lat="43.1278060" lon="-0.8760020">
        <ele>218.6</ele>
        <time>2019-07-17T14:40:16Z</time>
      </trkpt>
      <trkpt lat="43.1277060" lon="-0.8759940">
        <ele>218.6</ele>
        <time>2019-07-17T14:40:20Z</time>
      </trkpt>
      <trkpt lat="43.1276020" lon="-0.8759850">
        <ele>218.6</ele>
        <time>2019-07-17T14:40:24Z</time>
      </trkpt>
      <trkpt lat="43.1275020" lon="-0.8759890">
        <ele>218.7</ele>
        <time>2019-07-17T14:40:28Z</time>
      </trkpt>
      <trkpt lat="43.1274030" lon="-0.8759840">
        <ele>218.7</ele>
        <time>2019-07-17T14:40:32Z</time>
      </trkpt>
      <trkpt lat="43.1272920" lon="-0.8759720">
        <ele>218.8</ele>
        <time>2019-07-17T14:40:36Z</time>
      </trkpt>
      <trkpt lat="43.1271820" lon="-0.8759720">
        <ele>218.8</ele>
        <time>2019-07-17T14:40:40Z</time>
      </trkpt>
      <trkpt lat="43.1270720" lon="-0.8759610">
        <ele>218.9</ele>
        <time>2019-07-17T14:40:44Z</time>
      </trkpt>
      <trkpt lat="43.1269640" lon="-0.8759490">
        <ele>218.9</ele>
        <time>2019-07-17T14:40:48Z</time>
      </trkpt>
      <trkpt lat="43.1268540" lon="-0.8759400">
        <ele>219.0</ele>
        <time>2019-07-17T14:40:52Z</time>
      </trkpt>
      <trkpt lat="43.1267370" lon="-0.8759240">
        <ele>219.0</ele>
        <time>2019-07-17T14:40:56Z</time>
      </trkpt>
      <trkpt lat="43.1266250" lon="-0.8759140">
        <ele>219.3</ele>
        <time>2019-07-17T14:41:00Z</time>
      </trkpt>
      <trkpt lat="43.1265350" lon="-0.8759040">
        <ele>219.5</ele>
        <time>2019-07-17T14:41:03Z</time>
      </trkpt>
      <trkpt lat="43.1264390" lon="-0.8758980">
        <ele>219.7</ele>
        <time>2019-07-17T14:41:06Z</time>
      </trkpt>
      <trkpt lat="43.1263420" lon="-0.8758860">
        <ele>219.8</ele>
        <time>2019-07-17T14:41:09Z</time>
      </trkpt>
      <trkpt lat="43.1262350" lon="-0.8758710">
        <ele>219.9</ele>
        <time>2019-07-17T14:41:12Z</time>
      </trkpt>
      <trkpt lat="43.1261260" lon="-0.8758600">
        <ele>220.1</ele>
        <time>2019-07-17T14:41:15Z</time>
      </trkpt>
      <trkpt lat="43.1260120" lon="-0.8758470">
        <ele>220.3</ele>
        <time>2019-07-17T14:41:18Z</time>
      </trkpt>
      <trkpt lat="43.1259000" lon="-0.8758250">
        <ele>220.5</ele>
        <time>2019-07-17T14:41:21Z</time>
      </trkpt>
      <trkpt lat="43.1257740" lon="-0.8758110">
        <ele>220.7</ele>
        <time>2019-07-17T14:41:24Z</time>
      </trkpt>
      <trkpt lat="43.1256470" lon="-0.8757940">
        <ele>221.0</ele>
        <time>2019-07-17T14:41:27Z</time>
      </trkpt>
      <trkpt lat="43.1255180" lon="-0.8757790">
        <ele>221.4</ele>
        <time>2019-07-17T14:41:30Z</time>
      </trkpt>
      <trkpt lat="43.1253850" lon="-0.8757680">
        <ele>221.8</ele>
        <time>2019-07-17T14:41:33Z</time>
      </trkpt>
      <trkpt lat="43.1252590" lon="-0.8757490">
        <ele>222.2</ele>
        <time>2019-07-17T14:41:36Z</time>
      </trkpt>
      <trkpt lat="43.1251320" lon="-0.8757250">
        <ele>222.5</ele>
        <time>2019-07-17T14:41:39Z</time>
      </trkpt>
      <trkpt lat="43.1250170" lon="-0.8757050">
        <ele>222.8</ele>
        <time>2019-07-17T14:41:42Z</time>
      </trkpt>
      <trkpt lat="43.1249120" lon="-0.8756850">
        <ele>223.1</ele>
        <time>2019-07-17T14:41:45Z</time>
      </trkpt>
      <trkpt lat="43.1248070" lon="-0.8756710">
        <ele>223.4</ele>
        <time>2019-07-17T14:41:48Z</time>
      </trkpt>
      <trkpt lat="43.1247060" lon="-0.8756530">
        <ele>223.7</ele>
        <time>2019-07-17T14:41:51Z</time>
      </trkpt>
      <trkpt lat="43.1246130" lon="-0.8756350">
        <ele>223.9</ele>
        <time>2019-07-17T14:41:54Z</time>
      </trkpt>
      <trkpt lat="43.1245050" lon="-0.8756060">
        <ele>224.1</ele>
        <time>2019-07-17T14:41:58Z</time>
      </trkpt>
      <trkpt lat="43.1243950" lon="-0.8755700">
        <ele>224.4</ele>
        <time>2019-07-17T14:42:02Z</time>
      </trkpt>
      <trkpt lat="43.1243060" lon="-0.8755500">
        <ele>224.6</ele>
        <time>2019-07-17T14:42:05Z</time>
      </trkpt>
      <trkpt lat="43.1241910" lon="-0.8755260">
        <ele>224.8</ele>
        <time>2019-07-17T14:42:09Z</time>
      </trkpt>
      <trkpt lat="43.1240770" lon="-0.8754920">
        <ele>225.0</ele>
        <time>2019-07-17T14:42:13Z</time>
      </trkpt>
      <trkpt lat="43.1239920" lon="-0.8754500">
        <ele>225.1</ele>
        <time>2019-07-17T14:42:16Z</time>
      </trkpt>
      <trkpt lat="43.1238850" lon="-0.8753890">
        <ele>225.2</ele>
        <time>2019-07-17T14:42:20Z</time>
      </trkpt>
      <trkpt lat="43.1237830" lon="-0.8753200">
        <ele>225.5</ele>
        <time>2019-07-17T14:42:24Z</time>
      </trkpt>
      <trkpt lat="43.1237070" lon="-0.8752530">
        <ele>225.8</ele>
        <time>2019-07-17T14:42:27Z</time>
      </trkpt>
      <trkpt lat="43.1236150" lon="-0.8751530">
        <ele>225.9</ele>
        <time>2019-07-17T14:42:31Z</time>
      </trkpt>
      <trkpt lat="43.1235460" lon="-0.8750590">
        <ele>225.8</ele>
        <time>2019-07-17T14:42:34Z</time>
      </trkpt>
      <trkpt lat="43.1234840" lon="-0.8749560">
        <ele>225.8</ele>
        <time>2019-07-17T14:42:37Z</time>
      </trkpt>
      <trkpt lat="43.1234210" lon="-0.8748460">
        <ele>225.8</ele>
        <time>2019-07-17T14:42:40Z</time>
      </trkpt>
      <trkpt lat="43.1233710" lon="-0.8747300">
        <ele>225.8</ele>
        <time>2019-07-17T14:42:43Z</time>
      </trkpt>
      <trkpt lat="43.1233220" lon="-0.8745910">
        <ele>225.7</ele>
        <time>2019-07-17T14:42:46Z</time>
      </trkpt>
      <trkpt lat="43.1232780" lon="-0.8744460">
        <ele>225.7</ele>
        <time>2019-07-17T14:42:49Z</time>
      </trkpt>
      <trkpt lat="43.1232280" lon="-0.8742870">
        <ele>225.7</ele>
        <time>2019-07-17T14:42:52Z</time>
      </trkpt>
      <trkpt lat="43.1231840" lon="-0.8741220">
        <ele>225.7</ele>
        <time>2019-07-17T14:42:55Z</time>
      </trkpt>
      <trkpt lat="43.1231350" lon="-0.8739580">
        <ele>225.8</ele>
        <time>2019-07-17T14:42:58Z</time>
      </trkpt>
      <trkpt lat="43.1230890" lon="-0.8737890">
        <ele>225.8</ele>
        <time>2019-07-17T14:43:01Z</time>
      </trkpt>
      <trkpt lat="43.1230490" lon="-0.8736200">
        <ele>225.8</ele>
        <time>2019-07-17T14:43:04Z</time>
      </trkpt>
      <trkpt lat="43.1230040" lon="-0.8734580">
        <ele>225.8</ele>
        <time>2019-07-17T14:43:07Z</time>
      </trkpt>
      <trkpt lat="43.1229630" lon="-0.8732990">
        <ele>225.9</ele>
        <time>2019-07-17T14:43:10Z</time>
      </trkpt>
      <trkpt lat="43.1229210" lon="-0.8731400">
        <ele>225.8</ele>
        <time>2019-07-17T14:43:13Z</time>
      </trkpt>
      <trkpt lat="43.1228770" lon="-0.8729770">
        <ele>225.8</ele>
        <time>2019-07-17T14:43:16Z</time>
      </trkpt>
      <trkpt lat="43.1228360" lon="-0.8728240">
        <ele>225.8</ele>
        <time>2019-07-17T14:43:19Z</time>
      </trkpt>
      <trkpt lat="43.1227920" lon="-0.8726620">
        <ele>225.7</ele>
        <time>2019-07-17T14:43:22Z</time>
      </trkpt>
      <trkpt lat="43.1227440" lon="-0.8725000">
        <ele>225.7</ele>
        <time>2019-07-17T14:43:25Z</time>
      </trkpt>
      <trkpt lat="43.1227080" lon="-0.8723310">
        <ele>225.7</ele>
        <time>2019-07-17T14:43:28Z</time>
      </trkpt>
      <trkpt lat="43.1226790" lon="-0.8722120">
        <ele>225.6</ele>
        <time>2019-07-17T14:43:30Z</time>
      </trkpt>
      <trkpt lat="43.1226370" lon="-0.8720440">
        <ele>225.6</ele>
        <time>2019-07-17T14:43:33Z</time>
      </trkpt>
      <trkpt lat="43.1226000" lon="-0.8718870">
        <ele>225.6</ele>
        <time>2019-07-17T14:43:36Z</time>
      </trkpt>
      <trkpt lat="43.1225570" lon="-0.8717210">
        <ele>225.6</ele>
        <time>2019-07-17T14:43:39Z</time>
      </trkpt>
      <trkpt lat="43.1225170" lon="-0.8715630">
        <ele>225.6</ele>
        <time>2019-07-17T14:43:42Z</time>
      </trkpt>
      <trkpt lat="43.1224800" lon="-0.8714120">
        <ele>225.7</ele>
        <time>2019-07-17T14:43:45Z</time>
      </trkpt>
      <trkpt lat="43.1224360" lon="-0.8712510">
        <ele>225.7</ele>
        <time>2019-07-17T14:43:48Z</time>
      </trkpt>
      <trkpt lat="43.1223910" lon="-0.8710870">
        <ele>225.7</ele>
        <time>2019-07-17T14:43:51Z</time>
      </trkpt>
      <trkpt lat="43.1223440" lon="-0.8709300">
        <ele>225.7</ele>
        <time>2019-07-17T14:43:54Z</time>
      </trkpt>
      <trkpt lat="43.1223030" lon="-0.8707680">
        <ele>225.8</ele>
        <time>2019-07-17T14:43:57Z</time>
      </trkpt>
      <trkpt lat="43.1222630" lon="-0.8706500">
        <ele>225.8</ele>
        <time>2019-07-17T14:43:59Z</time>
      </trkpt>
      <trkpt lat="43.1222150" lon="-0.8704830">
        <ele>225.8</ele>
        <time>2019-07-17T14:44:02Z</time>
      </trkpt>
      <trkpt lat="43.1221790" lon="-0.8703670">
        <ele>225.8</ele>
        <time>2019-07-17T14:44:04Z</time>
      </trkpt>
      <trkpt lat="43.1221430" lon="-0.8702520">
        <ele>225.9</ele>
        <time>2019-07-17T14:44:06Z</time>
      </trkpt>
      <trkpt lat="43.1221010" lon="-0.8701240">
        <ele>225.9</ele>
        <time>2019-07-17T14:44:08Z</time>
      </trkpt>
      <trkpt lat="43.1220540" lon="-0.8699880">
        <ele>226.0</ele>
        <time>2019-07-17T14:44:10Z</time>
      </trkpt>
      <trkpt lat="43.1220020" lon="-0.8698550">
        <ele>226.0</ele>
        <time>2019-07-17T14:44:12Z</time>
      </trkpt>
      <trkpt lat="43.1219400" lon="-0.8697180">
        <ele>226.0</ele>
        <time>2019-07-17T14:44:14Z</time>
      </trkpt>
      <trkpt lat="43.1218750" lon="-0.8695720">
        <ele>226.1</ele>
        <time>2019-07-17T14:44:16Z</time>
      </trkpt>
      <trkpt lat="43.1217960" lon="-0.8694310">
        <ele>226.1</ele>
        <time>2019-07-17T14:44:18Z</time>
      </trkpt>
      <trkpt lat="43.1217180" lon="-0.8692860">
        <ele>226.2</ele>
        <time>2019-07-17T14:44:20Z</time>
      </trkpt>
      <trkpt lat="43.1216430" lon="-0.8691360">
        <ele>226.2</ele>
        <time>2019-07-17T14:44:22Z</time>
      </trkpt>
      <trkpt lat="43.1215690" lon="-0.8689880">
        <ele>226.2</ele>
        <time>2019-07-17T14:44:24Z</time>
      </trkpt>
      <trkpt lat="43.1215000" lon="-0.8688500">
        <ele>226.2</ele>
        <time>2019-07-17T14:44:26Z</time>
      </trkpt>
      <trkpt lat="43.1214390" lon="-0.8687180">
        <ele>226.2</ele>
        <time>2019-07-17T14:44:28Z</time>
      </trkpt>
      <trkpt lat="43.1213840" lon="-0.8685980">
        <ele>226.0</ele>
        <time>2019-07-17T14:44:30Z</time>
      </trkpt>
      <trkpt lat="43.1213290" lon="-0.8684910">
        <ele>225.8</ele>
        <time>2019-07-17T14:44:32Z</time>
      </trkpt>
      <trkpt lat="43.1212530" lon="-0.8683430">
        <ele>225.4</ele>
        <time>2019-07-17T14:44:35Z</time>
      </trkpt>
      <trkpt lat="43.1211800" lon="-0.8682050">
        <ele>224.9</ele>
        <time>2019-07-17T14:44:38Z</time>
      </trkpt>
      <trkpt lat="43.1211190" lon="-0.8680640">
        <ele>224.2</ele>
        <time>2019-07-17T14:44:41Z</time>
      </trkpt>
      <trkpt lat="43.1210550" lon="-0.8679270">
        <ele>223.5</ele>
        <time>2019-07-17T14:44:44Z</time>
      </trkpt>
      <trkpt lat="43.1209830" lon="-0.8677870">
        <ele>222.8</ele>
        <time>2019-07-17T14:44:47Z</time>
      </trkpt>
      <trkpt lat="43.1208940" lon="-0.8676610">
        <ele>222.1</ele>
        <time>2019-07-17T14:44:50Z</time>
      </trkpt>
      <trkpt lat="43.1208250" lon="-0.8675790">
        <ele>221.6</ele>
        <time>2019-07-17T14:44:52Z</time>
      </trkpt>
      <trkpt lat="43.1207560" lon="-0.8674920">
        <ele>221.1</ele>
        <time>2019-07-17T14:44:54Z</time>
      </trkpt>
      <trkpt lat="43.1206910" lon="-0.8673940">
        <ele>220.2</ele>
        <time>2019-07-17T14:44:56Z</time>
      </trkpt>
      <trkpt lat="43.1206360" lon="-0.8672920">
        <ele>219.5</ele>
        <time>2019-07-17T14:44:58Z</time>
      </trkpt>
      <trkpt lat="43.1205750" lon="-0.8671810">
        <ele>218.8</ele>
        <time>2019-07-17T14:45:01Z</time>
      </trkpt>
      <trkpt lat="43.1205430" lon="-0.8671000">
        <ele>218.3</ele>
        <time>2019-07-17T14:45:10Z</time>
      </trkpt>
    </trkseg>
  </trk>
</gpx>
